<?xml version="1.0" encoding="UTF-8" standalone="no" ?>
<gpx xmlns="http://www.topografix.com/GPX/1/1" xmlns:xsi="http://www.w3.org/2001/XMLSchema-instance" xsi:schemaLocation="http://www.topografix.com/GPX/1/1 http://www.topografix.com/GPX/1/1/gpx.xsd" version="1.1" creator="VisuGPX - https://www.visugpx.com">
  <metadata>
    <name>Sommet du VIERIOU</name>
  </metadata>
  <trk>
    <name><![CDATA[Sommet du VIERIOU_1]]></name>
    <trkseg>
      <trkpt lat="43.81224" lon="7.09698">
        <ele>751.4</ele>
        <time>2019-12-30T12:03:15Z</time>
      </trkpt>
      <trkpt lat="43.81223" lon="7.09692">
        <ele>751.4</ele>
        <time>2019-12-30T12:03:16Z</time>
      </trkpt>
      <trkpt lat="43.81221" lon="7.09686">
        <ele>751.3</ele>
        <time>2019-12-30T12:03:17Z</time>
      </trkpt>
      <trkpt lat="43.8122" lon="7.09679">
        <ele>751.2</ele>
        <time>2019-12-30T12:03:18Z</time>
      </trkpt>
      <trkpt lat="43.81217" lon="7.09673">
        <ele>751.2</ele>
        <time>2019-12-30T12:03:19Z</time>
      </trkpt>
      <trkpt lat="43.81215" lon="7.09667">
        <ele>751.2</ele>
        <time>2019-12-30T12:03:20Z</time>
      </trkpt>
      <trkpt lat="43.81212" lon="7.0966">
        <ele>751.2</ele>
        <time>2019-12-30T12:03:21Z</time>
      </trkpt>
      <trkpt lat="43.8121" lon="7.09653">
        <ele>751.2</ele>
        <time>2019-12-30T12:03:22Z</time>
      </trkpt>
      <trkpt lat="43.81207" lon="7.09647">
        <ele>751.2</ele>
        <time>2019-12-30T12:03:23Z</time>
      </trkpt>
      <trkpt lat="43.81205" lon="7.0964">
        <ele>751.2</ele>
        <time>2019-12-30T12:03:24Z</time>
      </trkpt>
      <trkpt lat="43.81203" lon="7.09634">
        <ele>751.2</ele>
        <time>2019-12-30T12:03:25Z</time>
      </trkpt>
      <trkpt lat="43.812" lon="7.09627">
        <ele>751.3</ele>
        <time>2019-12-30T12:03:26Z</time>
      </trkpt>
      <trkpt lat="43.81198" lon="7.0962">
        <ele>751.3</ele>
        <time>2019-12-30T12:03:27Z</time>
      </trkpt>
      <trkpt lat="43.81197" lon="7.09614">
        <ele>751.3</ele>
        <time>2019-12-30T12:03:28Z</time>
      </trkpt>
      <trkpt lat="43.81195" lon="7.09608">
        <ele>751.3</ele>
        <time>2019-12-30T12:03:29Z</time>
      </trkpt>
      <trkpt lat="43.81192" lon="7.09603">
        <ele>751.3</ele>
        <time>2019-12-30T12:03:30Z</time>
      </trkpt>
      <trkpt lat="43.81188" lon="7.09597">
        <ele>751.4</ele>
        <time>2019-12-30T12:03:31Z</time>
      </trkpt>
      <trkpt lat="43.81183" lon="7.09592">
        <ele>751.4</ele>
        <time>2019-12-30T12:03:32Z</time>
      </trkpt>
      <trkpt lat="43.81178" lon="7.09587">
        <ele>751.4</ele>
        <time>2019-12-30T12:03:33Z</time>
      </trkpt>
      <trkpt lat="43.81174" lon="7.09582">
        <ele>751.4</ele>
        <time>2019-12-30T12:03:34Z</time>
      </trkpt>
      <trkpt lat="43.8117" lon="7.09576">
        <ele>751.4</ele>
        <time>2019-12-30T12:03:35Z</time>
      </trkpt>
      <trkpt lat="43.81167" lon="7.09569">
        <ele>751.4</ele>
        <time>2019-12-30T12:03:36Z</time>
      </trkpt>
      <trkpt lat="43.81167" lon="7.0956">
        <ele>751.4</ele>
        <time>2019-12-30T12:03:37Z</time>
      </trkpt>
      <trkpt lat="43.81167" lon="7.09553">
        <ele>751.5</ele>
        <time>2019-12-30T12:03:38Z</time>
      </trkpt>
      <trkpt lat="43.81167" lon="7.09547">
        <ele>751.5</ele>
        <time>2019-12-30T12:03:39Z</time>
      </trkpt>
      <trkpt lat="43.81167" lon="7.0954">
        <ele>751.6</ele>
        <time>2019-12-30T12:03:40Z</time>
      </trkpt>
      <trkpt lat="43.81168" lon="7.09533">
        <ele>751.6</ele>
        <time>2019-12-30T12:03:41Z</time>
      </trkpt>
      <trkpt lat="43.81168" lon="7.09526">
        <ele>751.8</ele>
        <time>2019-12-30T12:03:42Z</time>
      </trkpt>
      <trkpt lat="43.81169" lon="7.09519">
        <ele>752</ele>
        <time>2019-12-30T12:03:43Z</time>
      </trkpt>
      <trkpt lat="43.81171" lon="7.09512">
        <ele>752.1</ele>
        <time>2019-12-30T12:03:44Z</time>
      </trkpt>
      <trkpt lat="43.81172" lon="7.09505">
        <ele>752.4</ele>
        <time>2019-12-30T12:03:45Z</time>
      </trkpt>
      <trkpt lat="43.81174" lon="7.09498">
        <ele>752.6</ele>
        <time>2019-12-30T12:03:46Z</time>
      </trkpt>
      <trkpt lat="43.81175" lon="7.09491">
        <ele>752.8</ele>
        <time>2019-12-30T12:03:47Z</time>
      </trkpt>
      <trkpt lat="43.81177" lon="7.09484">
        <ele>753.1</ele>
        <time>2019-12-30T12:03:48Z</time>
      </trkpt>
      <trkpt lat="43.81177" lon="7.09477">
        <ele>753.5</ele>
        <time>2019-12-30T12:03:49Z</time>
      </trkpt>
      <trkpt lat="43.81178" lon="7.09469">
        <ele>753.8</ele>
        <time>2019-12-30T12:03:50Z</time>
      </trkpt>
      <trkpt lat="43.81182" lon="7.09461">
        <ele>754.3</ele>
        <time>2019-12-30T12:03:51Z</time>
      </trkpt>
      <trkpt lat="43.81186" lon="7.09452">
        <ele>754.8</ele>
        <time>2019-12-30T12:03:52Z</time>
      </trkpt>
      <trkpt lat="43.81189" lon="7.09445">
        <ele>755.1</ele>
        <time>2019-12-30T12:03:53Z</time>
      </trkpt>
      <trkpt lat="43.81192" lon="7.09438">
        <ele>755.5</ele>
        <time>2019-12-30T12:03:54Z</time>
      </trkpt>
      <trkpt lat="43.81197" lon="7.09427">
        <ele>756.1</ele>
        <time>2019-12-30T12:03:55Z</time>
      </trkpt>
      <trkpt lat="43.81199" lon="7.09423">
        <ele>756.4</ele>
        <time>2019-12-30T12:03:56Z</time>
      </trkpt>
      <trkpt lat="43.81202" lon="7.09418">
        <ele>756.7</ele>
        <time>2019-12-30T12:03:57Z</time>
      </trkpt>
      <trkpt lat="43.81204" lon="7.09414">
        <ele>756.9</ele>
        <time>2019-12-30T12:03:58Z</time>
      </trkpt>
      <trkpt lat="43.81206" lon="7.09409">
        <ele>757.1</ele>
        <time>2019-12-30T12:03:59Z</time>
      </trkpt>
      <trkpt lat="43.81209" lon="7.09404">
        <ele>757.3</ele>
        <time>2019-12-30T12:04:00Z</time>
      </trkpt>
      <trkpt lat="43.81212" lon="7.09399">
        <ele>757.5</ele>
        <time>2019-12-30T12:04:01Z</time>
      </trkpt>
      <trkpt lat="43.81215" lon="7.09394">
        <ele>757.7</ele>
        <time>2019-12-30T12:04:02Z</time>
      </trkpt>
      <trkpt lat="43.81218" lon="7.09389">
        <ele>757.8</ele>
        <time>2019-12-30T12:04:03Z</time>
      </trkpt>
      <trkpt lat="43.81221" lon="7.09385">
        <ele>758</ele>
        <time>2019-12-30T12:04:04Z</time>
      </trkpt>
      <trkpt lat="43.81224" lon="7.0938">
        <ele>758.3</ele>
        <time>2019-12-30T12:04:05Z</time>
      </trkpt>
      <trkpt lat="43.81225" lon="7.09375">
        <ele>758.5</ele>
        <time>2019-12-30T12:04:06Z</time>
      </trkpt>
      <trkpt lat="43.81226" lon="7.09368">
        <ele>758.8</ele>
        <time>2019-12-30T12:04:07Z</time>
      </trkpt>
      <trkpt lat="43.81226" lon="7.09362">
        <ele>759</ele>
        <time>2019-12-30T12:04:08Z</time>
      </trkpt>
      <trkpt lat="43.81226" lon="7.09356">
        <ele>759.3</ele>
        <time>2019-12-30T12:04:09Z</time>
      </trkpt>
      <trkpt lat="43.81226" lon="7.0935">
        <ele>759.5</ele>
        <time>2019-12-30T12:04:10Z</time>
      </trkpt>
      <trkpt lat="43.81226" lon="7.09345">
        <ele>759.7</ele>
        <time>2019-12-30T12:04:11Z</time>
      </trkpt>
      <trkpt lat="43.81226" lon="7.09339">
        <ele>759.9</ele>
        <time>2019-12-30T12:04:12Z</time>
      </trkpt>
      <trkpt lat="43.81226" lon="7.09334">
        <ele>760.1</ele>
        <time>2019-12-30T12:04:13Z</time>
      </trkpt>
      <trkpt lat="43.81226" lon="7.09329">
        <ele>760.3</ele>
        <time>2019-12-30T12:04:14Z</time>
      </trkpt>
      <trkpt lat="43.81226" lon="7.0932">
        <ele>760.7</ele>
        <time>2019-12-30T12:04:15Z</time>
      </trkpt>
      <trkpt lat="43.81226" lon="7.09318">
        <ele>760.8</ele>
        <time>2019-12-30T12:04:16Z</time>
      </trkpt>
      <trkpt lat="43.81226" lon="7.09315">
        <ele>761</ele>
        <time>2019-12-30T12:04:17Z</time>
      </trkpt>
      <trkpt lat="43.81225" lon="7.09311">
        <ele>761.1</ele>
        <time>2019-12-30T12:04:18Z</time>
      </trkpt>
      <trkpt lat="43.81225" lon="7.09308">
        <ele>761.3</ele>
        <time>2019-12-30T12:04:19Z</time>
      </trkpt>
      <trkpt lat="43.81225" lon="7.09308">
        <ele>761.3</ele>
        <time>2019-12-30T12:04:20Z</time>
      </trkpt>
      <trkpt lat="43.81225" lon="7.09308">
        <ele>761.3</ele>
        <time>2019-12-30T12:04:21Z</time>
      </trkpt>
      <trkpt lat="43.81225" lon="7.09307">
        <ele>761.4</ele>
        <time>2019-12-30T12:04:22Z</time>
      </trkpt>
      <trkpt lat="43.81224" lon="7.09307">
        <ele>761.4</ele>
        <time>2019-12-30T12:04:23Z</time>
      </trkpt>
      <trkpt lat="43.81224" lon="7.09307">
        <ele>761.4</ele>
        <time>2019-12-30T12:04:24Z</time>
      </trkpt>
      <trkpt lat="43.81224" lon="7.09306">
        <ele>761.4</ele>
        <time>2019-12-30T12:04:25Z</time>
      </trkpt>
      <trkpt lat="43.81224" lon="7.09306">
        <ele>761.5</ele>
        <time>2019-12-30T12:04:26Z</time>
      </trkpt>
      <trkpt lat="43.81224" lon="7.09305">
        <ele>761.5</ele>
        <time>2019-12-30T12:04:27Z</time>
      </trkpt>
      <trkpt lat="43.81223" lon="7.09305">
        <ele>761.5</ele>
        <time>2019-12-30T12:04:28Z</time>
      </trkpt>
      <trkpt lat="43.81223" lon="7.09305">
        <ele>761.5</ele>
        <time>2019-12-30T12:04:29Z</time>
      </trkpt>
      <trkpt lat="43.81223" lon="7.09304">
        <ele>761.6</ele>
        <time>2019-12-30T12:04:30Z</time>
      </trkpt>
      <trkpt lat="43.81223" lon="7.09304">
        <ele>761.6</ele>
        <time>2019-12-30T12:04:31Z</time>
      </trkpt>
      <trkpt lat="43.81223" lon="7.09304">
        <ele>761.6</ele>
        <time>2019-12-30T12:04:32Z</time>
      </trkpt>
      <trkpt lat="43.81222" lon="7.09303">
        <ele>761.6</ele>
        <time>2019-12-30T12:04:33Z</time>
      </trkpt>
      <trkpt lat="43.81222" lon="7.09303">
        <ele>761.7</ele>
        <time>2019-12-30T12:04:34Z</time>
      </trkpt>
      <trkpt lat="43.81222" lon="7.09303">
        <ele>761.7</ele>
        <time>2019-12-30T12:04:35Z</time>
      </trkpt>
      <trkpt lat="43.81222" lon="7.09302">
        <ele>761.7</ele>
        <time>2019-12-30T12:04:36Z</time>
      </trkpt>
      <trkpt lat="43.81221" lon="7.09302">
        <ele>761.7</ele>
        <time>2019-12-30T12:04:37Z</time>
      </trkpt>
      <trkpt lat="43.81221" lon="7.09301">
        <ele>761.7</ele>
        <time>2019-12-30T12:04:38Z</time>
      </trkpt>
      <trkpt lat="43.81221" lon="7.09301">
        <ele>761.8</ele>
        <time>2019-12-30T12:04:39Z</time>
      </trkpt>
      <trkpt lat="43.81221" lon="7.09301">
        <ele>761.8</ele>
        <time>2019-12-30T12:04:40Z</time>
      </trkpt>
      <trkpt lat="43.81221" lon="7.093">
        <ele>761.8</ele>
        <time>2019-12-30T12:04:41Z</time>
      </trkpt>
      <trkpt lat="43.8122" lon="7.093">
        <ele>761.8</ele>
        <time>2019-12-30T12:04:42Z</time>
      </trkpt>
      <trkpt lat="43.8122" lon="7.093">
        <ele>761.8</ele>
        <time>2019-12-30T12:04:43Z</time>
      </trkpt>
      <trkpt lat="43.8122" lon="7.09299">
        <ele>761.9</ele>
        <time>2019-12-30T12:04:44Z</time>
      </trkpt>
      <trkpt lat="43.8122" lon="7.09299">
        <ele>761.9</ele>
        <time>2019-12-30T12:04:45Z</time>
      </trkpt>
      <trkpt lat="43.81219" lon="7.09299">
        <ele>761.9</ele>
        <time>2019-12-30T12:04:46Z</time>
      </trkpt>
      <trkpt lat="43.81219" lon="7.09298">
        <ele>761.9</ele>
        <time>2019-12-30T12:04:47Z</time>
      </trkpt>
      <trkpt lat="43.81219" lon="7.09298">
        <ele>762</ele>
        <time>2019-12-30T12:04:48Z</time>
      </trkpt>
      <trkpt lat="43.81219" lon="7.09297">
        <ele>762</ele>
        <time>2019-12-30T12:04:49Z</time>
      </trkpt>
      <trkpt lat="43.81219" lon="7.09297">
        <ele>762</ele>
        <time>2019-12-30T12:04:50Z</time>
      </trkpt>
      <trkpt lat="43.81218" lon="7.09297">
        <ele>762</ele>
        <time>2019-12-30T12:04:51Z</time>
      </trkpt>
      <trkpt lat="43.81218" lon="7.09296">
        <ele>762</ele>
        <time>2019-12-30T12:04:52Z</time>
      </trkpt>
      <trkpt lat="43.81218" lon="7.09296">
        <ele>762.1</ele>
        <time>2019-12-30T12:04:53Z</time>
      </trkpt>
      <trkpt lat="43.81218" lon="7.09296">
        <ele>762.1</ele>
        <time>2019-12-30T12:04:54Z</time>
      </trkpt>
      <trkpt lat="43.81218" lon="7.09295">
        <ele>762.1</ele>
        <time>2019-12-30T12:04:55Z</time>
      </trkpt>
      <trkpt lat="43.81217" lon="7.09295">
        <ele>762.1</ele>
        <time>2019-12-30T12:04:56Z</time>
      </trkpt>
      <trkpt lat="43.81217" lon="7.09295">
        <ele>762.2</ele>
        <time>2019-12-30T12:04:57Z</time>
      </trkpt>
      <trkpt lat="43.81217" lon="7.09294">
        <ele>762.2</ele>
        <time>2019-12-30T12:04:58Z</time>
      </trkpt>
      <trkpt lat="43.81217" lon="7.09294">
        <ele>762.2</ele>
        <time>2019-12-30T12:04:59Z</time>
      </trkpt>
      <trkpt lat="43.81216" lon="7.09293">
        <ele>762.2</ele>
        <time>2019-12-30T12:05:00Z</time>
      </trkpt>
      <trkpt lat="43.81216" lon="7.09293">
        <ele>762.2</ele>
        <time>2019-12-30T12:05:01Z</time>
      </trkpt>
      <trkpt lat="43.81216" lon="7.09293">
        <ele>762.3</ele>
        <time>2019-12-30T12:05:02Z</time>
      </trkpt>
      <trkpt lat="43.81216" lon="7.09292">
        <ele>762.3</ele>
        <time>2019-12-30T12:05:03Z</time>
      </trkpt>
      <trkpt lat="43.81216" lon="7.09292">
        <ele>762.3</ele>
        <time>2019-12-30T12:05:04Z</time>
      </trkpt>
      <trkpt lat="43.81215" lon="7.09292">
        <ele>762.3</ele>
        <time>2019-12-30T12:05:05Z</time>
      </trkpt>
      <trkpt lat="43.81215" lon="7.09291">
        <ele>761.5</ele>
        <time>2019-12-30T12:05:06Z</time>
      </trkpt>
      <trkpt lat="43.81215" lon="7.09291">
        <ele>761.5</ele>
        <time>2019-12-30T12:05:07Z</time>
      </trkpt>
      <trkpt lat="43.81215" lon="7.09291">
        <ele>761.5</ele>
        <time>2019-12-30T12:05:08Z</time>
      </trkpt>
      <trkpt lat="43.81214" lon="7.0929">
        <ele>761.5</ele>
        <time>2019-12-30T12:05:09Z</time>
      </trkpt>
      <trkpt lat="43.81214" lon="7.0929">
        <ele>761.4</ele>
        <time>2019-12-30T12:05:10Z</time>
      </trkpt>
      <trkpt lat="43.81214" lon="7.09289">
        <ele>761.4</ele>
        <time>2019-12-30T12:05:11Z</time>
      </trkpt>
      <trkpt lat="43.81214" lon="7.09289">
        <ele>761.4</ele>
        <time>2019-12-30T12:05:12Z</time>
      </trkpt>
      <trkpt lat="43.81214" lon="7.09289">
        <ele>761.4</ele>
        <time>2019-12-30T12:05:13Z</time>
      </trkpt>
      <trkpt lat="43.81213" lon="7.09288">
        <ele>761.4</ele>
        <time>2019-12-30T12:05:14Z</time>
      </trkpt>
      <trkpt lat="43.81213" lon="7.09288">
        <ele>761.3</ele>
        <time>2019-12-30T12:05:15Z</time>
      </trkpt>
      <trkpt lat="43.81213" lon="7.09288">
        <ele>761.3</ele>
        <time>2019-12-30T12:05:16Z</time>
      </trkpt>
      <trkpt lat="43.81213" lon="7.09287">
        <ele>761.3</ele>
        <time>2019-12-30T12:05:17Z</time>
      </trkpt>
      <trkpt lat="43.81213" lon="7.09287">
        <ele>761.3</ele>
        <time>2019-12-30T12:05:18Z</time>
      </trkpt>
      <trkpt lat="43.81212" lon="7.09287">
        <ele>761.3</ele>
        <time>2019-12-30T12:05:19Z</time>
      </trkpt>
      <trkpt lat="43.81212" lon="7.09286">
        <ele>761.3</ele>
        <time>2019-12-30T12:05:20Z</time>
      </trkpt>
      <trkpt lat="43.81212" lon="7.09286">
        <ele>761.2</ele>
        <time>2019-12-30T12:05:21Z</time>
      </trkpt>
      <trkpt lat="43.81212" lon="7.09286">
        <ele>761.2</ele>
        <time>2019-12-30T12:05:22Z</time>
      </trkpt>
      <trkpt lat="43.81211" lon="7.09285">
        <ele>761.2</ele>
        <time>2019-12-30T12:05:23Z</time>
      </trkpt>
      <trkpt lat="43.81211" lon="7.09285">
        <ele>761.2</ele>
        <time>2019-12-30T12:05:24Z</time>
      </trkpt>
      <trkpt lat="43.81211" lon="7.09284">
        <ele>761.2</ele>
        <time>2019-12-30T12:05:25Z</time>
      </trkpt>
      <trkpt lat="43.81211" lon="7.09284">
        <ele>761.1</ele>
        <time>2019-12-30T12:05:26Z</time>
      </trkpt>
      <trkpt lat="43.81211" lon="7.09284">
        <ele>761.1</ele>
        <time>2019-12-30T12:05:27Z</time>
      </trkpt>
      <trkpt lat="43.8121" lon="7.09283">
        <ele>761.1</ele>
        <time>2019-12-30T12:05:28Z</time>
      </trkpt>
      <trkpt lat="43.8121" lon="7.09283">
        <ele>761.1</ele>
        <time>2019-12-30T12:05:29Z</time>
      </trkpt>
      <trkpt lat="43.8121" lon="7.09283">
        <ele>761.1</ele>
        <time>2019-12-30T12:05:30Z</time>
      </trkpt>
      <trkpt lat="43.8121" lon="7.09282">
        <ele>761.1</ele>
        <time>2019-12-30T12:05:31Z</time>
      </trkpt>
      <trkpt lat="43.81209" lon="7.09282">
        <ele>761</ele>
        <time>2019-12-30T12:05:32Z</time>
      </trkpt>
      <trkpt lat="43.81209" lon="7.09282">
        <ele>761</ele>
        <time>2019-12-30T12:05:33Z</time>
      </trkpt>
      <trkpt lat="43.81209" lon="7.09281">
        <ele>761</ele>
        <time>2019-12-30T12:05:34Z</time>
      </trkpt>
      <trkpt lat="43.81209" lon="7.09281">
        <ele>761</ele>
        <time>2019-12-30T12:05:35Z</time>
      </trkpt>
      <trkpt lat="43.81209" lon="7.0928">
        <ele>761</ele>
        <time>2019-12-30T12:05:36Z</time>
      </trkpt>
      <trkpt lat="43.81208" lon="7.0928">
        <ele>761</ele>
        <time>2019-12-30T12:05:37Z</time>
      </trkpt>
      <trkpt lat="43.81208" lon="7.0928">
        <ele>760.9</ele>
        <time>2019-12-30T12:05:38Z</time>
      </trkpt>
      <trkpt lat="43.81208" lon="7.09279">
        <ele>760.9</ele>
        <time>2019-12-30T12:05:39Z</time>
      </trkpt>
      <trkpt lat="43.81208" lon="7.09279">
        <ele>760.9</ele>
        <time>2019-12-30T12:05:40Z</time>
      </trkpt>
      <trkpt lat="43.81208" lon="7.09279">
        <ele>760.9</ele>
        <time>2019-12-30T12:05:41Z</time>
      </trkpt>
      <trkpt lat="43.81207" lon="7.09278">
        <ele>760.8</ele>
        <time>2019-12-30T12:05:42Z</time>
      </trkpt>
      <trkpt lat="43.81207" lon="7.09278">
        <ele>760.8</ele>
        <time>2019-12-30T12:05:43Z</time>
      </trkpt>
      <trkpt lat="43.81207" lon="7.09278">
        <ele>760.8</ele>
        <time>2019-12-30T12:05:44Z</time>
      </trkpt>
      <trkpt lat="43.81207" lon="7.09277">
        <ele>760.8</ele>
        <time>2019-12-30T12:05:45Z</time>
      </trkpt>
      <trkpt lat="43.81207" lon="7.09277">
        <ele>760.8</ele>
        <time>2019-12-30T12:05:46Z</time>
      </trkpt>
      <trkpt lat="43.81207" lon="7.09277">
        <ele>760.8</ele>
        <time>2019-12-30T12:05:47Z</time>
      </trkpt>
      <trkpt lat="43.81207" lon="7.09277">
        <ele>760.8</ele>
        <time>2019-12-30T12:05:48Z</time>
      </trkpt>
      <trkpt lat="43.81208" lon="7.09277">
        <ele>760.8</ele>
        <time>2019-12-30T12:05:49Z</time>
      </trkpt>
      <trkpt lat="43.81208" lon="7.09277">
        <ele>760.9</ele>
        <time>2019-12-30T12:05:50Z</time>
      </trkpt>
      <trkpt lat="43.81208" lon="7.09277">
        <ele>760.9</ele>
        <time>2019-12-30T12:05:51Z</time>
      </trkpt>
      <trkpt lat="43.81208" lon="7.09277">
        <ele>760.9</ele>
        <time>2019-12-30T12:05:52Z</time>
      </trkpt>
      <trkpt lat="43.81208" lon="7.09277">
        <ele>760.9</ele>
        <time>2019-12-30T12:05:53Z</time>
      </trkpt>
      <trkpt lat="43.81208" lon="7.09278">
        <ele>760.9</ele>
        <time>2019-12-30T12:05:54Z</time>
      </trkpt>
      <trkpt lat="43.81209" lon="7.09278">
        <ele>760.9</ele>
        <time>2019-12-30T12:05:55Z</time>
      </trkpt>
      <trkpt lat="43.81209" lon="7.09278">
        <ele>760.9</ele>
        <time>2019-12-30T12:05:56Z</time>
      </trkpt>
      <trkpt lat="43.8121" lon="7.09279">
        <ele>760.9</ele>
        <time>2019-12-30T12:05:57Z</time>
      </trkpt>
      <trkpt lat="43.8121" lon="7.0928">
        <ele>760.9</ele>
        <time>2019-12-30T12:05:58Z</time>
      </trkpt>
      <trkpt lat="43.8121" lon="7.0928">
        <ele>760.9</ele>
        <time>2019-12-30T12:05:59Z</time>
      </trkpt>
      <trkpt lat="43.81211" lon="7.0928">
        <ele>760.9</ele>
        <time>2019-12-30T12:06:00Z</time>
      </trkpt>
      <trkpt lat="43.81211" lon="7.09281">
        <ele>760.9</ele>
        <time>2019-12-30T12:06:01Z</time>
      </trkpt>
      <trkpt lat="43.81211" lon="7.09281">
        <ele>760.9</ele>
        <time>2019-12-30T12:06:02Z</time>
      </trkpt>
      <trkpt lat="43.81211" lon="7.09281">
        <ele>760.9</ele>
        <time>2019-12-30T12:06:03Z</time>
      </trkpt>
      <trkpt lat="43.81211" lon="7.09281">
        <ele>760.9</ele>
        <time>2019-12-30T12:06:04Z</time>
      </trkpt>
      <trkpt lat="43.8121" lon="7.09281">
        <ele>760.9</ele>
        <time>2019-12-30T12:06:05Z</time>
      </trkpt>
      <trkpt lat="43.8121" lon="7.09281">
        <ele>760.9</ele>
        <time>2019-12-30T12:06:06Z</time>
      </trkpt>
      <trkpt lat="43.8121" lon="7.0928">
        <ele>760.9</ele>
        <time>2019-12-30T12:06:07Z</time>
      </trkpt>
      <trkpt lat="43.8121" lon="7.0928">
        <ele>760.9</ele>
        <time>2019-12-30T12:06:08Z</time>
      </trkpt>
      <trkpt lat="43.81209" lon="7.0928">
        <ele>760.9</ele>
        <time>2019-12-30T12:06:09Z</time>
      </trkpt>
      <trkpt lat="43.81209" lon="7.0928">
        <ele>760.9</ele>
        <time>2019-12-30T12:06:10Z</time>
      </trkpt>
      <trkpt lat="43.81209" lon="7.0928">
        <ele>760.9</ele>
        <time>2019-12-30T12:06:11Z</time>
      </trkpt>
      <trkpt lat="43.81208" lon="7.09279">
        <ele>760.9</ele>
        <time>2019-12-30T12:06:12Z</time>
      </trkpt>
      <trkpt lat="43.81208" lon="7.09279">
        <ele>760.9</ele>
        <time>2019-12-30T12:06:13Z</time>
      </trkpt>
      <trkpt lat="43.81208" lon="7.09279">
        <ele>760.9</ele>
        <time>2019-12-30T12:06:14Z</time>
      </trkpt>
      <trkpt lat="43.81208" lon="7.09279">
        <ele>760.9</ele>
        <time>2019-12-30T12:06:15Z</time>
      </trkpt>
      <trkpt lat="43.81207" lon="7.09279">
        <ele>760.8</ele>
        <time>2019-12-30T12:06:16Z</time>
      </trkpt>
      <trkpt lat="43.81207" lon="7.09278">
        <ele>760.8</ele>
        <time>2019-12-30T12:06:17Z</time>
      </trkpt>
      <trkpt lat="43.81207" lon="7.09278">
        <ele>760.7</ele>
        <time>2019-12-30T12:06:18Z</time>
      </trkpt>
      <trkpt lat="43.81206" lon="7.09278">
        <ele>760.7</ele>
        <time>2019-12-30T12:06:19Z</time>
      </trkpt>
      <trkpt lat="43.81206" lon="7.09278">
        <ele>760.7</ele>
        <time>2019-12-30T12:06:20Z</time>
      </trkpt>
      <trkpt lat="43.81206" lon="7.09278">
        <ele>760.7</ele>
        <time>2019-12-30T12:06:21Z</time>
      </trkpt>
      <trkpt lat="43.81206" lon="7.09277">
        <ele>760.7</ele>
        <time>2019-12-30T12:06:22Z</time>
      </trkpt>
      <trkpt lat="43.81205" lon="7.09277">
        <ele>760.7</ele>
        <time>2019-12-30T12:06:23Z</time>
      </trkpt>
      <trkpt lat="43.81205" lon="7.09277">
        <ele>760.6</ele>
        <time>2019-12-30T12:06:24Z</time>
      </trkpt>
      <trkpt lat="43.81205" lon="7.09277">
        <ele>760.6</ele>
        <time>2019-12-30T12:06:25Z</time>
      </trkpt>
      <trkpt lat="43.81204" lon="7.09277">
        <ele>760.6</ele>
        <time>2019-12-30T12:06:26Z</time>
      </trkpt>
      <trkpt lat="43.81204" lon="7.09276">
        <ele>760.6</ele>
        <time>2019-12-30T12:06:27Z</time>
      </trkpt>
      <trkpt lat="43.81204" lon="7.09276">
        <ele>760.6</ele>
        <time>2019-12-30T12:06:28Z</time>
      </trkpt>
      <trkpt lat="43.81204" lon="7.09276">
        <ele>760.5</ele>
        <time>2019-12-30T12:06:29Z</time>
      </trkpt>
      <trkpt lat="43.81203" lon="7.09276">
        <ele>760.5</ele>
        <time>2019-12-30T12:06:30Z</time>
      </trkpt>
      <trkpt lat="43.81203" lon="7.09276">
        <ele>760.5</ele>
        <time>2019-12-30T12:06:31Z</time>
      </trkpt>
      <trkpt lat="43.81203" lon="7.09275">
        <ele>760.5</ele>
        <time>2019-12-30T12:06:32Z</time>
      </trkpt>
      <trkpt lat="43.81202" lon="7.09275">
        <ele>760.5</ele>
        <time>2019-12-30T12:06:33Z</time>
      </trkpt>
      <trkpt lat="43.81202" lon="7.09275">
        <ele>760.4</ele>
        <time>2019-12-30T12:06:34Z</time>
      </trkpt>
      <trkpt lat="43.81202" lon="7.09275">
        <ele>760.4</ele>
        <time>2019-12-30T12:06:35Z</time>
      </trkpt>
      <trkpt lat="43.81201" lon="7.09274">
        <ele>760.4</ele>
        <time>2019-12-30T12:06:36Z</time>
      </trkpt>
      <trkpt lat="43.81201" lon="7.09274">
        <ele>760.4</ele>
        <time>2019-12-30T12:06:37Z</time>
      </trkpt>
      <trkpt lat="43.81201" lon="7.09274">
        <ele>760.4</ele>
        <time>2019-12-30T12:06:38Z</time>
      </trkpt>
      <trkpt lat="43.81201" lon="7.09274">
        <ele>760.3</ele>
        <time>2019-12-30T12:06:39Z</time>
      </trkpt>
      <trkpt lat="43.812" lon="7.09274">
        <ele>760.3</ele>
        <time>2019-12-30T12:06:40Z</time>
      </trkpt>
      <trkpt lat="43.812" lon="7.09273">
        <ele>760.3</ele>
        <time>2019-12-30T12:06:41Z</time>
      </trkpt>
      <trkpt lat="43.812" lon="7.09273">
        <ele>760.3</ele>
        <time>2019-12-30T12:06:42Z</time>
      </trkpt>
      <trkpt lat="43.81199" lon="7.09273">
        <ele>760.3</ele>
        <time>2019-12-30T12:06:43Z</time>
      </trkpt>
      <trkpt lat="43.81199" lon="7.09272">
        <ele>760.2</ele>
        <time>2019-12-30T12:06:44Z</time>
      </trkpt>
      <trkpt lat="43.81199" lon="7.09271">
        <ele>760.2</ele>
        <time>2019-12-30T12:06:45Z</time>
      </trkpt>
      <trkpt lat="43.81198" lon="7.09271">
        <ele>760.2</ele>
        <time>2019-12-30T12:06:46Z</time>
      </trkpt>
      <trkpt lat="43.81198" lon="7.09271">
        <ele>760.2</ele>
        <time>2019-12-30T12:06:47Z</time>
      </trkpt>
      <trkpt lat="43.81198" lon="7.09271">
        <ele>760.2</ele>
        <time>2019-12-30T12:06:48Z</time>
      </trkpt>
      <trkpt lat="43.81198" lon="7.09271">
        <ele>760.2</ele>
        <time>2019-12-30T12:06:49Z</time>
      </trkpt>
      <trkpt lat="43.81198" lon="7.09271">
        <ele>760.2</ele>
        <time>2019-12-30T12:06:50Z</time>
      </trkpt>
      <trkpt lat="43.81198" lon="7.09271">
        <ele>760.2</ele>
        <time>2019-12-30T12:06:51Z</time>
      </trkpt>
      <trkpt lat="43.81197" lon="7.09271">
        <ele>760.2</ele>
        <time>2019-12-30T12:06:52Z</time>
      </trkpt>
      <trkpt lat="43.81197" lon="7.0927">
        <ele>760.2</ele>
        <time>2019-12-30T12:06:53Z</time>
      </trkpt>
      <trkpt lat="43.81197" lon="7.0927">
        <ele>760.2</ele>
        <time>2019-12-30T12:06:54Z</time>
      </trkpt>
      <trkpt lat="43.81197" lon="7.0927">
        <ele>760.2</ele>
        <time>2019-12-30T12:06:55Z</time>
      </trkpt>
      <trkpt lat="43.81197" lon="7.0927">
        <ele>760.2</ele>
        <time>2019-12-30T12:06:56Z</time>
      </trkpt>
      <trkpt lat="43.81197" lon="7.0927">
        <ele>760.2</ele>
        <time>2019-12-30T12:06:57Z</time>
      </trkpt>
      <trkpt lat="43.81196" lon="7.0927">
        <ele>760.2</ele>
        <time>2019-12-30T12:06:58Z</time>
      </trkpt>
      <trkpt lat="43.81196" lon="7.0927">
        <ele>760.3</ele>
        <time>2019-12-30T12:06:59Z</time>
      </trkpt>
      <trkpt lat="43.81196" lon="7.09269">
        <ele>760.3</ele>
        <time>2019-12-30T12:07:00Z</time>
      </trkpt>
      <trkpt lat="43.81196" lon="7.09269">
        <ele>760.3</ele>
        <time>2019-12-30T12:07:01Z</time>
      </trkpt>
      <trkpt lat="43.81196" lon="7.09269">
        <ele>760.3</ele>
        <time>2019-12-30T12:07:02Z</time>
      </trkpt>
      <trkpt lat="43.81196" lon="7.09269">
        <ele>760.3</ele>
        <time>2019-12-30T12:07:03Z</time>
      </trkpt>
      <trkpt lat="43.81195" lon="7.09269">
        <ele>760.3</ele>
        <time>2019-12-30T12:07:04Z</time>
      </trkpt>
      <trkpt lat="43.81195" lon="7.09269">
        <ele>760.3</ele>
        <time>2019-12-30T12:07:05Z</time>
      </trkpt>
      <trkpt lat="43.81195" lon="7.09269">
        <ele>760.3</ele>
        <time>2019-12-30T12:07:06Z</time>
      </trkpt>
      <trkpt lat="43.81195" lon="7.09269">
        <ele>760.3</ele>
        <time>2019-12-30T12:07:07Z</time>
      </trkpt>
      <trkpt lat="43.81195" lon="7.09268">
        <ele>760.3</ele>
        <time>2019-12-30T12:07:08Z</time>
      </trkpt>
      <trkpt lat="43.81195" lon="7.09268">
        <ele>760.3</ele>
        <time>2019-12-30T12:07:09Z</time>
      </trkpt>
      <trkpt lat="43.81194" lon="7.09268">
        <ele>760.3</ele>
        <time>2019-12-30T12:07:10Z</time>
      </trkpt>
      <trkpt lat="43.81194" lon="7.09268">
        <ele>760.3</ele>
        <time>2019-12-30T12:07:11Z</time>
      </trkpt>
      <trkpt lat="43.81194" lon="7.09268">
        <ele>760.3</ele>
        <time>2019-12-30T12:07:12Z</time>
      </trkpt>
      <trkpt lat="43.81194" lon="7.09268">
        <ele>760.3</ele>
        <time>2019-12-30T12:07:13Z</time>
      </trkpt>
      <trkpt lat="43.81194" lon="7.09268">
        <ele>760.3</ele>
        <time>2019-12-30T12:07:14Z</time>
      </trkpt>
      <trkpt lat="43.81194" lon="7.09267">
        <ele>760.3</ele>
        <time>2019-12-30T12:07:15Z</time>
      </trkpt>
      <trkpt lat="43.81193" lon="7.09267">
        <ele>760.3</ele>
        <time>2019-12-30T12:07:16Z</time>
      </trkpt>
      <trkpt lat="43.81193" lon="7.09267">
        <ele>760.3</ele>
        <time>2019-12-30T12:07:17Z</time>
      </trkpt>
      <trkpt lat="43.81193" lon="7.09267">
        <ele>760.3</ele>
        <time>2019-12-30T12:07:18Z</time>
      </trkpt>
      <trkpt lat="43.81193" lon="7.09267">
        <ele>760.3</ele>
        <time>2019-12-30T12:07:19Z</time>
      </trkpt>
      <trkpt lat="43.81193" lon="7.09267">
        <ele>760.3</ele>
        <time>2019-12-30T12:07:20Z</time>
      </trkpt>
      <trkpt lat="43.81192" lon="7.09267">
        <ele>760.3</ele>
        <time>2019-12-30T12:07:21Z</time>
      </trkpt>
      <trkpt lat="43.81192" lon="7.09267">
        <ele>760.3</ele>
        <time>2019-12-30T12:07:22Z</time>
      </trkpt>
      <trkpt lat="43.81192" lon="7.09267">
        <ele>760.3</ele>
        <time>2019-12-30T12:07:23Z</time>
      </trkpt>
      <trkpt lat="43.81192" lon="7.09267">
        <ele>760.3</ele>
        <time>2019-12-30T12:07:24Z</time>
      </trkpt>
      <trkpt lat="43.81191" lon="7.09267">
        <ele>760.3</ele>
        <time>2019-12-30T12:07:25Z</time>
      </trkpt>
      <trkpt lat="43.81191" lon="7.09267">
        <ele>760.3</ele>
        <time>2019-12-30T12:07:26Z</time>
      </trkpt>
      <trkpt lat="43.81191" lon="7.09267">
        <ele>760.4</ele>
        <time>2019-12-30T12:07:27Z</time>
      </trkpt>
      <trkpt lat="43.81191" lon="7.09267">
        <ele>760.4</ele>
        <time>2019-12-30T12:07:28Z</time>
      </trkpt>
      <trkpt lat="43.81191" lon="7.09267">
        <ele>760.4</ele>
        <time>2019-12-30T12:07:29Z</time>
      </trkpt>
      <trkpt lat="43.81191" lon="7.09267">
        <ele>760.4</ele>
        <time>2019-12-30T12:07:30Z</time>
      </trkpt>
      <trkpt lat="43.81191" lon="7.09267">
        <ele>760.4</ele>
        <time>2019-12-30T12:07:31Z</time>
      </trkpt>
      <trkpt lat="43.81191" lon="7.09267">
        <ele>760.4</ele>
        <time>2019-12-30T12:07:32Z</time>
      </trkpt>
      <trkpt lat="43.81191" lon="7.09267">
        <ele>760.4</ele>
        <time>2019-12-30T12:07:33Z</time>
      </trkpt>
      <trkpt lat="43.81191" lon="7.09267">
        <ele>760.4</ele>
        <time>2019-12-30T12:07:34Z</time>
      </trkpt>
      <trkpt lat="43.81191" lon="7.09267">
        <ele>760.4</ele>
        <time>2019-12-30T12:07:35Z</time>
      </trkpt>
      <trkpt lat="43.81191" lon="7.09267">
        <ele>760.4</ele>
        <time>2019-12-30T12:07:36Z</time>
      </trkpt>
      <trkpt lat="43.8119" lon="7.09267">
        <ele>760.4</ele>
        <time>2019-12-30T12:07:37Z</time>
      </trkpt>
      <trkpt lat="43.8119" lon="7.09267">
        <ele>760.4</ele>
        <time>2019-12-30T12:07:38Z</time>
      </trkpt>
      <trkpt lat="43.8119" lon="7.09267">
        <ele>760.4</ele>
        <time>2019-12-30T12:07:39Z</time>
      </trkpt>
      <trkpt lat="43.8119" lon="7.09267">
        <ele>760.4</ele>
        <time>2019-12-30T12:07:40Z</time>
      </trkpt>
      <trkpt lat="43.8119" lon="7.09267">
        <ele>760.4</ele>
        <time>2019-12-30T12:07:41Z</time>
      </trkpt>
      <trkpt lat="43.8119" lon="7.09267">
        <ele>760.4</ele>
        <time>2019-12-30T12:07:42Z</time>
      </trkpt>
      <trkpt lat="43.8119" lon="7.09267">
        <ele>760.4</ele>
        <time>2019-12-30T12:07:43Z</time>
      </trkpt>
      <trkpt lat="43.8119" lon="7.09267">
        <ele>760.4</ele>
        <time>2019-12-30T12:07:44Z</time>
      </trkpt>
      <trkpt lat="43.8119" lon="7.09267">
        <ele>760.4</ele>
        <time>2019-12-30T12:07:45Z</time>
      </trkpt>
      <trkpt lat="43.8119" lon="7.09267">
        <ele>760.4</ele>
        <time>2019-12-30T12:07:46Z</time>
      </trkpt>
      <trkpt lat="43.8119" lon="7.09267">
        <ele>760.4</ele>
        <time>2019-12-30T12:07:47Z</time>
      </trkpt>
      <trkpt lat="43.8119" lon="7.09267">
        <ele>760.4</ele>
        <time>2019-12-30T12:07:48Z</time>
      </trkpt>
      <trkpt lat="43.8119" lon="7.09267">
        <ele>760.4</ele>
        <time>2019-12-30T12:07:49Z</time>
      </trkpt>
      <trkpt lat="43.8119" lon="7.09267">
        <ele>760.4</ele>
        <time>2019-12-30T12:07:50Z</time>
      </trkpt>
      <trkpt lat="43.8119" lon="7.09267">
        <ele>760.4</ele>
        <time>2019-12-30T12:07:51Z</time>
      </trkpt>
      <trkpt lat="43.8119" lon="7.09267">
        <ele>760.4</ele>
        <time>2019-12-30T12:07:52Z</time>
      </trkpt>
      <trkpt lat="43.8119" lon="7.09267">
        <ele>760.4</ele>
        <time>2019-12-30T12:07:53Z</time>
      </trkpt>
      <trkpt lat="43.8119" lon="7.09267">
        <ele>760.4</ele>
        <time>2019-12-30T12:07:54Z</time>
      </trkpt>
      <trkpt lat="43.81193" lon="7.0927">
        <ele>760.5</ele>
        <time>2019-12-30T12:07:55Z</time>
      </trkpt>
      <trkpt lat="43.81193" lon="7.0927">
        <ele>760.5</ele>
        <time>2019-12-30T12:07:56Z</time>
      </trkpt>
      <trkpt lat="43.81193" lon="7.0927">
        <ele>760.5</ele>
        <time>2019-12-30T12:07:57Z</time>
      </trkpt>
      <trkpt lat="43.81194" lon="7.09271">
        <ele>760.5</ele>
        <time>2019-12-30T12:07:58Z</time>
      </trkpt>
      <trkpt lat="43.81194" lon="7.09272">
        <ele>760.5</ele>
        <time>2019-12-30T12:07:59Z</time>
      </trkpt>
      <trkpt lat="43.81194" lon="7.09272">
        <ele>760.5</ele>
        <time>2019-12-30T12:08:00Z</time>
      </trkpt>
      <trkpt lat="43.81194" lon="7.09272">
        <ele>760.5</ele>
        <time>2019-12-30T12:08:01Z</time>
      </trkpt>
      <trkpt lat="43.81194" lon="7.09272">
        <ele>760.5</ele>
        <time>2019-12-30T12:08:02Z</time>
      </trkpt>
      <trkpt lat="43.81194" lon="7.09272">
        <ele>760.5</ele>
        <time>2019-12-30T12:08:03Z</time>
      </trkpt>
      <trkpt lat="43.81194" lon="7.09272">
        <ele>760.5</ele>
        <time>2019-12-30T12:08:04Z</time>
      </trkpt>
      <trkpt lat="43.81194" lon="7.09272">
        <ele>760.5</ele>
        <time>2019-12-30T12:08:05Z</time>
      </trkpt>
      <trkpt lat="43.81194" lon="7.09272">
        <ele>760.5</ele>
        <time>2019-12-30T12:08:06Z</time>
      </trkpt>
      <trkpt lat="43.81194" lon="7.09272">
        <ele>760.5</ele>
        <time>2019-12-30T12:08:07Z</time>
      </trkpt>
      <trkpt lat="43.81194" lon="7.09273">
        <ele>760.5</ele>
        <time>2019-12-30T12:08:08Z</time>
      </trkpt>
      <trkpt lat="43.81194" lon="7.09273">
        <ele>760.5</ele>
        <time>2019-12-30T12:08:09Z</time>
      </trkpt>
      <trkpt lat="43.81195" lon="7.09273">
        <ele>760.5</ele>
        <time>2019-12-30T12:08:10Z</time>
      </trkpt>
      <trkpt lat="43.81195" lon="7.09273">
        <ele>760.5</ele>
        <time>2019-12-30T12:08:11Z</time>
      </trkpt>
      <trkpt lat="43.81195" lon="7.09273">
        <ele>760.5</ele>
        <time>2019-12-30T12:08:12Z</time>
      </trkpt>
      <trkpt lat="43.81195" lon="7.09273">
        <ele>760.5</ele>
        <time>2019-12-30T12:08:13Z</time>
      </trkpt>
      <trkpt lat="43.81195" lon="7.09273">
        <ele>760.5</ele>
        <time>2019-12-30T12:08:14Z</time>
      </trkpt>
      <trkpt lat="43.81195" lon="7.09273">
        <ele>760.5</ele>
        <time>2019-12-30T12:08:15Z</time>
      </trkpt>
      <trkpt lat="43.81195" lon="7.09273">
        <ele>760.5</ele>
        <time>2019-12-30T12:08:16Z</time>
      </trkpt>
      <trkpt lat="43.81195" lon="7.09273">
        <ele>760.5</ele>
        <time>2019-12-30T12:08:17Z</time>
      </trkpt>
      <trkpt lat="43.81195" lon="7.09273">
        <ele>760.5</ele>
        <time>2019-12-30T12:08:18Z</time>
      </trkpt>
      <trkpt lat="43.81195" lon="7.09273">
        <ele>760.5</ele>
        <time>2019-12-30T12:08:19Z</time>
      </trkpt>
      <trkpt lat="43.81195" lon="7.09274">
        <ele>760.5</ele>
        <time>2019-12-30T12:08:20Z</time>
      </trkpt>
      <trkpt lat="43.81195" lon="7.09274">
        <ele>760.5</ele>
        <time>2019-12-30T12:08:21Z</time>
      </trkpt>
      <trkpt lat="43.81195" lon="7.09274">
        <ele>760.5</ele>
        <time>2019-12-30T12:08:22Z</time>
      </trkpt>
      <trkpt lat="43.81195" lon="7.09275">
        <ele>760.5</ele>
        <time>2019-12-30T12:08:23Z</time>
      </trkpt>
      <trkpt lat="43.81196" lon="7.09275">
        <ele>760.5</ele>
        <time>2019-12-30T12:08:24Z</time>
      </trkpt>
      <trkpt lat="43.81196" lon="7.09276">
        <ele>760.6</ele>
        <time>2019-12-30T12:08:25Z</time>
      </trkpt>
      <trkpt lat="43.81197" lon="7.09278">
        <ele>760.6</ele>
        <time>2019-12-30T12:08:26Z</time>
      </trkpt>
      <trkpt lat="43.81199" lon="7.09279">
        <ele>760.6</ele>
        <time>2019-12-30T12:08:27Z</time>
      </trkpt>
      <trkpt lat="43.812" lon="7.09281">
        <ele>760.6</ele>
        <time>2019-12-30T12:08:28Z</time>
      </trkpt>
      <trkpt lat="43.81201" lon="7.09283">
        <ele>760.7</ele>
        <time>2019-12-30T12:08:29Z</time>
      </trkpt>
      <trkpt lat="43.81202" lon="7.09286">
        <ele>760.7</ele>
        <time>2019-12-30T12:08:30Z</time>
      </trkpt>
      <trkpt lat="43.81203" lon="7.09289">
        <ele>761.5</ele>
        <time>2019-12-30T12:08:31Z</time>
      </trkpt>
      <trkpt lat="43.81204" lon="7.09292">
        <ele>761.8</ele>
        <time>2019-12-30T12:08:32Z</time>
      </trkpt>
      <trkpt lat="43.81204" lon="7.09296">
        <ele>762</ele>
        <time>2019-12-30T12:08:33Z</time>
      </trkpt>
      <trkpt lat="43.81204" lon="7.09299">
        <ele>762.3</ele>
        <time>2019-12-30T12:08:34Z</time>
      </trkpt>
      <trkpt lat="43.81205" lon="7.09303">
        <ele>762.4</ele>
        <time>2019-12-30T12:08:35Z</time>
      </trkpt>
      <trkpt lat="43.81205" lon="7.09307">
        <ele>762.4</ele>
        <time>2019-12-30T12:08:36Z</time>
      </trkpt>
      <trkpt lat="43.81205" lon="7.09311">
        <ele>762.5</ele>
        <time>2019-12-30T12:08:37Z</time>
      </trkpt>
      <trkpt lat="43.81205" lon="7.09315">
        <ele>762.6</ele>
        <time>2019-12-30T12:08:38Z</time>
      </trkpt>
      <trkpt lat="43.81205" lon="7.09318">
        <ele>762.8</ele>
        <time>2019-12-30T12:08:39Z</time>
      </trkpt>
      <trkpt lat="43.81206" lon="7.09321">
        <ele>763</ele>
        <time>2019-12-30T12:08:40Z</time>
      </trkpt>
      <trkpt lat="43.81206" lon="7.09325">
        <ele>763.2</ele>
        <time>2019-12-30T12:08:41Z</time>
      </trkpt>
      <trkpt lat="43.81207" lon="7.09328">
        <ele>763.4</ele>
        <time>2019-12-30T12:08:42Z</time>
      </trkpt>
      <trkpt lat="43.81207" lon="7.09331">
        <ele>763.7</ele>
        <time>2019-12-30T12:08:43Z</time>
      </trkpt>
      <trkpt lat="43.81208" lon="7.09335">
        <ele>763.9</ele>
        <time>2019-12-30T12:08:44Z</time>
      </trkpt>
      <trkpt lat="43.81209" lon="7.09338">
        <ele>764.2</ele>
        <time>2019-12-30T12:08:45Z</time>
      </trkpt>
      <trkpt lat="43.81209" lon="7.09341">
        <ele>764.5</ele>
        <time>2019-12-30T12:08:46Z</time>
      </trkpt>
      <trkpt lat="43.8121" lon="7.09344">
        <ele>764.7</ele>
        <time>2019-12-30T12:08:47Z</time>
      </trkpt>
      <trkpt lat="43.8121" lon="7.09347">
        <ele>764.8</ele>
        <time>2019-12-30T12:08:48Z</time>
      </trkpt>
      <trkpt lat="43.81211" lon="7.09349">
        <ele>765</ele>
        <time>2019-12-30T12:08:49Z</time>
      </trkpt>
      <trkpt lat="43.81211" lon="7.09352">
        <ele>765.2</ele>
        <time>2019-12-30T12:08:50Z</time>
      </trkpt>
      <trkpt lat="43.81212" lon="7.09355">
        <ele>765.4</ele>
        <time>2019-12-30T12:08:51Z</time>
      </trkpt>
      <trkpt lat="43.81212" lon="7.09358">
        <ele>765.7</ele>
        <time>2019-12-30T12:08:52Z</time>
      </trkpt>
      <trkpt lat="43.81213" lon="7.0936">
        <ele>766</ele>
        <time>2019-12-30T12:08:53Z</time>
      </trkpt>
      <trkpt lat="43.81213" lon="7.09364">
        <ele>766.4</ele>
        <time>2019-12-30T12:08:54Z</time>
      </trkpt>
      <trkpt lat="43.81214" lon="7.09367">
        <ele>767.1</ele>
        <time>2019-12-30T12:08:55Z</time>
      </trkpt>
      <trkpt lat="43.81215" lon="7.09371">
        <ele>767.8</ele>
        <time>2019-12-30T12:08:56Z</time>
      </trkpt>
      <trkpt lat="43.81216" lon="7.09374">
        <ele>768.4</ele>
        <time>2019-12-30T12:08:57Z</time>
      </trkpt>
      <trkpt lat="43.81217" lon="7.09376">
        <ele>768.9</ele>
        <time>2019-12-30T12:08:58Z</time>
      </trkpt>
      <trkpt lat="43.81217" lon="7.09378">
        <ele>769.4</ele>
        <time>2019-12-30T12:08:59Z</time>
      </trkpt>
      <trkpt lat="43.81218" lon="7.09381">
        <ele>770</ele>
        <time>2019-12-30T12:09:00Z</time>
      </trkpt>
      <trkpt lat="43.81219" lon="7.09383">
        <ele>770.6</ele>
        <time>2019-12-30T12:09:01Z</time>
      </trkpt>
      <trkpt lat="43.8122" lon="7.09386">
        <ele>771.2</ele>
        <time>2019-12-30T12:09:02Z</time>
      </trkpt>
      <trkpt lat="43.8122" lon="7.09388">
        <ele>771.6</ele>
        <time>2019-12-30T12:09:03Z</time>
      </trkpt>
      <trkpt lat="43.81221" lon="7.0939">
        <ele>771.8</ele>
        <time>2019-12-30T12:09:04Z</time>
      </trkpt>
      <trkpt lat="43.81222" lon="7.09392">
        <ele>771.9</ele>
        <time>2019-12-30T12:09:05Z</time>
      </trkpt>
      <trkpt lat="43.81222" lon="7.09394">
        <ele>772.1</ele>
        <time>2019-12-30T12:09:06Z</time>
      </trkpt>
      <trkpt lat="43.81223" lon="7.09396">
        <ele>772.3</ele>
        <time>2019-12-30T12:09:07Z</time>
      </trkpt>
      <trkpt lat="43.81223" lon="7.09398">
        <ele>772.5</ele>
        <time>2019-12-30T12:09:08Z</time>
      </trkpt>
      <trkpt lat="43.81224" lon="7.09401">
        <ele>773.1</ele>
        <time>2019-12-30T12:09:09Z</time>
      </trkpt>
      <trkpt lat="43.81225" lon="7.09403">
        <ele>773.8</ele>
        <time>2019-12-30T12:09:10Z</time>
      </trkpt>
      <trkpt lat="43.81225" lon="7.09406">
        <ele>774.4</ele>
        <time>2019-12-30T12:09:11Z</time>
      </trkpt>
      <trkpt lat="43.81226" lon="7.09409">
        <ele>775.1</ele>
        <time>2019-12-30T12:09:12Z</time>
      </trkpt>
      <trkpt lat="43.81226" lon="7.09411">
        <ele>775.8</ele>
        <time>2019-12-30T12:09:13Z</time>
      </trkpt>
      <trkpt lat="43.81227" lon="7.09414">
        <ele>776.4</ele>
        <time>2019-12-30T12:09:14Z</time>
      </trkpt>
      <trkpt lat="43.81228" lon="7.09417">
        <ele>777.1</ele>
        <time>2019-12-30T12:09:15Z</time>
      </trkpt>
      <trkpt lat="43.81228" lon="7.0942">
        <ele>777.7</ele>
        <time>2019-12-30T12:09:16Z</time>
      </trkpt>
      <trkpt lat="43.81229" lon="7.09423">
        <ele>778.6</ele>
        <time>2019-12-30T12:09:17Z</time>
      </trkpt>
      <trkpt lat="43.8123" lon="7.09426">
        <ele>779.4</ele>
        <time>2019-12-30T12:09:18Z</time>
      </trkpt>
      <trkpt lat="43.81231" lon="7.09429">
        <ele>780.1</ele>
        <time>2019-12-30T12:09:19Z</time>
      </trkpt>
      <trkpt lat="43.81231" lon="7.09431">
        <ele>780.6</ele>
        <time>2019-12-30T12:09:20Z</time>
      </trkpt>
      <trkpt lat="43.81232" lon="7.09433">
        <ele>780.9</ele>
        <time>2019-12-30T12:09:21Z</time>
      </trkpt>
      <trkpt lat="43.81233" lon="7.09436">
        <ele>781.1</ele>
        <time>2019-12-30T12:09:22Z</time>
      </trkpt>
      <trkpt lat="43.81233" lon="7.09438">
        <ele>781.3</ele>
        <time>2019-12-30T12:09:23Z</time>
      </trkpt>
      <trkpt lat="43.81234" lon="7.0944">
        <ele>781.5</ele>
        <time>2019-12-30T12:09:24Z</time>
      </trkpt>
      <trkpt lat="43.81235" lon="7.09442">
        <ele>781.9</ele>
        <time>2019-12-30T12:09:25Z</time>
      </trkpt>
      <trkpt lat="43.81236" lon="7.09444">
        <ele>782.5</ele>
        <time>2019-12-30T12:09:26Z</time>
      </trkpt>
      <trkpt lat="43.81237" lon="7.09446">
        <ele>783.1</ele>
        <time>2019-12-30T12:09:27Z</time>
      </trkpt>
      <trkpt lat="43.81238" lon="7.09448">
        <ele>783.7</ele>
        <time>2019-12-30T12:09:28Z</time>
      </trkpt>
      <trkpt lat="43.81238" lon="7.0945">
        <ele>784.2</ele>
        <time>2019-12-30T12:09:29Z</time>
      </trkpt>
      <trkpt lat="43.81239" lon="7.09452">
        <ele>784.8</ele>
        <time>2019-12-30T12:09:30Z</time>
      </trkpt>
      <trkpt lat="43.8124" lon="7.09454">
        <ele>785.3</ele>
        <time>2019-12-30T12:09:31Z</time>
      </trkpt>
      <trkpt lat="43.81241" lon="7.09456">
        <ele>785.8</ele>
        <time>2019-12-30T12:09:32Z</time>
      </trkpt>
      <trkpt lat="43.81242" lon="7.09458">
        <ele>786.4</ele>
        <time>2019-12-30T12:09:33Z</time>
      </trkpt>
      <trkpt lat="43.81242" lon="7.0946">
        <ele>786.9</ele>
        <time>2019-12-30T12:09:34Z</time>
      </trkpt>
      <trkpt lat="43.81243" lon="7.09462">
        <ele>787.7</ele>
        <time>2019-12-30T12:09:35Z</time>
      </trkpt>
      <trkpt lat="43.81244" lon="7.09464">
        <ele>788.5</ele>
        <time>2019-12-30T12:09:36Z</time>
      </trkpt>
      <trkpt lat="43.81245" lon="7.09466">
        <ele>789.3</ele>
        <time>2019-12-30T12:09:37Z</time>
      </trkpt>
      <trkpt lat="43.81245" lon="7.09468">
        <ele>790.1</ele>
        <time>2019-12-30T12:09:38Z</time>
      </trkpt>
      <trkpt lat="43.81246" lon="7.0947">
        <ele>791</ele>
        <time>2019-12-30T12:09:39Z</time>
      </trkpt>
      <trkpt lat="43.81247" lon="7.09473">
        <ele>791.7</ele>
        <time>2019-12-30T12:09:40Z</time>
      </trkpt>
      <trkpt lat="43.81248" lon="7.09475">
        <ele>792.3</ele>
        <time>2019-12-30T12:09:41Z</time>
      </trkpt>
      <trkpt lat="43.81249" lon="7.09478">
        <ele>792.9</ele>
        <time>2019-12-30T12:09:42Z</time>
      </trkpt>
      <trkpt lat="43.8125" lon="7.0948">
        <ele>793.3</ele>
        <time>2019-12-30T12:09:43Z</time>
      </trkpt>
      <trkpt lat="43.8125" lon="7.09482">
        <ele>793.9</ele>
        <time>2019-12-30T12:09:44Z</time>
      </trkpt>
      <trkpt lat="43.81251" lon="7.09484">
        <ele>794.5</ele>
        <time>2019-12-30T12:09:45Z</time>
      </trkpt>
      <trkpt lat="43.81252" lon="7.09486">
        <ele>795.1</ele>
        <time>2019-12-30T12:09:46Z</time>
      </trkpt>
      <trkpt lat="43.81253" lon="7.09489">
        <ele>795.7</ele>
        <time>2019-12-30T12:09:47Z</time>
      </trkpt>
      <trkpt lat="43.81253" lon="7.09491">
        <ele>796.4</ele>
        <time>2019-12-30T12:09:48Z</time>
      </trkpt>
      <trkpt lat="43.81254" lon="7.09494">
        <ele>797</ele>
        <time>2019-12-30T12:09:49Z</time>
      </trkpt>
      <trkpt lat="43.81254" lon="7.09496">
        <ele>797.6</ele>
        <time>2019-12-30T12:09:50Z</time>
      </trkpt>
      <trkpt lat="43.81254" lon="7.09498">
        <ele>798.1</ele>
        <time>2019-12-30T12:09:51Z</time>
      </trkpt>
      <trkpt lat="43.81254" lon="7.095">
        <ele>798.6</ele>
        <time>2019-12-30T12:09:52Z</time>
      </trkpt>
      <trkpt lat="43.81254" lon="7.09502">
        <ele>799.1</ele>
        <time>2019-12-30T12:09:53Z</time>
      </trkpt>
      <trkpt lat="43.81254" lon="7.09504">
        <ele>799.6</ele>
        <time>2019-12-30T12:09:54Z</time>
      </trkpt>
      <trkpt lat="43.81255" lon="7.09506">
        <ele>800.2</ele>
        <time>2019-12-30T12:09:55Z</time>
      </trkpt>
      <trkpt lat="43.81256" lon="7.09509">
        <ele>800.4</ele>
        <time>2019-12-30T12:09:56Z</time>
      </trkpt>
      <trkpt lat="43.81258" lon="7.09511">
        <ele>800.6</ele>
        <time>2019-12-30T12:09:57Z</time>
      </trkpt>
      <trkpt lat="43.81259" lon="7.09514">
        <ele>800.7</ele>
        <time>2019-12-30T12:09:58Z</time>
      </trkpt>
      <trkpt lat="43.81261" lon="7.09516">
        <ele>800.9</ele>
        <time>2019-12-30T12:09:59Z</time>
      </trkpt>
      <trkpt lat="43.81262" lon="7.09518">
        <ele>802.1</ele>
        <time>2019-12-30T12:10:00Z</time>
      </trkpt>
      <trkpt lat="43.81264" lon="7.0952">
        <ele>803.4</ele>
        <time>2019-12-30T12:10:01Z</time>
      </trkpt>
      <trkpt lat="43.81265" lon="7.09522">
        <ele>804.6</ele>
        <time>2019-12-30T12:10:02Z</time>
      </trkpt>
      <trkpt lat="43.81266" lon="7.09524">
        <ele>805.8</ele>
        <time>2019-12-30T12:10:03Z</time>
      </trkpt>
      <trkpt lat="43.81267" lon="7.09527">
        <ele>806.9</ele>
        <time>2019-12-30T12:10:04Z</time>
      </trkpt>
      <trkpt lat="43.81268" lon="7.09529">
        <ele>808</ele>
        <time>2019-12-30T12:10:05Z</time>
      </trkpt>
      <trkpt lat="43.81269" lon="7.09531">
        <ele>808.9</ele>
        <time>2019-12-30T12:10:06Z</time>
      </trkpt>
      <trkpt lat="43.81269" lon="7.09534">
        <ele>809.9</ele>
        <time>2019-12-30T12:10:07Z</time>
      </trkpt>
      <trkpt lat="43.8127" lon="7.09536">
        <ele>810.8</ele>
        <time>2019-12-30T12:10:08Z</time>
      </trkpt>
      <trkpt lat="43.8127" lon="7.0954">
        <ele>811.1</ele>
        <time>2019-12-30T12:10:09Z</time>
      </trkpt>
      <trkpt lat="43.81271" lon="7.09542">
        <ele>811.2</ele>
        <time>2019-12-30T12:10:10Z</time>
      </trkpt>
      <trkpt lat="43.81271" lon="7.09543">
        <ele>811.3</ele>
        <time>2019-12-30T12:10:11Z</time>
      </trkpt>
      <trkpt lat="43.81271" lon="7.09545">
        <ele>811.5</ele>
        <time>2019-12-30T12:10:12Z</time>
      </trkpt>
      <trkpt lat="43.81271" lon="7.09547">
        <ele>811.9</ele>
        <time>2019-12-30T12:10:13Z</time>
      </trkpt>
      <trkpt lat="43.81272" lon="7.09549">
        <ele>812.4</ele>
        <time>2019-12-30T12:10:14Z</time>
      </trkpt>
      <trkpt lat="43.81272" lon="7.09551">
        <ele>813.1</ele>
        <time>2019-12-30T12:10:15Z</time>
      </trkpt>
      <trkpt lat="43.81272" lon="7.09553">
        <ele>813.6</ele>
        <time>2019-12-30T12:10:16Z</time>
      </trkpt>
      <trkpt lat="43.81272" lon="7.09555">
        <ele>814</ele>
        <time>2019-12-30T12:10:17Z</time>
      </trkpt>
      <trkpt lat="43.81272" lon="7.09556">
        <ele>814.1</ele>
        <time>2019-12-30T12:10:18Z</time>
      </trkpt>
      <trkpt lat="43.81272" lon="7.09557">
        <ele>814.1</ele>
        <time>2019-12-30T12:10:19Z</time>
      </trkpt>
      <trkpt lat="43.81272" lon="7.09558">
        <ele>814.2</ele>
        <time>2019-12-30T12:10:20Z</time>
      </trkpt>
      <trkpt lat="43.81272" lon="7.09559">
        <ele>814.2</ele>
        <time>2019-12-30T12:10:21Z</time>
      </trkpt>
      <trkpt lat="43.81273" lon="7.0956">
        <ele>814.3</ele>
        <time>2019-12-30T12:10:22Z</time>
      </trkpt>
      <trkpt lat="43.81273" lon="7.09561">
        <ele>814.3</ele>
        <time>2019-12-30T12:10:23Z</time>
      </trkpt>
      <trkpt lat="43.81273" lon="7.09562">
        <ele>814.3</ele>
        <time>2019-12-30T12:10:24Z</time>
      </trkpt>
      <trkpt lat="43.81273" lon="7.09562">
        <ele>814.4</ele>
        <time>2019-12-30T12:10:25Z</time>
      </trkpt>
      <trkpt lat="43.81273" lon="7.09562">
        <ele>814.4</ele>
        <time>2019-12-30T12:10:26Z</time>
      </trkpt>
      <trkpt lat="43.81274" lon="7.09562">
        <ele>814.4</ele>
        <time>2019-12-30T12:10:27Z</time>
      </trkpt>
      <trkpt lat="43.81274" lon="7.09562">
        <ele>814.4</ele>
        <time>2019-12-30T12:10:28Z</time>
      </trkpt>
      <trkpt lat="43.81274" lon="7.09562">
        <ele>814.4</ele>
        <time>2019-12-30T12:10:29Z</time>
      </trkpt>
      <trkpt lat="43.81274" lon="7.09562">
        <ele>814.4</ele>
        <time>2019-12-30T12:10:30Z</time>
      </trkpt>
      <trkpt lat="43.81274" lon="7.09562">
        <ele>814.4</ele>
        <time>2019-12-30T12:10:31Z</time>
      </trkpt>
      <trkpt lat="43.81275" lon="7.09562">
        <ele>814.6</ele>
        <time>2019-12-30T12:10:32Z</time>
      </trkpt>
      <trkpt lat="43.81275" lon="7.09562">
        <ele>814.8</ele>
        <time>2019-12-30T12:10:33Z</time>
      </trkpt>
      <trkpt lat="43.81275" lon="7.09562">
        <ele>815</ele>
        <time>2019-12-30T12:10:34Z</time>
      </trkpt>
      <trkpt lat="43.81276" lon="7.09562">
        <ele>815.2</ele>
        <time>2019-12-30T12:10:35Z</time>
      </trkpt>
      <trkpt lat="43.81276" lon="7.09562">
        <ele>815.3</ele>
        <time>2019-12-30T12:10:36Z</time>
      </trkpt>
      <trkpt lat="43.81276" lon="7.09562">
        <ele>815.4</ele>
        <time>2019-12-30T12:10:37Z</time>
      </trkpt>
      <trkpt lat="43.81276" lon="7.09562">
        <ele>815.4</ele>
        <time>2019-12-30T12:10:38Z</time>
      </trkpt>
      <trkpt lat="43.81276" lon="7.09562">
        <ele>815.5</ele>
        <time>2019-12-30T12:10:39Z</time>
      </trkpt>
      <trkpt lat="43.81276" lon="7.09562">
        <ele>815.5</ele>
        <time>2019-12-30T12:10:40Z</time>
      </trkpt>
      <trkpt lat="43.81276" lon="7.09562">
        <ele>815.5</ele>
        <time>2019-12-30T12:10:41Z</time>
      </trkpt>
      <trkpt lat="43.81276" lon="7.09562">
        <ele>815.5</ele>
        <time>2019-12-30T12:10:42Z</time>
      </trkpt>
      <trkpt lat="43.81276" lon="7.09561">
        <ele>815.6</ele>
        <time>2019-12-30T12:10:43Z</time>
      </trkpt>
      <trkpt lat="43.81276" lon="7.09561">
        <ele>815.6</ele>
        <time>2019-12-30T12:10:44Z</time>
      </trkpt>
      <trkpt lat="43.81276" lon="7.09561">
        <ele>815.7</ele>
        <time>2019-12-30T12:10:45Z</time>
      </trkpt>
      <trkpt lat="43.81276" lon="7.09561">
        <ele>815.7</ele>
        <time>2019-12-30T12:10:46Z</time>
      </trkpt>
      <trkpt lat="43.81276" lon="7.09561">
        <ele>815.8</ele>
        <time>2019-12-30T12:10:47Z</time>
      </trkpt>
      <trkpt lat="43.81276" lon="7.09561">
        <ele>815.8</ele>
        <time>2019-12-30T12:10:48Z</time>
      </trkpt>
      <trkpt lat="43.81276" lon="7.09561">
        <ele>815.9</ele>
        <time>2019-12-30T12:10:49Z</time>
      </trkpt>
      <trkpt lat="43.81276" lon="7.09561">
        <ele>816</ele>
        <time>2019-12-30T12:10:50Z</time>
      </trkpt>
      <trkpt lat="43.81276" lon="7.0956">
        <ele>816.2</ele>
        <time>2019-12-30T12:10:51Z</time>
      </trkpt>
      <trkpt lat="43.81276" lon="7.0956">
        <ele>816.4</ele>
        <time>2019-12-30T12:10:52Z</time>
      </trkpt>
      <trkpt lat="43.81276" lon="7.09559">
        <ele>816.8</ele>
        <time>2019-12-30T12:10:53Z</time>
      </trkpt>
      <trkpt lat="43.81276" lon="7.09558">
        <ele>815</ele>
        <time>2019-12-30T12:10:54Z</time>
      </trkpt>
      <trkpt lat="43.81276" lon="7.09556">
        <ele>814.5</ele>
        <time>2019-12-30T12:10:55Z</time>
      </trkpt>
      <trkpt lat="43.81275" lon="7.09554">
        <ele>814</ele>
        <time>2019-12-30T12:10:56Z</time>
      </trkpt>
      <trkpt lat="43.81275" lon="7.09552">
        <ele>813.8</ele>
        <time>2019-12-30T12:10:57Z</time>
      </trkpt>
      <trkpt lat="43.81275" lon="7.09549">
        <ele>813.7</ele>
        <time>2019-12-30T12:10:58Z</time>
      </trkpt>
      <trkpt lat="43.81276" lon="7.09547">
        <ele>813.6</ele>
        <time>2019-12-30T12:10:59Z</time>
      </trkpt>
      <trkpt lat="43.81277" lon="7.09545">
        <ele>813.5</ele>
        <time>2019-12-30T12:11:00Z</time>
      </trkpt>
      <trkpt lat="43.81278" lon="7.09543">
        <ele>813.6</ele>
        <time>2019-12-30T12:11:01Z</time>
      </trkpt>
      <trkpt lat="43.81279" lon="7.0954">
        <ele>814.1</ele>
        <time>2019-12-30T12:11:02Z</time>
      </trkpt>
      <trkpt lat="43.81279" lon="7.09536">
        <ele>814.7</ele>
        <time>2019-12-30T12:11:03Z</time>
      </trkpt>
      <trkpt lat="43.8128" lon="7.09533">
        <ele>814.9</ele>
        <time>2019-12-30T12:11:04Z</time>
      </trkpt>
      <trkpt lat="43.81281" lon="7.09529">
        <ele>814.5</ele>
        <time>2019-12-30T12:11:05Z</time>
      </trkpt>
      <trkpt lat="43.81281" lon="7.09525">
        <ele>814.2</ele>
        <time>2019-12-30T12:11:06Z</time>
      </trkpt>
      <trkpt lat="43.81282" lon="7.09521">
        <ele>813.7</ele>
        <time>2019-12-30T12:11:07Z</time>
      </trkpt>
      <trkpt lat="43.81283" lon="7.09517">
        <ele>813.2</ele>
        <time>2019-12-30T12:11:08Z</time>
      </trkpt>
      <trkpt lat="43.81283" lon="7.09513">
        <ele>813.4</ele>
        <time>2019-12-30T12:11:09Z</time>
      </trkpt>
      <trkpt lat="43.81284" lon="7.09509">
        <ele>813.9</ele>
        <time>2019-12-30T12:11:10Z</time>
      </trkpt>
      <trkpt lat="43.81285" lon="7.09505">
        <ele>814.4</ele>
        <time>2019-12-30T12:11:11Z</time>
      </trkpt>
      <trkpt lat="43.81285" lon="7.09502">
        <ele>814.9</ele>
        <time>2019-12-30T12:11:12Z</time>
      </trkpt>
      <trkpt lat="43.81286" lon="7.09498">
        <ele>815.3</ele>
        <time>2019-12-30T12:11:13Z</time>
      </trkpt>
      <trkpt lat="43.81287" lon="7.09495">
        <ele>815.6</ele>
        <time>2019-12-30T12:11:14Z</time>
      </trkpt>
      <trkpt lat="43.81287" lon="7.09493">
        <ele>815.9</ele>
        <time>2019-12-30T12:11:15Z</time>
      </trkpt>
      <trkpt lat="43.81288" lon="7.0949">
        <ele>816</ele>
        <time>2019-12-30T12:11:16Z</time>
      </trkpt>
      <trkpt lat="43.81289" lon="7.09486">
        <ele>816.2</ele>
        <time>2019-12-30T12:11:17Z</time>
      </trkpt>
      <trkpt lat="43.81289" lon="7.09482">
        <ele>816.5</ele>
        <time>2019-12-30T12:11:18Z</time>
      </trkpt>
      <trkpt lat="43.8129" lon="7.09478">
        <ele>816.8</ele>
        <time>2019-12-30T12:11:19Z</time>
      </trkpt>
      <trkpt lat="43.81291" lon="7.09474">
        <ele>817.1</ele>
        <time>2019-12-30T12:11:20Z</time>
      </trkpt>
      <trkpt lat="43.81292" lon="7.0947">
        <ele>817.4</ele>
        <time>2019-12-30T12:11:21Z</time>
      </trkpt>
      <trkpt lat="43.81293" lon="7.09465">
        <ele>817.8</ele>
        <time>2019-12-30T12:11:22Z</time>
      </trkpt>
      <trkpt lat="43.81294" lon="7.0946">
        <ele>817.7</ele>
        <time>2019-12-30T12:11:23Z</time>
      </trkpt>
      <trkpt lat="43.81295" lon="7.09455">
        <ele>817.1</ele>
        <time>2019-12-30T12:11:24Z</time>
      </trkpt>
      <trkpt lat="43.81296" lon="7.0945">
        <ele>816.6</ele>
        <time>2019-12-30T12:11:25Z</time>
      </trkpt>
      <trkpt lat="43.81297" lon="7.09445">
        <ele>817</ele>
        <time>2019-12-30T12:11:26Z</time>
      </trkpt>
      <trkpt lat="43.81298" lon="7.0944">
        <ele>817.3</ele>
        <time>2019-12-30T12:11:27Z</time>
      </trkpt>
      <trkpt lat="43.81299" lon="7.09436">
        <ele>816.6</ele>
        <time>2019-12-30T12:11:28Z</time>
      </trkpt>
      <trkpt lat="43.813" lon="7.09432">
        <ele>815.9</ele>
        <time>2019-12-30T12:11:29Z</time>
      </trkpt>
      <trkpt lat="43.81301" lon="7.09428">
        <ele>815.7</ele>
        <time>2019-12-30T12:11:30Z</time>
      </trkpt>
      <trkpt lat="43.81301" lon="7.09425">
        <ele>816</ele>
        <time>2019-12-30T12:11:31Z</time>
      </trkpt>
      <trkpt lat="43.81302" lon="7.09422">
        <ele>816.2</ele>
        <time>2019-12-30T12:11:32Z</time>
      </trkpt>
      <trkpt lat="43.81303" lon="7.09419">
        <ele>816.5</ele>
        <time>2019-12-30T12:11:33Z</time>
      </trkpt>
      <trkpt lat="43.81304" lon="7.09416">
        <ele>817.2</ele>
        <time>2019-12-30T12:11:34Z</time>
      </trkpt>
      <trkpt lat="43.81305" lon="7.09413">
        <ele>817.9</ele>
        <time>2019-12-30T12:11:35Z</time>
      </trkpt>
      <trkpt lat="43.81306" lon="7.0941">
        <ele>818.6</ele>
        <time>2019-12-30T12:11:36Z</time>
      </trkpt>
      <trkpt lat="43.81308" lon="7.09407">
        <ele>818.9</ele>
        <time>2019-12-30T12:11:37Z</time>
      </trkpt>
      <trkpt lat="43.81309" lon="7.09403">
        <ele>818.9</ele>
        <time>2019-12-30T12:11:38Z</time>
      </trkpt>
      <trkpt lat="43.81311" lon="7.094">
        <ele>818.9</ele>
        <time>2019-12-30T12:11:39Z</time>
      </trkpt>
      <trkpt lat="43.81312" lon="7.09397">
        <ele>819.1</ele>
        <time>2019-12-30T12:11:40Z</time>
      </trkpt>
      <trkpt lat="43.81313" lon="7.09394">
        <ele>819.9</ele>
        <time>2019-12-30T12:11:41Z</time>
      </trkpt>
      <trkpt lat="43.81315" lon="7.09391">
        <ele>820.6</ele>
        <time>2019-12-30T12:11:42Z</time>
      </trkpt>
      <trkpt lat="43.81316" lon="7.09387">
        <ele>821.3</ele>
        <time>2019-12-30T12:11:43Z</time>
      </trkpt>
      <trkpt lat="43.81317" lon="7.09384">
        <ele>821.5</ele>
        <time>2019-12-30T12:11:44Z</time>
      </trkpt>
      <trkpt lat="43.81319" lon="7.09381">
        <ele>821.6</ele>
        <time>2019-12-30T12:11:45Z</time>
      </trkpt>
      <trkpt lat="43.8132" lon="7.09378">
        <ele>821.8</ele>
        <time>2019-12-30T12:11:46Z</time>
      </trkpt>
      <trkpt lat="43.81321" lon="7.09375">
        <ele>822.3</ele>
        <time>2019-12-30T12:11:47Z</time>
      </trkpt>
      <trkpt lat="43.81323" lon="7.09372">
        <ele>822.9</ele>
        <time>2019-12-30T12:11:48Z</time>
      </trkpt>
      <trkpt lat="43.81324" lon="7.09369">
        <ele>823.5</ele>
        <time>2019-12-30T12:11:49Z</time>
      </trkpt>
      <trkpt lat="43.81325" lon="7.09366">
        <ele>824</ele>
        <time>2019-12-30T12:11:50Z</time>
      </trkpt>
      <trkpt lat="43.81327" lon="7.09363">
        <ele>824</ele>
        <time>2019-12-30T12:11:51Z</time>
      </trkpt>
      <trkpt lat="43.81328" lon="7.0936">
        <ele>824</ele>
        <time>2019-12-30T12:11:52Z</time>
      </trkpt>
      <trkpt lat="43.81329" lon="7.09358">
        <ele>824</ele>
        <time>2019-12-30T12:11:53Z</time>
      </trkpt>
      <trkpt lat="43.81331" lon="7.09355">
        <ele>824.3</ele>
        <time>2019-12-30T12:11:54Z</time>
      </trkpt>
      <trkpt lat="43.81332" lon="7.09353">
        <ele>824.9</ele>
        <time>2019-12-30T12:11:55Z</time>
      </trkpt>
      <trkpt lat="43.81333" lon="7.09351">
        <ele>825.4</ele>
        <time>2019-12-30T12:11:56Z</time>
      </trkpt>
      <trkpt lat="43.81334" lon="7.09349">
        <ele>825.9</ele>
        <time>2019-12-30T12:11:57Z</time>
      </trkpt>
      <trkpt lat="43.81336" lon="7.09346">
        <ele>826.5</ele>
        <time>2019-12-30T12:11:58Z</time>
      </trkpt>
      <trkpt lat="43.81337" lon="7.09344">
        <ele>827.2</ele>
        <time>2019-12-30T12:11:59Z</time>
      </trkpt>
      <trkpt lat="43.81339" lon="7.09342">
        <ele>827.9</ele>
        <time>2019-12-30T12:12:00Z</time>
      </trkpt>
      <trkpt lat="43.8134" lon="7.0934">
        <ele>828.5</ele>
        <time>2019-12-30T12:12:01Z</time>
      </trkpt>
      <trkpt lat="43.81342" lon="7.09339">
        <ele>829.2</ele>
        <time>2019-12-30T12:12:02Z</time>
      </trkpt>
      <trkpt lat="43.81343" lon="7.09337">
        <ele>830</ele>
        <time>2019-12-30T12:12:03Z</time>
      </trkpt>
      <trkpt lat="43.81345" lon="7.09336">
        <ele>830.9</ele>
        <time>2019-12-30T12:12:04Z</time>
      </trkpt>
      <trkpt lat="43.81347" lon="7.09334">
        <ele>831.9</ele>
        <time>2019-12-30T12:12:05Z</time>
      </trkpt>
      <trkpt lat="43.81348" lon="7.09333">
        <ele>832.8</ele>
        <time>2019-12-30T12:12:06Z</time>
      </trkpt>
      <trkpt lat="43.8135" lon="7.09331">
        <ele>833.5</ele>
        <time>2019-12-30T12:12:07Z</time>
      </trkpt>
      <trkpt lat="43.81352" lon="7.0933">
        <ele>834.1</ele>
        <time>2019-12-30T12:12:08Z</time>
      </trkpt>
      <trkpt lat="43.81354" lon="7.09329">
        <ele>834.8</ele>
        <time>2019-12-30T12:12:09Z</time>
      </trkpt>
      <trkpt lat="43.81356" lon="7.09328">
        <ele>835.4</ele>
        <time>2019-12-30T12:12:10Z</time>
      </trkpt>
      <trkpt lat="43.81357" lon="7.09327">
        <ele>836</ele>
        <time>2019-12-30T12:12:11Z</time>
      </trkpt>
      <trkpt lat="43.81359" lon="7.09326">
        <ele>836.5</ele>
        <time>2019-12-30T12:12:12Z</time>
      </trkpt>
      <trkpt lat="43.8136" lon="7.09324">
        <ele>837.1</ele>
        <time>2019-12-30T12:12:13Z</time>
      </trkpt>
      <trkpt lat="43.81362" lon="7.09323">
        <ele>837.9</ele>
        <time>2019-12-30T12:12:14Z</time>
      </trkpt>
      <trkpt lat="43.81365" lon="7.09321">
        <ele>839</ele>
        <time>2019-12-30T12:12:15Z</time>
      </trkpt>
      <trkpt lat="43.81367" lon="7.09319">
        <ele>840.2</ele>
        <time>2019-12-30T12:12:16Z</time>
      </trkpt>
      <trkpt lat="43.81369" lon="7.09317">
        <ele>841.3</ele>
        <time>2019-12-30T12:12:17Z</time>
      </trkpt>
      <trkpt lat="43.81371" lon="7.09315">
        <ele>842.1</ele>
        <time>2019-12-30T12:12:18Z</time>
      </trkpt>
      <trkpt lat="43.81372" lon="7.09314">
        <ele>842.9</ele>
        <time>2019-12-30T12:12:19Z</time>
      </trkpt>
      <trkpt lat="43.81374" lon="7.09312">
        <ele>843.6</ele>
        <time>2019-12-30T12:12:20Z</time>
      </trkpt>
      <trkpt lat="43.81375" lon="7.0931">
        <ele>844.4</ele>
        <time>2019-12-30T12:12:21Z</time>
      </trkpt>
      <trkpt lat="43.81376" lon="7.09308">
        <ele>845</ele>
        <time>2019-12-30T12:12:22Z</time>
      </trkpt>
      <trkpt lat="43.81376" lon="7.09306">
        <ele>845.7</ele>
        <time>2019-12-30T12:12:23Z</time>
      </trkpt>
      <trkpt lat="43.81377" lon="7.09304">
        <ele>846.3</ele>
        <time>2019-12-30T12:12:24Z</time>
      </trkpt>
      <trkpt lat="43.81378" lon="7.09302">
        <ele>847</ele>
        <time>2019-12-30T12:12:25Z</time>
      </trkpt>
      <trkpt lat="43.81378" lon="7.093">
        <ele>847.4</ele>
        <time>2019-12-30T12:12:26Z</time>
      </trkpt>
      <trkpt lat="43.81379" lon="7.09298">
        <ele>847.6</ele>
        <time>2019-12-30T12:12:27Z</time>
      </trkpt>
      <trkpt lat="43.81379" lon="7.09296">
        <ele>847.8</ele>
        <time>2019-12-30T12:12:28Z</time>
      </trkpt>
      <trkpt lat="43.8138" lon="7.09294">
        <ele>848.1</ele>
        <time>2019-12-30T12:12:29Z</time>
      </trkpt>
      <trkpt lat="43.8138" lon="7.09292">
        <ele>848.3</ele>
        <time>2019-12-30T12:12:30Z</time>
      </trkpt>
      <trkpt lat="43.8138" lon="7.0929">
        <ele>848.2</ele>
        <time>2019-12-30T12:12:31Z</time>
      </trkpt>
      <trkpt lat="43.81381" lon="7.09288">
        <ele>848.1</ele>
        <time>2019-12-30T12:12:32Z</time>
      </trkpt>
      <trkpt lat="43.81381" lon="7.09286">
        <ele>848.1</ele>
        <time>2019-12-30T12:12:33Z</time>
      </trkpt>
      <trkpt lat="43.81381" lon="7.09284">
        <ele>848</ele>
        <time>2019-12-30T12:12:34Z</time>
      </trkpt>
      <trkpt lat="43.81382" lon="7.09282">
        <ele>847.9</ele>
        <time>2019-12-30T12:12:35Z</time>
      </trkpt>
      <trkpt lat="43.81382" lon="7.0928">
        <ele>847.8</ele>
        <time>2019-12-30T12:12:36Z</time>
      </trkpt>
      <trkpt lat="43.81382" lon="7.09278">
        <ele>848.1</ele>
        <time>2019-12-30T12:12:37Z</time>
      </trkpt>
      <trkpt lat="43.81382" lon="7.09275">
        <ele>848.3</ele>
        <time>2019-12-30T12:12:38Z</time>
      </trkpt>
      <trkpt lat="43.81383" lon="7.09273">
        <ele>848.6</ele>
        <time>2019-12-30T12:12:39Z</time>
      </trkpt>
      <trkpt lat="43.81383" lon="7.09271">
        <ele>848.9</ele>
        <time>2019-12-30T12:12:40Z</time>
      </trkpt>
      <trkpt lat="43.81383" lon="7.09268">
        <ele>849.1</ele>
        <time>2019-12-30T12:12:41Z</time>
      </trkpt>
      <trkpt lat="43.81383" lon="7.09266">
        <ele>849.2</ele>
        <time>2019-12-30T12:12:42Z</time>
      </trkpt>
      <trkpt lat="43.81384" lon="7.09264">
        <ele>849.2</ele>
        <time>2019-12-30T12:12:43Z</time>
      </trkpt>
      <trkpt lat="43.81384" lon="7.09261">
        <ele>849.1</ele>
        <time>2019-12-30T12:12:44Z</time>
      </trkpt>
      <trkpt lat="43.81384" lon="7.09259">
        <ele>849.1</ele>
        <time>2019-12-30T12:12:45Z</time>
      </trkpt>
      <trkpt lat="43.81385" lon="7.09256">
        <ele>849.1</ele>
        <time>2019-12-30T12:12:46Z</time>
      </trkpt>
      <trkpt lat="43.81385" lon="7.09253">
        <ele>849.1</ele>
        <time>2019-12-30T12:12:47Z</time>
      </trkpt>
      <trkpt lat="43.81386" lon="7.09251">
        <ele>849.1</ele>
        <time>2019-12-30T12:12:48Z</time>
      </trkpt>
      <trkpt lat="43.81386" lon="7.09248">
        <ele>849.1</ele>
        <time>2019-12-30T12:12:49Z</time>
      </trkpt>
      <trkpt lat="43.81387" lon="7.09245">
        <ele>849.2</ele>
        <time>2019-12-30T12:12:50Z</time>
      </trkpt>
      <trkpt lat="43.81387" lon="7.09243">
        <ele>849.3</ele>
        <time>2019-12-30T12:12:51Z</time>
      </trkpt>
      <trkpt lat="43.81387" lon="7.0924">
        <ele>849.7</ele>
        <time>2019-12-30T12:12:52Z</time>
      </trkpt>
      <trkpt lat="43.81388" lon="7.09237">
        <ele>850.1</ele>
        <time>2019-12-30T12:12:53Z</time>
      </trkpt>
      <trkpt lat="43.81389" lon="7.09233">
        <ele>850.8</ele>
        <time>2019-12-30T12:12:54Z</time>
      </trkpt>
      <trkpt lat="43.81389" lon="7.0923">
        <ele>851.3</ele>
        <time>2019-12-30T12:12:55Z</time>
      </trkpt>
      <trkpt lat="43.8139" lon="7.09228">
        <ele>851.7</ele>
        <time>2019-12-30T12:12:56Z</time>
      </trkpt>
      <trkpt lat="43.81391" lon="7.09226">
        <ele>852</ele>
        <time>2019-12-30T12:12:57Z</time>
      </trkpt>
      <trkpt lat="43.81391" lon="7.09224">
        <ele>852.4</ele>
        <time>2019-12-30T12:12:58Z</time>
      </trkpt>
      <trkpt lat="43.81392" lon="7.09221">
        <ele>852.8</ele>
        <time>2019-12-30T12:12:59Z</time>
      </trkpt>
      <trkpt lat="43.81393" lon="7.09218">
        <ele>853.4</ele>
        <time>2019-12-30T12:13:00Z</time>
      </trkpt>
      <trkpt lat="43.81394" lon="7.09215">
        <ele>854</ele>
        <time>2019-12-30T12:13:01Z</time>
      </trkpt>
      <trkpt lat="43.81394" lon="7.09212">
        <ele>854.6</ele>
        <time>2019-12-30T12:13:02Z</time>
      </trkpt>
      <trkpt lat="43.81395" lon="7.09208">
        <ele>855</ele>
        <time>2019-12-30T12:13:03Z</time>
      </trkpt>
      <trkpt lat="43.81396" lon="7.09205">
        <ele>855</ele>
        <time>2019-12-30T12:13:04Z</time>
      </trkpt>
      <trkpt lat="43.81396" lon="7.09202">
        <ele>855.1</ele>
        <time>2019-12-30T12:13:05Z</time>
      </trkpt>
      <trkpt lat="43.81397" lon="7.09199">
        <ele>855.1</ele>
        <time>2019-12-30T12:13:06Z</time>
      </trkpt>
      <trkpt lat="43.81398" lon="7.09196">
        <ele>855.7</ele>
        <time>2019-12-30T12:13:07Z</time>
      </trkpt>
      <trkpt lat="43.81398" lon="7.09195">
        <ele>855.9</ele>
        <time>2019-12-30T12:13:08Z</time>
      </trkpt>
      <trkpt lat="43.81399" lon="7.09194">
        <ele>856.1</ele>
        <time>2019-12-30T12:13:09Z</time>
      </trkpt>
      <trkpt lat="43.81399" lon="7.09193">
        <ele>856.3</ele>
        <time>2019-12-30T12:13:10Z</time>
      </trkpt>
      <trkpt lat="43.814" lon="7.09192">
        <ele>856.5</ele>
        <time>2019-12-30T12:13:11Z</time>
      </trkpt>
      <trkpt lat="43.814" lon="7.09191">
        <ele>856.7</ele>
        <time>2019-12-30T12:13:12Z</time>
      </trkpt>
      <trkpt lat="43.814" lon="7.0919">
        <ele>856.9</ele>
        <time>2019-12-30T12:13:13Z</time>
      </trkpt>
      <trkpt lat="43.81401" lon="7.09189">
        <ele>857.1</ele>
        <time>2019-12-30T12:13:14Z</time>
      </trkpt>
      <trkpt lat="43.81401" lon="7.09188">
        <ele>857.3</ele>
        <time>2019-12-30T12:13:15Z</time>
      </trkpt>
      <trkpt lat="43.81402" lon="7.09187">
        <ele>857.5</ele>
        <time>2019-12-30T12:13:16Z</time>
      </trkpt>
      <trkpt lat="43.81402" lon="7.09187">
        <ele>857.5</ele>
        <time>2019-12-30T12:13:17Z</time>
      </trkpt>
      <trkpt lat="43.81402" lon="7.09187">
        <ele>857.6</ele>
        <time>2019-12-30T12:13:18Z</time>
      </trkpt>
      <trkpt lat="43.81402" lon="7.09187">
        <ele>857.6</ele>
        <time>2019-12-30T12:13:19Z</time>
      </trkpt>
      <trkpt lat="43.81402" lon="7.09187">
        <ele>857.6</ele>
        <time>2019-12-30T12:13:20Z</time>
      </trkpt>
      <trkpt lat="43.81402" lon="7.09187">
        <ele>857.6</ele>
        <time>2019-12-30T12:13:21Z</time>
      </trkpt>
      <trkpt lat="43.81402" lon="7.09187">
        <ele>857.6</ele>
        <time>2019-12-30T12:13:22Z</time>
      </trkpt>
      <trkpt lat="43.81402" lon="7.09187">
        <ele>857.6</ele>
        <time>2019-12-30T12:13:23Z</time>
      </trkpt>
      <trkpt lat="43.81402" lon="7.09187">
        <ele>857.6</ele>
        <time>2019-12-30T12:13:24Z</time>
      </trkpt>
      <trkpt lat="43.81402" lon="7.09187">
        <ele>857.6</ele>
        <time>2019-12-30T12:13:25Z</time>
      </trkpt>
      <trkpt lat="43.81402" lon="7.09187">
        <ele>857.6</ele>
        <time>2019-12-30T12:13:26Z</time>
      </trkpt>
      <trkpt lat="43.81402" lon="7.09187">
        <ele>857.6</ele>
        <time>2019-12-30T12:13:27Z</time>
      </trkpt>
      <trkpt lat="43.81402" lon="7.09187">
        <ele>857.6</ele>
        <time>2019-12-30T12:13:28Z</time>
      </trkpt>
      <trkpt lat="43.81402" lon="7.09187">
        <ele>857.7</ele>
        <time>2019-12-30T12:13:29Z</time>
      </trkpt>
      <trkpt lat="43.81402" lon="7.09187">
        <ele>857.7</ele>
        <time>2019-12-30T12:13:30Z</time>
      </trkpt>
      <trkpt lat="43.81402" lon="7.09187">
        <ele>857.7</ele>
        <time>2019-12-30T12:13:31Z</time>
      </trkpt>
      <trkpt lat="43.81402" lon="7.09187">
        <ele>857.7</ele>
        <time>2019-12-30T12:13:32Z</time>
      </trkpt>
      <trkpt lat="43.81402" lon="7.09187">
        <ele>857.7</ele>
        <time>2019-12-30T12:13:33Z</time>
      </trkpt>
      <trkpt lat="43.81402" lon="7.09187">
        <ele>857.7</ele>
        <time>2019-12-30T12:13:34Z</time>
      </trkpt>
      <trkpt lat="43.81402" lon="7.09187">
        <ele>857.7</ele>
        <time>2019-12-30T12:13:35Z</time>
      </trkpt>
      <trkpt lat="43.81402" lon="7.09187">
        <ele>857.7</ele>
        <time>2019-12-30T12:13:36Z</time>
      </trkpt>
      <trkpt lat="43.81402" lon="7.09186">
        <ele>857.8</ele>
        <time>2019-12-30T12:13:37Z</time>
      </trkpt>
      <trkpt lat="43.81402" lon="7.09186">
        <ele>857.8</ele>
        <time>2019-12-30T12:13:38Z</time>
      </trkpt>
      <trkpt lat="43.81402" lon="7.09186">
        <ele>857.9</ele>
        <time>2019-12-30T12:13:39Z</time>
      </trkpt>
      <trkpt lat="43.81402" lon="7.09186">
        <ele>857.9</ele>
        <time>2019-12-30T12:13:40Z</time>
      </trkpt>
      <trkpt lat="43.81403" lon="7.09186">
        <ele>858</ele>
        <time>2019-12-30T12:13:41Z</time>
      </trkpt>
      <trkpt lat="43.81403" lon="7.09185">
        <ele>858</ele>
        <time>2019-12-30T12:13:42Z</time>
      </trkpt>
      <trkpt lat="43.81403" lon="7.09185">
        <ele>858.1</ele>
        <time>2019-12-30T12:13:43Z</time>
      </trkpt>
      <trkpt lat="43.81403" lon="7.09185">
        <ele>858.2</ele>
        <time>2019-12-30T12:13:44Z</time>
      </trkpt>
      <trkpt lat="43.81403" lon="7.09184">
        <ele>858.2</ele>
        <time>2019-12-30T12:13:45Z</time>
      </trkpt>
      <trkpt lat="43.81403" lon="7.09184">
        <ele>858.3</ele>
        <time>2019-12-30T12:13:46Z</time>
      </trkpt>
      <trkpt lat="43.81403" lon="7.09184">
        <ele>858.3</ele>
        <time>2019-12-30T12:13:47Z</time>
      </trkpt>
      <trkpt lat="43.81403" lon="7.09184">
        <ele>858.4</ele>
        <time>2019-12-30T12:13:48Z</time>
      </trkpt>
      <trkpt lat="43.81403" lon="7.09183">
        <ele>858.4</ele>
        <time>2019-12-30T12:13:49Z</time>
      </trkpt>
      <trkpt lat="43.81403" lon="7.09183">
        <ele>858.4</ele>
        <time>2019-12-30T12:13:50Z</time>
      </trkpt>
      <trkpt lat="43.81403" lon="7.09183">
        <ele>858.5</ele>
        <time>2019-12-30T12:13:51Z</time>
      </trkpt>
      <trkpt lat="43.81403" lon="7.09183">
        <ele>858.5</ele>
        <time>2019-12-30T12:13:52Z</time>
      </trkpt>
      <trkpt lat="43.81403" lon="7.09183">
        <ele>858.5</ele>
        <time>2019-12-30T12:13:53Z</time>
      </trkpt>
      <trkpt lat="43.81403" lon="7.09183">
        <ele>858.5</ele>
        <time>2019-12-30T12:13:54Z</time>
      </trkpt>
      <trkpt lat="43.81403" lon="7.09183">
        <ele>858.5</ele>
        <time>2019-12-30T12:13:55Z</time>
      </trkpt>
      <trkpt lat="43.81403" lon="7.09183">
        <ele>858.5</ele>
        <time>2019-12-30T12:13:56Z</time>
      </trkpt>
      <trkpt lat="43.81403" lon="7.09183">
        <ele>858.5</ele>
        <time>2019-12-30T12:13:57Z</time>
      </trkpt>
      <trkpt lat="43.81403" lon="7.09183">
        <ele>858.5</ele>
        <time>2019-12-30T12:13:58Z</time>
      </trkpt>
      <trkpt lat="43.81403" lon="7.09183">
        <ele>858.5</ele>
        <time>2019-12-30T12:13:59Z</time>
      </trkpt>
      <trkpt lat="43.81403" lon="7.09183">
        <ele>858.5</ele>
        <time>2019-12-30T12:14:00Z</time>
      </trkpt>
      <trkpt lat="43.81403" lon="7.09183">
        <ele>858.5</ele>
        <time>2019-12-30T12:14:01Z</time>
      </trkpt>
      <trkpt lat="43.81403" lon="7.09183">
        <ele>858.6</ele>
        <time>2019-12-30T12:14:02Z</time>
      </trkpt>
      <trkpt lat="43.81403" lon="7.09183">
        <ele>858.6</ele>
        <time>2019-12-30T12:14:03Z</time>
      </trkpt>
      <trkpt lat="43.81403" lon="7.09183">
        <ele>858.6</ele>
        <time>2019-12-30T12:14:04Z</time>
      </trkpt>
      <trkpt lat="43.81403" lon="7.09183">
        <ele>858.6</ele>
        <time>2019-12-30T12:14:05Z</time>
      </trkpt>
      <trkpt lat="43.81403" lon="7.09183">
        <ele>858.6</ele>
        <time>2019-12-30T12:14:06Z</time>
      </trkpt>
      <trkpt lat="43.81403" lon="7.09183">
        <ele>858.6</ele>
        <time>2019-12-30T12:14:07Z</time>
      </trkpt>
      <trkpt lat="43.81403" lon="7.09183">
        <ele>858.6</ele>
        <time>2019-12-30T12:14:08Z</time>
      </trkpt>
      <trkpt lat="43.81403" lon="7.09183">
        <ele>858.6</ele>
        <time>2019-12-30T12:14:09Z</time>
      </trkpt>
      <trkpt lat="43.81403" lon="7.09183">
        <ele>858.6</ele>
        <time>2019-12-30T12:14:10Z</time>
      </trkpt>
      <trkpt lat="43.81403" lon="7.09183">
        <ele>858.6</ele>
        <time>2019-12-30T12:14:11Z</time>
      </trkpt>
      <trkpt lat="43.81403" lon="7.09183">
        <ele>858.6</ele>
        <time>2019-12-30T12:14:12Z</time>
      </trkpt>
      <trkpt lat="43.81403" lon="7.09183">
        <ele>858.6</ele>
        <time>2019-12-30T12:14:13Z</time>
      </trkpt>
      <trkpt lat="43.81403" lon="7.09183">
        <ele>858.6</ele>
        <time>2019-12-30T12:14:14Z</time>
      </trkpt>
      <trkpt lat="43.81403" lon="7.09183">
        <ele>858.6</ele>
        <time>2019-12-30T12:14:15Z</time>
      </trkpt>
      <trkpt lat="43.81403" lon="7.09183">
        <ele>858.6</ele>
        <time>2019-12-30T12:14:16Z</time>
      </trkpt>
      <trkpt lat="43.81403" lon="7.09183">
        <ele>858.6</ele>
        <time>2019-12-30T12:14:17Z</time>
      </trkpt>
      <trkpt lat="43.81403" lon="7.09183">
        <ele>858.6</ele>
        <time>2019-12-30T12:14:18Z</time>
      </trkpt>
      <trkpt lat="43.81403" lon="7.09183">
        <ele>858.6</ele>
        <time>2019-12-30T12:14:19Z</time>
      </trkpt>
      <trkpt lat="43.81403" lon="7.09183">
        <ele>858.6</ele>
        <time>2019-12-30T12:14:20Z</time>
      </trkpt>
      <trkpt lat="43.81403" lon="7.09183">
        <ele>858.6</ele>
        <time>2019-12-30T12:14:21Z</time>
      </trkpt>
      <trkpt lat="43.81403" lon="7.09183">
        <ele>858.6</ele>
        <time>2019-12-30T12:14:22Z</time>
      </trkpt>
      <trkpt lat="43.81403" lon="7.09183">
        <ele>858.6</ele>
        <time>2019-12-30T12:14:23Z</time>
      </trkpt>
      <trkpt lat="43.81403" lon="7.09183">
        <ele>858.6</ele>
        <time>2019-12-30T12:14:24Z</time>
      </trkpt>
      <trkpt lat="43.81403" lon="7.09183">
        <ele>858.6</ele>
        <time>2019-12-30T12:14:25Z</time>
      </trkpt>
      <trkpt lat="43.81403" lon="7.09183">
        <ele>858.6</ele>
        <time>2019-12-30T12:14:26Z</time>
      </trkpt>
      <trkpt lat="43.81403" lon="7.09183">
        <ele>858.6</ele>
        <time>2019-12-30T12:14:27Z</time>
      </trkpt>
      <trkpt lat="43.81403" lon="7.09183">
        <ele>858.6</ele>
        <time>2019-12-30T12:14:28Z</time>
      </trkpt>
      <trkpt lat="43.81403" lon="7.09183">
        <ele>858.6</ele>
        <time>2019-12-30T12:14:29Z</time>
      </trkpt>
      <trkpt lat="43.81403" lon="7.09183">
        <ele>858.6</ele>
        <time>2019-12-30T12:14:30Z</time>
      </trkpt>
      <trkpt lat="43.81403" lon="7.09182">
        <ele>858.7</ele>
        <time>2019-12-30T12:14:31Z</time>
      </trkpt>
      <trkpt lat="43.81403" lon="7.09182">
        <ele>858.7</ele>
        <time>2019-12-30T12:14:32Z</time>
      </trkpt>
      <trkpt lat="43.81403" lon="7.09182">
        <ele>858.7</ele>
        <time>2019-12-30T12:14:33Z</time>
      </trkpt>
      <trkpt lat="43.81403" lon="7.09182">
        <ele>858.7</ele>
        <time>2019-12-30T12:14:34Z</time>
      </trkpt>
      <trkpt lat="43.81403" lon="7.09182">
        <ele>858.7</ele>
        <time>2019-12-30T12:14:35Z</time>
      </trkpt>
      <trkpt lat="43.81403" lon="7.09182">
        <ele>858.8</ele>
        <time>2019-12-30T12:14:36Z</time>
      </trkpt>
      <trkpt lat="43.81403" lon="7.09182">
        <ele>858.8</ele>
        <time>2019-12-30T12:14:37Z</time>
      </trkpt>
      <trkpt lat="43.81402" lon="7.09182">
        <ele>858.8</ele>
        <time>2019-12-30T12:14:38Z</time>
      </trkpt>
      <trkpt lat="43.81402" lon="7.09182">
        <ele>858.8</ele>
        <time>2019-12-30T12:14:39Z</time>
      </trkpt>
      <trkpt lat="43.81402" lon="7.09182">
        <ele>858.9</ele>
        <time>2019-12-30T12:14:40Z</time>
      </trkpt>
      <trkpt lat="43.81402" lon="7.09182">
        <ele>858.9</ele>
        <time>2019-12-30T12:14:41Z</time>
      </trkpt>
      <trkpt lat="43.81402" lon="7.09182">
        <ele>858.9</ele>
        <time>2019-12-30T12:14:42Z</time>
      </trkpt>
      <trkpt lat="43.81402" lon="7.09182">
        <ele>858.9</ele>
        <time>2019-12-30T12:14:43Z</time>
      </trkpt>
      <trkpt lat="43.81402" lon="7.09182">
        <ele>858.9</ele>
        <time>2019-12-30T12:14:44Z</time>
      </trkpt>
      <trkpt lat="43.81402" lon="7.09182">
        <ele>858.9</ele>
        <time>2019-12-30T12:14:45Z</time>
      </trkpt>
      <trkpt lat="43.81402" lon="7.09182">
        <ele>858.9</ele>
        <time>2019-12-30T12:14:46Z</time>
      </trkpt>
      <trkpt lat="43.81402" lon="7.09182">
        <ele>858.9</ele>
        <time>2019-12-30T12:14:47Z</time>
      </trkpt>
      <trkpt lat="43.81402" lon="7.09182">
        <ele>858.9</ele>
        <time>2019-12-30T12:14:48Z</time>
      </trkpt>
      <trkpt lat="43.81402" lon="7.09182">
        <ele>858.9</ele>
        <time>2019-12-30T12:14:49Z</time>
      </trkpt>
      <trkpt lat="43.81402" lon="7.09182">
        <ele>858.9</ele>
        <time>2019-12-30T12:14:50Z</time>
      </trkpt>
      <trkpt lat="43.81402" lon="7.09182">
        <ele>858.9</ele>
        <time>2019-12-30T12:14:51Z</time>
      </trkpt>
      <trkpt lat="43.81402" lon="7.09182">
        <ele>859</ele>
        <time>2019-12-30T12:14:52Z</time>
      </trkpt>
      <trkpt lat="43.81403" lon="7.09182">
        <ele>859</ele>
        <time>2019-12-30T12:14:53Z</time>
      </trkpt>
      <trkpt lat="43.81403" lon="7.09182">
        <ele>859.2</ele>
        <time>2019-12-30T12:14:54Z</time>
      </trkpt>
      <trkpt lat="43.81404" lon="7.09183">
        <ele>859.4</ele>
        <time>2019-12-30T12:14:55Z</time>
      </trkpt>
      <trkpt lat="43.81404" lon="7.09184">
        <ele>859.6</ele>
        <time>2019-12-30T12:14:56Z</time>
      </trkpt>
      <trkpt lat="43.81405" lon="7.09184">
        <ele>859.7</ele>
        <time>2019-12-30T12:14:57Z</time>
      </trkpt>
      <trkpt lat="43.81405" lon="7.09184">
        <ele>859.8</ele>
        <time>2019-12-30T12:14:58Z</time>
      </trkpt>
      <trkpt lat="43.81405" lon="7.09184">
        <ele>859.8</ele>
        <time>2019-12-30T12:14:59Z</time>
      </trkpt>
      <trkpt lat="43.81405" lon="7.09184">
        <ele>859.8</ele>
        <time>2019-12-30T12:15:00Z</time>
      </trkpt>
      <trkpt lat="43.81405" lon="7.09184">
        <ele>859.9</ele>
        <time>2019-12-30T12:15:01Z</time>
      </trkpt>
      <trkpt lat="43.81405" lon="7.09185">
        <ele>860</ele>
        <time>2019-12-30T12:15:02Z</time>
      </trkpt>
      <trkpt lat="43.81405" lon="7.09185">
        <ele>860.2</ele>
        <time>2019-12-30T12:15:03Z</time>
      </trkpt>
      <trkpt lat="43.81406" lon="7.09187">
        <ele>860.6</ele>
        <time>2019-12-30T12:15:04Z</time>
      </trkpt>
      <trkpt lat="43.81406" lon="7.09189">
        <ele>861</ele>
        <time>2019-12-30T12:15:05Z</time>
      </trkpt>
      <trkpt lat="43.81406" lon="7.09191">
        <ele>861.6</ele>
        <time>2019-12-30T12:15:06Z</time>
      </trkpt>
      <trkpt lat="43.81406" lon="7.09194">
        <ele>862.8</ele>
        <time>2019-12-30T12:15:07Z</time>
      </trkpt>
      <trkpt lat="43.81405" lon="7.09196">
        <ele>864.1</ele>
        <time>2019-12-30T12:15:08Z</time>
      </trkpt>
      <trkpt lat="43.81406" lon="7.09199">
        <ele>864.2</ele>
        <time>2019-12-30T12:15:09Z</time>
      </trkpt>
      <trkpt lat="43.81406" lon="7.09202">
        <ele>864.2</ele>
        <time>2019-12-30T12:15:10Z</time>
      </trkpt>
      <trkpt lat="43.81406" lon="7.09205">
        <ele>864.1</ele>
        <time>2019-12-30T12:15:11Z</time>
      </trkpt>
      <trkpt lat="43.81407" lon="7.09208">
        <ele>864</ele>
        <time>2019-12-30T12:15:12Z</time>
      </trkpt>
      <trkpt lat="43.81408" lon="7.09211">
        <ele>864</ele>
        <time>2019-12-30T12:15:13Z</time>
      </trkpt>
      <trkpt lat="43.81409" lon="7.09214">
        <ele>863.9</ele>
        <time>2019-12-30T12:15:14Z</time>
      </trkpt>
      <trkpt lat="43.8141" lon="7.09217">
        <ele>863.9</ele>
        <time>2019-12-30T12:15:15Z</time>
      </trkpt>
      <trkpt lat="43.81411" lon="7.09219">
        <ele>864.3</ele>
        <time>2019-12-30T12:15:16Z</time>
      </trkpt>
      <trkpt lat="43.81411" lon="7.09222">
        <ele>864.7</ele>
        <time>2019-12-30T12:15:17Z</time>
      </trkpt>
      <trkpt lat="43.81412" lon="7.09224">
        <ele>865.1</ele>
        <time>2019-12-30T12:15:18Z</time>
      </trkpt>
      <trkpt lat="43.81412" lon="7.09227">
        <ele>865.4</ele>
        <time>2019-12-30T12:15:19Z</time>
      </trkpt>
      <trkpt lat="43.81413" lon="7.09228">
        <ele>865.4</ele>
        <time>2019-12-30T12:15:20Z</time>
      </trkpt>
      <trkpt lat="43.81414" lon="7.0923">
        <ele>865.4</ele>
        <time>2019-12-30T12:15:21Z</time>
      </trkpt>
      <trkpt lat="43.81416" lon="7.09232">
        <ele>865.4</ele>
        <time>2019-12-30T12:15:22Z</time>
      </trkpt>
      <trkpt lat="43.81417" lon="7.09233">
        <ele>865.4</ele>
        <time>2019-12-30T12:15:23Z</time>
      </trkpt>
      <trkpt lat="43.81418" lon="7.09232">
        <ele>865.5</ele>
        <time>2019-12-30T12:15:24Z</time>
      </trkpt>
      <trkpt lat="43.81419" lon="7.09231">
        <ele>865.8</ele>
        <time>2019-12-30T12:15:25Z</time>
      </trkpt>
      <trkpt lat="43.8142" lon="7.09229">
        <ele>866.2</ele>
        <time>2019-12-30T12:15:26Z</time>
      </trkpt>
      <trkpt lat="43.81421" lon="7.09227">
        <ele>866.6</ele>
        <time>2019-12-30T12:15:27Z</time>
      </trkpt>
      <trkpt lat="43.81422" lon="7.09224">
        <ele>867.1</ele>
        <time>2019-12-30T12:15:28Z</time>
      </trkpt>
      <trkpt lat="43.81422" lon="7.09221">
        <ele>867.5</ele>
        <time>2019-12-30T12:15:29Z</time>
      </trkpt>
      <trkpt lat="43.81423" lon="7.09218">
        <ele>868</ele>
        <time>2019-12-30T12:15:30Z</time>
      </trkpt>
      <trkpt lat="43.81422" lon="7.09216">
        <ele>868.4</ele>
        <time>2019-12-30T12:15:31Z</time>
      </trkpt>
      <trkpt lat="43.81422" lon="7.09213">
        <ele>868.9</ele>
        <time>2019-12-30T12:15:32Z</time>
      </trkpt>
      <trkpt lat="43.81422" lon="7.09211">
        <ele>869.3</ele>
        <time>2019-12-30T12:15:33Z</time>
      </trkpt>
      <trkpt lat="43.81422" lon="7.09208">
        <ele>869.7</ele>
        <time>2019-12-30T12:15:34Z</time>
      </trkpt>
      <trkpt lat="43.81422" lon="7.09206">
        <ele>870</ele>
        <time>2019-12-30T12:15:35Z</time>
      </trkpt>
      <trkpt lat="43.81422" lon="7.09204">
        <ele>870.4</ele>
        <time>2019-12-30T12:15:36Z</time>
      </trkpt>
      <trkpt lat="43.81423" lon="7.09202">
        <ele>870.7</ele>
        <time>2019-12-30T12:15:37Z</time>
      </trkpt>
      <trkpt lat="43.81424" lon="7.092">
        <ele>871.1</ele>
        <time>2019-12-30T12:15:38Z</time>
      </trkpt>
      <trkpt lat="43.81424" lon="7.09198">
        <ele>871.5</ele>
        <time>2019-12-30T12:15:39Z</time>
      </trkpt>
      <trkpt lat="43.81425" lon="7.09196">
        <ele>871.9</ele>
        <time>2019-12-30T12:15:40Z</time>
      </trkpt>
      <trkpt lat="43.81426" lon="7.09194">
        <ele>872.2</ele>
        <time>2019-12-30T12:15:41Z</time>
      </trkpt>
      <trkpt lat="43.81426" lon="7.09192">
        <ele>872.6</ele>
        <time>2019-12-30T12:15:42Z</time>
      </trkpt>
      <trkpt lat="43.81426" lon="7.0919">
        <ele>872.8</ele>
        <time>2019-12-30T12:15:43Z</time>
      </trkpt>
      <trkpt lat="43.81426" lon="7.09189">
        <ele>872.9</ele>
        <time>2019-12-30T12:15:44Z</time>
      </trkpt>
      <trkpt lat="43.81427" lon="7.09189">
        <ele>873</ele>
        <time>2019-12-30T12:15:45Z</time>
      </trkpt>
      <trkpt lat="43.81427" lon="7.09188">
        <ele>873.1</ele>
        <time>2019-12-30T12:15:46Z</time>
      </trkpt>
      <trkpt lat="43.81427" lon="7.09188">
        <ele>873.2</ele>
        <time>2019-12-30T12:15:47Z</time>
      </trkpt>
      <trkpt lat="43.81427" lon="7.09188">
        <ele>873.2</ele>
        <time>2019-12-30T12:15:48Z</time>
      </trkpt>
      <trkpt lat="43.81427" lon="7.09188">
        <ele>873.3</ele>
        <time>2019-12-30T12:15:49Z</time>
      </trkpt>
      <trkpt lat="43.81427" lon="7.09187">
        <ele>873.3</ele>
        <time>2019-12-30T12:15:50Z</time>
      </trkpt>
      <trkpt lat="43.81427" lon="7.09187">
        <ele>873.4</ele>
        <time>2019-12-30T12:15:51Z</time>
      </trkpt>
      <trkpt lat="43.81428" lon="7.09187">
        <ele>873.5</ele>
        <time>2019-12-30T12:15:52Z</time>
      </trkpt>
      <trkpt lat="43.81428" lon="7.09186">
        <ele>873.6</ele>
        <time>2019-12-30T12:15:53Z</time>
      </trkpt>
      <trkpt lat="43.81428" lon="7.09186">
        <ele>873.7</ele>
        <time>2019-12-30T12:15:54Z</time>
      </trkpt>
      <trkpt lat="43.81428" lon="7.09185">
        <ele>873.7</ele>
        <time>2019-12-30T12:15:55Z</time>
      </trkpt>
      <trkpt lat="43.81429" lon="7.09185">
        <ele>873.8</ele>
        <time>2019-12-30T12:15:56Z</time>
      </trkpt>
      <trkpt lat="43.81429" lon="7.09185">
        <ele>873.8</ele>
        <time>2019-12-30T12:15:57Z</time>
      </trkpt>
      <trkpt lat="43.81429" lon="7.09185">
        <ele>873.8</ele>
        <time>2019-12-30T12:15:58Z</time>
      </trkpt>
      <trkpt lat="43.81429" lon="7.09185">
        <ele>873.9</ele>
        <time>2019-12-30T12:15:59Z</time>
      </trkpt>
      <trkpt lat="43.81429" lon="7.09185">
        <ele>873.9</ele>
        <time>2019-12-30T12:16:00Z</time>
      </trkpt>
      <trkpt lat="43.81429" lon="7.09185">
        <ele>873.9</ele>
        <time>2019-12-30T12:16:01Z</time>
      </trkpt>
      <trkpt lat="43.81429" lon="7.09185">
        <ele>873.9</ele>
        <time>2019-12-30T12:16:02Z</time>
      </trkpt>
      <trkpt lat="43.81429" lon="7.09185">
        <ele>873.9</ele>
        <time>2019-12-30T12:16:03Z</time>
      </trkpt>
      <trkpt lat="43.81429" lon="7.09185">
        <ele>873.9</ele>
        <time>2019-12-30T12:16:04Z</time>
      </trkpt>
      <trkpt lat="43.81428" lon="7.09185">
        <ele>873.9</ele>
        <time>2019-12-30T12:16:05Z</time>
      </trkpt>
      <trkpt lat="43.81428" lon="7.09185">
        <ele>873.9</ele>
        <time>2019-12-30T12:16:06Z</time>
      </trkpt>
      <trkpt lat="43.81428" lon="7.09185">
        <ele>873.9</ele>
        <time>2019-12-30T12:16:07Z</time>
      </trkpt>
      <trkpt lat="43.81428" lon="7.09185">
        <ele>873.9</ele>
        <time>2019-12-30T12:16:08Z</time>
      </trkpt>
      <trkpt lat="43.81428" lon="7.09185">
        <ele>874</ele>
        <time>2019-12-30T12:16:09Z</time>
      </trkpt>
      <trkpt lat="43.81428" lon="7.09184">
        <ele>874</ele>
        <time>2019-12-30T12:16:10Z</time>
      </trkpt>
      <trkpt lat="43.81428" lon="7.09184">
        <ele>874</ele>
        <time>2019-12-30T12:16:11Z</time>
      </trkpt>
      <trkpt lat="43.81428" lon="7.09184">
        <ele>874</ele>
        <time>2019-12-30T12:16:12Z</time>
      </trkpt>
      <trkpt lat="43.81428" lon="7.09184">
        <ele>874</ele>
        <time>2019-12-30T12:16:13Z</time>
      </trkpt>
      <trkpt lat="43.81428" lon="7.09184">
        <ele>874</ele>
        <time>2019-12-30T12:16:14Z</time>
      </trkpt>
      <trkpt lat="43.81428" lon="7.09184">
        <ele>874</ele>
        <time>2019-12-30T12:16:15Z</time>
      </trkpt>
      <trkpt lat="43.81428" lon="7.09184">
        <ele>874</ele>
        <time>2019-12-30T12:16:16Z</time>
      </trkpt>
      <trkpt lat="43.81428" lon="7.09184">
        <ele>874.1</ele>
        <time>2019-12-30T12:16:17Z</time>
      </trkpt>
      <trkpt lat="43.81428" lon="7.09184">
        <ele>874.2</ele>
        <time>2019-12-30T12:16:18Z</time>
      </trkpt>
      <trkpt lat="43.81428" lon="7.09184">
        <ele>874.2</ele>
        <time>2019-12-30T12:16:19Z</time>
      </trkpt>
      <trkpt lat="43.81428" lon="7.09184">
        <ele>874.2</ele>
        <time>2019-12-30T12:16:20Z</time>
      </trkpt>
      <trkpt lat="43.81428" lon="7.09184">
        <ele>874.3</ele>
        <time>2019-12-30T12:16:21Z</time>
      </trkpt>
      <trkpt lat="43.81428" lon="7.09184">
        <ele>874.3</ele>
        <time>2019-12-30T12:16:22Z</time>
      </trkpt>
      <trkpt lat="43.81428" lon="7.09184">
        <ele>874.3</ele>
        <time>2019-12-30T12:16:23Z</time>
      </trkpt>
      <trkpt lat="43.81428" lon="7.09184">
        <ele>874.4</ele>
        <time>2019-12-30T12:16:24Z</time>
      </trkpt>
      <trkpt lat="43.81428" lon="7.09184">
        <ele>874.4</ele>
        <time>2019-12-30T12:16:25Z</time>
      </trkpt>
      <trkpt lat="43.81428" lon="7.09184">
        <ele>874.5</ele>
        <time>2019-12-30T12:16:26Z</time>
      </trkpt>
      <trkpt lat="43.81428" lon="7.09184">
        <ele>874.6</ele>
        <time>2019-12-30T12:16:27Z</time>
      </trkpt>
      <trkpt lat="43.81428" lon="7.09183">
        <ele>874.6</ele>
        <time>2019-12-30T12:16:28Z</time>
      </trkpt>
      <trkpt lat="43.81428" lon="7.09183">
        <ele>874.7</ele>
        <time>2019-12-30T12:16:29Z</time>
      </trkpt>
      <trkpt lat="43.81428" lon="7.09183">
        <ele>874.7</ele>
        <time>2019-12-30T12:16:30Z</time>
      </trkpt>
      <trkpt lat="43.81428" lon="7.09183">
        <ele>874.7</ele>
        <time>2019-12-30T12:16:31Z</time>
      </trkpt>
      <trkpt lat="43.81428" lon="7.09183">
        <ele>874.8</ele>
        <time>2019-12-30T12:16:32Z</time>
      </trkpt>
      <trkpt lat="43.81428" lon="7.09183">
        <ele>874.8</ele>
        <time>2019-12-30T12:16:33Z</time>
      </trkpt>
      <trkpt lat="43.81428" lon="7.09183">
        <ele>874.8</ele>
        <time>2019-12-30T12:16:34Z</time>
      </trkpt>
      <trkpt lat="43.81428" lon="7.09183">
        <ele>874.9</ele>
        <time>2019-12-30T12:16:35Z</time>
      </trkpt>
      <trkpt lat="43.81428" lon="7.09183">
        <ele>874.9</ele>
        <time>2019-12-30T12:16:36Z</time>
      </trkpt>
      <trkpt lat="43.81428" lon="7.09183">
        <ele>874.9</ele>
        <time>2019-12-30T12:16:37Z</time>
      </trkpt>
      <trkpt lat="43.81428" lon="7.09183">
        <ele>875</ele>
        <time>2019-12-30T12:16:38Z</time>
      </trkpt>
      <trkpt lat="43.81428" lon="7.09183">
        <ele>875.1</ele>
        <time>2019-12-30T12:16:39Z</time>
      </trkpt>
      <trkpt lat="43.81428" lon="7.09183">
        <ele>875.1</ele>
        <time>2019-12-30T12:16:40Z</time>
      </trkpt>
      <trkpt lat="43.81428" lon="7.09183">
        <ele>875.1</ele>
        <time>2019-12-30T12:16:41Z</time>
      </trkpt>
      <trkpt lat="43.81428" lon="7.09183">
        <ele>875.2</ele>
        <time>2019-12-30T12:16:42Z</time>
      </trkpt>
      <trkpt lat="43.81428" lon="7.09184">
        <ele>875.2</ele>
        <time>2019-12-30T12:16:43Z</time>
      </trkpt>
      <trkpt lat="43.81428" lon="7.09184">
        <ele>875.3</ele>
        <time>2019-12-30T12:16:44Z</time>
      </trkpt>
      <trkpt lat="43.81428" lon="7.09184">
        <ele>875.3</ele>
        <time>2019-12-30T12:16:45Z</time>
      </trkpt>
      <trkpt lat="43.81428" lon="7.09184">
        <ele>875.3</ele>
        <time>2019-12-30T12:16:46Z</time>
      </trkpt>
      <trkpt lat="43.81428" lon="7.09184">
        <ele>875.4</ele>
        <time>2019-12-30T12:16:47Z</time>
      </trkpt>
      <trkpt lat="43.81428" lon="7.09184">
        <ele>875.5</ele>
        <time>2019-12-30T12:16:48Z</time>
      </trkpt>
      <trkpt lat="43.81427" lon="7.09184">
        <ele>875.5</ele>
        <time>2019-12-30T12:16:49Z</time>
      </trkpt>
      <trkpt lat="43.81427" lon="7.09184">
        <ele>875.5</ele>
        <time>2019-12-30T12:16:50Z</time>
      </trkpt>
      <trkpt lat="43.81427" lon="7.09184">
        <ele>875.6</ele>
        <time>2019-12-30T12:16:51Z</time>
      </trkpt>
      <trkpt lat="43.81427" lon="7.09184">
        <ele>875.6</ele>
        <time>2019-12-30T12:16:52Z</time>
      </trkpt>
      <trkpt lat="43.81427" lon="7.09184">
        <ele>875.6</ele>
        <time>2019-12-30T12:16:53Z</time>
      </trkpt>
      <trkpt lat="43.81427" lon="7.09184">
        <ele>875.7</ele>
        <time>2019-12-30T12:16:54Z</time>
      </trkpt>
      <trkpt lat="43.81427" lon="7.09184">
        <ele>875.7</ele>
        <time>2019-12-30T12:16:55Z</time>
      </trkpt>
      <trkpt lat="43.81427" lon="7.09184">
        <ele>875.7</ele>
        <time>2019-12-30T12:16:56Z</time>
      </trkpt>
      <trkpt lat="43.81427" lon="7.09184">
        <ele>875.8</ele>
        <time>2019-12-30T12:16:57Z</time>
      </trkpt>
      <trkpt lat="43.81427" lon="7.09184">
        <ele>875.8</ele>
        <time>2019-12-30T12:16:58Z</time>
      </trkpt>
      <trkpt lat="43.81427" lon="7.09184">
        <ele>875.8</ele>
        <time>2019-12-30T12:16:59Z</time>
      </trkpt>
      <trkpt lat="43.81427" lon="7.09184">
        <ele>875.9</ele>
        <time>2019-12-30T12:17:00Z</time>
      </trkpt>
      <trkpt lat="43.81427" lon="7.09184">
        <ele>875.9</ele>
        <time>2019-12-30T12:17:01Z</time>
      </trkpt>
      <trkpt lat="43.81427" lon="7.09184">
        <ele>876</ele>
        <time>2019-12-30T12:17:02Z</time>
      </trkpt>
      <trkpt lat="43.81427" lon="7.09184">
        <ele>876</ele>
        <time>2019-12-30T12:17:03Z</time>
      </trkpt>
      <trkpt lat="43.81427" lon="7.09184">
        <ele>876</ele>
        <time>2019-12-30T12:17:04Z</time>
      </trkpt>
      <trkpt lat="43.81427" lon="7.09184">
        <ele>876.1</ele>
        <time>2019-12-30T12:17:05Z</time>
      </trkpt>
      <trkpt lat="43.81427" lon="7.09184">
        <ele>876.1</ele>
        <time>2019-12-30T12:17:06Z</time>
      </trkpt>
      <trkpt lat="43.81427" lon="7.09184">
        <ele>876.2</ele>
        <time>2019-12-30T12:17:07Z</time>
      </trkpt>
      <trkpt lat="43.81427" lon="7.09184">
        <ele>876.2</ele>
        <time>2019-12-30T12:17:08Z</time>
      </trkpt>
      <trkpt lat="43.81427" lon="7.09184">
        <ele>876.2</ele>
        <time>2019-12-30T12:17:09Z</time>
      </trkpt>
      <trkpt lat="43.81426" lon="7.09184">
        <ele>876.3</ele>
        <time>2019-12-30T12:17:10Z</time>
      </trkpt>
      <trkpt lat="43.81426" lon="7.09184">
        <ele>876.4</ele>
        <time>2019-12-30T12:17:11Z</time>
      </trkpt>
      <trkpt lat="43.81426" lon="7.09184">
        <ele>876.4</ele>
        <time>2019-12-30T12:17:12Z</time>
      </trkpt>
      <trkpt lat="43.81426" lon="7.09184">
        <ele>876.5</ele>
        <time>2019-12-30T12:17:13Z</time>
      </trkpt>
      <trkpt lat="43.81425" lon="7.09184">
        <ele>876.5</ele>
        <time>2019-12-30T12:17:14Z</time>
      </trkpt>
      <trkpt lat="43.81425" lon="7.09184">
        <ele>876.6</ele>
        <time>2019-12-30T12:17:15Z</time>
      </trkpt>
      <trkpt lat="43.81425" lon="7.09184">
        <ele>876.6</ele>
        <time>2019-12-30T12:17:16Z</time>
      </trkpt>
      <trkpt lat="43.81425" lon="7.09184">
        <ele>876.6</ele>
        <time>2019-12-30T12:17:17Z</time>
      </trkpt>
      <trkpt lat="43.81424" lon="7.09184">
        <ele>876.7</ele>
        <time>2019-12-30T12:17:18Z</time>
      </trkpt>
      <trkpt lat="43.81424" lon="7.09184">
        <ele>876.7</ele>
        <time>2019-12-30T12:17:19Z</time>
      </trkpt>
      <trkpt lat="43.81424" lon="7.09184">
        <ele>876.8</ele>
        <time>2019-12-30T12:17:20Z</time>
      </trkpt>
      <trkpt lat="43.81424" lon="7.09184">
        <ele>876.8</ele>
        <time>2019-12-30T12:17:21Z</time>
      </trkpt>
      <trkpt lat="43.81424" lon="7.09184">
        <ele>876.9</ele>
        <time>2019-12-30T12:17:22Z</time>
      </trkpt>
      <trkpt lat="43.81424" lon="7.09184">
        <ele>876.9</ele>
        <time>2019-12-30T12:17:23Z</time>
      </trkpt>
      <trkpt lat="43.81423" lon="7.09184">
        <ele>876.9</ele>
        <time>2019-12-30T12:17:24Z</time>
      </trkpt>
      <trkpt lat="43.81423" lon="7.09184">
        <ele>877</ele>
        <time>2019-12-30T12:17:25Z</time>
      </trkpt>
      <trkpt lat="43.81423" lon="7.09184">
        <ele>877</ele>
        <time>2019-12-30T12:17:26Z</time>
      </trkpt>
      <trkpt lat="43.81423" lon="7.09184">
        <ele>877</ele>
        <time>2019-12-30T12:17:27Z</time>
      </trkpt>
      <trkpt lat="43.81423" lon="7.09184">
        <ele>877</ele>
        <time>2019-12-30T12:17:28Z</time>
      </trkpt>
      <trkpt lat="43.81423" lon="7.09184">
        <ele>877.1</ele>
        <time>2019-12-30T12:17:29Z</time>
      </trkpt>
      <trkpt lat="43.81423" lon="7.09184">
        <ele>877.1</ele>
        <time>2019-12-30T12:17:30Z</time>
      </trkpt>
      <trkpt lat="43.81423" lon="7.09184">
        <ele>877.1</ele>
        <time>2019-12-30T12:17:31Z</time>
      </trkpt>
      <trkpt lat="43.81423" lon="7.09184">
        <ele>877.1</ele>
        <time>2019-12-30T12:17:32Z</time>
      </trkpt>
      <trkpt lat="43.81423" lon="7.09184">
        <ele>877.2</ele>
        <time>2019-12-30T12:17:33Z</time>
      </trkpt>
      <trkpt lat="43.81423" lon="7.09184">
        <ele>877.2</ele>
        <time>2019-12-30T12:17:34Z</time>
      </trkpt>
      <trkpt lat="43.81423" lon="7.09184">
        <ele>877.2</ele>
        <time>2019-12-30T12:17:35Z</time>
      </trkpt>
      <trkpt lat="43.81423" lon="7.09184">
        <ele>877.2</ele>
        <time>2019-12-30T12:17:36Z</time>
      </trkpt>
      <trkpt lat="43.81423" lon="7.09184">
        <ele>877.3</ele>
        <time>2019-12-30T12:17:37Z</time>
      </trkpt>
      <trkpt lat="43.81423" lon="7.09184">
        <ele>877.3</ele>
        <time>2019-12-30T12:17:38Z</time>
      </trkpt>
      <trkpt lat="43.81423" lon="7.09184">
        <ele>877.3</ele>
        <time>2019-12-30T12:17:39Z</time>
      </trkpt>
      <trkpt lat="43.81423" lon="7.09184">
        <ele>877.3</ele>
        <time>2019-12-30T12:17:40Z</time>
      </trkpt>
      <trkpt lat="43.81423" lon="7.09184">
        <ele>877.4</ele>
        <time>2019-12-30T12:17:41Z</time>
      </trkpt>
      <trkpt lat="43.81423" lon="7.09184">
        <ele>877.4</ele>
        <time>2019-12-30T12:17:42Z</time>
      </trkpt>
      <trkpt lat="43.81423" lon="7.09184">
        <ele>877.4</ele>
        <time>2019-12-30T12:17:43Z</time>
      </trkpt>
      <trkpt lat="43.81423" lon="7.09184">
        <ele>877.4</ele>
        <time>2019-12-30T12:17:44Z</time>
      </trkpt>
      <trkpt lat="43.81423" lon="7.09184">
        <ele>877.4</ele>
        <time>2019-12-30T12:17:45Z</time>
      </trkpt>
      <trkpt lat="43.81423" lon="7.09184">
        <ele>877.5</ele>
        <time>2019-12-30T12:17:46Z</time>
      </trkpt>
      <trkpt lat="43.81423" lon="7.09184">
        <ele>877.5</ele>
        <time>2019-12-30T12:17:47Z</time>
      </trkpt>
      <trkpt lat="43.81423" lon="7.09184">
        <ele>877.5</ele>
        <time>2019-12-30T12:17:48Z</time>
      </trkpt>
      <trkpt lat="43.81423" lon="7.09184">
        <ele>877.5</ele>
        <time>2019-12-30T12:17:49Z</time>
      </trkpt>
      <trkpt lat="43.81423" lon="7.09184">
        <ele>877.6</ele>
        <time>2019-12-30T12:17:50Z</time>
      </trkpt>
      <trkpt lat="43.81423" lon="7.09184">
        <ele>877.6</ele>
        <time>2019-12-30T12:17:51Z</time>
      </trkpt>
      <trkpt lat="43.81423" lon="7.09184">
        <ele>877.6</ele>
        <time>2019-12-30T12:17:52Z</time>
      </trkpt>
      <trkpt lat="43.81423" lon="7.09184">
        <ele>877.6</ele>
        <time>2019-12-30T12:17:53Z</time>
      </trkpt>
      <trkpt lat="43.81423" lon="7.09184">
        <ele>877.7</ele>
        <time>2019-12-30T12:17:54Z</time>
      </trkpt>
      <trkpt lat="43.81423" lon="7.09184">
        <ele>877.7</ele>
        <time>2019-12-30T12:17:55Z</time>
      </trkpt>
      <trkpt lat="43.81423" lon="7.09184">
        <ele>877.7</ele>
        <time>2019-12-30T12:17:56Z</time>
      </trkpt>
      <trkpt lat="43.81423" lon="7.09184">
        <ele>877.7</ele>
        <time>2019-12-30T12:17:57Z</time>
      </trkpt>
      <trkpt lat="43.81423" lon="7.09184">
        <ele>877.7</ele>
        <time>2019-12-30T12:17:58Z</time>
      </trkpt>
      <trkpt lat="43.81423" lon="7.09184">
        <ele>877.7</ele>
        <time>2019-12-30T12:17:59Z</time>
      </trkpt>
      <trkpt lat="43.81423" lon="7.09184">
        <ele>877.7</ele>
        <time>2019-12-30T12:18:00Z</time>
      </trkpt>
      <trkpt lat="43.81423" lon="7.09184">
        <ele>877.7</ele>
        <time>2019-12-30T12:18:01Z</time>
      </trkpt>
      <trkpt lat="43.81423" lon="7.09184">
        <ele>877.7</ele>
        <time>2019-12-30T12:18:02Z</time>
      </trkpt>
      <trkpt lat="43.81423" lon="7.09184">
        <ele>877.7</ele>
        <time>2019-12-30T12:18:03Z</time>
      </trkpt>
      <trkpt lat="43.81423" lon="7.09184">
        <ele>877.7</ele>
        <time>2019-12-30T12:18:04Z</time>
      </trkpt>
      <trkpt lat="43.81423" lon="7.09184">
        <ele>877.7</ele>
        <time>2019-12-30T12:18:05Z</time>
      </trkpt>
      <trkpt lat="43.81423" lon="7.09184">
        <ele>877.7</ele>
        <time>2019-12-30T12:18:06Z</time>
      </trkpt>
      <trkpt lat="43.81423" lon="7.09184">
        <ele>877.7</ele>
        <time>2019-12-30T12:18:07Z</time>
      </trkpt>
      <trkpt lat="43.81423" lon="7.09184">
        <ele>877.7</ele>
        <time>2019-12-30T12:18:08Z</time>
      </trkpt>
      <trkpt lat="43.81423" lon="7.09184">
        <ele>877.7</ele>
        <time>2019-12-30T12:18:09Z</time>
      </trkpt>
      <trkpt lat="43.81423" lon="7.09184">
        <ele>877.7</ele>
        <time>2019-12-30T12:18:10Z</time>
      </trkpt>
      <trkpt lat="43.81423" lon="7.09184">
        <ele>877.7</ele>
        <time>2019-12-30T12:18:11Z</time>
      </trkpt>
      <trkpt lat="43.81423" lon="7.09184">
        <ele>877.7</ele>
        <time>2019-12-30T12:18:12Z</time>
      </trkpt>
      <trkpt lat="43.81423" lon="7.09184">
        <ele>877.7</ele>
        <time>2019-12-30T12:18:13Z</time>
      </trkpt>
      <trkpt lat="43.81423" lon="7.09184">
        <ele>877.7</ele>
        <time>2019-12-30T12:18:14Z</time>
      </trkpt>
      <trkpt lat="43.81423" lon="7.09184">
        <ele>877.7</ele>
        <time>2019-12-30T12:18:15Z</time>
      </trkpt>
      <trkpt lat="43.81423" lon="7.09184">
        <ele>877.7</ele>
        <time>2019-12-30T12:18:16Z</time>
      </trkpt>
      <trkpt lat="43.81423" lon="7.09184">
        <ele>877.7</ele>
        <time>2019-12-30T12:18:17Z</time>
      </trkpt>
      <trkpt lat="43.81423" lon="7.09184">
        <ele>877.7</ele>
        <time>2019-12-30T12:18:18Z</time>
      </trkpt>
      <trkpt lat="43.81423" lon="7.09184">
        <ele>877.7</ele>
        <time>2019-12-30T12:18:19Z</time>
      </trkpt>
      <trkpt lat="43.81423" lon="7.09184">
        <ele>877.7</ele>
        <time>2019-12-30T12:18:20Z</time>
      </trkpt>
      <trkpt lat="43.81423" lon="7.09184">
        <ele>877.7</ele>
        <time>2019-12-30T12:18:21Z</time>
      </trkpt>
      <trkpt lat="43.81423" lon="7.09184">
        <ele>877.7</ele>
        <time>2019-12-30T12:18:22Z</time>
      </trkpt>
      <trkpt lat="43.81423" lon="7.09184">
        <ele>877.7</ele>
        <time>2019-12-30T12:18:23Z</time>
      </trkpt>
      <trkpt lat="43.81423" lon="7.09184">
        <ele>877.7</ele>
        <time>2019-12-30T12:18:24Z</time>
      </trkpt>
      <trkpt lat="43.81423" lon="7.09184">
        <ele>877.7</ele>
        <time>2019-12-30T12:18:25Z</time>
      </trkpt>
      <trkpt lat="43.81423" lon="7.09184">
        <ele>877.7</ele>
        <time>2019-12-30T12:18:26Z</time>
      </trkpt>
      <trkpt lat="43.81423" lon="7.09184">
        <ele>877.7</ele>
        <time>2019-12-30T12:18:27Z</time>
      </trkpt>
      <trkpt lat="43.81423" lon="7.09184">
        <ele>877.7</ele>
        <time>2019-12-30T12:18:28Z</time>
      </trkpt>
      <trkpt lat="43.81423" lon="7.09184">
        <ele>877.7</ele>
        <time>2019-12-30T12:18:29Z</time>
      </trkpt>
      <trkpt lat="43.81423" lon="7.09184">
        <ele>877.7</ele>
        <time>2019-12-30T12:18:30Z</time>
      </trkpt>
      <trkpt lat="43.81423" lon="7.09184">
        <ele>877.7</ele>
        <time>2019-12-30T12:18:31Z</time>
      </trkpt>
      <trkpt lat="43.81424" lon="7.09184">
        <ele>877.7</ele>
        <time>2019-12-30T12:18:32Z</time>
      </trkpt>
      <trkpt lat="43.81424" lon="7.09184">
        <ele>877.7</ele>
        <time>2019-12-30T12:18:33Z</time>
      </trkpt>
      <trkpt lat="43.81424" lon="7.09184">
        <ele>877.7</ele>
        <time>2019-12-30T12:18:34Z</time>
      </trkpt>
      <trkpt lat="43.81424" lon="7.09184">
        <ele>877.6</ele>
        <time>2019-12-30T12:18:35Z</time>
      </trkpt>
      <trkpt lat="43.81425" lon="7.09183">
        <ele>877.6</ele>
        <time>2019-12-30T12:18:36Z</time>
      </trkpt>
      <trkpt lat="43.81425" lon="7.09183">
        <ele>877.6</ele>
        <time>2019-12-30T12:18:37Z</time>
      </trkpt>
      <trkpt lat="43.81425" lon="7.09183">
        <ele>877.6</ele>
        <time>2019-12-30T12:18:38Z</time>
      </trkpt>
      <trkpt lat="43.81425" lon="7.09183">
        <ele>877.6</ele>
        <time>2019-12-30T12:18:39Z</time>
      </trkpt>
      <trkpt lat="43.81425" lon="7.09183">
        <ele>877.6</ele>
        <time>2019-12-30T12:18:40Z</time>
      </trkpt>
      <trkpt lat="43.81425" lon="7.09183">
        <ele>877.6</ele>
        <time>2019-12-30T12:18:41Z</time>
      </trkpt>
      <trkpt lat="43.81425" lon="7.09183">
        <ele>877.6</ele>
        <time>2019-12-30T12:18:42Z</time>
      </trkpt>
      <trkpt lat="43.81425" lon="7.09183">
        <ele>877.6</ele>
        <time>2019-12-30T12:18:43Z</time>
      </trkpt>
      <trkpt lat="43.81425" lon="7.09183">
        <ele>877.6</ele>
        <time>2019-12-30T12:18:44Z</time>
      </trkpt>
      <trkpt lat="43.81425" lon="7.09183">
        <ele>877.6</ele>
        <time>2019-12-30T12:18:45Z</time>
      </trkpt>
      <trkpt lat="43.81425" lon="7.09183">
        <ele>877.6</ele>
        <time>2019-12-30T12:18:46Z</time>
      </trkpt>
      <trkpt lat="43.81425" lon="7.09183">
        <ele>877.6</ele>
        <time>2019-12-30T12:18:47Z</time>
      </trkpt>
      <trkpt lat="43.81425" lon="7.09183">
        <ele>877.6</ele>
        <time>2019-12-30T12:18:48Z</time>
      </trkpt>
      <trkpt lat="43.81425" lon="7.09183">
        <ele>877.6</ele>
        <time>2019-12-30T12:18:49Z</time>
      </trkpt>
      <trkpt lat="43.81425" lon="7.09183">
        <ele>877.6</ele>
        <time>2019-12-30T12:18:50Z</time>
      </trkpt>
      <trkpt lat="43.81425" lon="7.09183">
        <ele>877.6</ele>
        <time>2019-12-30T12:18:51Z</time>
      </trkpt>
      <trkpt lat="43.81425" lon="7.09183">
        <ele>877.6</ele>
        <time>2019-12-30T12:18:52Z</time>
      </trkpt>
      <trkpt lat="43.81425" lon="7.09183">
        <ele>877.6</ele>
        <time>2019-12-30T12:18:53Z</time>
      </trkpt>
      <trkpt lat="43.81425" lon="7.09182">
        <ele>877.6</ele>
        <time>2019-12-30T12:18:54Z</time>
      </trkpt>
      <trkpt lat="43.81425" lon="7.09182">
        <ele>877.6</ele>
        <time>2019-12-30T12:18:55Z</time>
      </trkpt>
      <trkpt lat="43.81426" lon="7.09182">
        <ele>877.6</ele>
        <time>2019-12-30T12:18:56Z</time>
      </trkpt>
      <trkpt lat="43.81426" lon="7.09182">
        <ele>877.6</ele>
        <time>2019-12-30T12:18:57Z</time>
      </trkpt>
      <trkpt lat="43.81426" lon="7.09182">
        <ele>877.6</ele>
        <time>2019-12-30T12:18:58Z</time>
      </trkpt>
      <trkpt lat="43.81426" lon="7.09183">
        <ele>877.6</ele>
        <time>2019-12-30T12:18:59Z</time>
      </trkpt>
      <trkpt lat="43.81426" lon="7.09183">
        <ele>877.6</ele>
        <time>2019-12-30T12:19:00Z</time>
      </trkpt>
      <trkpt lat="43.81426" lon="7.09183">
        <ele>877.6</ele>
        <time>2019-12-30T12:19:01Z</time>
      </trkpt>
      <trkpt lat="43.81426" lon="7.09184">
        <ele>877.6</ele>
        <time>2019-12-30T12:19:02Z</time>
      </trkpt>
      <trkpt lat="43.81426" lon="7.09184">
        <ele>877.6</ele>
        <time>2019-12-30T12:19:03Z</time>
      </trkpt>
      <trkpt lat="43.81425" lon="7.09184">
        <ele>877.6</ele>
        <time>2019-12-30T12:19:04Z</time>
      </trkpt>
      <trkpt lat="43.81425" lon="7.09185">
        <ele>877.6</ele>
        <time>2019-12-30T12:19:05Z</time>
      </trkpt>
      <trkpt lat="43.81425" lon="7.09185">
        <ele>877.5</ele>
        <time>2019-12-30T12:19:06Z</time>
      </trkpt>
      <trkpt lat="43.81425" lon="7.09185">
        <ele>877.5</ele>
        <time>2019-12-30T12:19:07Z</time>
      </trkpt>
      <trkpt lat="43.81425" lon="7.09185">
        <ele>877.5</ele>
        <time>2019-12-30T12:19:08Z</time>
      </trkpt>
      <trkpt lat="43.81425" lon="7.09184">
        <ele>877.5</ele>
        <time>2019-12-30T12:19:09Z</time>
      </trkpt>
      <trkpt lat="43.81425" lon="7.09184">
        <ele>877.5</ele>
        <time>2019-12-30T12:19:10Z</time>
      </trkpt>
      <trkpt lat="43.81425" lon="7.09184">
        <ele>877.5</ele>
        <time>2019-12-30T12:19:11Z</time>
      </trkpt>
      <trkpt lat="43.81425" lon="7.09184">
        <ele>877.5</ele>
        <time>2019-12-30T12:19:12Z</time>
      </trkpt>
      <trkpt lat="43.81425" lon="7.09184">
        <ele>877.5</ele>
        <time>2019-12-30T12:19:13Z</time>
      </trkpt>
      <trkpt lat="43.81425" lon="7.09184">
        <ele>877.5</ele>
        <time>2019-12-30T12:19:14Z</time>
      </trkpt>
      <trkpt lat="43.81425" lon="7.09184">
        <ele>877.5</ele>
        <time>2019-12-30T12:19:15Z</time>
      </trkpt>
      <trkpt lat="43.81425" lon="7.09184">
        <ele>877.5</ele>
        <time>2019-12-30T12:19:16Z</time>
      </trkpt>
      <trkpt lat="43.81425" lon="7.09183">
        <ele>877.5</ele>
        <time>2019-12-30T12:19:17Z</time>
      </trkpt>
      <trkpt lat="43.81425" lon="7.09183">
        <ele>877.5</ele>
        <time>2019-12-30T12:19:18Z</time>
      </trkpt>
      <trkpt lat="43.81425" lon="7.09183">
        <ele>877.5</ele>
        <time>2019-12-30T12:19:19Z</time>
      </trkpt>
      <trkpt lat="43.81424" lon="7.09183">
        <ele>877.5</ele>
        <time>2019-12-30T12:19:20Z</time>
      </trkpt>
      <trkpt lat="43.81424" lon="7.09183">
        <ele>877.5</ele>
        <time>2019-12-30T12:19:21Z</time>
      </trkpt>
      <trkpt lat="43.81424" lon="7.09182">
        <ele>877.5</ele>
        <time>2019-12-30T12:19:22Z</time>
      </trkpt>
      <trkpt lat="43.81424" lon="7.09182">
        <ele>877.5</ele>
        <time>2019-12-30T12:19:23Z</time>
      </trkpt>
      <trkpt lat="43.81424" lon="7.09182">
        <ele>877.5</ele>
        <time>2019-12-30T12:19:24Z</time>
      </trkpt>
      <trkpt lat="43.81424" lon="7.09182">
        <ele>877.5</ele>
        <time>2019-12-30T12:19:25Z</time>
      </trkpt>
      <trkpt lat="43.81424" lon="7.09182">
        <ele>877.5</ele>
        <time>2019-12-30T12:19:26Z</time>
      </trkpt>
      <trkpt lat="43.81424" lon="7.09182">
        <ele>877.5</ele>
        <time>2019-12-30T12:19:27Z</time>
      </trkpt>
      <trkpt lat="43.81424" lon="7.09182">
        <ele>877.5</ele>
        <time>2019-12-30T12:19:28Z</time>
      </trkpt>
      <trkpt lat="43.81424" lon="7.09182">
        <ele>877.5</ele>
        <time>2019-12-30T12:19:29Z</time>
      </trkpt>
      <trkpt lat="43.81424" lon="7.09182">
        <ele>877.5</ele>
        <time>2019-12-30T12:19:30Z</time>
      </trkpt>
      <trkpt lat="43.81424" lon="7.09182">
        <ele>877.5</ele>
        <time>2019-12-30T12:19:31Z</time>
      </trkpt>
      <trkpt lat="43.81424" lon="7.09182">
        <ele>877.5</ele>
        <time>2019-12-30T12:19:32Z</time>
      </trkpt>
      <trkpt lat="43.81424" lon="7.09182">
        <ele>877.5</ele>
        <time>2019-12-30T12:19:33Z</time>
      </trkpt>
      <trkpt lat="43.81424" lon="7.09182">
        <ele>877.5</ele>
        <time>2019-12-30T12:19:34Z</time>
      </trkpt>
      <trkpt lat="43.81424" lon="7.09182">
        <ele>877.5</ele>
        <time>2019-12-30T12:19:35Z</time>
      </trkpt>
      <trkpt lat="43.81424" lon="7.09182">
        <ele>877.5</ele>
        <time>2019-12-30T12:19:36Z</time>
      </trkpt>
      <trkpt lat="43.81424" lon="7.09182">
        <ele>877.5</ele>
        <time>2019-12-30T12:19:37Z</time>
      </trkpt>
      <trkpt lat="43.81424" lon="7.09182">
        <ele>877.5</ele>
        <time>2019-12-30T12:19:38Z</time>
      </trkpt>
      <trkpt lat="43.81424" lon="7.09183">
        <ele>877.5</ele>
        <time>2019-12-30T12:19:39Z</time>
      </trkpt>
      <trkpt lat="43.81424" lon="7.09183">
        <ele>877.5</ele>
        <time>2019-12-30T12:19:40Z</time>
      </trkpt>
      <trkpt lat="43.81424" lon="7.09183">
        <ele>877.5</ele>
        <time>2019-12-30T12:19:41Z</time>
      </trkpt>
      <trkpt lat="43.81424" lon="7.09183">
        <ele>877.5</ele>
        <time>2019-12-30T12:19:42Z</time>
      </trkpt>
      <trkpt lat="43.81424" lon="7.09183">
        <ele>877.5</ele>
        <time>2019-12-30T12:19:43Z</time>
      </trkpt>
      <trkpt lat="43.81424" lon="7.09182">
        <ele>877.5</ele>
        <time>2019-12-30T12:19:44Z</time>
      </trkpt>
      <trkpt lat="43.81424" lon="7.09182">
        <ele>877.5</ele>
        <time>2019-12-30T12:19:45Z</time>
      </trkpt>
      <trkpt lat="43.81424" lon="7.09182">
        <ele>877.4</ele>
        <time>2019-12-30T12:19:46Z</time>
      </trkpt>
      <trkpt lat="43.81425" lon="7.09182">
        <ele>877.4</ele>
        <time>2019-12-30T12:19:47Z</time>
      </trkpt>
      <trkpt lat="43.81425" lon="7.09182">
        <ele>877.4</ele>
        <time>2019-12-30T12:19:48Z</time>
      </trkpt>
      <trkpt lat="43.81425" lon="7.09182">
        <ele>877.4</ele>
        <time>2019-12-30T12:19:49Z</time>
      </trkpt>
      <trkpt lat="43.81425" lon="7.09182">
        <ele>877.4</ele>
        <time>2019-12-30T12:19:50Z</time>
      </trkpt>
      <trkpt lat="43.81425" lon="7.09183">
        <ele>877.4</ele>
        <time>2019-12-30T12:19:51Z</time>
      </trkpt>
      <trkpt lat="43.81425" lon="7.09183">
        <ele>877.4</ele>
        <time>2019-12-30T12:19:52Z</time>
      </trkpt>
      <trkpt lat="43.81425" lon="7.09183">
        <ele>877.4</ele>
        <time>2019-12-30T12:19:53Z</time>
      </trkpt>
      <trkpt lat="43.81425" lon="7.09183">
        <ele>877.4</ele>
        <time>2019-12-30T12:19:54Z</time>
      </trkpt>
      <trkpt lat="43.81424" lon="7.09184">
        <ele>877.4</ele>
        <time>2019-12-30T12:19:55Z</time>
      </trkpt>
      <trkpt lat="43.81424" lon="7.09184">
        <ele>877.4</ele>
        <time>2019-12-30T12:19:56Z</time>
      </trkpt>
      <trkpt lat="43.81424" lon="7.09184">
        <ele>877.4</ele>
        <time>2019-12-30T12:19:57Z</time>
      </trkpt>
      <trkpt lat="43.81424" lon="7.09184">
        <ele>877.4</ele>
        <time>2019-12-30T12:19:58Z</time>
      </trkpt>
      <trkpt lat="43.81424" lon="7.09184">
        <ele>877.4</ele>
        <time>2019-12-30T12:19:59Z</time>
      </trkpt>
      <trkpt lat="43.81424" lon="7.09184">
        <ele>877.4</ele>
        <time>2019-12-30T12:20:00Z</time>
      </trkpt>
      <trkpt lat="43.81424" lon="7.09184">
        <ele>877.4</ele>
        <time>2019-12-30T12:20:01Z</time>
      </trkpt>
      <trkpt lat="43.81424" lon="7.09184">
        <ele>877.4</ele>
        <time>2019-12-30T12:20:02Z</time>
      </trkpt>
      <trkpt lat="43.81424" lon="7.09184">
        <ele>877.4</ele>
        <time>2019-12-30T12:20:03Z</time>
      </trkpt>
      <trkpt lat="43.81424" lon="7.09184">
        <ele>877.4</ele>
        <time>2019-12-30T12:20:04Z</time>
      </trkpt>
      <trkpt lat="43.81424" lon="7.09184">
        <ele>877.4</ele>
        <time>2019-12-30T12:20:05Z</time>
      </trkpt>
      <trkpt lat="43.81424" lon="7.09184">
        <ele>877.4</ele>
        <time>2019-12-30T12:20:06Z</time>
      </trkpt>
      <trkpt lat="43.81424" lon="7.09184">
        <ele>877.4</ele>
        <time>2019-12-30T12:20:07Z</time>
      </trkpt>
      <trkpt lat="43.81424" lon="7.09184">
        <ele>877.4</ele>
        <time>2019-12-30T12:20:08Z</time>
      </trkpt>
      <trkpt lat="43.81424" lon="7.09184">
        <ele>877.4</ele>
        <time>2019-12-30T12:20:09Z</time>
      </trkpt>
      <trkpt lat="43.81424" lon="7.09184">
        <ele>877.4</ele>
        <time>2019-12-30T12:20:10Z</time>
      </trkpt>
      <trkpt lat="43.81424" lon="7.09184">
        <ele>877.5</ele>
        <time>2019-12-30T12:20:11Z</time>
      </trkpt>
      <trkpt lat="43.81424" lon="7.09184">
        <ele>877.5</ele>
        <time>2019-12-30T12:20:12Z</time>
      </trkpt>
      <trkpt lat="43.81424" lon="7.09184">
        <ele>877.5</ele>
        <time>2019-12-30T12:20:13Z</time>
      </trkpt>
      <trkpt lat="43.81424" lon="7.09184">
        <ele>877.5</ele>
        <time>2019-12-30T12:20:14Z</time>
      </trkpt>
      <trkpt lat="43.81424" lon="7.09184">
        <ele>877.5</ele>
        <time>2019-12-30T12:20:15Z</time>
      </trkpt>
      <trkpt lat="43.81424" lon="7.09184">
        <ele>877.5</ele>
        <time>2019-12-30T12:20:16Z</time>
      </trkpt>
      <trkpt lat="43.81424" lon="7.09184">
        <ele>877.6</ele>
        <time>2019-12-30T12:20:17Z</time>
      </trkpt>
      <trkpt lat="43.81425" lon="7.09184">
        <ele>877.6</ele>
        <time>2019-12-30T12:20:18Z</time>
      </trkpt>
      <trkpt lat="43.81425" lon="7.09184">
        <ele>877.7</ele>
        <time>2019-12-30T12:20:19Z</time>
      </trkpt>
      <trkpt lat="43.81426" lon="7.09184">
        <ele>877.8</ele>
        <time>2019-12-30T12:20:20Z</time>
      </trkpt>
      <trkpt lat="43.81426" lon="7.09184">
        <ele>877.8</ele>
        <time>2019-12-30T12:20:21Z</time>
      </trkpt>
      <trkpt lat="43.81426" lon="7.09184">
        <ele>877.9</ele>
        <time>2019-12-30T12:20:22Z</time>
      </trkpt>
      <trkpt lat="43.81426" lon="7.09184">
        <ele>877.9</ele>
        <time>2019-12-30T12:20:23Z</time>
      </trkpt>
      <trkpt lat="43.81426" lon="7.09184">
        <ele>877.9</ele>
        <time>2019-12-30T12:20:24Z</time>
      </trkpt>
      <trkpt lat="43.81426" lon="7.09184">
        <ele>877.9</ele>
        <time>2019-12-30T12:20:25Z</time>
      </trkpt>
      <trkpt lat="43.81427" lon="7.09184">
        <ele>877.9</ele>
        <time>2019-12-30T12:20:26Z</time>
      </trkpt>
      <trkpt lat="43.81426" lon="7.09184">
        <ele>877.9</ele>
        <time>2019-12-30T12:20:27Z</time>
      </trkpt>
      <trkpt lat="43.81426" lon="7.09184">
        <ele>877.9</ele>
        <time>2019-12-30T12:20:28Z</time>
      </trkpt>
      <trkpt lat="43.81426" lon="7.09184">
        <ele>877.9</ele>
        <time>2019-12-30T12:20:29Z</time>
      </trkpt>
      <trkpt lat="43.81426" lon="7.09184">
        <ele>878</ele>
        <time>2019-12-30T12:20:30Z</time>
      </trkpt>
      <trkpt lat="43.81426" lon="7.09184">
        <ele>878</ele>
        <time>2019-12-30T12:20:31Z</time>
      </trkpt>
      <trkpt lat="43.81426" lon="7.09184">
        <ele>878</ele>
        <time>2019-12-30T12:20:32Z</time>
      </trkpt>
      <trkpt lat="43.81426" lon="7.09184">
        <ele>878</ele>
        <time>2019-12-30T12:20:33Z</time>
      </trkpt>
      <trkpt lat="43.81426" lon="7.09184">
        <ele>878</ele>
        <time>2019-12-30T12:20:34Z</time>
      </trkpt>
      <trkpt lat="43.81426" lon="7.09184">
        <ele>878</ele>
        <time>2019-12-30T12:20:35Z</time>
      </trkpt>
      <trkpt lat="43.81426" lon="7.09185">
        <ele>878.1</ele>
        <time>2019-12-30T12:20:36Z</time>
      </trkpt>
      <trkpt lat="43.81426" lon="7.09185">
        <ele>878.1</ele>
        <time>2019-12-30T12:20:37Z</time>
      </trkpt>
      <trkpt lat="43.81426" lon="7.09185">
        <ele>878.1</ele>
        <time>2019-12-30T12:20:38Z</time>
      </trkpt>
      <trkpt lat="43.81426" lon="7.09185">
        <ele>878.1</ele>
        <time>2019-12-30T12:20:39Z</time>
      </trkpt>
      <trkpt lat="43.81426" lon="7.09185">
        <ele>878.1</ele>
        <time>2019-12-30T12:20:40Z</time>
      </trkpt>
      <trkpt lat="43.81426" lon="7.09185">
        <ele>878.1</ele>
        <time>2019-12-30T12:20:41Z</time>
      </trkpt>
      <trkpt lat="43.81426" lon="7.09185">
        <ele>878.1</ele>
        <time>2019-12-30T12:20:42Z</time>
      </trkpt>
      <trkpt lat="43.81426" lon="7.09185">
        <ele>878.1</ele>
        <time>2019-12-30T12:20:43Z</time>
      </trkpt>
      <trkpt lat="43.81426" lon="7.09185">
        <ele>878.1</ele>
        <time>2019-12-30T12:20:44Z</time>
      </trkpt>
      <trkpt lat="43.81426" lon="7.09185">
        <ele>878.1</ele>
        <time>2019-12-30T12:20:45Z</time>
      </trkpt>
      <trkpt lat="43.81426" lon="7.09185">
        <ele>878.1</ele>
        <time>2019-12-30T12:20:46Z</time>
      </trkpt>
      <trkpt lat="43.81426" lon="7.09185">
        <ele>878.1</ele>
        <time>2019-12-30T12:20:47Z</time>
      </trkpt>
      <trkpt lat="43.81426" lon="7.09185">
        <ele>878.1</ele>
        <time>2019-12-30T12:20:48Z</time>
      </trkpt>
      <trkpt lat="43.81426" lon="7.09185">
        <ele>878.1</ele>
        <time>2019-12-30T12:20:49Z</time>
      </trkpt>
      <trkpt lat="43.81426" lon="7.09185">
        <ele>878.1</ele>
        <time>2019-12-30T12:20:50Z</time>
      </trkpt>
      <trkpt lat="43.81426" lon="7.09185">
        <ele>878.1</ele>
        <time>2019-12-30T12:20:51Z</time>
      </trkpt>
      <trkpt lat="43.81426" lon="7.09184">
        <ele>878.1</ele>
        <time>2019-12-30T12:20:52Z</time>
      </trkpt>
      <trkpt lat="43.81425" lon="7.09184">
        <ele>878.2</ele>
        <time>2019-12-30T12:20:53Z</time>
      </trkpt>
      <trkpt lat="43.81425" lon="7.09184">
        <ele>878.2</ele>
        <time>2019-12-30T12:20:54Z</time>
      </trkpt>
      <trkpt lat="43.81425" lon="7.09184">
        <ele>878.3</ele>
        <time>2019-12-30T12:20:55Z</time>
      </trkpt>
      <trkpt lat="43.81424" lon="7.09183">
        <ele>878.4</ele>
        <time>2019-12-30T12:20:56Z</time>
      </trkpt>
      <trkpt lat="43.81424" lon="7.09183">
        <ele>878.4</ele>
        <time>2019-12-30T12:20:57Z</time>
      </trkpt>
      <trkpt lat="43.81424" lon="7.09183">
        <ele>878.4</ele>
        <time>2019-12-30T12:20:58Z</time>
      </trkpt>
      <trkpt lat="43.81424" lon="7.09183">
        <ele>878.5</ele>
        <time>2019-12-30T12:20:59Z</time>
      </trkpt>
      <trkpt lat="43.81424" lon="7.09183">
        <ele>878.5</ele>
        <time>2019-12-30T12:21:00Z</time>
      </trkpt>
      <trkpt lat="43.81424" lon="7.09183">
        <ele>878.5</ele>
        <time>2019-12-30T12:21:01Z</time>
      </trkpt>
      <trkpt lat="43.81424" lon="7.09183">
        <ele>878.5</ele>
        <time>2019-12-30T12:21:02Z</time>
      </trkpt>
      <trkpt lat="43.81424" lon="7.09183">
        <ele>878.5</ele>
        <time>2019-12-30T12:21:03Z</time>
      </trkpt>
      <trkpt lat="43.81424" lon="7.09183">
        <ele>878.5</ele>
        <time>2019-12-30T12:21:04Z</time>
      </trkpt>
      <trkpt lat="43.81424" lon="7.09183">
        <ele>878.5</ele>
        <time>2019-12-30T12:21:05Z</time>
      </trkpt>
      <trkpt lat="43.81424" lon="7.09183">
        <ele>878.5</ele>
        <time>2019-12-30T12:21:06Z</time>
      </trkpt>
      <trkpt lat="43.81424" lon="7.09183">
        <ele>878.5</ele>
        <time>2019-12-30T12:21:07Z</time>
      </trkpt>
      <trkpt lat="43.81424" lon="7.09183">
        <ele>878.5</ele>
        <time>2019-12-30T12:21:08Z</time>
      </trkpt>
      <trkpt lat="43.81424" lon="7.09183">
        <ele>878.5</ele>
        <time>2019-12-30T12:21:09Z</time>
      </trkpt>
      <trkpt lat="43.81424" lon="7.09183">
        <ele>878.5</ele>
        <time>2019-12-30T12:21:10Z</time>
      </trkpt>
      <trkpt lat="43.81424" lon="7.09183">
        <ele>878.5</ele>
        <time>2019-12-30T12:21:11Z</time>
      </trkpt>
      <trkpt lat="43.81424" lon="7.09183">
        <ele>878.6</ele>
        <time>2019-12-30T12:21:12Z</time>
      </trkpt>
      <trkpt lat="43.81424" lon="7.09183">
        <ele>878.6</ele>
        <time>2019-12-30T12:21:13Z</time>
      </trkpt>
      <trkpt lat="43.81425" lon="7.09183">
        <ele>878.6</ele>
        <time>2019-12-30T12:21:14Z</time>
      </trkpt>
      <trkpt lat="43.81425" lon="7.09183">
        <ele>878.6</ele>
        <time>2019-12-30T12:21:15Z</time>
      </trkpt>
      <trkpt lat="43.81425" lon="7.09183">
        <ele>878.6</ele>
        <time>2019-12-30T12:21:16Z</time>
      </trkpt>
      <trkpt lat="43.81425" lon="7.09183">
        <ele>878.6</ele>
        <time>2019-12-30T12:21:17Z</time>
      </trkpt>
      <trkpt lat="43.81425" lon="7.09183">
        <ele>878.6</ele>
        <time>2019-12-30T12:21:18Z</time>
      </trkpt>
      <trkpt lat="43.81425" lon="7.09183">
        <ele>878.6</ele>
        <time>2019-12-30T12:21:19Z</time>
      </trkpt>
      <trkpt lat="43.81425" lon="7.09183">
        <ele>878.6</ele>
        <time>2019-12-30T12:21:20Z</time>
      </trkpt>
      <trkpt lat="43.81425" lon="7.09183">
        <ele>878.6</ele>
        <time>2019-12-30T12:21:21Z</time>
      </trkpt>
      <trkpt lat="43.81425" lon="7.09183">
        <ele>878.6</ele>
        <time>2019-12-30T12:21:22Z</time>
      </trkpt>
      <trkpt lat="43.81425" lon="7.09183">
        <ele>878.6</ele>
        <time>2019-12-30T12:21:23Z</time>
      </trkpt>
      <trkpt lat="43.81425" lon="7.09182">
        <ele>878.6</ele>
        <time>2019-12-30T12:21:24Z</time>
      </trkpt>
      <trkpt lat="43.81425" lon="7.09182">
        <ele>878.5</ele>
        <time>2019-12-30T12:21:25Z</time>
      </trkpt>
      <trkpt lat="43.81425" lon="7.09182">
        <ele>878.5</ele>
        <time>2019-12-30T12:21:26Z</time>
      </trkpt>
      <trkpt lat="43.81425" lon="7.09182">
        <ele>878.5</ele>
        <time>2019-12-30T12:21:27Z</time>
      </trkpt>
      <trkpt lat="43.81426" lon="7.09182">
        <ele>878.5</ele>
        <time>2019-12-30T12:21:28Z</time>
      </trkpt>
      <trkpt lat="43.81426" lon="7.09181">
        <ele>878.5</ele>
        <time>2019-12-30T12:21:29Z</time>
      </trkpt>
      <trkpt lat="43.81427" lon="7.09181">
        <ele>878.5</ele>
        <time>2019-12-30T12:21:30Z</time>
      </trkpt>
      <trkpt lat="43.81427" lon="7.0918">
        <ele>878.4</ele>
        <time>2019-12-30T12:21:31Z</time>
      </trkpt>
      <trkpt lat="43.81428" lon="7.09178">
        <ele>878.4</ele>
        <time>2019-12-30T12:21:32Z</time>
      </trkpt>
      <trkpt lat="43.81429" lon="7.09176">
        <ele>878.3</ele>
        <time>2019-12-30T12:21:33Z</time>
      </trkpt>
      <trkpt lat="43.81429" lon="7.09174">
        <ele>878.2</ele>
        <time>2019-12-30T12:21:34Z</time>
      </trkpt>
      <trkpt lat="43.8143" lon="7.09172">
        <ele>877.9</ele>
        <time>2019-12-30T12:21:35Z</time>
      </trkpt>
      <trkpt lat="43.8143" lon="7.0917">
        <ele>877.6</ele>
        <time>2019-12-30T12:21:36Z</time>
      </trkpt>
      <trkpt lat="43.81431" lon="7.09168">
        <ele>877.3</ele>
        <time>2019-12-30T12:21:37Z</time>
      </trkpt>
      <trkpt lat="43.81432" lon="7.09165">
        <ele>877.1</ele>
        <time>2019-12-30T12:21:38Z</time>
      </trkpt>
      <trkpt lat="43.81433" lon="7.09163">
        <ele>876.9</ele>
        <time>2019-12-30T12:21:39Z</time>
      </trkpt>
      <trkpt lat="43.81434" lon="7.09161">
        <ele>876.9</ele>
        <time>2019-12-30T12:21:40Z</time>
      </trkpt>
      <trkpt lat="43.81434" lon="7.09158">
        <ele>876.9</ele>
        <time>2019-12-30T12:21:41Z</time>
      </trkpt>
      <trkpt lat="43.81435" lon="7.09156">
        <ele>876.9</ele>
        <time>2019-12-30T12:21:42Z</time>
      </trkpt>
      <trkpt lat="43.81435" lon="7.09153">
        <ele>876.9</ele>
        <time>2019-12-30T12:21:43Z</time>
      </trkpt>
      <trkpt lat="43.81435" lon="7.09151">
        <ele>876.8</ele>
        <time>2019-12-30T12:21:44Z</time>
      </trkpt>
      <trkpt lat="43.81435" lon="7.09149">
        <ele>876.6</ele>
        <time>2019-12-30T12:21:45Z</time>
      </trkpt>
      <trkpt lat="43.81434" lon="7.09146">
        <ele>876.4</ele>
        <time>2019-12-30T12:21:46Z</time>
      </trkpt>
      <trkpt lat="43.81434" lon="7.09144">
        <ele>876.2</ele>
        <time>2019-12-30T12:21:47Z</time>
      </trkpt>
      <trkpt lat="43.81433" lon="7.09141">
        <ele>876</ele>
        <time>2019-12-30T12:21:48Z</time>
      </trkpt>
      <trkpt lat="43.81433" lon="7.09138">
        <ele>876.1</ele>
        <time>2019-12-30T12:21:49Z</time>
      </trkpt>
      <trkpt lat="43.81432" lon="7.09135">
        <ele>876.2</ele>
        <time>2019-12-30T12:21:50Z</time>
      </trkpt>
      <trkpt lat="43.81432" lon="7.09133">
        <ele>876.3</ele>
        <time>2019-12-30T12:21:51Z</time>
      </trkpt>
      <trkpt lat="43.81432" lon="7.0913">
        <ele>876.4</ele>
        <time>2019-12-30T12:21:52Z</time>
      </trkpt>
      <trkpt lat="43.81432" lon="7.09127">
        <ele>876.6</ele>
        <time>2019-12-30T12:21:53Z</time>
      </trkpt>
      <trkpt lat="43.81432" lon="7.09124">
        <ele>876.7</ele>
        <time>2019-12-30T12:21:54Z</time>
      </trkpt>
      <trkpt lat="43.81433" lon="7.0912">
        <ele>876.8</ele>
        <time>2019-12-30T12:21:55Z</time>
      </trkpt>
      <trkpt lat="43.81433" lon="7.09117">
        <ele>876.9</ele>
        <time>2019-12-30T12:21:56Z</time>
      </trkpt>
      <trkpt lat="43.81433" lon="7.09114">
        <ele>876.7</ele>
        <time>2019-12-30T12:21:57Z</time>
      </trkpt>
      <trkpt lat="43.81433" lon="7.09111">
        <ele>876.4</ele>
        <time>2019-12-30T12:21:58Z</time>
      </trkpt>
      <trkpt lat="43.81433" lon="7.09107">
        <ele>876.2</ele>
        <time>2019-12-30T12:21:59Z</time>
      </trkpt>
      <trkpt lat="43.81432" lon="7.09104">
        <ele>876.1</ele>
        <time>2019-12-30T12:22:00Z</time>
      </trkpt>
      <trkpt lat="43.81432" lon="7.091">
        <ele>876.2</ele>
        <time>2019-12-30T12:22:01Z</time>
      </trkpt>
      <trkpt lat="43.81431" lon="7.09095">
        <ele>876.4</ele>
        <time>2019-12-30T12:22:02Z</time>
      </trkpt>
      <trkpt lat="43.81431" lon="7.09091">
        <ele>876.2</ele>
        <time>2019-12-30T12:22:03Z</time>
      </trkpt>
      <trkpt lat="43.81431" lon="7.09086">
        <ele>875.9</ele>
        <time>2019-12-30T12:22:04Z</time>
      </trkpt>
      <trkpt lat="43.8143" lon="7.09081">
        <ele>875.5</ele>
        <time>2019-12-30T12:22:05Z</time>
      </trkpt>
      <trkpt lat="43.81429" lon="7.09077">
        <ele>875.7</ele>
        <time>2019-12-30T12:22:06Z</time>
      </trkpt>
      <trkpt lat="43.81429" lon="7.09072">
        <ele>875.8</ele>
        <time>2019-12-30T12:22:07Z</time>
      </trkpt>
      <trkpt lat="43.81428" lon="7.09067">
        <ele>875.9</ele>
        <time>2019-12-30T12:22:08Z</time>
      </trkpt>
      <trkpt lat="43.81428" lon="7.09063">
        <ele>876</ele>
        <time>2019-12-30T12:22:09Z</time>
      </trkpt>
      <trkpt lat="43.81427" lon="7.09059">
        <ele>876.1</ele>
        <time>2019-12-30T12:22:10Z</time>
      </trkpt>
      <trkpt lat="43.81427" lon="7.09055">
        <ele>876.2</ele>
        <time>2019-12-30T12:22:11Z</time>
      </trkpt>
      <trkpt lat="43.81427" lon="7.09051">
        <ele>876.3</ele>
        <time>2019-12-30T12:22:12Z</time>
      </trkpt>
      <trkpt lat="43.81427" lon="7.09047">
        <ele>876.4</ele>
        <time>2019-12-30T12:22:13Z</time>
      </trkpt>
      <trkpt lat="43.81427" lon="7.09044">
        <ele>876.3</ele>
        <time>2019-12-30T12:22:14Z</time>
      </trkpt>
      <trkpt lat="43.81427" lon="7.0904">
        <ele>875.9</ele>
        <time>2019-12-30T12:22:15Z</time>
      </trkpt>
      <trkpt lat="43.81427" lon="7.09037">
        <ele>875.5</ele>
        <time>2019-12-30T12:22:16Z</time>
      </trkpt>
      <trkpt lat="43.81427" lon="7.09034">
        <ele>876.6</ele>
        <time>2019-12-30T12:22:17Z</time>
      </trkpt>
      <trkpt lat="43.81427" lon="7.09031">
        <ele>877.7</ele>
        <time>2019-12-30T12:22:18Z</time>
      </trkpt>
      <trkpt lat="43.81427" lon="7.09028">
        <ele>878.3</ele>
        <time>2019-12-30T12:22:19Z</time>
      </trkpt>
      <trkpt lat="43.81427" lon="7.09025">
        <ele>878.8</ele>
        <time>2019-12-30T12:22:20Z</time>
      </trkpt>
      <trkpt lat="43.81427" lon="7.09023">
        <ele>879.3</ele>
        <time>2019-12-30T12:22:21Z</time>
      </trkpt>
      <trkpt lat="43.81428" lon="7.09021">
        <ele>879.8</ele>
        <time>2019-12-30T12:22:22Z</time>
      </trkpt>
      <trkpt lat="43.81427" lon="7.09018">
        <ele>880.2</ele>
        <time>2019-12-30T12:22:23Z</time>
      </trkpt>
      <trkpt lat="43.81427" lon="7.09016">
        <ele>880.6</ele>
        <time>2019-12-30T12:22:24Z</time>
      </trkpt>
      <trkpt lat="43.81427" lon="7.09014">
        <ele>881</ele>
        <time>2019-12-30T12:22:25Z</time>
      </trkpt>
      <trkpt lat="43.81426" lon="7.09012">
        <ele>881.5</ele>
        <time>2019-12-30T12:22:26Z</time>
      </trkpt>
      <trkpt lat="43.81426" lon="7.0901">
        <ele>882</ele>
        <time>2019-12-30T12:22:27Z</time>
      </trkpt>
      <trkpt lat="43.81425" lon="7.09007">
        <ele>882.4</ele>
        <time>2019-12-30T12:22:28Z</time>
      </trkpt>
      <trkpt lat="43.81425" lon="7.09005">
        <ele>882.9</ele>
        <time>2019-12-30T12:22:29Z</time>
      </trkpt>
      <trkpt lat="43.81425" lon="7.09003">
        <ele>883.3</ele>
        <time>2019-12-30T12:22:30Z</time>
      </trkpt>
      <trkpt lat="43.81426" lon="7.09">
        <ele>883.8</ele>
        <time>2019-12-30T12:22:31Z</time>
      </trkpt>
      <trkpt lat="43.81426" lon="7.08998">
        <ele>884.4</ele>
        <time>2019-12-30T12:22:32Z</time>
      </trkpt>
      <trkpt lat="43.81427" lon="7.08995">
        <ele>884.9</ele>
        <time>2019-12-30T12:22:33Z</time>
      </trkpt>
      <trkpt lat="43.81428" lon="7.08993">
        <ele>885.4</ele>
        <time>2019-12-30T12:22:34Z</time>
      </trkpt>
      <trkpt lat="43.81429" lon="7.08991">
        <ele>885.9</ele>
        <time>2019-12-30T12:22:35Z</time>
      </trkpt>
      <trkpt lat="43.8143" lon="7.08989">
        <ele>886.7</ele>
        <time>2019-12-30T12:22:36Z</time>
      </trkpt>
      <trkpt lat="43.81431" lon="7.08986">
        <ele>887.8</ele>
        <time>2019-12-30T12:22:37Z</time>
      </trkpt>
      <trkpt lat="43.81433" lon="7.08983">
        <ele>889.1</ele>
        <time>2019-12-30T12:22:38Z</time>
      </trkpt>
      <trkpt lat="43.81435" lon="7.08981">
        <ele>890.2</ele>
        <time>2019-12-30T12:22:39Z</time>
      </trkpt>
      <trkpt lat="43.81437" lon="7.08978">
        <ele>891</ele>
        <time>2019-12-30T12:22:40Z</time>
      </trkpt>
      <trkpt lat="43.8144" lon="7.08976">
        <ele>891.8</ele>
        <time>2019-12-30T12:22:41Z</time>
      </trkpt>
      <trkpt lat="43.81443" lon="7.08974">
        <ele>892.7</ele>
        <time>2019-12-30T12:22:42Z</time>
      </trkpt>
      <trkpt lat="43.81445" lon="7.08971">
        <ele>893.7</ele>
        <time>2019-12-30T12:22:43Z</time>
      </trkpt>
      <trkpt lat="43.81447" lon="7.08969">
        <ele>894.8</ele>
        <time>2019-12-30T12:22:44Z</time>
      </trkpt>
      <trkpt lat="43.81449" lon="7.08966">
        <ele>895.7</ele>
        <time>2019-12-30T12:22:45Z</time>
      </trkpt>
      <trkpt lat="43.81451" lon="7.08963">
        <ele>896.5</ele>
        <time>2019-12-30T12:22:46Z</time>
      </trkpt>
      <trkpt lat="43.81453" lon="7.0896">
        <ele>897.3</ele>
        <time>2019-12-30T12:22:47Z</time>
      </trkpt>
      <trkpt lat="43.81455" lon="7.08958">
        <ele>898.1</ele>
        <time>2019-12-30T12:22:48Z</time>
      </trkpt>
      <trkpt lat="43.81457" lon="7.08956">
        <ele>899</ele>
        <time>2019-12-30T12:22:49Z</time>
      </trkpt>
      <trkpt lat="43.81459" lon="7.08955">
        <ele>899.9</ele>
        <time>2019-12-30T12:22:50Z</time>
      </trkpt>
      <trkpt lat="43.81462" lon="7.08953">
        <ele>900.9</ele>
        <time>2019-12-30T12:22:51Z</time>
      </trkpt>
      <trkpt lat="43.81464" lon="7.08952">
        <ele>901.8</ele>
        <time>2019-12-30T12:22:52Z</time>
      </trkpt>
      <trkpt lat="43.81467" lon="7.08952">
        <ele>902.7</ele>
        <time>2019-12-30T12:22:53Z</time>
      </trkpt>
      <trkpt lat="43.81469" lon="7.08951">
        <ele>903.6</ele>
        <time>2019-12-30T12:22:54Z</time>
      </trkpt>
      <trkpt lat="43.81472" lon="7.08951">
        <ele>904.5</ele>
        <time>2019-12-30T12:22:55Z</time>
      </trkpt>
      <trkpt lat="43.81474" lon="7.0895">
        <ele>905.2</ele>
        <time>2019-12-30T12:22:56Z</time>
      </trkpt>
      <trkpt lat="43.81476" lon="7.08949">
        <ele>905.2</ele>
        <time>2019-12-30T12:22:57Z</time>
      </trkpt>
      <trkpt lat="43.81478" lon="7.08948">
        <ele>905.2</ele>
        <time>2019-12-30T12:22:58Z</time>
      </trkpt>
      <trkpt lat="43.81481" lon="7.08947">
        <ele>904.8</ele>
        <time>2019-12-30T12:22:59Z</time>
      </trkpt>
      <trkpt lat="43.81483" lon="7.08946">
        <ele>904.5</ele>
        <time>2019-12-30T12:23:00Z</time>
      </trkpt>
      <trkpt lat="43.81485" lon="7.08944">
        <ele>904.2</ele>
        <time>2019-12-30T12:23:01Z</time>
      </trkpt>
      <trkpt lat="43.81487" lon="7.08943">
        <ele>903.9</ele>
        <time>2019-12-30T12:23:02Z</time>
      </trkpt>
      <trkpt lat="43.81489" lon="7.08942">
        <ele>903.9</ele>
        <time>2019-12-30T12:23:03Z</time>
      </trkpt>
      <trkpt lat="43.81491" lon="7.08941">
        <ele>903.9</ele>
        <time>2019-12-30T12:23:04Z</time>
      </trkpt>
      <trkpt lat="43.81493" lon="7.08939">
        <ele>903.9</ele>
        <time>2019-12-30T12:23:05Z</time>
      </trkpt>
      <trkpt lat="43.81495" lon="7.08938">
        <ele>903.8</ele>
        <time>2019-12-30T12:23:06Z</time>
      </trkpt>
      <trkpt lat="43.81496" lon="7.08935">
        <ele>903.5</ele>
        <time>2019-12-30T12:23:07Z</time>
      </trkpt>
      <trkpt lat="43.81497" lon="7.08933">
        <ele>903.2</ele>
        <time>2019-12-30T12:23:08Z</time>
      </trkpt>
      <trkpt lat="43.81498" lon="7.08929">
        <ele>902.9</ele>
        <time>2019-12-30T12:23:09Z</time>
      </trkpt>
      <trkpt lat="43.81497" lon="7.08925">
        <ele>902.6</ele>
        <time>2019-12-30T12:23:10Z</time>
      </trkpt>
      <trkpt lat="43.81496" lon="7.08922">
        <ele>902.4</ele>
        <time>2019-12-30T12:23:11Z</time>
      </trkpt>
      <trkpt lat="43.81495" lon="7.08919">
        <ele>902.2</ele>
        <time>2019-12-30T12:23:12Z</time>
      </trkpt>
      <trkpt lat="43.81494" lon="7.08917">
        <ele>902.1</ele>
        <time>2019-12-30T12:23:13Z</time>
      </trkpt>
      <trkpt lat="43.81493" lon="7.08914">
        <ele>901.9</ele>
        <time>2019-12-30T12:23:14Z</time>
      </trkpt>
      <trkpt lat="43.81492" lon="7.08911">
        <ele>901.7</ele>
        <time>2019-12-30T12:23:15Z</time>
      </trkpt>
      <trkpt lat="43.81491" lon="7.08908">
        <ele>901.6</ele>
        <time>2019-12-30T12:23:16Z</time>
      </trkpt>
      <trkpt lat="43.8149" lon="7.08905">
        <ele>901.4</ele>
        <time>2019-12-30T12:23:17Z</time>
      </trkpt>
      <trkpt lat="43.8149" lon="7.08902">
        <ele>901.3</ele>
        <time>2019-12-30T12:23:18Z</time>
      </trkpt>
      <trkpt lat="43.81489" lon="7.08899">
        <ele>901.1</ele>
        <time>2019-12-30T12:23:19Z</time>
      </trkpt>
      <trkpt lat="43.81488" lon="7.08896">
        <ele>901</ele>
        <time>2019-12-30T12:23:20Z</time>
      </trkpt>
      <trkpt lat="43.81488" lon="7.08893">
        <ele>900.9</ele>
        <time>2019-12-30T12:23:21Z</time>
      </trkpt>
      <trkpt lat="43.81487" lon="7.0889">
        <ele>900.6</ele>
        <time>2019-12-30T12:23:22Z</time>
      </trkpt>
      <trkpt lat="43.81487" lon="7.08887">
        <ele>900.4</ele>
        <time>2019-12-30T12:23:23Z</time>
      </trkpt>
      <trkpt lat="43.81486" lon="7.08885">
        <ele>900</ele>
        <time>2019-12-30T12:23:24Z</time>
      </trkpt>
      <trkpt lat="43.81486" lon="7.08882">
        <ele>899.4</ele>
        <time>2019-12-30T12:23:25Z</time>
      </trkpt>
      <trkpt lat="43.81485" lon="7.08879">
        <ele>898.8</ele>
        <time>2019-12-30T12:23:26Z</time>
      </trkpt>
      <trkpt lat="43.81485" lon="7.08876">
        <ele>898.4</ele>
        <time>2019-12-30T12:23:27Z</time>
      </trkpt>
      <trkpt lat="43.81483" lon="7.08874">
        <ele>898.2</ele>
        <time>2019-12-30T12:23:28Z</time>
      </trkpt>
      <trkpt lat="43.81481" lon="7.08871">
        <ele>897.9</ele>
        <time>2019-12-30T12:23:29Z</time>
      </trkpt>
      <trkpt lat="43.81479" lon="7.08869">
        <ele>898</ele>
        <time>2019-12-30T12:23:30Z</time>
      </trkpt>
      <trkpt lat="43.81477" lon="7.08866">
        <ele>898.4</ele>
        <time>2019-12-30T12:23:31Z</time>
      </trkpt>
      <trkpt lat="43.81476" lon="7.08864">
        <ele>898.8</ele>
        <time>2019-12-30T12:23:32Z</time>
      </trkpt>
      <trkpt lat="43.81474" lon="7.08862">
        <ele>899.2</ele>
        <time>2019-12-30T12:23:33Z</time>
      </trkpt>
      <trkpt lat="43.81473" lon="7.08859">
        <ele>899.6</ele>
        <time>2019-12-30T12:23:34Z</time>
      </trkpt>
      <trkpt lat="43.81471" lon="7.08856">
        <ele>900</ele>
        <time>2019-12-30T12:23:35Z</time>
      </trkpt>
      <trkpt lat="43.81471" lon="7.08853">
        <ele>900.5</ele>
        <time>2019-12-30T12:23:36Z</time>
      </trkpt>
      <trkpt lat="43.81471" lon="7.08849">
        <ele>900.9</ele>
        <time>2019-12-30T12:23:37Z</time>
      </trkpt>
      <trkpt lat="43.81471" lon="7.08845">
        <ele>901.3</ele>
        <time>2019-12-30T12:23:38Z</time>
      </trkpt>
      <trkpt lat="43.81472" lon="7.08842">
        <ele>901.7</ele>
        <time>2019-12-30T12:23:39Z</time>
      </trkpt>
      <trkpt lat="43.81473" lon="7.08838">
        <ele>902</ele>
        <time>2019-12-30T12:23:40Z</time>
      </trkpt>
      <trkpt lat="43.81474" lon="7.08835">
        <ele>902.1</ele>
        <time>2019-12-30T12:23:41Z</time>
      </trkpt>
      <trkpt lat="43.81475" lon="7.08832">
        <ele>902.2</ele>
        <time>2019-12-30T12:23:42Z</time>
      </trkpt>
      <trkpt lat="43.81477" lon="7.08828">
        <ele>902.3</ele>
        <time>2019-12-30T12:23:43Z</time>
      </trkpt>
      <trkpt lat="43.81478" lon="7.08824">
        <ele>902.6</ele>
        <time>2019-12-30T12:23:44Z</time>
      </trkpt>
      <trkpt lat="43.81479" lon="7.0882">
        <ele>902.9</ele>
        <time>2019-12-30T12:23:45Z</time>
      </trkpt>
      <trkpt lat="43.81479" lon="7.08815">
        <ele>903.3</ele>
        <time>2019-12-30T12:23:46Z</time>
      </trkpt>
      <trkpt lat="43.81479" lon="7.0881">
        <ele>903.6</ele>
        <time>2019-12-30T12:23:47Z</time>
      </trkpt>
      <trkpt lat="43.8148" lon="7.08805">
        <ele>903.9</ele>
        <time>2019-12-30T12:23:48Z</time>
      </trkpt>
      <trkpt lat="43.8148" lon="7.088">
        <ele>904.1</ele>
        <time>2019-12-30T12:23:49Z</time>
      </trkpt>
      <trkpt lat="43.81481" lon="7.08795">
        <ele>904.4</ele>
        <time>2019-12-30T12:23:50Z</time>
      </trkpt>
      <trkpt lat="43.81482" lon="7.0879">
        <ele>904.6</ele>
        <time>2019-12-30T12:23:51Z</time>
      </trkpt>
      <trkpt lat="43.81483" lon="7.08785">
        <ele>904.9</ele>
        <time>2019-12-30T12:23:52Z</time>
      </trkpt>
      <trkpt lat="43.81484" lon="7.08781">
        <ele>905.1</ele>
        <time>2019-12-30T12:23:53Z</time>
      </trkpt>
      <trkpt lat="43.81485" lon="7.08776">
        <ele>905.4</ele>
        <time>2019-12-30T12:23:54Z</time>
      </trkpt>
      <trkpt lat="43.81486" lon="7.08771">
        <ele>905.7</ele>
        <time>2019-12-30T12:23:55Z</time>
      </trkpt>
      <trkpt lat="43.81488" lon="7.08767">
        <ele>905.7</ele>
        <time>2019-12-30T12:23:56Z</time>
      </trkpt>
      <trkpt lat="43.81489" lon="7.08763">
        <ele>905.6</ele>
        <time>2019-12-30T12:23:57Z</time>
      </trkpt>
      <trkpt lat="43.8149" lon="7.08758">
        <ele>905.9</ele>
        <time>2019-12-30T12:23:58Z</time>
      </trkpt>
      <trkpt lat="43.81492" lon="7.08754">
        <ele>906.5</ele>
        <time>2019-12-30T12:23:59Z</time>
      </trkpt>
      <trkpt lat="43.81493" lon="7.08749">
        <ele>907.7</ele>
        <time>2019-12-30T12:24:00Z</time>
      </trkpt>
      <trkpt lat="43.81495" lon="7.08745">
        <ele>908.4</ele>
        <time>2019-12-30T12:24:01Z</time>
      </trkpt>
      <trkpt lat="43.81497" lon="7.08742">
        <ele>908.7</ele>
        <time>2019-12-30T12:24:02Z</time>
      </trkpt>
      <trkpt lat="43.81499" lon="7.0874">
        <ele>909</ele>
        <time>2019-12-30T12:24:03Z</time>
      </trkpt>
      <trkpt lat="43.815" lon="7.08737">
        <ele>909.6</ele>
        <time>2019-12-30T12:24:04Z</time>
      </trkpt>
      <trkpt lat="43.81502" lon="7.08735">
        <ele>910.1</ele>
        <time>2019-12-30T12:24:05Z</time>
      </trkpt>
      <trkpt lat="43.81503" lon="7.08733">
        <ele>910.6</ele>
        <time>2019-12-30T12:24:06Z</time>
      </trkpt>
      <trkpt lat="43.81504" lon="7.08732">
        <ele>910.9</ele>
        <time>2019-12-30T12:24:07Z</time>
      </trkpt>
      <trkpt lat="43.81506" lon="7.0873">
        <ele>911.1</ele>
        <time>2019-12-30T12:24:08Z</time>
      </trkpt>
      <trkpt lat="43.81507" lon="7.08727">
        <ele>911.4</ele>
        <time>2019-12-30T12:24:09Z</time>
      </trkpt>
      <trkpt lat="43.81508" lon="7.08723">
        <ele>911.5</ele>
        <time>2019-12-30T12:24:10Z</time>
      </trkpt>
      <trkpt lat="43.8151" lon="7.0872">
        <ele>911.4</ele>
        <time>2019-12-30T12:24:11Z</time>
      </trkpt>
      <trkpt lat="43.81511" lon="7.08717">
        <ele>911.3</ele>
        <time>2019-12-30T12:24:12Z</time>
      </trkpt>
      <trkpt lat="43.81512" lon="7.08713">
        <ele>911.2</ele>
        <time>2019-12-30T12:24:13Z</time>
      </trkpt>
      <trkpt lat="43.81512" lon="7.08708">
        <ele>911.1</ele>
        <time>2019-12-30T12:24:14Z</time>
      </trkpt>
      <trkpt lat="43.81513" lon="7.08703">
        <ele>911</ele>
        <time>2019-12-30T12:24:15Z</time>
      </trkpt>
      <trkpt lat="43.81513" lon="7.08699">
        <ele>910.9</ele>
        <time>2019-12-30T12:24:16Z</time>
      </trkpt>
      <trkpt lat="43.81513" lon="7.08695">
        <ele>910.6</ele>
        <time>2019-12-30T12:24:17Z</time>
      </trkpt>
      <trkpt lat="43.81513" lon="7.08691">
        <ele>910.2</ele>
        <time>2019-12-30T12:24:18Z</time>
      </trkpt>
      <trkpt lat="43.81514" lon="7.08687">
        <ele>909.8</ele>
        <time>2019-12-30T12:24:19Z</time>
      </trkpt>
      <trkpt lat="43.81514" lon="7.08683">
        <ele>909.7</ele>
        <time>2019-12-30T12:24:20Z</time>
      </trkpt>
      <trkpt lat="43.81515" lon="7.08679">
        <ele>909.6</ele>
        <time>2019-12-30T12:24:21Z</time>
      </trkpt>
      <trkpt lat="43.81516" lon="7.08675">
        <ele>909.6</ele>
        <time>2019-12-30T12:24:22Z</time>
      </trkpt>
      <trkpt lat="43.81517" lon="7.08671">
        <ele>909.5</ele>
        <time>2019-12-30T12:24:23Z</time>
      </trkpt>
      <trkpt lat="43.81518" lon="7.08666">
        <ele>909.4</ele>
        <time>2019-12-30T12:24:24Z</time>
      </trkpt>
      <trkpt lat="43.81518" lon="7.08661">
        <ele>909.8</ele>
        <time>2019-12-30T12:24:25Z</time>
      </trkpt>
      <trkpt lat="43.81519" lon="7.08656">
        <ele>910.2</ele>
        <time>2019-12-30T12:24:26Z</time>
      </trkpt>
      <trkpt lat="43.81519" lon="7.08651">
        <ele>910.1</ele>
        <time>2019-12-30T12:24:27Z</time>
      </trkpt>
      <trkpt lat="43.81519" lon="7.08647">
        <ele>910.1</ele>
        <time>2019-12-30T12:24:28Z</time>
      </trkpt>
      <trkpt lat="43.8152" lon="7.08643">
        <ele>910.2</ele>
        <time>2019-12-30T12:24:29Z</time>
      </trkpt>
      <trkpt lat="43.81521" lon="7.08639">
        <ele>910.6</ele>
        <time>2019-12-30T12:24:30Z</time>
      </trkpt>
      <trkpt lat="43.81522" lon="7.08635">
        <ele>911</ele>
        <time>2019-12-30T12:24:31Z</time>
      </trkpt>
      <trkpt lat="43.81523" lon="7.08629">
        <ele>911.1</ele>
        <time>2019-12-30T12:24:32Z</time>
      </trkpt>
      <trkpt lat="43.81523" lon="7.08622">
        <ele>911.1</ele>
        <time>2019-12-30T12:24:33Z</time>
      </trkpt>
      <trkpt lat="43.81522" lon="7.08615">
        <ele>911.1</ele>
        <time>2019-12-30T12:24:34Z</time>
      </trkpt>
      <trkpt lat="43.81522" lon="7.0861">
        <ele>911.2</ele>
        <time>2019-12-30T12:24:35Z</time>
      </trkpt>
      <trkpt lat="43.81522" lon="7.08605">
        <ele>911.2</ele>
        <time>2019-12-30T12:24:36Z</time>
      </trkpt>
      <trkpt lat="43.81522" lon="7.086">
        <ele>911.2</ele>
        <time>2019-12-30T12:24:37Z</time>
      </trkpt>
      <trkpt lat="43.81522" lon="7.08596">
        <ele>911.2</ele>
        <time>2019-12-30T12:24:38Z</time>
      </trkpt>
      <trkpt lat="43.81522" lon="7.08591">
        <ele>911.6</ele>
        <time>2019-12-30T12:24:39Z</time>
      </trkpt>
      <trkpt lat="43.81522" lon="7.08586">
        <ele>912.1</ele>
        <time>2019-12-30T12:24:40Z</time>
      </trkpt>
      <trkpt lat="43.81523" lon="7.08581">
        <ele>912.4</ele>
        <time>2019-12-30T12:24:41Z</time>
      </trkpt>
      <trkpt lat="43.81523" lon="7.08575">
        <ele>912.5</ele>
        <time>2019-12-30T12:24:42Z</time>
      </trkpt>
      <trkpt lat="43.81524" lon="7.08568">
        <ele>912.5</ele>
        <time>2019-12-30T12:24:43Z</time>
      </trkpt>
      <trkpt lat="43.81524" lon="7.08561">
        <ele>912.5</ele>
        <time>2019-12-30T12:24:44Z</time>
      </trkpt>
      <trkpt lat="43.81525" lon="7.08555">
        <ele>912.4</ele>
        <time>2019-12-30T12:24:45Z</time>
      </trkpt>
      <trkpt lat="43.81525" lon="7.08549">
        <ele>912.4</ele>
        <time>2019-12-30T12:24:46Z</time>
      </trkpt>
      <trkpt lat="43.81525" lon="7.08543">
        <ele>912.3</ele>
        <time>2019-12-30T12:24:47Z</time>
      </trkpt>
      <trkpt lat="43.81525" lon="7.08537">
        <ele>912.2</ele>
        <time>2019-12-30T12:24:48Z</time>
      </trkpt>
      <trkpt lat="43.81525" lon="7.08531">
        <ele>912.2</ele>
        <time>2019-12-30T12:24:49Z</time>
      </trkpt>
      <trkpt lat="43.81526" lon="7.08525">
        <ele>912.7</ele>
        <time>2019-12-30T12:24:50Z</time>
      </trkpt>
      <trkpt lat="43.81528" lon="7.08519">
        <ele>913.5</ele>
        <time>2019-12-30T12:24:51Z</time>
      </trkpt>
      <trkpt lat="43.81529" lon="7.08516">
        <ele>914.3</ele>
        <time>2019-12-30T12:24:52Z</time>
      </trkpt>
      <trkpt lat="43.81531" lon="7.08513">
        <ele>915</ele>
        <time>2019-12-30T12:24:53Z</time>
      </trkpt>
      <trkpt lat="43.81535" lon="7.0851">
        <ele>916.1</ele>
        <time>2019-12-30T12:24:54Z</time>
      </trkpt>
      <trkpt lat="43.81539" lon="7.08507">
        <ele>917.3</ele>
        <time>2019-12-30T12:24:55Z</time>
      </trkpt>
      <trkpt lat="43.81543" lon="7.08503">
        <ele>919</ele>
        <time>2019-12-30T12:24:56Z</time>
      </trkpt>
      <trkpt lat="43.81547" lon="7.08499">
        <ele>920.8</ele>
        <time>2019-12-30T12:24:57Z</time>
      </trkpt>
      <trkpt lat="43.81551" lon="7.08495">
        <ele>922</ele>
        <time>2019-12-30T12:24:58Z</time>
      </trkpt>
      <trkpt lat="43.81555" lon="7.08491">
        <ele>923.1</ele>
        <time>2019-12-30T12:24:59Z</time>
      </trkpt>
      <trkpt lat="43.81558" lon="7.08487">
        <ele>924</ele>
        <time>2019-12-30T12:25:00Z</time>
      </trkpt>
      <trkpt lat="43.81561" lon="7.08483">
        <ele>924.4</ele>
        <time>2019-12-30T12:25:01Z</time>
      </trkpt>
      <trkpt lat="43.81563" lon="7.08478">
        <ele>924.5</ele>
        <time>2019-12-30T12:25:02Z</time>
      </trkpt>
      <trkpt lat="43.81565" lon="7.08474">
        <ele>924.7</ele>
        <time>2019-12-30T12:25:03Z</time>
      </trkpt>
      <trkpt lat="43.81567" lon="7.08469">
        <ele>924.3</ele>
        <time>2019-12-30T12:25:04Z</time>
      </trkpt>
      <trkpt lat="43.81568" lon="7.08464">
        <ele>923.9</ele>
        <time>2019-12-30T12:25:05Z</time>
      </trkpt>
      <trkpt lat="43.8157" lon="7.08459">
        <ele>923.7</ele>
        <time>2019-12-30T12:25:06Z</time>
      </trkpt>
      <trkpt lat="43.8157" lon="7.08454">
        <ele>923.6</ele>
        <time>2019-12-30T12:25:07Z</time>
      </trkpt>
      <trkpt lat="43.81569" lon="7.08448">
        <ele>923.7</ele>
        <time>2019-12-30T12:25:08Z</time>
      </trkpt>
      <trkpt lat="43.81568" lon="7.08443">
        <ele>923.9</ele>
        <time>2019-12-30T12:25:09Z</time>
      </trkpt>
      <trkpt lat="43.81567" lon="7.08437">
        <ele>924.1</ele>
        <time>2019-12-30T12:25:10Z</time>
      </trkpt>
      <trkpt lat="43.81566" lon="7.08432">
        <ele>924.2</ele>
        <time>2019-12-30T12:25:11Z</time>
      </trkpt>
      <trkpt lat="43.81565" lon="7.08427">
        <ele>924.6</ele>
        <time>2019-12-30T12:25:12Z</time>
      </trkpt>
      <trkpt lat="43.81565" lon="7.08423">
        <ele>925.2</ele>
        <time>2019-12-30T12:25:13Z</time>
      </trkpt>
      <trkpt lat="43.81564" lon="7.08418">
        <ele>925.4</ele>
        <time>2019-12-30T12:25:14Z</time>
      </trkpt>
      <trkpt lat="43.81564" lon="7.08414">
        <ele>925.4</ele>
        <time>2019-12-30T12:25:15Z</time>
      </trkpt>
      <trkpt lat="43.81564" lon="7.0841">
        <ele>925.4</ele>
        <time>2019-12-30T12:25:16Z</time>
      </trkpt>
      <trkpt lat="43.81564" lon="7.08406">
        <ele>925.4</ele>
        <time>2019-12-30T12:25:17Z</time>
      </trkpt>
      <trkpt lat="43.81564" lon="7.08402">
        <ele>925.4</ele>
        <time>2019-12-30T12:25:18Z</time>
      </trkpt>
      <trkpt lat="43.81564" lon="7.08399">
        <ele>925.4</ele>
        <time>2019-12-30T12:25:19Z</time>
      </trkpt>
      <trkpt lat="43.81564" lon="7.08395">
        <ele>925.3</ele>
        <time>2019-12-30T12:25:20Z</time>
      </trkpt>
      <trkpt lat="43.81564" lon="7.08392">
        <ele>925.3</ele>
        <time>2019-12-30T12:25:21Z</time>
      </trkpt>
      <trkpt lat="43.81564" lon="7.08388">
        <ele>925.3</ele>
        <time>2019-12-30T12:25:22Z</time>
      </trkpt>
      <trkpt lat="43.81563" lon="7.08384">
        <ele>925.4</ele>
        <time>2019-12-30T12:25:23Z</time>
      </trkpt>
      <trkpt lat="43.81562" lon="7.0838">
        <ele>925.6</ele>
        <time>2019-12-30T12:25:24Z</time>
      </trkpt>
      <trkpt lat="43.81562" lon="7.08375">
        <ele>926.1</ele>
        <time>2019-12-30T12:25:25Z</time>
      </trkpt>
      <trkpt lat="43.81561" lon="7.08372">
        <ele>926.6</ele>
        <time>2019-12-30T12:25:26Z</time>
      </trkpt>
      <trkpt lat="43.81562" lon="7.08368">
        <ele>926.9</ele>
        <time>2019-12-30T12:25:27Z</time>
      </trkpt>
      <trkpt lat="43.81562" lon="7.08364">
        <ele>927.1</ele>
        <time>2019-12-30T12:25:28Z</time>
      </trkpt>
      <trkpt lat="43.81562" lon="7.0836">
        <ele>927.2</ele>
        <time>2019-12-30T12:25:29Z</time>
      </trkpt>
      <trkpt lat="43.81563" lon="7.08356">
        <ele>927.5</ele>
        <time>2019-12-30T12:25:30Z</time>
      </trkpt>
      <trkpt lat="43.81563" lon="7.08353">
        <ele>928.1</ele>
        <time>2019-12-30T12:25:31Z</time>
      </trkpt>
      <trkpt lat="43.81564" lon="7.0835">
        <ele>928.6</ele>
        <time>2019-12-30T12:25:32Z</time>
      </trkpt>
      <trkpt lat="43.81565" lon="7.08346">
        <ele>929.1</ele>
        <time>2019-12-30T12:25:33Z</time>
      </trkpt>
      <trkpt lat="43.81565" lon="7.08342">
        <ele>929.4</ele>
        <time>2019-12-30T12:25:34Z</time>
      </trkpt>
      <trkpt lat="43.81565" lon="7.08337">
        <ele>929.8</ele>
        <time>2019-12-30T12:25:35Z</time>
      </trkpt>
      <trkpt lat="43.81565" lon="7.08333">
        <ele>930</ele>
        <time>2019-12-30T12:25:36Z</time>
      </trkpt>
      <trkpt lat="43.81565" lon="7.0833">
        <ele>930.2</ele>
        <time>2019-12-30T12:25:37Z</time>
      </trkpt>
      <trkpt lat="43.81565" lon="7.08327">
        <ele>930.4</ele>
        <time>2019-12-30T12:25:38Z</time>
      </trkpt>
      <trkpt lat="43.81565" lon="7.08323">
        <ele>930.4</ele>
        <time>2019-12-30T12:25:39Z</time>
      </trkpt>
      <trkpt lat="43.81565" lon="7.08319">
        <ele>930.3</ele>
        <time>2019-12-30T12:25:40Z</time>
      </trkpt>
      <trkpt lat="43.81564" lon="7.08315">
        <ele>930.1</ele>
        <time>2019-12-30T12:25:41Z</time>
      </trkpt>
      <trkpt lat="43.81563" lon="7.08311">
        <ele>930</ele>
        <time>2019-12-30T12:25:42Z</time>
      </trkpt>
      <trkpt lat="43.81562" lon="7.08307">
        <ele>929.9</ele>
        <time>2019-12-30T12:25:43Z</time>
      </trkpt>
      <trkpt lat="43.81561" lon="7.08304">
        <ele>929.8</ele>
        <time>2019-12-30T12:25:44Z</time>
      </trkpt>
      <trkpt lat="43.8156" lon="7.083">
        <ele>929.7</ele>
        <time>2019-12-30T12:25:45Z</time>
      </trkpt>
      <trkpt lat="43.81559" lon="7.08296">
        <ele>929.5</ele>
        <time>2019-12-30T12:25:46Z</time>
      </trkpt>
      <trkpt lat="43.81557" lon="7.08291">
        <ele>929.3</ele>
        <time>2019-12-30T12:25:47Z</time>
      </trkpt>
      <trkpt lat="43.81555" lon="7.08288">
        <ele>929.1</ele>
        <time>2019-12-30T12:25:48Z</time>
      </trkpt>
      <trkpt lat="43.81553" lon="7.08284">
        <ele>929</ele>
        <time>2019-12-30T12:25:49Z</time>
      </trkpt>
      <trkpt lat="43.81552" lon="7.0828">
        <ele>928.8</ele>
        <time>2019-12-30T12:25:50Z</time>
      </trkpt>
      <trkpt lat="43.81551" lon="7.08276">
        <ele>928.7</ele>
        <time>2019-12-30T12:25:51Z</time>
      </trkpt>
      <trkpt lat="43.81549" lon="7.08272">
        <ele>929.1</ele>
        <time>2019-12-30T12:25:52Z</time>
      </trkpt>
      <trkpt lat="43.81549" lon="7.08267">
        <ele>929.6</ele>
        <time>2019-12-30T12:25:53Z</time>
      </trkpt>
      <trkpt lat="43.81548" lon="7.08262">
        <ele>929.9</ele>
        <time>2019-12-30T12:25:54Z</time>
      </trkpt>
      <trkpt lat="43.81547" lon="7.08257">
        <ele>930</ele>
        <time>2019-12-30T12:25:55Z</time>
      </trkpt>
      <trkpt lat="43.81547" lon="7.08252">
        <ele>930.2</ele>
        <time>2019-12-30T12:25:56Z</time>
      </trkpt>
      <trkpt lat="43.81547" lon="7.08248">
        <ele>930.3</ele>
        <time>2019-12-30T12:25:57Z</time>
      </trkpt>
      <trkpt lat="43.81547" lon="7.08244">
        <ele>930.5</ele>
        <time>2019-12-30T12:25:58Z</time>
      </trkpt>
      <trkpt lat="43.81548" lon="7.0824">
        <ele>930.8</ele>
        <time>2019-12-30T12:25:59Z</time>
      </trkpt>
      <trkpt lat="43.81549" lon="7.08236">
        <ele>931.1</ele>
        <time>2019-12-30T12:26:00Z</time>
      </trkpt>
      <trkpt lat="43.8155" lon="7.08232">
        <ele>931.5</ele>
        <time>2019-12-30T12:26:01Z</time>
      </trkpt>
      <trkpt lat="43.81552" lon="7.08225">
        <ele>931.7</ele>
        <time>2019-12-30T12:26:02Z</time>
      </trkpt>
      <trkpt lat="43.81553" lon="7.08221">
        <ele>931.8</ele>
        <time>2019-12-30T12:26:03Z</time>
      </trkpt>
      <trkpt lat="43.81553" lon="7.08218">
        <ele>932.1</ele>
        <time>2019-12-30T12:26:04Z</time>
      </trkpt>
      <trkpt lat="43.81554" lon="7.08215">
        <ele>932.4</ele>
        <time>2019-12-30T12:26:05Z</time>
      </trkpt>
      <trkpt lat="43.81555" lon="7.0821">
        <ele>932.7</ele>
        <time>2019-12-30T12:26:06Z</time>
      </trkpt>
      <trkpt lat="43.81556" lon="7.08205">
        <ele>932.8</ele>
        <time>2019-12-30T12:26:07Z</time>
      </trkpt>
      <trkpt lat="43.81557" lon="7.082">
        <ele>932.9</ele>
        <time>2019-12-30T12:26:08Z</time>
      </trkpt>
      <trkpt lat="43.81557" lon="7.08195">
        <ele>933.3</ele>
        <time>2019-12-30T12:26:09Z</time>
      </trkpt>
      <trkpt lat="43.81558" lon="7.08189">
        <ele>933.8</ele>
        <time>2019-12-30T12:26:10Z</time>
      </trkpt>
      <trkpt lat="43.81558" lon="7.08183">
        <ele>933.6</ele>
        <time>2019-12-30T12:26:11Z</time>
      </trkpt>
      <trkpt lat="43.81558" lon="7.08177">
        <ele>933.4</ele>
        <time>2019-12-30T12:26:12Z</time>
      </trkpt>
      <trkpt lat="43.81558" lon="7.08172">
        <ele>933.5</ele>
        <time>2019-12-30T12:26:13Z</time>
      </trkpt>
      <trkpt lat="43.81558" lon="7.08167">
        <ele>933.6</ele>
        <time>2019-12-30T12:26:14Z</time>
      </trkpt>
      <trkpt lat="43.81557" lon="7.08163">
        <ele>933.7</ele>
        <time>2019-12-30T12:26:15Z</time>
      </trkpt>
      <trkpt lat="43.81557" lon="7.08158">
        <ele>933.8</ele>
        <time>2019-12-30T12:26:16Z</time>
      </trkpt>
      <trkpt lat="43.81557" lon="7.08153">
        <ele>933.9</ele>
        <time>2019-12-30T12:26:17Z</time>
      </trkpt>
      <trkpt lat="43.81558" lon="7.08148">
        <ele>934</ele>
        <time>2019-12-30T12:26:18Z</time>
      </trkpt>
      <trkpt lat="43.81558" lon="7.08141">
        <ele>934.3</ele>
        <time>2019-12-30T12:26:19Z</time>
      </trkpt>
      <trkpt lat="43.81559" lon="7.08134">
        <ele>935</ele>
        <time>2019-12-30T12:26:20Z</time>
      </trkpt>
      <trkpt lat="43.8156" lon="7.08129">
        <ele>935.5</ele>
        <time>2019-12-30T12:26:21Z</time>
      </trkpt>
      <trkpt lat="43.81561" lon="7.08124">
        <ele>935.9</ele>
        <time>2019-12-30T12:26:22Z</time>
      </trkpt>
      <trkpt lat="43.81563" lon="7.08119">
        <ele>936.3</ele>
        <time>2019-12-30T12:26:23Z</time>
      </trkpt>
      <trkpt lat="43.81564" lon="7.08115">
        <ele>936.7</ele>
        <time>2019-12-30T12:26:24Z</time>
      </trkpt>
      <trkpt lat="43.81566" lon="7.0811">
        <ele>937</ele>
        <time>2019-12-30T12:26:25Z</time>
      </trkpt>
      <trkpt lat="43.81567" lon="7.08106">
        <ele>937.3</ele>
        <time>2019-12-30T12:26:26Z</time>
      </trkpt>
      <trkpt lat="43.81568" lon="7.08102">
        <ele>937.5</ele>
        <time>2019-12-30T12:26:27Z</time>
      </trkpt>
      <trkpt lat="43.8157" lon="7.08098">
        <ele>937.7</ele>
        <time>2019-12-30T12:26:28Z</time>
      </trkpt>
      <trkpt lat="43.8157" lon="7.08093">
        <ele>937.9</ele>
        <time>2019-12-30T12:26:29Z</time>
      </trkpt>
      <trkpt lat="43.81571" lon="7.08087">
        <ele>938.1</ele>
        <time>2019-12-30T12:26:30Z</time>
      </trkpt>
      <trkpt lat="43.81571" lon="7.08081">
        <ele>937.9</ele>
        <time>2019-12-30T12:26:31Z</time>
      </trkpt>
      <trkpt lat="43.81571" lon="7.08076">
        <ele>937.6</ele>
        <time>2019-12-30T12:26:32Z</time>
      </trkpt>
      <trkpt lat="43.81572" lon="7.0807">
        <ele>937.4</ele>
        <time>2019-12-30T12:26:33Z</time>
      </trkpt>
      <trkpt lat="43.81572" lon="7.08064">
        <ele>937.2</ele>
        <time>2019-12-30T12:26:34Z</time>
      </trkpt>
      <trkpt lat="43.81572" lon="7.08058">
        <ele>936.9</ele>
        <time>2019-12-30T12:26:35Z</time>
      </trkpt>
      <trkpt lat="43.81573" lon="7.08052">
        <ele>936.7</ele>
        <time>2019-12-30T12:26:36Z</time>
      </trkpt>
      <trkpt lat="43.81573" lon="7.08046">
        <ele>936.6</ele>
        <time>2019-12-30T12:26:37Z</time>
      </trkpt>
      <trkpt lat="43.81572" lon="7.08041">
        <ele>936.5</ele>
        <time>2019-12-30T12:26:38Z</time>
      </trkpt>
      <trkpt lat="43.81572" lon="7.08036">
        <ele>936.5</ele>
        <time>2019-12-30T12:26:39Z</time>
      </trkpt>
      <trkpt lat="43.81571" lon="7.08031">
        <ele>936.4</ele>
        <time>2019-12-30T12:26:40Z</time>
      </trkpt>
      <trkpt lat="43.8157" lon="7.08025">
        <ele>936.2</ele>
        <time>2019-12-30T12:26:41Z</time>
      </trkpt>
      <trkpt lat="43.81569" lon="7.0802">
        <ele>935.9</ele>
        <time>2019-12-30T12:26:42Z</time>
      </trkpt>
      <trkpt lat="43.81567" lon="7.08015">
        <ele>935.3</ele>
        <time>2019-12-30T12:26:43Z</time>
      </trkpt>
      <trkpt lat="43.81566" lon="7.0801">
        <ele>934.5</ele>
        <time>2019-12-30T12:26:44Z</time>
      </trkpt>
      <trkpt lat="43.81563" lon="7.08004">
        <ele>933.6</ele>
        <time>2019-12-30T12:26:45Z</time>
      </trkpt>
      <trkpt lat="43.8156" lon="7.07998">
        <ele>932.7</ele>
        <time>2019-12-30T12:26:46Z</time>
      </trkpt>
      <trkpt lat="43.81557" lon="7.07993">
        <ele>932.4</ele>
        <time>2019-12-30T12:26:47Z</time>
      </trkpt>
      <trkpt lat="43.81554" lon="7.07987">
        <ele>932</ele>
        <time>2019-12-30T12:26:48Z</time>
      </trkpt>
      <trkpt lat="43.81552" lon="7.07982">
        <ele>931.3</ele>
        <time>2019-12-30T12:26:49Z</time>
      </trkpt>
      <trkpt lat="43.81549" lon="7.07976">
        <ele>930.9</ele>
        <time>2019-12-30T12:26:50Z</time>
      </trkpt>
      <trkpt lat="43.81547" lon="7.07971">
        <ele>930.6</ele>
        <time>2019-12-30T12:26:51Z</time>
      </trkpt>
      <trkpt lat="43.81544" lon="7.07966">
        <ele>931</ele>
        <time>2019-12-30T12:26:52Z</time>
      </trkpt>
      <trkpt lat="43.81545" lon="7.07961">
        <ele>931.6</ele>
        <time>2019-12-30T12:26:53Z</time>
      </trkpt>
      <trkpt lat="43.81546" lon="7.07957">
        <ele>932.1</ele>
        <time>2019-12-30T12:26:54Z</time>
      </trkpt>
      <trkpt lat="43.81548" lon="7.07953">
        <ele>932.5</ele>
        <time>2019-12-30T12:26:55Z</time>
      </trkpt>
      <trkpt lat="43.8155" lon="7.0795">
        <ele>932.9</ele>
        <time>2019-12-30T12:26:56Z</time>
      </trkpt>
      <trkpt lat="43.81552" lon="7.07946">
        <ele>933.2</ele>
        <time>2019-12-30T12:26:57Z</time>
      </trkpt>
      <trkpt lat="43.81553" lon="7.07942">
        <ele>933.5</ele>
        <time>2019-12-30T12:26:58Z</time>
      </trkpt>
      <trkpt lat="43.81555" lon="7.07938">
        <ele>933.9</ele>
        <time>2019-12-30T12:26:59Z</time>
      </trkpt>
      <trkpt lat="43.81556" lon="7.07935">
        <ele>934.2</ele>
        <time>2019-12-30T12:27:00Z</time>
      </trkpt>
      <trkpt lat="43.81558" lon="7.07932">
        <ele>934.2</ele>
        <time>2019-12-30T12:27:01Z</time>
      </trkpt>
      <trkpt lat="43.81559" lon="7.07929">
        <ele>934.2</ele>
        <time>2019-12-30T12:27:02Z</time>
      </trkpt>
      <trkpt lat="43.81561" lon="7.07926">
        <ele>934.4</ele>
        <time>2019-12-30T12:27:03Z</time>
      </trkpt>
      <trkpt lat="43.81562" lon="7.07922">
        <ele>934.8</ele>
        <time>2019-12-30T12:27:04Z</time>
      </trkpt>
      <trkpt lat="43.81564" lon="7.07918">
        <ele>935.2</ele>
        <time>2019-12-30T12:27:05Z</time>
      </trkpt>
      <trkpt lat="43.81566" lon="7.07915">
        <ele>935.9</ele>
        <time>2019-12-30T12:27:06Z</time>
      </trkpt>
      <trkpt lat="43.81568" lon="7.07911">
        <ele>936.5</ele>
        <time>2019-12-30T12:27:07Z</time>
      </trkpt>
      <trkpt lat="43.8157" lon="7.07908">
        <ele>937.1</ele>
        <time>2019-12-30T12:27:08Z</time>
      </trkpt>
      <trkpt lat="43.81572" lon="7.07904">
        <ele>937.5</ele>
        <time>2019-12-30T12:27:09Z</time>
      </trkpt>
      <trkpt lat="43.81574" lon="7.079">
        <ele>937.8</ele>
        <time>2019-12-30T12:27:10Z</time>
      </trkpt>
      <trkpt lat="43.81575" lon="7.07897">
        <ele>938.3</ele>
        <time>2019-12-30T12:27:11Z</time>
      </trkpt>
      <trkpt lat="43.81577" lon="7.07893">
        <ele>938.9</ele>
        <time>2019-12-30T12:27:12Z</time>
      </trkpt>
      <trkpt lat="43.81578" lon="7.0789">
        <ele>939.6</ele>
        <time>2019-12-30T12:27:13Z</time>
      </trkpt>
      <trkpt lat="43.8158" lon="7.07886">
        <ele>940.1</ele>
        <time>2019-12-30T12:27:14Z</time>
      </trkpt>
      <trkpt lat="43.81581" lon="7.07882">
        <ele>940.5</ele>
        <time>2019-12-30T12:27:15Z</time>
      </trkpt>
      <trkpt lat="43.81582" lon="7.07878">
        <ele>940.8</ele>
        <time>2019-12-30T12:27:16Z</time>
      </trkpt>
      <trkpt lat="43.81582" lon="7.07874">
        <ele>941.3</ele>
        <time>2019-12-30T12:27:17Z</time>
      </trkpt>
      <trkpt lat="43.81583" lon="7.07871">
        <ele>941.8</ele>
        <time>2019-12-30T12:27:18Z</time>
      </trkpt>
      <trkpt lat="43.81583" lon="7.07867">
        <ele>942.2</ele>
        <time>2019-12-30T12:27:19Z</time>
      </trkpt>
      <trkpt lat="43.81584" lon="7.07864">
        <ele>942.6</ele>
        <time>2019-12-30T12:27:20Z</time>
      </trkpt>
      <trkpt lat="43.81585" lon="7.07861">
        <ele>943.1</ele>
        <time>2019-12-30T12:27:21Z</time>
      </trkpt>
      <trkpt lat="43.81586" lon="7.07857">
        <ele>943.6</ele>
        <time>2019-12-30T12:27:22Z</time>
      </trkpt>
      <trkpt lat="43.81587" lon="7.07853">
        <ele>944.1</ele>
        <time>2019-12-30T12:27:23Z</time>
      </trkpt>
      <trkpt lat="43.81588" lon="7.0785">
        <ele>944.4</ele>
        <time>2019-12-30T12:27:24Z</time>
      </trkpt>
      <trkpt lat="43.81589" lon="7.07847">
        <ele>944.7</ele>
        <time>2019-12-30T12:27:25Z</time>
      </trkpt>
      <trkpt lat="43.8159" lon="7.07844">
        <ele>945.1</ele>
        <time>2019-12-30T12:27:26Z</time>
      </trkpt>
      <trkpt lat="43.81591" lon="7.0784">
        <ele>945.5</ele>
        <time>2019-12-30T12:27:27Z</time>
      </trkpt>
      <trkpt lat="43.81592" lon="7.07837">
        <ele>945.8</ele>
        <time>2019-12-30T12:27:28Z</time>
      </trkpt>
      <trkpt lat="43.81593" lon="7.07834">
        <ele>946.2</ele>
        <time>2019-12-30T12:27:29Z</time>
      </trkpt>
      <trkpt lat="43.81593" lon="7.0783">
        <ele>946.6</ele>
        <time>2019-12-30T12:27:30Z</time>
      </trkpt>
      <trkpt lat="43.81594" lon="7.07826">
        <ele>947.1</ele>
        <time>2019-12-30T12:27:31Z</time>
      </trkpt>
      <trkpt lat="43.81595" lon="7.07822">
        <ele>947.6</ele>
        <time>2019-12-30T12:27:32Z</time>
      </trkpt>
      <trkpt lat="43.81596" lon="7.07818">
        <ele>948</ele>
        <time>2019-12-30T12:27:33Z</time>
      </trkpt>
      <trkpt lat="43.81597" lon="7.07815">
        <ele>948.3</ele>
        <time>2019-12-30T12:27:34Z</time>
      </trkpt>
      <trkpt lat="43.81598" lon="7.07812">
        <ele>948.6</ele>
        <time>2019-12-30T12:27:35Z</time>
      </trkpt>
      <trkpt lat="43.81599" lon="7.07809">
        <ele>948.9</ele>
        <time>2019-12-30T12:27:36Z</time>
      </trkpt>
      <trkpt lat="43.816" lon="7.07806">
        <ele>949.2</ele>
        <time>2019-12-30T12:27:37Z</time>
      </trkpt>
      <trkpt lat="43.81601" lon="7.07804">
        <ele>949.6</ele>
        <time>2019-12-30T12:27:38Z</time>
      </trkpt>
      <trkpt lat="43.81602" lon="7.07801">
        <ele>949.9</ele>
        <time>2019-12-30T12:27:39Z</time>
      </trkpt>
      <trkpt lat="43.81603" lon="7.07799">
        <ele>950.2</ele>
        <time>2019-12-30T12:27:40Z</time>
      </trkpt>
      <trkpt lat="43.81605" lon="7.07797">
        <ele>950.5</ele>
        <time>2019-12-30T12:27:41Z</time>
      </trkpt>
      <trkpt lat="43.81606" lon="7.07794">
        <ele>950.9</ele>
        <time>2019-12-30T12:27:42Z</time>
      </trkpt>
      <trkpt lat="43.81607" lon="7.0779">
        <ele>951.3</ele>
        <time>2019-12-30T12:27:43Z</time>
      </trkpt>
      <trkpt lat="43.81608" lon="7.07787">
        <ele>951.7</ele>
        <time>2019-12-30T12:27:44Z</time>
      </trkpt>
      <trkpt lat="43.81609" lon="7.07783">
        <ele>952.1</ele>
        <time>2019-12-30T12:27:45Z</time>
      </trkpt>
      <trkpt lat="43.8161" lon="7.07779">
        <ele>952.4</ele>
        <time>2019-12-30T12:27:46Z</time>
      </trkpt>
      <trkpt lat="43.81611" lon="7.07776">
        <ele>952.7</ele>
        <time>2019-12-30T12:27:47Z</time>
      </trkpt>
      <trkpt lat="43.81612" lon="7.07774">
        <ele>953</ele>
        <time>2019-12-30T12:27:48Z</time>
      </trkpt>
      <trkpt lat="43.81613" lon="7.07771">
        <ele>953.3</ele>
        <time>2019-12-30T12:27:49Z</time>
      </trkpt>
      <trkpt lat="43.81614" lon="7.07769">
        <ele>953.6</ele>
        <time>2019-12-30T12:27:50Z</time>
      </trkpt>
      <trkpt lat="43.81615" lon="7.07767">
        <ele>953.9</ele>
        <time>2019-12-30T12:27:51Z</time>
      </trkpt>
      <trkpt lat="43.81616" lon="7.07764">
        <ele>954.3</ele>
        <time>2019-12-30T12:27:52Z</time>
      </trkpt>
      <trkpt lat="43.81617" lon="7.07761">
        <ele>954.8</ele>
        <time>2019-12-30T12:27:53Z</time>
      </trkpt>
      <trkpt lat="43.81618" lon="7.07757">
        <ele>955.4</ele>
        <time>2019-12-30T12:27:54Z</time>
      </trkpt>
      <trkpt lat="43.81618" lon="7.07753">
        <ele>956.1</ele>
        <time>2019-12-30T12:27:55Z</time>
      </trkpt>
      <trkpt lat="43.81619" lon="7.07748">
        <ele>956.4</ele>
        <time>2019-12-30T12:27:56Z</time>
      </trkpt>
      <trkpt lat="43.81619" lon="7.07743">
        <ele>956.7</ele>
        <time>2019-12-30T12:27:57Z</time>
      </trkpt>
      <trkpt lat="43.81619" lon="7.07738">
        <ele>957</ele>
        <time>2019-12-30T12:27:58Z</time>
      </trkpt>
      <trkpt lat="43.8162" lon="7.07734">
        <ele>957.5</ele>
        <time>2019-12-30T12:27:59Z</time>
      </trkpt>
      <trkpt lat="43.81621" lon="7.0773">
        <ele>958</ele>
        <time>2019-12-30T12:28:00Z</time>
      </trkpt>
      <trkpt lat="43.81622" lon="7.07727">
        <ele>958.3</ele>
        <time>2019-12-30T12:28:01Z</time>
      </trkpt>
      <trkpt lat="43.81622" lon="7.07723">
        <ele>958.4</ele>
        <time>2019-12-30T12:28:02Z</time>
      </trkpt>
      <trkpt lat="43.81623" lon="7.0772">
        <ele>958.6</ele>
        <time>2019-12-30T12:28:03Z</time>
      </trkpt>
      <trkpt lat="43.81624" lon="7.07716">
        <ele>958.8</ele>
        <time>2019-12-30T12:28:04Z</time>
      </trkpt>
      <trkpt lat="43.81625" lon="7.07713">
        <ele>958.9</ele>
        <time>2019-12-30T12:28:05Z</time>
      </trkpt>
      <trkpt lat="43.81625" lon="7.0771">
        <ele>959</ele>
        <time>2019-12-30T12:28:06Z</time>
      </trkpt>
      <trkpt lat="43.81626" lon="7.07706">
        <ele>959.1</ele>
        <time>2019-12-30T12:28:07Z</time>
      </trkpt>
      <trkpt lat="43.81626" lon="7.07703">
        <ele>959.2</ele>
        <time>2019-12-30T12:28:08Z</time>
      </trkpt>
      <trkpt lat="43.81626" lon="7.07699">
        <ele>959.3</ele>
        <time>2019-12-30T12:28:09Z</time>
      </trkpt>
      <trkpt lat="43.81626" lon="7.07696">
        <ele>959.7</ele>
        <time>2019-12-30T12:28:10Z</time>
      </trkpt>
      <trkpt lat="43.81626" lon="7.07693">
        <ele>960</ele>
        <time>2019-12-30T12:28:11Z</time>
      </trkpt>
      <trkpt lat="43.81626" lon="7.0769">
        <ele>960.2</ele>
        <time>2019-12-30T12:28:12Z</time>
      </trkpt>
      <trkpt lat="43.81625" lon="7.07688">
        <ele>960.3</ele>
        <time>2019-12-30T12:28:13Z</time>
      </trkpt>
      <trkpt lat="43.81625" lon="7.07685">
        <ele>960.2</ele>
        <time>2019-12-30T12:28:14Z</time>
      </trkpt>
      <trkpt lat="43.81624" lon="7.07683">
        <ele>960.1</ele>
        <time>2019-12-30T12:28:15Z</time>
      </trkpt>
      <trkpt lat="43.81623" lon="7.07679">
        <ele>960</ele>
        <time>2019-12-30T12:28:16Z</time>
      </trkpt>
      <trkpt lat="43.81622" lon="7.07676">
        <ele>959.8</ele>
        <time>2019-12-30T12:28:17Z</time>
      </trkpt>
      <trkpt lat="43.8162" lon="7.07672">
        <ele>959.6</ele>
        <time>2019-12-30T12:28:18Z</time>
      </trkpt>
      <trkpt lat="43.81619" lon="7.07668">
        <ele>959.4</ele>
        <time>2019-12-30T12:28:19Z</time>
      </trkpt>
      <trkpt lat="43.81618" lon="7.07664">
        <ele>959.2</ele>
        <time>2019-12-30T12:28:20Z</time>
      </trkpt>
      <trkpt lat="43.81618" lon="7.0766">
        <ele>958.9</ele>
        <time>2019-12-30T12:28:21Z</time>
      </trkpt>
      <trkpt lat="43.81618" lon="7.07657">
        <ele>958.8</ele>
        <time>2019-12-30T12:28:22Z</time>
      </trkpt>
      <trkpt lat="43.81618" lon="7.07654">
        <ele>958.8</ele>
        <time>2019-12-30T12:28:23Z</time>
      </trkpt>
      <trkpt lat="43.81619" lon="7.07651">
        <ele>958.8</ele>
        <time>2019-12-30T12:28:24Z</time>
      </trkpt>
      <trkpt lat="43.81619" lon="7.07648">
        <ele>958.8</ele>
        <time>2019-12-30T12:28:25Z</time>
      </trkpt>
      <trkpt lat="43.8162" lon="7.07645">
        <ele>958.8</ele>
        <time>2019-12-30T12:28:26Z</time>
      </trkpt>
      <trkpt lat="43.8162" lon="7.07642">
        <ele>958.7</ele>
        <time>2019-12-30T12:28:27Z</time>
      </trkpt>
      <trkpt lat="43.81621" lon="7.0764">
        <ele>958.7</ele>
        <time>2019-12-30T12:28:28Z</time>
      </trkpt>
      <trkpt lat="43.81622" lon="7.07637">
        <ele>958.7</ele>
        <time>2019-12-30T12:28:29Z</time>
      </trkpt>
      <trkpt lat="43.81623" lon="7.07633">
        <ele>958.7</ele>
        <time>2019-12-30T12:28:30Z</time>
      </trkpt>
      <trkpt lat="43.81623" lon="7.0763">
        <ele>958.7</ele>
        <time>2019-12-30T12:28:31Z</time>
      </trkpt>
      <trkpt lat="43.81624" lon="7.07628">
        <ele>958.7</ele>
        <time>2019-12-30T12:28:32Z</time>
      </trkpt>
      <trkpt lat="43.81625" lon="7.07625">
        <ele>958.7</ele>
        <time>2019-12-30T12:28:33Z</time>
      </trkpt>
      <trkpt lat="43.81625" lon="7.07622">
        <ele>958.7</ele>
        <time>2019-12-30T12:28:34Z</time>
      </trkpt>
      <trkpt lat="43.81625" lon="7.07618">
        <ele>958.7</ele>
        <time>2019-12-30T12:28:35Z</time>
      </trkpt>
      <trkpt lat="43.81624" lon="7.07613">
        <ele>958.7</ele>
        <time>2019-12-30T12:28:36Z</time>
      </trkpt>
      <trkpt lat="43.81623" lon="7.07609">
        <ele>958.7</ele>
        <time>2019-12-30T12:28:37Z</time>
      </trkpt>
      <trkpt lat="43.81622" lon="7.07605">
        <ele>958.7</ele>
        <time>2019-12-30T12:28:38Z</time>
      </trkpt>
      <trkpt lat="43.81621" lon="7.07602">
        <ele>958.6</ele>
        <time>2019-12-30T12:28:39Z</time>
      </trkpt>
      <trkpt lat="43.81621" lon="7.07599">
        <ele>958.6</ele>
        <time>2019-12-30T12:28:40Z</time>
      </trkpt>
      <trkpt lat="43.8162" lon="7.07597">
        <ele>958.6</ele>
        <time>2019-12-30T12:28:41Z</time>
      </trkpt>
      <trkpt lat="43.8162" lon="7.07594">
        <ele>958.5</ele>
        <time>2019-12-30T12:28:42Z</time>
      </trkpt>
      <trkpt lat="43.8162" lon="7.07591">
        <ele>958.5</ele>
        <time>2019-12-30T12:28:43Z</time>
      </trkpt>
      <trkpt lat="43.8162" lon="7.07589">
        <ele>958.4</ele>
        <time>2019-12-30T12:28:44Z</time>
      </trkpt>
      <trkpt lat="43.8162" lon="7.07586">
        <ele>958.4</ele>
        <time>2019-12-30T12:28:45Z</time>
      </trkpt>
      <trkpt lat="43.8162" lon="7.07583">
        <ele>958.3</ele>
        <time>2019-12-30T12:28:46Z</time>
      </trkpt>
      <trkpt lat="43.81621" lon="7.07579">
        <ele>958.3</ele>
        <time>2019-12-30T12:28:47Z</time>
      </trkpt>
      <trkpt lat="43.81621" lon="7.07575">
        <ele>958.2</ele>
        <time>2019-12-30T12:28:48Z</time>
      </trkpt>
      <trkpt lat="43.81622" lon="7.07572">
        <ele>958.4</ele>
        <time>2019-12-30T12:28:49Z</time>
      </trkpt>
      <trkpt lat="43.81623" lon="7.07568">
        <ele>958.8</ele>
        <time>2019-12-30T12:28:50Z</time>
      </trkpt>
      <trkpt lat="43.81623" lon="7.07565">
        <ele>959.2</ele>
        <time>2019-12-30T12:28:51Z</time>
      </trkpt>
      <trkpt lat="43.81624" lon="7.07562">
        <ele>959.3</ele>
        <time>2019-12-30T12:28:52Z</time>
      </trkpt>
      <trkpt lat="43.81625" lon="7.07559">
        <ele>959.4</ele>
        <time>2019-12-30T12:28:53Z</time>
      </trkpt>
      <trkpt lat="43.81626" lon="7.07556">
        <ele>959.5</ele>
        <time>2019-12-30T12:28:54Z</time>
      </trkpt>
      <trkpt lat="43.81626" lon="7.07553">
        <ele>959.9</ele>
        <time>2019-12-30T12:28:55Z</time>
      </trkpt>
      <trkpt lat="43.81626" lon="7.07549">
        <ele>960.4</ele>
        <time>2019-12-30T12:28:56Z</time>
      </trkpt>
      <trkpt lat="43.81626" lon="7.07545">
        <ele>960.8</ele>
        <time>2019-12-30T12:28:57Z</time>
      </trkpt>
      <trkpt lat="43.81627" lon="7.07541">
        <ele>960.9</ele>
        <time>2019-12-30T12:28:58Z</time>
      </trkpt>
      <trkpt lat="43.81627" lon="7.07537">
        <ele>961.1</ele>
        <time>2019-12-30T12:28:59Z</time>
      </trkpt>
      <trkpt lat="43.81627" lon="7.07531">
        <ele>961.3</ele>
        <time>2019-12-30T12:29:00Z</time>
      </trkpt>
      <trkpt lat="43.81627" lon="7.07526">
        <ele>961.6</ele>
        <time>2019-12-30T12:29:01Z</time>
      </trkpt>
      <trkpt lat="43.81627" lon="7.07523">
        <ele>961.8</ele>
        <time>2019-12-30T12:29:02Z</time>
      </trkpt>
      <trkpt lat="43.81627" lon="7.0752">
        <ele>962.1</ele>
        <time>2019-12-30T12:29:03Z</time>
      </trkpt>
      <trkpt lat="43.81627" lon="7.07516">
        <ele>962.3</ele>
        <time>2019-12-30T12:29:04Z</time>
      </trkpt>
      <trkpt lat="43.81628" lon="7.07513">
        <ele>962.5</ele>
        <time>2019-12-30T12:29:05Z</time>
      </trkpt>
      <trkpt lat="43.81628" lon="7.0751">
        <ele>962.8</ele>
        <time>2019-12-30T12:29:06Z</time>
      </trkpt>
      <trkpt lat="43.81628" lon="7.07507">
        <ele>963</ele>
        <time>2019-12-30T12:29:07Z</time>
      </trkpt>
      <trkpt lat="43.81628" lon="7.07502">
        <ele>963.3</ele>
        <time>2019-12-30T12:29:08Z</time>
      </trkpt>
      <trkpt lat="43.81628" lon="7.07497">
        <ele>963.8</ele>
        <time>2019-12-30T12:29:09Z</time>
      </trkpt>
      <trkpt lat="43.81628" lon="7.07494">
        <ele>964.4</ele>
        <time>2019-12-30T12:29:10Z</time>
      </trkpt>
      <trkpt lat="43.81628" lon="7.0749">
        <ele>965.1</ele>
        <time>2019-12-30T12:29:11Z</time>
      </trkpt>
      <trkpt lat="43.81628" lon="7.07486">
        <ele>965.7</ele>
        <time>2019-12-30T12:29:12Z</time>
      </trkpt>
      <trkpt lat="43.81628" lon="7.07482">
        <ele>966.2</ele>
        <time>2019-12-30T12:29:13Z</time>
      </trkpt>
      <trkpt lat="43.81628" lon="7.07479">
        <ele>966.6</ele>
        <time>2019-12-30T12:29:14Z</time>
      </trkpt>
      <trkpt lat="43.81628" lon="7.07475">
        <ele>967</ele>
        <time>2019-12-30T12:29:15Z</time>
      </trkpt>
      <trkpt lat="43.81628" lon="7.07472">
        <ele>967.5</ele>
        <time>2019-12-30T12:29:16Z</time>
      </trkpt>
      <trkpt lat="43.81628" lon="7.07467">
        <ele>968.1</ele>
        <time>2019-12-30T12:29:17Z</time>
      </trkpt>
      <trkpt lat="43.81629" lon="7.07463">
        <ele>968.7</ele>
        <time>2019-12-30T12:29:18Z</time>
      </trkpt>
      <trkpt lat="43.81629" lon="7.07458">
        <ele>969.1</ele>
        <time>2019-12-30T12:29:19Z</time>
      </trkpt>
      <trkpt lat="43.81629" lon="7.07453">
        <ele>969.6</ele>
        <time>2019-12-30T12:29:20Z</time>
      </trkpt>
      <trkpt lat="43.8163" lon="7.07449">
        <ele>970.1</ele>
        <time>2019-12-30T12:29:21Z</time>
      </trkpt>
      <trkpt lat="43.8163" lon="7.07445">
        <ele>970.7</ele>
        <time>2019-12-30T12:29:22Z</time>
      </trkpt>
      <trkpt lat="43.81631" lon="7.07441">
        <ele>971.3</ele>
        <time>2019-12-30T12:29:23Z</time>
      </trkpt>
      <trkpt lat="43.81632" lon="7.07436">
        <ele>972.1</ele>
        <time>2019-12-30T12:29:24Z</time>
      </trkpt>
      <trkpt lat="43.81633" lon="7.07432">
        <ele>973</ele>
        <time>2019-12-30T12:29:25Z</time>
      </trkpt>
      <trkpt lat="43.81633" lon="7.07427">
        <ele>974</ele>
        <time>2019-12-30T12:29:26Z</time>
      </trkpt>
      <trkpt lat="43.81634" lon="7.07422">
        <ele>974.9</ele>
        <time>2019-12-30T12:29:27Z</time>
      </trkpt>
      <trkpt lat="43.81635" lon="7.07417">
        <ele>975.8</ele>
        <time>2019-12-30T12:29:28Z</time>
      </trkpt>
      <trkpt lat="43.81636" lon="7.07413">
        <ele>976.7</ele>
        <time>2019-12-30T12:29:29Z</time>
      </trkpt>
      <trkpt lat="43.81636" lon="7.07408">
        <ele>977.3</ele>
        <time>2019-12-30T12:29:30Z</time>
      </trkpt>
      <trkpt lat="43.81637" lon="7.07404">
        <ele>977.8</ele>
        <time>2019-12-30T12:29:31Z</time>
      </trkpt>
      <trkpt lat="43.81637" lon="7.07399">
        <ele>978.3</ele>
        <time>2019-12-30T12:29:32Z</time>
      </trkpt>
      <trkpt lat="43.81638" lon="7.07395">
        <ele>978.9</ele>
        <time>2019-12-30T12:29:33Z</time>
      </trkpt>
      <trkpt lat="43.81638" lon="7.07391">
        <ele>979.4</ele>
        <time>2019-12-30T12:29:34Z</time>
      </trkpt>
      <trkpt lat="43.81638" lon="7.07387">
        <ele>980</ele>
        <time>2019-12-30T12:29:35Z</time>
      </trkpt>
      <trkpt lat="43.81638" lon="7.07382">
        <ele>980.5</ele>
        <time>2019-12-30T12:29:36Z</time>
      </trkpt>
      <trkpt lat="43.81638" lon="7.07378">
        <ele>980.9</ele>
        <time>2019-12-30T12:29:37Z</time>
      </trkpt>
      <trkpt lat="43.81637" lon="7.07374">
        <ele>981.2</ele>
        <time>2019-12-30T12:29:38Z</time>
      </trkpt>
      <trkpt lat="43.81637" lon="7.07371">
        <ele>981.2</ele>
        <time>2019-12-30T12:29:39Z</time>
      </trkpt>
      <trkpt lat="43.81636" lon="7.07368">
        <ele>981.3</ele>
        <time>2019-12-30T12:29:40Z</time>
      </trkpt>
      <trkpt lat="43.81635" lon="7.07365">
        <ele>981.6</ele>
        <time>2019-12-30T12:29:41Z</time>
      </trkpt>
      <trkpt lat="43.81634" lon="7.07362">
        <ele>981.8</ele>
        <time>2019-12-30T12:29:42Z</time>
      </trkpt>
      <trkpt lat="43.81634" lon="7.07359">
        <ele>982.1</ele>
        <time>2019-12-30T12:29:43Z</time>
      </trkpt>
      <trkpt lat="43.81633" lon="7.07356">
        <ele>982.4</ele>
        <time>2019-12-30T12:29:44Z</time>
      </trkpt>
      <trkpt lat="43.81633" lon="7.07352">
        <ele>982.7</ele>
        <time>2019-12-30T12:29:45Z</time>
      </trkpt>
      <trkpt lat="43.81632" lon="7.07348">
        <ele>983</ele>
        <time>2019-12-30T12:29:46Z</time>
      </trkpt>
      <trkpt lat="43.81632" lon="7.07344">
        <ele>983.3</ele>
        <time>2019-12-30T12:29:47Z</time>
      </trkpt>
      <trkpt lat="43.81632" lon="7.07341">
        <ele>983.6</ele>
        <time>2019-12-30T12:29:48Z</time>
      </trkpt>
      <trkpt lat="43.81632" lon="7.07338">
        <ele>983.9</ele>
        <time>2019-12-30T12:29:49Z</time>
      </trkpt>
      <trkpt lat="43.81632" lon="7.07334">
        <ele>984.2</ele>
        <time>2019-12-30T12:29:50Z</time>
      </trkpt>
      <trkpt lat="43.81633" lon="7.07331">
        <ele>984.5</ele>
        <time>2019-12-30T12:29:51Z</time>
      </trkpt>
      <trkpt lat="43.81633" lon="7.07327">
        <ele>984.8</ele>
        <time>2019-12-30T12:29:52Z</time>
      </trkpt>
      <trkpt lat="43.81634" lon="7.07324">
        <ele>985.2</ele>
        <time>2019-12-30T12:29:53Z</time>
      </trkpt>
      <trkpt lat="43.81635" lon="7.0732">
        <ele>985.6</ele>
        <time>2019-12-30T12:29:54Z</time>
      </trkpt>
      <trkpt lat="43.81636" lon="7.07316">
        <ele>986</ele>
        <time>2019-12-30T12:29:55Z</time>
      </trkpt>
      <trkpt lat="43.81638" lon="7.07312">
        <ele>986.7</ele>
        <time>2019-12-30T12:29:56Z</time>
      </trkpt>
      <trkpt lat="43.81639" lon="7.07309">
        <ele>987.4</ele>
        <time>2019-12-30T12:29:57Z</time>
      </trkpt>
      <trkpt lat="43.81641" lon="7.07305">
        <ele>988.1</ele>
        <time>2019-12-30T12:29:58Z</time>
      </trkpt>
      <trkpt lat="43.81642" lon="7.07302">
        <ele>988.5</ele>
        <time>2019-12-30T12:29:59Z</time>
      </trkpt>
      <trkpt lat="43.81644" lon="7.07299">
        <ele>988.9</ele>
        <time>2019-12-30T12:30:00Z</time>
      </trkpt>
      <trkpt lat="43.81645" lon="7.07296">
        <ele>989.3</ele>
        <time>2019-12-30T12:30:01Z</time>
      </trkpt>
      <trkpt lat="43.81647" lon="7.07293">
        <ele>989.9</ele>
        <time>2019-12-30T12:30:02Z</time>
      </trkpt>
      <trkpt lat="43.81648" lon="7.07289">
        <ele>990.5</ele>
        <time>2019-12-30T12:30:03Z</time>
      </trkpt>
      <trkpt lat="43.81649" lon="7.07285">
        <ele>991.2</ele>
        <time>2019-12-30T12:30:04Z</time>
      </trkpt>
      <trkpt lat="43.8165" lon="7.07282">
        <ele>991.6</ele>
        <time>2019-12-30T12:30:05Z</time>
      </trkpt>
      <trkpt lat="43.81651" lon="7.07278">
        <ele>991.9</ele>
        <time>2019-12-30T12:30:06Z</time>
      </trkpt>
      <trkpt lat="43.81652" lon="7.07275">
        <ele>992.2</ele>
        <time>2019-12-30T12:30:07Z</time>
      </trkpt>
      <trkpt lat="43.81653" lon="7.07273">
        <ele>992.4</ele>
        <time>2019-12-30T12:30:08Z</time>
      </trkpt>
      <trkpt lat="43.81654" lon="7.0727">
        <ele>992.6</ele>
        <time>2019-12-30T12:30:09Z</time>
      </trkpt>
      <trkpt lat="43.81655" lon="7.07267">
        <ele>992.9</ele>
        <time>2019-12-30T12:30:10Z</time>
      </trkpt>
      <trkpt lat="43.81656" lon="7.07264">
        <ele>993.2</ele>
        <time>2019-12-30T12:30:11Z</time>
      </trkpt>
      <trkpt lat="43.81658" lon="7.07261">
        <ele>993.7</ele>
        <time>2019-12-30T12:30:12Z</time>
      </trkpt>
      <trkpt lat="43.81659" lon="7.07257">
        <ele>994.2</ele>
        <time>2019-12-30T12:30:13Z</time>
      </trkpt>
      <trkpt lat="43.8166" lon="7.07254">
        <ele>994.7</ele>
        <time>2019-12-30T12:30:14Z</time>
      </trkpt>
      <trkpt lat="43.81661" lon="7.07252">
        <ele>994.7</ele>
        <time>2019-12-30T12:30:15Z</time>
      </trkpt>
      <trkpt lat="43.81662" lon="7.07249">
        <ele>994.7</ele>
        <time>2019-12-30T12:30:16Z</time>
      </trkpt>
      <trkpt lat="43.81664" lon="7.07245">
        <ele>994.7</ele>
        <time>2019-12-30T12:30:17Z</time>
      </trkpt>
      <trkpt lat="43.81665" lon="7.07242">
        <ele>994.9</ele>
        <time>2019-12-30T12:30:18Z</time>
      </trkpt>
      <trkpt lat="43.81666" lon="7.07239">
        <ele>995.3</ele>
        <time>2019-12-30T12:30:19Z</time>
      </trkpt>
      <trkpt lat="43.81667" lon="7.07237">
        <ele>995.8</ele>
        <time>2019-12-30T12:30:20Z</time>
      </trkpt>
      <trkpt lat="43.81669" lon="7.07234">
        <ele>996.3</ele>
        <time>2019-12-30T12:30:21Z</time>
      </trkpt>
      <trkpt lat="43.8167" lon="7.07231">
        <ele>996.6</ele>
        <time>2019-12-30T12:30:22Z</time>
      </trkpt>
      <trkpt lat="43.81671" lon="7.07228">
        <ele>996.8</ele>
        <time>2019-12-30T12:30:23Z</time>
      </trkpt>
      <trkpt lat="43.81672" lon="7.07225">
        <ele>997.1</ele>
        <time>2019-12-30T12:30:24Z</time>
      </trkpt>
      <trkpt lat="43.81673" lon="7.07222">
        <ele>997.3</ele>
        <time>2019-12-30T12:30:25Z</time>
      </trkpt>
      <trkpt lat="43.81674" lon="7.07218">
        <ele>997.7</ele>
        <time>2019-12-30T12:30:26Z</time>
      </trkpt>
      <trkpt lat="43.81675" lon="7.07215">
        <ele>998.1</ele>
        <time>2019-12-30T12:30:27Z</time>
      </trkpt>
      <trkpt lat="43.81677" lon="7.07213">
        <ele>998.5</ele>
        <time>2019-12-30T12:30:28Z</time>
      </trkpt>
      <trkpt lat="43.81678" lon="7.0721">
        <ele>998.8</ele>
        <time>2019-12-30T12:30:29Z</time>
      </trkpt>
      <trkpt lat="43.81679" lon="7.07207">
        <ele>998.9</ele>
        <time>2019-12-30T12:30:30Z</time>
      </trkpt>
      <trkpt lat="43.81681" lon="7.07204">
        <ele>999</ele>
        <time>2019-12-30T12:30:31Z</time>
      </trkpt>
      <trkpt lat="43.81682" lon="7.07201">
        <ele>999.2</ele>
        <time>2019-12-30T12:30:32Z</time>
      </trkpt>
      <trkpt lat="43.81684" lon="7.07198">
        <ele>999.4</ele>
        <time>2019-12-30T12:30:33Z</time>
      </trkpt>
      <trkpt lat="43.81685" lon="7.07195">
        <ele>1000</ele>
        <time>2019-12-30T12:30:34Z</time>
      </trkpt>
      <trkpt lat="43.81686" lon="7.07192">
        <ele>999.8</ele>
        <time>2019-12-30T12:30:35Z</time>
      </trkpt>
      <trkpt lat="43.81688" lon="7.07189">
        <ele>1000.5</ele>
        <time>2019-12-30T12:30:36Z</time>
      </trkpt>
      <trkpt lat="43.8169" lon="7.07186">
        <ele>1000.4</ele>
        <time>2019-12-30T12:30:37Z</time>
      </trkpt>
      <trkpt lat="43.81691" lon="7.07182">
        <ele>1001.2</ele>
        <time>2019-12-30T12:30:38Z</time>
      </trkpt>
      <trkpt lat="43.81693" lon="7.07179">
        <ele>1001</ele>
        <time>2019-12-30T12:30:39Z</time>
      </trkpt>
      <trkpt lat="43.81694" lon="7.07175">
        <ele>1000.9</ele>
        <time>2019-12-30T12:30:40Z</time>
      </trkpt>
      <trkpt lat="43.81695" lon="7.07172">
        <ele>1001.8</ele>
        <time>2019-12-30T12:30:41Z</time>
      </trkpt>
      <trkpt lat="43.81697" lon="7.07169">
        <ele>1001.7</ele>
        <time>2019-12-30T12:30:42Z</time>
      </trkpt>
      <trkpt lat="43.81698" lon="7.07166">
        <ele>1002.4</ele>
        <time>2019-12-30T12:30:43Z</time>
      </trkpt>
      <trkpt lat="43.817" lon="7.07163">
        <ele>1002.3</ele>
        <time>2019-12-30T12:30:44Z</time>
      </trkpt>
      <trkpt lat="43.81701" lon="7.0716">
        <ele>1003.1</ele>
        <time>2019-12-30T12:30:45Z</time>
      </trkpt>
      <trkpt lat="43.81703" lon="7.07157">
        <ele>1002.9</ele>
        <time>2019-12-30T12:30:46Z</time>
      </trkpt>
      <trkpt lat="43.81704" lon="7.07154">
        <ele>1003.5</ele>
        <time>2019-12-30T12:30:47Z</time>
      </trkpt>
      <trkpt lat="43.81706" lon="7.0715">
        <ele>1003.8</ele>
        <time>2019-12-30T12:30:48Z</time>
      </trkpt>
      <trkpt lat="43.81707" lon="7.07147">
        <ele>1004.1</ele>
        <time>2019-12-30T12:30:49Z</time>
      </trkpt>
      <trkpt lat="43.81709" lon="7.07144">
        <ele>1004.3</ele>
        <time>2019-12-30T12:30:50Z</time>
      </trkpt>
      <trkpt lat="43.8171" lon="7.0714">
        <ele>1004.4</ele>
        <time>2019-12-30T12:30:51Z</time>
      </trkpt>
      <trkpt lat="43.81712" lon="7.07136">
        <ele>1004.5</ele>
        <time>2019-12-30T12:30:52Z</time>
      </trkpt>
      <trkpt lat="43.81713" lon="7.07132">
        <ele>1004.9</ele>
        <time>2019-12-30T12:30:53Z</time>
      </trkpt>
      <trkpt lat="43.81714" lon="7.07128">
        <ele>1005.2</ele>
        <time>2019-12-30T12:30:54Z</time>
      </trkpt>
      <trkpt lat="43.81716" lon="7.07125">
        <ele>1005.5</ele>
        <time>2019-12-30T12:30:55Z</time>
      </trkpt>
      <trkpt lat="43.81717" lon="7.07122">
        <ele>1005.7</ele>
        <time>2019-12-30T12:30:56Z</time>
      </trkpt>
      <trkpt lat="43.81719" lon="7.07119">
        <ele>1005.9</ele>
        <time>2019-12-30T12:30:57Z</time>
      </trkpt>
      <trkpt lat="43.8172" lon="7.07115">
        <ele>1006.1</ele>
        <time>2019-12-30T12:30:58Z</time>
      </trkpt>
      <trkpt lat="43.81722" lon="7.07112">
        <ele>1006.4</ele>
        <time>2019-12-30T12:30:59Z</time>
      </trkpt>
      <trkpt lat="43.81724" lon="7.07109">
        <ele>1006.8</ele>
        <time>2019-12-30T12:31:00Z</time>
      </trkpt>
      <trkpt lat="43.81726" lon="7.07105">
        <ele>1007.3</ele>
        <time>2019-12-30T12:31:01Z</time>
      </trkpt>
      <trkpt lat="43.81728" lon="7.07102">
        <ele>1007.4</ele>
        <time>2019-12-30T12:31:02Z</time>
      </trkpt>
      <trkpt lat="43.81729" lon="7.07098">
        <ele>1007.5</ele>
        <time>2019-12-30T12:31:03Z</time>
      </trkpt>
      <trkpt lat="43.81731" lon="7.07095">
        <ele>1007.7</ele>
        <time>2019-12-30T12:31:04Z</time>
      </trkpt>
      <trkpt lat="43.81732" lon="7.07091">
        <ele>1007.9</ele>
        <time>2019-12-30T12:31:05Z</time>
      </trkpt>
      <trkpt lat="43.81733" lon="7.07088">
        <ele>1008.2</ele>
        <time>2019-12-30T12:31:06Z</time>
      </trkpt>
      <trkpt lat="43.81734" lon="7.07085">
        <ele>1008.5</ele>
        <time>2019-12-30T12:31:07Z</time>
      </trkpt>
      <trkpt lat="43.81735" lon="7.07082">
        <ele>1008.8</ele>
        <time>2019-12-30T12:31:08Z</time>
      </trkpt>
      <trkpt lat="43.81736" lon="7.07079">
        <ele>1008.8</ele>
        <time>2019-12-30T12:31:09Z</time>
      </trkpt>
      <trkpt lat="43.81738" lon="7.07076">
        <ele>1008.9</ele>
        <time>2019-12-30T12:31:10Z</time>
      </trkpt>
      <trkpt lat="43.81739" lon="7.07072">
        <ele>1009</ele>
        <time>2019-12-30T12:31:11Z</time>
      </trkpt>
      <trkpt lat="43.8174" lon="7.07069">
        <ele>1009.3</ele>
        <time>2019-12-30T12:31:12Z</time>
      </trkpt>
      <trkpt lat="43.81742" lon="7.07066">
        <ele>1009.6</ele>
        <time>2019-12-30T12:31:13Z</time>
      </trkpt>
      <trkpt lat="43.81743" lon="7.07063">
        <ele>1010</ele>
        <time>2019-12-30T12:31:14Z</time>
      </trkpt>
      <trkpt lat="43.81745" lon="7.0706">
        <ele>1010.2</ele>
        <time>2019-12-30T12:31:15Z</time>
      </trkpt>
      <trkpt lat="43.81746" lon="7.07057">
        <ele>1010.3</ele>
        <time>2019-12-30T12:31:16Z</time>
      </trkpt>
      <trkpt lat="43.81748" lon="7.07054">
        <ele>1010.3</ele>
        <time>2019-12-30T12:31:17Z</time>
      </trkpt>
      <trkpt lat="43.8175" lon="7.07051">
        <ele>1010.5</ele>
        <time>2019-12-30T12:31:18Z</time>
      </trkpt>
      <trkpt lat="43.81751" lon="7.07047">
        <ele>1010.9</ele>
        <time>2019-12-30T12:31:19Z</time>
      </trkpt>
      <trkpt lat="43.81753" lon="7.07044">
        <ele>1011.3</ele>
        <time>2019-12-30T12:31:20Z</time>
      </trkpt>
      <trkpt lat="43.81754" lon="7.0704">
        <ele>1011.8</ele>
        <time>2019-12-30T12:31:21Z</time>
      </trkpt>
      <trkpt lat="43.81755" lon="7.07036">
        <ele>1012</ele>
        <time>2019-12-30T12:31:22Z</time>
      </trkpt>
      <trkpt lat="43.81757" lon="7.07032">
        <ele>1012.2</ele>
        <time>2019-12-30T12:31:23Z</time>
      </trkpt>
      <trkpt lat="43.81758" lon="7.07029">
        <ele>1012.4</ele>
        <time>2019-12-30T12:31:24Z</time>
      </trkpt>
      <trkpt lat="43.81759" lon="7.07026">
        <ele>1012.8</ele>
        <time>2019-12-30T12:31:25Z</time>
      </trkpt>
      <trkpt lat="43.81761" lon="7.07023">
        <ele>1013.3</ele>
        <time>2019-12-30T12:31:26Z</time>
      </trkpt>
      <trkpt lat="43.81762" lon="7.0702">
        <ele>1013.7</ele>
        <time>2019-12-30T12:31:27Z</time>
      </trkpt>
      <trkpt lat="43.81763" lon="7.07017">
        <ele>1014.1</ele>
        <time>2019-12-30T12:31:28Z</time>
      </trkpt>
      <trkpt lat="43.81764" lon="7.07014">
        <ele>1014.5</ele>
        <time>2019-12-30T12:31:29Z</time>
      </trkpt>
      <trkpt lat="43.81766" lon="7.07011">
        <ele>1014.9</ele>
        <time>2019-12-30T12:31:30Z</time>
      </trkpt>
      <trkpt lat="43.81767" lon="7.07008">
        <ele>1015.3</ele>
        <time>2019-12-30T12:31:31Z</time>
      </trkpt>
      <trkpt lat="43.81769" lon="7.07005">
        <ele>1015.5</ele>
        <time>2019-12-30T12:31:32Z</time>
      </trkpt>
      <trkpt lat="43.8177" lon="7.07002">
        <ele>1015.7</ele>
        <time>2019-12-30T12:31:33Z</time>
      </trkpt>
      <trkpt lat="43.81772" lon="7.06999">
        <ele>1015.8</ele>
        <time>2019-12-30T12:31:34Z</time>
      </trkpt>
      <trkpt lat="43.81773" lon="7.06996">
        <ele>1016.1</ele>
        <time>2019-12-30T12:31:35Z</time>
      </trkpt>
      <trkpt lat="43.81775" lon="7.06993">
        <ele>1016.6</ele>
        <time>2019-12-30T12:31:36Z</time>
      </trkpt>
      <trkpt lat="43.81776" lon="7.0699">
        <ele>1017.1</ele>
        <time>2019-12-30T12:31:37Z</time>
      </trkpt>
      <trkpt lat="43.81778" lon="7.06986">
        <ele>1017.4</ele>
        <time>2019-12-30T12:31:38Z</time>
      </trkpt>
      <trkpt lat="43.8178" lon="7.06983">
        <ele>1017.7</ele>
        <time>2019-12-30T12:31:39Z</time>
      </trkpt>
      <trkpt lat="43.81782" lon="7.0698">
        <ele>1018</ele>
        <time>2019-12-30T12:31:40Z</time>
      </trkpt>
      <trkpt lat="43.81783" lon="7.06976">
        <ele>1018.4</ele>
        <time>2019-12-30T12:31:41Z</time>
      </trkpt>
      <trkpt lat="43.81785" lon="7.06973">
        <ele>1018.7</ele>
        <time>2019-12-30T12:31:42Z</time>
      </trkpt>
      <trkpt lat="43.81787" lon="7.0697">
        <ele>1019.2</ele>
        <time>2019-12-30T12:31:43Z</time>
      </trkpt>
      <trkpt lat="43.81789" lon="7.06967">
        <ele>1019.8</ele>
        <time>2019-12-30T12:31:44Z</time>
      </trkpt>
      <trkpt lat="43.81791" lon="7.06964">
        <ele>1020.3</ele>
        <time>2019-12-30T12:31:45Z</time>
      </trkpt>
      <trkpt lat="43.81793" lon="7.06961">
        <ele>1020.6</ele>
        <time>2019-12-30T12:31:46Z</time>
      </trkpt>
      <trkpt lat="43.81794" lon="7.06958">
        <ele>1020.8</ele>
        <time>2019-12-30T12:31:47Z</time>
      </trkpt>
      <trkpt lat="43.81796" lon="7.06956">
        <ele>1021.1</ele>
        <time>2019-12-30T12:31:48Z</time>
      </trkpt>
      <trkpt lat="43.81798" lon="7.06953">
        <ele>1021.5</ele>
        <time>2019-12-30T12:31:49Z</time>
      </trkpt>
      <trkpt lat="43.81799" lon="7.0695">
        <ele>1021.9</ele>
        <time>2019-12-30T12:31:50Z</time>
      </trkpt>
      <trkpt lat="43.81801" lon="7.06948">
        <ele>1022.3</ele>
        <time>2019-12-30T12:31:51Z</time>
      </trkpt>
      <trkpt lat="43.81803" lon="7.06945">
        <ele>1022.8</ele>
        <time>2019-12-30T12:31:52Z</time>
      </trkpt>
      <trkpt lat="43.81805" lon="7.06942">
        <ele>1023.3</ele>
        <time>2019-12-30T12:31:53Z</time>
      </trkpt>
      <trkpt lat="43.81807" lon="7.0694">
        <ele>1023.7</ele>
        <time>2019-12-30T12:31:54Z</time>
      </trkpt>
      <trkpt lat="43.81809" lon="7.06937">
        <ele>1024.2</ele>
        <time>2019-12-30T12:31:55Z</time>
      </trkpt>
      <trkpt lat="43.81811" lon="7.06934">
        <ele>1024.7</ele>
        <time>2019-12-30T12:31:56Z</time>
      </trkpt>
      <trkpt lat="43.81813" lon="7.06931">
        <ele>1025.2</ele>
        <time>2019-12-30T12:31:57Z</time>
      </trkpt>
      <trkpt lat="43.81814" lon="7.06929">
        <ele>1025.6</ele>
        <time>2019-12-30T12:31:58Z</time>
      </trkpt>
      <trkpt lat="43.81816" lon="7.06926">
        <ele>1026</ele>
        <time>2019-12-30T12:31:59Z</time>
      </trkpt>
      <trkpt lat="43.81817" lon="7.06924">
        <ele>1026.3</ele>
        <time>2019-12-30T12:32:00Z</time>
      </trkpt>
      <trkpt lat="43.81819" lon="7.06921">
        <ele>1026.7</ele>
        <time>2019-12-30T12:32:01Z</time>
      </trkpt>
      <trkpt lat="43.81821" lon="7.06918">
        <ele>1027.1</ele>
        <time>2019-12-30T12:32:02Z</time>
      </trkpt>
      <trkpt lat="43.81823" lon="7.06915">
        <ele>1027.5</ele>
        <time>2019-12-30T12:32:03Z</time>
      </trkpt>
      <trkpt lat="43.81824" lon="7.06913">
        <ele>1027.8</ele>
        <time>2019-12-30T12:32:04Z</time>
      </trkpt>
      <trkpt lat="43.81826" lon="7.0691">
        <ele>1028.2</ele>
        <time>2019-12-30T12:32:05Z</time>
      </trkpt>
      <trkpt lat="43.81828" lon="7.06908">
        <ele>1028.6</ele>
        <time>2019-12-30T12:32:06Z</time>
      </trkpt>
      <trkpt lat="43.8183" lon="7.06906">
        <ele>1029</ele>
        <time>2019-12-30T12:32:07Z</time>
      </trkpt>
      <trkpt lat="43.81832" lon="7.06903">
        <ele>1029.5</ele>
        <time>2019-12-30T12:32:08Z</time>
      </trkpt>
      <trkpt lat="43.81834" lon="7.069">
        <ele>1030</ele>
        <time>2019-12-30T12:32:09Z</time>
      </trkpt>
      <trkpt lat="43.81836" lon="7.06898">
        <ele>1030.5</ele>
        <time>2019-12-30T12:32:10Z</time>
      </trkpt>
      <trkpt lat="43.81838" lon="7.06895">
        <ele>1031</ele>
        <time>2019-12-30T12:32:11Z</time>
      </trkpt>
      <trkpt lat="43.8184" lon="7.06893">
        <ele>1031.5</ele>
        <time>2019-12-30T12:32:12Z</time>
      </trkpt>
      <trkpt lat="43.81841" lon="7.0689">
        <ele>1031.9</ele>
        <time>2019-12-30T12:32:13Z</time>
      </trkpt>
      <trkpt lat="43.81843" lon="7.06887">
        <ele>1032.4</ele>
        <time>2019-12-30T12:32:14Z</time>
      </trkpt>
      <trkpt lat="43.81845" lon="7.06885">
        <ele>1032.9</ele>
        <time>2019-12-30T12:32:15Z</time>
      </trkpt>
      <trkpt lat="43.81847" lon="7.06882">
        <ele>1033.3</ele>
        <time>2019-12-30T12:32:16Z</time>
      </trkpt>
      <trkpt lat="43.81849" lon="7.06879">
        <ele>1033.8</ele>
        <time>2019-12-30T12:32:17Z</time>
      </trkpt>
      <trkpt lat="43.81851" lon="7.06876">
        <ele>1034.4</ele>
        <time>2019-12-30T12:32:18Z</time>
      </trkpt>
      <trkpt lat="43.81853" lon="7.06874">
        <ele>1034.9</ele>
        <time>2019-12-30T12:32:19Z</time>
      </trkpt>
      <trkpt lat="43.81855" lon="7.06872">
        <ele>1035.3</ele>
        <time>2019-12-30T12:32:20Z</time>
      </trkpt>
      <trkpt lat="43.81857" lon="7.06869">
        <ele>1035.9</ele>
        <time>2019-12-30T12:32:21Z</time>
      </trkpt>
      <trkpt lat="43.81859" lon="7.06867">
        <ele>1036.4</ele>
        <time>2019-12-30T12:32:22Z</time>
      </trkpt>
      <trkpt lat="43.8186" lon="7.06864">
        <ele>1037</ele>
        <time>2019-12-30T12:32:23Z</time>
      </trkpt>
      <trkpt lat="43.81862" lon="7.06861">
        <ele>1037.6</ele>
        <time>2019-12-30T12:32:24Z</time>
      </trkpt>
      <trkpt lat="43.81864" lon="7.06859">
        <ele>1038.2</ele>
        <time>2019-12-30T12:32:25Z</time>
      </trkpt>
      <trkpt lat="43.81865" lon="7.06857">
        <ele>1038.8</ele>
        <time>2019-12-30T12:32:26Z</time>
      </trkpt>
      <trkpt lat="43.81867" lon="7.06855">
        <ele>1039.4</ele>
        <time>2019-12-30T12:32:27Z</time>
      </trkpt>
      <trkpt lat="43.81868" lon="7.06852">
        <ele>1040.2</ele>
        <time>2019-12-30T12:32:28Z</time>
      </trkpt>
      <trkpt lat="43.8187" lon="7.0685">
        <ele>1041.1</ele>
        <time>2019-12-30T12:32:29Z</time>
      </trkpt>
      <trkpt lat="43.81871" lon="7.06847">
        <ele>1042</ele>
        <time>2019-12-30T12:32:30Z</time>
      </trkpt>
      <trkpt lat="43.81873" lon="7.06845">
        <ele>1042.9</ele>
        <time>2019-12-30T12:32:31Z</time>
      </trkpt>
      <trkpt lat="43.81874" lon="7.06842">
        <ele>1043.6</ele>
        <time>2019-12-30T12:32:32Z</time>
      </trkpt>
      <trkpt lat="43.81875" lon="7.06839">
        <ele>1044.3</ele>
        <time>2019-12-30T12:32:33Z</time>
      </trkpt>
      <trkpt lat="43.81876" lon="7.06836">
        <ele>1045.1</ele>
        <time>2019-12-30T12:32:34Z</time>
      </trkpt>
      <trkpt lat="43.81877" lon="7.06832">
        <ele>1045.5</ele>
        <time>2019-12-30T12:32:35Z</time>
      </trkpt>
      <trkpt lat="43.81877" lon="7.06829">
        <ele>1045.5</ele>
        <time>2019-12-30T12:32:36Z</time>
      </trkpt>
      <trkpt lat="43.81877" lon="7.06826">
        <ele>1045.6</ele>
        <time>2019-12-30T12:32:37Z</time>
      </trkpt>
      <trkpt lat="43.81878" lon="7.06822">
        <ele>1045.9</ele>
        <time>2019-12-30T12:32:38Z</time>
      </trkpt>
      <trkpt lat="43.81879" lon="7.06818">
        <ele>1046.4</ele>
        <time>2019-12-30T12:32:39Z</time>
      </trkpt>
      <trkpt lat="43.8188" lon="7.06814">
        <ele>1047</ele>
        <time>2019-12-30T12:32:40Z</time>
      </trkpt>
      <trkpt lat="43.81881" lon="7.0681">
        <ele>1047.1</ele>
        <time>2019-12-30T12:32:41Z</time>
      </trkpt>
      <trkpt lat="43.81881" lon="7.06807">
        <ele>1047.1</ele>
        <time>2019-12-30T12:32:42Z</time>
      </trkpt>
      <trkpt lat="43.81882" lon="7.06804">
        <ele>1047.2</ele>
        <time>2019-12-30T12:32:43Z</time>
      </trkpt>
      <trkpt lat="43.81883" lon="7.06801">
        <ele>1047.7</ele>
        <time>2019-12-30T12:32:44Z</time>
      </trkpt>
      <trkpt lat="43.81883" lon="7.06798">
        <ele>1048.2</ele>
        <time>2019-12-30T12:32:45Z</time>
      </trkpt>
      <trkpt lat="43.81884" lon="7.06795">
        <ele>1048.7</ele>
        <time>2019-12-30T12:32:46Z</time>
      </trkpt>
      <trkpt lat="43.81885" lon="7.06792">
        <ele>1048.9</ele>
        <time>2019-12-30T12:32:47Z</time>
      </trkpt>
      <trkpt lat="43.81886" lon="7.06789">
        <ele>1048.9</ele>
        <time>2019-12-30T12:32:48Z</time>
      </trkpt>
      <trkpt lat="43.81886" lon="7.06786">
        <ele>1049</ele>
        <time>2019-12-30T12:32:49Z</time>
      </trkpt>
      <trkpt lat="43.81887" lon="7.06782">
        <ele>1049.1</ele>
        <time>2019-12-30T12:32:50Z</time>
      </trkpt>
      <trkpt lat="43.81888" lon="7.06779">
        <ele>1049.6</ele>
        <time>2019-12-30T12:32:51Z</time>
      </trkpt>
      <trkpt lat="43.81888" lon="7.06776">
        <ele>1050.2</ele>
        <time>2019-12-30T12:32:52Z</time>
      </trkpt>
      <trkpt lat="43.81889" lon="7.06773">
        <ele>1050.7</ele>
        <time>2019-12-30T12:32:53Z</time>
      </trkpt>
      <trkpt lat="43.8189" lon="7.0677">
        <ele>1051.2</ele>
        <time>2019-12-30T12:32:54Z</time>
      </trkpt>
      <trkpt lat="43.8189" lon="7.06767">
        <ele>1051.8</ele>
        <time>2019-12-30T12:32:55Z</time>
      </trkpt>
      <trkpt lat="43.81891" lon="7.06763">
        <ele>1052.4</ele>
        <time>2019-12-30T12:32:56Z</time>
      </trkpt>
      <trkpt lat="43.81892" lon="7.0676">
        <ele>1052.9</ele>
        <time>2019-12-30T12:32:57Z</time>
      </trkpt>
      <trkpt lat="43.81892" lon="7.06757">
        <ele>1053.5</ele>
        <time>2019-12-30T12:32:58Z</time>
      </trkpt>
      <trkpt lat="43.81893" lon="7.06755">
        <ele>1054</ele>
        <time>2019-12-30T12:32:59Z</time>
      </trkpt>
      <trkpt lat="43.81893" lon="7.06752">
        <ele>1054.5</ele>
        <time>2019-12-30T12:33:00Z</time>
      </trkpt>
      <trkpt lat="43.81894" lon="7.06749">
        <ele>1055</ele>
        <time>2019-12-30T12:33:01Z</time>
      </trkpt>
      <trkpt lat="43.81895" lon="7.06746">
        <ele>1055.6</ele>
        <time>2019-12-30T12:33:02Z</time>
      </trkpt>
      <trkpt lat="43.81896" lon="7.06743">
        <ele>1056.2</ele>
        <time>2019-12-30T12:33:03Z</time>
      </trkpt>
      <trkpt lat="43.81896" lon="7.0674">
        <ele>1056.7</ele>
        <time>2019-12-30T12:33:04Z</time>
      </trkpt>
      <trkpt lat="43.81897" lon="7.06736">
        <ele>1057.3</ele>
        <time>2019-12-30T12:33:05Z</time>
      </trkpt>
      <trkpt lat="43.81898" lon="7.06733">
        <ele>1057.6</ele>
        <time>2019-12-30T12:33:06Z</time>
      </trkpt>
      <trkpt lat="43.81898" lon="7.0673">
        <ele>1057.9</ele>
        <time>2019-12-30T12:33:07Z</time>
      </trkpt>
      <trkpt lat="43.81899" lon="7.06728">
        <ele>1058.1</ele>
        <time>2019-12-30T12:33:08Z</time>
      </trkpt>
      <trkpt lat="43.81899" lon="7.06725">
        <ele>1058.3</ele>
        <time>2019-12-30T12:33:09Z</time>
      </trkpt>
      <trkpt lat="43.819" lon="7.06722">
        <ele>1058.7</ele>
        <time>2019-12-30T12:33:10Z</time>
      </trkpt>
      <trkpt lat="43.819" lon="7.06719">
        <ele>1059.2</ele>
        <time>2019-12-30T12:33:11Z</time>
      </trkpt>
      <trkpt lat="43.81901" lon="7.06716">
        <ele>1059.8</ele>
        <time>2019-12-30T12:33:12Z</time>
      </trkpt>
      <trkpt lat="43.81901" lon="7.06713">
        <ele>1060.3</ele>
        <time>2019-12-30T12:33:13Z</time>
      </trkpt>
      <trkpt lat="43.81901" lon="7.0671">
        <ele>1060.8</ele>
        <time>2019-12-30T12:33:14Z</time>
      </trkpt>
      <trkpt lat="43.81902" lon="7.06707">
        <ele>1061.3</ele>
        <time>2019-12-30T12:33:15Z</time>
      </trkpt>
      <trkpt lat="43.81902" lon="7.06704">
        <ele>1061.9</ele>
        <time>2019-12-30T12:33:16Z</time>
      </trkpt>
      <trkpt lat="43.81903" lon="7.06701">
        <ele>1062.4</ele>
        <time>2019-12-30T12:33:17Z</time>
      </trkpt>
      <trkpt lat="43.81903" lon="7.06698">
        <ele>1063</ele>
        <time>2019-12-30T12:33:18Z</time>
      </trkpt>
      <trkpt lat="43.81904" lon="7.06695">
        <ele>1063.5</ele>
        <time>2019-12-30T12:33:19Z</time>
      </trkpt>
      <trkpt lat="43.81905" lon="7.06691">
        <ele>1064.1</ele>
        <time>2019-12-30T12:33:20Z</time>
      </trkpt>
      <trkpt lat="43.81906" lon="7.06688">
        <ele>1064.6</ele>
        <time>2019-12-30T12:33:21Z</time>
      </trkpt>
      <trkpt lat="43.81907" lon="7.06685">
        <ele>1065.2</ele>
        <time>2019-12-30T12:33:22Z</time>
      </trkpt>
      <trkpt lat="43.81907" lon="7.06683">
        <ele>1065.7</ele>
        <time>2019-12-30T12:33:23Z</time>
      </trkpt>
      <trkpt lat="43.81908" lon="7.0668">
        <ele>1066.2</ele>
        <time>2019-12-30T12:33:24Z</time>
      </trkpt>
      <trkpt lat="43.81909" lon="7.06677">
        <ele>1066.7</ele>
        <time>2019-12-30T12:33:25Z</time>
      </trkpt>
      <trkpt lat="43.8191" lon="7.06674">
        <ele>1067.2</ele>
        <time>2019-12-30T12:33:26Z</time>
      </trkpt>
      <trkpt lat="43.8191" lon="7.0667">
        <ele>1067.5</ele>
        <time>2019-12-30T12:33:27Z</time>
      </trkpt>
      <trkpt lat="43.81911" lon="7.06667">
        <ele>1067.7</ele>
        <time>2019-12-30T12:33:28Z</time>
      </trkpt>
      <trkpt lat="43.81912" lon="7.06663">
        <ele>1067.9</ele>
        <time>2019-12-30T12:33:29Z</time>
      </trkpt>
      <trkpt lat="43.81913" lon="7.0666">
        <ele>1068.6</ele>
        <time>2019-12-30T12:33:30Z</time>
      </trkpt>
      <trkpt lat="43.81913" lon="7.06657">
        <ele>1069.2</ele>
        <time>2019-12-30T12:33:31Z</time>
      </trkpt>
      <trkpt lat="43.81914" lon="7.06654">
        <ele>1069.7</ele>
        <time>2019-12-30T12:33:32Z</time>
      </trkpt>
      <trkpt lat="43.81915" lon="7.06652">
        <ele>1070.3</ele>
        <time>2019-12-30T12:33:33Z</time>
      </trkpt>
      <trkpt lat="43.81916" lon="7.06649">
        <ele>1070.8</ele>
        <time>2019-12-30T12:33:34Z</time>
      </trkpt>
      <trkpt lat="43.81917" lon="7.06646">
        <ele>1071.4</ele>
        <time>2019-12-30T12:33:35Z</time>
      </trkpt>
      <trkpt lat="43.81917" lon="7.06643">
        <ele>1071.9</ele>
        <time>2019-12-30T12:33:36Z</time>
      </trkpt>
      <trkpt lat="43.81918" lon="7.0664">
        <ele>1072.4</ele>
        <time>2019-12-30T12:33:37Z</time>
      </trkpt>
      <trkpt lat="43.81918" lon="7.06637">
        <ele>1073</ele>
        <time>2019-12-30T12:33:38Z</time>
      </trkpt>
      <trkpt lat="43.81919" lon="7.06634">
        <ele>1073.7</ele>
        <time>2019-12-30T12:33:39Z</time>
      </trkpt>
      <trkpt lat="43.81919" lon="7.06631">
        <ele>1074.3</ele>
        <time>2019-12-30T12:33:40Z</time>
      </trkpt>
      <trkpt lat="43.8192" lon="7.06628">
        <ele>1074.9</ele>
        <time>2019-12-30T12:33:41Z</time>
      </trkpt>
      <trkpt lat="43.8192" lon="7.06625">
        <ele>1075.4</ele>
        <time>2019-12-30T12:33:42Z</time>
      </trkpt>
      <trkpt lat="43.81921" lon="7.06622">
        <ele>1076</ele>
        <time>2019-12-30T12:33:43Z</time>
      </trkpt>
      <trkpt lat="43.81922" lon="7.06619">
        <ele>1076.6</ele>
        <time>2019-12-30T12:33:44Z</time>
      </trkpt>
      <trkpt lat="43.81924" lon="7.06615">
        <ele>1077.2</ele>
        <time>2019-12-30T12:33:45Z</time>
      </trkpt>
      <trkpt lat="43.81925" lon="7.06612">
        <ele>1077.7</ele>
        <time>2019-12-30T12:33:46Z</time>
      </trkpt>
      <trkpt lat="43.81926" lon="7.0661">
        <ele>1078.1</ele>
        <time>2019-12-30T12:33:47Z</time>
      </trkpt>
      <trkpt lat="43.81927" lon="7.06607">
        <ele>1078.6</ele>
        <time>2019-12-30T12:33:48Z</time>
      </trkpt>
      <trkpt lat="43.81927" lon="7.06603">
        <ele>1078.9</ele>
        <time>2019-12-30T12:33:49Z</time>
      </trkpt>
      <trkpt lat="43.81928" lon="7.066">
        <ele>1079</ele>
        <time>2019-12-30T12:33:50Z</time>
      </trkpt>
      <trkpt lat="43.81929" lon="7.06596">
        <ele>1079.1</ele>
        <time>2019-12-30T12:33:51Z</time>
      </trkpt>
      <trkpt lat="43.81929" lon="7.06592">
        <ele>1079.2</ele>
        <time>2019-12-30T12:33:52Z</time>
      </trkpt>
      <trkpt lat="43.8193" lon="7.06589">
        <ele>1079.6</ele>
        <time>2019-12-30T12:33:53Z</time>
      </trkpt>
      <trkpt lat="43.8193" lon="7.06586">
        <ele>1080</ele>
        <time>2019-12-30T12:33:54Z</time>
      </trkpt>
      <trkpt lat="43.81931" lon="7.06583">
        <ele>1080.5</ele>
        <time>2019-12-30T12:33:55Z</time>
      </trkpt>
      <trkpt lat="43.81931" lon="7.06579">
        <ele>1080.9</ele>
        <time>2019-12-30T12:33:56Z</time>
      </trkpt>
      <trkpt lat="43.81932" lon="7.06576">
        <ele>1081.3</ele>
        <time>2019-12-30T12:33:57Z</time>
      </trkpt>
      <trkpt lat="43.81932" lon="7.06572">
        <ele>1081.8</ele>
        <time>2019-12-30T12:33:58Z</time>
      </trkpt>
      <trkpt lat="43.81933" lon="7.06568">
        <ele>1082.2</ele>
        <time>2019-12-30T12:33:59Z</time>
      </trkpt>
      <trkpt lat="43.81934" lon="7.06564">
        <ele>1082.8</ele>
        <time>2019-12-30T12:34:00Z</time>
      </trkpt>
      <trkpt lat="43.81935" lon="7.06561">
        <ele>1083.2</ele>
        <time>2019-12-30T12:34:01Z</time>
      </trkpt>
      <trkpt lat="43.81935" lon="7.06558">
        <ele>1083.6</ele>
        <time>2019-12-30T12:34:02Z</time>
      </trkpt>
      <trkpt lat="43.81936" lon="7.06555">
        <ele>1083.8</ele>
        <time>2019-12-30T12:34:03Z</time>
      </trkpt>
      <trkpt lat="43.81937" lon="7.06552">
        <ele>1083.8</ele>
        <time>2019-12-30T12:34:04Z</time>
      </trkpt>
      <trkpt lat="43.81937" lon="7.06549">
        <ele>1083.9</ele>
        <time>2019-12-30T12:34:05Z</time>
      </trkpt>
      <trkpt lat="43.81938" lon="7.06546">
        <ele>1083.9</ele>
        <time>2019-12-30T12:34:06Z</time>
      </trkpt>
      <trkpt lat="43.81939" lon="7.06542">
        <ele>1084.3</ele>
        <time>2019-12-30T12:34:07Z</time>
      </trkpt>
      <trkpt lat="43.81939" lon="7.06539">
        <ele>1084.7</ele>
        <time>2019-12-30T12:34:08Z</time>
      </trkpt>
      <trkpt lat="43.8194" lon="7.06535">
        <ele>1085.1</ele>
        <time>2019-12-30T12:34:09Z</time>
      </trkpt>
      <trkpt lat="43.81941" lon="7.06532">
        <ele>1085.5</ele>
        <time>2019-12-30T12:34:10Z</time>
      </trkpt>
      <trkpt lat="43.81942" lon="7.06529">
        <ele>1085.9</ele>
        <time>2019-12-30T12:34:11Z</time>
      </trkpt>
      <trkpt lat="43.81943" lon="7.06526">
        <ele>1086.2</ele>
        <time>2019-12-30T12:34:12Z</time>
      </trkpt>
      <trkpt lat="43.81943" lon="7.06523">
        <ele>1086.5</ele>
        <time>2019-12-30T12:34:13Z</time>
      </trkpt>
      <trkpt lat="43.81944" lon="7.0652">
        <ele>1086.6</ele>
        <time>2019-12-30T12:34:14Z</time>
      </trkpt>
      <trkpt lat="43.81945" lon="7.06517">
        <ele>1086.6</ele>
        <time>2019-12-30T12:34:15Z</time>
      </trkpt>
      <trkpt lat="43.81946" lon="7.06514">
        <ele>1086.5</ele>
        <time>2019-12-30T12:34:16Z</time>
      </trkpt>
      <trkpt lat="43.81947" lon="7.06511">
        <ele>1086.5</ele>
        <time>2019-12-30T12:34:17Z</time>
      </trkpt>
      <trkpt lat="43.81948" lon="7.06508">
        <ele>1086.8</ele>
        <time>2019-12-30T12:34:18Z</time>
      </trkpt>
      <trkpt lat="43.81949" lon="7.06505">
        <ele>1087.1</ele>
        <time>2019-12-30T12:34:19Z</time>
      </trkpt>
      <trkpt lat="43.81949" lon="7.06502">
        <ele>1087.4</ele>
        <time>2019-12-30T12:34:20Z</time>
      </trkpt>
      <trkpt lat="43.8195" lon="7.06499">
        <ele>1087.6</ele>
        <time>2019-12-30T12:34:21Z</time>
      </trkpt>
      <trkpt lat="43.81951" lon="7.06497">
        <ele>1087.9</ele>
        <time>2019-12-30T12:34:22Z</time>
      </trkpt>
      <trkpt lat="43.81951" lon="7.06494">
        <ele>1088.1</ele>
        <time>2019-12-30T12:34:23Z</time>
      </trkpt>
      <trkpt lat="43.81952" lon="7.06492">
        <ele>1088.3</ele>
        <time>2019-12-30T12:34:24Z</time>
      </trkpt>
      <trkpt lat="43.81952" lon="7.06489">
        <ele>1088.6</ele>
        <time>2019-12-30T12:34:25Z</time>
      </trkpt>
      <trkpt lat="43.81953" lon="7.06486">
        <ele>1088.7</ele>
        <time>2019-12-30T12:34:26Z</time>
      </trkpt>
      <trkpt lat="43.81953" lon="7.06483">
        <ele>1088.6</ele>
        <time>2019-12-30T12:34:27Z</time>
      </trkpt>
      <trkpt lat="43.81953" lon="7.06479">
        <ele>1088.6</ele>
        <time>2019-12-30T12:34:28Z</time>
      </trkpt>
      <trkpt lat="43.81953" lon="7.06476">
        <ele>1088.6</ele>
        <time>2019-12-30T12:34:29Z</time>
      </trkpt>
      <trkpt lat="43.81952" lon="7.06472">
        <ele>1089</ele>
        <time>2019-12-30T12:34:30Z</time>
      </trkpt>
      <trkpt lat="43.81951" lon="7.06468">
        <ele>1089.4</ele>
        <time>2019-12-30T12:34:31Z</time>
      </trkpt>
      <trkpt lat="43.81951" lon="7.06464">
        <ele>1089.8</ele>
        <time>2019-12-30T12:34:32Z</time>
      </trkpt>
      <trkpt lat="43.81951" lon="7.0646">
        <ele>1090.2</ele>
        <time>2019-12-30T12:34:33Z</time>
      </trkpt>
      <trkpt lat="43.81951" lon="7.06458">
        <ele>1090.5</ele>
        <time>2019-12-30T12:34:34Z</time>
      </trkpt>
      <trkpt lat="43.81952" lon="7.06455">
        <ele>1090.8</ele>
        <time>2019-12-30T12:34:35Z</time>
      </trkpt>
      <trkpt lat="43.81953" lon="7.06453">
        <ele>1091.1</ele>
        <time>2019-12-30T12:34:36Z</time>
      </trkpt>
      <trkpt lat="43.81955" lon="7.06452">
        <ele>1091.3</ele>
        <time>2019-12-30T12:34:37Z</time>
      </trkpt>
      <trkpt lat="43.81956" lon="7.0645">
        <ele>1091.4</ele>
        <time>2019-12-30T12:34:38Z</time>
      </trkpt>
      <trkpt lat="43.81958" lon="7.06449">
        <ele>1091.6</ele>
        <time>2019-12-30T12:34:39Z</time>
      </trkpt>
      <trkpt lat="43.81959" lon="7.06447">
        <ele>1091.7</ele>
        <time>2019-12-30T12:34:40Z</time>
      </trkpt>
      <trkpt lat="43.8196" lon="7.06445">
        <ele>1091.8</ele>
        <time>2019-12-30T12:34:41Z</time>
      </trkpt>
      <trkpt lat="43.81961" lon="7.06442">
        <ele>1092.3</ele>
        <time>2019-12-30T12:34:42Z</time>
      </trkpt>
      <trkpt lat="43.81962" lon="7.06439">
        <ele>1092.8</ele>
        <time>2019-12-30T12:34:43Z</time>
      </trkpt>
      <trkpt lat="43.81963" lon="7.06437">
        <ele>1093.2</ele>
        <time>2019-12-30T12:34:44Z</time>
      </trkpt>
      <trkpt lat="43.81964" lon="7.06434">
        <ele>1093.7</ele>
        <time>2019-12-30T12:34:45Z</time>
      </trkpt>
      <trkpt lat="43.81965" lon="7.06432">
        <ele>1094.1</ele>
        <time>2019-12-30T12:34:46Z</time>
      </trkpt>
      <trkpt lat="43.81965" lon="7.06429">
        <ele>1094.6</ele>
        <time>2019-12-30T12:34:47Z</time>
      </trkpt>
      <trkpt lat="43.81965" lon="7.06427">
        <ele>1095.1</ele>
        <time>2019-12-30T12:34:48Z</time>
      </trkpt>
      <trkpt lat="43.81965" lon="7.06424">
        <ele>1095.6</ele>
        <time>2019-12-30T12:34:49Z</time>
      </trkpt>
      <trkpt lat="43.81965" lon="7.06421">
        <ele>1096</ele>
        <time>2019-12-30T12:34:50Z</time>
      </trkpt>
      <trkpt lat="43.81964" lon="7.06418">
        <ele>1096</ele>
        <time>2019-12-30T12:34:51Z</time>
      </trkpt>
      <trkpt lat="43.81964" lon="7.06415">
        <ele>1095.9</ele>
        <time>2019-12-30T12:34:52Z</time>
      </trkpt>
      <trkpt lat="43.81963" lon="7.06412">
        <ele>1095.8</ele>
        <time>2019-12-30T12:34:53Z</time>
      </trkpt>
      <trkpt lat="43.81962" lon="7.06408">
        <ele>1095.7</ele>
        <time>2019-12-30T12:34:54Z</time>
      </trkpt>
      <trkpt lat="43.81961" lon="7.06405">
        <ele>1095.5</ele>
        <time>2019-12-30T12:34:55Z</time>
      </trkpt>
      <trkpt lat="43.8196" lon="7.06402">
        <ele>1095.4</ele>
        <time>2019-12-30T12:34:56Z</time>
      </trkpt>
      <trkpt lat="43.8196" lon="7.06399">
        <ele>1095.6</ele>
        <time>2019-12-30T12:34:57Z</time>
      </trkpt>
      <trkpt lat="43.8196" lon="7.06396">
        <ele>1095.9</ele>
        <time>2019-12-30T12:34:58Z</time>
      </trkpt>
      <trkpt lat="43.81959" lon="7.06394">
        <ele>1096.1</ele>
        <time>2019-12-30T12:34:59Z</time>
      </trkpt>
      <trkpt lat="43.81958" lon="7.06391">
        <ele>1096.3</ele>
        <time>2019-12-30T12:35:00Z</time>
      </trkpt>
      <trkpt lat="43.81957" lon="7.06387">
        <ele>1096.2</ele>
        <time>2019-12-30T12:35:01Z</time>
      </trkpt>
      <trkpt lat="43.81956" lon="7.06383">
        <ele>1096</ele>
        <time>2019-12-30T12:35:02Z</time>
      </trkpt>
      <trkpt lat="43.81956" lon="7.0638">
        <ele>1096</ele>
        <time>2019-12-30T12:35:03Z</time>
      </trkpt>
      <trkpt lat="43.81956" lon="7.06377">
        <ele>1096.3</ele>
        <time>2019-12-30T12:35:04Z</time>
      </trkpt>
      <trkpt lat="43.81955" lon="7.06375">
        <ele>1096.5</ele>
        <time>2019-12-30T12:35:05Z</time>
      </trkpt>
      <trkpt lat="43.81955" lon="7.06373">
        <ele>1096.7</ele>
        <time>2019-12-30T12:35:06Z</time>
      </trkpt>
      <trkpt lat="43.81956" lon="7.06371">
        <ele>1097</ele>
        <time>2019-12-30T12:35:07Z</time>
      </trkpt>
      <trkpt lat="43.81956" lon="7.06368">
        <ele>1097.2</ele>
        <time>2019-12-30T12:35:08Z</time>
      </trkpt>
      <trkpt lat="43.81956" lon="7.06366">
        <ele>1097.2</ele>
        <time>2019-12-30T12:35:09Z</time>
      </trkpt>
      <trkpt lat="43.81957" lon="7.06364">
        <ele>1097.3</ele>
        <time>2019-12-30T12:35:10Z</time>
      </trkpt>
      <trkpt lat="43.81957" lon="7.06362">
        <ele>1097.3</ele>
        <time>2019-12-30T12:35:11Z</time>
      </trkpt>
      <trkpt lat="43.81957" lon="7.0636">
        <ele>1097.4</ele>
        <time>2019-12-30T12:35:12Z</time>
      </trkpt>
      <trkpt lat="43.81957" lon="7.06357">
        <ele>1097.4</ele>
        <time>2019-12-30T12:35:13Z</time>
      </trkpt>
      <trkpt lat="43.81957" lon="7.06355">
        <ele>1097.5</ele>
        <time>2019-12-30T12:35:14Z</time>
      </trkpt>
      <trkpt lat="43.81957" lon="7.06352">
        <ele>1097.8</ele>
        <time>2019-12-30T12:35:15Z</time>
      </trkpt>
      <trkpt lat="43.81956" lon="7.06348">
        <ele>1098.1</ele>
        <time>2019-12-30T12:35:16Z</time>
      </trkpt>
      <trkpt lat="43.81955" lon="7.06345">
        <ele>1098.4</ele>
        <time>2019-12-30T12:35:17Z</time>
      </trkpt>
      <trkpt lat="43.81954" lon="7.06341">
        <ele>1098.9</ele>
        <time>2019-12-30T12:35:18Z</time>
      </trkpt>
      <trkpt lat="43.81954" lon="7.06338">
        <ele>1099.3</ele>
        <time>2019-12-30T12:35:19Z</time>
      </trkpt>
      <trkpt lat="43.81953" lon="7.06335">
        <ele>1099.7</ele>
        <time>2019-12-30T12:35:20Z</time>
      </trkpt>
      <trkpt lat="43.81953" lon="7.06332">
        <ele>1100.1</ele>
        <time>2019-12-30T12:35:21Z</time>
      </trkpt>
      <trkpt lat="43.81953" lon="7.06328">
        <ele>1100.5</ele>
        <time>2019-12-30T12:35:22Z</time>
      </trkpt>
      <trkpt lat="43.81954" lon="7.06325">
        <ele>1100.8</ele>
        <time>2019-12-30T12:35:23Z</time>
      </trkpt>
      <trkpt lat="43.81954" lon="7.06322">
        <ele>1101.2</ele>
        <time>2019-12-30T12:35:24Z</time>
      </trkpt>
      <trkpt lat="43.81954" lon="7.06318">
        <ele>1101.3</ele>
        <time>2019-12-30T12:35:25Z</time>
      </trkpt>
      <trkpt lat="43.81954" lon="7.06314">
        <ele>1101.4</ele>
        <time>2019-12-30T12:35:26Z</time>
      </trkpt>
      <trkpt lat="43.81953" lon="7.0631">
        <ele>1101.4</ele>
        <time>2019-12-30T12:35:27Z</time>
      </trkpt>
      <trkpt lat="43.81952" lon="7.06306">
        <ele>1101.7</ele>
        <time>2019-12-30T12:35:28Z</time>
      </trkpt>
      <trkpt lat="43.81952" lon="7.06303">
        <ele>1102.1</ele>
        <time>2019-12-30T12:35:29Z</time>
      </trkpt>
      <trkpt lat="43.81953" lon="7.06299">
        <ele>1102.5</ele>
        <time>2019-12-30T12:35:30Z</time>
      </trkpt>
      <trkpt lat="43.81952" lon="7.06296">
        <ele>1102.9</ele>
        <time>2019-12-30T12:35:31Z</time>
      </trkpt>
      <trkpt lat="43.81952" lon="7.06292">
        <ele>1103.2</ele>
        <time>2019-12-30T12:35:32Z</time>
      </trkpt>
      <trkpt lat="43.81952" lon="7.06289">
        <ele>1103.5</ele>
        <time>2019-12-30T12:35:33Z</time>
      </trkpt>
      <trkpt lat="43.81952" lon="7.06286">
        <ele>1103.7</ele>
        <time>2019-12-30T12:35:34Z</time>
      </trkpt>
      <trkpt lat="43.81952" lon="7.06283">
        <ele>1104</ele>
        <time>2019-12-30T12:35:35Z</time>
      </trkpt>
      <trkpt lat="43.81952" lon="7.0628">
        <ele>1104.4</ele>
        <time>2019-12-30T12:35:36Z</time>
      </trkpt>
      <trkpt lat="43.81953" lon="7.06278">
        <ele>1104.7</ele>
        <time>2019-12-30T12:35:37Z</time>
      </trkpt>
      <trkpt lat="43.81954" lon="7.06275">
        <ele>1105</ele>
        <time>2019-12-30T12:35:38Z</time>
      </trkpt>
      <trkpt lat="43.81954" lon="7.06273">
        <ele>1105.3</ele>
        <time>2019-12-30T12:35:39Z</time>
      </trkpt>
      <trkpt lat="43.81954" lon="7.0627">
        <ele>1105.6</ele>
        <time>2019-12-30T12:35:40Z</time>
      </trkpt>
      <trkpt lat="43.81954" lon="7.06266">
        <ele>1106</ele>
        <time>2019-12-30T12:35:41Z</time>
      </trkpt>
      <trkpt lat="43.81953" lon="7.06262">
        <ele>1106.5</ele>
        <time>2019-12-30T12:35:42Z</time>
      </trkpt>
      <trkpt lat="43.81953" lon="7.06259">
        <ele>1107</ele>
        <time>2019-12-30T12:35:43Z</time>
      </trkpt>
      <trkpt lat="43.81953" lon="7.06256">
        <ele>1107.3</ele>
        <time>2019-12-30T12:35:44Z</time>
      </trkpt>
      <trkpt lat="43.81953" lon="7.06254">
        <ele>1107.6</ele>
        <time>2019-12-30T12:35:45Z</time>
      </trkpt>
      <trkpt lat="43.81953" lon="7.06251">
        <ele>1107.9</ele>
        <time>2019-12-30T12:35:46Z</time>
      </trkpt>
      <trkpt lat="43.81952" lon="7.06247">
        <ele>1108.5</ele>
        <time>2019-12-30T12:35:47Z</time>
      </trkpt>
      <trkpt lat="43.81951" lon="7.06243">
        <ele>1109.1</ele>
        <time>2019-12-30T12:35:48Z</time>
      </trkpt>
      <trkpt lat="43.81951" lon="7.06239">
        <ele>1109.6</ele>
        <time>2019-12-30T12:35:49Z</time>
      </trkpt>
      <trkpt lat="43.81951" lon="7.06237">
        <ele>1109.9</ele>
        <time>2019-12-30T12:35:50Z</time>
      </trkpt>
      <trkpt lat="43.81951" lon="7.06235">
        <ele>1110</ele>
        <time>2019-12-30T12:35:51Z</time>
      </trkpt>
      <trkpt lat="43.81951" lon="7.06234">
        <ele>1110.1</ele>
        <time>2019-12-30T12:35:52Z</time>
      </trkpt>
      <trkpt lat="43.81951" lon="7.06231">
        <ele>1110.3</ele>
        <time>2019-12-30T12:35:53Z</time>
      </trkpt>
      <trkpt lat="43.8195" lon="7.06231">
        <ele>1110.3</ele>
        <time>2019-12-30T12:35:54Z</time>
      </trkpt>
      <trkpt lat="43.8195" lon="7.0623">
        <ele>1110.3</ele>
        <time>2019-12-30T12:35:55Z</time>
      </trkpt>
      <trkpt lat="43.8195" lon="7.0623">
        <ele>1110.4</ele>
        <time>2019-12-30T12:35:56Z</time>
      </trkpt>
      <trkpt lat="43.8195" lon="7.06229">
        <ele>1110.4</ele>
        <time>2019-12-30T12:35:57Z</time>
      </trkpt>
      <trkpt lat="43.8195" lon="7.06228">
        <ele>1110.5</ele>
        <time>2019-12-30T12:35:58Z</time>
      </trkpt>
      <trkpt lat="43.8195" lon="7.06228">
        <ele>1110.5</ele>
        <time>2019-12-30T12:35:59Z</time>
      </trkpt>
      <trkpt lat="43.8195" lon="7.06228">
        <ele>1110.5</ele>
        <time>2019-12-30T12:36:00Z</time>
      </trkpt>
      <trkpt lat="43.8195" lon="7.06228">
        <ele>1110.5</ele>
        <time>2019-12-30T12:36:01Z</time>
      </trkpt>
      <trkpt lat="43.8195" lon="7.06228">
        <ele>1110.5</ele>
        <time>2019-12-30T12:36:02Z</time>
      </trkpt>
      <trkpt lat="43.8195" lon="7.06228">
        <ele>1110.5</ele>
        <time>2019-12-30T12:36:03Z</time>
      </trkpt>
      <trkpt lat="43.8195" lon="7.06228">
        <ele>1110.5</ele>
        <time>2019-12-30T12:36:04Z</time>
      </trkpt>
      <trkpt lat="43.8195" lon="7.06228">
        <ele>1110.5</ele>
        <time>2019-12-30T12:36:05Z</time>
      </trkpt>
      <trkpt lat="43.81949" lon="7.06227">
        <ele>1110.5</ele>
        <time>2019-12-30T12:36:06Z</time>
      </trkpt>
      <trkpt lat="43.81949" lon="7.06227">
        <ele>1110.6</ele>
        <time>2019-12-30T12:36:07Z</time>
      </trkpt>
      <trkpt lat="43.81949" lon="7.06226">
        <ele>1110.6</ele>
        <time>2019-12-30T12:36:08Z</time>
      </trkpt>
      <trkpt lat="43.81948" lon="7.06226">
        <ele>1110.7</ele>
        <time>2019-12-30T12:36:09Z</time>
      </trkpt>
      <trkpt lat="43.81948" lon="7.06225">
        <ele>1110.7</ele>
        <time>2019-12-30T12:36:10Z</time>
      </trkpt>
      <trkpt lat="43.81947" lon="7.06224">
        <ele>1110.7</ele>
        <time>2019-12-30T12:36:11Z</time>
      </trkpt>
      <trkpt lat="43.81947" lon="7.06224">
        <ele>1110.7</ele>
        <time>2019-12-30T12:36:12Z</time>
      </trkpt>
      <trkpt lat="43.81947" lon="7.06224">
        <ele>1110.7</ele>
        <time>2019-12-30T12:36:13Z</time>
      </trkpt>
      <trkpt lat="43.81946" lon="7.06223">
        <ele>1110.7</ele>
        <time>2019-12-30T12:36:14Z</time>
      </trkpt>
      <trkpt lat="43.81946" lon="7.06223">
        <ele>1110.7</ele>
        <time>2019-12-30T12:36:15Z</time>
      </trkpt>
      <trkpt lat="43.81946" lon="7.06222">
        <ele>1110.7</ele>
        <time>2019-12-30T12:36:16Z</time>
      </trkpt>
      <trkpt lat="43.81946" lon="7.06222">
        <ele>1110.7</ele>
        <time>2019-12-30T12:36:17Z</time>
      </trkpt>
      <trkpt lat="43.81946" lon="7.06222">
        <ele>1110.7</ele>
        <time>2019-12-30T12:36:18Z</time>
      </trkpt>
      <trkpt lat="43.81946" lon="7.06221">
        <ele>1110.7</ele>
        <time>2019-12-30T12:36:19Z</time>
      </trkpt>
      <trkpt lat="43.81946" lon="7.0622">
        <ele>1110.7</ele>
        <time>2019-12-30T12:36:20Z</time>
      </trkpt>
      <trkpt lat="43.81945" lon="7.0622">
        <ele>1110.7</ele>
        <time>2019-12-30T12:36:21Z</time>
      </trkpt>
      <trkpt lat="43.81945" lon="7.06219">
        <ele>1110.8</ele>
        <time>2019-12-30T12:36:22Z</time>
      </trkpt>
      <trkpt lat="43.81944" lon="7.06218">
        <ele>1110.9</ele>
        <time>2019-12-30T12:36:23Z</time>
      </trkpt>
      <trkpt lat="43.81944" lon="7.06218">
        <ele>1111</ele>
        <time>2019-12-30T12:36:24Z</time>
      </trkpt>
      <trkpt lat="43.81944" lon="7.06217">
        <ele>1111.1</ele>
        <time>2019-12-30T12:36:25Z</time>
      </trkpt>
      <trkpt lat="43.81943" lon="7.06217">
        <ele>1111.2</ele>
        <time>2019-12-30T12:36:26Z</time>
      </trkpt>
      <trkpt lat="43.81943" lon="7.06216">
        <ele>1111.3</ele>
        <time>2019-12-30T12:36:27Z</time>
      </trkpt>
      <trkpt lat="43.81943" lon="7.06216">
        <ele>1111.3</ele>
        <time>2019-12-30T12:36:28Z</time>
      </trkpt>
      <trkpt lat="43.81943" lon="7.06215">
        <ele>1111.4</ele>
        <time>2019-12-30T12:36:29Z</time>
      </trkpt>
      <trkpt lat="43.81943" lon="7.06215">
        <ele>1111.4</ele>
        <time>2019-12-30T12:36:30Z</time>
      </trkpt>
      <trkpt lat="43.81943" lon="7.06215">
        <ele>1111.5</ele>
        <time>2019-12-30T12:36:31Z</time>
      </trkpt>
      <trkpt lat="43.81943" lon="7.06214">
        <ele>1111.5</ele>
        <time>2019-12-30T12:36:32Z</time>
      </trkpt>
      <trkpt lat="43.81943" lon="7.06214">
        <ele>1111.5</ele>
        <time>2019-12-30T12:36:33Z</time>
      </trkpt>
      <trkpt lat="43.81942" lon="7.06214">
        <ele>1111.5</ele>
        <time>2019-12-30T12:36:34Z</time>
      </trkpt>
      <trkpt lat="43.81942" lon="7.06214">
        <ele>1111.6</ele>
        <time>2019-12-30T12:36:35Z</time>
      </trkpt>
      <trkpt lat="43.81942" lon="7.06214">
        <ele>1111.6</ele>
        <time>2019-12-30T12:36:36Z</time>
      </trkpt>
      <trkpt lat="43.81942" lon="7.06214">
        <ele>1111.6</ele>
        <time>2019-12-30T12:36:37Z</time>
      </trkpt>
      <trkpt lat="43.81942" lon="7.06214">
        <ele>1111.6</ele>
        <time>2019-12-30T12:36:38Z</time>
      </trkpt>
      <trkpt lat="43.81942" lon="7.06214">
        <ele>1111.6</ele>
        <time>2019-12-30T12:36:39Z</time>
      </trkpt>
      <trkpt lat="43.81942" lon="7.06214">
        <ele>1111.6</ele>
        <time>2019-12-30T12:36:40Z</time>
      </trkpt>
      <trkpt lat="43.81942" lon="7.06214">
        <ele>1111.6</ele>
        <time>2019-12-30T12:36:41Z</time>
      </trkpt>
      <trkpt lat="43.81942" lon="7.06214">
        <ele>1111.6</ele>
        <time>2019-12-30T12:36:42Z</time>
      </trkpt>
      <trkpt lat="43.81942" lon="7.06214">
        <ele>1111.7</ele>
        <time>2019-12-30T12:36:43Z</time>
      </trkpt>
      <trkpt lat="43.81942" lon="7.06214">
        <ele>1111.7</ele>
        <time>2019-12-30T12:36:44Z</time>
      </trkpt>
      <trkpt lat="43.81942" lon="7.06214">
        <ele>1111.7</ele>
        <time>2019-12-30T12:36:45Z</time>
      </trkpt>
      <trkpt lat="43.81942" lon="7.06214">
        <ele>1111.7</ele>
        <time>2019-12-30T12:36:46Z</time>
      </trkpt>
      <trkpt lat="43.81942" lon="7.06214">
        <ele>1111.7</ele>
        <time>2019-12-30T12:36:47Z</time>
      </trkpt>
      <trkpt lat="43.81943" lon="7.06214">
        <ele>1111.7</ele>
        <time>2019-12-30T12:36:48Z</time>
      </trkpt>
      <trkpt lat="43.81943" lon="7.06214">
        <ele>1111.8</ele>
        <time>2019-12-30T12:36:49Z</time>
      </trkpt>
      <trkpt lat="43.81943" lon="7.06214">
        <ele>1111.8</ele>
        <time>2019-12-30T12:36:50Z</time>
      </trkpt>
      <trkpt lat="43.81943" lon="7.06214">
        <ele>1111.9</ele>
        <time>2019-12-30T12:36:51Z</time>
      </trkpt>
      <trkpt lat="43.81944" lon="7.06214">
        <ele>1111.9</ele>
        <time>2019-12-30T12:36:52Z</time>
      </trkpt>
      <trkpt lat="43.81944" lon="7.06214">
        <ele>1111.9</ele>
        <time>2019-12-30T12:36:53Z</time>
      </trkpt>
      <trkpt lat="43.81944" lon="7.06214">
        <ele>1112</ele>
        <time>2019-12-30T12:36:54Z</time>
      </trkpt>
      <trkpt lat="43.81944" lon="7.06214">
        <ele>1112</ele>
        <time>2019-12-30T12:36:55Z</time>
      </trkpt>
      <trkpt lat="43.81944" lon="7.06214">
        <ele>1112</ele>
        <time>2019-12-30T12:36:56Z</time>
      </trkpt>
      <trkpt lat="43.81944" lon="7.06214">
        <ele>1112</ele>
        <time>2019-12-30T12:36:57Z</time>
      </trkpt>
      <trkpt lat="43.81944" lon="7.06214">
        <ele>1112</ele>
        <time>2019-12-30T12:36:58Z</time>
      </trkpt>
      <trkpt lat="43.81944" lon="7.06214">
        <ele>1112</ele>
        <time>2019-12-30T12:36:59Z</time>
      </trkpt>
      <trkpt lat="43.81944" lon="7.06214">
        <ele>1112</ele>
        <time>2019-12-30T12:37:00Z</time>
      </trkpt>
      <trkpt lat="43.81944" lon="7.06214">
        <ele>1112</ele>
        <time>2019-12-30T12:37:01Z</time>
      </trkpt>
      <trkpt lat="43.81944" lon="7.06214">
        <ele>1112</ele>
        <time>2019-12-30T12:37:02Z</time>
      </trkpt>
      <trkpt lat="43.81944" lon="7.06214">
        <ele>1112</ele>
        <time>2019-12-30T12:37:03Z</time>
      </trkpt>
      <trkpt lat="43.81944" lon="7.06215">
        <ele>1112.1</ele>
        <time>2019-12-30T12:37:04Z</time>
      </trkpt>
      <trkpt lat="43.81944" lon="7.06215">
        <ele>1112.1</ele>
        <time>2019-12-30T12:37:05Z</time>
      </trkpt>
      <trkpt lat="43.81944" lon="7.06215">
        <ele>1112.1</ele>
        <time>2019-12-30T12:37:06Z</time>
      </trkpt>
      <trkpt lat="43.81944" lon="7.06215">
        <ele>1112.2</ele>
        <time>2019-12-30T12:37:07Z</time>
      </trkpt>
      <trkpt lat="43.81944" lon="7.06215">
        <ele>1112.2</ele>
        <time>2019-12-30T12:37:08Z</time>
      </trkpt>
      <trkpt lat="43.81944" lon="7.06215">
        <ele>1112.2</ele>
        <time>2019-12-30T12:37:09Z</time>
      </trkpt>
      <trkpt lat="43.81944" lon="7.06215">
        <ele>1112.2</ele>
        <time>2019-12-30T12:37:10Z</time>
      </trkpt>
      <trkpt lat="43.81944" lon="7.06215">
        <ele>1112.2</ele>
        <time>2019-12-30T12:37:11Z</time>
      </trkpt>
      <trkpt lat="43.81944" lon="7.06216">
        <ele>1112.2</ele>
        <time>2019-12-30T12:37:12Z</time>
      </trkpt>
      <trkpt lat="43.81944" lon="7.06216">
        <ele>1112.2</ele>
        <time>2019-12-30T12:37:13Z</time>
      </trkpt>
      <trkpt lat="43.81945" lon="7.06216">
        <ele>1112.2</ele>
        <time>2019-12-30T12:37:14Z</time>
      </trkpt>
      <trkpt lat="43.81945" lon="7.06216">
        <ele>1112.2</ele>
        <time>2019-12-30T12:37:15Z</time>
      </trkpt>
      <trkpt lat="43.81945" lon="7.06216">
        <ele>1112.3</ele>
        <time>2019-12-30T12:37:16Z</time>
      </trkpt>
      <trkpt lat="43.81945" lon="7.06216">
        <ele>1112.4</ele>
        <time>2019-12-30T12:37:17Z</time>
      </trkpt>
      <trkpt lat="43.81945" lon="7.06216">
        <ele>1112.4</ele>
        <time>2019-12-30T12:37:18Z</time>
      </trkpt>
      <trkpt lat="43.81945" lon="7.06216">
        <ele>1112.4</ele>
        <time>2019-12-30T12:37:19Z</time>
      </trkpt>
      <trkpt lat="43.81945" lon="7.06216">
        <ele>1112.4</ele>
        <time>2019-12-30T12:37:20Z</time>
      </trkpt>
      <trkpt lat="43.81945" lon="7.06216">
        <ele>1112.4</ele>
        <time>2019-12-30T12:37:21Z</time>
      </trkpt>
      <trkpt lat="43.81945" lon="7.06216">
        <ele>1112.4</ele>
        <time>2019-12-30T12:37:22Z</time>
      </trkpt>
      <trkpt lat="43.81945" lon="7.06216">
        <ele>1112.4</ele>
        <time>2019-12-30T12:37:23Z</time>
      </trkpt>
      <trkpt lat="43.81945" lon="7.06216">
        <ele>1112.4</ele>
        <time>2019-12-30T12:37:24Z</time>
      </trkpt>
      <trkpt lat="43.81945" lon="7.06216">
        <ele>1112.4</ele>
        <time>2019-12-30T12:37:25Z</time>
      </trkpt>
      <trkpt lat="43.81945" lon="7.06216">
        <ele>1112.4</ele>
        <time>2019-12-30T12:37:26Z</time>
      </trkpt>
      <trkpt lat="43.81945" lon="7.06216">
        <ele>1112.4</ele>
        <time>2019-12-30T12:37:27Z</time>
      </trkpt>
      <trkpt lat="43.81945" lon="7.06216">
        <ele>1112.4</ele>
        <time>2019-12-30T12:37:28Z</time>
      </trkpt>
      <trkpt lat="43.81945" lon="7.06216">
        <ele>1112.4</ele>
        <time>2019-12-30T12:37:29Z</time>
      </trkpt>
      <trkpt lat="43.81945" lon="7.06216">
        <ele>1112.4</ele>
        <time>2019-12-30T12:37:30Z</time>
      </trkpt>
      <trkpt lat="43.81945" lon="7.06216">
        <ele>1112.4</ele>
        <time>2019-12-30T12:37:31Z</time>
      </trkpt>
      <trkpt lat="43.81945" lon="7.06216">
        <ele>1112.4</ele>
        <time>2019-12-30T12:37:32Z</time>
      </trkpt>
      <trkpt lat="43.81945" lon="7.06216">
        <ele>1112.5</ele>
        <time>2019-12-30T12:37:33Z</time>
      </trkpt>
      <trkpt lat="43.81945" lon="7.06216">
        <ele>1112.5</ele>
        <time>2019-12-30T12:37:34Z</time>
      </trkpt>
      <trkpt lat="43.81945" lon="7.06216">
        <ele>1112.5</ele>
        <time>2019-12-30T12:37:35Z</time>
      </trkpt>
      <trkpt lat="43.81945" lon="7.06216">
        <ele>1112.5</ele>
        <time>2019-12-30T12:37:36Z</time>
      </trkpt>
      <trkpt lat="43.81945" lon="7.06216">
        <ele>1112.5</ele>
        <time>2019-12-30T12:37:37Z</time>
      </trkpt>
      <trkpt lat="43.81945" lon="7.06216">
        <ele>1112.5</ele>
        <time>2019-12-30T12:37:38Z</time>
      </trkpt>
      <trkpt lat="43.81945" lon="7.06216">
        <ele>1112.5</ele>
        <time>2019-12-30T12:37:39Z</time>
      </trkpt>
      <trkpt lat="43.81945" lon="7.06216">
        <ele>1112.5</ele>
        <time>2019-12-30T12:37:40Z</time>
      </trkpt>
      <trkpt lat="43.81945" lon="7.06216">
        <ele>1112.5</ele>
        <time>2019-12-30T12:37:41Z</time>
      </trkpt>
      <trkpt lat="43.81945" lon="7.06216">
        <ele>1112.5</ele>
        <time>2019-12-30T12:37:42Z</time>
      </trkpt>
      <trkpt lat="43.81945" lon="7.06216">
        <ele>1112.5</ele>
        <time>2019-12-30T12:37:43Z</time>
      </trkpt>
      <trkpt lat="43.81945" lon="7.06216">
        <ele>1112.5</ele>
        <time>2019-12-30T12:37:44Z</time>
      </trkpt>
      <trkpt lat="43.81945" lon="7.06216">
        <ele>1112.5</ele>
        <time>2019-12-30T12:37:45Z</time>
      </trkpt>
      <trkpt lat="43.81945" lon="7.06216">
        <ele>1112.5</ele>
        <time>2019-12-30T12:37:46Z</time>
      </trkpt>
      <trkpt lat="43.81945" lon="7.06217">
        <ele>1112.5</ele>
        <time>2019-12-30T12:37:47Z</time>
      </trkpt>
      <trkpt lat="43.81944" lon="7.06217">
        <ele>1112.6</ele>
        <time>2019-12-30T12:37:48Z</time>
      </trkpt>
      <trkpt lat="43.81944" lon="7.06218">
        <ele>1112.7</ele>
        <time>2019-12-30T12:37:49Z</time>
      </trkpt>
      <trkpt lat="43.81944" lon="7.06219">
        <ele>1112.8</ele>
        <time>2019-12-30T12:37:50Z</time>
      </trkpt>
      <trkpt lat="43.81944" lon="7.06219">
        <ele>1112.8</ele>
        <time>2019-12-30T12:37:51Z</time>
      </trkpt>
      <trkpt lat="43.81945" lon="7.06219">
        <ele>1112.8</ele>
        <time>2019-12-30T12:37:52Z</time>
      </trkpt>
      <trkpt lat="43.81945" lon="7.06219">
        <ele>1113</ele>
        <time>2019-12-30T12:37:53Z</time>
      </trkpt>
      <trkpt lat="43.81945" lon="7.0622">
        <ele>1113</ele>
        <time>2019-12-30T12:37:54Z</time>
      </trkpt>
      <trkpt lat="43.81945" lon="7.0622">
        <ele>1113</ele>
        <time>2019-12-30T12:37:55Z</time>
      </trkpt>
      <trkpt lat="43.81945" lon="7.0622">
        <ele>1113</ele>
        <time>2019-12-30T12:37:56Z</time>
      </trkpt>
      <trkpt lat="43.81945" lon="7.0622">
        <ele>1113</ele>
        <time>2019-12-30T12:37:57Z</time>
      </trkpt>
      <trkpt lat="43.81945" lon="7.0622">
        <ele>1113</ele>
        <time>2019-12-30T12:37:58Z</time>
      </trkpt>
      <trkpt lat="43.81945" lon="7.0622">
        <ele>1113</ele>
        <time>2019-12-30T12:37:59Z</time>
      </trkpt>
      <trkpt lat="43.81945" lon="7.0622">
        <ele>1113</ele>
        <time>2019-12-30T12:38:00Z</time>
      </trkpt>
      <trkpt lat="43.81945" lon="7.0622">
        <ele>1113</ele>
        <time>2019-12-30T12:38:01Z</time>
      </trkpt>
      <trkpt lat="43.81945" lon="7.0622">
        <ele>1113</ele>
        <time>2019-12-30T12:38:02Z</time>
      </trkpt>
      <trkpt lat="43.81945" lon="7.0622">
        <ele>1113</ele>
        <time>2019-12-30T12:38:03Z</time>
      </trkpt>
      <trkpt lat="43.81945" lon="7.0622">
        <ele>1113</ele>
        <time>2019-12-30T12:38:04Z</time>
      </trkpt>
      <trkpt lat="43.81945" lon="7.0622">
        <ele>1113</ele>
        <time>2019-12-30T12:38:05Z</time>
      </trkpt>
      <trkpt lat="43.81945" lon="7.0622">
        <ele>1113</ele>
        <time>2019-12-30T12:38:06Z</time>
      </trkpt>
      <trkpt lat="43.81945" lon="7.0622">
        <ele>1113.1</ele>
        <time>2019-12-30T12:38:07Z</time>
      </trkpt>
      <trkpt lat="43.81945" lon="7.0622">
        <ele>1113.1</ele>
        <time>2019-12-30T12:38:08Z</time>
      </trkpt>
      <trkpt lat="43.81945" lon="7.0622">
        <ele>1113.1</ele>
        <time>2019-12-30T12:38:09Z</time>
      </trkpt>
      <trkpt lat="43.81945" lon="7.0622">
        <ele>1113.1</ele>
        <time>2019-12-30T12:38:10Z</time>
      </trkpt>
      <trkpt lat="43.81945" lon="7.0622">
        <ele>1113.1</ele>
        <time>2019-12-30T12:38:11Z</time>
      </trkpt>
      <trkpt lat="43.81945" lon="7.0622">
        <ele>1113.1</ele>
        <time>2019-12-30T12:38:12Z</time>
      </trkpt>
      <trkpt lat="43.81945" lon="7.0622">
        <ele>1113.1</ele>
        <time>2019-12-30T12:38:13Z</time>
      </trkpt>
      <trkpt lat="43.81945" lon="7.0622">
        <ele>1113.1</ele>
        <time>2019-12-30T12:38:14Z</time>
      </trkpt>
      <trkpt lat="43.81945" lon="7.0622">
        <ele>1113.1</ele>
        <time>2019-12-30T12:38:15Z</time>
      </trkpt>
      <trkpt lat="43.81945" lon="7.0622">
        <ele>1113.1</ele>
        <time>2019-12-30T12:38:16Z</time>
      </trkpt>
      <trkpt lat="43.81945" lon="7.0622">
        <ele>1113.1</ele>
        <time>2019-12-30T12:38:17Z</time>
      </trkpt>
      <trkpt lat="43.81945" lon="7.0622">
        <ele>1113.1</ele>
        <time>2019-12-30T12:38:18Z</time>
      </trkpt>
      <trkpt lat="43.81945" lon="7.0622">
        <ele>1113.1</ele>
        <time>2019-12-30T12:38:19Z</time>
      </trkpt>
      <trkpt lat="43.81945" lon="7.0622">
        <ele>1113.1</ele>
        <time>2019-12-30T12:38:20Z</time>
      </trkpt>
      <trkpt lat="43.81945" lon="7.0622">
        <ele>1113.1</ele>
        <time>2019-12-30T12:38:21Z</time>
      </trkpt>
      <trkpt lat="43.81945" lon="7.0622">
        <ele>1113.1</ele>
        <time>2019-12-30T12:38:22Z</time>
      </trkpt>
      <trkpt lat="43.81945" lon="7.0622">
        <ele>1113.1</ele>
        <time>2019-12-30T12:38:23Z</time>
      </trkpt>
      <trkpt lat="43.81945" lon="7.0622">
        <ele>1113.1</ele>
        <time>2019-12-30T12:38:24Z</time>
      </trkpt>
      <trkpt lat="43.81945" lon="7.0622">
        <ele>1113.1</ele>
        <time>2019-12-30T12:38:25Z</time>
      </trkpt>
      <trkpt lat="43.81945" lon="7.0622">
        <ele>1113.1</ele>
        <time>2019-12-30T12:38:26Z</time>
      </trkpt>
      <trkpt lat="43.81945" lon="7.0622">
        <ele>1113.1</ele>
        <time>2019-12-30T12:38:27Z</time>
      </trkpt>
      <trkpt lat="43.81945" lon="7.0622">
        <ele>1113.1</ele>
        <time>2019-12-30T12:38:28Z</time>
      </trkpt>
      <trkpt lat="43.81945" lon="7.0622">
        <ele>1113.1</ele>
        <time>2019-12-30T12:38:29Z</time>
      </trkpt>
      <trkpt lat="43.81945" lon="7.0622">
        <ele>1113.1</ele>
        <time>2019-12-30T12:38:30Z</time>
      </trkpt>
      <trkpt lat="43.81945" lon="7.0622">
        <ele>1113.1</ele>
        <time>2019-12-30T12:38:31Z</time>
      </trkpt>
      <trkpt lat="43.81945" lon="7.0622">
        <ele>1113.1</ele>
        <time>2019-12-30T12:38:32Z</time>
      </trkpt>
      <trkpt lat="43.81945" lon="7.0622">
        <ele>1113.1</ele>
        <time>2019-12-30T12:38:33Z</time>
      </trkpt>
      <trkpt lat="43.81945" lon="7.0622">
        <ele>1113.2</ele>
        <time>2019-12-30T12:38:34Z</time>
      </trkpt>
      <trkpt lat="43.81945" lon="7.0622">
        <ele>1113.2</ele>
        <time>2019-12-30T12:38:35Z</time>
      </trkpt>
      <trkpt lat="43.81946" lon="7.0622">
        <ele>1113.3</ele>
        <time>2019-12-30T12:38:36Z</time>
      </trkpt>
      <trkpt lat="43.81946" lon="7.0622">
        <ele>1113.5</ele>
        <time>2019-12-30T12:38:37Z</time>
      </trkpt>
      <trkpt lat="43.81947" lon="7.0622">
        <ele>1113.7</ele>
        <time>2019-12-30T12:38:38Z</time>
      </trkpt>
      <trkpt lat="43.81947" lon="7.0622">
        <ele>1113.8</ele>
        <time>2019-12-30T12:38:39Z</time>
      </trkpt>
      <trkpt lat="43.81947" lon="7.0622">
        <ele>1113.8</ele>
        <time>2019-12-30T12:38:40Z</time>
      </trkpt>
      <trkpt lat="43.81948" lon="7.06221">
        <ele>1113.9</ele>
        <time>2019-12-30T12:38:41Z</time>
      </trkpt>
      <trkpt lat="43.81948" lon="7.06221">
        <ele>1113.9</ele>
        <time>2019-12-30T12:38:42Z</time>
      </trkpt>
      <trkpt lat="43.81948" lon="7.06221">
        <ele>1113.9</ele>
        <time>2019-12-30T12:38:43Z</time>
      </trkpt>
      <trkpt lat="43.81948" lon="7.06221">
        <ele>1113.9</ele>
        <time>2019-12-30T12:38:44Z</time>
      </trkpt>
      <trkpt lat="43.81948" lon="7.06221">
        <ele>1114</ele>
        <time>2019-12-30T12:38:45Z</time>
      </trkpt>
      <trkpt lat="43.81948" lon="7.06221">
        <ele>1114</ele>
        <time>2019-12-30T12:38:46Z</time>
      </trkpt>
      <trkpt lat="43.81948" lon="7.06221">
        <ele>1114</ele>
        <time>2019-12-30T12:38:47Z</time>
      </trkpt>
      <trkpt lat="43.81948" lon="7.06221">
        <ele>1114.1</ele>
        <time>2019-12-30T12:38:48Z</time>
      </trkpt>
      <trkpt lat="43.81948" lon="7.06221">
        <ele>1114.1</ele>
        <time>2019-12-30T12:38:49Z</time>
      </trkpt>
      <trkpt lat="43.81948" lon="7.06222">
        <ele>1114.2</ele>
        <time>2019-12-30T12:38:50Z</time>
      </trkpt>
      <trkpt lat="43.81948" lon="7.06222">
        <ele>1114.2</ele>
        <time>2019-12-30T12:38:51Z</time>
      </trkpt>
      <trkpt lat="43.81948" lon="7.06222">
        <ele>1114.3</ele>
        <time>2019-12-30T12:38:52Z</time>
      </trkpt>
      <trkpt lat="43.81948" lon="7.06222">
        <ele>1114.3</ele>
        <time>2019-12-30T12:38:53Z</time>
      </trkpt>
      <trkpt lat="43.81948" lon="7.06222">
        <ele>1114.3</ele>
        <time>2019-12-30T12:38:54Z</time>
      </trkpt>
      <trkpt lat="43.81948" lon="7.06222">
        <ele>1114.3</ele>
        <time>2019-12-30T12:38:55Z</time>
      </trkpt>
      <trkpt lat="43.81948" lon="7.06222">
        <ele>1114.4</ele>
        <time>2019-12-30T12:38:56Z</time>
      </trkpt>
      <trkpt lat="43.81948" lon="7.06222">
        <ele>1114.4</ele>
        <time>2019-12-30T12:38:57Z</time>
      </trkpt>
      <trkpt lat="43.81948" lon="7.06222">
        <ele>1114.4</ele>
        <time>2019-12-30T12:38:58Z</time>
      </trkpt>
      <trkpt lat="43.81948" lon="7.06222">
        <ele>1114.4</ele>
        <time>2019-12-30T12:38:59Z</time>
      </trkpt>
      <trkpt lat="43.81948" lon="7.06222">
        <ele>1114.5</ele>
        <time>2019-12-30T12:39:00Z</time>
      </trkpt>
      <trkpt lat="43.81948" lon="7.06222">
        <ele>1114.5</ele>
        <time>2019-12-30T12:39:01Z</time>
      </trkpt>
      <trkpt lat="43.81948" lon="7.06222">
        <ele>1114.5</ele>
        <time>2019-12-30T12:39:02Z</time>
      </trkpt>
      <trkpt lat="43.81948" lon="7.06222">
        <ele>1114.5</ele>
        <time>2019-12-30T12:39:03Z</time>
      </trkpt>
      <trkpt lat="43.81948" lon="7.06222">
        <ele>1114.5</ele>
        <time>2019-12-30T12:39:04Z</time>
      </trkpt>
      <trkpt lat="43.81948" lon="7.06222">
        <ele>1114.5</ele>
        <time>2019-12-30T12:39:05Z</time>
      </trkpt>
      <trkpt lat="43.81948" lon="7.06222">
        <ele>1114.5</ele>
        <time>2019-12-30T12:39:06Z</time>
      </trkpt>
      <trkpt lat="43.81948" lon="7.06222">
        <ele>1114.5</ele>
        <time>2019-12-30T12:39:07Z</time>
      </trkpt>
      <trkpt lat="43.81948" lon="7.06222">
        <ele>1114.5</ele>
        <time>2019-12-30T12:39:08Z</time>
      </trkpt>
      <trkpt lat="43.81948" lon="7.06222">
        <ele>1114.5</ele>
        <time>2019-12-30T12:39:09Z</time>
      </trkpt>
      <trkpt lat="43.81948" lon="7.06222">
        <ele>1114.5</ele>
        <time>2019-12-30T12:39:10Z</time>
      </trkpt>
      <trkpt lat="43.81948" lon="7.06222">
        <ele>1114.5</ele>
        <time>2019-12-30T12:39:11Z</time>
      </trkpt>
      <trkpt lat="43.81948" lon="7.06222">
        <ele>1114.5</ele>
        <time>2019-12-30T12:39:12Z</time>
      </trkpt>
      <trkpt lat="43.81948" lon="7.06222">
        <ele>1114.5</ele>
        <time>2019-12-30T12:39:13Z</time>
      </trkpt>
      <trkpt lat="43.81948" lon="7.06222">
        <ele>1114.5</ele>
        <time>2019-12-30T12:39:14Z</time>
      </trkpt>
      <trkpt lat="43.81948" lon="7.06222">
        <ele>1114.5</ele>
        <time>2019-12-30T12:39:15Z</time>
      </trkpt>
      <trkpt lat="43.81948" lon="7.06222">
        <ele>1114.5</ele>
        <time>2019-12-30T12:39:16Z</time>
      </trkpt>
      <trkpt lat="43.81948" lon="7.06222">
        <ele>1114.5</ele>
        <time>2019-12-30T12:39:17Z</time>
      </trkpt>
      <trkpt lat="43.81948" lon="7.06222">
        <ele>1114.5</ele>
        <time>2019-12-30T12:39:18Z</time>
      </trkpt>
      <trkpt lat="43.81948" lon="7.06222">
        <ele>1114.5</ele>
        <time>2019-12-30T12:39:19Z</time>
      </trkpt>
      <trkpt lat="43.81948" lon="7.06222">
        <ele>1114.5</ele>
        <time>2019-12-30T12:39:20Z</time>
      </trkpt>
      <trkpt lat="43.81948" lon="7.06222">
        <ele>1114.5</ele>
        <time>2019-12-30T12:39:21Z</time>
      </trkpt>
      <trkpt lat="43.81948" lon="7.06223">
        <ele>1114.6</ele>
        <time>2019-12-30T12:39:22Z</time>
      </trkpt>
      <trkpt lat="43.81948" lon="7.06223">
        <ele>1114.7</ele>
        <time>2019-12-30T12:39:23Z</time>
      </trkpt>
      <trkpt lat="43.81949" lon="7.06223">
        <ele>1114.8</ele>
        <time>2019-12-30T12:39:24Z</time>
      </trkpt>
      <trkpt lat="43.81949" lon="7.06223">
        <ele>1114.8</ele>
        <time>2019-12-30T12:39:25Z</time>
      </trkpt>
      <trkpt lat="43.81948" lon="7.06223">
        <ele>1114.9</ele>
        <time>2019-12-30T12:39:26Z</time>
      </trkpt>
      <trkpt lat="43.81949" lon="7.06222">
        <ele>1115.1</ele>
        <time>2019-12-30T12:39:27Z</time>
      </trkpt>
      <trkpt lat="43.8195" lon="7.06221">
        <ele>1115.7</ele>
        <time>2019-12-30T12:39:28Z</time>
      </trkpt>
      <trkpt lat="43.81952" lon="7.0622">
        <ele>1116.3</ele>
        <time>2019-12-30T12:39:29Z</time>
      </trkpt>
      <trkpt lat="43.81953" lon="7.06219">
        <ele>1116.9</ele>
        <time>2019-12-30T12:39:30Z</time>
      </trkpt>
      <trkpt lat="43.81955" lon="7.06218">
        <ele>1117.4</ele>
        <time>2019-12-30T12:39:31Z</time>
      </trkpt>
      <trkpt lat="43.81956" lon="7.06216">
        <ele>1117.9</ele>
        <time>2019-12-30T12:39:32Z</time>
      </trkpt>
      <trkpt lat="43.81957" lon="7.06214">
        <ele>1118.4</ele>
        <time>2019-12-30T12:39:33Z</time>
      </trkpt>
      <trkpt lat="43.81957" lon="7.06212">
        <ele>1118.9</ele>
        <time>2019-12-30T12:39:34Z</time>
      </trkpt>
      <trkpt lat="43.81958" lon="7.06211">
        <ele>1119.1</ele>
        <time>2019-12-30T12:39:35Z</time>
      </trkpt>
      <trkpt lat="43.81958" lon="7.0621">
        <ele>1119.2</ele>
        <time>2019-12-30T12:39:36Z</time>
      </trkpt>
      <trkpt lat="43.81958" lon="7.06208">
        <ele>1119.3</ele>
        <time>2019-12-30T12:39:37Z</time>
      </trkpt>
      <trkpt lat="43.81958" lon="7.06207">
        <ele>1119.4</ele>
        <time>2019-12-30T12:39:38Z</time>
      </trkpt>
      <trkpt lat="43.81958" lon="7.06205">
        <ele>1119.6</ele>
        <time>2019-12-30T12:39:39Z</time>
      </trkpt>
      <trkpt lat="43.81958" lon="7.06203">
        <ele>1119.8</ele>
        <time>2019-12-30T12:39:40Z</time>
      </trkpt>
      <trkpt lat="43.81958" lon="7.06201">
        <ele>1120</ele>
        <time>2019-12-30T12:39:41Z</time>
      </trkpt>
      <trkpt lat="43.81958" lon="7.06197">
        <ele>1120.8</ele>
        <time>2019-12-30T12:39:42Z</time>
      </trkpt>
      <trkpt lat="43.81958" lon="7.06193">
        <ele>1121.7</ele>
        <time>2019-12-30T12:39:43Z</time>
      </trkpt>
      <trkpt lat="43.81958" lon="7.0619">
        <ele>1122.5</ele>
        <time>2019-12-30T12:39:44Z</time>
      </trkpt>
      <trkpt lat="43.81958" lon="7.06186">
        <ele>1123.1</ele>
        <time>2019-12-30T12:39:45Z</time>
      </trkpt>
      <trkpt lat="43.81959" lon="7.06183">
        <ele>1123.4</ele>
        <time>2019-12-30T12:39:46Z</time>
      </trkpt>
      <trkpt lat="43.8196" lon="7.0618">
        <ele>1123.7</ele>
        <time>2019-12-30T12:39:47Z</time>
      </trkpt>
      <trkpt lat="43.81961" lon="7.06178">
        <ele>1123.9</ele>
        <time>2019-12-30T12:39:48Z</time>
      </trkpt>
      <trkpt lat="43.81961" lon="7.06175">
        <ele>1124.4</ele>
        <time>2019-12-30T12:39:49Z</time>
      </trkpt>
      <trkpt lat="43.81961" lon="7.06172">
        <ele>1125</ele>
        <time>2019-12-30T12:39:50Z</time>
      </trkpt>
      <trkpt lat="43.8196" lon="7.06168">
        <ele>1125.8</ele>
        <time>2019-12-30T12:39:51Z</time>
      </trkpt>
      <trkpt lat="43.8196" lon="7.06165">
        <ele>1126.5</ele>
        <time>2019-12-30T12:39:52Z</time>
      </trkpt>
      <trkpt lat="43.8196" lon="7.06161">
        <ele>1126.9</ele>
        <time>2019-12-30T12:39:53Z</time>
      </trkpt>
      <trkpt lat="43.8196" lon="7.06157">
        <ele>1127.4</ele>
        <time>2019-12-30T12:39:54Z</time>
      </trkpt>
      <trkpt lat="43.81961" lon="7.06153">
        <ele>1127.9</ele>
        <time>2019-12-30T12:39:55Z</time>
      </trkpt>
      <trkpt lat="43.81961" lon="7.06148">
        <ele>1128.7</ele>
        <time>2019-12-30T12:39:56Z</time>
      </trkpt>
      <trkpt lat="43.81962" lon="7.06144">
        <ele>1129.5</ele>
        <time>2019-12-30T12:39:57Z</time>
      </trkpt>
      <trkpt lat="43.81962" lon="7.06141">
        <ele>1130.1</ele>
        <time>2019-12-30T12:39:58Z</time>
      </trkpt>
      <trkpt lat="43.81962" lon="7.06138">
        <ele>1130.4</ele>
        <time>2019-12-30T12:39:59Z</time>
      </trkpt>
      <trkpt lat="43.81963" lon="7.06135">
        <ele>1130.5</ele>
        <time>2019-12-30T12:40:00Z</time>
      </trkpt>
      <trkpt lat="43.81963" lon="7.06132">
        <ele>1130.7</ele>
        <time>2019-12-30T12:40:01Z</time>
      </trkpt>
      <trkpt lat="43.81963" lon="7.06129">
        <ele>1131</ele>
        <time>2019-12-30T12:40:02Z</time>
      </trkpt>
      <trkpt lat="43.81964" lon="7.06127">
        <ele>1131.2</ele>
        <time>2019-12-30T12:40:03Z</time>
      </trkpt>
      <trkpt lat="43.81964" lon="7.06124">
        <ele>1131.5</ele>
        <time>2019-12-30T12:40:04Z</time>
      </trkpt>
      <trkpt lat="43.81965" lon="7.06121">
        <ele>1131.8</ele>
        <time>2019-12-30T12:40:05Z</time>
      </trkpt>
      <trkpt lat="43.81965" lon="7.06118">
        <ele>1132.1</ele>
        <time>2019-12-30T12:40:06Z</time>
      </trkpt>
      <trkpt lat="43.81965" lon="7.06114">
        <ele>1132.5</ele>
        <time>2019-12-30T12:40:07Z</time>
      </trkpt>
      <trkpt lat="43.81964" lon="7.0611">
        <ele>1133</ele>
        <time>2019-12-30T12:40:08Z</time>
      </trkpt>
      <trkpt lat="43.81963" lon="7.06105">
        <ele>1133.4</ele>
        <time>2019-12-30T12:40:09Z</time>
      </trkpt>
      <trkpt lat="43.81961" lon="7.06102">
        <ele>1134</ele>
        <time>2019-12-30T12:40:10Z</time>
      </trkpt>
      <trkpt lat="43.81961" lon="7.06099">
        <ele>1134.5</ele>
        <time>2019-12-30T12:40:11Z</time>
      </trkpt>
      <trkpt lat="43.8196" lon="7.06096">
        <ele>1135</ele>
        <time>2019-12-30T12:40:12Z</time>
      </trkpt>
      <trkpt lat="43.8196" lon="7.06092">
        <ele>1135.4</ele>
        <time>2019-12-30T12:40:13Z</time>
      </trkpt>
      <trkpt lat="43.8196" lon="7.06089">
        <ele>1135.5</ele>
        <time>2019-12-30T12:40:14Z</time>
      </trkpt>
      <trkpt lat="43.81961" lon="7.06086">
        <ele>1135.7</ele>
        <time>2019-12-30T12:40:15Z</time>
      </trkpt>
      <trkpt lat="43.81961" lon="7.06081">
        <ele>1135.9</ele>
        <time>2019-12-30T12:40:16Z</time>
      </trkpt>
      <trkpt lat="43.81962" lon="7.06078">
        <ele>1136.1</ele>
        <time>2019-12-30T12:40:17Z</time>
      </trkpt>
      <trkpt lat="43.81962" lon="7.06075">
        <ele>1136.3</ele>
        <time>2019-12-30T12:40:18Z</time>
      </trkpt>
      <trkpt lat="43.81963" lon="7.06072">
        <ele>1136.4</ele>
        <time>2019-12-30T12:40:19Z</time>
      </trkpt>
      <trkpt lat="43.81963" lon="7.06066">
        <ele>1136.7</ele>
        <time>2019-12-30T12:40:20Z</time>
      </trkpt>
      <trkpt lat="43.81964" lon="7.06061">
        <ele>1136.9</ele>
        <time>2019-12-30T12:40:21Z</time>
      </trkpt>
      <trkpt lat="43.81965" lon="7.06058">
        <ele>1137</ele>
        <time>2019-12-30T12:40:22Z</time>
      </trkpt>
      <trkpt lat="43.81965" lon="7.06055">
        <ele>1137.1</ele>
        <time>2019-12-30T12:40:23Z</time>
      </trkpt>
      <trkpt lat="43.81965" lon="7.0605">
        <ele>1137.2</ele>
        <time>2019-12-30T12:40:24Z</time>
      </trkpt>
      <trkpt lat="43.81965" lon="7.06045">
        <ele>1137.3</ele>
        <time>2019-12-30T12:40:25Z</time>
      </trkpt>
      <trkpt lat="43.81965" lon="7.06042">
        <ele>1137.2</ele>
        <time>2019-12-30T12:40:26Z</time>
      </trkpt>
      <trkpt lat="43.81965" lon="7.06038">
        <ele>1137.1</ele>
        <time>2019-12-30T12:40:27Z</time>
      </trkpt>
      <trkpt lat="43.81964" lon="7.06034">
        <ele>1137</ele>
        <time>2019-12-30T12:40:28Z</time>
      </trkpt>
      <trkpt lat="43.81964" lon="7.06029">
        <ele>1136.9</ele>
        <time>2019-12-30T12:40:29Z</time>
      </trkpt>
      <trkpt lat="43.81963" lon="7.06025">
        <ele>1136.8</ele>
        <time>2019-12-30T12:40:30Z</time>
      </trkpt>
      <trkpt lat="43.81963" lon="7.06022">
        <ele>1136.8</ele>
        <time>2019-12-30T12:40:31Z</time>
      </trkpt>
      <trkpt lat="43.81962" lon="7.06019">
        <ele>1136.9</ele>
        <time>2019-12-30T12:40:32Z</time>
      </trkpt>
      <trkpt lat="43.81962" lon="7.06015">
        <ele>1137</ele>
        <time>2019-12-30T12:40:33Z</time>
      </trkpt>
      <trkpt lat="43.81961" lon="7.06011">
        <ele>1137.2</ele>
        <time>2019-12-30T12:40:34Z</time>
      </trkpt>
      <trkpt lat="43.81961" lon="7.06007">
        <ele>1137.2</ele>
        <time>2019-12-30T12:40:35Z</time>
      </trkpt>
      <trkpt lat="43.8196" lon="7.06004">
        <ele>1137.2</ele>
        <time>2019-12-30T12:40:36Z</time>
      </trkpt>
      <trkpt lat="43.8196" lon="7.06001">
        <ele>1137.1</ele>
        <time>2019-12-30T12:40:37Z</time>
      </trkpt>
      <trkpt lat="43.8196" lon="7.05997">
        <ele>1137.1</ele>
        <time>2019-12-30T12:40:38Z</time>
      </trkpt>
      <trkpt lat="43.81961" lon="7.05994">
        <ele>1137</ele>
        <time>2019-12-30T12:40:39Z</time>
      </trkpt>
      <trkpt lat="43.81961" lon="7.0599">
        <ele>1136.9</ele>
        <time>2019-12-30T12:40:40Z</time>
      </trkpt>
      <trkpt lat="43.81961" lon="7.05985">
        <ele>1136.8</ele>
        <time>2019-12-30T12:40:41Z</time>
      </trkpt>
      <trkpt lat="43.8196" lon="7.05978">
        <ele>1137.1</ele>
        <time>2019-12-30T12:40:42Z</time>
      </trkpt>
      <trkpt lat="43.81961" lon="7.05974">
        <ele>1137.2</ele>
        <time>2019-12-30T12:40:43Z</time>
      </trkpt>
      <trkpt lat="43.81961" lon="7.0597">
        <ele>1137.3</ele>
        <time>2019-12-30T12:40:44Z</time>
      </trkpt>
      <trkpt lat="43.81961" lon="7.05966">
        <ele>1137.4</ele>
        <time>2019-12-30T12:40:45Z</time>
      </trkpt>
      <trkpt lat="43.81962" lon="7.05962">
        <ele>1137.5</ele>
        <time>2019-12-30T12:40:46Z</time>
      </trkpt>
      <trkpt lat="43.81962" lon="7.05958">
        <ele>1137.6</ele>
        <time>2019-12-30T12:40:47Z</time>
      </trkpt>
      <trkpt lat="43.81963" lon="7.05954">
        <ele>1137.8</ele>
        <time>2019-12-30T12:40:48Z</time>
      </trkpt>
      <trkpt lat="43.81964" lon="7.0595">
        <ele>1138</ele>
        <time>2019-12-30T12:40:49Z</time>
      </trkpt>
      <trkpt lat="43.81964" lon="7.05944">
        <ele>1138.5</ele>
        <time>2019-12-30T12:40:50Z</time>
      </trkpt>
      <trkpt lat="43.81965" lon="7.05939">
        <ele>1138.9</ele>
        <time>2019-12-30T12:40:51Z</time>
      </trkpt>
      <trkpt lat="43.81966" lon="7.05935">
        <ele>1139</ele>
        <time>2019-12-30T12:40:52Z</time>
      </trkpt>
      <trkpt lat="43.81967" lon="7.0593">
        <ele>1139.2</ele>
        <time>2019-12-30T12:40:53Z</time>
      </trkpt>
      <trkpt lat="43.81969" lon="7.05925">
        <ele>1139.6</ele>
        <time>2019-12-30T12:40:54Z</time>
      </trkpt>
      <trkpt lat="43.81969" lon="7.05919">
        <ele>1140.1</ele>
        <time>2019-12-30T12:40:55Z</time>
      </trkpt>
      <trkpt lat="43.8197" lon="7.05911">
        <ele>1140.8</ele>
        <time>2019-12-30T12:40:56Z</time>
      </trkpt>
      <trkpt lat="43.8197" lon="7.05904">
        <ele>1141.2</ele>
        <time>2019-12-30T12:40:57Z</time>
      </trkpt>
      <trkpt lat="43.81971" lon="7.05899">
        <ele>1141.3</ele>
        <time>2019-12-30T12:40:58Z</time>
      </trkpt>
      <trkpt lat="43.81972" lon="7.05894">
        <ele>1141.6</ele>
        <time>2019-12-30T12:40:59Z</time>
      </trkpt>
      <trkpt lat="43.81974" lon="7.05887">
        <ele>1142.2</ele>
        <time>2019-12-30T12:41:00Z</time>
      </trkpt>
      <trkpt lat="43.81975" lon="7.05881">
        <ele>1142.9</ele>
        <time>2019-12-30T12:41:01Z</time>
      </trkpt>
      <trkpt lat="43.81977" lon="7.05876">
        <ele>1143.5</ele>
        <time>2019-12-30T12:41:02Z</time>
      </trkpt>
      <trkpt lat="43.81979" lon="7.05871">
        <ele>1144.1</ele>
        <time>2019-12-30T12:41:03Z</time>
      </trkpt>
      <trkpt lat="43.8198" lon="7.05866">
        <ele>1144.7</ele>
        <time>2019-12-30T12:41:04Z</time>
      </trkpt>
      <trkpt lat="43.81982" lon="7.05861">
        <ele>1145.5</ele>
        <time>2019-12-30T12:41:05Z</time>
      </trkpt>
      <trkpt lat="43.81984" lon="7.05856">
        <ele>1146.3</ele>
        <time>2019-12-30T12:41:06Z</time>
      </trkpt>
      <trkpt lat="43.81986" lon="7.05851">
        <ele>1147.1</ele>
        <time>2019-12-30T12:41:07Z</time>
      </trkpt>
      <trkpt lat="43.81987" lon="7.05847">
        <ele>1147.8</ele>
        <time>2019-12-30T12:41:08Z</time>
      </trkpt>
      <trkpt lat="43.81988" lon="7.05842">
        <ele>1148.5</ele>
        <time>2019-12-30T12:41:09Z</time>
      </trkpt>
      <trkpt lat="43.8199" lon="7.05838">
        <ele>1149</ele>
        <time>2019-12-30T12:41:10Z</time>
      </trkpt>
      <trkpt lat="43.81992" lon="7.05832">
        <ele>1149.6</ele>
        <time>2019-12-30T12:41:11Z</time>
      </trkpt>
      <trkpt lat="43.81996" lon="7.05822">
        <ele>1150.8</ele>
        <time>2019-12-30T12:41:12Z</time>
      </trkpt>
      <trkpt lat="43.81998" lon="7.05818">
        <ele>1151.1</ele>
        <time>2019-12-30T12:41:13Z</time>
      </trkpt>
      <trkpt lat="43.82" lon="7.05814">
        <ele>1151.4</ele>
        <time>2019-12-30T12:41:14Z</time>
      </trkpt>
      <trkpt lat="43.82002" lon="7.05811">
        <ele>1151.7</ele>
        <time>2019-12-30T12:41:15Z</time>
      </trkpt>
      <trkpt lat="43.82004" lon="7.05807">
        <ele>1152</ele>
        <time>2019-12-30T12:41:16Z</time>
      </trkpt>
      <trkpt lat="43.82006" lon="7.05802">
        <ele>1152.3</ele>
        <time>2019-12-30T12:41:17Z</time>
      </trkpt>
      <trkpt lat="43.82008" lon="7.05797">
        <ele>1152.6</ele>
        <time>2019-12-30T12:41:18Z</time>
      </trkpt>
      <trkpt lat="43.82009" lon="7.05792">
        <ele>1152.9</ele>
        <time>2019-12-30T12:41:19Z</time>
      </trkpt>
      <trkpt lat="43.82011" lon="7.05785">
        <ele>1153.1</ele>
        <time>2019-12-30T12:41:20Z</time>
      </trkpt>
      <trkpt lat="43.82012" lon="7.05777">
        <ele>1153.5</ele>
        <time>2019-12-30T12:41:21Z</time>
      </trkpt>
      <trkpt lat="43.82013" lon="7.0577">
        <ele>1154.4</ele>
        <time>2019-12-30T12:41:22Z</time>
      </trkpt>
      <trkpt lat="43.82014" lon="7.05763">
        <ele>1154.9</ele>
        <time>2019-12-30T12:41:23Z</time>
      </trkpt>
      <trkpt lat="43.82016" lon="7.05757">
        <ele>1155.3</ele>
        <time>2019-12-30T12:41:24Z</time>
      </trkpt>
      <trkpt lat="43.82017" lon="7.05751">
        <ele>1155.9</ele>
        <time>2019-12-30T12:41:25Z</time>
      </trkpt>
      <trkpt lat="43.82017" lon="7.05746">
        <ele>1156.4</ele>
        <time>2019-12-30T12:41:26Z</time>
      </trkpt>
      <trkpt lat="43.82017" lon="7.05741">
        <ele>1157.2</ele>
        <time>2019-12-30T12:41:27Z</time>
      </trkpt>
      <trkpt lat="43.82016" lon="7.05737">
        <ele>1157.8</ele>
        <time>2019-12-30T12:41:28Z</time>
      </trkpt>
      <trkpt lat="43.82015" lon="7.05733">
        <ele>1158.5</ele>
        <time>2019-12-30T12:41:29Z</time>
      </trkpt>
      <trkpt lat="43.82013" lon="7.0573">
        <ele>1158.6</ele>
        <time>2019-12-30T12:41:30Z</time>
      </trkpt>
      <trkpt lat="43.82011" lon="7.05725">
        <ele>1158.6</ele>
        <time>2019-12-30T12:41:31Z</time>
      </trkpt>
      <trkpt lat="43.82008" lon="7.05721">
        <ele>1158.6</ele>
        <time>2019-12-30T12:41:32Z</time>
      </trkpt>
      <trkpt lat="43.82004" lon="7.05716">
        <ele>1158.7</ele>
        <time>2019-12-30T12:41:33Z</time>
      </trkpt>
      <trkpt lat="43.82001" lon="7.05711">
        <ele>1158.9</ele>
        <time>2019-12-30T12:41:34Z</time>
      </trkpt>
      <trkpt lat="43.81999" lon="7.05707">
        <ele>1159.1</ele>
        <time>2019-12-30T12:41:35Z</time>
      </trkpt>
      <trkpt lat="43.81993" lon="7.05699">
        <ele>1159.5</ele>
        <time>2019-12-30T12:41:36Z</time>
      </trkpt>
      <trkpt lat="43.81991" lon="7.05696">
        <ele>1159.7</ele>
        <time>2019-12-30T12:41:37Z</time>
      </trkpt>
      <trkpt lat="43.81988" lon="7.05693">
        <ele>1159.9</ele>
        <time>2019-12-30T12:41:38Z</time>
      </trkpt>
      <trkpt lat="43.81986" lon="7.0569">
        <ele>1160.2</ele>
        <time>2019-12-30T12:41:39Z</time>
      </trkpt>
      <trkpt lat="43.81984" lon="7.05687">
        <ele>1160.5</ele>
        <time>2019-12-30T12:41:40Z</time>
      </trkpt>
      <trkpt lat="43.8198" lon="7.05683">
        <ele>1160.7</ele>
        <time>2019-12-30T12:41:41Z</time>
      </trkpt>
      <trkpt lat="43.81977" lon="7.05678">
        <ele>1160.9</ele>
        <time>2019-12-30T12:41:42Z</time>
      </trkpt>
      <trkpt lat="43.81974" lon="7.05673">
        <ele>1161.1</ele>
        <time>2019-12-30T12:41:43Z</time>
      </trkpt>
      <trkpt lat="43.81971" lon="7.05669">
        <ele>1161.2</ele>
        <time>2019-12-30T12:41:44Z</time>
      </trkpt>
      <trkpt lat="43.81968" lon="7.05665">
        <ele>1161.1</ele>
        <time>2019-12-30T12:41:45Z</time>
      </trkpt>
      <trkpt lat="43.81965" lon="7.05661">
        <ele>1160.9</ele>
        <time>2019-12-30T12:41:46Z</time>
      </trkpt>
      <trkpt lat="43.81962" lon="7.05658">
        <ele>1160.8</ele>
        <time>2019-12-30T12:41:47Z</time>
      </trkpt>
      <trkpt lat="43.8196" lon="7.05654">
        <ele>1160.7</ele>
        <time>2019-12-30T12:41:48Z</time>
      </trkpt>
      <trkpt lat="43.81957" lon="7.05651">
        <ele>1160.5</ele>
        <time>2019-12-30T12:41:49Z</time>
      </trkpt>
      <trkpt lat="43.81955" lon="7.05648">
        <ele>1160.3</ele>
        <time>2019-12-30T12:41:50Z</time>
      </trkpt>
      <trkpt lat="43.81953" lon="7.05645">
        <ele>1160.2</ele>
        <time>2019-12-30T12:41:51Z</time>
      </trkpt>
      <trkpt lat="43.81951" lon="7.05642">
        <ele>1160.1</ele>
        <time>2019-12-30T12:41:52Z</time>
      </trkpt>
      <trkpt lat="43.81949" lon="7.05638">
        <ele>1160.2</ele>
        <time>2019-12-30T12:41:53Z</time>
      </trkpt>
      <trkpt lat="43.81947" lon="7.05635">
        <ele>1160.3</ele>
        <time>2019-12-30T12:41:54Z</time>
      </trkpt>
      <trkpt lat="43.81945" lon="7.05631">
        <ele>1160.3</ele>
        <time>2019-12-30T12:41:55Z</time>
      </trkpt>
      <trkpt lat="43.81943" lon="7.05628">
        <ele>1160.3</ele>
        <time>2019-12-30T12:41:56Z</time>
      </trkpt>
      <trkpt lat="43.81942" lon="7.05626">
        <ele>1160.3</ele>
        <time>2019-12-30T12:41:57Z</time>
      </trkpt>
      <trkpt lat="43.8194" lon="7.05623">
        <ele>1160.3</ele>
        <time>2019-12-30T12:41:58Z</time>
      </trkpt>
      <trkpt lat="43.81938" lon="7.05621">
        <ele>1160.4</ele>
        <time>2019-12-30T12:41:59Z</time>
      </trkpt>
      <trkpt lat="43.81937" lon="7.05619">
        <ele>1160.4</ele>
        <time>2019-12-30T12:42:00Z</time>
      </trkpt>
      <trkpt lat="43.81936" lon="7.05617">
        <ele>1160.4</ele>
        <time>2019-12-30T12:42:01Z</time>
      </trkpt>
      <trkpt lat="43.81933" lon="7.05614">
        <ele>1160.5</ele>
        <time>2019-12-30T12:42:02Z</time>
      </trkpt>
      <trkpt lat="43.81932" lon="7.05612">
        <ele>1160.5</ele>
        <time>2019-12-30T12:42:03Z</time>
      </trkpt>
      <trkpt lat="43.81931" lon="7.0561">
        <ele>1160.5</ele>
        <time>2019-12-30T12:42:04Z</time>
      </trkpt>
      <trkpt lat="43.81929" lon="7.05607">
        <ele>1160.5</ele>
        <time>2019-12-30T12:42:05Z</time>
      </trkpt>
      <trkpt lat="43.81927" lon="7.05604">
        <ele>1160.4</ele>
        <time>2019-12-30T12:42:06Z</time>
      </trkpt>
      <trkpt lat="43.81924" lon="7.05602">
        <ele>1160.3</ele>
        <time>2019-12-30T12:42:07Z</time>
      </trkpt>
      <trkpt lat="43.81922" lon="7.05599">
        <ele>1160.4</ele>
        <time>2019-12-30T12:42:08Z</time>
      </trkpt>
      <trkpt lat="43.81919" lon="7.05597">
        <ele>1160.4</ele>
        <time>2019-12-30T12:42:09Z</time>
      </trkpt>
      <trkpt lat="43.81917" lon="7.05595">
        <ele>1160.5</ele>
        <time>2019-12-30T12:42:10Z</time>
      </trkpt>
      <trkpt lat="43.81914" lon="7.05593">
        <ele>1160.4</ele>
        <time>2019-12-30T12:42:11Z</time>
      </trkpt>
      <trkpt lat="43.81912" lon="7.05592">
        <ele>1160.4</ele>
        <time>2019-12-30T12:42:12Z</time>
      </trkpt>
      <trkpt lat="43.8191" lon="7.0559">
        <ele>1160.3</ele>
        <time>2019-12-30T12:42:13Z</time>
      </trkpt>
      <trkpt lat="43.81909" lon="7.05589">
        <ele>1160.3</ele>
        <time>2019-12-30T12:42:14Z</time>
      </trkpt>
      <trkpt lat="43.81907" lon="7.05587">
        <ele>1160.4</ele>
        <time>2019-12-30T12:42:15Z</time>
      </trkpt>
      <trkpt lat="43.81905" lon="7.05586">
        <ele>1160.4</ele>
        <time>2019-12-30T12:42:16Z</time>
      </trkpt>
      <trkpt lat="43.81903" lon="7.05585">
        <ele>1160.5</ele>
        <time>2019-12-30T12:42:17Z</time>
      </trkpt>
      <trkpt lat="43.81902" lon="7.05583">
        <ele>1160.6</ele>
        <time>2019-12-30T12:42:18Z</time>
      </trkpt>
      <trkpt lat="43.81899" lon="7.05582">
        <ele>1160.6</ele>
        <time>2019-12-30T12:42:19Z</time>
      </trkpt>
      <trkpt lat="43.81897" lon="7.0558">
        <ele>1160.6</ele>
        <time>2019-12-30T12:42:20Z</time>
      </trkpt>
      <trkpt lat="43.81894" lon="7.05577">
        <ele>1160.6</ele>
        <time>2019-12-30T12:42:21Z</time>
      </trkpt>
      <trkpt lat="43.81892" lon="7.05574">
        <ele>1160.8</ele>
        <time>2019-12-30T12:42:22Z</time>
      </trkpt>
      <trkpt lat="43.81889" lon="7.0557">
        <ele>1160.9</ele>
        <time>2019-12-30T12:42:23Z</time>
      </trkpt>
      <trkpt lat="43.81886" lon="7.05567">
        <ele>1161.1</ele>
        <time>2019-12-30T12:42:24Z</time>
      </trkpt>
      <trkpt lat="43.81884" lon="7.05564">
        <ele>1161.2</ele>
        <time>2019-12-30T12:42:25Z</time>
      </trkpt>
      <trkpt lat="43.81882" lon="7.05562">
        <ele>1161.3</ele>
        <time>2019-12-30T12:42:26Z</time>
      </trkpt>
      <trkpt lat="43.81881" lon="7.0556">
        <ele>1161.4</ele>
        <time>2019-12-30T12:42:27Z</time>
      </trkpt>
      <trkpt lat="43.81879" lon="7.05557">
        <ele>1161.6</ele>
        <time>2019-12-30T12:42:28Z</time>
      </trkpt>
      <trkpt lat="43.81877" lon="7.05554">
        <ele>1161.8</ele>
        <time>2019-12-30T12:42:29Z</time>
      </trkpt>
      <trkpt lat="43.81875" lon="7.05551">
        <ele>1162</ele>
        <time>2019-12-30T12:42:30Z</time>
      </trkpt>
      <trkpt lat="43.81873" lon="7.05547">
        <ele>1162.3</ele>
        <time>2019-12-30T12:42:31Z</time>
      </trkpt>
      <trkpt lat="43.8187" lon="7.05543">
        <ele>1162.6</ele>
        <time>2019-12-30T12:42:32Z</time>
      </trkpt>
      <trkpt lat="43.81867" lon="7.05539">
        <ele>1162.9</ele>
        <time>2019-12-30T12:42:33Z</time>
      </trkpt>
      <trkpt lat="43.81865" lon="7.05535">
        <ele>1163.3</ele>
        <time>2019-12-30T12:42:34Z</time>
      </trkpt>
      <trkpt lat="43.81862" lon="7.05531">
        <ele>1163.6</ele>
        <time>2019-12-30T12:42:35Z</time>
      </trkpt>
      <trkpt lat="43.81859" lon="7.05528">
        <ele>1163.7</ele>
        <time>2019-12-30T12:42:36Z</time>
      </trkpt>
      <trkpt lat="43.81857" lon="7.05525">
        <ele>1163.8</ele>
        <time>2019-12-30T12:42:37Z</time>
      </trkpt>
      <trkpt lat="43.81855" lon="7.05522">
        <ele>1164.1</ele>
        <time>2019-12-30T12:42:38Z</time>
      </trkpt>
      <trkpt lat="43.81853" lon="7.0552">
        <ele>1164.3</ele>
        <time>2019-12-30T12:42:39Z</time>
      </trkpt>
      <trkpt lat="43.8185" lon="7.05519">
        <ele>1164.4</ele>
        <time>2019-12-30T12:42:40Z</time>
      </trkpt>
      <trkpt lat="43.81848" lon="7.05517">
        <ele>1164.7</ele>
        <time>2019-12-30T12:42:41Z</time>
      </trkpt>
      <trkpt lat="43.81846" lon="7.05515">
        <ele>1164.9</ele>
        <time>2019-12-30T12:42:42Z</time>
      </trkpt>
      <trkpt lat="43.81844" lon="7.05513">
        <ele>1165.1</ele>
        <time>2019-12-30T12:42:43Z</time>
      </trkpt>
      <trkpt lat="43.81842" lon="7.0551">
        <ele>1165.4</ele>
        <time>2019-12-30T12:42:44Z</time>
      </trkpt>
      <trkpt lat="43.8184" lon="7.05508">
        <ele>1165.6</ele>
        <time>2019-12-30T12:42:45Z</time>
      </trkpt>
      <trkpt lat="43.81838" lon="7.05505">
        <ele>1165.9</ele>
        <time>2019-12-30T12:42:46Z</time>
      </trkpt>
      <trkpt lat="43.81837" lon="7.05503">
        <ele>1166.1</ele>
        <time>2019-12-30T12:42:47Z</time>
      </trkpt>
      <trkpt lat="43.81835" lon="7.055">
        <ele>1166.4</ele>
        <time>2019-12-30T12:42:48Z</time>
      </trkpt>
      <trkpt lat="43.81834" lon="7.05497">
        <ele>1166.7</ele>
        <time>2019-12-30T12:42:49Z</time>
      </trkpt>
      <trkpt lat="43.81833" lon="7.05494">
        <ele>1167</ele>
        <time>2019-12-30T12:42:50Z</time>
      </trkpt>
      <trkpt lat="43.81831" lon="7.05491">
        <ele>1167.3</ele>
        <time>2019-12-30T12:42:51Z</time>
      </trkpt>
      <trkpt lat="43.81828" lon="7.05487">
        <ele>1167.6</ele>
        <time>2019-12-30T12:42:52Z</time>
      </trkpt>
      <trkpt lat="43.81826" lon="7.05484">
        <ele>1167.9</ele>
        <time>2019-12-30T12:42:53Z</time>
      </trkpt>
      <trkpt lat="43.81823" lon="7.0548">
        <ele>1168.3</ele>
        <time>2019-12-30T12:42:54Z</time>
      </trkpt>
      <trkpt lat="43.81821" lon="7.05478">
        <ele>1168.7</ele>
        <time>2019-12-30T12:42:55Z</time>
      </trkpt>
      <trkpt lat="43.81819" lon="7.05477">
        <ele>1169.1</ele>
        <time>2019-12-30T12:42:56Z</time>
      </trkpt>
      <trkpt lat="43.81817" lon="7.05476">
        <ele>1169.4</ele>
        <time>2019-12-30T12:42:57Z</time>
      </trkpt>
      <trkpt lat="43.81815" lon="7.05475">
        <ele>1169.6</ele>
        <time>2019-12-30T12:42:58Z</time>
      </trkpt>
      <trkpt lat="43.81813" lon="7.05475">
        <ele>1169.9</ele>
        <time>2019-12-30T12:42:59Z</time>
      </trkpt>
      <trkpt lat="43.81811" lon="7.05473">
        <ele>1170.1</ele>
        <time>2019-12-30T12:43:00Z</time>
      </trkpt>
      <trkpt lat="43.81808" lon="7.05471">
        <ele>1170.3</ele>
        <time>2019-12-30T12:43:01Z</time>
      </trkpt>
      <trkpt lat="43.81805" lon="7.05468">
        <ele>1170.5</ele>
        <time>2019-12-30T12:43:02Z</time>
      </trkpt>
      <trkpt lat="43.81803" lon="7.05466">
        <ele>1170.8</ele>
        <time>2019-12-30T12:43:03Z</time>
      </trkpt>
      <trkpt lat="43.81801" lon="7.05464">
        <ele>1171.1</ele>
        <time>2019-12-30T12:43:04Z</time>
      </trkpt>
      <trkpt lat="43.81799" lon="7.05462">
        <ele>1171.3</ele>
        <time>2019-12-30T12:43:05Z</time>
      </trkpt>
      <trkpt lat="43.81797" lon="7.05461">
        <ele>1171.6</ele>
        <time>2019-12-30T12:43:06Z</time>
      </trkpt>
      <trkpt lat="43.81795" lon="7.0546">
        <ele>1171.7</ele>
        <time>2019-12-30T12:43:07Z</time>
      </trkpt>
      <trkpt lat="43.81792" lon="7.05459">
        <ele>1171.9</ele>
        <time>2019-12-30T12:43:08Z</time>
      </trkpt>
      <trkpt lat="43.81789" lon="7.05457">
        <ele>1172.1</ele>
        <time>2019-12-30T12:43:09Z</time>
      </trkpt>
      <trkpt lat="43.81786" lon="7.05455">
        <ele>1172.1</ele>
        <time>2019-12-30T12:43:10Z</time>
      </trkpt>
      <trkpt lat="43.81784" lon="7.05453">
        <ele>1172.1</ele>
        <time>2019-12-30T12:43:11Z</time>
      </trkpt>
      <trkpt lat="43.81782" lon="7.05451">
        <ele>1172.2</ele>
        <time>2019-12-30T12:43:12Z</time>
      </trkpt>
      <trkpt lat="43.8178" lon="7.05448">
        <ele>1172.5</ele>
        <time>2019-12-30T12:43:13Z</time>
      </trkpt>
      <trkpt lat="43.81777" lon="7.05445">
        <ele>1172.8</ele>
        <time>2019-12-30T12:43:14Z</time>
      </trkpt>
      <trkpt lat="43.81773" lon="7.05443">
        <ele>1173.2</ele>
        <time>2019-12-30T12:43:15Z</time>
      </trkpt>
      <trkpt lat="43.81769" lon="7.05441">
        <ele>1173.4</ele>
        <time>2019-12-30T12:43:16Z</time>
      </trkpt>
      <trkpt lat="43.81766" lon="7.0544">
        <ele>1173.5</ele>
        <time>2019-12-30T12:43:17Z</time>
      </trkpt>
      <trkpt lat="43.81763" lon="7.0544">
        <ele>1173.6</ele>
        <time>2019-12-30T12:43:18Z</time>
      </trkpt>
      <trkpt lat="43.81759" lon="7.0544">
        <ele>1173.9</ele>
        <time>2019-12-30T12:43:19Z</time>
      </trkpt>
      <trkpt lat="43.81756" lon="7.0544">
        <ele>1174.2</ele>
        <time>2019-12-30T12:43:20Z</time>
      </trkpt>
      <trkpt lat="43.81752" lon="7.0544">
        <ele>1174.4</ele>
        <time>2019-12-30T12:43:21Z</time>
      </trkpt>
      <trkpt lat="43.81749" lon="7.05439">
        <ele>1174.5</ele>
        <time>2019-12-30T12:43:22Z</time>
      </trkpt>
      <trkpt lat="43.81745" lon="7.05439">
        <ele>1174.5</ele>
        <time>2019-12-30T12:43:23Z</time>
      </trkpt>
      <trkpt lat="43.81742" lon="7.05439">
        <ele>1174.7</ele>
        <time>2019-12-30T12:43:24Z</time>
      </trkpt>
      <trkpt lat="43.81739" lon="7.05439">
        <ele>1174.8</ele>
        <time>2019-12-30T12:43:25Z</time>
      </trkpt>
      <trkpt lat="43.81735" lon="7.0544">
        <ele>1174.9</ele>
        <time>2019-12-30T12:43:26Z</time>
      </trkpt>
      <trkpt lat="43.81732" lon="7.05441">
        <ele>1175</ele>
        <time>2019-12-30T12:43:27Z</time>
      </trkpt>
      <trkpt lat="43.81729" lon="7.05442">
        <ele>1175.1</ele>
        <time>2019-12-30T12:43:28Z</time>
      </trkpt>
      <trkpt lat="43.81726" lon="7.05443">
        <ele>1175.2</ele>
        <time>2019-12-30T12:43:29Z</time>
      </trkpt>
      <trkpt lat="43.81723" lon="7.05445">
        <ele>1175.2</ele>
        <time>2019-12-30T12:43:30Z</time>
      </trkpt>
      <trkpt lat="43.8172" lon="7.05447">
        <ele>1175.2</ele>
        <time>2019-12-30T12:43:31Z</time>
      </trkpt>
      <trkpt lat="43.81718" lon="7.05448">
        <ele>1175.1</ele>
        <time>2019-12-30T12:43:32Z</time>
      </trkpt>
      <trkpt lat="43.81715" lon="7.0545">
        <ele>1175</ele>
        <time>2019-12-30T12:43:33Z</time>
      </trkpt>
      <trkpt lat="43.81712" lon="7.05451">
        <ele>1174.9</ele>
        <time>2019-12-30T12:43:34Z</time>
      </trkpt>
      <trkpt lat="43.8171" lon="7.05452">
        <ele>1174.8</ele>
        <time>2019-12-30T12:43:35Z</time>
      </trkpt>
      <trkpt lat="43.81707" lon="7.05453">
        <ele>1174.7</ele>
        <time>2019-12-30T12:43:36Z</time>
      </trkpt>
      <trkpt lat="43.81703" lon="7.05454">
        <ele>1174.4</ele>
        <time>2019-12-30T12:43:37Z</time>
      </trkpt>
      <trkpt lat="43.81699" lon="7.05454">
        <ele>1174.2</ele>
        <time>2019-12-30T12:43:38Z</time>
      </trkpt>
      <trkpt lat="43.81695" lon="7.05452">
        <ele>1174.3</ele>
        <time>2019-12-30T12:43:39Z</time>
      </trkpt>
      <trkpt lat="43.81692" lon="7.05452">
        <ele>1174.3</ele>
        <time>2019-12-30T12:43:40Z</time>
      </trkpt>
      <trkpt lat="43.81689" lon="7.05452">
        <ele>1174.2</ele>
        <time>2019-12-30T12:43:41Z</time>
      </trkpt>
      <trkpt lat="43.81686" lon="7.0545">
        <ele>1174.1</ele>
        <time>2019-12-30T12:43:42Z</time>
      </trkpt>
      <trkpt lat="43.81684" lon="7.05448">
        <ele>1174</ele>
        <time>2019-12-30T12:43:43Z</time>
      </trkpt>
      <trkpt lat="43.81681" lon="7.05446">
        <ele>1174</ele>
        <time>2019-12-30T12:43:44Z</time>
      </trkpt>
      <trkpt lat="43.81679" lon="7.05444">
        <ele>1173.9</ele>
        <time>2019-12-30T12:43:45Z</time>
      </trkpt>
      <trkpt lat="43.81677" lon="7.0544">
        <ele>1173.9</ele>
        <time>2019-12-30T12:43:46Z</time>
      </trkpt>
      <trkpt lat="43.81676" lon="7.05436">
        <ele>1174</ele>
        <time>2019-12-30T12:43:47Z</time>
      </trkpt>
      <trkpt lat="43.81676" lon="7.05433">
        <ele>1174</ele>
        <time>2019-12-30T12:43:48Z</time>
      </trkpt>
      <trkpt lat="43.81675" lon="7.0543">
        <ele>1174.1</ele>
        <time>2019-12-30T12:43:49Z</time>
      </trkpt>
      <trkpt lat="43.81674" lon="7.05426">
        <ele>1174.3</ele>
        <time>2019-12-30T12:43:50Z</time>
      </trkpt>
      <trkpt lat="43.81673" lon="7.05423">
        <ele>1174.4</ele>
        <time>2019-12-30T12:43:51Z</time>
      </trkpt>
      <trkpt lat="43.81672" lon="7.05419">
        <ele>1174.6</ele>
        <time>2019-12-30T12:43:52Z</time>
      </trkpt>
      <trkpt lat="43.81672" lon="7.05417">
        <ele>1174.8</ele>
        <time>2019-12-30T12:43:53Z</time>
      </trkpt>
      <trkpt lat="43.81672" lon="7.05414">
        <ele>1174.9</ele>
        <time>2019-12-30T12:43:54Z</time>
      </trkpt>
      <trkpt lat="43.81671" lon="7.05411">
        <ele>1175.1</ele>
        <time>2019-12-30T12:43:55Z</time>
      </trkpt>
      <trkpt lat="43.8167" lon="7.05408">
        <ele>1175.3</ele>
        <time>2019-12-30T12:43:56Z</time>
      </trkpt>
      <trkpt lat="43.8167" lon="7.05405">
        <ele>1175.5</ele>
        <time>2019-12-30T12:43:57Z</time>
      </trkpt>
      <trkpt lat="43.81669" lon="7.05402">
        <ele>1175.6</ele>
        <time>2019-12-30T12:43:58Z</time>
      </trkpt>
      <trkpt lat="43.81668" lon="7.05399">
        <ele>1175.8</ele>
        <time>2019-12-30T12:43:59Z</time>
      </trkpt>
      <trkpt lat="43.81667" lon="7.05396">
        <ele>1176</ele>
        <time>2019-12-30T12:44:00Z</time>
      </trkpt>
      <trkpt lat="43.81666" lon="7.05394">
        <ele>1176.3</ele>
        <time>2019-12-30T12:44:01Z</time>
      </trkpt>
      <trkpt lat="43.81665" lon="7.05391">
        <ele>1176.5</ele>
        <time>2019-12-30T12:44:02Z</time>
      </trkpt>
      <trkpt lat="43.81665" lon="7.05389">
        <ele>1176.7</ele>
        <time>2019-12-30T12:44:03Z</time>
      </trkpt>
      <trkpt lat="43.81664" lon="7.05387">
        <ele>1176.8</ele>
        <time>2019-12-30T12:44:04Z</time>
      </trkpt>
      <trkpt lat="43.81664" lon="7.05384">
        <ele>1176.9</ele>
        <time>2019-12-30T12:44:05Z</time>
      </trkpt>
      <trkpt lat="43.81663" lon="7.05382">
        <ele>1177.1</ele>
        <time>2019-12-30T12:44:06Z</time>
      </trkpt>
      <trkpt lat="43.81663" lon="7.0538">
        <ele>1177.2</ele>
        <time>2019-12-30T12:44:07Z</time>
      </trkpt>
      <trkpt lat="43.81663" lon="7.05378">
        <ele>1177.3</ele>
        <time>2019-12-30T12:44:08Z</time>
      </trkpt>
      <trkpt lat="43.81662" lon="7.05376">
        <ele>1177.4</ele>
        <time>2019-12-30T12:44:09Z</time>
      </trkpt>
      <trkpt lat="43.81661" lon="7.05375">
        <ele>1177.6</ele>
        <time>2019-12-30T12:44:10Z</time>
      </trkpt>
      <trkpt lat="43.8166" lon="7.05374">
        <ele>1177.9</ele>
        <time>2019-12-30T12:44:11Z</time>
      </trkpt>
      <trkpt lat="43.81659" lon="7.05373">
        <ele>1178.1</ele>
        <time>2019-12-30T12:44:12Z</time>
      </trkpt>
      <trkpt lat="43.81658" lon="7.05372">
        <ele>1178.3</ele>
        <time>2019-12-30T12:44:13Z</time>
      </trkpt>
      <trkpt lat="43.81657" lon="7.05371">
        <ele>1178.4</ele>
        <time>2019-12-30T12:44:14Z</time>
      </trkpt>
      <trkpt lat="43.81657" lon="7.05371">
        <ele>1178.5</ele>
        <time>2019-12-30T12:44:15Z</time>
      </trkpt>
      <trkpt lat="43.81656" lon="7.05371">
        <ele>1178.6</ele>
        <time>2019-12-30T12:44:16Z</time>
      </trkpt>
      <trkpt lat="43.81656" lon="7.05371">
        <ele>1178.6</ele>
        <time>2019-12-30T12:44:17Z</time>
      </trkpt>
      <trkpt lat="43.81656" lon="7.05371">
        <ele>1178.6</ele>
        <time>2019-12-30T12:44:18Z</time>
      </trkpt>
      <trkpt lat="43.81656" lon="7.05371">
        <ele>1178.6</ele>
        <time>2019-12-30T12:44:19Z</time>
      </trkpt>
      <trkpt lat="43.81656" lon="7.05371">
        <ele>1178.6</ele>
        <time>2019-12-30T12:44:20Z</time>
      </trkpt>
      <trkpt lat="43.81656" lon="7.05371">
        <ele>1178.6</ele>
        <time>2019-12-30T12:44:21Z</time>
      </trkpt>
      <trkpt lat="43.81656" lon="7.05371">
        <ele>1178.6</ele>
        <time>2019-12-30T12:44:22Z</time>
      </trkpt>
      <trkpt lat="43.81656" lon="7.05371">
        <ele>1178.6</ele>
        <time>2019-12-30T12:44:23Z</time>
      </trkpt>
      <trkpt lat="43.81656" lon="7.05371">
        <ele>1178.6</ele>
        <time>2019-12-30T12:44:24Z</time>
      </trkpt>
      <trkpt lat="43.81656" lon="7.05371">
        <ele>1178.6</ele>
        <time>2019-12-30T12:44:25Z</time>
      </trkpt>
      <trkpt lat="43.81656" lon="7.05371">
        <ele>1178.6</ele>
        <time>2019-12-30T12:44:26Z</time>
      </trkpt>
      <trkpt lat="43.81656" lon="7.05371">
        <ele>1178.6</ele>
        <time>2019-12-30T12:44:27Z</time>
      </trkpt>
      <trkpt lat="43.81656" lon="7.05371">
        <ele>1178.6</ele>
        <time>2019-12-30T12:44:28Z</time>
      </trkpt>
      <trkpt lat="43.81656" lon="7.05371">
        <ele>1178.6</ele>
        <time>2019-12-30T12:44:29Z</time>
      </trkpt>
      <trkpt lat="43.81656" lon="7.05371">
        <ele>1178.6</ele>
        <time>2019-12-30T12:44:30Z</time>
      </trkpt>
      <trkpt lat="43.81656" lon="7.05371">
        <ele>1178.6</ele>
        <time>2019-12-30T12:44:31Z</time>
      </trkpt>
      <trkpt lat="43.81656" lon="7.05371">
        <ele>1178.6</ele>
        <time>2019-12-30T12:44:32Z</time>
      </trkpt>
      <trkpt lat="43.81656" lon="7.05371">
        <ele>1178.6</ele>
        <time>2019-12-30T12:44:33Z</time>
      </trkpt>
      <trkpt lat="43.81656" lon="7.05371">
        <ele>1178.6</ele>
        <time>2019-12-30T12:44:34Z</time>
      </trkpt>
      <trkpt lat="43.81656" lon="7.05371">
        <ele>1178.6</ele>
        <time>2019-12-30T12:44:35Z</time>
      </trkpt>
      <trkpt lat="43.81656" lon="7.05371">
        <ele>1178.6</ele>
        <time>2019-12-30T12:44:36Z</time>
      </trkpt>
      <trkpt lat="43.81656" lon="7.05371">
        <ele>1178.6</ele>
        <time>2019-12-30T12:44:37Z</time>
      </trkpt>
      <trkpt lat="43.81656" lon="7.05371">
        <ele>1178.6</ele>
        <time>2019-12-30T12:44:38Z</time>
      </trkpt>
      <trkpt lat="43.81656" lon="7.05371">
        <ele>1178.6</ele>
        <time>2019-12-30T12:44:39Z</time>
      </trkpt>
      <trkpt lat="43.81656" lon="7.05371">
        <ele>1178.6</ele>
        <time>2019-12-30T12:44:40Z</time>
      </trkpt>
      <trkpt lat="43.81656" lon="7.05371">
        <ele>1178.6</ele>
        <time>2019-12-30T12:44:41Z</time>
      </trkpt>
      <trkpt lat="43.81656" lon="7.05371">
        <ele>1178.6</ele>
        <time>2019-12-30T12:44:42Z</time>
      </trkpt>
      <trkpt lat="43.81656" lon="7.05371">
        <ele>1178.6</ele>
        <time>2019-12-30T12:44:43Z</time>
      </trkpt>
      <trkpt lat="43.81656" lon="7.05371">
        <ele>1178.6</ele>
        <time>2019-12-30T12:44:44Z</time>
      </trkpt>
      <trkpt lat="43.81656" lon="7.05371">
        <ele>1178.6</ele>
        <time>2019-12-30T12:44:45Z</time>
      </trkpt>
      <trkpt lat="43.81656" lon="7.05371">
        <ele>1178.6</ele>
        <time>2019-12-30T12:44:46Z</time>
      </trkpt>
      <trkpt lat="43.81656" lon="7.05371">
        <ele>1178.6</ele>
        <time>2019-12-30T12:44:47Z</time>
      </trkpt>
      <trkpt lat="43.81656" lon="7.05371">
        <ele>1178.6</ele>
        <time>2019-12-30T12:44:48Z</time>
      </trkpt>
      <trkpt lat="43.81656" lon="7.05371">
        <ele>1178.6</ele>
        <time>2019-12-30T12:44:49Z</time>
      </trkpt>
      <trkpt lat="43.81656" lon="7.05371">
        <ele>1178.6</ele>
        <time>2019-12-30T12:44:50Z</time>
      </trkpt>
      <trkpt lat="43.81656" lon="7.05371">
        <ele>1178.6</ele>
        <time>2019-12-30T12:44:51Z</time>
      </trkpt>
      <trkpt lat="43.81656" lon="7.05371">
        <ele>1178.6</ele>
        <time>2019-12-30T12:44:52Z</time>
      </trkpt>
      <trkpt lat="43.81656" lon="7.05371">
        <ele>1178.6</ele>
        <time>2019-12-30T12:44:53Z</time>
      </trkpt>
      <trkpt lat="43.81656" lon="7.05371">
        <ele>1178.6</ele>
        <time>2019-12-30T12:44:54Z</time>
      </trkpt>
      <trkpt lat="43.81656" lon="7.05371">
        <ele>1178.6</ele>
        <time>2019-12-30T12:44:55Z</time>
      </trkpt>
      <trkpt lat="43.81656" lon="7.05371">
        <ele>1178.6</ele>
        <time>2019-12-30T12:44:56Z</time>
      </trkpt>
      <trkpt lat="43.81656" lon="7.05371">
        <ele>1178.6</ele>
        <time>2019-12-30T12:44:57Z</time>
      </trkpt>
      <trkpt lat="43.81656" lon="7.05371">
        <ele>1178.6</ele>
        <time>2019-12-30T12:44:58Z</time>
      </trkpt>
      <trkpt lat="43.81656" lon="7.05371">
        <ele>1178.6</ele>
        <time>2019-12-30T12:44:59Z</time>
      </trkpt>
      <trkpt lat="43.81656" lon="7.05371">
        <ele>1178.6</ele>
        <time>2019-12-30T12:45:00Z</time>
      </trkpt>
      <trkpt lat="43.81656" lon="7.05371">
        <ele>1178.6</ele>
        <time>2019-12-30T12:45:01Z</time>
      </trkpt>
      <trkpt lat="43.81656" lon="7.05371">
        <ele>1178.6</ele>
        <time>2019-12-30T12:45:02Z</time>
      </trkpt>
      <trkpt lat="43.81656" lon="7.05371">
        <ele>1178.6</ele>
        <time>2019-12-30T12:45:03Z</time>
      </trkpt>
      <trkpt lat="43.81656" lon="7.05371">
        <ele>1178.6</ele>
        <time>2019-12-30T12:45:04Z</time>
      </trkpt>
      <trkpt lat="43.81656" lon="7.05371">
        <ele>1178.6</ele>
        <time>2019-12-30T12:45:05Z</time>
      </trkpt>
      <trkpt lat="43.81656" lon="7.05371">
        <ele>1178.6</ele>
        <time>2019-12-30T12:45:06Z</time>
      </trkpt>
      <trkpt lat="43.81656" lon="7.05371">
        <ele>1178.6</ele>
        <time>2019-12-30T12:45:07Z</time>
      </trkpt>
      <trkpt lat="43.81656" lon="7.05371">
        <ele>1178.6</ele>
        <time>2019-12-30T12:45:08Z</time>
      </trkpt>
      <trkpt lat="43.81656" lon="7.05371">
        <ele>1178.6</ele>
        <time>2019-12-30T12:45:09Z</time>
      </trkpt>
      <trkpt lat="43.81656" lon="7.05371">
        <ele>1178.6</ele>
        <time>2019-12-30T12:45:10Z</time>
      </trkpt>
      <trkpt lat="43.81656" lon="7.05371">
        <ele>1178.6</ele>
        <time>2019-12-30T12:45:11Z</time>
      </trkpt>
      <trkpt lat="43.81656" lon="7.05371">
        <ele>1178.6</ele>
        <time>2019-12-30T12:45:12Z</time>
      </trkpt>
      <trkpt lat="43.81656" lon="7.05371">
        <ele>1178.6</ele>
        <time>2019-12-30T12:45:13Z</time>
      </trkpt>
      <trkpt lat="43.81656" lon="7.05371">
        <ele>1178.6</ele>
        <time>2019-12-30T12:45:14Z</time>
      </trkpt>
      <trkpt lat="43.81656" lon="7.05371">
        <ele>1178.6</ele>
        <time>2019-12-30T12:45:15Z</time>
      </trkpt>
      <trkpt lat="43.81656" lon="7.05371">
        <ele>1178.6</ele>
        <time>2019-12-30T12:45:16Z</time>
      </trkpt>
      <trkpt lat="43.81656" lon="7.05371">
        <ele>1178.6</ele>
        <time>2019-12-30T12:45:17Z</time>
      </trkpt>
      <trkpt lat="43.81656" lon="7.05371">
        <ele>1178.6</ele>
        <time>2019-12-30T12:45:18Z</time>
      </trkpt>
      <trkpt lat="43.81656" lon="7.05371">
        <ele>1178.6</ele>
        <time>2019-12-30T12:45:19Z</time>
      </trkpt>
      <trkpt lat="43.81656" lon="7.05371">
        <ele>1178.6</ele>
        <time>2019-12-30T12:45:20Z</time>
      </trkpt>
      <trkpt lat="43.81656" lon="7.05371">
        <ele>1178.6</ele>
        <time>2019-12-30T12:45:21Z</time>
      </trkpt>
      <trkpt lat="43.81656" lon="7.05371">
        <ele>1178.6</ele>
        <time>2019-12-30T12:45:22Z</time>
      </trkpt>
      <trkpt lat="43.81656" lon="7.05371">
        <ele>1178.6</ele>
        <time>2019-12-30T12:45:23Z</time>
      </trkpt>
      <trkpt lat="43.81656" lon="7.05371">
        <ele>1178.6</ele>
        <time>2019-12-30T12:45:24Z</time>
      </trkpt>
      <trkpt lat="43.81656" lon="7.05371">
        <ele>1178.6</ele>
        <time>2019-12-30T12:45:25Z</time>
      </trkpt>
      <trkpt lat="43.81656" lon="7.05371">
        <ele>1178.6</ele>
        <time>2019-12-30T12:45:26Z</time>
      </trkpt>
      <trkpt lat="43.81656" lon="7.05371">
        <ele>1178.6</ele>
        <time>2019-12-30T12:45:27Z</time>
      </trkpt>
      <trkpt lat="43.81656" lon="7.05371">
        <ele>1178.6</ele>
        <time>2019-12-30T12:45:28Z</time>
      </trkpt>
      <trkpt lat="43.81656" lon="7.05371">
        <ele>1178.6</ele>
        <time>2019-12-30T12:45:29Z</time>
      </trkpt>
      <trkpt lat="43.81656" lon="7.05371">
        <ele>1178.6</ele>
        <time>2019-12-30T12:45:30Z</time>
      </trkpt>
      <trkpt lat="43.81656" lon="7.05371">
        <ele>1178.6</ele>
        <time>2019-12-30T12:45:31Z</time>
      </trkpt>
      <trkpt lat="43.81656" lon="7.05371">
        <ele>1178.6</ele>
        <time>2019-12-30T12:45:32Z</time>
      </trkpt>
      <trkpt lat="43.81656" lon="7.05371">
        <ele>1178.7</ele>
        <time>2019-12-30T12:45:33Z</time>
      </trkpt>
      <trkpt lat="43.81657" lon="7.0537">
        <ele>1178.8</ele>
        <time>2019-12-30T12:45:34Z</time>
      </trkpt>
      <trkpt lat="43.81658" lon="7.0537">
        <ele>1178.9</ele>
        <time>2019-12-30T12:45:35Z</time>
      </trkpt>
      <trkpt lat="43.81659" lon="7.0537">
        <ele>1179</ele>
        <time>2019-12-30T12:45:36Z</time>
      </trkpt>
      <trkpt lat="43.8166" lon="7.0537">
        <ele>1179</ele>
        <time>2019-12-30T12:45:37Z</time>
      </trkpt>
      <trkpt lat="43.8166" lon="7.0537">
        <ele>1179.1</ele>
        <time>2019-12-30T12:45:38Z</time>
      </trkpt>
      <trkpt lat="43.8166" lon="7.0537">
        <ele>1179.1</ele>
        <time>2019-12-30T12:45:39Z</time>
      </trkpt>
      <trkpt lat="43.8166" lon="7.0537">
        <ele>1179.1</ele>
        <time>2019-12-30T12:45:40Z</time>
      </trkpt>
      <trkpt lat="43.81661" lon="7.0537">
        <ele>1179.1</ele>
        <time>2019-12-30T12:45:41Z</time>
      </trkpt>
      <trkpt lat="43.81661" lon="7.0537">
        <ele>1179.1</ele>
        <time>2019-12-30T12:45:42Z</time>
      </trkpt>
      <trkpt lat="43.81661" lon="7.0537">
        <ele>1179.1</ele>
        <time>2019-12-30T12:45:43Z</time>
      </trkpt>
      <trkpt lat="43.81661" lon="7.0537">
        <ele>1179.1</ele>
        <time>2019-12-30T12:45:44Z</time>
      </trkpt>
      <trkpt lat="43.81661" lon="7.0537">
        <ele>1179.1</ele>
        <time>2019-12-30T12:45:45Z</time>
      </trkpt>
      <trkpt lat="43.81661" lon="7.0537">
        <ele>1179.1</ele>
        <time>2019-12-30T12:45:46Z</time>
      </trkpt>
      <trkpt lat="43.81661" lon="7.0537">
        <ele>1179.1</ele>
        <time>2019-12-30T12:45:47Z</time>
      </trkpt>
      <trkpt lat="43.81661" lon="7.0537">
        <ele>1179.1</ele>
        <time>2019-12-30T12:45:48Z</time>
      </trkpt>
      <trkpt lat="43.81661" lon="7.0537">
        <ele>1179.1</ele>
        <time>2019-12-30T12:45:49Z</time>
      </trkpt>
      <trkpt lat="43.81661" lon="7.0537">
        <ele>1179.1</ele>
        <time>2019-12-30T12:45:50Z</time>
      </trkpt>
      <trkpt lat="43.81661" lon="7.0537">
        <ele>1179.1</ele>
        <time>2019-12-30T12:45:51Z</time>
      </trkpt>
      <trkpt lat="43.81661" lon="7.0537">
        <ele>1179.1</ele>
        <time>2019-12-30T12:45:52Z</time>
      </trkpt>
      <trkpt lat="43.81661" lon="7.0537">
        <ele>1179.1</ele>
        <time>2019-12-30T12:45:53Z</time>
      </trkpt>
      <trkpt lat="43.81661" lon="7.0537">
        <ele>1179.1</ele>
        <time>2019-12-30T12:45:54Z</time>
      </trkpt>
      <trkpt lat="43.81661" lon="7.0537">
        <ele>1179.1</ele>
        <time>2019-12-30T12:45:55Z</time>
      </trkpt>
      <trkpt lat="43.81661" lon="7.0537">
        <ele>1179.1</ele>
        <time>2019-12-30T12:45:56Z</time>
      </trkpt>
      <trkpt lat="43.81661" lon="7.0537">
        <ele>1179.1</ele>
        <time>2019-12-30T12:45:57Z</time>
      </trkpt>
      <trkpt lat="43.81661" lon="7.0537">
        <ele>1179.1</ele>
        <time>2019-12-30T12:45:58Z</time>
      </trkpt>
      <trkpt lat="43.81661" lon="7.0537">
        <ele>1179.1</ele>
        <time>2019-12-30T12:45:59Z</time>
      </trkpt>
      <trkpt lat="43.81661" lon="7.0537">
        <ele>1179.1</ele>
        <time>2019-12-30T12:46:00Z</time>
      </trkpt>
      <trkpt lat="43.81661" lon="7.0537">
        <ele>1179.1</ele>
        <time>2019-12-30T12:46:01Z</time>
      </trkpt>
      <trkpt lat="43.81661" lon="7.0537">
        <ele>1179.1</ele>
        <time>2019-12-30T12:46:02Z</time>
      </trkpt>
      <trkpt lat="43.81661" lon="7.0537">
        <ele>1179.1</ele>
        <time>2019-12-30T12:46:03Z</time>
      </trkpt>
      <trkpt lat="43.81661" lon="7.0537">
        <ele>1179.1</ele>
        <time>2019-12-30T12:46:04Z</time>
      </trkpt>
      <trkpt lat="43.81661" lon="7.0537">
        <ele>1179.1</ele>
        <time>2019-12-30T12:46:05Z</time>
      </trkpt>
      <trkpt lat="43.81661" lon="7.0537">
        <ele>1179.1</ele>
        <time>2019-12-30T12:46:06Z</time>
      </trkpt>
      <trkpt lat="43.81661" lon="7.0537">
        <ele>1179.1</ele>
        <time>2019-12-30T12:46:07Z</time>
      </trkpt>
      <trkpt lat="43.81661" lon="7.0537">
        <ele>1179.1</ele>
        <time>2019-12-30T12:46:08Z</time>
      </trkpt>
      <trkpt lat="43.81661" lon="7.0537">
        <ele>1179.1</ele>
        <time>2019-12-30T12:46:09Z</time>
      </trkpt>
      <trkpt lat="43.81661" lon="7.0537">
        <ele>1179.1</ele>
        <time>2019-12-30T12:46:10Z</time>
      </trkpt>
      <trkpt lat="43.81661" lon="7.0537">
        <ele>1179.1</ele>
        <time>2019-12-30T12:46:11Z</time>
      </trkpt>
      <trkpt lat="43.81661" lon="7.0537">
        <ele>1179.1</ele>
        <time>2019-12-30T12:46:12Z</time>
      </trkpt>
      <trkpt lat="43.81661" lon="7.0537">
        <ele>1179.1</ele>
        <time>2019-12-30T12:46:13Z</time>
      </trkpt>
      <trkpt lat="43.81661" lon="7.0537">
        <ele>1179.1</ele>
        <time>2019-12-30T12:46:14Z</time>
      </trkpt>
      <trkpt lat="43.81661" lon="7.0537">
        <ele>1179.1</ele>
        <time>2019-12-30T12:46:15Z</time>
      </trkpt>
      <trkpt lat="43.81661" lon="7.0537">
        <ele>1179.1</ele>
        <time>2019-12-30T12:46:16Z</time>
      </trkpt>
      <trkpt lat="43.81661" lon="7.0537">
        <ele>1179.2</ele>
        <time>2019-12-30T12:46:17Z</time>
      </trkpt>
      <trkpt lat="43.81661" lon="7.0537">
        <ele>1179.2</ele>
        <time>2019-12-30T12:46:18Z</time>
      </trkpt>
      <trkpt lat="43.81661" lon="7.0537">
        <ele>1179.2</ele>
        <time>2019-12-30T12:46:19Z</time>
      </trkpt>
      <trkpt lat="43.81661" lon="7.0537">
        <ele>1179.2</ele>
        <time>2019-12-30T12:46:20Z</time>
      </trkpt>
      <trkpt lat="43.81661" lon="7.0537">
        <ele>1179.2</ele>
        <time>2019-12-30T12:46:21Z</time>
      </trkpt>
      <trkpt lat="43.81661" lon="7.0537">
        <ele>1179.2</ele>
        <time>2019-12-30T12:46:22Z</time>
      </trkpt>
      <trkpt lat="43.81661" lon="7.0537">
        <ele>1179.2</ele>
        <time>2019-12-30T12:46:23Z</time>
      </trkpt>
      <trkpt lat="43.81661" lon="7.0537">
        <ele>1179.2</ele>
        <time>2019-12-30T12:46:24Z</time>
      </trkpt>
      <trkpt lat="43.81661" lon="7.0537">
        <ele>1179.2</ele>
        <time>2019-12-30T12:46:25Z</time>
      </trkpt>
      <trkpt lat="43.8166" lon="7.0537">
        <ele>1179.2</ele>
        <time>2019-12-30T12:46:26Z</time>
      </trkpt>
      <trkpt lat="43.8166" lon="7.0537">
        <ele>1179.2</ele>
        <time>2019-12-30T12:46:27Z</time>
      </trkpt>
      <trkpt lat="43.8166" lon="7.0537">
        <ele>1179.3</ele>
        <time>2019-12-30T12:46:28Z</time>
      </trkpt>
      <trkpt lat="43.8166" lon="7.0537">
        <ele>1179.3</ele>
        <time>2019-12-30T12:46:29Z</time>
      </trkpt>
      <trkpt lat="43.8166" lon="7.0537">
        <ele>1179.3</ele>
        <time>2019-12-30T12:46:30Z</time>
      </trkpt>
      <trkpt lat="43.8166" lon="7.05369">
        <ele>1179.4</ele>
        <time>2019-12-30T12:46:31Z</time>
      </trkpt>
      <trkpt lat="43.8166" lon="7.05368">
        <ele>1179.5</ele>
        <time>2019-12-30T12:46:32Z</time>
      </trkpt>
      <trkpt lat="43.8166" lon="7.05367">
        <ele>1179.6</ele>
        <time>2019-12-30T12:46:33Z</time>
      </trkpt>
      <trkpt lat="43.8166" lon="7.05366">
        <ele>1179.7</ele>
        <time>2019-12-30T12:46:34Z</time>
      </trkpt>
      <trkpt lat="43.8166" lon="7.05365">
        <ele>1179.8</ele>
        <time>2019-12-30T12:46:35Z</time>
      </trkpt>
      <trkpt lat="43.81661" lon="7.05364">
        <ele>1179.8</ele>
        <time>2019-12-30T12:46:36Z</time>
      </trkpt>
      <trkpt lat="43.81661" lon="7.05364">
        <ele>1179.9</ele>
        <time>2019-12-30T12:46:37Z</time>
      </trkpt>
      <trkpt lat="43.81661" lon="7.05363">
        <ele>1180</ele>
        <time>2019-12-30T12:46:38Z</time>
      </trkpt>
      <trkpt lat="43.81662" lon="7.05362">
        <ele>1180.1</ele>
        <time>2019-12-30T12:46:39Z</time>
      </trkpt>
      <trkpt lat="43.81662" lon="7.05361">
        <ele>1180.2</ele>
        <time>2019-12-30T12:46:40Z</time>
      </trkpt>
      <trkpt lat="43.81663" lon="7.05359">
        <ele>1180.4</ele>
        <time>2019-12-30T12:46:41Z</time>
      </trkpt>
      <trkpt lat="43.81664" lon="7.05358">
        <ele>1180.4</ele>
        <time>2019-12-30T12:46:42Z</time>
      </trkpt>
      <trkpt lat="43.81666" lon="7.05356">
        <ele>1180.4</ele>
        <time>2019-12-30T12:46:43Z</time>
      </trkpt>
      <trkpt lat="43.81667" lon="7.05354">
        <ele>1180.5</ele>
        <time>2019-12-30T12:46:44Z</time>
      </trkpt>
      <trkpt lat="43.81669" lon="7.05353">
        <ele>1180.8</ele>
        <time>2019-12-30T12:46:45Z</time>
      </trkpt>
      <trkpt lat="43.81671" lon="7.05352">
        <ele>1181.1</ele>
        <time>2019-12-30T12:46:46Z</time>
      </trkpt>
      <trkpt lat="43.81673" lon="7.05351">
        <ele>1181.3</ele>
        <time>2019-12-30T12:46:47Z</time>
      </trkpt>
      <trkpt lat="43.81675" lon="7.0535">
        <ele>1181.5</ele>
        <time>2019-12-30T12:46:48Z</time>
      </trkpt>
      <trkpt lat="43.81676" lon="7.05349">
        <ele>1181.8</ele>
        <time>2019-12-30T12:46:49Z</time>
      </trkpt>
      <trkpt lat="43.81678" lon="7.05347">
        <ele>1182.4</ele>
        <time>2019-12-30T12:46:50Z</time>
      </trkpt>
      <trkpt lat="43.81679" lon="7.05344">
        <ele>1182.8</ele>
        <time>2019-12-30T12:46:51Z</time>
      </trkpt>
      <trkpt lat="43.8168" lon="7.05341">
        <ele>1183.1</ele>
        <time>2019-12-30T12:46:52Z</time>
      </trkpt>
      <trkpt lat="43.8168" lon="7.05338">
        <ele>1183.4</ele>
        <time>2019-12-30T12:46:53Z</time>
      </trkpt>
      <trkpt lat="43.8168" lon="7.05334">
        <ele>1184</ele>
        <time>2019-12-30T12:46:54Z</time>
      </trkpt>
      <trkpt lat="43.81681" lon="7.05331">
        <ele>1184.5</ele>
        <time>2019-12-30T12:46:55Z</time>
      </trkpt>
      <trkpt lat="43.81681" lon="7.05328">
        <ele>1185.1</ele>
        <time>2019-12-30T12:46:56Z</time>
      </trkpt>
      <trkpt lat="43.81682" lon="7.05325">
        <ele>1185.5</ele>
        <time>2019-12-30T12:46:57Z</time>
      </trkpt>
      <trkpt lat="43.81683" lon="7.05322">
        <ele>1186</ele>
        <time>2019-12-30T12:46:58Z</time>
      </trkpt>
      <trkpt lat="43.81684" lon="7.05319">
        <ele>1186.6</ele>
        <time>2019-12-30T12:46:59Z</time>
      </trkpt>
      <trkpt lat="43.81685" lon="7.05316">
        <ele>1187.2</ele>
        <time>2019-12-30T12:47:00Z</time>
      </trkpt>
      <trkpt lat="43.81686" lon="7.05314">
        <ele>1187.8</ele>
        <time>2019-12-30T12:47:01Z</time>
      </trkpt>
      <trkpt lat="43.81687" lon="7.05311">
        <ele>1188.4</ele>
        <time>2019-12-30T12:47:02Z</time>
      </trkpt>
      <trkpt lat="43.81688" lon="7.05308">
        <ele>1189</ele>
        <time>2019-12-30T12:47:03Z</time>
      </trkpt>
      <trkpt lat="43.81688" lon="7.05305">
        <ele>1189.6</ele>
        <time>2019-12-30T12:47:04Z</time>
      </trkpt>
      <trkpt lat="43.81689" lon="7.05303">
        <ele>1190.1</ele>
        <time>2019-12-30T12:47:05Z</time>
      </trkpt>
      <trkpt lat="43.8169" lon="7.053">
        <ele>1190.5</ele>
        <time>2019-12-30T12:47:06Z</time>
      </trkpt>
      <trkpt lat="43.81691" lon="7.05297">
        <ele>1190.9</ele>
        <time>2019-12-30T12:47:07Z</time>
      </trkpt>
      <trkpt lat="43.81692" lon="7.05294">
        <ele>1191.3</ele>
        <time>2019-12-30T12:47:08Z</time>
      </trkpt>
      <trkpt lat="43.81692" lon="7.05291">
        <ele>1191.8</ele>
        <time>2019-12-30T12:47:09Z</time>
      </trkpt>
      <trkpt lat="43.81693" lon="7.05288">
        <ele>1192.4</ele>
        <time>2019-12-30T12:47:10Z</time>
      </trkpt>
      <trkpt lat="43.81694" lon="7.05284">
        <ele>1193</ele>
        <time>2019-12-30T12:47:11Z</time>
      </trkpt>
      <trkpt lat="43.81694" lon="7.05281">
        <ele>1193.7</ele>
        <time>2019-12-30T12:47:12Z</time>
      </trkpt>
      <trkpt lat="43.81694" lon="7.05278">
        <ele>1194.1</ele>
        <time>2019-12-30T12:47:13Z</time>
      </trkpt>
      <trkpt lat="43.81695" lon="7.05275">
        <ele>1194.5</ele>
        <time>2019-12-30T12:47:14Z</time>
      </trkpt>
      <trkpt lat="43.81696" lon="7.05273">
        <ele>1194.9</ele>
        <time>2019-12-30T12:47:15Z</time>
      </trkpt>
      <trkpt lat="43.81696" lon="7.05269">
        <ele>1195.5</ele>
        <time>2019-12-30T12:47:16Z</time>
      </trkpt>
      <trkpt lat="43.81696" lon="7.05266">
        <ele>1196.1</ele>
        <time>2019-12-30T12:47:17Z</time>
      </trkpt>
      <trkpt lat="43.81696" lon="7.05263">
        <ele>1196.6</ele>
        <time>2019-12-30T12:47:18Z</time>
      </trkpt>
      <trkpt lat="43.81695" lon="7.0526">
        <ele>1197.2</ele>
        <time>2019-12-30T12:47:19Z</time>
      </trkpt>
      <trkpt lat="43.81694" lon="7.05257">
        <ele>1197.6</ele>
        <time>2019-12-30T12:47:20Z</time>
      </trkpt>
      <trkpt lat="43.81692" lon="7.05254">
        <ele>1198</ele>
        <time>2019-12-30T12:47:21Z</time>
      </trkpt>
      <trkpt lat="43.81691" lon="7.05252">
        <ele>1198.4</ele>
        <time>2019-12-30T12:47:22Z</time>
      </trkpt>
      <trkpt lat="43.81689" lon="7.05249">
        <ele>1198.8</ele>
        <time>2019-12-30T12:47:23Z</time>
      </trkpt>
      <trkpt lat="43.81687" lon="7.05247">
        <ele>1199.1</ele>
        <time>2019-12-30T12:47:24Z</time>
      </trkpt>
      <trkpt lat="43.81685" lon="7.05244">
        <ele>1199.3</ele>
        <time>2019-12-30T12:47:25Z</time>
      </trkpt>
      <trkpt lat="43.81684" lon="7.05241">
        <ele>1199.3</ele>
        <time>2019-12-30T12:47:26Z</time>
      </trkpt>
      <trkpt lat="43.81682" lon="7.05239">
        <ele>1199.3</ele>
        <time>2019-12-30T12:47:27Z</time>
      </trkpt>
      <trkpt lat="43.8168" lon="7.05236">
        <ele>1199.4</ele>
        <time>2019-12-30T12:47:28Z</time>
      </trkpt>
      <trkpt lat="43.81679" lon="7.05233">
        <ele>1199.6</ele>
        <time>2019-12-30T12:47:29Z</time>
      </trkpt>
      <trkpt lat="43.81677" lon="7.05231">
        <ele>1199.8</ele>
        <time>2019-12-30T12:47:30Z</time>
      </trkpt>
      <trkpt lat="43.81676" lon="7.05227">
        <ele>1199.9</ele>
        <time>2019-12-30T12:47:31Z</time>
      </trkpt>
      <trkpt lat="43.81674" lon="7.05224">
        <ele>1199.9</ele>
        <time>2019-12-30T12:47:32Z</time>
      </trkpt>
      <trkpt lat="43.81673" lon="7.05221">
        <ele>1200</ele>
        <time>2019-12-30T12:47:33Z</time>
      </trkpt>
      <trkpt lat="43.81672" lon="7.05218">
        <ele>1200.2</ele>
        <time>2019-12-30T12:47:34Z</time>
      </trkpt>
      <trkpt lat="43.8167" lon="7.05215">
        <ele>1200.3</ele>
        <time>2019-12-30T12:47:35Z</time>
      </trkpt>
      <trkpt lat="43.81669" lon="7.05212">
        <ele>1200.6</ele>
        <time>2019-12-30T12:47:36Z</time>
      </trkpt>
      <trkpt lat="43.81668" lon="7.05208">
        <ele>1201</ele>
        <time>2019-12-30T12:47:37Z</time>
      </trkpt>
      <trkpt lat="43.81666" lon="7.05205">
        <ele>1201.4</ele>
        <time>2019-12-30T12:47:38Z</time>
      </trkpt>
      <trkpt lat="43.81665" lon="7.05201">
        <ele>1201.6</ele>
        <time>2019-12-30T12:47:39Z</time>
      </trkpt>
      <trkpt lat="43.81664" lon="7.05198">
        <ele>1201.8</ele>
        <time>2019-12-30T12:47:40Z</time>
      </trkpt>
      <trkpt lat="43.81663" lon="7.05195">
        <ele>1202</ele>
        <time>2019-12-30T12:47:41Z</time>
      </trkpt>
      <trkpt lat="43.81661" lon="7.05192">
        <ele>1202.2</ele>
        <time>2019-12-30T12:47:42Z</time>
      </trkpt>
      <trkpt lat="43.8166" lon="7.05189">
        <ele>1202.4</ele>
        <time>2019-12-30T12:47:43Z</time>
      </trkpt>
      <trkpt lat="43.81659" lon="7.05187">
        <ele>1202.6</ele>
        <time>2019-12-30T12:47:44Z</time>
      </trkpt>
      <trkpt lat="43.81658" lon="7.05184">
        <ele>1202.7</ele>
        <time>2019-12-30T12:47:45Z</time>
      </trkpt>
      <trkpt lat="43.81656" lon="7.05182">
        <ele>1202.8</ele>
        <time>2019-12-30T12:47:46Z</time>
      </trkpt>
      <trkpt lat="43.81655" lon="7.05179">
        <ele>1202.8</ele>
        <time>2019-12-30T12:47:47Z</time>
      </trkpt>
      <trkpt lat="43.81653" lon="7.05175">
        <ele>1203</ele>
        <time>2019-12-30T12:47:48Z</time>
      </trkpt>
      <trkpt lat="43.81651" lon="7.05172">
        <ele>1203.3</ele>
        <time>2019-12-30T12:47:49Z</time>
      </trkpt>
      <trkpt lat="43.81649" lon="7.05169">
        <ele>1203.5</ele>
        <time>2019-12-30T12:47:50Z</time>
      </trkpt>
      <trkpt lat="43.81647" lon="7.05165">
        <ele>1203.4</ele>
        <time>2019-12-30T12:47:51Z</time>
      </trkpt>
      <trkpt lat="43.81646" lon="7.05161">
        <ele>1203.3</ele>
        <time>2019-12-30T12:47:52Z</time>
      </trkpt>
      <trkpt lat="43.81644" lon="7.05156">
        <ele>1203.4</ele>
        <time>2019-12-30T12:47:53Z</time>
      </trkpt>
      <trkpt lat="43.81642" lon="7.05152">
        <ele>1203.5</ele>
        <time>2019-12-30T12:47:54Z</time>
      </trkpt>
      <trkpt lat="43.81641" lon="7.05147">
        <ele>1203.6</ele>
        <time>2019-12-30T12:47:55Z</time>
      </trkpt>
      <trkpt lat="43.81638" lon="7.05138">
        <ele>1203.9</ele>
        <time>2019-12-30T12:47:56Z</time>
      </trkpt>
      <trkpt lat="43.81636" lon="7.05134">
        <ele>1203.9</ele>
        <time>2019-12-30T12:47:57Z</time>
      </trkpt>
      <trkpt lat="43.81635" lon="7.0513">
        <ele>1204</ele>
        <time>2019-12-30T12:47:58Z</time>
      </trkpt>
      <trkpt lat="43.81633" lon="7.05126">
        <ele>1204.1</ele>
        <time>2019-12-30T12:47:59Z</time>
      </trkpt>
      <trkpt lat="43.81631" lon="7.05122">
        <ele>1204.3</ele>
        <time>2019-12-30T12:48:00Z</time>
      </trkpt>
      <trkpt lat="43.81629" lon="7.05118">
        <ele>1204.6</ele>
        <time>2019-12-30T12:48:01Z</time>
      </trkpt>
      <trkpt lat="43.81628" lon="7.05114">
        <ele>1205</ele>
        <time>2019-12-30T12:48:02Z</time>
      </trkpt>
      <trkpt lat="43.81626" lon="7.0511">
        <ele>1205.5</ele>
        <time>2019-12-30T12:48:03Z</time>
      </trkpt>
      <trkpt lat="43.81625" lon="7.05106">
        <ele>1205.6</ele>
        <time>2019-12-30T12:48:04Z</time>
      </trkpt>
      <trkpt lat="43.81623" lon="7.05102">
        <ele>1205.8</ele>
        <time>2019-12-30T12:48:05Z</time>
      </trkpt>
      <trkpt lat="43.81621" lon="7.05096">
        <ele>1205.9</ele>
        <time>2019-12-30T12:48:06Z</time>
      </trkpt>
      <trkpt lat="43.8162" lon="7.05091">
        <ele>1206</ele>
        <time>2019-12-30T12:48:07Z</time>
      </trkpt>
      <trkpt lat="43.81619" lon="7.05087">
        <ele>1206.4</ele>
        <time>2019-12-30T12:48:08Z</time>
      </trkpt>
      <trkpt lat="43.81617" lon="7.05082">
        <ele>1207.1</ele>
        <time>2019-12-30T12:48:09Z</time>
      </trkpt>
      <trkpt lat="43.81616" lon="7.05078">
        <ele>1207.4</ele>
        <time>2019-12-30T12:48:10Z</time>
      </trkpt>
      <trkpt lat="43.81615" lon="7.05073">
        <ele>1207.4</ele>
        <time>2019-12-30T12:48:11Z</time>
      </trkpt>
      <trkpt lat="43.81614" lon="7.05069">
        <ele>1207.3</ele>
        <time>2019-12-30T12:48:12Z</time>
      </trkpt>
      <trkpt lat="43.81613" lon="7.05064">
        <ele>1207.2</ele>
        <time>2019-12-30T12:48:13Z</time>
      </trkpt>
      <trkpt lat="43.81613" lon="7.0506">
        <ele>1207</ele>
        <time>2019-12-30T12:48:14Z</time>
      </trkpt>
      <trkpt lat="43.81613" lon="7.05056">
        <ele>1207</ele>
        <time>2019-12-30T12:48:15Z</time>
      </trkpt>
      <trkpt lat="43.81612" lon="7.05052">
        <ele>1206.9</ele>
        <time>2019-12-30T12:48:16Z</time>
      </trkpt>
      <trkpt lat="43.81612" lon="7.05048">
        <ele>1207.2</ele>
        <time>2019-12-30T12:48:17Z</time>
      </trkpt>
      <trkpt lat="43.81611" lon="7.05044">
        <ele>1207.6</ele>
        <time>2019-12-30T12:48:18Z</time>
      </trkpt>
      <trkpt lat="43.81611" lon="7.0504">
        <ele>1208.1</ele>
        <time>2019-12-30T12:48:19Z</time>
      </trkpt>
      <trkpt lat="43.81611" lon="7.05037">
        <ele>1208.5</ele>
        <time>2019-12-30T12:48:20Z</time>
      </trkpt>
      <trkpt lat="43.81611" lon="7.05034">
        <ele>1209</ele>
        <time>2019-12-30T12:48:21Z</time>
      </trkpt>
      <trkpt lat="43.81611" lon="7.05031">
        <ele>1209.5</ele>
        <time>2019-12-30T12:48:22Z</time>
      </trkpt>
      <trkpt lat="43.81611" lon="7.05027">
        <ele>1209.6</ele>
        <time>2019-12-30T12:48:23Z</time>
      </trkpt>
      <trkpt lat="43.8161" lon="7.05024">
        <ele>1209.6</ele>
        <time>2019-12-30T12:48:24Z</time>
      </trkpt>
      <trkpt lat="43.81611" lon="7.05021">
        <ele>1209.6</ele>
        <time>2019-12-30T12:48:25Z</time>
      </trkpt>
      <trkpt lat="43.81611" lon="7.05018">
        <ele>1209.8</ele>
        <time>2019-12-30T12:48:26Z</time>
      </trkpt>
      <trkpt lat="43.81611" lon="7.05015">
        <ele>1210.4</ele>
        <time>2019-12-30T12:48:27Z</time>
      </trkpt>
      <trkpt lat="43.81611" lon="7.05011">
        <ele>1211</ele>
        <time>2019-12-30T12:48:28Z</time>
      </trkpt>
      <trkpt lat="43.8161" lon="7.05007">
        <ele>1211.7</ele>
        <time>2019-12-30T12:48:29Z</time>
      </trkpt>
      <trkpt lat="43.8161" lon="7.05003">
        <ele>1212.6</ele>
        <time>2019-12-30T12:48:30Z</time>
      </trkpt>
      <trkpt lat="43.81609" lon="7.04999">
        <ele>1213.4</ele>
        <time>2019-12-30T12:48:31Z</time>
      </trkpt>
      <trkpt lat="43.81609" lon="7.04995">
        <ele>1214</ele>
        <time>2019-12-30T12:48:32Z</time>
      </trkpt>
      <trkpt lat="43.81608" lon="7.04992">
        <ele>1214.5</ele>
        <time>2019-12-30T12:48:33Z</time>
      </trkpt>
      <trkpt lat="43.81608" lon="7.04989">
        <ele>1215</ele>
        <time>2019-12-30T12:48:34Z</time>
      </trkpt>
      <trkpt lat="43.81607" lon="7.04985">
        <ele>1215.5</ele>
        <time>2019-12-30T12:48:35Z</time>
      </trkpt>
      <trkpt lat="43.81607" lon="7.04981">
        <ele>1216</ele>
        <time>2019-12-30T12:48:36Z</time>
      </trkpt>
      <trkpt lat="43.81607" lon="7.04978">
        <ele>1216.3</ele>
        <time>2019-12-30T12:48:37Z</time>
      </trkpt>
      <trkpt lat="43.81606" lon="7.04975">
        <ele>1216.6</ele>
        <time>2019-12-30T12:48:38Z</time>
      </trkpt>
      <trkpt lat="43.81606" lon="7.04973">
        <ele>1217.1</ele>
        <time>2019-12-30T12:48:39Z</time>
      </trkpt>
      <trkpt lat="43.81606" lon="7.0497">
        <ele>1217.6</ele>
        <time>2019-12-30T12:48:40Z</time>
      </trkpt>
      <trkpt lat="43.81606" lon="7.04967">
        <ele>1218.1</ele>
        <time>2019-12-30T12:48:41Z</time>
      </trkpt>
      <trkpt lat="43.81606" lon="7.04963">
        <ele>1218.7</ele>
        <time>2019-12-30T12:48:42Z</time>
      </trkpt>
      <trkpt lat="43.81605" lon="7.04959">
        <ele>1219.1</ele>
        <time>2019-12-30T12:48:43Z</time>
      </trkpt>
      <trkpt lat="43.81605" lon="7.04956">
        <ele>1219.5</ele>
        <time>2019-12-30T12:48:44Z</time>
      </trkpt>
      <trkpt lat="43.81605" lon="7.04952">
        <ele>1219.9</ele>
        <time>2019-12-30T12:48:45Z</time>
      </trkpt>
      <trkpt lat="43.81605" lon="7.04949">
        <ele>1220.1</ele>
        <time>2019-12-30T12:48:46Z</time>
      </trkpt>
      <trkpt lat="43.81605" lon="7.04946">
        <ele>1220.3</ele>
        <time>2019-12-30T12:48:47Z</time>
      </trkpt>
      <trkpt lat="43.81605" lon="7.04943">
        <ele>1220.5</ele>
        <time>2019-12-30T12:48:48Z</time>
      </trkpt>
      <trkpt lat="43.81605" lon="7.0494">
        <ele>1220.8</ele>
        <time>2019-12-30T12:48:49Z</time>
      </trkpt>
      <trkpt lat="43.81604" lon="7.04936">
        <ele>1221.2</ele>
        <time>2019-12-30T12:48:50Z</time>
      </trkpt>
      <trkpt lat="43.81603" lon="7.04933">
        <ele>1221.5</ele>
        <time>2019-12-30T12:48:51Z</time>
      </trkpt>
      <trkpt lat="43.81602" lon="7.04929">
        <ele>1221.8</ele>
        <time>2019-12-30T12:48:52Z</time>
      </trkpt>
      <trkpt lat="43.81601" lon="7.04925">
        <ele>1222</ele>
        <time>2019-12-30T12:48:53Z</time>
      </trkpt>
      <trkpt lat="43.816" lon="7.04921">
        <ele>1222.3</ele>
        <time>2019-12-30T12:48:54Z</time>
      </trkpt>
      <trkpt lat="43.816" lon="7.04918">
        <ele>1222.7</ele>
        <time>2019-12-30T12:48:55Z</time>
      </trkpt>
      <trkpt lat="43.81599" lon="7.04914">
        <ele>1223.1</ele>
        <time>2019-12-30T12:48:56Z</time>
      </trkpt>
      <trkpt lat="43.81599" lon="7.0491">
        <ele>1223.4</ele>
        <time>2019-12-30T12:48:57Z</time>
      </trkpt>
      <trkpt lat="43.81599" lon="7.04907">
        <ele>1223.7</ele>
        <time>2019-12-30T12:48:58Z</time>
      </trkpt>
      <trkpt lat="43.81598" lon="7.04904">
        <ele>1223.8</ele>
        <time>2019-12-30T12:48:59Z</time>
      </trkpt>
      <trkpt lat="43.81598" lon="7.04901">
        <ele>1224.1</ele>
        <time>2019-12-30T12:49:00Z</time>
      </trkpt>
      <trkpt lat="43.81597" lon="7.04898">
        <ele>1224.3</ele>
        <time>2019-12-30T12:49:01Z</time>
      </trkpt>
      <trkpt lat="43.81597" lon="7.04895">
        <ele>1224.7</ele>
        <time>2019-12-30T12:49:02Z</time>
      </trkpt>
      <trkpt lat="43.81596" lon="7.04892">
        <ele>1225</ele>
        <time>2019-12-30T12:49:03Z</time>
      </trkpt>
      <trkpt lat="43.81595" lon="7.04888">
        <ele>1225.1</ele>
        <time>2019-12-30T12:49:04Z</time>
      </trkpt>
      <trkpt lat="43.81594" lon="7.04885">
        <ele>1225.2</ele>
        <time>2019-12-30T12:49:05Z</time>
      </trkpt>
      <trkpt lat="43.81593" lon="7.04881">
        <ele>1225.2</ele>
        <time>2019-12-30T12:49:06Z</time>
      </trkpt>
      <trkpt lat="43.81592" lon="7.04877">
        <ele>1225.2</ele>
        <time>2019-12-30T12:49:07Z</time>
      </trkpt>
      <trkpt lat="43.81591" lon="7.04873">
        <ele>1225.2</ele>
        <time>2019-12-30T12:49:08Z</time>
      </trkpt>
      <trkpt lat="43.8159" lon="7.04868">
        <ele>1225.2</ele>
        <time>2019-12-30T12:49:09Z</time>
      </trkpt>
      <trkpt lat="43.81589" lon="7.04864">
        <ele>1225</ele>
        <time>2019-12-30T12:49:10Z</time>
      </trkpt>
      <trkpt lat="43.81588" lon="7.0486">
        <ele>1224.8</ele>
        <time>2019-12-30T12:49:11Z</time>
      </trkpt>
      <trkpt lat="43.81588" lon="7.04857">
        <ele>1224.6</ele>
        <time>2019-12-30T12:49:12Z</time>
      </trkpt>
      <trkpt lat="43.81587" lon="7.04853">
        <ele>1224.8</ele>
        <time>2019-12-30T12:49:13Z</time>
      </trkpt>
      <trkpt lat="43.81587" lon="7.04849">
        <ele>1225</ele>
        <time>2019-12-30T12:49:14Z</time>
      </trkpt>
      <trkpt lat="43.81586" lon="7.04845">
        <ele>1225.2</ele>
        <time>2019-12-30T12:49:15Z</time>
      </trkpt>
      <trkpt lat="43.81586" lon="7.0484">
        <ele>1225.3</ele>
        <time>2019-12-30T12:49:16Z</time>
      </trkpt>
      <trkpt lat="43.81585" lon="7.04835">
        <ele>1225.4</ele>
        <time>2019-12-30T12:49:17Z</time>
      </trkpt>
      <trkpt lat="43.81584" lon="7.04831">
        <ele>1225.4</ele>
        <time>2019-12-30T12:49:18Z</time>
      </trkpt>
      <trkpt lat="43.81584" lon="7.04826">
        <ele>1225.4</ele>
        <time>2019-12-30T12:49:19Z</time>
      </trkpt>
      <trkpt lat="43.81584" lon="7.04822">
        <ele>1225.3</ele>
        <time>2019-12-30T12:49:20Z</time>
      </trkpt>
      <trkpt lat="43.81583" lon="7.04818">
        <ele>1225.2</ele>
        <time>2019-12-30T12:49:21Z</time>
      </trkpt>
      <trkpt lat="43.81583" lon="7.04814">
        <ele>1225.1</ele>
        <time>2019-12-30T12:49:22Z</time>
      </trkpt>
      <trkpt lat="43.81583" lon="7.04811">
        <ele>1225</ele>
        <time>2019-12-30T12:49:23Z</time>
      </trkpt>
      <trkpt lat="43.81583" lon="7.04807">
        <ele>1224.9</ele>
        <time>2019-12-30T12:49:24Z</time>
      </trkpt>
      <trkpt lat="43.81584" lon="7.04803">
        <ele>1224.7</ele>
        <time>2019-12-30T12:49:25Z</time>
      </trkpt>
      <trkpt lat="43.81584" lon="7.04799">
        <ele>1224.6</ele>
        <time>2019-12-30T12:49:26Z</time>
      </trkpt>
      <trkpt lat="43.81584" lon="7.04796">
        <ele>1224.5</ele>
        <time>2019-12-30T12:49:27Z</time>
      </trkpt>
      <trkpt lat="43.81584" lon="7.04792">
        <ele>1224.4</ele>
        <time>2019-12-30T12:49:28Z</time>
      </trkpt>
      <trkpt lat="43.81584" lon="7.04787">
        <ele>1224.3</ele>
        <time>2019-12-30T12:49:29Z</time>
      </trkpt>
      <trkpt lat="43.81584" lon="7.04781">
        <ele>1224.1</ele>
        <time>2019-12-30T12:49:30Z</time>
      </trkpt>
      <trkpt lat="43.81584" lon="7.04776">
        <ele>1224</ele>
        <time>2019-12-30T12:49:31Z</time>
      </trkpt>
      <trkpt lat="43.81584" lon="7.04771">
        <ele>1223.9</ele>
        <time>2019-12-30T12:49:32Z</time>
      </trkpt>
      <trkpt lat="43.81583" lon="7.04766">
        <ele>1223.8</ele>
        <time>2019-12-30T12:49:33Z</time>
      </trkpt>
      <trkpt lat="43.81583" lon="7.04762">
        <ele>1223.7</ele>
        <time>2019-12-30T12:49:34Z</time>
      </trkpt>
      <trkpt lat="43.81583" lon="7.04758">
        <ele>1223.7</ele>
        <time>2019-12-30T12:49:35Z</time>
      </trkpt>
      <trkpt lat="43.81583" lon="7.04754">
        <ele>1223.7</ele>
        <time>2019-12-30T12:49:36Z</time>
      </trkpt>
      <trkpt lat="43.81583" lon="7.04751">
        <ele>1223.7</ele>
        <time>2019-12-30T12:49:37Z</time>
      </trkpt>
      <trkpt lat="43.81583" lon="7.04747">
        <ele>1223.5</ele>
        <time>2019-12-30T12:49:38Z</time>
      </trkpt>
      <trkpt lat="43.81583" lon="7.04743">
        <ele>1223.2</ele>
        <time>2019-12-30T12:49:39Z</time>
      </trkpt>
      <trkpt lat="43.81582" lon="7.04739">
        <ele>1223</ele>
        <time>2019-12-30T12:49:40Z</time>
      </trkpt>
      <trkpt lat="43.81582" lon="7.04736">
        <ele>1223</ele>
        <time>2019-12-30T12:49:41Z</time>
      </trkpt>
      <trkpt lat="43.81581" lon="7.04731">
        <ele>1223.1</ele>
        <time>2019-12-30T12:49:42Z</time>
      </trkpt>
      <trkpt lat="43.81581" lon="7.04726">
        <ele>1222.9</ele>
        <time>2019-12-30T12:49:43Z</time>
      </trkpt>
      <trkpt lat="43.8158" lon="7.04721">
        <ele>1222.8</ele>
        <time>2019-12-30T12:49:44Z</time>
      </trkpt>
      <trkpt lat="43.8158" lon="7.04716">
        <ele>1223</ele>
        <time>2019-12-30T12:49:45Z</time>
      </trkpt>
      <trkpt lat="43.81581" lon="7.04712">
        <ele>1223.3</ele>
        <time>2019-12-30T12:49:46Z</time>
      </trkpt>
      <trkpt lat="43.81581" lon="7.04709">
        <ele>1223.5</ele>
        <time>2019-12-30T12:49:47Z</time>
      </trkpt>
      <trkpt lat="43.81582" lon="7.04706">
        <ele>1223.7</ele>
        <time>2019-12-30T12:49:48Z</time>
      </trkpt>
      <trkpt lat="43.81582" lon="7.04703">
        <ele>1223.9</ele>
        <time>2019-12-30T12:49:49Z</time>
      </trkpt>
      <trkpt lat="43.81583" lon="7.04699">
        <ele>1224</ele>
        <time>2019-12-30T12:49:50Z</time>
      </trkpt>
      <trkpt lat="43.81584" lon="7.04696">
        <ele>1224.3</ele>
        <time>2019-12-30T12:49:51Z</time>
      </trkpt>
      <trkpt lat="43.81585" lon="7.04693">
        <ele>1224.5</ele>
        <time>2019-12-30T12:49:52Z</time>
      </trkpt>
      <trkpt lat="43.81586" lon="7.0469">
        <ele>1224.7</ele>
        <time>2019-12-30T12:49:53Z</time>
      </trkpt>
      <trkpt lat="43.81587" lon="7.04686">
        <ele>1224.7</ele>
        <time>2019-12-30T12:49:54Z</time>
      </trkpt>
      <trkpt lat="43.81587" lon="7.04683">
        <ele>1224.6</ele>
        <time>2019-12-30T12:49:55Z</time>
      </trkpt>
      <trkpt lat="43.81588" lon="7.0468">
        <ele>1224.6</ele>
        <time>2019-12-30T12:49:56Z</time>
      </trkpt>
      <trkpt lat="43.81589" lon="7.04677">
        <ele>1224.6</ele>
        <time>2019-12-30T12:49:57Z</time>
      </trkpt>
      <trkpt lat="43.8159" lon="7.04675">
        <ele>1224.7</ele>
        <time>2019-12-30T12:49:58Z</time>
      </trkpt>
      <trkpt lat="43.8159" lon="7.04673">
        <ele>1224.7</ele>
        <time>2019-12-30T12:49:59Z</time>
      </trkpt>
      <trkpt lat="43.81591" lon="7.04669">
        <ele>1224.7</ele>
        <time>2019-12-30T12:50:00Z</time>
      </trkpt>
      <trkpt lat="43.81591" lon="7.04666">
        <ele>1224.7</ele>
        <time>2019-12-30T12:50:01Z</time>
      </trkpt>
      <trkpt lat="43.81592" lon="7.04664">
        <ele>1224.7</ele>
        <time>2019-12-30T12:50:02Z</time>
      </trkpt>
      <trkpt lat="43.81592" lon="7.04662">
        <ele>1224.8</ele>
        <time>2019-12-30T12:50:03Z</time>
      </trkpt>
      <trkpt lat="43.81593" lon="7.04661">
        <ele>1224.8</ele>
        <time>2019-12-30T12:50:04Z</time>
      </trkpt>
      <trkpt lat="43.81593" lon="7.0466">
        <ele>1224.8</ele>
        <time>2019-12-30T12:50:05Z</time>
      </trkpt>
      <trkpt lat="43.81593" lon="7.0466">
        <ele>1224.9</ele>
        <time>2019-12-30T12:50:06Z</time>
      </trkpt>
      <trkpt lat="43.81593" lon="7.04659">
        <ele>1224.9</ele>
        <time>2019-12-30T12:50:07Z</time>
      </trkpt>
      <trkpt lat="43.81593" lon="7.04659">
        <ele>1224.9</ele>
        <time>2019-12-30T12:50:08Z</time>
      </trkpt>
      <trkpt lat="43.81593" lon="7.04659">
        <ele>1224.9</ele>
        <time>2019-12-30T12:50:09Z</time>
      </trkpt>
      <trkpt lat="43.81593" lon="7.04659">
        <ele>1224.9</ele>
        <time>2019-12-30T12:50:10Z</time>
      </trkpt>
      <trkpt lat="43.81593" lon="7.04659">
        <ele>1224.9</ele>
        <time>2019-12-30T12:50:11Z</time>
      </trkpt>
      <trkpt lat="43.81593" lon="7.04659">
        <ele>1224.9</ele>
        <time>2019-12-30T12:50:12Z</time>
      </trkpt>
      <trkpt lat="43.81593" lon="7.04659">
        <ele>1224.9</ele>
        <time>2019-12-30T12:50:13Z</time>
      </trkpt>
      <trkpt lat="43.81593" lon="7.04659">
        <ele>1224.9</ele>
        <time>2019-12-30T12:50:14Z</time>
      </trkpt>
      <trkpt lat="43.81593" lon="7.04659">
        <ele>1224.9</ele>
        <time>2019-12-30T12:50:15Z</time>
      </trkpt>
      <trkpt lat="43.81593" lon="7.04659">
        <ele>1224.9</ele>
        <time>2019-12-30T12:50:16Z</time>
      </trkpt>
      <trkpt lat="43.81593" lon="7.04659">
        <ele>1224.9</ele>
        <time>2019-12-30T12:50:17Z</time>
      </trkpt>
      <trkpt lat="43.81593" lon="7.04658">
        <ele>1224.9</ele>
        <time>2019-12-30T12:50:18Z</time>
      </trkpt>
      <trkpt lat="43.81593" lon="7.04658">
        <ele>1224.9</ele>
        <time>2019-12-30T12:50:19Z</time>
      </trkpt>
      <trkpt lat="43.81593" lon="7.04658">
        <ele>1224.9</ele>
        <time>2019-12-30T12:50:20Z</time>
      </trkpt>
      <trkpt lat="43.81593" lon="7.04658">
        <ele>1224.9</ele>
        <time>2019-12-30T12:50:21Z</time>
      </trkpt>
      <trkpt lat="43.81593" lon="7.04658">
        <ele>1224.9</ele>
        <time>2019-12-30T12:50:22Z</time>
      </trkpt>
      <trkpt lat="43.81593" lon="7.04658">
        <ele>1224.9</ele>
        <time>2019-12-30T12:50:23Z</time>
      </trkpt>
      <trkpt lat="43.81593" lon="7.04658">
        <ele>1224.9</ele>
        <time>2019-12-30T12:50:24Z</time>
      </trkpt>
      <trkpt lat="43.81593" lon="7.04658">
        <ele>1224.9</ele>
        <time>2019-12-30T12:50:25Z</time>
      </trkpt>
      <trkpt lat="43.81593" lon="7.04657">
        <ele>1224.9</ele>
        <time>2019-12-30T12:50:26Z</time>
      </trkpt>
      <trkpt lat="43.81593" lon="7.04657">
        <ele>1224.9</ele>
        <time>2019-12-30T12:50:27Z</time>
      </trkpt>
      <trkpt lat="43.81593" lon="7.04657">
        <ele>1224.9</ele>
        <time>2019-12-30T12:50:28Z</time>
      </trkpt>
      <trkpt lat="43.81593" lon="7.04657">
        <ele>1224.9</ele>
        <time>2019-12-30T12:50:29Z</time>
      </trkpt>
      <trkpt lat="43.81593" lon="7.04657">
        <ele>1224.9</ele>
        <time>2019-12-30T12:50:30Z</time>
      </trkpt>
      <trkpt lat="43.81593" lon="7.04657">
        <ele>1224.9</ele>
        <time>2019-12-30T12:50:31Z</time>
      </trkpt>
      <trkpt lat="43.81593" lon="7.04657">
        <ele>1224.9</ele>
        <time>2019-12-30T12:50:32Z</time>
      </trkpt>
      <trkpt lat="43.81593" lon="7.04657">
        <ele>1224.9</ele>
        <time>2019-12-30T12:50:33Z</time>
      </trkpt>
      <trkpt lat="43.81593" lon="7.04657">
        <ele>1224.9</ele>
        <time>2019-12-30T12:50:34Z</time>
      </trkpt>
      <trkpt lat="43.81593" lon="7.04657">
        <ele>1224.9</ele>
        <time>2019-12-30T12:50:35Z</time>
      </trkpt>
      <trkpt lat="43.81594" lon="7.04657">
        <ele>1224.9</ele>
        <time>2019-12-30T12:50:36Z</time>
      </trkpt>
      <trkpt lat="43.81594" lon="7.04657">
        <ele>1224.9</ele>
        <time>2019-12-30T12:50:37Z</time>
      </trkpt>
      <trkpt lat="43.81594" lon="7.04657">
        <ele>1224.9</ele>
        <time>2019-12-30T12:50:38Z</time>
      </trkpt>
      <trkpt lat="43.81594" lon="7.04657">
        <ele>1224.9</ele>
        <time>2019-12-30T12:50:39Z</time>
      </trkpt>
      <trkpt lat="43.81594" lon="7.04657">
        <ele>1225</ele>
        <time>2019-12-30T12:50:40Z</time>
      </trkpt>
      <trkpt lat="43.81593" lon="7.04656">
        <ele>1225</ele>
        <time>2019-12-30T12:50:41Z</time>
      </trkpt>
      <trkpt lat="43.81593" lon="7.04656">
        <ele>1225</ele>
        <time>2019-12-30T12:50:42Z</time>
      </trkpt>
      <trkpt lat="43.81593" lon="7.04656">
        <ele>1225</ele>
        <time>2019-12-30T12:50:43Z</time>
      </trkpt>
      <trkpt lat="43.81593" lon="7.04655">
        <ele>1225</ele>
        <time>2019-12-30T12:50:44Z</time>
      </trkpt>
      <trkpt lat="43.81593" lon="7.04655">
        <ele>1225</ele>
        <time>2019-12-30T12:50:45Z</time>
      </trkpt>
      <trkpt lat="43.81592" lon="7.04655">
        <ele>1225</ele>
        <time>2019-12-30T12:50:46Z</time>
      </trkpt>
      <trkpt lat="43.81592" lon="7.04654">
        <ele>1225</ele>
        <time>2019-12-30T12:50:47Z</time>
      </trkpt>
      <trkpt lat="43.81592" lon="7.04654">
        <ele>1225</ele>
        <time>2019-12-30T12:50:48Z</time>
      </trkpt>
      <trkpt lat="43.81592" lon="7.04654">
        <ele>1225</ele>
        <time>2019-12-30T12:50:49Z</time>
      </trkpt>
      <trkpt lat="43.81592" lon="7.04653">
        <ele>1225</ele>
        <time>2019-12-30T12:50:50Z</time>
      </trkpt>
      <trkpt lat="43.81592" lon="7.04653">
        <ele>1225</ele>
        <time>2019-12-30T12:50:51Z</time>
      </trkpt>
      <trkpt lat="43.81592" lon="7.04653">
        <ele>1225</ele>
        <time>2019-12-30T12:50:52Z</time>
      </trkpt>
      <trkpt lat="43.81592" lon="7.04653">
        <ele>1225</ele>
        <time>2019-12-30T12:50:53Z</time>
      </trkpt>
      <trkpt lat="43.81592" lon="7.04653">
        <ele>1225</ele>
        <time>2019-12-30T12:50:54Z</time>
      </trkpt>
      <trkpt lat="43.81592" lon="7.04653">
        <ele>1225.1</ele>
        <time>2019-12-30T12:50:55Z</time>
      </trkpt>
      <trkpt lat="43.81594" lon="7.04654">
        <ele>1225.1</ele>
        <time>2019-12-30T12:50:56Z</time>
      </trkpt>
      <trkpt lat="43.81596" lon="7.04654">
        <ele>1225.2</ele>
        <time>2019-12-30T12:50:57Z</time>
      </trkpt>
      <trkpt lat="43.81597" lon="7.04655">
        <ele>1225.1</ele>
        <time>2019-12-30T12:50:58Z</time>
      </trkpt>
      <trkpt lat="43.81599" lon="7.04655">
        <ele>1225.1</ele>
        <time>2019-12-30T12:50:59Z</time>
      </trkpt>
      <trkpt lat="43.81601" lon="7.04655">
        <ele>1225.1</ele>
        <time>2019-12-30T12:51:00Z</time>
      </trkpt>
      <trkpt lat="43.816" lon="7.04655">
        <ele>1225.1</ele>
        <time>2019-12-30T12:51:01Z</time>
      </trkpt>
      <trkpt lat="43.81601" lon="7.04654">
        <ele>1225.1</ele>
        <time>2019-12-30T12:51:02Z</time>
      </trkpt>
      <trkpt lat="43.81603" lon="7.04653">
        <ele>1224.9</ele>
        <time>2019-12-30T12:51:03Z</time>
      </trkpt>
      <trkpt lat="43.81608" lon="7.04648">
        <ele>1224.5</ele>
        <time>2019-12-30T12:51:04Z</time>
      </trkpt>
      <trkpt lat="43.81611" lon="7.04645">
        <ele>1224.3</ele>
        <time>2019-12-30T12:51:05Z</time>
      </trkpt>
      <trkpt lat="43.81613" lon="7.04643">
        <ele>1224.2</ele>
        <time>2019-12-30T12:51:06Z</time>
      </trkpt>
      <trkpt lat="43.81615" lon="7.0464">
        <ele>1224.1</ele>
        <time>2019-12-30T12:51:07Z</time>
      </trkpt>
      <trkpt lat="43.81617" lon="7.04638">
        <ele>1224</ele>
        <time>2019-12-30T12:51:08Z</time>
      </trkpt>
      <trkpt lat="43.81621" lon="7.04636">
        <ele>1224</ele>
        <time>2019-12-30T12:51:09Z</time>
      </trkpt>
      <trkpt lat="43.81625" lon="7.04636">
        <ele>1223.8</ele>
        <time>2019-12-30T12:51:10Z</time>
      </trkpt>
      <trkpt lat="43.81627" lon="7.04634">
        <ele>1223.6</ele>
        <time>2019-12-30T12:51:11Z</time>
      </trkpt>
      <trkpt lat="43.81627" lon="7.04627">
        <ele>1223.2</ele>
        <time>2019-12-30T12:51:12Z</time>
      </trkpt>
      <trkpt lat="43.81627" lon="7.04619">
        <ele>1222.9</ele>
        <time>2019-12-30T12:51:13Z</time>
      </trkpt>
      <trkpt lat="43.81631" lon="7.04616">
        <ele>1222.5</ele>
        <time>2019-12-30T12:51:14Z</time>
      </trkpt>
      <trkpt lat="43.81635" lon="7.04613">
        <ele>1222.2</ele>
        <time>2019-12-30T12:51:15Z</time>
      </trkpt>
      <trkpt lat="43.81639" lon="7.04609">
        <ele>1221.9</ele>
        <time>2019-12-30T12:51:16Z</time>
      </trkpt>
      <trkpt lat="43.81642" lon="7.04605">
        <ele>1221.7</ele>
        <time>2019-12-30T12:51:17Z</time>
      </trkpt>
      <trkpt lat="43.81647" lon="7.04597">
        <ele>1221.4</ele>
        <time>2019-12-30T12:51:18Z</time>
      </trkpt>
      <trkpt lat="43.81649" lon="7.04593">
        <ele>1221.3</ele>
        <time>2019-12-30T12:51:19Z</time>
      </trkpt>
      <trkpt lat="43.81651" lon="7.04589">
        <ele>1221.2</ele>
        <time>2019-12-30T12:51:20Z</time>
      </trkpt>
      <trkpt lat="43.81653" lon="7.04586">
        <ele>1221.1</ele>
        <time>2019-12-30T12:51:21Z</time>
      </trkpt>
      <trkpt lat="43.81654" lon="7.04582">
        <ele>1221</ele>
        <time>2019-12-30T12:51:22Z</time>
      </trkpt>
      <trkpt lat="43.81656" lon="7.04576">
        <ele>1220.8</ele>
        <time>2019-12-30T12:51:23Z</time>
      </trkpt>
      <trkpt lat="43.81657" lon="7.04569">
        <ele>1220.9</ele>
        <time>2019-12-30T12:51:24Z</time>
      </trkpt>
      <trkpt lat="43.81657" lon="7.04562">
        <ele>1220.9</ele>
        <time>2019-12-30T12:51:25Z</time>
      </trkpt>
      <trkpt lat="43.81657" lon="7.04555">
        <ele>1220.9</ele>
        <time>2019-12-30T12:51:26Z</time>
      </trkpt>
      <trkpt lat="43.81656" lon="7.04548">
        <ele>1220.7</ele>
        <time>2019-12-30T12:51:27Z</time>
      </trkpt>
      <trkpt lat="43.81655" lon="7.04541">
        <ele>1220.6</ele>
        <time>2019-12-30T12:51:28Z</time>
      </trkpt>
      <trkpt lat="43.81654" lon="7.04534">
        <ele>1220.5</ele>
        <time>2019-12-30T12:51:29Z</time>
      </trkpt>
      <trkpt lat="43.81647" lon="7.04528">
        <ele>1220.1</ele>
        <time>2019-12-30T12:51:30Z</time>
      </trkpt>
      <trkpt lat="43.8164" lon="7.04522">
        <ele>1219.5</ele>
        <time>2019-12-30T12:51:31Z</time>
      </trkpt>
      <trkpt lat="43.81633" lon="7.04517">
        <ele>1218.5</ele>
        <time>2019-12-30T12:51:32Z</time>
      </trkpt>
      <trkpt lat="43.81627" lon="7.04513">
        <ele>1217.7</ele>
        <time>2019-12-30T12:51:33Z</time>
      </trkpt>
      <trkpt lat="43.8162" lon="7.04509">
        <ele>1216.7</ele>
        <time>2019-12-30T12:51:34Z</time>
      </trkpt>
      <trkpt lat="43.81615" lon="7.04505">
        <ele>1215.9</ele>
        <time>2019-12-30T12:51:35Z</time>
      </trkpt>
      <trkpt lat="43.81616" lon="7.04502">
        <ele>1215.5</ele>
        <time>2019-12-30T12:51:36Z</time>
      </trkpt>
      <trkpt lat="43.81618" lon="7.045">
        <ele>1215.2</ele>
        <time>2019-12-30T12:51:37Z</time>
      </trkpt>
      <trkpt lat="43.8162" lon="7.04498">
        <ele>1214.8</ele>
        <time>2019-12-30T12:51:38Z</time>
      </trkpt>
      <trkpt lat="43.81621" lon="7.04496">
        <ele>1214.5</ele>
        <time>2019-12-30T12:51:39Z</time>
      </trkpt>
      <trkpt lat="43.81621" lon="7.04494">
        <ele>1214.4</ele>
        <time>2019-12-30T12:51:40Z</time>
      </trkpt>
      <trkpt lat="43.8162" lon="7.04493">
        <ele>1214.2</ele>
        <time>2019-12-30T12:51:41Z</time>
      </trkpt>
      <trkpt lat="43.81619" lon="7.0449">
        <ele>1213.9</ele>
        <time>2019-12-30T12:51:42Z</time>
      </trkpt>
      <trkpt lat="43.81618" lon="7.04487">
        <ele>1213.6</ele>
        <time>2019-12-30T12:51:43Z</time>
      </trkpt>
      <trkpt lat="43.81618" lon="7.04483">
        <ele>1213.6</ele>
        <time>2019-12-30T12:51:44Z</time>
      </trkpt>
      <trkpt lat="43.81618" lon="7.04479">
        <ele>1213.6</ele>
        <time>2019-12-30T12:51:45Z</time>
      </trkpt>
      <trkpt lat="43.81618" lon="7.04475">
        <ele>1213.5</ele>
        <time>2019-12-30T12:51:46Z</time>
      </trkpt>
      <trkpt lat="43.81619" lon="7.04471">
        <ele>1213.6</ele>
        <time>2019-12-30T12:51:47Z</time>
      </trkpt>
      <trkpt lat="43.81619" lon="7.04468">
        <ele>1213.6</ele>
        <time>2019-12-30T12:51:48Z</time>
      </trkpt>
      <trkpt lat="43.81619" lon="7.04464">
        <ele>1213.7</ele>
        <time>2019-12-30T12:51:49Z</time>
      </trkpt>
      <trkpt lat="43.81619" lon="7.0446">
        <ele>1213.6</ele>
        <time>2019-12-30T12:51:50Z</time>
      </trkpt>
      <trkpt lat="43.81619" lon="7.04457">
        <ele>1213.6</ele>
        <time>2019-12-30T12:51:51Z</time>
      </trkpt>
      <trkpt lat="43.81619" lon="7.04453">
        <ele>1213.5</ele>
        <time>2019-12-30T12:51:52Z</time>
      </trkpt>
      <trkpt lat="43.81619" lon="7.04449">
        <ele>1213.6</ele>
        <time>2019-12-30T12:51:53Z</time>
      </trkpt>
      <trkpt lat="43.81618" lon="7.04445">
        <ele>1213.8</ele>
        <time>2019-12-30T12:51:54Z</time>
      </trkpt>
      <trkpt lat="43.81618" lon="7.04439">
        <ele>1214</ele>
        <time>2019-12-30T12:51:55Z</time>
      </trkpt>
      <trkpt lat="43.81617" lon="7.04433">
        <ele>1214.2</ele>
        <time>2019-12-30T12:51:56Z</time>
      </trkpt>
      <trkpt lat="43.81616" lon="7.04428">
        <ele>1214.4</ele>
        <time>2019-12-30T12:51:57Z</time>
      </trkpt>
      <trkpt lat="43.81615" lon="7.04424">
        <ele>1214.5</ele>
        <time>2019-12-30T12:51:58Z</time>
      </trkpt>
      <trkpt lat="43.81614" lon="7.04419">
        <ele>1214.7</ele>
        <time>2019-12-30T12:51:59Z</time>
      </trkpt>
      <trkpt lat="43.81612" lon="7.04414">
        <ele>1214.8</ele>
        <time>2019-12-30T12:52:00Z</time>
      </trkpt>
      <trkpt lat="43.8161" lon="7.04407">
        <ele>1215</ele>
        <time>2019-12-30T12:52:01Z</time>
      </trkpt>
      <trkpt lat="43.81608" lon="7.04401">
        <ele>1214.9</ele>
        <time>2019-12-30T12:52:02Z</time>
      </trkpt>
      <trkpt lat="43.81606" lon="7.04395">
        <ele>1215.3</ele>
        <time>2019-12-30T12:52:03Z</time>
      </trkpt>
      <trkpt lat="43.81604" lon="7.0439">
        <ele>1215.6</ele>
        <time>2019-12-30T12:52:04Z</time>
      </trkpt>
      <trkpt lat="43.81603" lon="7.04386">
        <ele>1215.8</ele>
        <time>2019-12-30T12:52:05Z</time>
      </trkpt>
      <trkpt lat="43.81601" lon="7.04382">
        <ele>1215.9</ele>
        <time>2019-12-30T12:52:06Z</time>
      </trkpt>
      <trkpt lat="43.81599" lon="7.04378">
        <ele>1215.9</ele>
        <time>2019-12-30T12:52:07Z</time>
      </trkpt>
      <trkpt lat="43.81597" lon="7.04374">
        <ele>1216</ele>
        <time>2019-12-30T12:52:08Z</time>
      </trkpt>
      <trkpt lat="43.81595" lon="7.0437">
        <ele>1216</ele>
        <time>2019-12-30T12:52:09Z</time>
      </trkpt>
      <trkpt lat="43.81592" lon="7.04366">
        <ele>1216.1</ele>
        <time>2019-12-30T12:52:10Z</time>
      </trkpt>
      <trkpt lat="43.8159" lon="7.04362">
        <ele>1216.1</ele>
        <time>2019-12-30T12:52:11Z</time>
      </trkpt>
      <trkpt lat="43.81587" lon="7.04357">
        <ele>1215.8</ele>
        <time>2019-12-30T12:52:12Z</time>
      </trkpt>
      <trkpt lat="43.81584" lon="7.04352">
        <ele>1215.9</ele>
        <time>2019-12-30T12:52:13Z</time>
      </trkpt>
      <trkpt lat="43.8158" lon="7.04347">
        <ele>1215.9</ele>
        <time>2019-12-30T12:52:14Z</time>
      </trkpt>
      <trkpt lat="43.81578" lon="7.04342">
        <ele>1215.9</ele>
        <time>2019-12-30T12:52:15Z</time>
      </trkpt>
      <trkpt lat="43.81576" lon="7.04338">
        <ele>1216</ele>
        <time>2019-12-30T12:52:16Z</time>
      </trkpt>
      <trkpt lat="43.81573" lon="7.04333">
        <ele>1216.1</ele>
        <time>2019-12-30T12:52:17Z</time>
      </trkpt>
      <trkpt lat="43.81571" lon="7.04326">
        <ele>1216.5</ele>
        <time>2019-12-30T12:52:18Z</time>
      </trkpt>
      <trkpt lat="43.81569" lon="7.0432">
        <ele>1216.9</ele>
        <time>2019-12-30T12:52:19Z</time>
      </trkpt>
      <trkpt lat="43.81568" lon="7.04314">
        <ele>1217.1</ele>
        <time>2019-12-30T12:52:20Z</time>
      </trkpt>
      <trkpt lat="43.81566" lon="7.0431">
        <ele>1217.2</ele>
        <time>2019-12-30T12:52:21Z</time>
      </trkpt>
      <trkpt lat="43.81565" lon="7.04306">
        <ele>1217.3</ele>
        <time>2019-12-30T12:52:22Z</time>
      </trkpt>
      <trkpt lat="43.81563" lon="7.04302">
        <ele>1217.3</ele>
        <time>2019-12-30T12:52:23Z</time>
      </trkpt>
      <trkpt lat="43.81562" lon="7.04299">
        <ele>1217.4</ele>
        <time>2019-12-30T12:52:24Z</time>
      </trkpt>
      <trkpt lat="43.8156" lon="7.04295">
        <ele>1217.4</ele>
        <time>2019-12-30T12:52:25Z</time>
      </trkpt>
      <trkpt lat="43.81559" lon="7.04292">
        <ele>1217.4</ele>
        <time>2019-12-30T12:52:26Z</time>
      </trkpt>
      <trkpt lat="43.81557" lon="7.04289">
        <ele>1217.4</ele>
        <time>2019-12-30T12:52:27Z</time>
      </trkpt>
      <trkpt lat="43.81556" lon="7.04285">
        <ele>1217.4</ele>
        <time>2019-12-30T12:52:28Z</time>
      </trkpt>
      <trkpt lat="43.81555" lon="7.04282">
        <ele>1217.4</ele>
        <time>2019-12-30T12:52:29Z</time>
      </trkpt>
      <trkpt lat="43.81555" lon="7.04279">
        <ele>1217.4</ele>
        <time>2019-12-30T12:52:30Z</time>
      </trkpt>
      <trkpt lat="43.81555" lon="7.04276">
        <ele>1217.5</ele>
        <time>2019-12-30T12:52:31Z</time>
      </trkpt>
      <trkpt lat="43.81556" lon="7.04273">
        <ele>1217.5</ele>
        <time>2019-12-30T12:52:32Z</time>
      </trkpt>
      <trkpt lat="43.81557" lon="7.0427">
        <ele>1217.5</ele>
        <time>2019-12-30T12:52:33Z</time>
      </trkpt>
      <trkpt lat="43.81558" lon="7.04267">
        <ele>1217.6</ele>
        <time>2019-12-30T12:52:34Z</time>
      </trkpt>
      <trkpt lat="43.81559" lon="7.04265">
        <ele>1217.6</ele>
        <time>2019-12-30T12:52:35Z</time>
      </trkpt>
      <trkpt lat="43.81561" lon="7.04262">
        <ele>1217.7</ele>
        <time>2019-12-30T12:52:36Z</time>
      </trkpt>
      <trkpt lat="43.81562" lon="7.04259">
        <ele>1217.7</ele>
        <time>2019-12-30T12:52:37Z</time>
      </trkpt>
      <trkpt lat="43.81564" lon="7.04257">
        <ele>1217.9</ele>
        <time>2019-12-30T12:52:38Z</time>
      </trkpt>
      <trkpt lat="43.81565" lon="7.04254">
        <ele>1218</ele>
        <time>2019-12-30T12:52:39Z</time>
      </trkpt>
      <trkpt lat="43.81566" lon="7.04251">
        <ele>1218.1</ele>
        <time>2019-12-30T12:52:40Z</time>
      </trkpt>
      <trkpt lat="43.81568" lon="7.04248">
        <ele>1218.3</ele>
        <time>2019-12-30T12:52:41Z</time>
      </trkpt>
      <trkpt lat="43.81569" lon="7.04245">
        <ele>1218.4</ele>
        <time>2019-12-30T12:52:42Z</time>
      </trkpt>
      <trkpt lat="43.81571" lon="7.04242">
        <ele>1218.6</ele>
        <time>2019-12-30T12:52:43Z</time>
      </trkpt>
      <trkpt lat="43.81572" lon="7.04239">
        <ele>1218.8</ele>
        <time>2019-12-30T12:52:44Z</time>
      </trkpt>
      <trkpt lat="43.81574" lon="7.04236">
        <ele>1219.1</ele>
        <time>2019-12-30T12:52:45Z</time>
      </trkpt>
      <trkpt lat="43.81575" lon="7.04233">
        <ele>1219.4</ele>
        <time>2019-12-30T12:52:46Z</time>
      </trkpt>
      <trkpt lat="43.81577" lon="7.0423">
        <ele>1219.7</ele>
        <time>2019-12-30T12:52:47Z</time>
      </trkpt>
      <trkpt lat="43.81578" lon="7.04227">
        <ele>1220</ele>
        <time>2019-12-30T12:52:48Z</time>
      </trkpt>
      <trkpt lat="43.8158" lon="7.04224">
        <ele>1220.3</ele>
        <time>2019-12-30T12:52:49Z</time>
      </trkpt>
      <trkpt lat="43.81581" lon="7.04221">
        <ele>1220.6</ele>
        <time>2019-12-30T12:52:50Z</time>
      </trkpt>
      <trkpt lat="43.81582" lon="7.04219">
        <ele>1221</ele>
        <time>2019-12-30T12:52:51Z</time>
      </trkpt>
      <trkpt lat="43.81583" lon="7.04216">
        <ele>1221.4</ele>
        <time>2019-12-30T12:52:52Z</time>
      </trkpt>
      <trkpt lat="43.81584" lon="7.04213">
        <ele>1221.8</ele>
        <time>2019-12-30T12:52:53Z</time>
      </trkpt>
      <trkpt lat="43.81585" lon="7.0421">
        <ele>1222</ele>
        <time>2019-12-30T12:52:54Z</time>
      </trkpt>
      <trkpt lat="43.81585" lon="7.04206">
        <ele>1222.3</ele>
        <time>2019-12-30T12:52:55Z</time>
      </trkpt>
      <trkpt lat="43.81585" lon="7.04203">
        <ele>1222.6</ele>
        <time>2019-12-30T12:52:56Z</time>
      </trkpt>
      <trkpt lat="43.81585" lon="7.04199">
        <ele>1222.9</ele>
        <time>2019-12-30T12:52:57Z</time>
      </trkpt>
      <trkpt lat="43.81585" lon="7.04195">
        <ele>1223.3</ele>
        <time>2019-12-30T12:52:58Z</time>
      </trkpt>
      <trkpt lat="43.81584" lon="7.04191">
        <ele>1223.6</ele>
        <time>2019-12-30T12:52:59Z</time>
      </trkpt>
      <trkpt lat="43.81584" lon="7.04187">
        <ele>1223.9</ele>
        <time>2019-12-30T12:53:00Z</time>
      </trkpt>
      <trkpt lat="43.81584" lon="7.04183">
        <ele>1224.2</ele>
        <time>2019-12-30T12:53:01Z</time>
      </trkpt>
      <trkpt lat="43.81585" lon="7.0418">
        <ele>1224.9</ele>
        <time>2019-12-30T12:53:02Z</time>
      </trkpt>
      <trkpt lat="43.81586" lon="7.04176">
        <ele>1225.5</ele>
        <time>2019-12-30T12:53:03Z</time>
      </trkpt>
      <trkpt lat="43.81587" lon="7.04172">
        <ele>1226</ele>
        <time>2019-12-30T12:53:04Z</time>
      </trkpt>
      <trkpt lat="43.81588" lon="7.04168">
        <ele>1226.4</ele>
        <time>2019-12-30T12:53:05Z</time>
      </trkpt>
      <trkpt lat="43.8159" lon="7.04164">
        <ele>1227</ele>
        <time>2019-12-30T12:53:06Z</time>
      </trkpt>
      <trkpt lat="43.81591" lon="7.0416">
        <ele>1227.5</ele>
        <time>2019-12-30T12:53:07Z</time>
      </trkpt>
      <trkpt lat="43.81593" lon="7.04156">
        <ele>1228</ele>
        <time>2019-12-30T12:53:08Z</time>
      </trkpt>
      <trkpt lat="43.81594" lon="7.04152">
        <ele>1228.5</ele>
        <time>2019-12-30T12:53:09Z</time>
      </trkpt>
      <trkpt lat="43.81596" lon="7.04148">
        <ele>1229</ele>
        <time>2019-12-30T12:53:10Z</time>
      </trkpt>
      <trkpt lat="43.81597" lon="7.04144">
        <ele>1229.5</ele>
        <time>2019-12-30T12:53:11Z</time>
      </trkpt>
      <trkpt lat="43.81599" lon="7.0414">
        <ele>1230</ele>
        <time>2019-12-30T12:53:12Z</time>
      </trkpt>
      <trkpt lat="43.81601" lon="7.04136">
        <ele>1230.5</ele>
        <time>2019-12-30T12:53:13Z</time>
      </trkpt>
      <trkpt lat="43.81602" lon="7.04131">
        <ele>1230.9</ele>
        <time>2019-12-30T12:53:14Z</time>
      </trkpt>
      <trkpt lat="43.81604" lon="7.04127">
        <ele>1231.4</ele>
        <time>2019-12-30T12:53:15Z</time>
      </trkpt>
      <trkpt lat="43.81607" lon="7.04123">
        <ele>1231.8</ele>
        <time>2019-12-30T12:53:16Z</time>
      </trkpt>
      <trkpt lat="43.81609" lon="7.04119">
        <ele>1232.2</ele>
        <time>2019-12-30T12:53:17Z</time>
      </trkpt>
      <trkpt lat="43.81614" lon="7.04112">
        <ele>1233.1</ele>
        <time>2019-12-30T12:53:18Z</time>
      </trkpt>
      <trkpt lat="43.81616" lon="7.0411">
        <ele>1233.5</ele>
        <time>2019-12-30T12:53:19Z</time>
      </trkpt>
      <trkpt lat="43.81618" lon="7.04107">
        <ele>1233.9</ele>
        <time>2019-12-30T12:53:20Z</time>
      </trkpt>
      <trkpt lat="43.8162" lon="7.04104">
        <ele>1234.2</ele>
        <time>2019-12-30T12:53:21Z</time>
      </trkpt>
      <trkpt lat="43.81622" lon="7.04101">
        <ele>1234.5</ele>
        <time>2019-12-30T12:53:22Z</time>
      </trkpt>
      <trkpt lat="43.81625" lon="7.04099">
        <ele>1234.9</ele>
        <time>2019-12-30T12:53:23Z</time>
      </trkpt>
      <trkpt lat="43.81628" lon="7.04096">
        <ele>1235.4</ele>
        <time>2019-12-30T12:53:24Z</time>
      </trkpt>
      <trkpt lat="43.8163" lon="7.04094">
        <ele>1235.9</ele>
        <time>2019-12-30T12:53:25Z</time>
      </trkpt>
      <trkpt lat="43.81633" lon="7.04091">
        <ele>1236.2</ele>
        <time>2019-12-30T12:53:26Z</time>
      </trkpt>
      <trkpt lat="43.81635" lon="7.04089">
        <ele>1236.5</ele>
        <time>2019-12-30T12:53:27Z</time>
      </trkpt>
      <trkpt lat="43.81637" lon="7.04087">
        <ele>1236.9</ele>
        <time>2019-12-30T12:53:28Z</time>
      </trkpt>
      <trkpt lat="43.81639" lon="7.04085">
        <ele>1237.2</ele>
        <time>2019-12-30T12:53:29Z</time>
      </trkpt>
      <trkpt lat="43.81642" lon="7.04083">
        <ele>1237.5</ele>
        <time>2019-12-30T12:53:30Z</time>
      </trkpt>
      <trkpt lat="43.81644" lon="7.0408">
        <ele>1238.1</ele>
        <time>2019-12-30T12:53:31Z</time>
      </trkpt>
      <trkpt lat="43.81647" lon="7.04077">
        <ele>1238.7</ele>
        <time>2019-12-30T12:53:32Z</time>
      </trkpt>
      <trkpt lat="43.81649" lon="7.04074">
        <ele>1239.2</ele>
        <time>2019-12-30T12:53:33Z</time>
      </trkpt>
      <trkpt lat="43.81652" lon="7.0407">
        <ele>1239.7</ele>
        <time>2019-12-30T12:53:34Z</time>
      </trkpt>
      <trkpt lat="43.81653" lon="7.04066">
        <ele>1240</ele>
        <time>2019-12-30T12:53:35Z</time>
      </trkpt>
      <trkpt lat="43.81654" lon="7.04061">
        <ele>1240.3</ele>
        <time>2019-12-30T12:53:36Z</time>
      </trkpt>
      <trkpt lat="43.81654" lon="7.04057">
        <ele>1240.5</ele>
        <time>2019-12-30T12:53:37Z</time>
      </trkpt>
      <trkpt lat="43.81655" lon="7.04054">
        <ele>1240.5</ele>
        <time>2019-12-30T12:53:38Z</time>
      </trkpt>
      <trkpt lat="43.81655" lon="7.0405">
        <ele>1240.6</ele>
        <time>2019-12-30T12:53:39Z</time>
      </trkpt>
      <trkpt lat="43.81656" lon="7.04046">
        <ele>1240.7</ele>
        <time>2019-12-30T12:53:40Z</time>
      </trkpt>
      <trkpt lat="43.81656" lon="7.04041">
        <ele>1241</ele>
        <time>2019-12-30T12:53:41Z</time>
      </trkpt>
      <trkpt lat="43.81656" lon="7.04036">
        <ele>1241.1</ele>
        <time>2019-12-30T12:53:42Z</time>
      </trkpt>
      <trkpt lat="43.81656" lon="7.04031">
        <ele>1241.1</ele>
        <time>2019-12-30T12:53:43Z</time>
      </trkpt>
      <trkpt lat="43.81656" lon="7.04027">
        <ele>1241.1</ele>
        <time>2019-12-30T12:53:44Z</time>
      </trkpt>
      <trkpt lat="43.81657" lon="7.04022">
        <ele>1241.1</ele>
        <time>2019-12-30T12:53:45Z</time>
      </trkpt>
      <trkpt lat="43.81658" lon="7.04016">
        <ele>1241</ele>
        <time>2019-12-30T12:53:46Z</time>
      </trkpt>
      <trkpt lat="43.81659" lon="7.04012">
        <ele>1240.9</ele>
        <time>2019-12-30T12:53:47Z</time>
      </trkpt>
      <trkpt lat="43.8166" lon="7.04007">
        <ele>1240.8</ele>
        <time>2019-12-30T12:53:48Z</time>
      </trkpt>
      <trkpt lat="43.81661" lon="7.04004">
        <ele>1240.7</ele>
        <time>2019-12-30T12:53:49Z</time>
      </trkpt>
      <trkpt lat="43.81661" lon="7.04">
        <ele>1240.7</ele>
        <time>2019-12-30T12:53:50Z</time>
      </trkpt>
      <trkpt lat="43.81662" lon="7.03997">
        <ele>1240.7</ele>
        <time>2019-12-30T12:53:51Z</time>
      </trkpt>
      <trkpt lat="43.81664" lon="7.03993">
        <ele>1240.6</ele>
        <time>2019-12-30T12:53:52Z</time>
      </trkpt>
      <trkpt lat="43.81665" lon="7.03989">
        <ele>1240.4</ele>
        <time>2019-12-30T12:53:53Z</time>
      </trkpt>
      <trkpt lat="43.81666" lon="7.03984">
        <ele>1240.5</ele>
        <time>2019-12-30T12:53:54Z</time>
      </trkpt>
      <trkpt lat="43.81667" lon="7.0398">
        <ele>1240.5</ele>
        <time>2019-12-30T12:53:55Z</time>
      </trkpt>
      <trkpt lat="43.81667" lon="7.03976">
        <ele>1240.5</ele>
        <time>2019-12-30T12:53:56Z</time>
      </trkpt>
      <trkpt lat="43.81668" lon="7.03973">
        <ele>1240.3</ele>
        <time>2019-12-30T12:53:57Z</time>
      </trkpt>
      <trkpt lat="43.81669" lon="7.0397">
        <ele>1240.2</ele>
        <time>2019-12-30T12:53:58Z</time>
      </trkpt>
      <trkpt lat="43.8167" lon="7.03967">
        <ele>1240.3</ele>
        <time>2019-12-30T12:53:59Z</time>
      </trkpt>
      <trkpt lat="43.81671" lon="7.03963">
        <ele>1240.6</ele>
        <time>2019-12-30T12:54:00Z</time>
      </trkpt>
      <trkpt lat="43.81672" lon="7.0396">
        <ele>1240.9</ele>
        <time>2019-12-30T12:54:01Z</time>
      </trkpt>
      <trkpt lat="43.81673" lon="7.03957">
        <ele>1241.1</ele>
        <time>2019-12-30T12:54:02Z</time>
      </trkpt>
      <trkpt lat="43.81674" lon="7.03954">
        <ele>1241.2</ele>
        <time>2019-12-30T12:54:03Z</time>
      </trkpt>
      <trkpt lat="43.81676" lon="7.03951">
        <ele>1241.4</ele>
        <time>2019-12-30T12:54:04Z</time>
      </trkpt>
      <trkpt lat="43.81677" lon="7.03948">
        <ele>1241.5</ele>
        <time>2019-12-30T12:54:05Z</time>
      </trkpt>
      <trkpt lat="43.81678" lon="7.03945">
        <ele>1241.8</ele>
        <time>2019-12-30T12:54:06Z</time>
      </trkpt>
      <trkpt lat="43.81679" lon="7.03942">
        <ele>1242.2</ele>
        <time>2019-12-30T12:54:07Z</time>
      </trkpt>
      <trkpt lat="43.8168" lon="7.0394">
        <ele>1242.4</ele>
        <time>2019-12-30T12:54:08Z</time>
      </trkpt>
      <trkpt lat="43.81681" lon="7.03938">
        <ele>1242.7</ele>
        <time>2019-12-30T12:54:09Z</time>
      </trkpt>
      <trkpt lat="43.81682" lon="7.03935">
        <ele>1242.9</ele>
        <time>2019-12-30T12:54:10Z</time>
      </trkpt>
      <trkpt lat="43.81683" lon="7.03931">
        <ele>1243</ele>
        <time>2019-12-30T12:54:11Z</time>
      </trkpt>
      <trkpt lat="43.81685" lon="7.03927">
        <ele>1243.3</ele>
        <time>2019-12-30T12:54:12Z</time>
      </trkpt>
      <trkpt lat="43.81686" lon="7.03923">
        <ele>1243.8</ele>
        <time>2019-12-30T12:54:13Z</time>
      </trkpt>
      <trkpt lat="43.81687" lon="7.0392">
        <ele>1244.5</ele>
        <time>2019-12-30T12:54:14Z</time>
      </trkpt>
      <trkpt lat="43.81688" lon="7.03917">
        <ele>1245</ele>
        <time>2019-12-30T12:54:15Z</time>
      </trkpt>
      <trkpt lat="43.8169" lon="7.03912">
        <ele>1245.5</ele>
        <time>2019-12-30T12:54:16Z</time>
      </trkpt>
      <trkpt lat="43.81692" lon="7.03908">
        <ele>1246.1</ele>
        <time>2019-12-30T12:54:17Z</time>
      </trkpt>
      <trkpt lat="43.81693" lon="7.03904">
        <ele>1246.7</ele>
        <time>2019-12-30T12:54:18Z</time>
      </trkpt>
      <trkpt lat="43.81693" lon="7.039">
        <ele>1247.3</ele>
        <time>2019-12-30T12:54:19Z</time>
      </trkpt>
      <trkpt lat="43.81694" lon="7.03896">
        <ele>1247.5</ele>
        <time>2019-12-30T12:54:20Z</time>
      </trkpt>
      <trkpt lat="43.81694" lon="7.03892">
        <ele>1247.5</ele>
        <time>2019-12-30T12:54:21Z</time>
      </trkpt>
      <trkpt lat="43.81695" lon="7.03889">
        <ele>1247.4</ele>
        <time>2019-12-30T12:54:22Z</time>
      </trkpt>
      <trkpt lat="43.81695" lon="7.03886">
        <ele>1247.4</ele>
        <time>2019-12-30T12:54:23Z</time>
      </trkpt>
      <trkpt lat="43.81694" lon="7.03883">
        <ele>1247.4</ele>
        <time>2019-12-30T12:54:24Z</time>
      </trkpt>
      <trkpt lat="43.81694" lon="7.0388">
        <ele>1247.3</ele>
        <time>2019-12-30T12:54:25Z</time>
      </trkpt>
      <trkpt lat="43.81694" lon="7.03878">
        <ele>1247</ele>
        <time>2019-12-30T12:54:26Z</time>
      </trkpt>
      <trkpt lat="43.81693" lon="7.03875">
        <ele>1246.6</ele>
        <time>2019-12-30T12:54:27Z</time>
      </trkpt>
      <trkpt lat="43.81693" lon="7.03871">
        <ele>1246.3</ele>
        <time>2019-12-30T12:54:28Z</time>
      </trkpt>
      <trkpt lat="43.81693" lon="7.03868">
        <ele>1246.3</ele>
        <time>2019-12-30T12:54:29Z</time>
      </trkpt>
      <trkpt lat="43.81693" lon="7.03865">
        <ele>1246.2</ele>
        <time>2019-12-30T12:54:30Z</time>
      </trkpt>
      <trkpt lat="43.81693" lon="7.03861">
        <ele>1246.1</ele>
        <time>2019-12-30T12:54:31Z</time>
      </trkpt>
      <trkpt lat="43.81693" lon="7.03858">
        <ele>1245.7</ele>
        <time>2019-12-30T12:54:32Z</time>
      </trkpt>
      <trkpt lat="43.81694" lon="7.03855">
        <ele>1245.3</ele>
        <time>2019-12-30T12:54:33Z</time>
      </trkpt>
      <trkpt lat="43.81695" lon="7.03852">
        <ele>1245.2</ele>
        <time>2019-12-30T12:54:34Z</time>
      </trkpt>
      <trkpt lat="43.81695" lon="7.03849">
        <ele>1245.6</ele>
        <time>2019-12-30T12:54:35Z</time>
      </trkpt>
      <trkpt lat="43.81696" lon="7.03847">
        <ele>1245.9</ele>
        <time>2019-12-30T12:54:36Z</time>
      </trkpt>
      <trkpt lat="43.81696" lon="7.03845">
        <ele>1246.1</ele>
        <time>2019-12-30T12:54:37Z</time>
      </trkpt>
      <trkpt lat="43.81696" lon="7.03843">
        <ele>1246.1</ele>
        <time>2019-12-30T12:54:38Z</time>
      </trkpt>
      <trkpt lat="43.81696" lon="7.03841">
        <ele>1246.1</ele>
        <time>2019-12-30T12:54:39Z</time>
      </trkpt>
      <trkpt lat="43.81696" lon="7.0384">
        <ele>1246.1</ele>
        <time>2019-12-30T12:54:40Z</time>
      </trkpt>
      <trkpt lat="43.81695" lon="7.03838">
        <ele>1246.1</ele>
        <time>2019-12-30T12:54:41Z</time>
      </trkpt>
      <trkpt lat="43.81695" lon="7.03836">
        <ele>1246.1</ele>
        <time>2019-12-30T12:54:42Z</time>
      </trkpt>
      <trkpt lat="43.81694" lon="7.03834">
        <ele>1246.1</ele>
        <time>2019-12-30T12:54:43Z</time>
      </trkpt>
      <trkpt lat="43.81694" lon="7.03832">
        <ele>1246.1</ele>
        <time>2019-12-30T12:54:44Z</time>
      </trkpt>
      <trkpt lat="43.81693" lon="7.0383">
        <ele>1246.1</ele>
        <time>2019-12-30T12:54:45Z</time>
      </trkpt>
      <trkpt lat="43.81693" lon="7.03828">
        <ele>1246</ele>
        <time>2019-12-30T12:54:46Z</time>
      </trkpt>
      <trkpt lat="43.81693" lon="7.03827">
        <ele>1245.9</ele>
        <time>2019-12-30T12:54:47Z</time>
      </trkpt>
      <trkpt lat="43.81693" lon="7.03824">
        <ele>1245.6</ele>
        <time>2019-12-30T12:54:48Z</time>
      </trkpt>
      <trkpt lat="43.81692" lon="7.03822">
        <ele>1245.4</ele>
        <time>2019-12-30T12:54:49Z</time>
      </trkpt>
      <trkpt lat="43.81692" lon="7.0382">
        <ele>1245.2</ele>
        <time>2019-12-30T12:54:50Z</time>
      </trkpt>
      <trkpt lat="43.81691" lon="7.03817">
        <ele>1245</ele>
        <time>2019-12-30T12:54:51Z</time>
      </trkpt>
      <trkpt lat="43.8169" lon="7.03815">
        <ele>1244.7</ele>
        <time>2019-12-30T12:54:52Z</time>
      </trkpt>
      <trkpt lat="43.8169" lon="7.03812">
        <ele>1244.4</ele>
        <time>2019-12-30T12:54:53Z</time>
      </trkpt>
      <trkpt lat="43.81689" lon="7.03808">
        <ele>1244</ele>
        <time>2019-12-30T12:54:54Z</time>
      </trkpt>
      <trkpt lat="43.81689" lon="7.03804">
        <ele>1243.7</ele>
        <time>2019-12-30T12:54:55Z</time>
      </trkpt>
      <trkpt lat="43.81689" lon="7.03799">
        <ele>1243.6</ele>
        <time>2019-12-30T12:54:56Z</time>
      </trkpt>
      <trkpt lat="43.81689" lon="7.03795">
        <ele>1243.5</ele>
        <time>2019-12-30T12:54:57Z</time>
      </trkpt>
      <trkpt lat="43.81689" lon="7.03792">
        <ele>1243.3</ele>
        <time>2019-12-30T12:54:58Z</time>
      </trkpt>
      <trkpt lat="43.81689" lon="7.03789">
        <ele>1243.2</ele>
        <time>2019-12-30T12:54:59Z</time>
      </trkpt>
      <trkpt lat="43.81689" lon="7.03785">
        <ele>1243</ele>
        <time>2019-12-30T12:55:00Z</time>
      </trkpt>
      <trkpt lat="43.81689" lon="7.03784">
        <ele>1242.9</ele>
        <time>2019-12-30T12:55:01Z</time>
      </trkpt>
      <trkpt lat="43.81689" lon="7.03783">
        <ele>1242.9</ele>
        <time>2019-12-30T12:55:02Z</time>
      </trkpt>
      <trkpt lat="43.81689" lon="7.03782">
        <ele>1242.8</ele>
        <time>2019-12-30T12:55:03Z</time>
      </trkpt>
      <trkpt lat="43.81689" lon="7.03781">
        <ele>1242.8</ele>
        <time>2019-12-30T12:55:04Z</time>
      </trkpt>
      <trkpt lat="43.81689" lon="7.03779">
        <ele>1242.7</ele>
        <time>2019-12-30T12:55:05Z</time>
      </trkpt>
      <trkpt lat="43.81689" lon="7.03778">
        <ele>1242.7</ele>
        <time>2019-12-30T12:55:06Z</time>
      </trkpt>
      <trkpt lat="43.8169" lon="7.03777">
        <ele>1242.6</ele>
        <time>2019-12-30T12:55:07Z</time>
      </trkpt>
      <trkpt lat="43.8169" lon="7.03776">
        <ele>1242.5</ele>
        <time>2019-12-30T12:55:08Z</time>
      </trkpt>
      <trkpt lat="43.81689" lon="7.03776">
        <ele>1242.5</ele>
        <time>2019-12-30T12:55:09Z</time>
      </trkpt>
      <trkpt lat="43.81689" lon="7.03776">
        <ele>1242.5</ele>
        <time>2019-12-30T12:55:10Z</time>
      </trkpt>
      <trkpt lat="43.81689" lon="7.03776">
        <ele>1242.5</ele>
        <time>2019-12-30T12:55:11Z</time>
      </trkpt>
      <trkpt lat="43.81689" lon="7.03775">
        <ele>1242.5</ele>
        <time>2019-12-30T12:55:12Z</time>
      </trkpt>
      <trkpt lat="43.8169" lon="7.03775">
        <ele>1242.5</ele>
        <time>2019-12-30T12:55:13Z</time>
      </trkpt>
      <trkpt lat="43.8169" lon="7.03775">
        <ele>1242.5</ele>
        <time>2019-12-30T12:55:14Z</time>
      </trkpt>
      <trkpt lat="43.81689" lon="7.03775">
        <ele>1242.5</ele>
        <time>2019-12-30T12:55:15Z</time>
      </trkpt>
      <trkpt lat="43.81689" lon="7.03775">
        <ele>1242.5</ele>
        <time>2019-12-30T12:55:16Z</time>
      </trkpt>
      <trkpt lat="43.81689" lon="7.03775">
        <ele>1242.5</ele>
        <time>2019-12-30T12:55:17Z</time>
      </trkpt>
      <trkpt lat="43.81689" lon="7.03775">
        <ele>1242.5</ele>
        <time>2019-12-30T12:55:18Z</time>
      </trkpt>
      <trkpt lat="43.81689" lon="7.03775">
        <ele>1242.4</ele>
        <time>2019-12-30T12:55:19Z</time>
      </trkpt>
      <trkpt lat="43.81689" lon="7.03774">
        <ele>1242.4</ele>
        <time>2019-12-30T12:55:20Z</time>
      </trkpt>
      <trkpt lat="43.81689" lon="7.03773">
        <ele>1242.4</ele>
        <time>2019-12-30T12:55:21Z</time>
      </trkpt>
      <trkpt lat="43.8169" lon="7.03773">
        <ele>1242.3</ele>
        <time>2019-12-30T12:55:22Z</time>
      </trkpt>
      <trkpt lat="43.8169" lon="7.03772">
        <ele>1242.3</ele>
        <time>2019-12-30T12:55:23Z</time>
      </trkpt>
      <trkpt lat="43.8169" lon="7.03772">
        <ele>1242.3</ele>
        <time>2019-12-30T12:55:24Z</time>
      </trkpt>
      <trkpt lat="43.8169" lon="7.03771">
        <ele>1242.2</ele>
        <time>2019-12-30T12:55:25Z</time>
      </trkpt>
      <trkpt lat="43.8169" lon="7.03771">
        <ele>1242.2</ele>
        <time>2019-12-30T12:55:26Z</time>
      </trkpt>
      <trkpt lat="43.81689" lon="7.03771">
        <ele>1242.2</ele>
        <time>2019-12-30T12:55:27Z</time>
      </trkpt>
      <trkpt lat="43.81689" lon="7.03771">
        <ele>1242.2</ele>
        <time>2019-12-30T12:55:28Z</time>
      </trkpt>
      <trkpt lat="43.81689" lon="7.03771">
        <ele>1242.2</ele>
        <time>2019-12-30T12:55:29Z</time>
      </trkpt>
      <trkpt lat="43.81689" lon="7.03771">
        <ele>1242.2</ele>
        <time>2019-12-30T12:55:30Z</time>
      </trkpt>
      <trkpt lat="43.81689" lon="7.0377">
        <ele>1242.2</ele>
        <time>2019-12-30T12:55:31Z</time>
      </trkpt>
      <trkpt lat="43.81689" lon="7.0377">
        <ele>1242.2</ele>
        <time>2019-12-30T12:55:32Z</time>
      </trkpt>
      <trkpt lat="43.81689" lon="7.0377">
        <ele>1242.2</ele>
        <time>2019-12-30T12:55:33Z</time>
      </trkpt>
      <trkpt lat="43.81689" lon="7.0377">
        <ele>1242.2</ele>
        <time>2019-12-30T12:55:34Z</time>
      </trkpt>
      <trkpt lat="43.81689" lon="7.0377">
        <ele>1242.2</ele>
        <time>2019-12-30T12:55:35Z</time>
      </trkpt>
      <trkpt lat="43.81689" lon="7.03769">
        <ele>1242.2</ele>
        <time>2019-12-30T12:55:36Z</time>
      </trkpt>
      <trkpt lat="43.81689" lon="7.03769">
        <ele>1242.2</ele>
        <time>2019-12-30T12:55:37Z</time>
      </trkpt>
      <trkpt lat="43.81689" lon="7.03769">
        <ele>1242.2</ele>
        <time>2019-12-30T12:55:38Z</time>
      </trkpt>
      <trkpt lat="43.81689" lon="7.03769">
        <ele>1242.2</ele>
        <time>2019-12-30T12:55:39Z</time>
      </trkpt>
      <trkpt lat="43.81689" lon="7.03769">
        <ele>1242.2</ele>
        <time>2019-12-30T12:55:40Z</time>
      </trkpt>
      <trkpt lat="43.81689" lon="7.03768">
        <ele>1242.2</ele>
        <time>2019-12-30T12:55:41Z</time>
      </trkpt>
      <trkpt lat="43.81689" lon="7.03768">
        <ele>1242.2</ele>
        <time>2019-12-30T12:55:42Z</time>
      </trkpt>
      <trkpt lat="43.81689" lon="7.03768">
        <ele>1242.2</ele>
        <time>2019-12-30T12:55:43Z</time>
      </trkpt>
      <trkpt lat="43.81689" lon="7.03768">
        <ele>1242.2</ele>
        <time>2019-12-30T12:55:44Z</time>
      </trkpt>
      <trkpt lat="43.81689" lon="7.03768">
        <ele>1242.2</ele>
        <time>2019-12-30T12:55:45Z</time>
      </trkpt>
      <trkpt lat="43.81689" lon="7.03768">
        <ele>1242.2</ele>
        <time>2019-12-30T12:55:46Z</time>
      </trkpt>
      <trkpt lat="43.81689" lon="7.03767">
        <ele>1242.2</ele>
        <time>2019-12-30T12:55:47Z</time>
      </trkpt>
      <trkpt lat="43.81689" lon="7.03767">
        <ele>1242.2</ele>
        <time>2019-12-30T12:55:48Z</time>
      </trkpt>
      <trkpt lat="43.81689" lon="7.03767">
        <ele>1242.2</ele>
        <time>2019-12-30T12:55:49Z</time>
      </trkpt>
      <trkpt lat="43.81689" lon="7.03767">
        <ele>1242.2</ele>
        <time>2019-12-30T12:55:50Z</time>
      </trkpt>
      <trkpt lat="43.81689" lon="7.03767">
        <ele>1242.2</ele>
        <time>2019-12-30T12:55:51Z</time>
      </trkpt>
      <trkpt lat="43.81689" lon="7.03766">
        <ele>1242.2</ele>
        <time>2019-12-30T12:55:52Z</time>
      </trkpt>
      <trkpt lat="43.81689" lon="7.03766">
        <ele>1242.2</ele>
        <time>2019-12-30T12:55:53Z</time>
      </trkpt>
      <trkpt lat="43.81689" lon="7.03766">
        <ele>1242.2</ele>
        <time>2019-12-30T12:55:54Z</time>
      </trkpt>
      <trkpt lat="43.81689" lon="7.03766">
        <ele>1242.2</ele>
        <time>2019-12-30T12:55:55Z</time>
      </trkpt>
      <trkpt lat="43.81689" lon="7.03766">
        <ele>1242.2</ele>
        <time>2019-12-30T12:55:56Z</time>
      </trkpt>
      <trkpt lat="43.81689" lon="7.03765">
        <ele>1242.2</ele>
        <time>2019-12-30T12:55:57Z</time>
      </trkpt>
      <trkpt lat="43.81689" lon="7.03765">
        <ele>1242.2</ele>
        <time>2019-12-30T12:55:58Z</time>
      </trkpt>
      <trkpt lat="43.81689" lon="7.03765">
        <ele>1242.2</ele>
        <time>2019-12-30T12:55:59Z</time>
      </trkpt>
      <trkpt lat="43.81689" lon="7.03765">
        <ele>1242.2</ele>
        <time>2019-12-30T12:56:00Z</time>
      </trkpt>
      <trkpt lat="43.81689" lon="7.03765">
        <ele>1242.2</ele>
        <time>2019-12-30T12:56:01Z</time>
      </trkpt>
      <trkpt lat="43.81689" lon="7.03765">
        <ele>1242.2</ele>
        <time>2019-12-30T12:56:02Z</time>
      </trkpt>
      <trkpt lat="43.81689" lon="7.03764">
        <ele>1242.2</ele>
        <time>2019-12-30T12:56:03Z</time>
      </trkpt>
      <trkpt lat="43.81689" lon="7.03764">
        <ele>1242.2</ele>
        <time>2019-12-30T12:56:04Z</time>
      </trkpt>
      <trkpt lat="43.81689" lon="7.03764">
        <ele>1242.2</ele>
        <time>2019-12-30T12:56:05Z</time>
      </trkpt>
      <trkpt lat="43.81689" lon="7.03764">
        <ele>1242.2</ele>
        <time>2019-12-30T12:56:06Z</time>
      </trkpt>
      <trkpt lat="43.81689" lon="7.03764">
        <ele>1242.2</ele>
        <time>2019-12-30T12:56:07Z</time>
      </trkpt>
      <trkpt lat="43.81689" lon="7.03763">
        <ele>1242.2</ele>
        <time>2019-12-30T12:56:08Z</time>
      </trkpt>
      <trkpt lat="43.81689" lon="7.03763">
        <ele>1242.2</ele>
        <time>2019-12-30T12:56:09Z</time>
      </trkpt>
      <trkpt lat="43.81689" lon="7.03763">
        <ele>1242.2</ele>
        <time>2019-12-30T12:56:10Z</time>
      </trkpt>
      <trkpt lat="43.81689" lon="7.03763">
        <ele>1242.2</ele>
        <time>2019-12-30T12:56:11Z</time>
      </trkpt>
      <trkpt lat="43.81689" lon="7.03763">
        <ele>1242.2</ele>
        <time>2019-12-30T12:56:12Z</time>
      </trkpt>
      <trkpt lat="43.81689" lon="7.03763">
        <ele>1242.2</ele>
        <time>2019-12-30T12:56:13Z</time>
      </trkpt>
      <trkpt lat="43.81689" lon="7.03762">
        <ele>1242.2</ele>
        <time>2019-12-30T12:56:14Z</time>
      </trkpt>
      <trkpt lat="43.81689" lon="7.03762">
        <ele>1242.2</ele>
        <time>2019-12-30T12:56:15Z</time>
      </trkpt>
      <trkpt lat="43.81689" lon="7.03762">
        <ele>1242.2</ele>
        <time>2019-12-30T12:56:16Z</time>
      </trkpt>
      <trkpt lat="43.81689" lon="7.03762">
        <ele>1242.2</ele>
        <time>2019-12-30T12:56:17Z</time>
      </trkpt>
      <trkpt lat="43.81689" lon="7.03762">
        <ele>1242.2</ele>
        <time>2019-12-30T12:56:18Z</time>
      </trkpt>
      <trkpt lat="43.81689" lon="7.03761">
        <ele>1242.2</ele>
        <time>2019-12-30T12:56:19Z</time>
      </trkpt>
      <trkpt lat="43.81689" lon="7.03761">
        <ele>1242.2</ele>
        <time>2019-12-30T12:56:20Z</time>
      </trkpt>
      <trkpt lat="43.81689" lon="7.03761">
        <ele>1242.2</ele>
        <time>2019-12-30T12:56:21Z</time>
      </trkpt>
      <trkpt lat="43.81689" lon="7.03761">
        <ele>1242.2</ele>
        <time>2019-12-30T12:56:22Z</time>
      </trkpt>
      <trkpt lat="43.81689" lon="7.03761">
        <ele>1242.2</ele>
        <time>2019-12-30T12:56:23Z</time>
      </trkpt>
      <trkpt lat="43.81689" lon="7.0376">
        <ele>1242.2</ele>
        <time>2019-12-30T12:56:24Z</time>
      </trkpt>
      <trkpt lat="43.81689" lon="7.0376">
        <ele>1242.1</ele>
        <time>2019-12-30T12:56:25Z</time>
      </trkpt>
      <trkpt lat="43.81689" lon="7.0376">
        <ele>1242.1</ele>
        <time>2019-12-30T12:56:26Z</time>
      </trkpt>
      <trkpt lat="43.81689" lon="7.0376">
        <ele>1242</ele>
        <time>2019-12-30T12:56:27Z</time>
      </trkpt>
      <trkpt lat="43.81689" lon="7.0376">
        <ele>1242</ele>
        <time>2019-12-30T12:56:28Z</time>
      </trkpt>
      <trkpt lat="43.81689" lon="7.0376">
        <ele>1242</ele>
        <time>2019-12-30T12:56:29Z</time>
      </trkpt>
      <trkpt lat="43.81689" lon="7.03759">
        <ele>1241.9</ele>
        <time>2019-12-30T12:56:30Z</time>
      </trkpt>
      <trkpt lat="43.81689" lon="7.03759">
        <ele>1241.9</ele>
        <time>2019-12-30T12:56:31Z</time>
      </trkpt>
      <trkpt lat="43.81689" lon="7.03759">
        <ele>1241.8</ele>
        <time>2019-12-30T12:56:32Z</time>
      </trkpt>
      <trkpt lat="43.81688" lon="7.03759">
        <ele>1241.8</ele>
        <time>2019-12-30T12:56:33Z</time>
      </trkpt>
      <trkpt lat="43.81688" lon="7.03759">
        <ele>1241.7</ele>
        <time>2019-12-30T12:56:34Z</time>
      </trkpt>
      <trkpt lat="43.81688" lon="7.03758">
        <ele>1241.7</ele>
        <time>2019-12-30T12:56:35Z</time>
      </trkpt>
      <trkpt lat="43.81688" lon="7.03758">
        <ele>1241.7</ele>
        <time>2019-12-30T12:56:36Z</time>
      </trkpt>
      <trkpt lat="43.81688" lon="7.03758">
        <ele>1241.6</ele>
        <time>2019-12-30T12:56:37Z</time>
      </trkpt>
      <trkpt lat="43.81688" lon="7.03758">
        <ele>1241.6</ele>
        <time>2019-12-30T12:56:38Z</time>
      </trkpt>
      <trkpt lat="43.81688" lon="7.03758">
        <ele>1241.6</ele>
        <time>2019-12-30T12:56:39Z</time>
      </trkpt>
      <trkpt lat="43.81688" lon="7.03757">
        <ele>1241.5</ele>
        <time>2019-12-30T12:56:40Z</time>
      </trkpt>
      <trkpt lat="43.81688" lon="7.03757">
        <ele>1241.5</ele>
        <time>2019-12-30T12:56:41Z</time>
      </trkpt>
      <trkpt lat="43.81688" lon="7.03757">
        <ele>1241.4</ele>
        <time>2019-12-30T12:56:42Z</time>
      </trkpt>
      <trkpt lat="43.81688" lon="7.03757">
        <ele>1241.4</ele>
        <time>2019-12-30T12:56:43Z</time>
      </trkpt>
      <trkpt lat="43.81688" lon="7.03757">
        <ele>1241.4</ele>
        <time>2019-12-30T12:56:44Z</time>
      </trkpt>
      <trkpt lat="43.81688" lon="7.03757">
        <ele>1241.3</ele>
        <time>2019-12-30T12:56:45Z</time>
      </trkpt>
      <trkpt lat="43.81688" lon="7.03756">
        <ele>1241.3</ele>
        <time>2019-12-30T12:56:46Z</time>
      </trkpt>
      <trkpt lat="43.81688" lon="7.03756">
        <ele>1241.2</ele>
        <time>2019-12-30T12:56:47Z</time>
      </trkpt>
      <trkpt lat="43.81688" lon="7.03756">
        <ele>1241.2</ele>
        <time>2019-12-30T12:56:48Z</time>
      </trkpt>
      <trkpt lat="43.81688" lon="7.03756">
        <ele>1241.2</ele>
        <time>2019-12-30T12:56:49Z</time>
      </trkpt>
      <trkpt lat="43.81688" lon="7.03756">
        <ele>1241.1</ele>
        <time>2019-12-30T12:56:50Z</time>
      </trkpt>
      <trkpt lat="43.81688" lon="7.03755">
        <ele>1241.1</ele>
        <time>2019-12-30T12:56:51Z</time>
      </trkpt>
      <trkpt lat="43.81688" lon="7.03755">
        <ele>1241.1</ele>
        <time>2019-12-30T12:56:52Z</time>
      </trkpt>
      <trkpt lat="43.81688" lon="7.03755">
        <ele>1241</ele>
        <time>2019-12-30T12:56:53Z</time>
      </trkpt>
      <trkpt lat="43.81688" lon="7.03755">
        <ele>1241</ele>
        <time>2019-12-30T12:56:54Z</time>
      </trkpt>
      <trkpt lat="43.81688" lon="7.03755">
        <ele>1240.9</ele>
        <time>2019-12-30T12:56:55Z</time>
      </trkpt>
      <trkpt lat="43.81688" lon="7.03754">
        <ele>1240.9</ele>
        <time>2019-12-30T12:56:56Z</time>
      </trkpt>
      <trkpt lat="43.81688" lon="7.03754">
        <ele>1240.8</ele>
        <time>2019-12-30T12:56:57Z</time>
      </trkpt>
      <trkpt lat="43.81688" lon="7.03754">
        <ele>1240.8</ele>
        <time>2019-12-30T12:56:58Z</time>
      </trkpt>
      <trkpt lat="43.81688" lon="7.03754">
        <ele>1240.8</ele>
        <time>2019-12-30T12:56:59Z</time>
      </trkpt>
      <trkpt lat="43.81688" lon="7.03754">
        <ele>1240.7</ele>
        <time>2019-12-30T12:57:00Z</time>
      </trkpt>
      <trkpt lat="43.81688" lon="7.03754">
        <ele>1240.7</ele>
        <time>2019-12-30T12:57:01Z</time>
      </trkpt>
      <trkpt lat="43.81688" lon="7.03753">
        <ele>1240.6</ele>
        <time>2019-12-30T12:57:02Z</time>
      </trkpt>
      <trkpt lat="43.81688" lon="7.03753">
        <ele>1240.6</ele>
        <time>2019-12-30T12:57:03Z</time>
      </trkpt>
      <trkpt lat="43.81688" lon="7.03753">
        <ele>1240.6</ele>
        <time>2019-12-30T12:57:04Z</time>
      </trkpt>
      <trkpt lat="43.81688" lon="7.03753">
        <ele>1240.5</ele>
        <time>2019-12-30T12:57:05Z</time>
      </trkpt>
      <trkpt lat="43.81688" lon="7.03753">
        <ele>1240.5</ele>
        <time>2019-12-30T12:57:06Z</time>
      </trkpt>
      <trkpt lat="43.81688" lon="7.03752">
        <ele>1240.4</ele>
        <time>2019-12-30T12:57:07Z</time>
      </trkpt>
      <trkpt lat="43.81688" lon="7.03752">
        <ele>1240.4</ele>
        <time>2019-12-30T12:57:08Z</time>
      </trkpt>
      <trkpt lat="43.81688" lon="7.03752">
        <ele>1240.4</ele>
        <time>2019-12-30T12:57:09Z</time>
      </trkpt>
      <trkpt lat="43.81686" lon="7.03746">
        <ele>1239.4</ele>
        <time>2019-12-30T12:57:10Z</time>
      </trkpt>
      <trkpt lat="43.81684" lon="7.03734">
        <ele>1238.4</ele>
        <time>2019-12-30T12:57:11Z</time>
      </trkpt>
      <trkpt lat="43.81684" lon="7.03729">
        <ele>1238.1</ele>
        <time>2019-12-30T12:57:12Z</time>
      </trkpt>
      <trkpt lat="43.81684" lon="7.03723">
        <ele>1237.8</ele>
        <time>2019-12-30T12:57:13Z</time>
      </trkpt>
      <trkpt lat="43.81684" lon="7.03717">
        <ele>1238</ele>
        <time>2019-12-30T12:57:14Z</time>
      </trkpt>
      <trkpt lat="43.81683" lon="7.03712">
        <ele>1238.4</ele>
        <time>2019-12-30T12:57:15Z</time>
      </trkpt>
      <trkpt lat="43.81684" lon="7.03705">
        <ele>1238.1</ele>
        <time>2019-12-30T12:57:16Z</time>
      </trkpt>
      <trkpt lat="43.81685" lon="7.03698">
        <ele>1238.3</ele>
        <time>2019-12-30T12:57:17Z</time>
      </trkpt>
      <trkpt lat="43.81687" lon="7.03691">
        <ele>1238.4</ele>
        <time>2019-12-30T12:57:18Z</time>
      </trkpt>
      <trkpt lat="43.81688" lon="7.03685">
        <ele>1238.2</ele>
        <time>2019-12-30T12:57:19Z</time>
      </trkpt>
      <trkpt lat="43.81689" lon="7.03678">
        <ele>1238.2</ele>
        <time>2019-12-30T12:57:20Z</time>
      </trkpt>
      <trkpt lat="43.8169" lon="7.03671">
        <ele>1238.3</ele>
        <time>2019-12-30T12:57:21Z</time>
      </trkpt>
      <trkpt lat="43.81692" lon="7.03664">
        <ele>1238</ele>
        <time>2019-12-30T12:57:22Z</time>
      </trkpt>
      <trkpt lat="43.81694" lon="7.03658">
        <ele>1238.1</ele>
        <time>2019-12-30T12:57:23Z</time>
      </trkpt>
      <trkpt lat="43.81695" lon="7.03652">
        <ele>1238.4</ele>
        <time>2019-12-30T12:57:24Z</time>
      </trkpt>
      <trkpt lat="43.81698" lon="7.03646">
        <ele>1239.2</ele>
        <time>2019-12-30T12:57:25Z</time>
      </trkpt>
      <trkpt lat="43.817" lon="7.03641">
        <ele>1239.6</ele>
        <time>2019-12-30T12:57:26Z</time>
      </trkpt>
      <trkpt lat="43.81703" lon="7.03636">
        <ele>1240.1</ele>
        <time>2019-12-30T12:57:27Z</time>
      </trkpt>
      <trkpt lat="43.81706" lon="7.03631">
        <ele>1240.9</ele>
        <time>2019-12-30T12:57:28Z</time>
      </trkpt>
      <trkpt lat="43.8171" lon="7.03626">
        <ele>1241.7</ele>
        <time>2019-12-30T12:57:29Z</time>
      </trkpt>
      <trkpt lat="43.81714" lon="7.0362">
        <ele>1242.7</ele>
        <time>2019-12-30T12:57:30Z</time>
      </trkpt>
      <trkpt lat="43.81718" lon="7.03613">
        <ele>1243.7</ele>
        <time>2019-12-30T12:57:31Z</time>
      </trkpt>
      <trkpt lat="43.81722" lon="7.03608">
        <ele>1244.8</ele>
        <time>2019-12-30T12:57:32Z</time>
      </trkpt>
      <trkpt lat="43.81724" lon="7.03602">
        <ele>1245.8</ele>
        <time>2019-12-30T12:57:33Z</time>
      </trkpt>
      <trkpt lat="43.81725" lon="7.03595">
        <ele>1246.8</ele>
        <time>2019-12-30T12:57:34Z</time>
      </trkpt>
      <trkpt lat="43.81725" lon="7.03588">
        <ele>1247.2</ele>
        <time>2019-12-30T12:57:35Z</time>
      </trkpt>
      <trkpt lat="43.81723" lon="7.03582">
        <ele>1246.4</ele>
        <time>2019-12-30T12:57:36Z</time>
      </trkpt>
      <trkpt lat="43.8172" lon="7.03577">
        <ele>1245.5</ele>
        <time>2019-12-30T12:57:37Z</time>
      </trkpt>
      <trkpt lat="43.81717" lon="7.03573">
        <ele>1244.3</ele>
        <time>2019-12-30T12:57:38Z</time>
      </trkpt>
      <trkpt lat="43.81713" lon="7.03569">
        <ele>1243.2</ele>
        <time>2019-12-30T12:57:39Z</time>
      </trkpt>
      <trkpt lat="43.81709" lon="7.03565">
        <ele>1242.1</ele>
        <time>2019-12-30T12:57:40Z</time>
      </trkpt>
      <trkpt lat="43.81705" lon="7.0356">
        <ele>1240.9</ele>
        <time>2019-12-30T12:57:41Z</time>
      </trkpt>
      <trkpt lat="43.817" lon="7.03555">
        <ele>1239.6</ele>
        <time>2019-12-30T12:57:42Z</time>
      </trkpt>
      <trkpt lat="43.81696" lon="7.03549">
        <ele>1238.8</ele>
        <time>2019-12-30T12:57:43Z</time>
      </trkpt>
      <trkpt lat="43.81692" lon="7.03544">
        <ele>1237.9</ele>
        <time>2019-12-30T12:57:44Z</time>
      </trkpt>
      <trkpt lat="43.81689" lon="7.03538">
        <ele>1237.2</ele>
        <time>2019-12-30T12:57:45Z</time>
      </trkpt>
      <trkpt lat="43.81685" lon="7.03533">
        <ele>1236.8</ele>
        <time>2019-12-30T12:57:46Z</time>
      </trkpt>
      <trkpt lat="43.81682" lon="7.03527">
        <ele>1236</ele>
        <time>2019-12-30T12:57:47Z</time>
      </trkpt>
      <trkpt lat="43.81677" lon="7.03518">
        <ele>1235.2</ele>
        <time>2019-12-30T12:57:48Z</time>
      </trkpt>
      <trkpt lat="43.81676" lon="7.03516">
        <ele>1234.8</ele>
        <time>2019-12-30T12:57:49Z</time>
      </trkpt>
      <trkpt lat="43.81672" lon="7.0351">
        <ele>1233.9</ele>
        <time>2019-12-30T12:57:50Z</time>
      </trkpt>
      <trkpt lat="43.81669" lon="7.03504">
        <ele>1233.5</ele>
        <time>2019-12-30T12:57:51Z</time>
      </trkpt>
      <trkpt lat="43.81666" lon="7.03499">
        <ele>1232.8</ele>
        <time>2019-12-30T12:57:52Z</time>
      </trkpt>
      <trkpt lat="43.81663" lon="7.03494">
        <ele>1232.3</ele>
        <time>2019-12-30T12:57:53Z</time>
      </trkpt>
      <trkpt lat="43.8166" lon="7.03489">
        <ele>1232.1</ele>
        <time>2019-12-30T12:57:54Z</time>
      </trkpt>
      <trkpt lat="43.81656" lon="7.03484">
        <ele>1232</ele>
        <time>2019-12-30T12:57:55Z</time>
      </trkpt>
      <trkpt lat="43.81653" lon="7.03479">
        <ele>1231.8</ele>
        <time>2019-12-30T12:57:56Z</time>
      </trkpt>
      <trkpt lat="43.81649" lon="7.03474">
        <ele>1232</ele>
        <time>2019-12-30T12:57:57Z</time>
      </trkpt>
      <trkpt lat="43.81645" lon="7.03469">
        <ele>1231.6</ele>
        <time>2019-12-30T12:57:58Z</time>
      </trkpt>
      <trkpt lat="43.81641" lon="7.03463">
        <ele>1231</ele>
        <time>2019-12-30T12:57:59Z</time>
      </trkpt>
      <trkpt lat="43.81638" lon="7.03456">
        <ele>1230.2</ele>
        <time>2019-12-30T12:58:00Z</time>
      </trkpt>
      <trkpt lat="43.81635" lon="7.03451">
        <ele>1230</ele>
        <time>2019-12-30T12:58:01Z</time>
      </trkpt>
      <trkpt lat="43.81632" lon="7.03446">
        <ele>1229.7</ele>
        <time>2019-12-30T12:58:02Z</time>
      </trkpt>
      <trkpt lat="43.8163" lon="7.03442">
        <ele>1229.3</ele>
        <time>2019-12-30T12:58:03Z</time>
      </trkpt>
      <trkpt lat="43.81624" lon="7.03439">
        <ele>1228.4</ele>
        <time>2019-12-30T12:58:04Z</time>
      </trkpt>
      <trkpt lat="43.81621" lon="7.03438">
        <ele>1227.9</ele>
        <time>2019-12-30T12:58:05Z</time>
      </trkpt>
      <trkpt lat="43.81618" lon="7.03438">
        <ele>1227.4</ele>
        <time>2019-12-30T12:58:06Z</time>
      </trkpt>
      <trkpt lat="43.81615" lon="7.03437">
        <ele>1226.7</ele>
        <time>2019-12-30T12:58:07Z</time>
      </trkpt>
      <trkpt lat="43.81611" lon="7.03438">
        <ele>1225.8</ele>
        <time>2019-12-30T12:58:08Z</time>
      </trkpt>
      <trkpt lat="43.81607" lon="7.03438">
        <ele>1224.8</ele>
        <time>2019-12-30T12:58:09Z</time>
      </trkpt>
      <trkpt lat="43.81603" lon="7.03437">
        <ele>1223.9</ele>
        <time>2019-12-30T12:58:10Z</time>
      </trkpt>
      <trkpt lat="43.81599" lon="7.03438">
        <ele>1223.1</ele>
        <time>2019-12-30T12:58:11Z</time>
      </trkpt>
      <trkpt lat="43.81596" lon="7.03439">
        <ele>1222.4</ele>
        <time>2019-12-30T12:58:12Z</time>
      </trkpt>
      <trkpt lat="43.81592" lon="7.03441">
        <ele>1221.7</ele>
        <time>2019-12-30T12:58:13Z</time>
      </trkpt>
      <trkpt lat="43.81589" lon="7.03438">
        <ele>1221.2</ele>
        <time>2019-12-30T12:58:14Z</time>
      </trkpt>
      <trkpt lat="43.81587" lon="7.03435">
        <ele>1221</ele>
        <time>2019-12-30T12:58:15Z</time>
      </trkpt>
      <trkpt lat="43.81586" lon="7.03431">
        <ele>1221</ele>
        <time>2019-12-30T12:58:16Z</time>
      </trkpt>
      <trkpt lat="43.81586" lon="7.03426">
        <ele>1221.1</ele>
        <time>2019-12-30T12:58:17Z</time>
      </trkpt>
      <trkpt lat="43.81587" lon="7.03422">
        <ele>1221.5</ele>
        <time>2019-12-30T12:58:18Z</time>
      </trkpt>
      <trkpt lat="43.81587" lon="7.03418">
        <ele>1221.8</ele>
        <time>2019-12-30T12:58:19Z</time>
      </trkpt>
      <trkpt lat="43.81588" lon="7.03414">
        <ele>1222.1</ele>
        <time>2019-12-30T12:58:20Z</time>
      </trkpt>
      <trkpt lat="43.81589" lon="7.0341">
        <ele>1222.5</ele>
        <time>2019-12-30T12:58:21Z</time>
      </trkpt>
      <trkpt lat="43.8159" lon="7.03406">
        <ele>1222.9</ele>
        <time>2019-12-30T12:58:22Z</time>
      </trkpt>
      <trkpt lat="43.81591" lon="7.03401">
        <ele>1223.8</ele>
        <time>2019-12-30T12:58:23Z</time>
      </trkpt>
      <trkpt lat="43.81592" lon="7.03397">
        <ele>1224.7</ele>
        <time>2019-12-30T12:58:24Z</time>
      </trkpt>
      <trkpt lat="43.81593" lon="7.03391">
        <ele>1225.4</ele>
        <time>2019-12-30T12:58:25Z</time>
      </trkpt>
      <trkpt lat="43.81594" lon="7.03382">
        <ele>1226.4</ele>
        <time>2019-12-30T12:58:26Z</time>
      </trkpt>
      <trkpt lat="43.81595" lon="7.03377">
        <ele>1226.8</ele>
        <time>2019-12-30T12:58:27Z</time>
      </trkpt>
      <trkpt lat="43.81595" lon="7.03373">
        <ele>1227.5</ele>
        <time>2019-12-30T12:58:28Z</time>
      </trkpt>
      <trkpt lat="43.81596" lon="7.03369">
        <ele>1228.2</ele>
        <time>2019-12-30T12:58:29Z</time>
      </trkpt>
      <trkpt lat="43.81597" lon="7.03363">
        <ele>1228.5</ele>
        <time>2019-12-30T12:58:30Z</time>
      </trkpt>
      <trkpt lat="43.81597" lon="7.03357">
        <ele>1228.8</ele>
        <time>2019-12-30T12:58:31Z</time>
      </trkpt>
      <trkpt lat="43.81597" lon="7.03351">
        <ele>1229.1</ele>
        <time>2019-12-30T12:58:32Z</time>
      </trkpt>
      <trkpt lat="43.81596" lon="7.03345">
        <ele>1229.3</ele>
        <time>2019-12-30T12:58:33Z</time>
      </trkpt>
      <trkpt lat="43.81594" lon="7.03339">
        <ele>1229.5</ele>
        <time>2019-12-30T12:58:34Z</time>
      </trkpt>
      <trkpt lat="43.81592" lon="7.03333">
        <ele>1229.9</ele>
        <time>2019-12-30T12:58:35Z</time>
      </trkpt>
      <trkpt lat="43.8159" lon="7.03327">
        <ele>1230.3</ele>
        <time>2019-12-30T12:58:36Z</time>
      </trkpt>
      <trkpt lat="43.81589" lon="7.03327">
        <ele>1230.3</ele>
        <time>2019-12-30T12:58:37Z</time>
      </trkpt>
      <trkpt lat="43.81589" lon="7.03326">
        <ele>1230.4</ele>
        <time>2019-12-30T12:58:38Z</time>
      </trkpt>
      <trkpt lat="43.81588" lon="7.03325">
        <ele>1230.4</ele>
        <time>2019-12-30T12:58:39Z</time>
      </trkpt>
      <trkpt lat="43.81588" lon="7.03325">
        <ele>1230.4</ele>
        <time>2019-12-30T12:58:40Z</time>
      </trkpt>
      <trkpt lat="43.81587" lon="7.03324">
        <ele>1230.5</ele>
        <time>2019-12-30T12:58:41Z</time>
      </trkpt>
      <trkpt lat="43.81587" lon="7.03323">
        <ele>1230.5</ele>
        <time>2019-12-30T12:58:42Z</time>
      </trkpt>
      <trkpt lat="43.81586" lon="7.03323">
        <ele>1230.6</ele>
        <time>2019-12-30T12:58:43Z</time>
      </trkpt>
      <trkpt lat="43.81586" lon="7.03322">
        <ele>1230.6</ele>
        <time>2019-12-30T12:58:44Z</time>
      </trkpt>
      <trkpt lat="43.81586" lon="7.03322">
        <ele>1230.6</ele>
        <time>2019-12-30T12:58:45Z</time>
      </trkpt>
      <trkpt lat="43.81586" lon="7.03322">
        <ele>1230.6</ele>
        <time>2019-12-30T12:58:46Z</time>
      </trkpt>
      <trkpt lat="43.81586" lon="7.03322">
        <ele>1230.6</ele>
        <time>2019-12-30T12:58:47Z</time>
      </trkpt>
      <trkpt lat="43.81586" lon="7.03322">
        <ele>1230.6</ele>
        <time>2019-12-30T12:58:48Z</time>
      </trkpt>
      <trkpt lat="43.81586" lon="7.03322">
        <ele>1230.6</ele>
        <time>2019-12-30T12:58:49Z</time>
      </trkpt>
      <trkpt lat="43.81586" lon="7.03322">
        <ele>1230.6</ele>
        <time>2019-12-30T12:58:50Z</time>
      </trkpt>
      <trkpt lat="43.81586" lon="7.03322">
        <ele>1230.6</ele>
        <time>2019-12-30T12:58:51Z</time>
      </trkpt>
      <trkpt lat="43.81586" lon="7.03322">
        <ele>1230.6</ele>
        <time>2019-12-30T12:58:52Z</time>
      </trkpt>
      <trkpt lat="43.81586" lon="7.03322">
        <ele>1230.6</ele>
        <time>2019-12-30T12:58:53Z</time>
      </trkpt>
      <trkpt lat="43.81585" lon="7.03322">
        <ele>1230.7</ele>
        <time>2019-12-30T12:58:54Z</time>
      </trkpt>
      <trkpt lat="43.81584" lon="7.03321">
        <ele>1230.7</ele>
        <time>2019-12-30T12:58:55Z</time>
      </trkpt>
      <trkpt lat="43.81584" lon="7.0332">
        <ele>1230.8</ele>
        <time>2019-12-30T12:58:56Z</time>
      </trkpt>
      <trkpt lat="43.81583" lon="7.03319">
        <ele>1230.8</ele>
        <time>2019-12-30T12:58:57Z</time>
      </trkpt>
      <trkpt lat="43.81583" lon="7.03319">
        <ele>1230.8</ele>
        <time>2019-12-30T12:58:58Z</time>
      </trkpt>
      <trkpt lat="43.81582" lon="7.03318">
        <ele>1230.8</ele>
        <time>2019-12-30T12:58:59Z</time>
      </trkpt>
      <trkpt lat="43.81582" lon="7.03318">
        <ele>1230.8</ele>
        <time>2019-12-30T12:59:00Z</time>
      </trkpt>
      <trkpt lat="43.81582" lon="7.03317">
        <ele>1230.8</ele>
        <time>2019-12-30T12:59:01Z</time>
      </trkpt>
      <trkpt lat="43.81582" lon="7.03317">
        <ele>1230.8</ele>
        <time>2019-12-30T12:59:02Z</time>
      </trkpt>
      <trkpt lat="43.81581" lon="7.03317">
        <ele>1230.8</ele>
        <time>2019-12-30T12:59:03Z</time>
      </trkpt>
      <trkpt lat="43.81581" lon="7.03316">
        <ele>1230.8</ele>
        <time>2019-12-30T12:59:04Z</time>
      </trkpt>
      <trkpt lat="43.81581" lon="7.03316">
        <ele>1230.8</ele>
        <time>2019-12-30T12:59:05Z</time>
      </trkpt>
      <trkpt lat="43.81581" lon="7.03316">
        <ele>1230.8</ele>
        <time>2019-12-30T12:59:06Z</time>
      </trkpt>
      <trkpt lat="43.81581" lon="7.03316">
        <ele>1230.8</ele>
        <time>2019-12-30T12:59:07Z</time>
      </trkpt>
      <trkpt lat="43.81581" lon="7.03316">
        <ele>1230.8</ele>
        <time>2019-12-30T12:59:08Z</time>
      </trkpt>
      <trkpt lat="43.81581" lon="7.03316">
        <ele>1230.8</ele>
        <time>2019-12-30T12:59:09Z</time>
      </trkpt>
      <trkpt lat="43.81581" lon="7.03315">
        <ele>1230.8</ele>
        <time>2019-12-30T12:59:10Z</time>
      </trkpt>
      <trkpt lat="43.81581" lon="7.03315">
        <ele>1230.8</ele>
        <time>2019-12-30T12:59:11Z</time>
      </trkpt>
      <trkpt lat="43.81581" lon="7.03313">
        <ele>1230.8</ele>
        <time>2019-12-30T12:59:12Z</time>
      </trkpt>
      <trkpt lat="43.81581" lon="7.03312">
        <ele>1230.8</ele>
        <time>2019-12-30T12:59:13Z</time>
      </trkpt>
      <trkpt lat="43.81581" lon="7.0331">
        <ele>1230.6</ele>
        <time>2019-12-30T12:59:14Z</time>
      </trkpt>
      <trkpt lat="43.81581" lon="7.03307">
        <ele>1230.4</ele>
        <time>2019-12-30T12:59:15Z</time>
      </trkpt>
      <trkpt lat="43.8158" lon="7.03305">
        <ele>1230.1</ele>
        <time>2019-12-30T12:59:16Z</time>
      </trkpt>
      <trkpt lat="43.8158" lon="7.03302">
        <ele>1229.8</ele>
        <time>2019-12-30T12:59:17Z</time>
      </trkpt>
      <trkpt lat="43.8158" lon="7.03299">
        <ele>1229.6</ele>
        <time>2019-12-30T12:59:18Z</time>
      </trkpt>
      <trkpt lat="43.81579" lon="7.03296">
        <ele>1229.5</ele>
        <time>2019-12-30T12:59:19Z</time>
      </trkpt>
      <trkpt lat="43.81577" lon="7.03293">
        <ele>1229.3</ele>
        <time>2019-12-30T12:59:20Z</time>
      </trkpt>
      <trkpt lat="43.81574" lon="7.03291">
        <ele>1228.9</ele>
        <time>2019-12-30T12:59:21Z</time>
      </trkpt>
      <trkpt lat="43.81572" lon="7.03291">
        <ele>1228.3</ele>
        <time>2019-12-30T12:59:22Z</time>
      </trkpt>
      <trkpt lat="43.81569" lon="7.0329">
        <ele>1227.8</ele>
        <time>2019-12-30T12:59:23Z</time>
      </trkpt>
      <trkpt lat="43.81566" lon="7.03288">
        <ele>1227.1</ele>
        <time>2019-12-30T12:59:24Z</time>
      </trkpt>
      <trkpt lat="43.81564" lon="7.03285">
        <ele>1226.2</ele>
        <time>2019-12-30T12:59:25Z</time>
      </trkpt>
      <trkpt lat="43.81559" lon="7.03279">
        <ele>1224.7</ele>
        <time>2019-12-30T12:59:26Z</time>
      </trkpt>
      <trkpt lat="43.81557" lon="7.03276">
        <ele>1224</ele>
        <time>2019-12-30T12:59:27Z</time>
      </trkpt>
      <trkpt lat="43.81555" lon="7.03274">
        <ele>1223.3</ele>
        <time>2019-12-30T12:59:28Z</time>
      </trkpt>
      <trkpt lat="43.81553" lon="7.03271">
        <ele>1222.4</ele>
        <time>2019-12-30T12:59:29Z</time>
      </trkpt>
      <trkpt lat="43.8155" lon="7.03267">
        <ele>1221.2</ele>
        <time>2019-12-30T12:59:30Z</time>
      </trkpt>
      <trkpt lat="43.81548" lon="7.03262">
        <ele>1219.3</ele>
        <time>2019-12-30T12:59:31Z</time>
      </trkpt>
      <trkpt lat="43.81546" lon="7.03256">
        <ele>1217.5</ele>
        <time>2019-12-30T12:59:32Z</time>
      </trkpt>
      <trkpt lat="43.81541" lon="7.03248">
        <ele>1215.4</ele>
        <time>2019-12-30T12:59:33Z</time>
      </trkpt>
      <trkpt lat="43.81539" lon="7.03245">
        <ele>1214.5</ele>
        <time>2019-12-30T12:59:34Z</time>
      </trkpt>
      <trkpt lat="43.81537" lon="7.03241">
        <ele>1213.6</ele>
        <time>2019-12-30T12:59:35Z</time>
      </trkpt>
      <trkpt lat="43.81535" lon="7.03238">
        <ele>1212.2</ele>
        <time>2019-12-30T12:59:36Z</time>
      </trkpt>
      <trkpt lat="43.81533" lon="7.03234">
        <ele>1210.8</ele>
        <time>2019-12-30T12:59:37Z</time>
      </trkpt>
      <trkpt lat="43.81531" lon="7.03231">
        <ele>1209.5</ele>
        <time>2019-12-30T12:59:38Z</time>
      </trkpt>
      <trkpt lat="43.81527" lon="7.03226">
        <ele>1207.8</ele>
        <time>2019-12-30T12:59:39Z</time>
      </trkpt>
      <trkpt lat="43.81523" lon="7.03221">
        <ele>1206.6</ele>
        <time>2019-12-30T12:59:40Z</time>
      </trkpt>
      <trkpt lat="43.8152" lon="7.03215">
        <ele>1205</ele>
        <time>2019-12-30T12:59:41Z</time>
      </trkpt>
      <trkpt lat="43.81516" lon="7.0321">
        <ele>1203.2</ele>
        <time>2019-12-30T12:59:42Z</time>
      </trkpt>
      <trkpt lat="43.81512" lon="7.03206">
        <ele>1201.4</ele>
        <time>2019-12-30T12:59:43Z</time>
      </trkpt>
      <trkpt lat="43.8151" lon="7.03201">
        <ele>1200.7</ele>
        <time>2019-12-30T12:59:44Z</time>
      </trkpt>
      <trkpt lat="43.81509" lon="7.03197">
        <ele>1200</ele>
        <time>2019-12-30T12:59:45Z</time>
      </trkpt>
      <trkpt lat="43.81507" lon="7.03193">
        <ele>1199.4</ele>
        <time>2019-12-30T12:59:46Z</time>
      </trkpt>
      <trkpt lat="43.81506" lon="7.03189">
        <ele>1198.9</ele>
        <time>2019-12-30T12:59:47Z</time>
      </trkpt>
      <trkpt lat="43.81506" lon="7.03186">
        <ele>1198.3</ele>
        <time>2019-12-30T12:59:48Z</time>
      </trkpt>
      <trkpt lat="43.81505" lon="7.03182">
        <ele>1197.4</ele>
        <time>2019-12-30T12:59:49Z</time>
      </trkpt>
      <trkpt lat="43.81504" lon="7.03178">
        <ele>1196.5</ele>
        <time>2019-12-30T12:59:50Z</time>
      </trkpt>
      <trkpt lat="43.81503" lon="7.03174">
        <ele>1195.8</ele>
        <time>2019-12-30T12:59:51Z</time>
      </trkpt>
      <trkpt lat="43.81502" lon="7.03171">
        <ele>1195.4</ele>
        <time>2019-12-30T12:59:52Z</time>
      </trkpt>
      <trkpt lat="43.81501" lon="7.03167">
        <ele>1195.1</ele>
        <time>2019-12-30T12:59:53Z</time>
      </trkpt>
      <trkpt lat="43.815" lon="7.03164">
        <ele>1194.7</ele>
        <time>2019-12-30T12:59:54Z</time>
      </trkpt>
      <trkpt lat="43.81499" lon="7.03161">
        <ele>1194.5</ele>
        <time>2019-12-30T12:59:55Z</time>
      </trkpt>
      <trkpt lat="43.81498" lon="7.03158">
        <ele>1194.2</ele>
        <time>2019-12-30T12:59:56Z</time>
      </trkpt>
      <trkpt lat="43.81497" lon="7.03155">
        <ele>1193.9</ele>
        <time>2019-12-30T12:59:57Z</time>
      </trkpt>
      <trkpt lat="43.81497" lon="7.0315">
        <ele>1193.9</ele>
        <time>2019-12-30T12:59:58Z</time>
      </trkpt>
      <trkpt lat="43.81496" lon="7.03146">
        <ele>1193.8</ele>
        <time>2019-12-30T12:59:59Z</time>
      </trkpt>
      <trkpt lat="43.81495" lon="7.03142">
        <ele>1193.5</ele>
        <time>2019-12-30T13:00:00Z</time>
      </trkpt>
      <trkpt lat="43.81495" lon="7.03139">
        <ele>1193.3</ele>
        <time>2019-12-30T13:00:01Z</time>
      </trkpt>
      <trkpt lat="43.81495" lon="7.03136">
        <ele>1193.1</ele>
        <time>2019-12-30T13:00:02Z</time>
      </trkpt>
      <trkpt lat="43.81494" lon="7.03133">
        <ele>1192.9</ele>
        <time>2019-12-30T13:00:03Z</time>
      </trkpt>
      <trkpt lat="43.81495" lon="7.0313">
        <ele>1192.8</ele>
        <time>2019-12-30T13:00:04Z</time>
      </trkpt>
      <trkpt lat="43.81496" lon="7.03128">
        <ele>1192.6</ele>
        <time>2019-12-30T13:00:05Z</time>
      </trkpt>
      <trkpt lat="43.81497" lon="7.03125">
        <ele>1192.6</ele>
        <time>2019-12-30T13:00:06Z</time>
      </trkpt>
      <trkpt lat="43.81498" lon="7.03123">
        <ele>1192.8</ele>
        <time>2019-12-30T13:00:07Z</time>
      </trkpt>
      <trkpt lat="43.81499" lon="7.03122">
        <ele>1192.9</ele>
        <time>2019-12-30T13:00:08Z</time>
      </trkpt>
      <trkpt lat="43.815" lon="7.0312">
        <ele>1193.1</ele>
        <time>2019-12-30T13:00:09Z</time>
      </trkpt>
      <trkpt lat="43.81502" lon="7.03118">
        <ele>1193.2</ele>
        <time>2019-12-30T13:00:10Z</time>
      </trkpt>
      <trkpt lat="43.81502" lon="7.03115">
        <ele>1193.2</ele>
        <time>2019-12-30T13:00:11Z</time>
      </trkpt>
      <trkpt lat="43.81503" lon="7.03112">
        <ele>1193.3</ele>
        <time>2019-12-30T13:00:12Z</time>
      </trkpt>
      <trkpt lat="43.81502" lon="7.0311">
        <ele>1193.4</ele>
        <time>2019-12-30T13:00:13Z</time>
      </trkpt>
      <trkpt lat="43.815" lon="7.03109">
        <ele>1193.5</ele>
        <time>2019-12-30T13:00:14Z</time>
      </trkpt>
      <trkpt lat="43.81499" lon="7.03109">
        <ele>1193.5</ele>
        <time>2019-12-30T13:00:15Z</time>
      </trkpt>
      <trkpt lat="43.81497" lon="7.03109">
        <ele>1193.4</ele>
        <time>2019-12-30T13:00:16Z</time>
      </trkpt>
      <trkpt lat="43.81496" lon="7.0311">
        <ele>1193.2</ele>
        <time>2019-12-30T13:00:17Z</time>
      </trkpt>
      <trkpt lat="43.81496" lon="7.03111">
        <ele>1193.1</ele>
        <time>2019-12-30T13:00:18Z</time>
      </trkpt>
      <trkpt lat="43.81495" lon="7.03112">
        <ele>1192.9</ele>
        <time>2019-12-30T13:00:19Z</time>
      </trkpt>
      <trkpt lat="43.81494" lon="7.03113">
        <ele>1192.8</ele>
        <time>2019-12-30T13:00:20Z</time>
      </trkpt>
      <trkpt lat="43.81493" lon="7.03115">
        <ele>1192.6</ele>
        <time>2019-12-30T13:00:21Z</time>
      </trkpt>
      <trkpt lat="43.81493" lon="7.03116">
        <ele>1192.4</ele>
        <time>2019-12-30T13:00:22Z</time>
      </trkpt>
      <trkpt lat="43.81492" lon="7.03117">
        <ele>1192.3</ele>
        <time>2019-12-30T13:00:23Z</time>
      </trkpt>
      <trkpt lat="43.81491" lon="7.03118">
        <ele>1192.3</ele>
        <time>2019-12-30T13:00:24Z</time>
      </trkpt>
      <trkpt lat="43.81491" lon="7.03119">
        <ele>1192.3</ele>
        <time>2019-12-30T13:00:25Z</time>
      </trkpt>
      <trkpt lat="43.8149" lon="7.0312">
        <ele>1192.3</ele>
        <time>2019-12-30T13:00:26Z</time>
      </trkpt>
      <trkpt lat="43.81489" lon="7.03121">
        <ele>1192.2</ele>
        <time>2019-12-30T13:00:27Z</time>
      </trkpt>
      <trkpt lat="43.81488" lon="7.03122">
        <ele>1192.2</ele>
        <time>2019-12-30T13:00:28Z</time>
      </trkpt>
      <trkpt lat="43.81488" lon="7.03123">
        <ele>1192.1</ele>
        <time>2019-12-30T13:00:29Z</time>
      </trkpt>
      <trkpt lat="43.81487" lon="7.03125">
        <ele>1192.1</ele>
        <time>2019-12-30T13:00:30Z</time>
      </trkpt>
      <trkpt lat="43.81486" lon="7.03126">
        <ele>1192</ele>
        <time>2019-12-30T13:00:31Z</time>
      </trkpt>
      <trkpt lat="43.81486" lon="7.03128">
        <ele>1191.9</ele>
        <time>2019-12-30T13:00:32Z</time>
      </trkpt>
      <trkpt lat="43.81485" lon="7.03129">
        <ele>1191.9</ele>
        <time>2019-12-30T13:00:33Z</time>
      </trkpt>
      <trkpt lat="43.81485" lon="7.03131">
        <ele>1191.9</ele>
        <time>2019-12-30T13:00:34Z</time>
      </trkpt>
      <trkpt lat="43.81484" lon="7.03132">
        <ele>1192</ele>
        <time>2019-12-30T13:00:35Z</time>
      </trkpt>
      <trkpt lat="43.81483" lon="7.03135">
        <ele>1192</ele>
        <time>2019-12-30T13:00:36Z</time>
      </trkpt>
      <trkpt lat="43.81483" lon="7.03137">
        <ele>1192</ele>
        <time>2019-12-30T13:00:37Z</time>
      </trkpt>
      <trkpt lat="43.81482" lon="7.03139">
        <ele>1192</ele>
        <time>2019-12-30T13:00:38Z</time>
      </trkpt>
      <trkpt lat="43.81482" lon="7.03141">
        <ele>1192</ele>
        <time>2019-12-30T13:00:39Z</time>
      </trkpt>
      <trkpt lat="43.81481" lon="7.03142">
        <ele>1192</ele>
        <time>2019-12-30T13:00:40Z</time>
      </trkpt>
      <trkpt lat="43.8148" lon="7.03144">
        <ele>1192</ele>
        <time>2019-12-30T13:00:41Z</time>
      </trkpt>
      <trkpt lat="43.81479" lon="7.03146">
        <ele>1192</ele>
        <time>2019-12-30T13:00:42Z</time>
      </trkpt>
      <trkpt lat="43.81478" lon="7.03148">
        <ele>1191.9</ele>
        <time>2019-12-30T13:00:43Z</time>
      </trkpt>
      <trkpt lat="43.81477" lon="7.0315">
        <ele>1191.9</ele>
        <time>2019-12-30T13:00:44Z</time>
      </trkpt>
      <trkpt lat="43.81476" lon="7.03152">
        <ele>1191.9</ele>
        <time>2019-12-30T13:00:45Z</time>
      </trkpt>
      <trkpt lat="43.81474" lon="7.03154">
        <ele>1191.8</ele>
        <time>2019-12-30T13:00:46Z</time>
      </trkpt>
      <trkpt lat="43.81473" lon="7.03155">
        <ele>1191.7</ele>
        <time>2019-12-30T13:00:47Z</time>
      </trkpt>
      <trkpt lat="43.81472" lon="7.03157">
        <ele>1191.7</ele>
        <time>2019-12-30T13:00:48Z</time>
      </trkpt>
      <trkpt lat="43.8147" lon="7.03159">
        <ele>1191.6</ele>
        <time>2019-12-30T13:00:49Z</time>
      </trkpt>
      <trkpt lat="43.81469" lon="7.0316">
        <ele>1191.6</ele>
        <time>2019-12-30T13:00:50Z</time>
      </trkpt>
      <trkpt lat="43.81468" lon="7.03162">
        <ele>1191.5</ele>
        <time>2019-12-30T13:00:51Z</time>
      </trkpt>
      <trkpt lat="43.81467" lon="7.03163">
        <ele>1191.4</ele>
        <time>2019-12-30T13:00:52Z</time>
      </trkpt>
      <trkpt lat="43.81466" lon="7.03164">
        <ele>1191.3</ele>
        <time>2019-12-30T13:00:53Z</time>
      </trkpt>
      <trkpt lat="43.81465" lon="7.03165">
        <ele>1191.3</ele>
        <time>2019-12-30T13:00:54Z</time>
      </trkpt>
      <trkpt lat="43.81464" lon="7.03167">
        <ele>1191.2</ele>
        <time>2019-12-30T13:00:55Z</time>
      </trkpt>
      <trkpt lat="43.81462" lon="7.03168">
        <ele>1191.1</ele>
        <time>2019-12-30T13:00:56Z</time>
      </trkpt>
      <trkpt lat="43.81461" lon="7.0317">
        <ele>1191</ele>
        <time>2019-12-30T13:00:57Z</time>
      </trkpt>
      <trkpt lat="43.8146" lon="7.03172">
        <ele>1191</ele>
        <time>2019-12-30T13:00:58Z</time>
      </trkpt>
      <trkpt lat="43.81458" lon="7.03173">
        <ele>1190.9</ele>
        <time>2019-12-30T13:00:59Z</time>
      </trkpt>
      <trkpt lat="43.81456" lon="7.03174">
        <ele>1190.9</ele>
        <time>2019-12-30T13:01:00Z</time>
      </trkpt>
      <trkpt lat="43.81455" lon="7.03175">
        <ele>1190.9</ele>
        <time>2019-12-30T13:01:01Z</time>
      </trkpt>
      <trkpt lat="43.81453" lon="7.03177">
        <ele>1190.9</ele>
        <time>2019-12-30T13:01:02Z</time>
      </trkpt>
      <trkpt lat="43.81451" lon="7.03178">
        <ele>1191</ele>
        <time>2019-12-30T13:01:03Z</time>
      </trkpt>
      <trkpt lat="43.8145" lon="7.0318">
        <ele>1191</ele>
        <time>2019-12-30T13:01:04Z</time>
      </trkpt>
      <trkpt lat="43.81448" lon="7.03182">
        <ele>1191</ele>
        <time>2019-12-30T13:01:05Z</time>
      </trkpt>
      <trkpt lat="43.81446" lon="7.03184">
        <ele>1191.1</ele>
        <time>2019-12-30T13:01:06Z</time>
      </trkpt>
      <trkpt lat="43.81445" lon="7.03186">
        <ele>1191.1</ele>
        <time>2019-12-30T13:01:07Z</time>
      </trkpt>
      <trkpt lat="43.81443" lon="7.03188">
        <ele>1191.2</ele>
        <time>2019-12-30T13:01:08Z</time>
      </trkpt>
      <trkpt lat="43.81442" lon="7.03191">
        <ele>1191.3</ele>
        <time>2019-12-30T13:01:09Z</time>
      </trkpt>
      <trkpt lat="43.8144" lon="7.03193">
        <ele>1191.4</ele>
        <time>2019-12-30T13:01:10Z</time>
      </trkpt>
      <trkpt lat="43.81439" lon="7.03196">
        <ele>1191.4</ele>
        <time>2019-12-30T13:01:11Z</time>
      </trkpt>
      <trkpt lat="43.81437" lon="7.03199">
        <ele>1191.4</ele>
        <time>2019-12-30T13:01:12Z</time>
      </trkpt>
      <trkpt lat="43.81436" lon="7.03202">
        <ele>1191.4</ele>
        <time>2019-12-30T13:01:13Z</time>
      </trkpt>
      <trkpt lat="43.81435" lon="7.03206">
        <ele>1191.5</ele>
        <time>2019-12-30T13:01:14Z</time>
      </trkpt>
      <trkpt lat="43.81433" lon="7.03209">
        <ele>1191.6</ele>
        <time>2019-12-30T13:01:15Z</time>
      </trkpt>
      <trkpt lat="43.81432" lon="7.03213">
        <ele>1191.7</ele>
        <time>2019-12-30T13:01:16Z</time>
      </trkpt>
      <trkpt lat="43.81431" lon="7.03216">
        <ele>1191.8</ele>
        <time>2019-12-30T13:01:17Z</time>
      </trkpt>
      <trkpt lat="43.81428" lon="7.0322">
        <ele>1192</ele>
        <time>2019-12-30T13:01:18Z</time>
      </trkpt>
      <trkpt lat="43.81426" lon="7.03223">
        <ele>1192</ele>
        <time>2019-12-30T13:01:19Z</time>
      </trkpt>
      <trkpt lat="43.81424" lon="7.03225">
        <ele>1192</ele>
        <time>2019-12-30T13:01:20Z</time>
      </trkpt>
      <trkpt lat="43.81422" lon="7.03228">
        <ele>1191.9</ele>
        <time>2019-12-30T13:01:21Z</time>
      </trkpt>
      <trkpt lat="43.81419" lon="7.0323">
        <ele>1192</ele>
        <time>2019-12-30T13:01:22Z</time>
      </trkpt>
      <trkpt lat="43.81417" lon="7.03231">
        <ele>1192.1</ele>
        <time>2019-12-30T13:01:23Z</time>
      </trkpt>
      <trkpt lat="43.81414" lon="7.03232">
        <ele>1192.2</ele>
        <time>2019-12-30T13:01:24Z</time>
      </trkpt>
      <trkpt lat="43.81411" lon="7.03233">
        <ele>1192.5</ele>
        <time>2019-12-30T13:01:25Z</time>
      </trkpt>
      <trkpt lat="43.81408" lon="7.03234">
        <ele>1192.7</ele>
        <time>2019-12-30T13:01:26Z</time>
      </trkpt>
      <trkpt lat="43.81405" lon="7.03235">
        <ele>1193.1</ele>
        <time>2019-12-30T13:01:27Z</time>
      </trkpt>
      <trkpt lat="43.81403" lon="7.03235">
        <ele>1193.5</ele>
        <time>2019-12-30T13:01:28Z</time>
      </trkpt>
      <trkpt lat="43.814" lon="7.03236">
        <ele>1193.9</ele>
        <time>2019-12-30T13:01:29Z</time>
      </trkpt>
      <trkpt lat="43.81396" lon="7.03238">
        <ele>1194.3</ele>
        <time>2019-12-30T13:01:30Z</time>
      </trkpt>
      <trkpt lat="43.81393" lon="7.03239">
        <ele>1194.8</ele>
        <time>2019-12-30T13:01:31Z</time>
      </trkpt>
      <trkpt lat="43.8139" lon="7.03239">
        <ele>1195.7</ele>
        <time>2019-12-30T13:01:32Z</time>
      </trkpt>
      <trkpt lat="43.81386" lon="7.03239">
        <ele>1196.7</ele>
        <time>2019-12-30T13:01:33Z</time>
      </trkpt>
      <trkpt lat="43.81382" lon="7.03238">
        <ele>1197.4</ele>
        <time>2019-12-30T13:01:34Z</time>
      </trkpt>
      <trkpt lat="43.81379" lon="7.03238">
        <ele>1198.1</ele>
        <time>2019-12-30T13:01:35Z</time>
      </trkpt>
      <trkpt lat="43.81376" lon="7.03237">
        <ele>1199.1</ele>
        <time>2019-12-30T13:01:36Z</time>
      </trkpt>
      <trkpt lat="43.81373" lon="7.03236">
        <ele>1200.1</ele>
        <time>2019-12-30T13:01:37Z</time>
      </trkpt>
      <trkpt lat="43.81369" lon="7.03236">
        <ele>1201.2</ele>
        <time>2019-12-30T13:01:38Z</time>
      </trkpt>
      <trkpt lat="43.81366" lon="7.03235">
        <ele>1202.2</ele>
        <time>2019-12-30T13:01:39Z</time>
      </trkpt>
      <trkpt lat="43.81362" lon="7.03235">
        <ele>1203.2</ele>
        <time>2019-12-30T13:01:40Z</time>
      </trkpt>
      <trkpt lat="43.81359" lon="7.03235">
        <ele>1204.1</ele>
        <time>2019-12-30T13:01:41Z</time>
      </trkpt>
      <trkpt lat="43.81356" lon="7.03236">
        <ele>1205.2</ele>
        <time>2019-12-30T13:01:42Z</time>
      </trkpt>
      <trkpt lat="43.81354" lon="7.03236">
        <ele>1206.5</ele>
        <time>2019-12-30T13:01:43Z</time>
      </trkpt>
      <trkpt lat="43.81351" lon="7.03236">
        <ele>1207.8</ele>
        <time>2019-12-30T13:01:44Z</time>
      </trkpt>
      <trkpt lat="43.81348" lon="7.03237">
        <ele>1208.6</ele>
        <time>2019-12-30T13:01:45Z</time>
      </trkpt>
      <trkpt lat="43.81345" lon="7.03237">
        <ele>1208.9</ele>
        <time>2019-12-30T13:01:46Z</time>
      </trkpt>
      <trkpt lat="43.81342" lon="7.03238">
        <ele>1209.2</ele>
        <time>2019-12-30T13:01:47Z</time>
      </trkpt>
      <trkpt lat="43.81339" lon="7.03238">
        <ele>1209.5</ele>
        <time>2019-12-30T13:01:48Z</time>
      </trkpt>
      <trkpt lat="43.81336" lon="7.03239">
        <ele>1209.8</ele>
        <time>2019-12-30T13:01:49Z</time>
      </trkpt>
      <trkpt lat="43.81333" lon="7.0324">
        <ele>1210</ele>
        <time>2019-12-30T13:01:50Z</time>
      </trkpt>
      <trkpt lat="43.8133" lon="7.03242">
        <ele>1210.2</ele>
        <time>2019-12-30T13:01:51Z</time>
      </trkpt>
      <trkpt lat="43.81328" lon="7.03243">
        <ele>1210.5</ele>
        <time>2019-12-30T13:01:52Z</time>
      </trkpt>
      <trkpt lat="43.81326" lon="7.03244">
        <ele>1210.7</ele>
        <time>2019-12-30T13:01:53Z</time>
      </trkpt>
      <trkpt lat="43.81323" lon="7.03245">
        <ele>1210.8</ele>
        <time>2019-12-30T13:01:54Z</time>
      </trkpt>
      <trkpt lat="43.8132" lon="7.03246">
        <ele>1210.8</ele>
        <time>2019-12-30T13:01:55Z</time>
      </trkpt>
      <trkpt lat="43.81316" lon="7.03246">
        <ele>1210.7</ele>
        <time>2019-12-30T13:01:56Z</time>
      </trkpt>
      <trkpt lat="43.81312" lon="7.03247">
        <ele>1210</ele>
        <time>2019-12-30T13:01:57Z</time>
      </trkpt>
      <trkpt lat="43.81309" lon="7.03249">
        <ele>1209.6</ele>
        <time>2019-12-30T13:01:58Z</time>
      </trkpt>
      <trkpt lat="43.81305" lon="7.0325">
        <ele>1209.5</ele>
        <time>2019-12-30T13:01:59Z</time>
      </trkpt>
      <trkpt lat="43.81302" lon="7.03251">
        <ele>1209.7</ele>
        <time>2019-12-30T13:02:00Z</time>
      </trkpt>
      <trkpt lat="43.81298" lon="7.03252">
        <ele>1210.2</ele>
        <time>2019-12-30T13:02:01Z</time>
      </trkpt>
      <trkpt lat="43.81294" lon="7.03253">
        <ele>1210.5</ele>
        <time>2019-12-30T13:02:02Z</time>
      </trkpt>
      <trkpt lat="43.8129" lon="7.03252">
        <ele>1210.3</ele>
        <time>2019-12-30T13:02:03Z</time>
      </trkpt>
      <trkpt lat="43.81287" lon="7.03252">
        <ele>1210.1</ele>
        <time>2019-12-30T13:02:04Z</time>
      </trkpt>
      <trkpt lat="43.81284" lon="7.03252">
        <ele>1209.9</ele>
        <time>2019-12-30T13:02:05Z</time>
      </trkpt>
      <trkpt lat="43.8128" lon="7.03252">
        <ele>1209.7</ele>
        <time>2019-12-30T13:02:06Z</time>
      </trkpt>
      <trkpt lat="43.81277" lon="7.03252">
        <ele>1210.1</ele>
        <time>2019-12-30T13:02:07Z</time>
      </trkpt>
      <trkpt lat="43.81274" lon="7.03252">
        <ele>1210.5</ele>
        <time>2019-12-30T13:02:08Z</time>
      </trkpt>
      <trkpt lat="43.81271" lon="7.03251">
        <ele>1210.8</ele>
        <time>2019-12-30T13:02:09Z</time>
      </trkpt>
      <trkpt lat="43.81268" lon="7.03251">
        <ele>1210.9</ele>
        <time>2019-12-30T13:02:10Z</time>
      </trkpt>
      <trkpt lat="43.81265" lon="7.0325">
        <ele>1210.9</ele>
        <time>2019-12-30T13:02:11Z</time>
      </trkpt>
      <trkpt lat="43.81262" lon="7.03248">
        <ele>1210.9</ele>
        <time>2019-12-30T13:02:12Z</time>
      </trkpt>
      <trkpt lat="43.81259" lon="7.03247">
        <ele>1210.9</ele>
        <time>2019-12-30T13:02:13Z</time>
      </trkpt>
      <trkpt lat="43.81257" lon="7.03245">
        <ele>1210.9</ele>
        <time>2019-12-30T13:02:14Z</time>
      </trkpt>
      <trkpt lat="43.81254" lon="7.03244">
        <ele>1211.2</ele>
        <time>2019-12-30T13:02:15Z</time>
      </trkpt>
      <trkpt lat="43.81252" lon="7.03243">
        <ele>1211.4</ele>
        <time>2019-12-30T13:02:16Z</time>
      </trkpt>
      <trkpt lat="43.81249" lon="7.03243">
        <ele>1211.7</ele>
        <time>2019-12-30T13:02:17Z</time>
      </trkpt>
      <trkpt lat="43.81247" lon="7.03242">
        <ele>1211.9</ele>
        <time>2019-12-30T13:02:18Z</time>
      </trkpt>
      <trkpt lat="43.81244" lon="7.03242">
        <ele>1212</ele>
        <time>2019-12-30T13:02:19Z</time>
      </trkpt>
      <trkpt lat="43.81241" lon="7.03241">
        <ele>1212.2</ele>
        <time>2019-12-30T13:02:20Z</time>
      </trkpt>
      <trkpt lat="43.81239" lon="7.0324">
        <ele>1212.2</ele>
        <time>2019-12-30T13:02:21Z</time>
      </trkpt>
      <trkpt lat="43.81237" lon="7.03238">
        <ele>1212.2</ele>
        <time>2019-12-30T13:02:22Z</time>
      </trkpt>
      <trkpt lat="43.81235" lon="7.03237">
        <ele>1212.2</ele>
        <time>2019-12-30T13:02:23Z</time>
      </trkpt>
      <trkpt lat="43.81234" lon="7.03236">
        <ele>1212.2</ele>
        <time>2019-12-30T13:02:24Z</time>
      </trkpt>
      <trkpt lat="43.81232" lon="7.03235">
        <ele>1212.2</ele>
        <time>2019-12-30T13:02:25Z</time>
      </trkpt>
      <trkpt lat="43.8123" lon="7.03234">
        <ele>1212.3</ele>
        <time>2019-12-30T13:02:26Z</time>
      </trkpt>
      <trkpt lat="43.81228" lon="7.03234">
        <ele>1212.3</ele>
        <time>2019-12-30T13:02:27Z</time>
      </trkpt>
      <trkpt lat="43.81227" lon="7.03233">
        <ele>1212.3</ele>
        <time>2019-12-30T13:02:28Z</time>
      </trkpt>
      <trkpt lat="43.81225" lon="7.03232">
        <ele>1212.4</ele>
        <time>2019-12-30T13:02:29Z</time>
      </trkpt>
      <trkpt lat="43.81224" lon="7.03231">
        <ele>1212.4</ele>
        <time>2019-12-30T13:02:30Z</time>
      </trkpt>
      <trkpt lat="43.81222" lon="7.03231">
        <ele>1212.5</ele>
        <time>2019-12-30T13:02:31Z</time>
      </trkpt>
      <trkpt lat="43.8122" lon="7.03229">
        <ele>1212.5</ele>
        <time>2019-12-30T13:02:32Z</time>
      </trkpt>
      <trkpt lat="43.81219" lon="7.03229">
        <ele>1212.5</ele>
        <time>2019-12-30T13:02:33Z</time>
      </trkpt>
      <trkpt lat="43.81218" lon="7.03228">
        <ele>1212.6</ele>
        <time>2019-12-30T13:02:34Z</time>
      </trkpt>
      <trkpt lat="43.81217" lon="7.03228">
        <ele>1212.6</ele>
        <time>2019-12-30T13:02:35Z</time>
      </trkpt>
      <trkpt lat="43.81216" lon="7.03227">
        <ele>1212.7</ele>
        <time>2019-12-30T13:02:36Z</time>
      </trkpt>
      <trkpt lat="43.81215" lon="7.03226">
        <ele>1212.8</ele>
        <time>2019-12-30T13:02:37Z</time>
      </trkpt>
      <trkpt lat="43.81214" lon="7.03226">
        <ele>1212.8</ele>
        <time>2019-12-30T13:02:38Z</time>
      </trkpt>
      <trkpt lat="43.81212" lon="7.03225">
        <ele>1212.9</ele>
        <time>2019-12-30T13:02:39Z</time>
      </trkpt>
      <trkpt lat="43.81211" lon="7.03224">
        <ele>1213</ele>
        <time>2019-12-30T13:02:40Z</time>
      </trkpt>
      <trkpt lat="43.8121" lon="7.03222">
        <ele>1213.1</ele>
        <time>2019-12-30T13:02:41Z</time>
      </trkpt>
      <trkpt lat="43.81209" lon="7.03221">
        <ele>1213.4</ele>
        <time>2019-12-30T13:02:42Z</time>
      </trkpt>
      <trkpt lat="43.81208" lon="7.0322">
        <ele>1213.6</ele>
        <time>2019-12-30T13:02:43Z</time>
      </trkpt>
      <trkpt lat="43.81207" lon="7.03218">
        <ele>1213.8</ele>
        <time>2019-12-30T13:02:44Z</time>
      </trkpt>
      <trkpt lat="43.81205" lon="7.03216">
        <ele>1214</ele>
        <time>2019-12-30T13:02:45Z</time>
      </trkpt>
      <trkpt lat="43.81203" lon="7.03214">
        <ele>1214.5</ele>
        <time>2019-12-30T13:02:46Z</time>
      </trkpt>
      <trkpt lat="43.81202" lon="7.03212">
        <ele>1215</ele>
        <time>2019-12-30T13:02:47Z</time>
      </trkpt>
      <trkpt lat="43.812" lon="7.0321">
        <ele>1215.5</ele>
        <time>2019-12-30T13:02:48Z</time>
      </trkpt>
      <trkpt lat="43.81198" lon="7.03209">
        <ele>1216</ele>
        <time>2019-12-30T13:02:49Z</time>
      </trkpt>
      <trkpt lat="43.81197" lon="7.03207">
        <ele>1216.4</ele>
        <time>2019-12-30T13:02:50Z</time>
      </trkpt>
      <trkpt lat="43.81195" lon="7.03206">
        <ele>1216.7</ele>
        <time>2019-12-30T13:02:51Z</time>
      </trkpt>
      <trkpt lat="43.81194" lon="7.03205">
        <ele>1217</ele>
        <time>2019-12-30T13:02:52Z</time>
      </trkpt>
      <trkpt lat="43.81194" lon="7.03204">
        <ele>1217.1</ele>
        <time>2019-12-30T13:02:53Z</time>
      </trkpt>
      <trkpt lat="43.81194" lon="7.03203">
        <ele>1217.2</ele>
        <time>2019-12-30T13:02:54Z</time>
      </trkpt>
      <trkpt lat="43.81194" lon="7.03203">
        <ele>1217.3</ele>
        <time>2019-12-30T13:02:55Z</time>
      </trkpt>
      <trkpt lat="43.81194" lon="7.03202">
        <ele>1217.4</ele>
        <time>2019-12-30T13:02:56Z</time>
      </trkpt>
      <trkpt lat="43.81194" lon="7.03202">
        <ele>1217.4</ele>
        <time>2019-12-30T13:02:57Z</time>
      </trkpt>
      <trkpt lat="43.81194" lon="7.03201">
        <ele>1217.5</ele>
        <time>2019-12-30T13:02:58Z</time>
      </trkpt>
      <trkpt lat="43.81194" lon="7.03201">
        <ele>1217.6</ele>
        <time>2019-12-30T13:02:59Z</time>
      </trkpt>
      <trkpt lat="43.81194" lon="7.03201">
        <ele>1217.7</ele>
        <time>2019-12-30T13:03:00Z</time>
      </trkpt>
      <trkpt lat="43.81194" lon="7.03201">
        <ele>1217.7</ele>
        <time>2019-12-30T13:03:01Z</time>
      </trkpt>
      <trkpt lat="43.81194" lon="7.03201">
        <ele>1217.8</ele>
        <time>2019-12-30T13:03:02Z</time>
      </trkpt>
      <trkpt lat="43.81194" lon="7.03202">
        <ele>1217.9</ele>
        <time>2019-12-30T13:03:03Z</time>
      </trkpt>
      <trkpt lat="43.81193" lon="7.03203">
        <ele>1217.9</ele>
        <time>2019-12-30T13:03:04Z</time>
      </trkpt>
      <trkpt lat="43.81192" lon="7.03203">
        <ele>1217.8</ele>
        <time>2019-12-30T13:03:05Z</time>
      </trkpt>
      <trkpt lat="43.81191" lon="7.03204">
        <ele>1217.8</ele>
        <time>2019-12-30T13:03:06Z</time>
      </trkpt>
      <trkpt lat="43.81191" lon="7.03204">
        <ele>1217.7</ele>
        <time>2019-12-30T13:03:07Z</time>
      </trkpt>
      <trkpt lat="43.8119" lon="7.03205">
        <ele>1217.7</ele>
        <time>2019-12-30T13:03:08Z</time>
      </trkpt>
      <trkpt lat="43.8119" lon="7.03205">
        <ele>1217.6</ele>
        <time>2019-12-30T13:03:09Z</time>
      </trkpt>
      <trkpt lat="43.81189" lon="7.03205">
        <ele>1217.6</ele>
        <time>2019-12-30T13:03:10Z</time>
      </trkpt>
      <trkpt lat="43.81189" lon="7.03205">
        <ele>1217.6</ele>
        <time>2019-12-30T13:03:11Z</time>
      </trkpt>
      <trkpt lat="43.81189" lon="7.03206">
        <ele>1217.6</ele>
        <time>2019-12-30T13:03:12Z</time>
      </trkpt>
      <trkpt lat="43.81189" lon="7.03206">
        <ele>1217.6</ele>
        <time>2019-12-30T13:03:13Z</time>
      </trkpt>
      <trkpt lat="43.81188" lon="7.03206">
        <ele>1217.6</ele>
        <time>2019-12-30T13:03:14Z</time>
      </trkpt>
      <trkpt lat="43.81188" lon="7.03205">
        <ele>1217.6</ele>
        <time>2019-12-30T13:03:15Z</time>
      </trkpt>
      <trkpt lat="43.81188" lon="7.03205">
        <ele>1217.6</ele>
        <time>2019-12-30T13:03:16Z</time>
      </trkpt>
      <trkpt lat="43.81188" lon="7.03205">
        <ele>1217.6</ele>
        <time>2019-12-30T13:03:17Z</time>
      </trkpt>
      <trkpt lat="43.81188" lon="7.03205">
        <ele>1217.6</ele>
        <time>2019-12-30T13:03:18Z</time>
      </trkpt>
      <trkpt lat="43.81188" lon="7.03205">
        <ele>1217.6</ele>
        <time>2019-12-30T13:03:19Z</time>
      </trkpt>
      <trkpt lat="43.81188" lon="7.03205">
        <ele>1217.6</ele>
        <time>2019-12-30T13:03:20Z</time>
      </trkpt>
      <trkpt lat="43.81188" lon="7.03205">
        <ele>1217.6</ele>
        <time>2019-12-30T13:03:21Z</time>
      </trkpt>
      <trkpt lat="43.81188" lon="7.03205">
        <ele>1217.6</ele>
        <time>2019-12-30T13:03:22Z</time>
      </trkpt>
      <trkpt lat="43.81188" lon="7.03205">
        <ele>1217.6</ele>
        <time>2019-12-30T13:03:23Z</time>
      </trkpt>
      <trkpt lat="43.81188" lon="7.03206">
        <ele>1217.6</ele>
        <time>2019-12-30T13:03:24Z</time>
      </trkpt>
      <trkpt lat="43.81188" lon="7.03206">
        <ele>1217.6</ele>
        <time>2019-12-30T13:03:25Z</time>
      </trkpt>
      <trkpt lat="43.81188" lon="7.03206">
        <ele>1217.5</ele>
        <time>2019-12-30T13:03:26Z</time>
      </trkpt>
      <trkpt lat="43.81188" lon="7.03206">
        <ele>1217.5</ele>
        <time>2019-12-30T13:03:27Z</time>
      </trkpt>
      <trkpt lat="43.81188" lon="7.03206">
        <ele>1217.5</ele>
        <time>2019-12-30T13:03:28Z</time>
      </trkpt>
      <trkpt lat="43.81187" lon="7.03206">
        <ele>1217.5</ele>
        <time>2019-12-30T13:03:29Z</time>
      </trkpt>
      <trkpt lat="43.81187" lon="7.03206">
        <ele>1217.5</ele>
        <time>2019-12-30T13:03:30Z</time>
      </trkpt>
      <trkpt lat="43.81187" lon="7.03206">
        <ele>1217.5</ele>
        <time>2019-12-30T13:03:31Z</time>
      </trkpt>
      <trkpt lat="43.81187" lon="7.03206">
        <ele>1217.5</ele>
        <time>2019-12-30T13:03:32Z</time>
      </trkpt>
      <trkpt lat="43.81187" lon="7.03206">
        <ele>1217.5</ele>
        <time>2019-12-30T13:03:33Z</time>
      </trkpt>
      <trkpt lat="43.81187" lon="7.03206">
        <ele>1217.5</ele>
        <time>2019-12-30T13:03:34Z</time>
      </trkpt>
      <trkpt lat="43.81187" lon="7.03207">
        <ele>1217.5</ele>
        <time>2019-12-30T13:03:35Z</time>
      </trkpt>
      <trkpt lat="43.81187" lon="7.03207">
        <ele>1217.4</ele>
        <time>2019-12-30T13:03:36Z</time>
      </trkpt>
      <trkpt lat="43.81187" lon="7.03208">
        <ele>1217.4</ele>
        <time>2019-12-30T13:03:37Z</time>
      </trkpt>
      <trkpt lat="43.81187" lon="7.03209">
        <ele>1217.4</ele>
        <time>2019-12-30T13:03:38Z</time>
      </trkpt>
      <trkpt lat="43.81187" lon="7.03209">
        <ele>1217.4</ele>
        <time>2019-12-30T13:03:39Z</time>
      </trkpt>
      <trkpt lat="43.81188" lon="7.03209">
        <ele>1217.4</ele>
        <time>2019-12-30T13:03:40Z</time>
      </trkpt>
      <trkpt lat="43.81188" lon="7.03209">
        <ele>1217.4</ele>
        <time>2019-12-30T13:03:41Z</time>
      </trkpt>
      <trkpt lat="43.81187" lon="7.03209">
        <ele>1217.4</ele>
        <time>2019-12-30T13:03:42Z</time>
      </trkpt>
      <trkpt lat="43.81187" lon="7.03209">
        <ele>1217.4</ele>
        <time>2019-12-30T13:03:43Z</time>
      </trkpt>
      <trkpt lat="43.81188" lon="7.03209">
        <ele>1217.5</ele>
        <time>2019-12-30T13:03:44Z</time>
      </trkpt>
      <trkpt lat="43.81188" lon="7.03209">
        <ele>1217.5</ele>
        <time>2019-12-30T13:03:45Z</time>
      </trkpt>
      <trkpt lat="43.81188" lon="7.03209">
        <ele>1217.5</ele>
        <time>2019-12-30T13:03:46Z</time>
      </trkpt>
      <trkpt lat="43.81189" lon="7.03209">
        <ele>1217.5</ele>
        <time>2019-12-30T13:03:47Z</time>
      </trkpt>
      <trkpt lat="43.81189" lon="7.03209">
        <ele>1217.5</ele>
        <time>2019-12-30T13:03:48Z</time>
      </trkpt>
      <trkpt lat="43.81189" lon="7.03209">
        <ele>1217.5</ele>
        <time>2019-12-30T13:03:49Z</time>
      </trkpt>
      <trkpt lat="43.81189" lon="7.03209">
        <ele>1217.5</ele>
        <time>2019-12-30T13:03:50Z</time>
      </trkpt>
      <trkpt lat="43.81189" lon="7.03209">
        <ele>1217.5</ele>
        <time>2019-12-30T13:03:51Z</time>
      </trkpt>
      <trkpt lat="43.81188" lon="7.03209">
        <ele>1217.5</ele>
        <time>2019-12-30T13:03:52Z</time>
      </trkpt>
      <trkpt lat="43.81188" lon="7.03209">
        <ele>1217.5</ele>
        <time>2019-12-30T13:03:53Z</time>
      </trkpt>
      <trkpt lat="43.81188" lon="7.03209">
        <ele>1217.5</ele>
        <time>2019-12-30T13:03:54Z</time>
      </trkpt>
      <trkpt lat="43.81188" lon="7.03209">
        <ele>1217.5</ele>
        <time>2019-12-30T13:03:55Z</time>
      </trkpt>
      <trkpt lat="43.81188" lon="7.03209">
        <ele>1217.5</ele>
        <time>2019-12-30T13:03:56Z</time>
      </trkpt>
      <trkpt lat="43.81188" lon="7.03209">
        <ele>1217.5</ele>
        <time>2019-12-30T13:03:57Z</time>
      </trkpt>
      <trkpt lat="43.81188" lon="7.03209">
        <ele>1217.5</ele>
        <time>2019-12-30T13:03:58Z</time>
      </trkpt>
      <trkpt lat="43.81188" lon="7.03209">
        <ele>1217.5</ele>
        <time>2019-12-30T13:03:59Z</time>
      </trkpt>
      <trkpt lat="43.81188" lon="7.03209">
        <ele>1217.5</ele>
        <time>2019-12-30T13:04:00Z</time>
      </trkpt>
      <trkpt lat="43.81188" lon="7.03209">
        <ele>1217.5</ele>
        <time>2019-12-30T13:04:01Z</time>
      </trkpt>
      <trkpt lat="43.81188" lon="7.03209">
        <ele>1217.5</ele>
        <time>2019-12-30T13:04:02Z</time>
      </trkpt>
      <trkpt lat="43.81188" lon="7.03209">
        <ele>1217.5</ele>
        <time>2019-12-30T13:04:03Z</time>
      </trkpt>
      <trkpt lat="43.81188" lon="7.03209">
        <ele>1217.5</ele>
        <time>2019-12-30T13:04:04Z</time>
      </trkpt>
      <trkpt lat="43.81188" lon="7.03209">
        <ele>1217.5</ele>
        <time>2019-12-30T13:04:05Z</time>
      </trkpt>
      <trkpt lat="43.81188" lon="7.03209">
        <ele>1217.5</ele>
        <time>2019-12-30T13:04:06Z</time>
      </trkpt>
      <trkpt lat="43.81188" lon="7.03209">
        <ele>1217.5</ele>
        <time>2019-12-30T13:04:07Z</time>
      </trkpt>
      <trkpt lat="43.81188" lon="7.03209">
        <ele>1217.5</ele>
        <time>2019-12-30T13:04:08Z</time>
      </trkpt>
      <trkpt lat="43.81188" lon="7.03209">
        <ele>1217.5</ele>
        <time>2019-12-30T13:04:09Z</time>
      </trkpt>
      <trkpt lat="43.81188" lon="7.03209">
        <ele>1217.5</ele>
        <time>2019-12-30T13:04:10Z</time>
      </trkpt>
      <trkpt lat="43.81188" lon="7.03209">
        <ele>1217.5</ele>
        <time>2019-12-30T13:04:11Z</time>
      </trkpt>
      <trkpt lat="43.81188" lon="7.03209">
        <ele>1217.5</ele>
        <time>2019-12-30T13:04:12Z</time>
      </trkpt>
      <trkpt lat="43.81188" lon="7.03209">
        <ele>1217.5</ele>
        <time>2019-12-30T13:04:13Z</time>
      </trkpt>
      <trkpt lat="43.81188" lon="7.03209">
        <ele>1217.5</ele>
        <time>2019-12-30T13:04:14Z</time>
      </trkpt>
      <trkpt lat="43.81188" lon="7.03209">
        <ele>1217.5</ele>
        <time>2019-12-30T13:04:15Z</time>
      </trkpt>
      <trkpt lat="43.81188" lon="7.03209">
        <ele>1217.5</ele>
        <time>2019-12-30T13:04:16Z</time>
      </trkpt>
      <trkpt lat="43.81188" lon="7.03209">
        <ele>1217.5</ele>
        <time>2019-12-30T13:04:17Z</time>
      </trkpt>
      <trkpt lat="43.81188" lon="7.03209">
        <ele>1217.5</ele>
        <time>2019-12-30T13:04:18Z</time>
      </trkpt>
      <trkpt lat="43.81188" lon="7.03209">
        <ele>1217.5</ele>
        <time>2019-12-30T13:04:19Z</time>
      </trkpt>
      <trkpt lat="43.81188" lon="7.03209">
        <ele>1217.5</ele>
        <time>2019-12-30T13:04:20Z</time>
      </trkpt>
      <trkpt lat="43.81188" lon="7.03209">
        <ele>1217.5</ele>
        <time>2019-12-30T13:04:21Z</time>
      </trkpt>
      <trkpt lat="43.81188" lon="7.03209">
        <ele>1217.5</ele>
        <time>2019-12-30T13:04:22Z</time>
      </trkpt>
      <trkpt lat="43.81188" lon="7.03209">
        <ele>1217.5</ele>
        <time>2019-12-30T13:04:23Z</time>
      </trkpt>
      <trkpt lat="43.81188" lon="7.03209">
        <ele>1217.5</ele>
        <time>2019-12-30T13:04:24Z</time>
      </trkpt>
      <trkpt lat="43.81188" lon="7.03209">
        <ele>1217.5</ele>
        <time>2019-12-30T13:04:25Z</time>
      </trkpt>
      <trkpt lat="43.81188" lon="7.03209">
        <ele>1217.5</ele>
        <time>2019-12-30T13:04:26Z</time>
      </trkpt>
      <trkpt lat="43.81188" lon="7.03209">
        <ele>1217.5</ele>
        <time>2019-12-30T13:04:27Z</time>
      </trkpt>
      <trkpt lat="43.81188" lon="7.03209">
        <ele>1217.6</ele>
        <time>2019-12-30T13:04:28Z</time>
      </trkpt>
      <trkpt lat="43.81188" lon="7.03209">
        <ele>1217.6</ele>
        <time>2019-12-30T13:04:29Z</time>
      </trkpt>
      <trkpt lat="43.81189" lon="7.03209">
        <ele>1217.6</ele>
        <time>2019-12-30T13:04:30Z</time>
      </trkpt>
      <trkpt lat="43.81189" lon="7.03209">
        <ele>1217.6</ele>
        <time>2019-12-30T13:04:31Z</time>
      </trkpt>
      <trkpt lat="43.81189" lon="7.03208">
        <ele>1217.6</ele>
        <time>2019-12-30T13:04:32Z</time>
      </trkpt>
      <trkpt lat="43.81189" lon="7.03208">
        <ele>1217.6</ele>
        <time>2019-12-30T13:04:33Z</time>
      </trkpt>
      <trkpt lat="43.8119" lon="7.03208">
        <ele>1217.7</ele>
        <time>2019-12-30T13:04:34Z</time>
      </trkpt>
      <trkpt lat="43.8119" lon="7.03208">
        <ele>1217.7</ele>
        <time>2019-12-30T13:04:35Z</time>
      </trkpt>
      <trkpt lat="43.8119" lon="7.03207">
        <ele>1217.7</ele>
        <time>2019-12-30T13:04:36Z</time>
      </trkpt>
      <trkpt lat="43.8119" lon="7.03207">
        <ele>1217.7</ele>
        <time>2019-12-30T13:04:37Z</time>
      </trkpt>
      <trkpt lat="43.8119" lon="7.03207">
        <ele>1217.7</ele>
        <time>2019-12-30T13:04:38Z</time>
      </trkpt>
      <trkpt lat="43.8119" lon="7.03207">
        <ele>1217.7</ele>
        <time>2019-12-30T13:04:39Z</time>
      </trkpt>
      <trkpt lat="43.8119" lon="7.03206">
        <ele>1217.7</ele>
        <time>2019-12-30T13:04:40Z</time>
      </trkpt>
      <trkpt lat="43.8119" lon="7.03206">
        <ele>1217.7</ele>
        <time>2019-12-30T13:04:41Z</time>
      </trkpt>
      <trkpt lat="43.8119" lon="7.03206">
        <ele>1217.7</ele>
        <time>2019-12-30T13:04:42Z</time>
      </trkpt>
      <trkpt lat="43.8119" lon="7.03206">
        <ele>1217.7</ele>
        <time>2019-12-30T13:04:43Z</time>
      </trkpt>
      <trkpt lat="43.8119" lon="7.03206">
        <ele>1217.7</ele>
        <time>2019-12-30T13:04:44Z</time>
      </trkpt>
      <trkpt lat="43.8119" lon="7.03206">
        <ele>1217.7</ele>
        <time>2019-12-30T13:04:45Z</time>
      </trkpt>
      <trkpt lat="43.8119" lon="7.03206">
        <ele>1217.7</ele>
        <time>2019-12-30T13:04:46Z</time>
      </trkpt>
      <trkpt lat="43.8119" lon="7.03206">
        <ele>1217.8</ele>
        <time>2019-12-30T13:04:47Z</time>
      </trkpt>
      <trkpt lat="43.8119" lon="7.03206">
        <ele>1217.8</ele>
        <time>2019-12-30T13:04:48Z</time>
      </trkpt>
      <trkpt lat="43.8119" lon="7.03206">
        <ele>1217.8</ele>
        <time>2019-12-30T13:04:49Z</time>
      </trkpt>
      <trkpt lat="43.8119" lon="7.03206">
        <ele>1217.8</ele>
        <time>2019-12-30T13:04:50Z</time>
      </trkpt>
      <trkpt lat="43.8119" lon="7.03206">
        <ele>1217.8</ele>
        <time>2019-12-30T13:04:51Z</time>
      </trkpt>
      <trkpt lat="43.8119" lon="7.03206">
        <ele>1217.8</ele>
        <time>2019-12-30T13:04:52Z</time>
      </trkpt>
      <trkpt lat="43.8119" lon="7.03206">
        <ele>1217.8</ele>
        <time>2019-12-30T13:04:53Z</time>
      </trkpt>
      <trkpt lat="43.8119" lon="7.03206">
        <ele>1217.8</ele>
        <time>2019-12-30T13:04:54Z</time>
      </trkpt>
      <trkpt lat="43.8119" lon="7.03206">
        <ele>1217.8</ele>
        <time>2019-12-30T13:04:55Z</time>
      </trkpt>
      <trkpt lat="43.8119" lon="7.03206">
        <ele>1217.8</ele>
        <time>2019-12-30T13:04:56Z</time>
      </trkpt>
      <trkpt lat="43.8119" lon="7.03206">
        <ele>1217.8</ele>
        <time>2019-12-30T13:04:57Z</time>
      </trkpt>
      <trkpt lat="43.8119" lon="7.03206">
        <ele>1217.8</ele>
        <time>2019-12-30T13:04:58Z</time>
      </trkpt>
      <trkpt lat="43.8119" lon="7.03206">
        <ele>1217.8</ele>
        <time>2019-12-30T13:04:59Z</time>
      </trkpt>
      <trkpt lat="43.8119" lon="7.03206">
        <ele>1217.8</ele>
        <time>2019-12-30T13:05:00Z</time>
      </trkpt>
      <trkpt lat="43.8119" lon="7.03206">
        <ele>1217.8</ele>
        <time>2019-12-30T13:05:01Z</time>
      </trkpt>
      <trkpt lat="43.8119" lon="7.03206">
        <ele>1217.8</ele>
        <time>2019-12-30T13:05:02Z</time>
      </trkpt>
      <trkpt lat="43.8119" lon="7.03206">
        <ele>1217.8</ele>
        <time>2019-12-30T13:05:03Z</time>
      </trkpt>
      <trkpt lat="43.8119" lon="7.03206">
        <ele>1217.8</ele>
        <time>2019-12-30T13:05:04Z</time>
      </trkpt>
      <trkpt lat="43.8119" lon="7.03206">
        <ele>1217.8</ele>
        <time>2019-12-30T13:05:05Z</time>
      </trkpt>
      <trkpt lat="43.8119" lon="7.03206">
        <ele>1217.8</ele>
        <time>2019-12-30T13:05:06Z</time>
      </trkpt>
      <trkpt lat="43.8119" lon="7.03206">
        <ele>1217.8</ele>
        <time>2019-12-30T13:05:07Z</time>
      </trkpt>
      <trkpt lat="43.8119" lon="7.03206">
        <ele>1217.8</ele>
        <time>2019-12-30T13:05:08Z</time>
      </trkpt>
      <trkpt lat="43.8119" lon="7.03206">
        <ele>1217.8</ele>
        <time>2019-12-30T13:05:09Z</time>
      </trkpt>
      <trkpt lat="43.8119" lon="7.03206">
        <ele>1217.8</ele>
        <time>2019-12-30T13:05:10Z</time>
      </trkpt>
      <trkpt lat="43.8119" lon="7.03206">
        <ele>1217.8</ele>
        <time>2019-12-30T13:05:11Z</time>
      </trkpt>
      <trkpt lat="43.8119" lon="7.03206">
        <ele>1217.8</ele>
        <time>2019-12-30T13:05:12Z</time>
      </trkpt>
      <trkpt lat="43.8119" lon="7.03206">
        <ele>1217.8</ele>
        <time>2019-12-30T13:05:13Z</time>
      </trkpt>
      <trkpt lat="43.8119" lon="7.03206">
        <ele>1217.8</ele>
        <time>2019-12-30T13:05:14Z</time>
      </trkpt>
      <trkpt lat="43.8119" lon="7.03206">
        <ele>1217.8</ele>
        <time>2019-12-30T13:05:15Z</time>
      </trkpt>
      <trkpt lat="43.8119" lon="7.03206">
        <ele>1217.8</ele>
        <time>2019-12-30T13:05:16Z</time>
      </trkpt>
      <trkpt lat="43.8119" lon="7.03206">
        <ele>1217.8</ele>
        <time>2019-12-30T13:05:17Z</time>
      </trkpt>
      <trkpt lat="43.8119" lon="7.03206">
        <ele>1217.8</ele>
        <time>2019-12-30T13:05:18Z</time>
      </trkpt>
      <trkpt lat="43.8119" lon="7.03206">
        <ele>1217.8</ele>
        <time>2019-12-30T13:05:19Z</time>
      </trkpt>
      <trkpt lat="43.8119" lon="7.03206">
        <ele>1217.8</ele>
        <time>2019-12-30T13:05:20Z</time>
      </trkpt>
      <trkpt lat="43.8119" lon="7.03206">
        <ele>1217.8</ele>
        <time>2019-12-30T13:05:21Z</time>
      </trkpt>
      <trkpt lat="43.8119" lon="7.03206">
        <ele>1217.8</ele>
        <time>2019-12-30T13:05:22Z</time>
      </trkpt>
      <trkpt lat="43.8119" lon="7.03206">
        <ele>1217.8</ele>
        <time>2019-12-30T13:05:23Z</time>
      </trkpt>
      <trkpt lat="43.8119" lon="7.03206">
        <ele>1217.8</ele>
        <time>2019-12-30T13:05:24Z</time>
      </trkpt>
      <trkpt lat="43.8119" lon="7.03206">
        <ele>1217.8</ele>
        <time>2019-12-30T13:05:25Z</time>
      </trkpt>
      <trkpt lat="43.8119" lon="7.03206">
        <ele>1217.8</ele>
        <time>2019-12-30T13:05:26Z</time>
      </trkpt>
      <trkpt lat="43.8119" lon="7.03206">
        <ele>1217.8</ele>
        <time>2019-12-30T13:05:27Z</time>
      </trkpt>
      <trkpt lat="43.8119" lon="7.03206">
        <ele>1217.8</ele>
        <time>2019-12-30T13:05:28Z</time>
      </trkpt>
      <trkpt lat="43.8119" lon="7.03206">
        <ele>1217.8</ele>
        <time>2019-12-30T13:05:29Z</time>
      </trkpt>
      <trkpt lat="43.8119" lon="7.03206">
        <ele>1217.8</ele>
        <time>2019-12-30T13:05:30Z</time>
      </trkpt>
      <trkpt lat="43.8119" lon="7.03206">
        <ele>1217.8</ele>
        <time>2019-12-30T13:05:31Z</time>
      </trkpt>
      <trkpt lat="43.8119" lon="7.03206">
        <ele>1217.8</ele>
        <time>2019-12-30T13:05:32Z</time>
      </trkpt>
      <trkpt lat="43.8119" lon="7.03206">
        <ele>1217.8</ele>
        <time>2019-12-30T13:05:33Z</time>
      </trkpt>
      <trkpt lat="43.8119" lon="7.03206">
        <ele>1217.8</ele>
        <time>2019-12-30T13:05:34Z</time>
      </trkpt>
      <trkpt lat="43.8119" lon="7.03206">
        <ele>1217.8</ele>
        <time>2019-12-30T13:05:35Z</time>
      </trkpt>
      <trkpt lat="43.8119" lon="7.03206">
        <ele>1217.8</ele>
        <time>2019-12-30T13:05:36Z</time>
      </trkpt>
      <trkpt lat="43.8119" lon="7.03206">
        <ele>1217.8</ele>
        <time>2019-12-30T13:05:37Z</time>
      </trkpt>
      <trkpt lat="43.8119" lon="7.03206">
        <ele>1217.8</ele>
        <time>2019-12-30T13:05:38Z</time>
      </trkpt>
      <trkpt lat="43.8119" lon="7.03206">
        <ele>1217.8</ele>
        <time>2019-12-30T13:05:39Z</time>
      </trkpt>
      <trkpt lat="43.8119" lon="7.03206">
        <ele>1217.8</ele>
        <time>2019-12-30T13:05:40Z</time>
      </trkpt>
      <trkpt lat="43.8119" lon="7.03206">
        <ele>1217.8</ele>
        <time>2019-12-30T13:05:41Z</time>
      </trkpt>
      <trkpt lat="43.8119" lon="7.03206">
        <ele>1217.8</ele>
        <time>2019-12-30T13:05:42Z</time>
      </trkpt>
      <trkpt lat="43.8119" lon="7.03206">
        <ele>1217.8</ele>
        <time>2019-12-30T13:05:43Z</time>
      </trkpt>
      <trkpt lat="43.8119" lon="7.03206">
        <ele>1217.8</ele>
        <time>2019-12-30T13:05:44Z</time>
      </trkpt>
      <trkpt lat="43.8119" lon="7.03206">
        <ele>1217.8</ele>
        <time>2019-12-30T13:05:45Z</time>
      </trkpt>
      <trkpt lat="43.8119" lon="7.03206">
        <ele>1217.8</ele>
        <time>2019-12-30T13:05:46Z</time>
      </trkpt>
      <trkpt lat="43.8119" lon="7.03206">
        <ele>1217.8</ele>
        <time>2019-12-30T13:05:47Z</time>
      </trkpt>
      <trkpt lat="43.8119" lon="7.03206">
        <ele>1217.8</ele>
        <time>2019-12-30T13:05:48Z</time>
      </trkpt>
      <trkpt lat="43.8119" lon="7.03206">
        <ele>1217.8</ele>
        <time>2019-12-30T13:05:49Z</time>
      </trkpt>
      <trkpt lat="43.81189" lon="7.03206">
        <ele>1217.9</ele>
        <time>2019-12-30T13:05:50Z</time>
      </trkpt>
      <trkpt lat="43.81189" lon="7.03206">
        <ele>1217.9</ele>
        <time>2019-12-30T13:05:51Z</time>
      </trkpt>
      <trkpt lat="43.81189" lon="7.03207">
        <ele>1217.9</ele>
        <time>2019-12-30T13:05:52Z</time>
      </trkpt>
      <trkpt lat="43.81189" lon="7.03207">
        <ele>1217.9</ele>
        <time>2019-12-30T13:05:53Z</time>
      </trkpt>
      <trkpt lat="43.81189" lon="7.03207">
        <ele>1217.9</ele>
        <time>2019-12-30T13:05:54Z</time>
      </trkpt>
      <trkpt lat="43.81189" lon="7.03207">
        <ele>1217.9</ele>
        <time>2019-12-30T13:05:55Z</time>
      </trkpt>
      <trkpt lat="43.81189" lon="7.03208">
        <ele>1217.9</ele>
        <time>2019-12-30T13:05:56Z</time>
      </trkpt>
      <trkpt lat="43.81189" lon="7.03208">
        <ele>1217.9</ele>
        <time>2019-12-30T13:05:57Z</time>
      </trkpt>
      <trkpt lat="43.8119" lon="7.03208">
        <ele>1217.9</ele>
        <time>2019-12-30T13:05:58Z</time>
      </trkpt>
      <trkpt lat="43.8119" lon="7.03208">
        <ele>1217.9</ele>
        <time>2019-12-30T13:05:59Z</time>
      </trkpt>
      <trkpt lat="43.8119" lon="7.03208">
        <ele>1217.9</ele>
        <time>2019-12-30T13:06:00Z</time>
      </trkpt>
      <trkpt lat="43.8119" lon="7.03208">
        <ele>1217.9</ele>
        <time>2019-12-30T13:06:01Z</time>
      </trkpt>
      <trkpt lat="43.8119" lon="7.03208">
        <ele>1217.9</ele>
        <time>2019-12-30T13:06:02Z</time>
      </trkpt>
      <trkpt lat="43.81189" lon="7.03208">
        <ele>1217.9</ele>
        <time>2019-12-30T13:06:03Z</time>
      </trkpt>
      <trkpt lat="43.81189" lon="7.03208">
        <ele>1217.9</ele>
        <time>2019-12-30T13:06:04Z</time>
      </trkpt>
      <trkpt lat="43.81189" lon="7.03209">
        <ele>1217.9</ele>
        <time>2019-12-30T13:06:05Z</time>
      </trkpt>
      <trkpt lat="43.81189" lon="7.03209">
        <ele>1217.9</ele>
        <time>2019-12-30T13:06:06Z</time>
      </trkpt>
      <trkpt lat="43.81189" lon="7.0321">
        <ele>1217.9</ele>
        <time>2019-12-30T13:06:07Z</time>
      </trkpt>
      <trkpt lat="43.81188" lon="7.03212">
        <ele>1217.8</ele>
        <time>2019-12-30T13:06:08Z</time>
      </trkpt>
      <trkpt lat="43.81188" lon="7.03214">
        <ele>1217.8</ele>
        <time>2019-12-30T13:06:09Z</time>
      </trkpt>
      <trkpt lat="43.81187" lon="7.03216">
        <ele>1217.7</ele>
        <time>2019-12-30T13:06:10Z</time>
      </trkpt>
      <trkpt lat="43.81187" lon="7.0322">
        <ele>1217.7</ele>
        <time>2019-12-30T13:06:11Z</time>
      </trkpt>
      <trkpt lat="43.81187" lon="7.03223">
        <ele>1217.8</ele>
        <time>2019-12-30T13:06:12Z</time>
      </trkpt>
      <trkpt lat="43.81186" lon="7.03226">
        <ele>1217.9</ele>
        <time>2019-12-30T13:06:13Z</time>
      </trkpt>
      <trkpt lat="43.81185" lon="7.03229">
        <ele>1218</ele>
        <time>2019-12-30T13:06:14Z</time>
      </trkpt>
      <trkpt lat="43.81185" lon="7.03232">
        <ele>1218.1</ele>
        <time>2019-12-30T13:06:15Z</time>
      </trkpt>
      <trkpt lat="43.81184" lon="7.03235">
        <ele>1218.2</ele>
        <time>2019-12-30T13:06:16Z</time>
      </trkpt>
      <trkpt lat="43.81183" lon="7.03238">
        <ele>1218.4</ele>
        <time>2019-12-30T13:06:17Z</time>
      </trkpt>
      <trkpt lat="43.81182" lon="7.0324">
        <ele>1218.5</ele>
        <time>2019-12-30T13:06:18Z</time>
      </trkpt>
      <trkpt lat="43.81181" lon="7.03243">
        <ele>1218.4</ele>
        <time>2019-12-30T13:06:19Z</time>
      </trkpt>
      <trkpt lat="43.81179" lon="7.03246">
        <ele>1218.4</ele>
        <time>2019-12-30T13:06:20Z</time>
      </trkpt>
      <trkpt lat="43.81178" lon="7.03248">
        <ele>1218.3</ele>
        <time>2019-12-30T13:06:21Z</time>
      </trkpt>
      <trkpt lat="43.81177" lon="7.03251">
        <ele>1218.4</ele>
        <time>2019-12-30T13:06:22Z</time>
      </trkpt>
      <trkpt lat="43.81176" lon="7.03254">
        <ele>1219</ele>
        <time>2019-12-30T13:06:23Z</time>
      </trkpt>
      <trkpt lat="43.81175" lon="7.03257">
        <ele>1219.6</ele>
        <time>2019-12-30T13:06:24Z</time>
      </trkpt>
      <trkpt lat="43.81174" lon="7.0326">
        <ele>1220.3</ele>
        <time>2019-12-30T13:06:25Z</time>
      </trkpt>
      <trkpt lat="43.81173" lon="7.03263">
        <ele>1220.6</ele>
        <time>2019-12-30T13:06:26Z</time>
      </trkpt>
      <trkpt lat="43.81172" lon="7.03266">
        <ele>1220.9</ele>
        <time>2019-12-30T13:06:27Z</time>
      </trkpt>
      <trkpt lat="43.81171" lon="7.03269">
        <ele>1221.2</ele>
        <time>2019-12-30T13:06:28Z</time>
      </trkpt>
      <trkpt lat="43.8117" lon="7.03272">
        <ele>1221.4</ele>
        <time>2019-12-30T13:06:29Z</time>
      </trkpt>
      <trkpt lat="43.81169" lon="7.03274">
        <ele>1221.7</ele>
        <time>2019-12-30T13:06:30Z</time>
      </trkpt>
      <trkpt lat="43.81169" lon="7.03276">
        <ele>1221.9</ele>
        <time>2019-12-30T13:06:31Z</time>
      </trkpt>
      <trkpt lat="43.81168" lon="7.03279">
        <ele>1222.2</ele>
        <time>2019-12-30T13:06:32Z</time>
      </trkpt>
      <trkpt lat="43.81167" lon="7.03281">
        <ele>1222.4</ele>
        <time>2019-12-30T13:06:33Z</time>
      </trkpt>
      <trkpt lat="43.81166" lon="7.03283">
        <ele>1222.6</ele>
        <time>2019-12-30T13:06:34Z</time>
      </trkpt>
      <trkpt lat="43.81166" lon="7.03285">
        <ele>1222.8</ele>
        <time>2019-12-30T13:06:35Z</time>
      </trkpt>
      <trkpt lat="43.81165" lon="7.03288">
        <ele>1223.1</ele>
        <time>2019-12-30T13:06:36Z</time>
      </trkpt>
      <trkpt lat="43.81164" lon="7.0329">
        <ele>1223.3</ele>
        <time>2019-12-30T13:06:37Z</time>
      </trkpt>
      <trkpt lat="43.81164" lon="7.03293">
        <ele>1223.6</ele>
        <time>2019-12-30T13:06:38Z</time>
      </trkpt>
      <trkpt lat="43.81163" lon="7.03296">
        <ele>1223.9</ele>
        <time>2019-12-30T13:06:39Z</time>
      </trkpt>
      <trkpt lat="43.81162" lon="7.03298">
        <ele>1224.3</ele>
        <time>2019-12-30T13:06:40Z</time>
      </trkpt>
      <trkpt lat="43.81161" lon="7.033">
        <ele>1224.7</ele>
        <time>2019-12-30T13:06:41Z</time>
      </trkpt>
      <trkpt lat="43.8116" lon="7.03302">
        <ele>1225.1</ele>
        <time>2019-12-30T13:06:42Z</time>
      </trkpt>
      <trkpt lat="43.81159" lon="7.03303">
        <ele>1225.5</ele>
        <time>2019-12-30T13:06:43Z</time>
      </trkpt>
      <trkpt lat="43.81158" lon="7.03305">
        <ele>1225.8</ele>
        <time>2019-12-30T13:06:44Z</time>
      </trkpt>
      <trkpt lat="43.81157" lon="7.03307">
        <ele>1226</ele>
        <time>2019-12-30T13:06:45Z</time>
      </trkpt>
      <trkpt lat="43.81157" lon="7.03309">
        <ele>1226.2</ele>
        <time>2019-12-30T13:06:46Z</time>
      </trkpt>
      <trkpt lat="43.81156" lon="7.03312">
        <ele>1226.4</ele>
        <time>2019-12-30T13:06:47Z</time>
      </trkpt>
      <trkpt lat="43.81156" lon="7.03314">
        <ele>1226.7</ele>
        <time>2019-12-30T13:06:48Z</time>
      </trkpt>
      <trkpt lat="43.81155" lon="7.03317">
        <ele>1226.9</ele>
        <time>2019-12-30T13:06:49Z</time>
      </trkpt>
      <trkpt lat="43.81154" lon="7.0332">
        <ele>1227.2</ele>
        <time>2019-12-30T13:06:50Z</time>
      </trkpt>
      <trkpt lat="43.81154" lon="7.03322">
        <ele>1227.5</ele>
        <time>2019-12-30T13:06:51Z</time>
      </trkpt>
      <trkpt lat="43.81153" lon="7.03325">
        <ele>1227.7</ele>
        <time>2019-12-30T13:06:52Z</time>
      </trkpt>
      <trkpt lat="43.81152" lon="7.03328">
        <ele>1228</ele>
        <time>2019-12-30T13:06:53Z</time>
      </trkpt>
      <trkpt lat="43.81151" lon="7.03331">
        <ele>1228.3</ele>
        <time>2019-12-30T13:06:54Z</time>
      </trkpt>
      <trkpt lat="43.8115" lon="7.03333">
        <ele>1228.6</ele>
        <time>2019-12-30T13:06:55Z</time>
      </trkpt>
      <trkpt lat="43.81149" lon="7.03336">
        <ele>1228.9</ele>
        <time>2019-12-30T13:06:56Z</time>
      </trkpt>
      <trkpt lat="43.81148" lon="7.03338">
        <ele>1229.2</ele>
        <time>2019-12-30T13:06:57Z</time>
      </trkpt>
      <trkpt lat="43.81146" lon="7.03341">
        <ele>1229.8</ele>
        <time>2019-12-30T13:06:58Z</time>
      </trkpt>
      <trkpt lat="43.81145" lon="7.03343">
        <ele>1230.4</ele>
        <time>2019-12-30T13:06:59Z</time>
      </trkpt>
      <trkpt lat="43.81144" lon="7.03345">
        <ele>1231</ele>
        <time>2019-12-30T13:07:00Z</time>
      </trkpt>
      <trkpt lat="43.81143" lon="7.03347">
        <ele>1231.5</ele>
        <time>2019-12-30T13:07:01Z</time>
      </trkpt>
      <trkpt lat="43.81142" lon="7.03349">
        <ele>1231.8</ele>
        <time>2019-12-30T13:07:02Z</time>
      </trkpt>
      <trkpt lat="43.81142" lon="7.03351">
        <ele>1232</ele>
        <time>2019-12-30T13:07:03Z</time>
      </trkpt>
      <trkpt lat="43.81141" lon="7.03353">
        <ele>1232.1</ele>
        <time>2019-12-30T13:07:04Z</time>
      </trkpt>
      <trkpt lat="43.8114" lon="7.03355">
        <ele>1232.3</ele>
        <time>2019-12-30T13:07:05Z</time>
      </trkpt>
      <trkpt lat="43.81139" lon="7.03357">
        <ele>1232.5</ele>
        <time>2019-12-30T13:07:06Z</time>
      </trkpt>
      <trkpt lat="43.81138" lon="7.03359">
        <ele>1232.8</ele>
        <time>2019-12-30T13:07:07Z</time>
      </trkpt>
      <trkpt lat="43.81137" lon="7.03361">
        <ele>1233.2</ele>
        <time>2019-12-30T13:07:08Z</time>
      </trkpt>
      <trkpt lat="43.81136" lon="7.03362">
        <ele>1233.4</ele>
        <time>2019-12-30T13:07:09Z</time>
      </trkpt>
      <trkpt lat="43.81136" lon="7.03364">
        <ele>1233.7</ele>
        <time>2019-12-30T13:07:10Z</time>
      </trkpt>
      <trkpt lat="43.81135" lon="7.03365">
        <ele>1233.9</ele>
        <time>2019-12-30T13:07:11Z</time>
      </trkpt>
      <trkpt lat="43.81135" lon="7.03367">
        <ele>1234.2</ele>
        <time>2019-12-30T13:07:12Z</time>
      </trkpt>
      <trkpt lat="43.81134" lon="7.03369">
        <ele>1234.6</ele>
        <time>2019-12-30T13:07:13Z</time>
      </trkpt>
      <trkpt lat="43.81133" lon="7.03371">
        <ele>1234.9</ele>
        <time>2019-12-30T13:07:14Z</time>
      </trkpt>
      <trkpt lat="43.81132" lon="7.03374">
        <ele>1235.4</ele>
        <time>2019-12-30T13:07:15Z</time>
      </trkpt>
      <trkpt lat="43.81131" lon="7.03376">
        <ele>1235.8</ele>
        <time>2019-12-30T13:07:16Z</time>
      </trkpt>
      <trkpt lat="43.8113" lon="7.03378">
        <ele>1236.1</ele>
        <time>2019-12-30T13:07:17Z</time>
      </trkpt>
      <trkpt lat="43.81128" lon="7.0338">
        <ele>1236.3</ele>
        <time>2019-12-30T13:07:18Z</time>
      </trkpt>
      <trkpt lat="43.81127" lon="7.03381">
        <ele>1236.4</ele>
        <time>2019-12-30T13:07:19Z</time>
      </trkpt>
      <trkpt lat="43.81126" lon="7.03382">
        <ele>1236.5</ele>
        <time>2019-12-30T13:07:20Z</time>
      </trkpt>
      <trkpt lat="43.81124" lon="7.03384">
        <ele>1236.6</ele>
        <time>2019-12-30T13:07:21Z</time>
      </trkpt>
      <trkpt lat="43.81123" lon="7.03386">
        <ele>1236.8</ele>
        <time>2019-12-30T13:07:22Z</time>
      </trkpt>
      <trkpt lat="43.81122" lon="7.03388">
        <ele>1237.2</ele>
        <time>2019-12-30T13:07:23Z</time>
      </trkpt>
      <trkpt lat="43.8112" lon="7.03391">
        <ele>1237.7</ele>
        <time>2019-12-30T13:07:24Z</time>
      </trkpt>
      <trkpt lat="43.81119" lon="7.03393">
        <ele>1238.2</ele>
        <time>2019-12-30T13:07:25Z</time>
      </trkpt>
      <trkpt lat="43.81117" lon="7.03395">
        <ele>1238.7</ele>
        <time>2019-12-30T13:07:26Z</time>
      </trkpt>
      <trkpt lat="43.81115" lon="7.03398">
        <ele>1239.1</ele>
        <time>2019-12-30T13:07:27Z</time>
      </trkpt>
      <trkpt lat="43.81114" lon="7.034">
        <ele>1239.5</ele>
        <time>2019-12-30T13:07:28Z</time>
      </trkpt>
      <trkpt lat="43.81112" lon="7.03402">
        <ele>1239.8</ele>
        <time>2019-12-30T13:07:29Z</time>
      </trkpt>
      <trkpt lat="43.8111" lon="7.03404">
        <ele>1240.1</ele>
        <time>2019-12-30T13:07:30Z</time>
      </trkpt>
      <trkpt lat="43.81108" lon="7.03406">
        <ele>1240.6</ele>
        <time>2019-12-30T13:07:31Z</time>
      </trkpt>
      <trkpt lat="43.81107" lon="7.03408">
        <ele>1241.1</ele>
        <time>2019-12-30T13:07:32Z</time>
      </trkpt>
      <trkpt lat="43.81105" lon="7.0341">
        <ele>1241.6</ele>
        <time>2019-12-30T13:07:33Z</time>
      </trkpt>
      <trkpt lat="43.81104" lon="7.03413">
        <ele>1242</ele>
        <time>2019-12-30T13:07:34Z</time>
      </trkpt>
      <trkpt lat="43.81103" lon="7.03415">
        <ele>1242.4</ele>
        <time>2019-12-30T13:07:35Z</time>
      </trkpt>
      <trkpt lat="43.81101" lon="7.03418">
        <ele>1242.8</ele>
        <time>2019-12-30T13:07:36Z</time>
      </trkpt>
      <trkpt lat="43.811" lon="7.0342">
        <ele>1243.3</ele>
        <time>2019-12-30T13:07:37Z</time>
      </trkpt>
      <trkpt lat="43.81098" lon="7.03423">
        <ele>1243.5</ele>
        <time>2019-12-30T13:07:38Z</time>
      </trkpt>
      <trkpt lat="43.81097" lon="7.03425">
        <ele>1243.7</ele>
        <time>2019-12-30T13:07:39Z</time>
      </trkpt>
      <trkpt lat="43.81095" lon="7.03428">
        <ele>1244</ele>
        <time>2019-12-30T13:07:40Z</time>
      </trkpt>
      <trkpt lat="43.81093" lon="7.03431">
        <ele>1244.4</ele>
        <time>2019-12-30T13:07:41Z</time>
      </trkpt>
      <trkpt lat="43.81091" lon="7.03434">
        <ele>1244.8</ele>
        <time>2019-12-30T13:07:42Z</time>
      </trkpt>
      <trkpt lat="43.81089" lon="7.03437">
        <ele>1245.3</ele>
        <time>2019-12-30T13:07:43Z</time>
      </trkpt>
      <trkpt lat="43.81087" lon="7.03439">
        <ele>1245.8</ele>
        <time>2019-12-30T13:07:44Z</time>
      </trkpt>
      <trkpt lat="43.81085" lon="7.03441">
        <ele>1246.3</ele>
        <time>2019-12-30T13:07:45Z</time>
      </trkpt>
      <trkpt lat="43.81082" lon="7.03443">
        <ele>1246.7</ele>
        <time>2019-12-30T13:07:46Z</time>
      </trkpt>
      <trkpt lat="43.8108" lon="7.03444">
        <ele>1247.1</ele>
        <time>2019-12-30T13:07:47Z</time>
      </trkpt>
      <trkpt lat="43.81079" lon="7.03446">
        <ele>1247.5</ele>
        <time>2019-12-30T13:07:48Z</time>
      </trkpt>
      <trkpt lat="43.81077" lon="7.03448">
        <ele>1247.9</ele>
        <time>2019-12-30T13:07:49Z</time>
      </trkpt>
      <trkpt lat="43.81074" lon="7.0345">
        <ele>1248.3</ele>
        <time>2019-12-30T13:07:50Z</time>
      </trkpt>
      <trkpt lat="43.81072" lon="7.03451">
        <ele>1248.5</ele>
        <time>2019-12-30T13:07:51Z</time>
      </trkpt>
      <trkpt lat="43.8107" lon="7.03453">
        <ele>1248.8</ele>
        <time>2019-12-30T13:07:52Z</time>
      </trkpt>
      <trkpt lat="43.81068" lon="7.03455">
        <ele>1249</ele>
        <time>2019-12-30T13:07:53Z</time>
      </trkpt>
      <trkpt lat="43.81065" lon="7.03457">
        <ele>1249.6</ele>
        <time>2019-12-30T13:07:54Z</time>
      </trkpt>
      <trkpt lat="43.81063" lon="7.0346">
        <ele>1250.4</ele>
        <time>2019-12-30T13:07:55Z</time>
      </trkpt>
      <trkpt lat="43.81061" lon="7.03462">
        <ele>1251.3</ele>
        <time>2019-12-30T13:07:56Z</time>
      </trkpt>
      <trkpt lat="43.81059" lon="7.03465">
        <ele>1252</ele>
        <time>2019-12-30T13:07:57Z</time>
      </trkpt>
      <trkpt lat="43.81056" lon="7.03468">
        <ele>1252.3</ele>
        <time>2019-12-30T13:07:58Z</time>
      </trkpt>
      <trkpt lat="43.81054" lon="7.03471">
        <ele>1252.5</ele>
        <time>2019-12-30T13:07:59Z</time>
      </trkpt>
      <trkpt lat="43.81052" lon="7.03473">
        <ele>1252.9</ele>
        <time>2019-12-30T13:08:00Z</time>
      </trkpt>
      <trkpt lat="43.81049" lon="7.03475">
        <ele>1253.6</ele>
        <time>2019-12-30T13:08:01Z</time>
      </trkpt>
      <trkpt lat="43.81047" lon="7.03477">
        <ele>1254.3</ele>
        <time>2019-12-30T13:08:02Z</time>
      </trkpt>
      <trkpt lat="43.81044" lon="7.03478">
        <ele>1255</ele>
        <time>2019-12-30T13:08:03Z</time>
      </trkpt>
      <trkpt lat="43.81041" lon="7.03479">
        <ele>1255.4</ele>
        <time>2019-12-30T13:08:04Z</time>
      </trkpt>
      <trkpt lat="43.81038" lon="7.03481">
        <ele>1255.8</ele>
        <time>2019-12-30T13:08:05Z</time>
      </trkpt>
      <trkpt lat="43.81035" lon="7.03482">
        <ele>1256.2</ele>
        <time>2019-12-30T13:08:06Z</time>
      </trkpt>
      <trkpt lat="43.81032" lon="7.03484">
        <ele>1256.7</ele>
        <time>2019-12-30T13:08:07Z</time>
      </trkpt>
      <trkpt lat="43.81029" lon="7.03485">
        <ele>1257.1</ele>
        <time>2019-12-30T13:08:08Z</time>
      </trkpt>
      <trkpt lat="43.81026" lon="7.03487">
        <ele>1257.4</ele>
        <time>2019-12-30T13:08:09Z</time>
      </trkpt>
      <trkpt lat="43.81024" lon="7.03488">
        <ele>1257.7</ele>
        <time>2019-12-30T13:08:10Z</time>
      </trkpt>
      <trkpt lat="43.81021" lon="7.0349">
        <ele>1257.9</ele>
        <time>2019-12-30T13:08:11Z</time>
      </trkpt>
      <trkpt lat="43.81018" lon="7.03491">
        <ele>1258.2</ele>
        <time>2019-12-30T13:08:12Z</time>
      </trkpt>
      <trkpt lat="43.81015" lon="7.03492">
        <ele>1258.8</ele>
        <time>2019-12-30T13:08:13Z</time>
      </trkpt>
      <trkpt lat="43.81013" lon="7.03493">
        <ele>1259.3</ele>
        <time>2019-12-30T13:08:14Z</time>
      </trkpt>
      <trkpt lat="43.8101" lon="7.03494">
        <ele>1260</ele>
        <time>2019-12-30T13:08:15Z</time>
      </trkpt>
      <trkpt lat="43.81007" lon="7.03496">
        <ele>1260.6</ele>
        <time>2019-12-30T13:08:16Z</time>
      </trkpt>
      <trkpt lat="43.81005" lon="7.03497">
        <ele>1261</ele>
        <time>2019-12-30T13:08:17Z</time>
      </trkpt>
      <trkpt lat="43.81003" lon="7.03499">
        <ele>1261.2</ele>
        <time>2019-12-30T13:08:18Z</time>
      </trkpt>
      <trkpt lat="43.81002" lon="7.03501">
        <ele>1261.4</ele>
        <time>2019-12-30T13:08:19Z</time>
      </trkpt>
      <trkpt lat="43.81001" lon="7.03503">
        <ele>1261.4</ele>
        <time>2019-12-30T13:08:20Z</time>
      </trkpt>
      <trkpt lat="43.81" lon="7.03506">
        <ele>1260.9</ele>
        <time>2019-12-30T13:08:21Z</time>
      </trkpt>
      <trkpt lat="43.81" lon="7.03508">
        <ele>1260.4</ele>
        <time>2019-12-30T13:08:22Z</time>
      </trkpt>
      <trkpt lat="43.81" lon="7.03511">
        <ele>1259.9</ele>
        <time>2019-12-30T13:08:23Z</time>
      </trkpt>
      <trkpt lat="43.81" lon="7.03513">
        <ele>1259.7</ele>
        <time>2019-12-30T13:08:24Z</time>
      </trkpt>
      <trkpt lat="43.81" lon="7.03516">
        <ele>1259.4</ele>
        <time>2019-12-30T13:08:25Z</time>
      </trkpt>
      <trkpt lat="43.81" lon="7.03519">
        <ele>1259.2</ele>
        <time>2019-12-30T13:08:26Z</time>
      </trkpt>
      <trkpt lat="43.81" lon="7.03521">
        <ele>1258.7</ele>
        <time>2019-12-30T13:08:27Z</time>
      </trkpt>
      <trkpt lat="43.81001" lon="7.03524">
        <ele>1258.2</ele>
        <time>2019-12-30T13:08:28Z</time>
      </trkpt>
      <trkpt lat="43.81001" lon="7.03526">
        <ele>1257.7</ele>
        <time>2019-12-30T13:08:29Z</time>
      </trkpt>
      <trkpt lat="43.81002" lon="7.03529">
        <ele>1257.2</ele>
        <time>2019-12-30T13:08:30Z</time>
      </trkpt>
      <trkpt lat="43.81002" lon="7.03532">
        <ele>1256.8</ele>
        <time>2019-12-30T13:08:31Z</time>
      </trkpt>
      <trkpt lat="43.81002" lon="7.03535">
        <ele>1256.5</ele>
        <time>2019-12-30T13:08:32Z</time>
      </trkpt>
      <trkpt lat="43.81002" lon="7.03538">
        <ele>1256.2</ele>
        <time>2019-12-30T13:08:33Z</time>
      </trkpt>
      <trkpt lat="43.81002" lon="7.03541">
        <ele>1255.9</ele>
        <time>2019-12-30T13:08:34Z</time>
      </trkpt>
      <trkpt lat="43.81002" lon="7.03544">
        <ele>1255.5</ele>
        <time>2019-12-30T13:08:35Z</time>
      </trkpt>
      <trkpt lat="43.81002" lon="7.03547">
        <ele>1255.1</ele>
        <time>2019-12-30T13:08:36Z</time>
      </trkpt>
      <trkpt lat="43.81002" lon="7.0355">
        <ele>1254.7</ele>
        <time>2019-12-30T13:08:37Z</time>
      </trkpt>
      <trkpt lat="43.81001" lon="7.03553">
        <ele>1254.5</ele>
        <time>2019-12-30T13:08:38Z</time>
      </trkpt>
      <trkpt lat="43.81001" lon="7.03555">
        <ele>1254.6</ele>
        <time>2019-12-30T13:08:39Z</time>
      </trkpt>
      <trkpt lat="43.81" lon="7.03558">
        <ele>1254.7</ele>
        <time>2019-12-30T13:08:40Z</time>
      </trkpt>
      <trkpt lat="43.80999" lon="7.0356">
        <ele>1254.7</ele>
        <time>2019-12-30T13:08:41Z</time>
      </trkpt>
      <trkpt lat="43.80998" lon="7.03563">
        <ele>1254.7</ele>
        <time>2019-12-30T13:08:42Z</time>
      </trkpt>
      <trkpt lat="43.80998" lon="7.03565">
        <ele>1254.6</ele>
        <time>2019-12-30T13:08:43Z</time>
      </trkpt>
      <trkpt lat="43.80997" lon="7.03567">
        <ele>1254.5</ele>
        <time>2019-12-30T13:08:44Z</time>
      </trkpt>
      <trkpt lat="43.80996" lon="7.03569">
        <ele>1254.4</ele>
        <time>2019-12-30T13:08:45Z</time>
      </trkpt>
      <trkpt lat="43.80995" lon="7.03571">
        <ele>1254.2</ele>
        <time>2019-12-30T13:08:46Z</time>
      </trkpt>
      <trkpt lat="43.80994" lon="7.03574">
        <ele>1254.6</ele>
        <time>2019-12-30T13:08:47Z</time>
      </trkpt>
      <trkpt lat="43.80993" lon="7.03576">
        <ele>1255.1</ele>
        <time>2019-12-30T13:08:48Z</time>
      </trkpt>
      <trkpt lat="43.80992" lon="7.03578">
        <ele>1255.5</ele>
        <time>2019-12-30T13:08:49Z</time>
      </trkpt>
      <trkpt lat="43.80991" lon="7.0358">
        <ele>1255.9</ele>
        <time>2019-12-30T13:08:50Z</time>
      </trkpt>
      <trkpt lat="43.80991" lon="7.03582">
        <ele>1256.3</ele>
        <time>2019-12-30T13:08:51Z</time>
      </trkpt>
      <trkpt lat="43.8099" lon="7.03584">
        <ele>1256.4</ele>
        <time>2019-12-30T13:08:52Z</time>
      </trkpt>
      <trkpt lat="43.80989" lon="7.03586">
        <ele>1256.6</ele>
        <time>2019-12-30T13:08:53Z</time>
      </trkpt>
      <trkpt lat="43.80988" lon="7.03588">
        <ele>1256.8</ele>
        <time>2019-12-30T13:08:54Z</time>
      </trkpt>
      <trkpt lat="43.80986" lon="7.0359">
        <ele>1257</ele>
        <time>2019-12-30T13:08:55Z</time>
      </trkpt>
      <trkpt lat="43.80985" lon="7.03592">
        <ele>1257.3</ele>
        <time>2019-12-30T13:08:56Z</time>
      </trkpt>
      <trkpt lat="43.80984" lon="7.03593">
        <ele>1257.5</ele>
        <time>2019-12-30T13:08:57Z</time>
      </trkpt>
      <trkpt lat="43.80983" lon="7.03595">
        <ele>1257.8</ele>
        <time>2019-12-30T13:08:58Z</time>
      </trkpt>
      <trkpt lat="43.80982" lon="7.03596">
        <ele>1258</ele>
        <time>2019-12-30T13:08:59Z</time>
      </trkpt>
      <trkpt lat="43.80981" lon="7.03598">
        <ele>1258.2</ele>
        <time>2019-12-30T13:09:00Z</time>
      </trkpt>
      <trkpt lat="43.8098" lon="7.03599">
        <ele>1258.4</ele>
        <time>2019-12-30T13:09:01Z</time>
      </trkpt>
      <trkpt lat="43.80978" lon="7.03601">
        <ele>1259.1</ele>
        <time>2019-12-30T13:09:02Z</time>
      </trkpt>
      <trkpt lat="43.80977" lon="7.03603">
        <ele>1259.9</ele>
        <time>2019-12-30T13:09:03Z</time>
      </trkpt>
      <trkpt lat="43.80975" lon="7.03605">
        <ele>1260.6</ele>
        <time>2019-12-30T13:09:04Z</time>
      </trkpt>
      <trkpt lat="43.80974" lon="7.03607">
        <ele>1261.4</ele>
        <time>2019-12-30T13:09:05Z</time>
      </trkpt>
      <trkpt lat="43.80972" lon="7.0361">
        <ele>1262.1</ele>
        <time>2019-12-30T13:09:06Z</time>
      </trkpt>
      <trkpt lat="43.80971" lon="7.03612">
        <ele>1262.8</ele>
        <time>2019-12-30T13:09:07Z</time>
      </trkpt>
      <trkpt lat="43.8097" lon="7.03614">
        <ele>1263.4</ele>
        <time>2019-12-30T13:09:08Z</time>
      </trkpt>
      <trkpt lat="43.80969" lon="7.03616">
        <ele>1264.1</ele>
        <time>2019-12-30T13:09:09Z</time>
      </trkpt>
      <trkpt lat="43.80968" lon="7.03618">
        <ele>1264.8</ele>
        <time>2019-12-30T13:09:10Z</time>
      </trkpt>
      <trkpt lat="43.80966" lon="7.0362">
        <ele>1265.4</ele>
        <time>2019-12-30T13:09:11Z</time>
      </trkpt>
      <trkpt lat="43.80965" lon="7.03621">
        <ele>1266</ele>
        <time>2019-12-30T13:09:12Z</time>
      </trkpt>
      <trkpt lat="43.80963" lon="7.03623">
        <ele>1266.7</ele>
        <time>2019-12-30T13:09:13Z</time>
      </trkpt>
      <trkpt lat="43.80961" lon="7.03624">
        <ele>1267.4</ele>
        <time>2019-12-30T13:09:14Z</time>
      </trkpt>
      <trkpt lat="43.8096" lon="7.03626">
        <ele>1268</ele>
        <time>2019-12-30T13:09:15Z</time>
      </trkpt>
      <trkpt lat="43.80958" lon="7.03627">
        <ele>1268.4</ele>
        <time>2019-12-30T13:09:16Z</time>
      </trkpt>
      <trkpt lat="43.80956" lon="7.0363">
        <ele>1268.8</ele>
        <time>2019-12-30T13:09:17Z</time>
      </trkpt>
      <trkpt lat="43.80955" lon="7.03632">
        <ele>1269.2</ele>
        <time>2019-12-30T13:09:18Z</time>
      </trkpt>
      <trkpt lat="43.80953" lon="7.03634">
        <ele>1269.6</ele>
        <time>2019-12-30T13:09:19Z</time>
      </trkpt>
      <trkpt lat="43.80952" lon="7.03636">
        <ele>1270.2</ele>
        <time>2019-12-30T13:09:20Z</time>
      </trkpt>
      <trkpt lat="43.80951" lon="7.03638">
        <ele>1270.8</ele>
        <time>2019-12-30T13:09:21Z</time>
      </trkpt>
      <trkpt lat="43.8095" lon="7.0364">
        <ele>1271.4</ele>
        <time>2019-12-30T13:09:22Z</time>
      </trkpt>
      <trkpt lat="43.80949" lon="7.03642">
        <ele>1272</ele>
        <time>2019-12-30T13:09:23Z</time>
      </trkpt>
      <trkpt lat="43.80948" lon="7.03645">
        <ele>1272.6</ele>
        <time>2019-12-30T13:09:24Z</time>
      </trkpt>
      <trkpt lat="43.80947" lon="7.03647">
        <ele>1273.2</ele>
        <time>2019-12-30T13:09:25Z</time>
      </trkpt>
      <trkpt lat="43.80946" lon="7.03649">
        <ele>1273.8</ele>
        <time>2019-12-30T13:09:26Z</time>
      </trkpt>
      <trkpt lat="43.80945" lon="7.03651">
        <ele>1274.4</ele>
        <time>2019-12-30T13:09:27Z</time>
      </trkpt>
      <trkpt lat="43.80944" lon="7.03653">
        <ele>1275.1</ele>
        <time>2019-12-30T13:09:28Z</time>
      </trkpt>
      <trkpt lat="43.80943" lon="7.03655">
        <ele>1275.7</ele>
        <time>2019-12-30T13:09:29Z</time>
      </trkpt>
      <trkpt lat="43.80942" lon="7.03658">
        <ele>1276.5</ele>
        <time>2019-12-30T13:09:30Z</time>
      </trkpt>
      <trkpt lat="43.80941" lon="7.0366">
        <ele>1277.2</ele>
        <time>2019-12-30T13:09:31Z</time>
      </trkpt>
      <trkpt lat="43.8094" lon="7.03663">
        <ele>1278</ele>
        <time>2019-12-30T13:09:32Z</time>
      </trkpt>
      <trkpt lat="43.80939" lon="7.03665">
        <ele>1278.6</ele>
        <time>2019-12-30T13:09:33Z</time>
      </trkpt>
      <trkpt lat="43.80938" lon="7.03667">
        <ele>1279.1</ele>
        <time>2019-12-30T13:09:34Z</time>
      </trkpt>
      <trkpt lat="43.80937" lon="7.0367">
        <ele>1279.5</ele>
        <time>2019-12-30T13:09:35Z</time>
      </trkpt>
      <trkpt lat="43.80936" lon="7.03672">
        <ele>1279.8</ele>
        <time>2019-12-30T13:09:36Z</time>
      </trkpt>
      <trkpt lat="43.80935" lon="7.03675">
        <ele>1280.2</ele>
        <time>2019-12-30T13:09:37Z</time>
      </trkpt>
      <trkpt lat="43.80934" lon="7.03677">
        <ele>1280.6</ele>
        <time>2019-12-30T13:09:38Z</time>
      </trkpt>
      <trkpt lat="43.80933" lon="7.03679">
        <ele>1280.9</ele>
        <time>2019-12-30T13:09:39Z</time>
      </trkpt>
      <trkpt lat="43.80932" lon="7.03682">
        <ele>1281.2</ele>
        <time>2019-12-30T13:09:40Z</time>
      </trkpt>
      <trkpt lat="43.80931" lon="7.03684">
        <ele>1281.5</ele>
        <time>2019-12-30T13:09:41Z</time>
      </trkpt>
      <trkpt lat="43.8093" lon="7.03686">
        <ele>1281.8</ele>
        <time>2019-12-30T13:09:42Z</time>
      </trkpt>
      <trkpt lat="43.8093" lon="7.03688">
        <ele>1282.1</ele>
        <time>2019-12-30T13:09:43Z</time>
      </trkpt>
      <trkpt lat="43.80929" lon="7.03689">
        <ele>1282.5</ele>
        <time>2019-12-30T13:09:44Z</time>
      </trkpt>
      <trkpt lat="43.80928" lon="7.03691">
        <ele>1283</ele>
        <time>2019-12-30T13:09:45Z</time>
      </trkpt>
      <trkpt lat="43.80927" lon="7.03694">
        <ele>1283.6</ele>
        <time>2019-12-30T13:09:46Z</time>
      </trkpt>
      <trkpt lat="43.80926" lon="7.03696">
        <ele>1284.1</ele>
        <time>2019-12-30T13:09:47Z</time>
      </trkpt>
      <trkpt lat="43.80925" lon="7.03698">
        <ele>1284.6</ele>
        <time>2019-12-30T13:09:48Z</time>
      </trkpt>
      <trkpt lat="43.80924" lon="7.037">
        <ele>1285</ele>
        <time>2019-12-30T13:09:49Z</time>
      </trkpt>
      <trkpt lat="43.80923" lon="7.03702">
        <ele>1285.2</ele>
        <time>2019-12-30T13:09:50Z</time>
      </trkpt>
      <trkpt lat="43.80923" lon="7.03704">
        <ele>1285.4</ele>
        <time>2019-12-30T13:09:51Z</time>
      </trkpt>
      <trkpt lat="43.80922" lon="7.03705">
        <ele>1285.6</ele>
        <time>2019-12-30T13:09:52Z</time>
      </trkpt>
      <trkpt lat="43.80922" lon="7.03707">
        <ele>1285.8</ele>
        <time>2019-12-30T13:09:53Z</time>
      </trkpt>
      <trkpt lat="43.80921" lon="7.03709">
        <ele>1285.9</ele>
        <time>2019-12-30T13:09:54Z</time>
      </trkpt>
      <trkpt lat="43.8092" lon="7.03711">
        <ele>1286.3</ele>
        <time>2019-12-30T13:09:55Z</time>
      </trkpt>
      <trkpt lat="43.80919" lon="7.03713">
        <ele>1286.9</ele>
        <time>2019-12-30T13:09:56Z</time>
      </trkpt>
      <trkpt lat="43.80917" lon="7.03715">
        <ele>1287.5</ele>
        <time>2019-12-30T13:09:57Z</time>
      </trkpt>
      <trkpt lat="43.80916" lon="7.03717">
        <ele>1288.1</ele>
        <time>2019-12-30T13:09:58Z</time>
      </trkpt>
      <trkpt lat="43.80915" lon="7.03719">
        <ele>1288.6</ele>
        <time>2019-12-30T13:09:59Z</time>
      </trkpt>
      <trkpt lat="43.80914" lon="7.03721">
        <ele>1289</ele>
        <time>2019-12-30T13:10:00Z</time>
      </trkpt>
      <trkpt lat="43.80912" lon="7.03723">
        <ele>1289.2</ele>
        <time>2019-12-30T13:10:01Z</time>
      </trkpt>
      <trkpt lat="43.80911" lon="7.03725">
        <ele>1289.5</ele>
        <time>2019-12-30T13:10:02Z</time>
      </trkpt>
      <trkpt lat="43.8091" lon="7.03728">
        <ele>1289.8</ele>
        <time>2019-12-30T13:10:03Z</time>
      </trkpt>
      <trkpt lat="43.80909" lon="7.0373">
        <ele>1290.2</ele>
        <time>2019-12-30T13:10:04Z</time>
      </trkpt>
      <trkpt lat="43.80909" lon="7.03733">
        <ele>1290.4</ele>
        <time>2019-12-30T13:10:05Z</time>
      </trkpt>
      <trkpt lat="43.80908" lon="7.03735">
        <ele>1290.7</ele>
        <time>2019-12-30T13:10:06Z</time>
      </trkpt>
      <trkpt lat="43.80907" lon="7.03737">
        <ele>1290.9</ele>
        <time>2019-12-30T13:10:07Z</time>
      </trkpt>
      <trkpt lat="43.80907" lon="7.03739">
        <ele>1291.1</ele>
        <time>2019-12-30T13:10:08Z</time>
      </trkpt>
      <trkpt lat="43.80906" lon="7.03741">
        <ele>1291.4</ele>
        <time>2019-12-30T13:10:09Z</time>
      </trkpt>
      <trkpt lat="43.80905" lon="7.03743">
        <ele>1291.9</ele>
        <time>2019-12-30T13:10:10Z</time>
      </trkpt>
      <trkpt lat="43.80904" lon="7.03745">
        <ele>1292.4</ele>
        <time>2019-12-30T13:10:11Z</time>
      </trkpt>
      <trkpt lat="43.80903" lon="7.03747">
        <ele>1293</ele>
        <time>2019-12-30T13:10:12Z</time>
      </trkpt>
      <trkpt lat="43.80902" lon="7.03749">
        <ele>1293.5</ele>
        <time>2019-12-30T13:10:13Z</time>
      </trkpt>
      <trkpt lat="43.80901" lon="7.03751">
        <ele>1294.1</ele>
        <time>2019-12-30T13:10:14Z</time>
      </trkpt>
      <trkpt lat="43.809" lon="7.03753">
        <ele>1294.3</ele>
        <time>2019-12-30T13:10:15Z</time>
      </trkpt>
      <trkpt lat="43.80899" lon="7.03755">
        <ele>1294.6</ele>
        <time>2019-12-30T13:10:16Z</time>
      </trkpt>
      <trkpt lat="43.80898" lon="7.03757">
        <ele>1294.8</ele>
        <time>2019-12-30T13:10:17Z</time>
      </trkpt>
      <trkpt lat="43.80897" lon="7.0376">
        <ele>1295</ele>
        <time>2019-12-30T13:10:18Z</time>
      </trkpt>
      <trkpt lat="43.80896" lon="7.03762">
        <ele>1295.3</ele>
        <time>2019-12-30T13:10:19Z</time>
      </trkpt>
      <trkpt lat="43.80895" lon="7.03765">
        <ele>1295.5</ele>
        <time>2019-12-30T13:10:20Z</time>
      </trkpt>
      <trkpt lat="43.80894" lon="7.03767">
        <ele>1295.7</ele>
        <time>2019-12-30T13:10:21Z</time>
      </trkpt>
      <trkpt lat="43.80893" lon="7.0377">
        <ele>1295.9</ele>
        <time>2019-12-30T13:10:22Z</time>
      </trkpt>
      <trkpt lat="43.80892" lon="7.03772">
        <ele>1296</ele>
        <time>2019-12-30T13:10:23Z</time>
      </trkpt>
      <trkpt lat="43.80891" lon="7.03774">
        <ele>1296.6</ele>
        <time>2019-12-30T13:10:24Z</time>
      </trkpt>
      <trkpt lat="43.80889" lon="7.03776">
        <ele>1297.2</ele>
        <time>2019-12-30T13:10:25Z</time>
      </trkpt>
      <trkpt lat="43.80888" lon="7.03778">
        <ele>1297.8</ele>
        <time>2019-12-30T13:10:26Z</time>
      </trkpt>
      <trkpt lat="43.80887" lon="7.03779">
        <ele>1298.4</ele>
        <time>2019-12-30T13:10:27Z</time>
      </trkpt>
      <trkpt lat="43.80885" lon="7.03781">
        <ele>1299</ele>
        <time>2019-12-30T13:10:28Z</time>
      </trkpt>
      <trkpt lat="43.80884" lon="7.03782">
        <ele>1299.3</ele>
        <time>2019-12-30T13:10:29Z</time>
      </trkpt>
      <trkpt lat="43.80883" lon="7.03783">
        <ele>1299.5</ele>
        <time>2019-12-30T13:10:30Z</time>
      </trkpt>
      <trkpt lat="43.80882" lon="7.03784">
        <ele>1299.8</ele>
        <time>2019-12-30T13:10:31Z</time>
      </trkpt>
      <trkpt lat="43.8088" lon="7.03785">
        <ele>1300.1</ele>
        <time>2019-12-30T13:10:32Z</time>
      </trkpt>
      <trkpt lat="43.80878" lon="7.03786">
        <ele>1300.4</ele>
        <time>2019-12-30T13:10:33Z</time>
      </trkpt>
      <trkpt lat="43.80877" lon="7.03788">
        <ele>1301</ele>
        <time>2019-12-30T13:10:34Z</time>
      </trkpt>
      <trkpt lat="43.80875" lon="7.03788">
        <ele>1302</ele>
        <time>2019-12-30T13:10:35Z</time>
      </trkpt>
      <trkpt lat="43.80873" lon="7.03789">
        <ele>1303</ele>
        <time>2019-12-30T13:10:36Z</time>
      </trkpt>
      <trkpt lat="43.80871" lon="7.0379">
        <ele>1303.9</ele>
        <time>2019-12-30T13:10:37Z</time>
      </trkpt>
      <trkpt lat="43.8087" lon="7.03791">
        <ele>1304.7</ele>
        <time>2019-12-30T13:10:38Z</time>
      </trkpt>
      <trkpt lat="43.80868" lon="7.03792">
        <ele>1305.5</ele>
        <time>2019-12-30T13:10:39Z</time>
      </trkpt>
      <trkpt lat="43.80866" lon="7.03794">
        <ele>1306.4</ele>
        <time>2019-12-30T13:10:40Z</time>
      </trkpt>
      <trkpt lat="43.80865" lon="7.03796">
        <ele>1307.3</ele>
        <time>2019-12-30T13:10:41Z</time>
      </trkpt>
      <trkpt lat="43.80863" lon="7.03797">
        <ele>1308.1</ele>
        <time>2019-12-30T13:10:42Z</time>
      </trkpt>
      <trkpt lat="43.80862" lon="7.03799">
        <ele>1308.9</ele>
        <time>2019-12-30T13:10:43Z</time>
      </trkpt>
      <trkpt lat="43.80861" lon="7.03801">
        <ele>1309.6</ele>
        <time>2019-12-30T13:10:44Z</time>
      </trkpt>
      <trkpt lat="43.8086" lon="7.03802">
        <ele>1310.2</ele>
        <time>2019-12-30T13:10:45Z</time>
      </trkpt>
      <trkpt lat="43.80858" lon="7.03804">
        <ele>1310.7</ele>
        <time>2019-12-30T13:10:46Z</time>
      </trkpt>
      <trkpt lat="43.80857" lon="7.03807">
        <ele>1311.1</ele>
        <time>2019-12-30T13:10:47Z</time>
      </trkpt>
      <trkpt lat="43.80856" lon="7.0381">
        <ele>1311.5</ele>
        <time>2019-12-30T13:10:48Z</time>
      </trkpt>
      <trkpt lat="43.80856" lon="7.03813">
        <ele>1311.8</ele>
        <time>2019-12-30T13:10:49Z</time>
      </trkpt>
      <trkpt lat="43.80855" lon="7.03815">
        <ele>1312.2</ele>
        <time>2019-12-30T13:10:50Z</time>
      </trkpt>
      <trkpt lat="43.80855" lon="7.03817">
        <ele>1312.8</ele>
        <time>2019-12-30T13:10:51Z</time>
      </trkpt>
      <trkpt lat="43.80854" lon="7.0382">
        <ele>1313.5</ele>
        <time>2019-12-30T13:10:52Z</time>
      </trkpt>
      <trkpt lat="43.80853" lon="7.03823">
        <ele>1314.2</ele>
        <time>2019-12-30T13:10:53Z</time>
      </trkpt>
      <trkpt lat="43.80853" lon="7.03825">
        <ele>1314.8</ele>
        <time>2019-12-30T13:10:54Z</time>
      </trkpt>
      <trkpt lat="43.80853" lon="7.03827">
        <ele>1315.3</ele>
        <time>2019-12-30T13:10:55Z</time>
      </trkpt>
      <trkpt lat="43.80852" lon="7.03829">
        <ele>1315.8</ele>
        <time>2019-12-30T13:10:56Z</time>
      </trkpt>
      <trkpt lat="43.80852" lon="7.03831">
        <ele>1316.2</ele>
        <time>2019-12-30T13:10:57Z</time>
      </trkpt>
      <trkpt lat="43.80851" lon="7.03833">
        <ele>1316.8</ele>
        <time>2019-12-30T13:10:58Z</time>
      </trkpt>
      <trkpt lat="43.80851" lon="7.03836">
        <ele>1317.2</ele>
        <time>2019-12-30T13:10:59Z</time>
      </trkpt>
      <trkpt lat="43.80851" lon="7.03839">
        <ele>1317.3</ele>
        <time>2019-12-30T13:11:00Z</time>
      </trkpt>
      <trkpt lat="43.8085" lon="7.03842">
        <ele>1317.5</ele>
        <time>2019-12-30T13:11:01Z</time>
      </trkpt>
      <trkpt lat="43.80849" lon="7.03844">
        <ele>1317.6</ele>
        <time>2019-12-30T13:11:02Z</time>
      </trkpt>
      <trkpt lat="43.80848" lon="7.03847">
        <ele>1317.8</ele>
        <time>2019-12-30T13:11:03Z</time>
      </trkpt>
      <trkpt lat="43.80848" lon="7.03847">
        <ele>1317.9</ele>
        <time>2019-12-30T13:11:04Z</time>
      </trkpt>
      <trkpt lat="43.80848" lon="7.03848">
        <ele>1318</ele>
        <time>2019-12-30T13:11:05Z</time>
      </trkpt>
      <trkpt lat="43.80848" lon="7.03848">
        <ele>1318</ele>
        <time>2019-12-30T13:11:06Z</time>
      </trkpt>
      <trkpt lat="43.80848" lon="7.03848">
        <ele>1318.1</ele>
        <time>2019-12-30T13:11:07Z</time>
      </trkpt>
      <trkpt lat="43.80847" lon="7.03849">
        <ele>1318.2</ele>
        <time>2019-12-30T13:11:08Z</time>
      </trkpt>
      <trkpt lat="43.80847" lon="7.03849">
        <ele>1318.2</ele>
        <time>2019-12-30T13:11:09Z</time>
      </trkpt>
      <trkpt lat="43.80847" lon="7.0385">
        <ele>1318.3</ele>
        <time>2019-12-30T13:11:10Z</time>
      </trkpt>
      <trkpt lat="43.80847" lon="7.0385">
        <ele>1318.3</ele>
        <time>2019-12-30T13:11:11Z</time>
      </trkpt>
      <trkpt lat="43.80847" lon="7.03851">
        <ele>1318.4</ele>
        <time>2019-12-30T13:11:12Z</time>
      </trkpt>
      <trkpt lat="43.80847" lon="7.03851">
        <ele>1318.4</ele>
        <time>2019-12-30T13:11:13Z</time>
      </trkpt>
      <trkpt lat="43.80847" lon="7.03851">
        <ele>1318.4</ele>
        <time>2019-12-30T13:11:14Z</time>
      </trkpt>
      <trkpt lat="43.80847" lon="7.03851">
        <ele>1318.4</ele>
        <time>2019-12-30T13:11:15Z</time>
      </trkpt>
      <trkpt lat="43.80847" lon="7.03851">
        <ele>1318.4</ele>
        <time>2019-12-30T13:11:16Z</time>
      </trkpt>
      <trkpt lat="43.80847" lon="7.03851">
        <ele>1318.4</ele>
        <time>2019-12-30T13:11:17Z</time>
      </trkpt>
      <trkpt lat="43.80847" lon="7.03851">
        <ele>1318.4</ele>
        <time>2019-12-30T13:11:18Z</time>
      </trkpt>
      <trkpt lat="43.80847" lon="7.03851">
        <ele>1318.4</ele>
        <time>2019-12-30T13:11:19Z</time>
      </trkpt>
      <trkpt lat="43.80847" lon="7.03851">
        <ele>1318.4</ele>
        <time>2019-12-30T13:11:20Z</time>
      </trkpt>
      <trkpt lat="43.80847" lon="7.03851">
        <ele>1318.4</ele>
        <time>2019-12-30T13:11:21Z</time>
      </trkpt>
      <trkpt lat="43.80847" lon="7.03851">
        <ele>1318.4</ele>
        <time>2019-12-30T13:11:22Z</time>
      </trkpt>
      <trkpt lat="43.80847" lon="7.03851">
        <ele>1318.4</ele>
        <time>2019-12-30T13:11:23Z</time>
      </trkpt>
      <trkpt lat="43.80847" lon="7.03851">
        <ele>1318.4</ele>
        <time>2019-12-30T13:11:24Z</time>
      </trkpt>
      <trkpt lat="43.80847" lon="7.03851">
        <ele>1318.4</ele>
        <time>2019-12-30T13:11:25Z</time>
      </trkpt>
      <trkpt lat="43.80847" lon="7.03851">
        <ele>1318.4</ele>
        <time>2019-12-30T13:11:26Z</time>
      </trkpt>
      <trkpt lat="43.80847" lon="7.03851">
        <ele>1318.4</ele>
        <time>2019-12-30T13:11:27Z</time>
      </trkpt>
      <trkpt lat="43.80847" lon="7.03851">
        <ele>1318.4</ele>
        <time>2019-12-30T13:11:28Z</time>
      </trkpt>
      <trkpt lat="43.80847" lon="7.03851">
        <ele>1318.4</ele>
        <time>2019-12-30T13:11:29Z</time>
      </trkpt>
      <trkpt lat="43.80847" lon="7.03851">
        <ele>1318.4</ele>
        <time>2019-12-30T13:11:30Z</time>
      </trkpt>
      <trkpt lat="43.80847" lon="7.03851">
        <ele>1318.4</ele>
        <time>2019-12-30T13:11:31Z</time>
      </trkpt>
      <trkpt lat="43.80847" lon="7.03851">
        <ele>1318.4</ele>
        <time>2019-12-30T13:11:32Z</time>
      </trkpt>
      <trkpt lat="43.80847" lon="7.03851">
        <ele>1318.4</ele>
        <time>2019-12-30T13:11:33Z</time>
      </trkpt>
      <trkpt lat="43.80847" lon="7.03851">
        <ele>1318.4</ele>
        <time>2019-12-30T13:11:34Z</time>
      </trkpt>
      <trkpt lat="43.80847" lon="7.03851">
        <ele>1318.4</ele>
        <time>2019-12-30T13:11:35Z</time>
      </trkpt>
      <trkpt lat="43.80847" lon="7.03851">
        <ele>1318.4</ele>
        <time>2019-12-30T13:11:36Z</time>
      </trkpt>
      <trkpt lat="43.80847" lon="7.03851">
        <ele>1318.4</ele>
        <time>2019-12-30T13:11:37Z</time>
      </trkpt>
      <trkpt lat="43.80847" lon="7.03851">
        <ele>1318.4</ele>
        <time>2019-12-30T13:11:38Z</time>
      </trkpt>
      <trkpt lat="43.80847" lon="7.03851">
        <ele>1318.4</ele>
        <time>2019-12-30T13:11:39Z</time>
      </trkpt>
      <trkpt lat="43.80847" lon="7.03851">
        <ele>1318.4</ele>
        <time>2019-12-30T13:11:40Z</time>
      </trkpt>
      <trkpt lat="43.80847" lon="7.03851">
        <ele>1318.4</ele>
        <time>2019-12-30T13:11:41Z</time>
      </trkpt>
      <trkpt lat="43.80847" lon="7.03851">
        <ele>1318.4</ele>
        <time>2019-12-30T13:11:42Z</time>
      </trkpt>
      <trkpt lat="43.80847" lon="7.03851">
        <ele>1318.5</ele>
        <time>2019-12-30T13:11:43Z</time>
      </trkpt>
      <trkpt lat="43.80847" lon="7.03851">
        <ele>1318.5</ele>
        <time>2019-12-30T13:11:44Z</time>
      </trkpt>
      <trkpt lat="43.80847" lon="7.03851">
        <ele>1318.5</ele>
        <time>2019-12-30T13:11:45Z</time>
      </trkpt>
      <trkpt lat="43.80848" lon="7.03851">
        <ele>1318.6</ele>
        <time>2019-12-30T13:11:46Z</time>
      </trkpt>
      <trkpt lat="43.80848" lon="7.03851">
        <ele>1318.6</ele>
        <time>2019-12-30T13:11:47Z</time>
      </trkpt>
      <trkpt lat="43.80848" lon="7.03851">
        <ele>1318.6</ele>
        <time>2019-12-30T13:11:48Z</time>
      </trkpt>
      <trkpt lat="43.80848" lon="7.03851">
        <ele>1318.6</ele>
        <time>2019-12-30T13:11:49Z</time>
      </trkpt>
      <trkpt lat="43.80848" lon="7.03851">
        <ele>1318.7</ele>
        <time>2019-12-30T13:11:50Z</time>
      </trkpt>
      <trkpt lat="43.80848" lon="7.03851">
        <ele>1318.7</ele>
        <time>2019-12-30T13:11:51Z</time>
      </trkpt>
      <trkpt lat="43.80849" lon="7.03851">
        <ele>1318.7</ele>
        <time>2019-12-30T13:11:52Z</time>
      </trkpt>
      <trkpt lat="43.80849" lon="7.03851">
        <ele>1318.7</ele>
        <time>2019-12-30T13:11:53Z</time>
      </trkpt>
      <trkpt lat="43.80849" lon="7.03851">
        <ele>1318.7</ele>
        <time>2019-12-30T13:11:54Z</time>
      </trkpt>
      <trkpt lat="43.80849" lon="7.03851">
        <ele>1318.7</ele>
        <time>2019-12-30T13:11:55Z</time>
      </trkpt>
      <trkpt lat="43.80849" lon="7.03851">
        <ele>1318.7</ele>
        <time>2019-12-30T13:11:56Z</time>
      </trkpt>
      <trkpt lat="43.80849" lon="7.03851">
        <ele>1318.7</ele>
        <time>2019-12-30T13:11:57Z</time>
      </trkpt>
      <trkpt lat="43.80849" lon="7.03851">
        <ele>1318.7</ele>
        <time>2019-12-30T13:11:58Z</time>
      </trkpt>
      <trkpt lat="43.80849" lon="7.03851">
        <ele>1318.7</ele>
        <time>2019-12-30T13:11:59Z</time>
      </trkpt>
      <trkpt lat="43.80849" lon="7.03851">
        <ele>1318.7</ele>
        <time>2019-12-30T13:12:00Z</time>
      </trkpt>
      <trkpt lat="43.80849" lon="7.03851">
        <ele>1318.7</ele>
        <time>2019-12-30T13:12:01Z</time>
      </trkpt>
      <trkpt lat="43.80849" lon="7.03851">
        <ele>1318.7</ele>
        <time>2019-12-30T13:12:02Z</time>
      </trkpt>
      <trkpt lat="43.80849" lon="7.03851">
        <ele>1318.7</ele>
        <time>2019-12-30T13:12:03Z</time>
      </trkpt>
      <trkpt lat="43.80849" lon="7.03851">
        <ele>1318.7</ele>
        <time>2019-12-30T13:12:04Z</time>
      </trkpt>
      <trkpt lat="43.80849" lon="7.03851">
        <ele>1318.7</ele>
        <time>2019-12-30T13:12:05Z</time>
      </trkpt>
      <trkpt lat="43.80849" lon="7.03851">
        <ele>1318.7</ele>
        <time>2019-12-30T13:12:06Z</time>
      </trkpt>
      <trkpt lat="43.80849" lon="7.03851">
        <ele>1318.7</ele>
        <time>2019-12-30T13:12:07Z</time>
      </trkpt>
      <trkpt lat="43.80849" lon="7.03851">
        <ele>1318.7</ele>
        <time>2019-12-30T13:12:08Z</time>
      </trkpt>
      <trkpt lat="43.80849" lon="7.03851">
        <ele>1318.7</ele>
        <time>2019-12-30T13:12:09Z</time>
      </trkpt>
      <trkpt lat="43.80849" lon="7.03851">
        <ele>1318.7</ele>
        <time>2019-12-30T13:12:10Z</time>
      </trkpt>
      <trkpt lat="43.80849" lon="7.03851">
        <ele>1318.7</ele>
        <time>2019-12-30T13:12:11Z</time>
      </trkpt>
      <trkpt lat="43.80849" lon="7.03851">
        <ele>1318.8</ele>
        <time>2019-12-30T13:12:12Z</time>
      </trkpt>
      <trkpt lat="43.80849" lon="7.03851">
        <ele>1318.8</ele>
        <time>2019-12-30T13:12:13Z</time>
      </trkpt>
      <trkpt lat="43.80849" lon="7.03851">
        <ele>1318.8</ele>
        <time>2019-12-30T13:12:14Z</time>
      </trkpt>
      <trkpt lat="43.80849" lon="7.03851">
        <ele>1318.8</ele>
        <time>2019-12-30T13:12:15Z</time>
      </trkpt>
      <trkpt lat="43.80849" lon="7.03851">
        <ele>1318.8</ele>
        <time>2019-12-30T13:12:16Z</time>
      </trkpt>
      <trkpt lat="43.80848" lon="7.03851">
        <ele>1318.8</ele>
        <time>2019-12-30T13:12:17Z</time>
      </trkpt>
      <trkpt lat="43.80848" lon="7.03851">
        <ele>1318.8</ele>
        <time>2019-12-30T13:12:18Z</time>
      </trkpt>
      <trkpt lat="43.80848" lon="7.03851">
        <ele>1318.8</ele>
        <time>2019-12-30T13:12:19Z</time>
      </trkpt>
      <trkpt lat="43.80848" lon="7.03851">
        <ele>1318.9</ele>
        <time>2019-12-30T13:12:20Z</time>
      </trkpt>
      <trkpt lat="43.80848" lon="7.03851">
        <ele>1318.9</ele>
        <time>2019-12-30T13:12:21Z</time>
      </trkpt>
      <trkpt lat="43.80848" lon="7.03851">
        <ele>1318.9</ele>
        <time>2019-12-30T13:12:22Z</time>
      </trkpt>
      <trkpt lat="43.80848" lon="7.03851">
        <ele>1318.9</ele>
        <time>2019-12-30T13:12:23Z</time>
      </trkpt>
      <trkpt lat="43.80848" lon="7.03851">
        <ele>1318.9</ele>
        <time>2019-12-30T13:12:24Z</time>
      </trkpt>
      <trkpt lat="43.80848" lon="7.03851">
        <ele>1318.9</ele>
        <time>2019-12-30T13:12:25Z</time>
      </trkpt>
      <trkpt lat="43.80848" lon="7.03852">
        <ele>1318.9</ele>
        <time>2019-12-30T13:12:26Z</time>
      </trkpt>
      <trkpt lat="43.80848" lon="7.03852">
        <ele>1319</ele>
        <time>2019-12-30T13:12:27Z</time>
      </trkpt>
      <trkpt lat="43.80848" lon="7.03852">
        <ele>1319</ele>
        <time>2019-12-30T13:12:28Z</time>
      </trkpt>
      <trkpt lat="43.80848" lon="7.03852">
        <ele>1319</ele>
        <time>2019-12-30T13:12:29Z</time>
      </trkpt>
      <trkpt lat="43.80848" lon="7.03852">
        <ele>1319</ele>
        <time>2019-12-30T13:12:30Z</time>
      </trkpt>
      <trkpt lat="43.80848" lon="7.03852">
        <ele>1319</ele>
        <time>2019-12-30T13:12:31Z</time>
      </trkpt>
      <trkpt lat="43.80848" lon="7.03852">
        <ele>1319</ele>
        <time>2019-12-30T13:12:32Z</time>
      </trkpt>
      <trkpt lat="43.80848" lon="7.03852">
        <ele>1319</ele>
        <time>2019-12-30T13:12:33Z</time>
      </trkpt>
      <trkpt lat="43.80848" lon="7.03852">
        <ele>1319</ele>
        <time>2019-12-30T13:12:34Z</time>
      </trkpt>
      <trkpt lat="43.80848" lon="7.03852">
        <ele>1319.1</ele>
        <time>2019-12-30T13:12:35Z</time>
      </trkpt>
      <trkpt lat="43.80848" lon="7.03852">
        <ele>1319.1</ele>
        <time>2019-12-30T13:12:36Z</time>
      </trkpt>
      <trkpt lat="43.80848" lon="7.03852">
        <ele>1319.1</ele>
        <time>2019-12-30T13:12:37Z</time>
      </trkpt>
      <trkpt lat="43.80848" lon="7.03852">
        <ele>1319.1</ele>
        <time>2019-12-30T13:12:38Z</time>
      </trkpt>
      <trkpt lat="43.80848" lon="7.03852">
        <ele>1319.1</ele>
        <time>2019-12-30T13:12:39Z</time>
      </trkpt>
      <trkpt lat="43.80848" lon="7.03852">
        <ele>1319.1</ele>
        <time>2019-12-30T13:12:40Z</time>
      </trkpt>
      <trkpt lat="43.80848" lon="7.03852">
        <ele>1319.1</ele>
        <time>2019-12-30T13:12:41Z</time>
      </trkpt>
      <trkpt lat="43.80847" lon="7.03852">
        <ele>1319.1</ele>
        <time>2019-12-30T13:12:42Z</time>
      </trkpt>
      <trkpt lat="43.80847" lon="7.03852">
        <ele>1319.1</ele>
        <time>2019-12-30T13:12:43Z</time>
      </trkpt>
      <trkpt lat="43.80847" lon="7.03852">
        <ele>1319.1</ele>
        <time>2019-12-30T13:12:44Z</time>
      </trkpt>
      <trkpt lat="43.80847" lon="7.03852">
        <ele>1319.1</ele>
        <time>2019-12-30T13:12:45Z</time>
      </trkpt>
      <trkpt lat="43.80847" lon="7.03852">
        <ele>1319.1</ele>
        <time>2019-12-30T13:12:46Z</time>
      </trkpt>
      <trkpt lat="43.80847" lon="7.03852">
        <ele>1319.1</ele>
        <time>2019-12-30T13:12:47Z</time>
      </trkpt>
      <trkpt lat="43.80848" lon="7.03852">
        <ele>1319.1</ele>
        <time>2019-12-30T13:12:48Z</time>
      </trkpt>
      <trkpt lat="43.80848" lon="7.03852">
        <ele>1319.1</ele>
        <time>2019-12-30T13:12:49Z</time>
      </trkpt>
      <trkpt lat="43.80848" lon="7.03852">
        <ele>1319.1</ele>
        <time>2019-12-30T13:12:50Z</time>
      </trkpt>
      <trkpt lat="43.80848" lon="7.03852">
        <ele>1319.1</ele>
        <time>2019-12-30T13:12:51Z</time>
      </trkpt>
      <trkpt lat="43.80848" lon="7.03852">
        <ele>1319.1</ele>
        <time>2019-12-30T13:12:52Z</time>
      </trkpt>
      <trkpt lat="43.80848" lon="7.03852">
        <ele>1319.1</ele>
        <time>2019-12-30T13:12:53Z</time>
      </trkpt>
      <trkpt lat="43.80848" lon="7.03852">
        <ele>1319.1</ele>
        <time>2019-12-30T13:12:54Z</time>
      </trkpt>
      <trkpt lat="43.80848" lon="7.03852">
        <ele>1319.1</ele>
        <time>2019-12-30T13:12:55Z</time>
      </trkpt>
      <trkpt lat="43.80848" lon="7.03852">
        <ele>1319.1</ele>
        <time>2019-12-30T13:12:56Z</time>
      </trkpt>
      <trkpt lat="43.80848" lon="7.03852">
        <ele>1319.1</ele>
        <time>2019-12-30T13:12:57Z</time>
      </trkpt>
      <trkpt lat="43.80848" lon="7.03852">
        <ele>1319.1</ele>
        <time>2019-12-30T13:12:58Z</time>
      </trkpt>
      <trkpt lat="43.80848" lon="7.03852">
        <ele>1319.1</ele>
        <time>2019-12-30T13:12:59Z</time>
      </trkpt>
      <trkpt lat="43.80848" lon="7.03852">
        <ele>1319.1</ele>
        <time>2019-12-30T13:13:00Z</time>
      </trkpt>
      <trkpt lat="43.80848" lon="7.03852">
        <ele>1319.1</ele>
        <time>2019-12-30T13:13:01Z</time>
      </trkpt>
      <trkpt lat="43.80848" lon="7.03852">
        <ele>1319.1</ele>
        <time>2019-12-30T13:13:02Z</time>
      </trkpt>
      <trkpt lat="43.80848" lon="7.03852">
        <ele>1319.1</ele>
        <time>2019-12-30T13:13:03Z</time>
      </trkpt>
      <trkpt lat="43.80848" lon="7.03852">
        <ele>1319.1</ele>
        <time>2019-12-30T13:13:04Z</time>
      </trkpt>
      <trkpt lat="43.80848" lon="7.03852">
        <ele>1319.2</ele>
        <time>2019-12-30T13:13:05Z</time>
      </trkpt>
      <trkpt lat="43.80848" lon="7.03852">
        <ele>1319.2</ele>
        <time>2019-12-30T13:13:06Z</time>
      </trkpt>
      <trkpt lat="43.80848" lon="7.03852">
        <ele>1319.2</ele>
        <time>2019-12-30T13:13:07Z</time>
      </trkpt>
      <trkpt lat="43.80848" lon="7.03852">
        <ele>1319.2</ele>
        <time>2019-12-30T13:13:08Z</time>
      </trkpt>
      <trkpt lat="43.80848" lon="7.03852">
        <ele>1319.2</ele>
        <time>2019-12-30T13:13:09Z</time>
      </trkpt>
      <trkpt lat="43.80848" lon="7.03852">
        <ele>1319.2</ele>
        <time>2019-12-30T13:13:10Z</time>
      </trkpt>
      <trkpt lat="43.80848" lon="7.03852">
        <ele>1319.2</ele>
        <time>2019-12-30T13:13:11Z</time>
      </trkpt>
      <trkpt lat="43.80848" lon="7.03852">
        <ele>1319.2</ele>
        <time>2019-12-30T13:13:12Z</time>
      </trkpt>
      <trkpt lat="43.80848" lon="7.03852">
        <ele>1319.2</ele>
        <time>2019-12-30T13:13:13Z</time>
      </trkpt>
      <trkpt lat="43.80848" lon="7.03852">
        <ele>1319.2</ele>
        <time>2019-12-30T13:13:14Z</time>
      </trkpt>
      <trkpt lat="43.80848" lon="7.03852">
        <ele>1319.3</ele>
        <time>2019-12-30T13:13:15Z</time>
      </trkpt>
      <trkpt lat="43.80848" lon="7.03852">
        <ele>1319.3</ele>
        <time>2019-12-30T13:13:16Z</time>
      </trkpt>
      <trkpt lat="43.80848" lon="7.03852">
        <ele>1319.3</ele>
        <time>2019-12-30T13:13:17Z</time>
      </trkpt>
      <trkpt lat="43.80848" lon="7.03852">
        <ele>1319.3</ele>
        <time>2019-12-30T13:13:18Z</time>
      </trkpt>
      <trkpt lat="43.80848" lon="7.03852">
        <ele>1319.3</ele>
        <time>2019-12-30T13:13:19Z</time>
      </trkpt>
      <trkpt lat="43.80848" lon="7.03852">
        <ele>1319.3</ele>
        <time>2019-12-30T13:13:20Z</time>
      </trkpt>
      <trkpt lat="43.80847" lon="7.03852">
        <ele>1319.3</ele>
        <time>2019-12-30T13:13:21Z</time>
      </trkpt>
      <trkpt lat="43.80847" lon="7.03852">
        <ele>1319.4</ele>
        <time>2019-12-30T13:13:22Z</time>
      </trkpt>
      <trkpt lat="43.80847" lon="7.03852">
        <ele>1319.4</ele>
        <time>2019-12-30T13:13:23Z</time>
      </trkpt>
      <trkpt lat="43.80847" lon="7.03853">
        <ele>1319.5</ele>
        <time>2019-12-30T13:13:24Z</time>
      </trkpt>
      <trkpt lat="43.80846" lon="7.03854">
        <ele>1319.7</ele>
        <time>2019-12-30T13:13:25Z</time>
      </trkpt>
      <trkpt lat="43.80846" lon="7.03856">
        <ele>1319.9</ele>
        <time>2019-12-30T13:13:26Z</time>
      </trkpt>
      <trkpt lat="43.80845" lon="7.03857">
        <ele>1320.1</ele>
        <time>2019-12-30T13:13:27Z</time>
      </trkpt>
      <trkpt lat="43.80844" lon="7.03859">
        <ele>1320.4</ele>
        <time>2019-12-30T13:13:28Z</time>
      </trkpt>
      <trkpt lat="43.80843" lon="7.03861">
        <ele>1320.7</ele>
        <time>2019-12-30T13:13:29Z</time>
      </trkpt>
      <trkpt lat="43.80843" lon="7.03863">
        <ele>1320.9</ele>
        <time>2019-12-30T13:13:30Z</time>
      </trkpt>
      <trkpt lat="43.80842" lon="7.03866">
        <ele>1321</ele>
        <time>2019-12-30T13:13:31Z</time>
      </trkpt>
      <trkpt lat="43.80841" lon="7.03868">
        <ele>1321.1</ele>
        <time>2019-12-30T13:13:32Z</time>
      </trkpt>
      <trkpt lat="43.8084" lon="7.03871">
        <ele>1321.2</ele>
        <time>2019-12-30T13:13:33Z</time>
      </trkpt>
      <trkpt lat="43.80839" lon="7.03873">
        <ele>1321.3</ele>
        <time>2019-12-30T13:13:34Z</time>
      </trkpt>
      <trkpt lat="43.80839" lon="7.03875">
        <ele>1321.4</ele>
        <time>2019-12-30T13:13:35Z</time>
      </trkpt>
      <trkpt lat="43.80838" lon="7.03877">
        <ele>1321.6</ele>
        <time>2019-12-30T13:13:36Z</time>
      </trkpt>
      <trkpt lat="43.80836" lon="7.0388">
        <ele>1321.8</ele>
        <time>2019-12-30T13:13:37Z</time>
      </trkpt>
      <trkpt lat="43.80835" lon="7.03882">
        <ele>1321.9</ele>
        <time>2019-12-30T13:13:38Z</time>
      </trkpt>
      <trkpt lat="43.80834" lon="7.03883">
        <ele>1322</ele>
        <time>2019-12-30T13:13:39Z</time>
      </trkpt>
      <trkpt lat="43.80833" lon="7.03884">
        <ele>1322.1</ele>
        <time>2019-12-30T13:13:40Z</time>
      </trkpt>
      <trkpt lat="43.80833" lon="7.03884">
        <ele>1322.1</ele>
        <time>2019-12-30T13:13:41Z</time>
      </trkpt>
      <trkpt lat="43.80832" lon="7.03884">
        <ele>1322.1</ele>
        <time>2019-12-30T13:13:42Z</time>
      </trkpt>
      <trkpt lat="43.80832" lon="7.03884">
        <ele>1322.1</ele>
        <time>2019-12-30T13:13:43Z</time>
      </trkpt>
      <trkpt lat="43.80832" lon="7.03884">
        <ele>1322.1</ele>
        <time>2019-12-30T13:13:44Z</time>
      </trkpt>
      <trkpt lat="43.80832" lon="7.03884">
        <ele>1322.1</ele>
        <time>2019-12-30T13:13:45Z</time>
      </trkpt>
      <trkpt lat="43.80832" lon="7.03885">
        <ele>1322.1</ele>
        <time>2019-12-30T13:13:46Z</time>
      </trkpt>
      <trkpt lat="43.80832" lon="7.03885">
        <ele>1322.1</ele>
        <time>2019-12-30T13:13:47Z</time>
      </trkpt>
      <trkpt lat="43.80832" lon="7.03885">
        <ele>1322.1</ele>
        <time>2019-12-30T13:13:48Z</time>
      </trkpt>
      <trkpt lat="43.80832" lon="7.03885">
        <ele>1322.1</ele>
        <time>2019-12-30T13:13:49Z</time>
      </trkpt>
      <trkpt lat="43.80832" lon="7.03885">
        <ele>1322.1</ele>
        <time>2019-12-30T13:13:50Z</time>
      </trkpt>
      <trkpt lat="43.80832" lon="7.03885">
        <ele>1322.1</ele>
        <time>2019-12-30T13:13:51Z</time>
      </trkpt>
      <trkpt lat="43.80832" lon="7.03885">
        <ele>1322.1</ele>
        <time>2019-12-30T13:13:52Z</time>
      </trkpt>
      <trkpt lat="43.80832" lon="7.03885">
        <ele>1322.1</ele>
        <time>2019-12-30T13:13:53Z</time>
      </trkpt>
      <trkpt lat="43.80832" lon="7.03885">
        <ele>1322.1</ele>
        <time>2019-12-30T13:13:54Z</time>
      </trkpt>
      <trkpt lat="43.80832" lon="7.03885">
        <ele>1322.1</ele>
        <time>2019-12-30T13:13:55Z</time>
      </trkpt>
      <trkpt lat="43.80832" lon="7.03885">
        <ele>1322.1</ele>
        <time>2019-12-30T13:13:56Z</time>
      </trkpt>
      <trkpt lat="43.80832" lon="7.03885">
        <ele>1322.1</ele>
        <time>2019-12-30T13:13:57Z</time>
      </trkpt>
      <trkpt lat="43.80832" lon="7.03885">
        <ele>1322.1</ele>
        <time>2019-12-30T13:13:58Z</time>
      </trkpt>
      <trkpt lat="43.80832" lon="7.03885">
        <ele>1322.1</ele>
        <time>2019-12-30T13:13:59Z</time>
      </trkpt>
      <trkpt lat="43.80832" lon="7.03885">
        <ele>1322.1</ele>
        <time>2019-12-30T13:14:00Z</time>
      </trkpt>
      <trkpt lat="43.80832" lon="7.03885">
        <ele>1322.1</ele>
        <time>2019-12-30T13:14:01Z</time>
      </trkpt>
      <trkpt lat="43.80832" lon="7.03885">
        <ele>1322.1</ele>
        <time>2019-12-30T13:14:02Z</time>
      </trkpt>
      <trkpt lat="43.80832" lon="7.03885">
        <ele>1322.1</ele>
        <time>2019-12-30T13:14:03Z</time>
      </trkpt>
      <trkpt lat="43.80832" lon="7.03885">
        <ele>1322.1</ele>
        <time>2019-12-30T13:14:04Z</time>
      </trkpt>
      <trkpt lat="43.80832" lon="7.03885">
        <ele>1322.1</ele>
        <time>2019-12-30T13:14:05Z</time>
      </trkpt>
      <trkpt lat="43.80832" lon="7.03885">
        <ele>1322.1</ele>
        <time>2019-12-30T13:14:06Z</time>
      </trkpt>
      <trkpt lat="43.80832" lon="7.03885">
        <ele>1322.1</ele>
        <time>2019-12-30T13:14:07Z</time>
      </trkpt>
      <trkpt lat="43.80832" lon="7.03885">
        <ele>1322.1</ele>
        <time>2019-12-30T13:14:08Z</time>
      </trkpt>
      <trkpt lat="43.80832" lon="7.03885">
        <ele>1322.1</ele>
        <time>2019-12-30T13:14:09Z</time>
      </trkpt>
      <trkpt lat="43.80832" lon="7.03885">
        <ele>1322.1</ele>
        <time>2019-12-30T13:14:10Z</time>
      </trkpt>
      <trkpt lat="43.80832" lon="7.03885">
        <ele>1322.1</ele>
        <time>2019-12-30T13:14:11Z</time>
      </trkpt>
      <trkpt lat="43.80832" lon="7.03885">
        <ele>1322.1</ele>
        <time>2019-12-30T13:14:12Z</time>
      </trkpt>
      <trkpt lat="43.80832" lon="7.03885">
        <ele>1322.1</ele>
        <time>2019-12-30T13:14:13Z</time>
      </trkpt>
      <trkpt lat="43.80832" lon="7.03885">
        <ele>1322.1</ele>
        <time>2019-12-30T13:14:14Z</time>
      </trkpt>
      <trkpt lat="43.80832" lon="7.03885">
        <ele>1322.1</ele>
        <time>2019-12-30T13:14:15Z</time>
      </trkpt>
      <trkpt lat="43.80832" lon="7.03885">
        <ele>1322.1</ele>
        <time>2019-12-30T13:14:16Z</time>
      </trkpt>
      <trkpt lat="43.80832" lon="7.03885">
        <ele>1322.1</ele>
        <time>2019-12-30T13:14:17Z</time>
      </trkpt>
      <trkpt lat="43.80832" lon="7.03885">
        <ele>1322.1</ele>
        <time>2019-12-30T13:14:18Z</time>
      </trkpt>
      <trkpt lat="43.80832" lon="7.03885">
        <ele>1322.1</ele>
        <time>2019-12-30T13:14:19Z</time>
      </trkpt>
      <trkpt lat="43.80831" lon="7.03885">
        <ele>1322.1</ele>
        <time>2019-12-30T13:14:20Z</time>
      </trkpt>
      <trkpt lat="43.80831" lon="7.03885">
        <ele>1322.1</ele>
        <time>2019-12-30T13:14:21Z</time>
      </trkpt>
      <trkpt lat="43.80831" lon="7.03885">
        <ele>1322.1</ele>
        <time>2019-12-30T13:14:22Z</time>
      </trkpt>
      <trkpt lat="43.80831" lon="7.03886">
        <ele>1322.1</ele>
        <time>2019-12-30T13:14:23Z</time>
      </trkpt>
      <trkpt lat="43.80831" lon="7.03886">
        <ele>1322.1</ele>
        <time>2019-12-30T13:14:24Z</time>
      </trkpt>
      <trkpt lat="43.80831" lon="7.03886">
        <ele>1322.1</ele>
        <time>2019-12-30T13:14:25Z</time>
      </trkpt>
      <trkpt lat="43.8083" lon="7.03887">
        <ele>1322.1</ele>
        <time>2019-12-30T13:14:26Z</time>
      </trkpt>
      <trkpt lat="43.8083" lon="7.03887">
        <ele>1322.1</ele>
        <time>2019-12-30T13:14:27Z</time>
      </trkpt>
      <trkpt lat="43.8083" lon="7.03887">
        <ele>1322.1</ele>
        <time>2019-12-30T13:14:28Z</time>
      </trkpt>
      <trkpt lat="43.8083" lon="7.03887">
        <ele>1322.1</ele>
        <time>2019-12-30T13:14:29Z</time>
      </trkpt>
      <trkpt lat="43.8083" lon="7.03888">
        <ele>1322.1</ele>
        <time>2019-12-30T13:14:30Z</time>
      </trkpt>
      <trkpt lat="43.8083" lon="7.03888">
        <ele>1322.1</ele>
        <time>2019-12-30T13:14:31Z</time>
      </trkpt>
      <trkpt lat="43.8083" lon="7.03888">
        <ele>1322.1</ele>
        <time>2019-12-30T13:14:32Z</time>
      </trkpt>
      <trkpt lat="43.8083" lon="7.03888">
        <ele>1322.1</ele>
        <time>2019-12-30T13:14:33Z</time>
      </trkpt>
      <trkpt lat="43.8083" lon="7.03888">
        <ele>1322.1</ele>
        <time>2019-12-30T13:14:34Z</time>
      </trkpt>
      <trkpt lat="43.8083" lon="7.03888">
        <ele>1322.1</ele>
        <time>2019-12-30T13:14:35Z</time>
      </trkpt>
      <trkpt lat="43.8083" lon="7.03888">
        <ele>1322.1</ele>
        <time>2019-12-30T13:14:36Z</time>
      </trkpt>
      <trkpt lat="43.8083" lon="7.03888">
        <ele>1322.1</ele>
        <time>2019-12-30T13:14:37Z</time>
      </trkpt>
      <trkpt lat="43.8083" lon="7.03888">
        <ele>1322.1</ele>
        <time>2019-12-30T13:14:38Z</time>
      </trkpt>
      <trkpt lat="43.8083" lon="7.03887">
        <ele>1322.1</ele>
        <time>2019-12-30T13:14:39Z</time>
      </trkpt>
      <trkpt lat="43.8083" lon="7.03887">
        <ele>1322.1</ele>
        <time>2019-12-30T13:14:40Z</time>
      </trkpt>
      <trkpt lat="43.8083" lon="7.03887">
        <ele>1322.1</ele>
        <time>2019-12-30T13:14:41Z</time>
      </trkpt>
      <trkpt lat="43.8083" lon="7.03887">
        <ele>1322.1</ele>
        <time>2019-12-30T13:14:42Z</time>
      </trkpt>
      <trkpt lat="43.8083" lon="7.03887">
        <ele>1322.1</ele>
        <time>2019-12-30T13:14:43Z</time>
      </trkpt>
      <trkpt lat="43.8083" lon="7.03887">
        <ele>1322.1</ele>
        <time>2019-12-30T13:14:44Z</time>
      </trkpt>
      <trkpt lat="43.8083" lon="7.03887">
        <ele>1322.1</ele>
        <time>2019-12-30T13:14:45Z</time>
      </trkpt>
      <trkpt lat="43.8083" lon="7.03887">
        <ele>1322.1</ele>
        <time>2019-12-30T13:14:46Z</time>
      </trkpt>
      <trkpt lat="43.8083" lon="7.03887">
        <ele>1322.1</ele>
        <time>2019-12-30T13:14:47Z</time>
      </trkpt>
      <trkpt lat="43.8083" lon="7.03887">
        <ele>1322.1</ele>
        <time>2019-12-30T13:14:48Z</time>
      </trkpt>
      <trkpt lat="43.8083" lon="7.03887">
        <ele>1322.1</ele>
        <time>2019-12-30T13:14:49Z</time>
      </trkpt>
      <trkpt lat="43.8083" lon="7.03887">
        <ele>1322.1</ele>
        <time>2019-12-30T13:14:50Z</time>
      </trkpt>
      <trkpt lat="43.8083" lon="7.03887">
        <ele>1322.1</ele>
        <time>2019-12-30T13:14:51Z</time>
      </trkpt>
      <trkpt lat="43.8083" lon="7.03887">
        <ele>1322.1</ele>
        <time>2019-12-30T13:14:52Z</time>
      </trkpt>
      <trkpt lat="43.8083" lon="7.03887">
        <ele>1322.1</ele>
        <time>2019-12-30T13:14:53Z</time>
      </trkpt>
      <trkpt lat="43.8083" lon="7.03887">
        <ele>1322.1</ele>
        <time>2019-12-30T13:14:54Z</time>
      </trkpt>
      <trkpt lat="43.8083" lon="7.03887">
        <ele>1322.1</ele>
        <time>2019-12-30T13:14:55Z</time>
      </trkpt>
      <trkpt lat="43.8083" lon="7.03887">
        <ele>1322.1</ele>
        <time>2019-12-30T13:14:56Z</time>
      </trkpt>
      <trkpt lat="43.8083" lon="7.03887">
        <ele>1322.1</ele>
        <time>2019-12-30T13:14:57Z</time>
      </trkpt>
      <trkpt lat="43.8083" lon="7.03887">
        <ele>1322.1</ele>
        <time>2019-12-30T13:14:58Z</time>
      </trkpt>
      <trkpt lat="43.8083" lon="7.03887">
        <ele>1322.1</ele>
        <time>2019-12-30T13:14:59Z</time>
      </trkpt>
      <trkpt lat="43.8083" lon="7.03887">
        <ele>1322.1</ele>
        <time>2019-12-30T13:15:00Z</time>
      </trkpt>
      <trkpt lat="43.8083" lon="7.03887">
        <ele>1322.1</ele>
        <time>2019-12-30T13:15:01Z</time>
      </trkpt>
      <trkpt lat="43.8083" lon="7.03887">
        <ele>1322.1</ele>
        <time>2019-12-30T13:15:02Z</time>
      </trkpt>
      <trkpt lat="43.8083" lon="7.03887">
        <ele>1322.1</ele>
        <time>2019-12-30T13:15:03Z</time>
      </trkpt>
      <trkpt lat="43.8083" lon="7.03887">
        <ele>1322.1</ele>
        <time>2019-12-30T13:15:04Z</time>
      </trkpt>
      <trkpt lat="43.8083" lon="7.03887">
        <ele>1322.1</ele>
        <time>2019-12-30T13:15:05Z</time>
      </trkpt>
      <trkpt lat="43.8083" lon="7.03887">
        <ele>1322.1</ele>
        <time>2019-12-30T13:15:06Z</time>
      </trkpt>
      <trkpt lat="43.8083" lon="7.03887">
        <ele>1322.1</ele>
        <time>2019-12-30T13:15:07Z</time>
      </trkpt>
      <trkpt lat="43.8083" lon="7.03887">
        <ele>1322.1</ele>
        <time>2019-12-30T13:15:08Z</time>
      </trkpt>
      <trkpt lat="43.8083" lon="7.03887">
        <ele>1322.1</ele>
        <time>2019-12-30T13:15:09Z</time>
      </trkpt>
      <trkpt lat="43.8083" lon="7.03887">
        <ele>1322.1</ele>
        <time>2019-12-30T13:15:10Z</time>
      </trkpt>
      <trkpt lat="43.8083" lon="7.03887">
        <ele>1322.1</ele>
        <time>2019-12-30T13:15:11Z</time>
      </trkpt>
      <trkpt lat="43.8083" lon="7.03887">
        <ele>1322.1</ele>
        <time>2019-12-30T13:15:12Z</time>
      </trkpt>
      <trkpt lat="43.8083" lon="7.03887">
        <ele>1322.1</ele>
        <time>2019-12-30T13:15:13Z</time>
      </trkpt>
      <trkpt lat="43.8083" lon="7.03887">
        <ele>1322.1</ele>
        <time>2019-12-30T13:15:14Z</time>
      </trkpt>
      <trkpt lat="43.80831" lon="7.03887">
        <ele>1322.1</ele>
        <time>2019-12-30T13:15:15Z</time>
      </trkpt>
      <trkpt lat="43.80831" lon="7.03887">
        <ele>1322.1</ele>
        <time>2019-12-30T13:15:16Z</time>
      </trkpt>
      <trkpt lat="43.80831" lon="7.03887">
        <ele>1322.1</ele>
        <time>2019-12-30T13:15:17Z</time>
      </trkpt>
      <trkpt lat="43.80831" lon="7.03887">
        <ele>1322.1</ele>
        <time>2019-12-30T13:15:18Z</time>
      </trkpt>
      <trkpt lat="43.80831" lon="7.03887">
        <ele>1322.1</ele>
        <time>2019-12-30T13:15:19Z</time>
      </trkpt>
      <trkpt lat="43.80831" lon="7.03887">
        <ele>1322.1</ele>
        <time>2019-12-30T13:15:20Z</time>
      </trkpt>
      <trkpt lat="43.80831" lon="7.03887">
        <ele>1322.2</ele>
        <time>2019-12-30T13:15:21Z</time>
      </trkpt>
      <trkpt lat="43.80831" lon="7.03887">
        <ele>1322.2</ele>
        <time>2019-12-30T13:15:22Z</time>
      </trkpt>
      <trkpt lat="43.80831" lon="7.03887">
        <ele>1322.2</ele>
        <time>2019-12-30T13:15:23Z</time>
      </trkpt>
      <trkpt lat="43.80831" lon="7.03887">
        <ele>1322.2</ele>
        <time>2019-12-30T13:15:24Z</time>
      </trkpt>
      <trkpt lat="43.80831" lon="7.03887">
        <ele>1322.2</ele>
        <time>2019-12-30T13:15:25Z</time>
      </trkpt>
      <trkpt lat="43.80831" lon="7.03887">
        <ele>1322.2</ele>
        <time>2019-12-30T13:15:26Z</time>
      </trkpt>
      <trkpt lat="43.80831" lon="7.03887">
        <ele>1322.2</ele>
        <time>2019-12-30T13:15:27Z</time>
      </trkpt>
      <trkpt lat="43.80831" lon="7.03887">
        <ele>1322.2</ele>
        <time>2019-12-30T13:15:28Z</time>
      </trkpt>
      <trkpt lat="43.80831" lon="7.03887">
        <ele>1322.2</ele>
        <time>2019-12-30T13:15:29Z</time>
      </trkpt>
      <trkpt lat="43.80831" lon="7.03887">
        <ele>1322.2</ele>
        <time>2019-12-30T13:15:30Z</time>
      </trkpt>
      <trkpt lat="43.80831" lon="7.03887">
        <ele>1322.2</ele>
        <time>2019-12-30T13:15:31Z</time>
      </trkpt>
      <trkpt lat="43.80831" lon="7.03887">
        <ele>1322.2</ele>
        <time>2019-12-30T13:15:32Z</time>
      </trkpt>
      <trkpt lat="43.80831" lon="7.03887">
        <ele>1322.2</ele>
        <time>2019-12-30T13:15:33Z</time>
      </trkpt>
      <trkpt lat="43.80831" lon="7.03887">
        <ele>1322.2</ele>
        <time>2019-12-30T13:15:34Z</time>
      </trkpt>
      <trkpt lat="43.80831" lon="7.03887">
        <ele>1322.2</ele>
        <time>2019-12-30T13:15:35Z</time>
      </trkpt>
      <trkpt lat="43.80831" lon="7.03887">
        <ele>1322.2</ele>
        <time>2019-12-30T13:15:36Z</time>
      </trkpt>
      <trkpt lat="43.80831" lon="7.03887">
        <ele>1322.2</ele>
        <time>2019-12-30T13:15:37Z</time>
      </trkpt>
      <trkpt lat="43.80831" lon="7.03887">
        <ele>1322.2</ele>
        <time>2019-12-30T13:15:38Z</time>
      </trkpt>
      <trkpt lat="43.80831" lon="7.03887">
        <ele>1322.2</ele>
        <time>2019-12-30T13:15:39Z</time>
      </trkpt>
      <trkpt lat="43.80831" lon="7.03887">
        <ele>1322.2</ele>
        <time>2019-12-30T13:15:40Z</time>
      </trkpt>
      <trkpt lat="43.80831" lon="7.03887">
        <ele>1322.2</ele>
        <time>2019-12-30T13:15:41Z</time>
      </trkpt>
      <trkpt lat="43.80831" lon="7.03887">
        <ele>1322.2</ele>
        <time>2019-12-30T13:15:42Z</time>
      </trkpt>
      <trkpt lat="43.80831" lon="7.03887">
        <ele>1322.2</ele>
        <time>2019-12-30T13:15:43Z</time>
      </trkpt>
      <trkpt lat="43.80831" lon="7.03887">
        <ele>1322.2</ele>
        <time>2019-12-30T13:15:44Z</time>
      </trkpt>
      <trkpt lat="43.80831" lon="7.03887">
        <ele>1322.2</ele>
        <time>2019-12-30T13:15:45Z</time>
      </trkpt>
      <trkpt lat="43.80831" lon="7.03887">
        <ele>1322.2</ele>
        <time>2019-12-30T13:15:46Z</time>
      </trkpt>
      <trkpt lat="43.80831" lon="7.03887">
        <ele>1322.2</ele>
        <time>2019-12-30T13:15:47Z</time>
      </trkpt>
      <trkpt lat="43.80831" lon="7.03887">
        <ele>1322.2</ele>
        <time>2019-12-30T13:15:48Z</time>
      </trkpt>
      <trkpt lat="43.80831" lon="7.03887">
        <ele>1322.2</ele>
        <time>2019-12-30T13:15:49Z</time>
      </trkpt>
      <trkpt lat="43.80831" lon="7.03887">
        <ele>1322.2</ele>
        <time>2019-12-30T13:15:50Z</time>
      </trkpt>
      <trkpt lat="43.80831" lon="7.03887">
        <ele>1322.2</ele>
        <time>2019-12-30T13:15:51Z</time>
      </trkpt>
      <trkpt lat="43.80831" lon="7.03887">
        <ele>1322.2</ele>
        <time>2019-12-30T13:15:52Z</time>
      </trkpt>
      <trkpt lat="43.80831" lon="7.03887">
        <ele>1322.2</ele>
        <time>2019-12-30T13:15:53Z</time>
      </trkpt>
      <trkpt lat="43.80831" lon="7.03887">
        <ele>1322.2</ele>
        <time>2019-12-30T13:15:54Z</time>
      </trkpt>
      <trkpt lat="43.80831" lon="7.03887">
        <ele>1322.2</ele>
        <time>2019-12-30T13:15:55Z</time>
      </trkpt>
      <trkpt lat="43.80831" lon="7.03887">
        <ele>1322.2</ele>
        <time>2019-12-30T13:15:56Z</time>
      </trkpt>
      <trkpt lat="43.80831" lon="7.03887">
        <ele>1322.2</ele>
        <time>2019-12-30T13:15:57Z</time>
      </trkpt>
      <trkpt lat="43.80831" lon="7.03887">
        <ele>1322.2</ele>
        <time>2019-12-30T13:15:58Z</time>
      </trkpt>
      <trkpt lat="43.80831" lon="7.03887">
        <ele>1322.2</ele>
        <time>2019-12-30T13:15:59Z</time>
      </trkpt>
      <trkpt lat="43.80831" lon="7.03887">
        <ele>1322.2</ele>
        <time>2019-12-30T13:16:00Z</time>
      </trkpt>
      <trkpt lat="43.80831" lon="7.03887">
        <ele>1322.2</ele>
        <time>2019-12-30T13:16:01Z</time>
      </trkpt>
      <trkpt lat="43.80831" lon="7.03887">
        <ele>1322.2</ele>
        <time>2019-12-30T13:16:02Z</time>
      </trkpt>
      <trkpt lat="43.80831" lon="7.03887">
        <ele>1322.2</ele>
        <time>2019-12-30T13:16:03Z</time>
      </trkpt>
      <trkpt lat="43.80831" lon="7.03887">
        <ele>1322.2</ele>
        <time>2019-12-30T13:16:04Z</time>
      </trkpt>
      <trkpt lat="43.80831" lon="7.03887">
        <ele>1322.2</ele>
        <time>2019-12-30T13:16:05Z</time>
      </trkpt>
      <trkpt lat="43.80831" lon="7.03887">
        <ele>1322.2</ele>
        <time>2019-12-30T13:16:06Z</time>
      </trkpt>
      <trkpt lat="43.80831" lon="7.03887">
        <ele>1322.2</ele>
        <time>2019-12-30T13:16:07Z</time>
      </trkpt>
      <trkpt lat="43.80831" lon="7.03887">
        <ele>1322.2</ele>
        <time>2019-12-30T13:16:08Z</time>
      </trkpt>
      <trkpt lat="43.80831" lon="7.03887">
        <ele>1322.2</ele>
        <time>2019-12-30T13:16:09Z</time>
      </trkpt>
      <trkpt lat="43.80831" lon="7.03887">
        <ele>1322.2</ele>
        <time>2019-12-30T13:16:10Z</time>
      </trkpt>
      <trkpt lat="43.80831" lon="7.03887">
        <ele>1322.2</ele>
        <time>2019-12-30T13:16:11Z</time>
      </trkpt>
      <trkpt lat="43.80831" lon="7.03887">
        <ele>1322.2</ele>
        <time>2019-12-30T13:16:12Z</time>
      </trkpt>
      <trkpt lat="43.80831" lon="7.03887">
        <ele>1322.2</ele>
        <time>2019-12-30T13:16:13Z</time>
      </trkpt>
      <trkpt lat="43.80831" lon="7.03887">
        <ele>1322.2</ele>
        <time>2019-12-30T13:16:14Z</time>
      </trkpt>
      <trkpt lat="43.80831" lon="7.03887">
        <ele>1322.2</ele>
        <time>2019-12-30T13:16:15Z</time>
      </trkpt>
      <trkpt lat="43.80831" lon="7.03887">
        <ele>1322.2</ele>
        <time>2019-12-30T13:16:16Z</time>
      </trkpt>
      <trkpt lat="43.80831" lon="7.03887">
        <ele>1322.2</ele>
        <time>2019-12-30T13:16:17Z</time>
      </trkpt>
      <trkpt lat="43.80831" lon="7.03887">
        <ele>1322.2</ele>
        <time>2019-12-30T13:16:18Z</time>
      </trkpt>
      <trkpt lat="43.80831" lon="7.03887">
        <ele>1322.2</ele>
        <time>2019-12-30T13:16:19Z</time>
      </trkpt>
      <trkpt lat="43.80831" lon="7.03887">
        <ele>1322.2</ele>
        <time>2019-12-30T13:16:20Z</time>
      </trkpt>
      <trkpt lat="43.80831" lon="7.03887">
        <ele>1322.2</ele>
        <time>2019-12-30T13:16:21Z</time>
      </trkpt>
      <trkpt lat="43.80831" lon="7.03887">
        <ele>1322.2</ele>
        <time>2019-12-30T13:16:22Z</time>
      </trkpt>
      <trkpt lat="43.80831" lon="7.03887">
        <ele>1322.2</ele>
        <time>2019-12-30T13:16:23Z</time>
      </trkpt>
      <trkpt lat="43.80831" lon="7.03887">
        <ele>1322.2</ele>
        <time>2019-12-30T13:16:24Z</time>
      </trkpt>
      <trkpt lat="43.80831" lon="7.03887">
        <ele>1322.2</ele>
        <time>2019-12-30T13:16:25Z</time>
      </trkpt>
      <trkpt lat="43.80831" lon="7.03887">
        <ele>1322.2</ele>
        <time>2019-12-30T13:16:26Z</time>
      </trkpt>
      <trkpt lat="43.80831" lon="7.03887">
        <ele>1322.2</ele>
        <time>2019-12-30T13:16:27Z</time>
      </trkpt>
      <trkpt lat="43.80831" lon="7.03887">
        <ele>1322.2</ele>
        <time>2019-12-30T13:16:28Z</time>
      </trkpt>
      <trkpt lat="43.80831" lon="7.03887">
        <ele>1322.2</ele>
        <time>2019-12-30T13:16:29Z</time>
      </trkpt>
      <trkpt lat="43.80831" lon="7.03887">
        <ele>1322.2</ele>
        <time>2019-12-30T13:16:30Z</time>
      </trkpt>
      <trkpt lat="43.80831" lon="7.03887">
        <ele>1322.2</ele>
        <time>2019-12-30T13:16:31Z</time>
      </trkpt>
      <trkpt lat="43.80831" lon="7.03887">
        <ele>1322.2</ele>
        <time>2019-12-30T13:16:32Z</time>
      </trkpt>
      <trkpt lat="43.80831" lon="7.03887">
        <ele>1322.2</ele>
        <time>2019-12-30T13:16:33Z</time>
      </trkpt>
      <trkpt lat="43.80831" lon="7.03887">
        <ele>1322.2</ele>
        <time>2019-12-30T13:16:34Z</time>
      </trkpt>
      <trkpt lat="43.80831" lon="7.03887">
        <ele>1322.2</ele>
        <time>2019-12-30T13:16:35Z</time>
      </trkpt>
      <trkpt lat="43.80831" lon="7.03887">
        <ele>1322.2</ele>
        <time>2019-12-30T13:16:36Z</time>
      </trkpt>
      <trkpt lat="43.80831" lon="7.03887">
        <ele>1322.2</ele>
        <time>2019-12-30T13:16:37Z</time>
      </trkpt>
      <trkpt lat="43.80831" lon="7.03887">
        <ele>1322.2</ele>
        <time>2019-12-30T13:16:38Z</time>
      </trkpt>
      <trkpt lat="43.80831" lon="7.03887">
        <ele>1322.2</ele>
        <time>2019-12-30T13:16:39Z</time>
      </trkpt>
      <trkpt lat="43.80831" lon="7.03887">
        <ele>1322.2</ele>
        <time>2019-12-30T13:16:40Z</time>
      </trkpt>
      <trkpt lat="43.80831" lon="7.03887">
        <ele>1322.2</ele>
        <time>2019-12-30T13:16:41Z</time>
      </trkpt>
      <trkpt lat="43.80831" lon="7.03887">
        <ele>1322.2</ele>
        <time>2019-12-30T13:16:42Z</time>
      </trkpt>
      <trkpt lat="43.80831" lon="7.03887">
        <ele>1322.2</ele>
        <time>2019-12-30T13:16:43Z</time>
      </trkpt>
      <trkpt lat="43.80832" lon="7.03887">
        <ele>1322.2</ele>
        <time>2019-12-30T13:16:44Z</time>
      </trkpt>
      <trkpt lat="43.80832" lon="7.03887">
        <ele>1322.2</ele>
        <time>2019-12-30T13:16:45Z</time>
      </trkpt>
      <trkpt lat="43.80832" lon="7.03887">
        <ele>1322.2</ele>
        <time>2019-12-30T13:16:46Z</time>
      </trkpt>
      <trkpt lat="43.80832" lon="7.03887">
        <ele>1322.2</ele>
        <time>2019-12-30T13:16:47Z</time>
      </trkpt>
      <trkpt lat="43.80832" lon="7.03887">
        <ele>1322.2</ele>
        <time>2019-12-30T13:16:48Z</time>
      </trkpt>
      <trkpt lat="43.80832" lon="7.03887">
        <ele>1322.2</ele>
        <time>2019-12-30T13:16:49Z</time>
      </trkpt>
      <trkpt lat="43.80832" lon="7.03887">
        <ele>1322.1</ele>
        <time>2019-12-30T13:16:50Z</time>
      </trkpt>
      <trkpt lat="43.80832" lon="7.03887">
        <ele>1322.1</ele>
        <time>2019-12-30T13:16:51Z</time>
      </trkpt>
      <trkpt lat="43.80832" lon="7.03887">
        <ele>1322.1</ele>
        <time>2019-12-30T13:16:52Z</time>
      </trkpt>
      <trkpt lat="43.80831" lon="7.03886">
        <ele>1322.1</ele>
        <time>2019-12-30T13:16:53Z</time>
      </trkpt>
      <trkpt lat="43.80831" lon="7.03886">
        <ele>1322.1</ele>
        <time>2019-12-30T13:16:54Z</time>
      </trkpt>
      <trkpt lat="43.80831" lon="7.03886">
        <ele>1322.1</ele>
        <time>2019-12-30T13:16:55Z</time>
      </trkpt>
      <trkpt lat="43.80831" lon="7.03886">
        <ele>1322.1</ele>
        <time>2019-12-30T13:16:56Z</time>
      </trkpt>
      <trkpt lat="43.80831" lon="7.03886">
        <ele>1322.1</ele>
        <time>2019-12-30T13:16:57Z</time>
      </trkpt>
      <trkpt lat="43.80831" lon="7.03886">
        <ele>1322.1</ele>
        <time>2019-12-30T13:16:58Z</time>
      </trkpt>
      <trkpt lat="43.80831" lon="7.03886">
        <ele>1322.1</ele>
        <time>2019-12-30T13:16:59Z</time>
      </trkpt>
      <trkpt lat="43.80831" lon="7.03886">
        <ele>1322.1</ele>
        <time>2019-12-30T13:17:00Z</time>
      </trkpt>
      <trkpt lat="43.80831" lon="7.03886">
        <ele>1322.1</ele>
        <time>2019-12-30T13:17:01Z</time>
      </trkpt>
      <trkpt lat="43.80831" lon="7.03886">
        <ele>1322.1</ele>
        <time>2019-12-30T13:17:02Z</time>
      </trkpt>
      <trkpt lat="43.80831" lon="7.03886">
        <ele>1322.1</ele>
        <time>2019-12-30T13:17:03Z</time>
      </trkpt>
      <trkpt lat="43.80831" lon="7.03886">
        <ele>1322.1</ele>
        <time>2019-12-30T13:17:04Z</time>
      </trkpt>
      <trkpt lat="43.80831" lon="7.03886">
        <ele>1322.1</ele>
        <time>2019-12-30T13:17:05Z</time>
      </trkpt>
      <trkpt lat="43.80831" lon="7.03886">
        <ele>1322.1</ele>
        <time>2019-12-30T13:17:06Z</time>
      </trkpt>
      <trkpt lat="43.80831" lon="7.03886">
        <ele>1322.1</ele>
        <time>2019-12-30T13:17:07Z</time>
      </trkpt>
      <trkpt lat="43.80831" lon="7.03886">
        <ele>1322.1</ele>
        <time>2019-12-30T13:17:08Z</time>
      </trkpt>
      <trkpt lat="43.80831" lon="7.03886">
        <ele>1322.1</ele>
        <time>2019-12-30T13:17:09Z</time>
      </trkpt>
      <trkpt lat="43.80831" lon="7.03886">
        <ele>1322.1</ele>
        <time>2019-12-30T13:17:10Z</time>
      </trkpt>
      <trkpt lat="43.80831" lon="7.03886">
        <ele>1322.1</ele>
        <time>2019-12-30T13:17:11Z</time>
      </trkpt>
      <trkpt lat="43.80831" lon="7.03886">
        <ele>1322.1</ele>
        <time>2019-12-30T13:17:12Z</time>
      </trkpt>
      <trkpt lat="43.80831" lon="7.03886">
        <ele>1322.1</ele>
        <time>2019-12-30T13:17:13Z</time>
      </trkpt>
      <trkpt lat="43.80831" lon="7.03886">
        <ele>1322.1</ele>
        <time>2019-12-30T13:17:14Z</time>
      </trkpt>
      <trkpt lat="43.80831" lon="7.03886">
        <ele>1322.1</ele>
        <time>2019-12-30T13:17:15Z</time>
      </trkpt>
      <trkpt lat="43.80831" lon="7.03886">
        <ele>1322.1</ele>
        <time>2019-12-30T13:17:16Z</time>
      </trkpt>
      <trkpt lat="43.80831" lon="7.03886">
        <ele>1322.1</ele>
        <time>2019-12-30T13:17:17Z</time>
      </trkpt>
      <trkpt lat="43.80831" lon="7.03886">
        <ele>1322.1</ele>
        <time>2019-12-30T13:17:18Z</time>
      </trkpt>
      <trkpt lat="43.80831" lon="7.03886">
        <ele>1322.1</ele>
        <time>2019-12-30T13:17:19Z</time>
      </trkpt>
      <trkpt lat="43.80831" lon="7.03886">
        <ele>1322.1</ele>
        <time>2019-12-30T13:17:20Z</time>
      </trkpt>
      <trkpt lat="43.80831" lon="7.03886">
        <ele>1322</ele>
        <time>2019-12-30T13:17:21Z</time>
      </trkpt>
      <trkpt lat="43.80831" lon="7.03886">
        <ele>1322</ele>
        <time>2019-12-30T13:17:22Z</time>
      </trkpt>
      <trkpt lat="43.80831" lon="7.03886">
        <ele>1322</ele>
        <time>2019-12-30T13:17:23Z</time>
      </trkpt>
      <trkpt lat="43.80831" lon="7.03886">
        <ele>1322</ele>
        <time>2019-12-30T13:17:24Z</time>
      </trkpt>
      <trkpt lat="43.80831" lon="7.03886">
        <ele>1322</ele>
        <time>2019-12-30T13:17:25Z</time>
      </trkpt>
      <trkpt lat="43.80831" lon="7.03886">
        <ele>1322</ele>
        <time>2019-12-30T13:17:26Z</time>
      </trkpt>
      <trkpt lat="43.80831" lon="7.03886">
        <ele>1322</ele>
        <time>2019-12-30T13:17:27Z</time>
      </trkpt>
      <trkpt lat="43.80831" lon="7.03886">
        <ele>1322</ele>
        <time>2019-12-30T13:17:28Z</time>
      </trkpt>
      <trkpt lat="43.80831" lon="7.03886">
        <ele>1322</ele>
        <time>2019-12-30T13:17:29Z</time>
      </trkpt>
      <trkpt lat="43.80831" lon="7.03886">
        <ele>1322</ele>
        <time>2019-12-30T13:17:30Z</time>
      </trkpt>
      <trkpt lat="43.80831" lon="7.03886">
        <ele>1322</ele>
        <time>2019-12-30T13:17:31Z</time>
      </trkpt>
      <trkpt lat="43.80831" lon="7.03886">
        <ele>1322</ele>
        <time>2019-12-30T13:17:32Z</time>
      </trkpt>
      <trkpt lat="43.80831" lon="7.03886">
        <ele>1322</ele>
        <time>2019-12-30T13:17:33Z</time>
      </trkpt>
      <trkpt lat="43.80831" lon="7.03886">
        <ele>1322</ele>
        <time>2019-12-30T13:17:34Z</time>
      </trkpt>
      <trkpt lat="43.80831" lon="7.03886">
        <ele>1322</ele>
        <time>2019-12-30T13:17:35Z</time>
      </trkpt>
      <trkpt lat="43.80831" lon="7.03886">
        <ele>1322</ele>
        <time>2019-12-30T13:17:36Z</time>
      </trkpt>
      <trkpt lat="43.80831" lon="7.03886">
        <ele>1322</ele>
        <time>2019-12-30T13:17:37Z</time>
      </trkpt>
      <trkpt lat="43.80831" lon="7.03886">
        <ele>1322</ele>
        <time>2019-12-30T13:17:38Z</time>
      </trkpt>
      <trkpt lat="43.80831" lon="7.03886">
        <ele>1322</ele>
        <time>2019-12-30T13:17:39Z</time>
      </trkpt>
      <trkpt lat="43.80831" lon="7.03886">
        <ele>1321.9</ele>
        <time>2019-12-30T13:17:40Z</time>
      </trkpt>
      <trkpt lat="43.80831" lon="7.03886">
        <ele>1321.9</ele>
        <time>2019-12-30T13:17:41Z</time>
      </trkpt>
      <trkpt lat="43.80831" lon="7.03886">
        <ele>1321.9</ele>
        <time>2019-12-30T13:17:42Z</time>
      </trkpt>
      <trkpt lat="43.80831" lon="7.03886">
        <ele>1321.9</ele>
        <time>2019-12-30T13:17:43Z</time>
      </trkpt>
      <trkpt lat="43.80831" lon="7.03886">
        <ele>1321.9</ele>
        <time>2019-12-30T13:17:44Z</time>
      </trkpt>
      <trkpt lat="43.80831" lon="7.03886">
        <ele>1321.9</ele>
        <time>2019-12-30T13:17:45Z</time>
      </trkpt>
      <trkpt lat="43.80831" lon="7.03886">
        <ele>1321.9</ele>
        <time>2019-12-30T13:17:46Z</time>
      </trkpt>
      <trkpt lat="43.80831" lon="7.03886">
        <ele>1321.9</ele>
        <time>2019-12-30T13:17:47Z</time>
      </trkpt>
      <trkpt lat="43.80831" lon="7.03886">
        <ele>1321.9</ele>
        <time>2019-12-30T13:17:48Z</time>
      </trkpt>
      <trkpt lat="43.80831" lon="7.03886">
        <ele>1321.9</ele>
        <time>2019-12-30T13:17:49Z</time>
      </trkpt>
      <trkpt lat="43.80831" lon="7.03886">
        <ele>1321.9</ele>
        <time>2019-12-30T13:17:50Z</time>
      </trkpt>
      <trkpt lat="43.80831" lon="7.03886">
        <ele>1321.9</ele>
        <time>2019-12-30T13:17:51Z</time>
      </trkpt>
      <trkpt lat="43.80831" lon="7.03886">
        <ele>1321.9</ele>
        <time>2019-12-30T13:17:52Z</time>
      </trkpt>
      <trkpt lat="43.80831" lon="7.03886">
        <ele>1321.9</ele>
        <time>2019-12-30T13:17:53Z</time>
      </trkpt>
      <trkpt lat="43.80831" lon="7.03886">
        <ele>1321.9</ele>
        <time>2019-12-30T13:17:54Z</time>
      </trkpt>
      <trkpt lat="43.80831" lon="7.03886">
        <ele>1321.9</ele>
        <time>2019-12-30T13:17:55Z</time>
      </trkpt>
      <trkpt lat="43.80831" lon="7.03886">
        <ele>1321.9</ele>
        <time>2019-12-30T13:17:56Z</time>
      </trkpt>
      <trkpt lat="43.80831" lon="7.03886">
        <ele>1321.9</ele>
        <time>2019-12-30T13:17:57Z</time>
      </trkpt>
      <trkpt lat="43.80831" lon="7.03886">
        <ele>1321.9</ele>
        <time>2019-12-30T13:17:58Z</time>
      </trkpt>
      <trkpt lat="43.80831" lon="7.03886">
        <ele>1321.9</ele>
        <time>2019-12-30T13:17:59Z</time>
      </trkpt>
      <trkpt lat="43.80831" lon="7.03886">
        <ele>1321.9</ele>
        <time>2019-12-30T13:18:00Z</time>
      </trkpt>
      <trkpt lat="43.80831" lon="7.03886">
        <ele>1321.8</ele>
        <time>2019-12-30T13:18:01Z</time>
      </trkpt>
      <trkpt lat="43.80831" lon="7.03887">
        <ele>1321.9</ele>
        <time>2019-12-30T13:18:02Z</time>
      </trkpt>
      <trkpt lat="43.80831" lon="7.03887">
        <ele>1321.9</ele>
        <time>2019-12-30T13:18:03Z</time>
      </trkpt>
      <trkpt lat="43.80831" lon="7.03887">
        <ele>1321.9</ele>
        <time>2019-12-30T13:18:04Z</time>
      </trkpt>
      <trkpt lat="43.8083" lon="7.03888">
        <ele>1321.9</ele>
        <time>2019-12-30T13:18:05Z</time>
      </trkpt>
      <trkpt lat="43.80828" lon="7.03889">
        <ele>1322</ele>
        <time>2019-12-30T13:18:06Z</time>
      </trkpt>
      <trkpt lat="43.80826" lon="7.03889">
        <ele>1322.2</ele>
        <time>2019-12-30T13:18:07Z</time>
      </trkpt>
      <trkpt lat="43.80824" lon="7.0389">
        <ele>1322.3</ele>
        <time>2019-12-30T13:18:08Z</time>
      </trkpt>
      <trkpt lat="43.80821" lon="7.0389">
        <ele>1322.6</ele>
        <time>2019-12-30T13:18:09Z</time>
      </trkpt>
      <trkpt lat="43.80819" lon="7.0389">
        <ele>1322.9</ele>
        <time>2019-12-30T13:18:10Z</time>
      </trkpt>
      <trkpt lat="43.80816" lon="7.03889">
        <ele>1323</ele>
        <time>2019-12-30T13:18:11Z</time>
      </trkpt>
      <trkpt lat="43.80813" lon="7.03888">
        <ele>1323.2</ele>
        <time>2019-12-30T13:18:12Z</time>
      </trkpt>
      <trkpt lat="43.80811" lon="7.03887">
        <ele>1323.6</ele>
        <time>2019-12-30T13:18:13Z</time>
      </trkpt>
      <trkpt lat="43.80808" lon="7.03886">
        <ele>1323.9</ele>
        <time>2019-12-30T13:18:14Z</time>
      </trkpt>
      <trkpt lat="43.80805" lon="7.03885">
        <ele>1324.3</ele>
        <time>2019-12-30T13:18:15Z</time>
      </trkpt>
      <trkpt lat="43.80803" lon="7.03884">
        <ele>1324.7</ele>
        <time>2019-12-30T13:18:16Z</time>
      </trkpt>
      <trkpt lat="43.808" lon="7.03884">
        <ele>1325.1</ele>
        <time>2019-12-30T13:18:17Z</time>
      </trkpt>
      <trkpt lat="43.80797" lon="7.03884">
        <ele>1325.5</ele>
        <time>2019-12-30T13:18:18Z</time>
      </trkpt>
      <trkpt lat="43.80794" lon="7.03884">
        <ele>1325.7</ele>
        <time>2019-12-30T13:18:19Z</time>
      </trkpt>
      <trkpt lat="43.80791" lon="7.03885">
        <ele>1325.8</ele>
        <time>2019-12-30T13:18:20Z</time>
      </trkpt>
      <trkpt lat="43.80788" lon="7.03885">
        <ele>1325.9</ele>
        <time>2019-12-30T13:18:21Z</time>
      </trkpt>
      <trkpt lat="43.80785" lon="7.03886">
        <ele>1325.8</ele>
        <time>2019-12-30T13:18:22Z</time>
      </trkpt>
      <trkpt lat="43.80783" lon="7.03886">
        <ele>1325.6</ele>
        <time>2019-12-30T13:18:23Z</time>
      </trkpt>
      <trkpt lat="43.8078" lon="7.03887">
        <ele>1325.3</ele>
        <time>2019-12-30T13:18:24Z</time>
      </trkpt>
      <trkpt lat="43.80777" lon="7.03889">
        <ele>1325</ele>
        <time>2019-12-30T13:18:25Z</time>
      </trkpt>
      <trkpt lat="43.80775" lon="7.0389">
        <ele>1324.6</ele>
        <time>2019-12-30T13:18:26Z</time>
      </trkpt>
      <trkpt lat="43.80772" lon="7.03892">
        <ele>1324</ele>
        <time>2019-12-30T13:18:27Z</time>
      </trkpt>
      <trkpt lat="43.8077" lon="7.03895">
        <ele>1323.4</ele>
        <time>2019-12-30T13:18:28Z</time>
      </trkpt>
      <trkpt lat="43.80768" lon="7.03898">
        <ele>1322.9</ele>
        <time>2019-12-30T13:18:29Z</time>
      </trkpt>
      <trkpt lat="43.80767" lon="7.039">
        <ele>1322.4</ele>
        <time>2019-12-30T13:18:30Z</time>
      </trkpt>
      <trkpt lat="43.80766" lon="7.03903">
        <ele>1322.1</ele>
        <time>2019-12-30T13:18:31Z</time>
      </trkpt>
      <trkpt lat="43.80765" lon="7.03905">
        <ele>1321.7</ele>
        <time>2019-12-30T13:18:32Z</time>
      </trkpt>
      <trkpt lat="43.80765" lon="7.03907">
        <ele>1321.5</ele>
        <time>2019-12-30T13:18:33Z</time>
      </trkpt>
      <trkpt lat="43.80765" lon="7.03908">
        <ele>1321.3</ele>
        <time>2019-12-30T13:18:34Z</time>
      </trkpt>
      <trkpt lat="43.80764" lon="7.0391">
        <ele>1321</ele>
        <time>2019-12-30T13:18:35Z</time>
      </trkpt>
      <trkpt lat="43.80764" lon="7.03912">
        <ele>1320.7</ele>
        <time>2019-12-30T13:18:36Z</time>
      </trkpt>
      <trkpt lat="43.80763" lon="7.03914">
        <ele>1320.4</ele>
        <time>2019-12-30T13:18:37Z</time>
      </trkpt>
      <trkpt lat="43.80762" lon="7.03917">
        <ele>1320</ele>
        <time>2019-12-30T13:18:38Z</time>
      </trkpt>
      <trkpt lat="43.8076" lon="7.03919">
        <ele>1319.8</ele>
        <time>2019-12-30T13:18:39Z</time>
      </trkpt>
      <trkpt lat="43.80757" lon="7.03922">
        <ele>1319.6</ele>
        <time>2019-12-30T13:18:40Z</time>
      </trkpt>
      <trkpt lat="43.80755" lon="7.03923">
        <ele>1319.4</ele>
        <time>2019-12-30T13:18:41Z</time>
      </trkpt>
      <trkpt lat="43.80752" lon="7.03924">
        <ele>1319.1</ele>
        <time>2019-12-30T13:18:42Z</time>
      </trkpt>
      <trkpt lat="43.80749" lon="7.03925">
        <ele>1318.8</ele>
        <time>2019-12-30T13:18:43Z</time>
      </trkpt>
      <trkpt lat="43.80743" lon="7.03925">
        <ele>1318.5</ele>
        <time>2019-12-30T13:18:44Z</time>
      </trkpt>
      <trkpt lat="43.8074" lon="7.03925">
        <ele>1318.5</ele>
        <time>2019-12-30T13:18:45Z</time>
      </trkpt>
      <trkpt lat="43.80738" lon="7.03926">
        <ele>1318.5</ele>
        <time>2019-12-30T13:18:46Z</time>
      </trkpt>
      <trkpt lat="43.80734" lon="7.03928">
        <ele>1318.5</ele>
        <time>2019-12-30T13:18:47Z</time>
      </trkpt>
      <trkpt lat="43.8073" lon="7.0393">
        <ele>1318.5</ele>
        <time>2019-12-30T13:18:48Z</time>
      </trkpt>
      <trkpt lat="43.80726" lon="7.03934">
        <ele>1318.6</ele>
        <time>2019-12-30T13:18:49Z</time>
      </trkpt>
      <trkpt lat="43.80722" lon="7.03937">
        <ele>1318.7</ele>
        <time>2019-12-30T13:18:50Z</time>
      </trkpt>
      <trkpt lat="43.8072" lon="7.03941">
        <ele>1318.3</ele>
        <time>2019-12-30T13:18:51Z</time>
      </trkpt>
      <trkpt lat="43.80717" lon="7.03943">
        <ele>1318</ele>
        <time>2019-12-30T13:18:52Z</time>
      </trkpt>
      <trkpt lat="43.80716" lon="7.03944">
        <ele>1317.7</ele>
        <time>2019-12-30T13:18:53Z</time>
      </trkpt>
      <trkpt lat="43.80714" lon="7.03945">
        <ele>1317.5</ele>
        <time>2019-12-30T13:18:54Z</time>
      </trkpt>
      <trkpt lat="43.80712" lon="7.03946">
        <ele>1317.3</ele>
        <time>2019-12-30T13:18:55Z</time>
      </trkpt>
      <trkpt lat="43.8071" lon="7.03947">
        <ele>1317</ele>
        <time>2019-12-30T13:18:56Z</time>
      </trkpt>
      <trkpt lat="43.80708" lon="7.03949">
        <ele>1316.8</ele>
        <time>2019-12-30T13:18:57Z</time>
      </trkpt>
      <trkpt lat="43.80706" lon="7.03951">
        <ele>1316.6</ele>
        <time>2019-12-30T13:18:58Z</time>
      </trkpt>
      <trkpt lat="43.80704" lon="7.03954">
        <ele>1316.2</ele>
        <time>2019-12-30T13:18:59Z</time>
      </trkpt>
      <trkpt lat="43.80703" lon="7.03957">
        <ele>1315.9</ele>
        <time>2019-12-30T13:19:00Z</time>
      </trkpt>
      <trkpt lat="43.80701" lon="7.0396">
        <ele>1315.5</ele>
        <time>2019-12-30T13:19:01Z</time>
      </trkpt>
      <trkpt lat="43.807" lon="7.03963">
        <ele>1315.1</ele>
        <time>2019-12-30T13:19:02Z</time>
      </trkpt>
      <trkpt lat="43.80699" lon="7.03966">
        <ele>1314.7</ele>
        <time>2019-12-30T13:19:03Z</time>
      </trkpt>
      <trkpt lat="43.80697" lon="7.03969">
        <ele>1314.5</ele>
        <time>2019-12-30T13:19:04Z</time>
      </trkpt>
      <trkpt lat="43.80694" lon="7.03972">
        <ele>1314.3</ele>
        <time>2019-12-30T13:19:05Z</time>
      </trkpt>
      <trkpt lat="43.80691" lon="7.03974">
        <ele>1313.9</ele>
        <time>2019-12-30T13:19:06Z</time>
      </trkpt>
      <trkpt lat="43.80688" lon="7.03976">
        <ele>1313.6</ele>
        <time>2019-12-30T13:19:07Z</time>
      </trkpt>
      <trkpt lat="43.80686" lon="7.03977">
        <ele>1313.3</ele>
        <time>2019-12-30T13:19:08Z</time>
      </trkpt>
      <trkpt lat="43.80683" lon="7.03977">
        <ele>1313.1</ele>
        <time>2019-12-30T13:19:09Z</time>
      </trkpt>
      <trkpt lat="43.80681" lon="7.03977">
        <ele>1312.8</ele>
        <time>2019-12-30T13:19:10Z</time>
      </trkpt>
      <trkpt lat="43.80679" lon="7.03977">
        <ele>1312.8</ele>
        <time>2019-12-30T13:19:11Z</time>
      </trkpt>
      <trkpt lat="43.80676" lon="7.03977">
        <ele>1312.7</ele>
        <time>2019-12-30T13:19:12Z</time>
      </trkpt>
      <trkpt lat="43.80674" lon="7.03977">
        <ele>1312.6</ele>
        <time>2019-12-30T13:19:13Z</time>
      </trkpt>
      <trkpt lat="43.80671" lon="7.03977">
        <ele>1312.5</ele>
        <time>2019-12-30T13:19:14Z</time>
      </trkpt>
      <trkpt lat="43.80668" lon="7.03978">
        <ele>1312.4</ele>
        <time>2019-12-30T13:19:15Z</time>
      </trkpt>
      <trkpt lat="43.80665" lon="7.03978">
        <ele>1312.3</ele>
        <time>2019-12-30T13:19:16Z</time>
      </trkpt>
      <trkpt lat="43.80662" lon="7.03979">
        <ele>1312.2</ele>
        <time>2019-12-30T13:19:17Z</time>
      </trkpt>
      <trkpt lat="43.8066" lon="7.03978">
        <ele>1312.1</ele>
        <time>2019-12-30T13:19:18Z</time>
      </trkpt>
      <trkpt lat="43.80657" lon="7.03977">
        <ele>1312</ele>
        <time>2019-12-30T13:19:19Z</time>
      </trkpt>
      <trkpt lat="43.80655" lon="7.03976">
        <ele>1311.9</ele>
        <time>2019-12-30T13:19:20Z</time>
      </trkpt>
      <trkpt lat="43.80652" lon="7.03975">
        <ele>1311.9</ele>
        <time>2019-12-30T13:19:21Z</time>
      </trkpt>
      <trkpt lat="43.8065" lon="7.03974">
        <ele>1312</ele>
        <time>2019-12-30T13:19:22Z</time>
      </trkpt>
      <trkpt lat="43.80648" lon="7.03974">
        <ele>1312</ele>
        <time>2019-12-30T13:19:23Z</time>
      </trkpt>
      <trkpt lat="43.80645" lon="7.03973">
        <ele>1312</ele>
        <time>2019-12-30T13:19:24Z</time>
      </trkpt>
      <trkpt lat="43.80643" lon="7.03973">
        <ele>1312</ele>
        <time>2019-12-30T13:19:25Z</time>
      </trkpt>
      <trkpt lat="43.80641" lon="7.03974">
        <ele>1312</ele>
        <time>2019-12-30T13:19:26Z</time>
      </trkpt>
      <trkpt lat="43.80638" lon="7.03975">
        <ele>1312</ele>
        <time>2019-12-30T13:19:27Z</time>
      </trkpt>
      <trkpt lat="43.80636" lon="7.03976">
        <ele>1312</ele>
        <time>2019-12-30T13:19:28Z</time>
      </trkpt>
      <trkpt lat="43.80633" lon="7.03977">
        <ele>1312</ele>
        <time>2019-12-30T13:19:29Z</time>
      </trkpt>
      <trkpt lat="43.80631" lon="7.03979">
        <ele>1312</ele>
        <time>2019-12-30T13:19:30Z</time>
      </trkpt>
      <trkpt lat="43.80629" lon="7.03981">
        <ele>1312</ele>
        <time>2019-12-30T13:19:31Z</time>
      </trkpt>
      <trkpt lat="43.80626" lon="7.03984">
        <ele>1312</ele>
        <time>2019-12-30T13:19:32Z</time>
      </trkpt>
      <trkpt lat="43.80625" lon="7.03986">
        <ele>1312</ele>
        <time>2019-12-30T13:19:33Z</time>
      </trkpt>
      <trkpt lat="43.80623" lon="7.03989">
        <ele>1311.9</ele>
        <time>2019-12-30T13:19:34Z</time>
      </trkpt>
      <trkpt lat="43.80621" lon="7.03992">
        <ele>1311.9</ele>
        <time>2019-12-30T13:19:35Z</time>
      </trkpt>
      <trkpt lat="43.8062" lon="7.03995">
        <ele>1311.9</ele>
        <time>2019-12-30T13:19:36Z</time>
      </trkpt>
      <trkpt lat="43.80619" lon="7.03998">
        <ele>1311.8</ele>
        <time>2019-12-30T13:19:37Z</time>
      </trkpt>
      <trkpt lat="43.80617" lon="7.04">
        <ele>1311.8</ele>
        <time>2019-12-30T13:19:38Z</time>
      </trkpt>
      <trkpt lat="43.80616" lon="7.04003">
        <ele>1311.8</ele>
        <time>2019-12-30T13:19:39Z</time>
      </trkpt>
      <trkpt lat="43.80614" lon="7.04006">
        <ele>1311.8</ele>
        <time>2019-12-30T13:19:40Z</time>
      </trkpt>
      <trkpt lat="43.80612" lon="7.04008">
        <ele>1311.9</ele>
        <time>2019-12-30T13:19:41Z</time>
      </trkpt>
      <trkpt lat="43.8061" lon="7.04011">
        <ele>1312</ele>
        <time>2019-12-30T13:19:42Z</time>
      </trkpt>
      <trkpt lat="43.80608" lon="7.04013">
        <ele>1312.1</ele>
        <time>2019-12-30T13:19:43Z</time>
      </trkpt>
      <trkpt lat="43.80607" lon="7.04016">
        <ele>1312.3</ele>
        <time>2019-12-30T13:19:44Z</time>
      </trkpt>
      <trkpt lat="43.80605" lon="7.04018">
        <ele>1312.5</ele>
        <time>2019-12-30T13:19:45Z</time>
      </trkpt>
      <trkpt lat="43.80605" lon="7.04021">
        <ele>1312.5</ele>
        <time>2019-12-30T13:19:46Z</time>
      </trkpt>
      <trkpt lat="43.80604" lon="7.04024">
        <ele>1312.5</ele>
        <time>2019-12-30T13:19:47Z</time>
      </trkpt>
      <trkpt lat="43.80604" lon="7.04027">
        <ele>1312.6</ele>
        <time>2019-12-30T13:19:48Z</time>
      </trkpt>
      <trkpt lat="43.80605" lon="7.0403">
        <ele>1312.6</ele>
        <time>2019-12-30T13:19:49Z</time>
      </trkpt>
      <trkpt lat="43.80605" lon="7.04034">
        <ele>1312.6</ele>
        <time>2019-12-30T13:19:50Z</time>
      </trkpt>
      <trkpt lat="43.80606" lon="7.04037">
        <ele>1312.7</ele>
        <time>2019-12-30T13:19:51Z</time>
      </trkpt>
      <trkpt lat="43.80608" lon="7.04042">
        <ele>1312.5</ele>
        <time>2019-12-30T13:19:52Z</time>
      </trkpt>
      <trkpt lat="43.80608" lon="7.04044">
        <ele>1312.5</ele>
        <time>2019-12-30T13:19:53Z</time>
      </trkpt>
      <trkpt lat="43.80608" lon="7.04046">
        <ele>1312.5</ele>
        <time>2019-12-30T13:19:54Z</time>
      </trkpt>
      <trkpt lat="43.80609" lon="7.0405">
        <ele>1312.6</ele>
        <time>2019-12-30T13:19:55Z</time>
      </trkpt>
      <trkpt lat="43.8061" lon="7.04053">
        <ele>1312.6</ele>
        <time>2019-12-30T13:19:56Z</time>
      </trkpt>
      <trkpt lat="43.8061" lon="7.04057">
        <ele>1312.6</ele>
        <time>2019-12-30T13:19:57Z</time>
      </trkpt>
      <trkpt lat="43.8061" lon="7.04061">
        <ele>1312.4</ele>
        <time>2019-12-30T13:19:58Z</time>
      </trkpt>
      <trkpt lat="43.80611" lon="7.04065">
        <ele>1312.4</ele>
        <time>2019-12-30T13:19:59Z</time>
      </trkpt>
      <trkpt lat="43.80611" lon="7.04068">
        <ele>1312.4</ele>
        <time>2019-12-30T13:20:00Z</time>
      </trkpt>
      <trkpt lat="43.8061" lon="7.0407">
        <ele>1312.4</ele>
        <time>2019-12-30T13:20:01Z</time>
      </trkpt>
      <trkpt lat="43.8061" lon="7.04072">
        <ele>1312.7</ele>
        <time>2019-12-30T13:20:02Z</time>
      </trkpt>
      <trkpt lat="43.8061" lon="7.04074">
        <ele>1312.7</ele>
        <time>2019-12-30T13:20:03Z</time>
      </trkpt>
      <trkpt lat="43.80609" lon="7.04076">
        <ele>1312.7</ele>
        <time>2019-12-30T13:20:04Z</time>
      </trkpt>
      <trkpt lat="43.80609" lon="7.04077">
        <ele>1312.7</ele>
        <time>2019-12-30T13:20:05Z</time>
      </trkpt>
      <trkpt lat="43.80609" lon="7.04079">
        <ele>1312.8</ele>
        <time>2019-12-30T13:20:06Z</time>
      </trkpt>
      <trkpt lat="43.80608" lon="7.04081">
        <ele>1312.8</ele>
        <time>2019-12-30T13:20:07Z</time>
      </trkpt>
      <trkpt lat="43.80608" lon="7.04083">
        <ele>1312.8</ele>
        <time>2019-12-30T13:20:08Z</time>
      </trkpt>
      <trkpt lat="43.80608" lon="7.04085">
        <ele>1312.8</ele>
        <time>2019-12-30T13:20:09Z</time>
      </trkpt>
      <trkpt lat="43.80607" lon="7.04088">
        <ele>1312.9</ele>
        <time>2019-12-30T13:20:10Z</time>
      </trkpt>
      <trkpt lat="43.80607" lon="7.0409">
        <ele>1313.1</ele>
        <time>2019-12-30T13:20:11Z</time>
      </trkpt>
      <trkpt lat="43.80606" lon="7.04093">
        <ele>1313.2</ele>
        <time>2019-12-30T13:20:12Z</time>
      </trkpt>
      <trkpt lat="43.80606" lon="7.04095">
        <ele>1313.2</ele>
        <time>2019-12-30T13:20:13Z</time>
      </trkpt>
      <trkpt lat="43.80605" lon="7.04097">
        <ele>1313.2</ele>
        <time>2019-12-30T13:20:14Z</time>
      </trkpt>
      <trkpt lat="43.80604" lon="7.041">
        <ele>1313.5</ele>
        <time>2019-12-30T13:20:15Z</time>
      </trkpt>
      <trkpt lat="43.80603" lon="7.04102">
        <ele>1313.5</ele>
        <time>2019-12-30T13:20:16Z</time>
      </trkpt>
      <trkpt lat="43.80602" lon="7.04105">
        <ele>1313.6</ele>
        <time>2019-12-30T13:20:17Z</time>
      </trkpt>
      <trkpt lat="43.80601" lon="7.04108">
        <ele>1313.6</ele>
        <time>2019-12-30T13:20:18Z</time>
      </trkpt>
      <trkpt lat="43.80601" lon="7.04111">
        <ele>1313.8</ele>
        <time>2019-12-30T13:20:19Z</time>
      </trkpt>
      <trkpt lat="43.806" lon="7.04115">
        <ele>1313.9</ele>
        <time>2019-12-30T13:20:20Z</time>
      </trkpt>
      <trkpt lat="43.80599" lon="7.04118">
        <ele>1313.9</ele>
        <time>2019-12-30T13:20:21Z</time>
      </trkpt>
      <trkpt lat="43.80599" lon="7.04121">
        <ele>1314</ele>
        <time>2019-12-30T13:20:22Z</time>
      </trkpt>
      <trkpt lat="43.80598" lon="7.04125">
        <ele>1314</ele>
        <time>2019-12-30T13:20:23Z</time>
      </trkpt>
      <trkpt lat="43.80598" lon="7.04127">
        <ele>1314.2</ele>
        <time>2019-12-30T13:20:24Z</time>
      </trkpt>
      <trkpt lat="43.80597" lon="7.0413">
        <ele>1314.3</ele>
        <time>2019-12-30T13:20:25Z</time>
      </trkpt>
      <trkpt lat="43.80597" lon="7.04132">
        <ele>1314.3</ele>
        <time>2019-12-30T13:20:26Z</time>
      </trkpt>
      <trkpt lat="43.80597" lon="7.04132">
        <ele>1314.3</ele>
        <time>2019-12-30T13:20:27Z</time>
      </trkpt>
      <trkpt lat="43.80597" lon="7.04132">
        <ele>1314.3</ele>
        <time>2019-12-30T13:20:28Z</time>
      </trkpt>
      <trkpt lat="43.80597" lon="7.04132">
        <ele>1314.2</ele>
        <time>2019-12-30T13:20:29Z</time>
      </trkpt>
      <trkpt lat="43.80597" lon="7.04132">
        <ele>1314.2</ele>
        <time>2019-12-30T13:20:30Z</time>
      </trkpt>
      <trkpt lat="43.80597" lon="7.04132">
        <ele>1314.2</ele>
        <time>2019-12-30T13:20:31Z</time>
      </trkpt>
      <trkpt lat="43.80597" lon="7.04132">
        <ele>1314.2</ele>
        <time>2019-12-30T13:20:32Z</time>
      </trkpt>
      <trkpt lat="43.80597" lon="7.04132">
        <ele>1314.2</ele>
        <time>2019-12-30T13:20:33Z</time>
      </trkpt>
      <trkpt lat="43.80597" lon="7.04132">
        <ele>1314.2</ele>
        <time>2019-12-30T13:20:34Z</time>
      </trkpt>
      <trkpt lat="43.80597" lon="7.04132">
        <ele>1314.2</ele>
        <time>2019-12-30T13:20:35Z</time>
      </trkpt>
      <trkpt lat="43.80597" lon="7.04132">
        <ele>1314.2</ele>
        <time>2019-12-30T13:20:36Z</time>
      </trkpt>
      <trkpt lat="43.80597" lon="7.04132">
        <ele>1314.2</ele>
        <time>2019-12-30T13:20:37Z</time>
      </trkpt>
      <trkpt lat="43.80597" lon="7.04132">
        <ele>1314.2</ele>
        <time>2019-12-30T13:20:38Z</time>
      </trkpt>
      <trkpt lat="43.80597" lon="7.04132">
        <ele>1314.2</ele>
        <time>2019-12-30T13:20:39Z</time>
      </trkpt>
      <trkpt lat="43.80597" lon="7.04132">
        <ele>1314.2</ele>
        <time>2019-12-30T13:20:40Z</time>
      </trkpt>
      <trkpt lat="43.80597" lon="7.04132">
        <ele>1314.2</ele>
        <time>2019-12-30T13:20:41Z</time>
      </trkpt>
      <trkpt lat="43.80597" lon="7.04132">
        <ele>1314.2</ele>
        <time>2019-12-30T13:20:42Z</time>
      </trkpt>
      <trkpt lat="43.80597" lon="7.04132">
        <ele>1314.2</ele>
        <time>2019-12-30T13:20:43Z</time>
      </trkpt>
      <trkpt lat="43.80597" lon="7.04132">
        <ele>1314.2</ele>
        <time>2019-12-30T13:20:44Z</time>
      </trkpt>
      <trkpt lat="43.80597" lon="7.04132">
        <ele>1314.2</ele>
        <time>2019-12-30T13:20:45Z</time>
      </trkpt>
      <trkpt lat="43.80597" lon="7.04132">
        <ele>1314.2</ele>
        <time>2019-12-30T13:20:46Z</time>
      </trkpt>
      <trkpt lat="43.80597" lon="7.04132">
        <ele>1314.2</ele>
        <time>2019-12-30T13:20:47Z</time>
      </trkpt>
      <trkpt lat="43.80597" lon="7.04132">
        <ele>1314.2</ele>
        <time>2019-12-30T13:20:48Z</time>
      </trkpt>
      <trkpt lat="43.80597" lon="7.04132">
        <ele>1314.2</ele>
        <time>2019-12-30T13:20:49Z</time>
      </trkpt>
      <trkpt lat="43.80597" lon="7.04132">
        <ele>1314.2</ele>
        <time>2019-12-30T13:20:50Z</time>
      </trkpt>
      <trkpt lat="43.80597" lon="7.04132">
        <ele>1314.2</ele>
        <time>2019-12-30T13:20:51Z</time>
      </trkpt>
      <trkpt lat="43.80597" lon="7.04132">
        <ele>1314.2</ele>
        <time>2019-12-30T13:20:52Z</time>
      </trkpt>
      <trkpt lat="43.80597" lon="7.04132">
        <ele>1314.2</ele>
        <time>2019-12-30T13:20:53Z</time>
      </trkpt>
      <trkpt lat="43.80597" lon="7.04132">
        <ele>1314.2</ele>
        <time>2019-12-30T13:20:54Z</time>
      </trkpt>
      <trkpt lat="43.80597" lon="7.04132">
        <ele>1314.2</ele>
        <time>2019-12-30T13:20:55Z</time>
      </trkpt>
      <trkpt lat="43.80597" lon="7.04132">
        <ele>1314.2</ele>
        <time>2019-12-30T13:20:56Z</time>
      </trkpt>
      <trkpt lat="43.80597" lon="7.04132">
        <ele>1314.2</ele>
        <time>2019-12-30T13:20:57Z</time>
      </trkpt>
      <trkpt lat="43.80597" lon="7.04132">
        <ele>1314.2</ele>
        <time>2019-12-30T13:20:58Z</time>
      </trkpt>
      <trkpt lat="43.80597" lon="7.04132">
        <ele>1314.2</ele>
        <time>2019-12-30T13:20:59Z</time>
      </trkpt>
      <trkpt lat="43.80597" lon="7.04133">
        <ele>1314.2</ele>
        <time>2019-12-30T13:21:00Z</time>
      </trkpt>
      <trkpt lat="43.80597" lon="7.04133">
        <ele>1314.2</ele>
        <time>2019-12-30T13:21:01Z</time>
      </trkpt>
      <trkpt lat="43.80597" lon="7.04133">
        <ele>1314.2</ele>
        <time>2019-12-30T13:21:02Z</time>
      </trkpt>
      <trkpt lat="43.80597" lon="7.04133">
        <ele>1314.2</ele>
        <time>2019-12-30T13:21:03Z</time>
      </trkpt>
      <trkpt lat="43.80597" lon="7.04133">
        <ele>1314.2</ele>
        <time>2019-12-30T13:21:04Z</time>
      </trkpt>
      <trkpt lat="43.80597" lon="7.04133">
        <ele>1314.2</ele>
        <time>2019-12-30T13:21:05Z</time>
      </trkpt>
      <trkpt lat="43.80597" lon="7.04133">
        <ele>1314.2</ele>
        <time>2019-12-30T13:21:06Z</time>
      </trkpt>
      <trkpt lat="43.80597" lon="7.04133">
        <ele>1314.2</ele>
        <time>2019-12-30T13:21:07Z</time>
      </trkpt>
      <trkpt lat="43.80597" lon="7.04133">
        <ele>1314.2</ele>
        <time>2019-12-30T13:21:08Z</time>
      </trkpt>
      <trkpt lat="43.80597" lon="7.04133">
        <ele>1314.2</ele>
        <time>2019-12-30T13:21:09Z</time>
      </trkpt>
      <trkpt lat="43.80597" lon="7.04133">
        <ele>1314.2</ele>
        <time>2019-12-30T13:21:10Z</time>
      </trkpt>
      <trkpt lat="43.80597" lon="7.04133">
        <ele>1314.2</ele>
        <time>2019-12-30T13:21:11Z</time>
      </trkpt>
      <trkpt lat="43.80597" lon="7.04133">
        <ele>1314.2</ele>
        <time>2019-12-30T13:21:12Z</time>
      </trkpt>
      <trkpt lat="43.80597" lon="7.04133">
        <ele>1314.2</ele>
        <time>2019-12-30T13:21:13Z</time>
      </trkpt>
      <trkpt lat="43.80597" lon="7.04133">
        <ele>1314.2</ele>
        <time>2019-12-30T13:21:14Z</time>
      </trkpt>
      <trkpt lat="43.80597" lon="7.04133">
        <ele>1314.2</ele>
        <time>2019-12-30T13:21:15Z</time>
      </trkpt>
      <trkpt lat="43.80597" lon="7.04133">
        <ele>1314.2</ele>
        <time>2019-12-30T13:21:16Z</time>
      </trkpt>
      <trkpt lat="43.80597" lon="7.04133">
        <ele>1314.2</ele>
        <time>2019-12-30T13:21:17Z</time>
      </trkpt>
      <trkpt lat="43.80597" lon="7.04133">
        <ele>1314.2</ele>
        <time>2019-12-30T13:21:18Z</time>
      </trkpt>
      <trkpt lat="43.80597" lon="7.04133">
        <ele>1314.2</ele>
        <time>2019-12-30T13:21:19Z</time>
      </trkpt>
      <trkpt lat="43.80597" lon="7.04133">
        <ele>1314.2</ele>
        <time>2019-12-30T13:21:20Z</time>
      </trkpt>
      <trkpt lat="43.80597" lon="7.04133">
        <ele>1314.2</ele>
        <time>2019-12-30T13:21:21Z</time>
      </trkpt>
      <trkpt lat="43.80597" lon="7.04133">
        <ele>1314.2</ele>
        <time>2019-12-30T13:21:22Z</time>
      </trkpt>
      <trkpt lat="43.80597" lon="7.04133">
        <ele>1314.2</ele>
        <time>2019-12-30T13:21:23Z</time>
      </trkpt>
      <trkpt lat="43.80597" lon="7.04133">
        <ele>1314.2</ele>
        <time>2019-12-30T13:21:24Z</time>
      </trkpt>
      <trkpt lat="43.80597" lon="7.04133">
        <ele>1314.2</ele>
        <time>2019-12-30T13:21:25Z</time>
      </trkpt>
      <trkpt lat="43.80597" lon="7.04133">
        <ele>1314.2</ele>
        <time>2019-12-30T13:21:26Z</time>
      </trkpt>
      <trkpt lat="43.80597" lon="7.04133">
        <ele>1314.2</ele>
        <time>2019-12-30T13:21:27Z</time>
      </trkpt>
      <trkpt lat="43.80597" lon="7.04133">
        <ele>1314.2</ele>
        <time>2019-12-30T13:21:28Z</time>
      </trkpt>
      <trkpt lat="43.80597" lon="7.04133">
        <ele>1314.2</ele>
        <time>2019-12-30T13:21:29Z</time>
      </trkpt>
      <trkpt lat="43.80597" lon="7.04133">
        <ele>1314.2</ele>
        <time>2019-12-30T13:21:30Z</time>
      </trkpt>
      <trkpt lat="43.80597" lon="7.04133">
        <ele>1314.2</ele>
        <time>2019-12-30T13:21:31Z</time>
      </trkpt>
      <trkpt lat="43.80597" lon="7.04134">
        <ele>1314.2</ele>
        <time>2019-12-30T13:21:32Z</time>
      </trkpt>
      <trkpt lat="43.80597" lon="7.04134">
        <ele>1314.3</ele>
        <time>2019-12-30T13:21:33Z</time>
      </trkpt>
      <trkpt lat="43.80597" lon="7.04134">
        <ele>1314.3</ele>
        <time>2019-12-30T13:21:34Z</time>
      </trkpt>
      <trkpt lat="43.80597" lon="7.04134">
        <ele>1314.3</ele>
        <time>2019-12-30T13:21:35Z</time>
      </trkpt>
      <trkpt lat="43.80597" lon="7.04134">
        <ele>1314.3</ele>
        <time>2019-12-30T13:21:36Z</time>
      </trkpt>
      <trkpt lat="43.80597" lon="7.04134">
        <ele>1314.3</ele>
        <time>2019-12-30T13:21:37Z</time>
      </trkpt>
      <trkpt lat="43.80597" lon="7.04134">
        <ele>1314.3</ele>
        <time>2019-12-30T13:21:38Z</time>
      </trkpt>
      <trkpt lat="43.80597" lon="7.04134">
        <ele>1314.2</ele>
        <time>2019-12-30T13:21:39Z</time>
      </trkpt>
      <trkpt lat="43.80596" lon="7.04133">
        <ele>1314.2</ele>
        <time>2019-12-30T13:21:40Z</time>
      </trkpt>
      <trkpt lat="43.80596" lon="7.04132">
        <ele>1314.2</ele>
        <time>2019-12-30T13:21:41Z</time>
      </trkpt>
      <trkpt lat="43.80595" lon="7.0413">
        <ele>1314.2</ele>
        <time>2019-12-30T13:21:42Z</time>
      </trkpt>
      <trkpt lat="43.80594" lon="7.04129">
        <ele>1314.3</ele>
        <time>2019-12-30T13:21:43Z</time>
      </trkpt>
      <trkpt lat="43.80593" lon="7.04127">
        <ele>1314.3</ele>
        <time>2019-12-30T13:21:44Z</time>
      </trkpt>
      <trkpt lat="43.80592" lon="7.04125">
        <ele>1314.3</ele>
        <time>2019-12-30T13:21:45Z</time>
      </trkpt>
      <trkpt lat="43.80591" lon="7.04124">
        <ele>1314.5</ele>
        <time>2019-12-30T13:21:46Z</time>
      </trkpt>
      <trkpt lat="43.80591" lon="7.04122">
        <ele>1314.5</ele>
        <time>2019-12-30T13:21:47Z</time>
      </trkpt>
      <trkpt lat="43.8059" lon="7.04121">
        <ele>1314.5</ele>
        <time>2019-12-30T13:21:48Z</time>
      </trkpt>
      <trkpt lat="43.80589" lon="7.0412">
        <ele>1314.5</ele>
        <time>2019-12-30T13:21:49Z</time>
      </trkpt>
      <trkpt lat="43.80589" lon="7.04118">
        <ele>1314.5</ele>
        <time>2019-12-30T13:21:50Z</time>
      </trkpt>
      <trkpt lat="43.80588" lon="7.04117">
        <ele>1314.8</ele>
        <time>2019-12-30T13:21:51Z</time>
      </trkpt>
      <trkpt lat="43.80588" lon="7.04115">
        <ele>1314.9</ele>
        <time>2019-12-30T13:21:52Z</time>
      </trkpt>
      <trkpt lat="43.80587" lon="7.04114">
        <ele>1314.9</ele>
        <time>2019-12-30T13:21:53Z</time>
      </trkpt>
      <trkpt lat="43.80587" lon="7.04113">
        <ele>1314.9</ele>
        <time>2019-12-30T13:21:54Z</time>
      </trkpt>
      <trkpt lat="43.80587" lon="7.04113">
        <ele>1314.9</ele>
        <time>2019-12-30T13:21:55Z</time>
      </trkpt>
      <trkpt lat="43.80587" lon="7.04112">
        <ele>1314.9</ele>
        <time>2019-12-30T13:21:56Z</time>
      </trkpt>
      <trkpt lat="43.80587" lon="7.04112">
        <ele>1314.9</ele>
        <time>2019-12-30T13:21:57Z</time>
      </trkpt>
      <trkpt lat="43.80587" lon="7.04112">
        <ele>1314.9</ele>
        <time>2019-12-30T13:21:58Z</time>
      </trkpt>
      <trkpt lat="43.80586" lon="7.04111">
        <ele>1314.9</ele>
        <time>2019-12-30T13:21:59Z</time>
      </trkpt>
      <trkpt lat="43.80586" lon="7.0411">
        <ele>1314.9</ele>
        <time>2019-12-30T13:22:00Z</time>
      </trkpt>
      <trkpt lat="43.80586" lon="7.04109">
        <ele>1314.9</ele>
        <time>2019-12-30T13:22:01Z</time>
      </trkpt>
      <trkpt lat="43.80586" lon="7.04107">
        <ele>1314.9</ele>
        <time>2019-12-30T13:22:02Z</time>
      </trkpt>
      <trkpt lat="43.80586" lon="7.04104">
        <ele>1314.9</ele>
        <time>2019-12-30T13:22:03Z</time>
      </trkpt>
      <trkpt lat="43.80585" lon="7.041">
        <ele>1315.3</ele>
        <time>2019-12-30T13:22:04Z</time>
      </trkpt>
      <trkpt lat="43.80584" lon="7.04097">
        <ele>1315.3</ele>
        <time>2019-12-30T13:22:05Z</time>
      </trkpt>
      <trkpt lat="43.80584" lon="7.04093">
        <ele>1315.3</ele>
        <time>2019-12-30T13:22:06Z</time>
      </trkpt>
      <trkpt lat="43.80583" lon="7.0409">
        <ele>1315.3</ele>
        <time>2019-12-30T13:22:07Z</time>
      </trkpt>
      <trkpt lat="43.80583" lon="7.04087">
        <ele>1315.3</ele>
        <time>2019-12-30T13:22:08Z</time>
      </trkpt>
      <trkpt lat="43.80583" lon="7.04084">
        <ele>1315.3</ele>
        <time>2019-12-30T13:22:09Z</time>
      </trkpt>
      <trkpt lat="43.80583" lon="7.04081">
        <ele>1315.2</ele>
        <time>2019-12-30T13:22:10Z</time>
      </trkpt>
      <trkpt lat="43.80584" lon="7.04078">
        <ele>1315.2</ele>
        <time>2019-12-30T13:22:11Z</time>
      </trkpt>
      <trkpt lat="43.80583" lon="7.04075">
        <ele>1315.2</ele>
        <time>2019-12-30T13:22:12Z</time>
      </trkpt>
      <trkpt lat="43.80582" lon="7.04074">
        <ele>1315.6</ele>
        <time>2019-12-30T13:22:13Z</time>
      </trkpt>
      <trkpt lat="43.80581" lon="7.04073">
        <ele>1315.6</ele>
        <time>2019-12-30T13:22:14Z</time>
      </trkpt>
      <trkpt lat="43.80581" lon="7.04073">
        <ele>1315.6</ele>
        <time>2019-12-30T13:22:15Z</time>
      </trkpt>
      <trkpt lat="43.8058" lon="7.04072">
        <ele>1315.6</ele>
        <time>2019-12-30T13:22:16Z</time>
      </trkpt>
      <trkpt lat="43.80579" lon="7.04071">
        <ele>1316.1</ele>
        <time>2019-12-30T13:22:17Z</time>
      </trkpt>
      <trkpt lat="43.80579" lon="7.0407">
        <ele>1316.1</ele>
        <time>2019-12-30T13:22:18Z</time>
      </trkpt>
      <trkpt lat="43.80578" lon="7.0407">
        <ele>1316.1</ele>
        <time>2019-12-30T13:22:19Z</time>
      </trkpt>
      <trkpt lat="43.80578" lon="7.0407">
        <ele>1316.1</ele>
        <time>2019-12-30T13:22:20Z</time>
      </trkpt>
      <trkpt lat="43.80577" lon="7.04069">
        <ele>1316.1</ele>
        <time>2019-12-30T13:22:21Z</time>
      </trkpt>
      <trkpt lat="43.80577" lon="7.04069">
        <ele>1316.1</ele>
        <time>2019-12-30T13:22:22Z</time>
      </trkpt>
      <trkpt lat="43.80577" lon="7.04069">
        <ele>1316.1</ele>
        <time>2019-12-30T13:22:23Z</time>
      </trkpt>
      <trkpt lat="43.80576" lon="7.04069">
        <ele>1316.1</ele>
        <time>2019-12-30T13:22:24Z</time>
      </trkpt>
      <trkpt lat="43.80576" lon="7.0407">
        <ele>1316.5</ele>
        <time>2019-12-30T13:22:25Z</time>
      </trkpt>
      <trkpt lat="43.80576" lon="7.0407">
        <ele>1316.5</ele>
        <time>2019-12-30T13:22:26Z</time>
      </trkpt>
      <trkpt lat="43.80575" lon="7.0407">
        <ele>1316.5</ele>
        <time>2019-12-30T13:22:27Z</time>
      </trkpt>
      <trkpt lat="43.80575" lon="7.0407">
        <ele>1316.5</ele>
        <time>2019-12-30T13:22:28Z</time>
      </trkpt>
      <trkpt lat="43.80575" lon="7.04069">
        <ele>1316.5</ele>
        <time>2019-12-30T13:22:29Z</time>
      </trkpt>
      <trkpt lat="43.80574" lon="7.04068">
        <ele>1316.5</ele>
        <time>2019-12-30T13:22:30Z</time>
      </trkpt>
      <trkpt lat="43.80574" lon="7.04067">
        <ele>1316.5</ele>
        <time>2019-12-30T13:22:31Z</time>
      </trkpt>
      <trkpt lat="43.80573" lon="7.04066">
        <ele>1316.5</ele>
        <time>2019-12-30T13:22:32Z</time>
      </trkpt>
      <trkpt lat="43.80573" lon="7.04065">
        <ele>1316.9</ele>
        <time>2019-12-30T13:22:33Z</time>
      </trkpt>
      <trkpt lat="43.80573" lon="7.04065">
        <ele>1316.9</ele>
        <time>2019-12-30T13:22:34Z</time>
      </trkpt>
      <trkpt lat="43.80572" lon="7.04064">
        <ele>1316.9</ele>
        <time>2019-12-30T13:22:35Z</time>
      </trkpt>
      <trkpt lat="43.80572" lon="7.04064">
        <ele>1316.9</ele>
        <time>2019-12-30T13:22:36Z</time>
      </trkpt>
      <trkpt lat="43.80573" lon="7.04063">
        <ele>1316.8</ele>
        <time>2019-12-30T13:22:37Z</time>
      </trkpt>
      <trkpt lat="43.80573" lon="7.04062">
        <ele>1316.4</ele>
        <time>2019-12-30T13:22:38Z</time>
      </trkpt>
      <trkpt lat="43.80574" lon="7.04061">
        <ele>1316.4</ele>
        <time>2019-12-30T13:22:39Z</time>
      </trkpt>
      <trkpt lat="43.80574" lon="7.0406">
        <ele>1316.3</ele>
        <time>2019-12-30T13:22:40Z</time>
      </trkpt>
      <trkpt lat="43.80574" lon="7.0406">
        <ele>1316.3</ele>
        <time>2019-12-30T13:22:41Z</time>
      </trkpt>
      <trkpt lat="43.80574" lon="7.0406">
        <ele>1316.3</ele>
        <time>2019-12-30T13:22:42Z</time>
      </trkpt>
      <trkpt lat="43.80574" lon="7.0406">
        <ele>1316.3</ele>
        <time>2019-12-30T13:22:43Z</time>
      </trkpt>
      <trkpt lat="43.80574" lon="7.0406">
        <ele>1316.3</ele>
        <time>2019-12-30T13:22:44Z</time>
      </trkpt>
      <trkpt lat="43.80574" lon="7.0406">
        <ele>1316.3</ele>
        <time>2019-12-30T13:22:45Z</time>
      </trkpt>
      <trkpt lat="43.80574" lon="7.0406">
        <ele>1316.3</ele>
        <time>2019-12-30T13:22:46Z</time>
      </trkpt>
      <trkpt lat="43.80574" lon="7.0406">
        <ele>1316.3</ele>
        <time>2019-12-30T13:22:47Z</time>
      </trkpt>
      <trkpt lat="43.80574" lon="7.0406">
        <ele>1316.3</ele>
        <time>2019-12-30T13:22:48Z</time>
      </trkpt>
      <trkpt lat="43.80574" lon="7.0406">
        <ele>1316.3</ele>
        <time>2019-12-30T13:22:49Z</time>
      </trkpt>
      <trkpt lat="43.80574" lon="7.0406">
        <ele>1316.3</ele>
        <time>2019-12-30T13:22:50Z</time>
      </trkpt>
      <trkpt lat="43.80574" lon="7.0406">
        <ele>1316.3</ele>
        <time>2019-12-30T13:22:51Z</time>
      </trkpt>
      <trkpt lat="43.80573" lon="7.0406">
        <ele>1316.3</ele>
        <time>2019-12-30T13:22:52Z</time>
      </trkpt>
      <trkpt lat="43.80573" lon="7.0406">
        <ele>1316.3</ele>
        <time>2019-12-30T13:22:53Z</time>
      </trkpt>
      <trkpt lat="43.80573" lon="7.0406">
        <ele>1316.8</ele>
        <time>2019-12-30T13:22:54Z</time>
      </trkpt>
      <trkpt lat="43.80573" lon="7.0406">
        <ele>1316.8</ele>
        <time>2019-12-30T13:22:55Z</time>
      </trkpt>
      <trkpt lat="43.80573" lon="7.0406">
        <ele>1316.8</ele>
        <time>2019-12-30T13:22:56Z</time>
      </trkpt>
      <trkpt lat="43.80573" lon="7.0406">
        <ele>1316.8</ele>
        <time>2019-12-30T13:22:57Z</time>
      </trkpt>
      <trkpt lat="43.80573" lon="7.0406">
        <ele>1316.8</ele>
        <time>2019-12-30T13:22:58Z</time>
      </trkpt>
      <trkpt lat="43.80573" lon="7.0406">
        <ele>1316.8</ele>
        <time>2019-12-30T13:22:59Z</time>
      </trkpt>
      <trkpt lat="43.80573" lon="7.0406">
        <ele>1316.8</ele>
        <time>2019-12-30T13:23:00Z</time>
      </trkpt>
      <trkpt lat="43.80573" lon="7.0406">
        <ele>1316.8</ele>
        <time>2019-12-30T13:23:01Z</time>
      </trkpt>
      <trkpt lat="43.80573" lon="7.0406">
        <ele>1316.8</ele>
        <time>2019-12-30T13:23:02Z</time>
      </trkpt>
      <trkpt lat="43.80573" lon="7.0406">
        <ele>1316.8</ele>
        <time>2019-12-30T13:23:03Z</time>
      </trkpt>
      <trkpt lat="43.80573" lon="7.0406">
        <ele>1316.8</ele>
        <time>2019-12-30T13:23:04Z</time>
      </trkpt>
      <trkpt lat="43.80573" lon="7.0406">
        <ele>1316.8</ele>
        <time>2019-12-30T13:23:05Z</time>
      </trkpt>
      <trkpt lat="43.80573" lon="7.0406">
        <ele>1316.8</ele>
        <time>2019-12-30T13:23:06Z</time>
      </trkpt>
      <trkpt lat="43.80573" lon="7.0406">
        <ele>1316.8</ele>
        <time>2019-12-30T13:23:07Z</time>
      </trkpt>
      <trkpt lat="43.80573" lon="7.0406">
        <ele>1316.8</ele>
        <time>2019-12-30T13:23:08Z</time>
      </trkpt>
      <trkpt lat="43.80573" lon="7.0406">
        <ele>1316.8</ele>
        <time>2019-12-30T13:23:09Z</time>
      </trkpt>
      <trkpt lat="43.80573" lon="7.0406">
        <ele>1316.8</ele>
        <time>2019-12-30T13:23:10Z</time>
      </trkpt>
      <trkpt lat="43.80573" lon="7.0406">
        <ele>1316.8</ele>
        <time>2019-12-30T13:23:11Z</time>
      </trkpt>
      <trkpt lat="43.80573" lon="7.0406">
        <ele>1316.8</ele>
        <time>2019-12-30T13:23:12Z</time>
      </trkpt>
      <trkpt lat="43.80573" lon="7.0406">
        <ele>1316.8</ele>
        <time>2019-12-30T13:23:13Z</time>
      </trkpt>
      <trkpt lat="43.80573" lon="7.0406">
        <ele>1316.8</ele>
        <time>2019-12-30T13:23:14Z</time>
      </trkpt>
      <trkpt lat="43.80573" lon="7.04061">
        <ele>1316.8</ele>
        <time>2019-12-30T13:23:15Z</time>
      </trkpt>
      <trkpt lat="43.80573" lon="7.04061">
        <ele>1316.8</ele>
        <time>2019-12-30T13:23:16Z</time>
      </trkpt>
      <trkpt lat="43.80573" lon="7.04061">
        <ele>1316.8</ele>
        <time>2019-12-30T13:23:17Z</time>
      </trkpt>
      <trkpt lat="43.80573" lon="7.04061">
        <ele>1316.8</ele>
        <time>2019-12-30T13:23:18Z</time>
      </trkpt>
      <trkpt lat="43.80573" lon="7.04062">
        <ele>1316.8</ele>
        <time>2019-12-30T13:23:19Z</time>
      </trkpt>
      <trkpt lat="43.80573" lon="7.04062">
        <ele>1316.8</ele>
        <time>2019-12-30T13:23:20Z</time>
      </trkpt>
      <trkpt lat="43.80573" lon="7.04063">
        <ele>1316.8</ele>
        <time>2019-12-30T13:23:21Z</time>
      </trkpt>
      <trkpt lat="43.80573" lon="7.04063">
        <ele>1316.8</ele>
        <time>2019-12-30T13:23:22Z</time>
      </trkpt>
      <trkpt lat="43.80573" lon="7.04064">
        <ele>1316.4</ele>
        <time>2019-12-30T13:23:23Z</time>
      </trkpt>
      <trkpt lat="43.80573" lon="7.04065">
        <ele>1316.4</ele>
        <time>2019-12-30T13:23:24Z</time>
      </trkpt>
      <trkpt lat="43.80574" lon="7.04065">
        <ele>1316.4</ele>
        <time>2019-12-30T13:23:25Z</time>
      </trkpt>
      <trkpt lat="43.80574" lon="7.04066">
        <ele>1316.4</ele>
        <time>2019-12-30T13:23:26Z</time>
      </trkpt>
      <trkpt lat="43.80574" lon="7.04066">
        <ele>1316.4</ele>
        <time>2019-12-30T13:23:27Z</time>
      </trkpt>
      <trkpt lat="43.80574" lon="7.04067">
        <ele>1316.4</ele>
        <time>2019-12-30T13:23:28Z</time>
      </trkpt>
      <trkpt lat="43.80575" lon="7.04067">
        <ele>1316.4</ele>
        <time>2019-12-30T13:23:29Z</time>
      </trkpt>
      <trkpt lat="43.80575" lon="7.04067">
        <ele>1316.4</ele>
        <time>2019-12-30T13:23:30Z</time>
      </trkpt>
      <trkpt lat="43.80576" lon="7.04067">
        <ele>1316.4</ele>
        <time>2019-12-30T13:23:31Z</time>
      </trkpt>
      <trkpt lat="43.80576" lon="7.04067">
        <ele>1316.4</ele>
        <time>2019-12-30T13:23:32Z</time>
      </trkpt>
      <trkpt lat="43.80576" lon="7.04066">
        <ele>1316</ele>
        <time>2019-12-30T13:23:33Z</time>
      </trkpt>
      <trkpt lat="43.80577" lon="7.04066">
        <ele>1316</ele>
        <time>2019-12-30T13:23:34Z</time>
      </trkpt>
      <trkpt lat="43.80577" lon="7.04065">
        <ele>1316</ele>
        <time>2019-12-30T13:23:35Z</time>
      </trkpt>
      <trkpt lat="43.80578" lon="7.04065">
        <ele>1316</ele>
        <time>2019-12-30T13:23:36Z</time>
      </trkpt>
      <trkpt lat="43.80578" lon="7.04065">
        <ele>1315.9</ele>
        <time>2019-12-30T13:23:37Z</time>
      </trkpt>
      <trkpt lat="43.80578" lon="7.04064">
        <ele>1315.9</ele>
        <time>2019-12-30T13:23:38Z</time>
      </trkpt>
      <trkpt lat="43.80579" lon="7.04064">
        <ele>1315.9</ele>
        <time>2019-12-30T13:23:39Z</time>
      </trkpt>
      <trkpt lat="43.80579" lon="7.04064">
        <ele>1315.9</ele>
        <time>2019-12-30T13:23:40Z</time>
      </trkpt>
      <trkpt lat="43.80579" lon="7.04064">
        <ele>1315.4</ele>
        <time>2019-12-30T13:23:41Z</time>
      </trkpt>
      <trkpt lat="43.8058" lon="7.04065">
        <ele>1315.5</ele>
        <time>2019-12-30T13:23:42Z</time>
      </trkpt>
      <trkpt lat="43.8058" lon="7.04066">
        <ele>1315.5</ele>
        <time>2019-12-30T13:23:43Z</time>
      </trkpt>
      <trkpt lat="43.80581" lon="7.04067">
        <ele>1315.5</ele>
        <time>2019-12-30T13:23:44Z</time>
      </trkpt>
      <trkpt lat="43.80581" lon="7.04068">
        <ele>1315.5</ele>
        <time>2019-12-30T13:23:45Z</time>
      </trkpt>
      <trkpt lat="43.80581" lon="7.04069">
        <ele>1315.5</ele>
        <time>2019-12-30T13:23:46Z</time>
      </trkpt>
      <trkpt lat="43.80582" lon="7.04071">
        <ele>1315.5</ele>
        <time>2019-12-30T13:23:47Z</time>
      </trkpt>
      <trkpt lat="43.80582" lon="7.04072">
        <ele>1315.5</ele>
        <time>2019-12-30T13:23:48Z</time>
      </trkpt>
      <trkpt lat="43.80582" lon="7.04074">
        <ele>1315.1</ele>
        <time>2019-12-30T13:23:49Z</time>
      </trkpt>
      <trkpt lat="43.80583" lon="7.04075">
        <ele>1315.1</ele>
        <time>2019-12-30T13:23:50Z</time>
      </trkpt>
      <trkpt lat="43.80585" lon="7.04076">
        <ele>1315.1</ele>
        <time>2019-12-30T13:23:51Z</time>
      </trkpt>
      <trkpt lat="43.80587" lon="7.04075">
        <ele>1314.7</ele>
        <time>2019-12-30T13:23:52Z</time>
      </trkpt>
      <trkpt lat="43.80589" lon="7.04073">
        <ele>1314.3</ele>
        <time>2019-12-30T13:23:53Z</time>
      </trkpt>
      <trkpt lat="43.8059" lon="7.04071">
        <ele>1314.3</ele>
        <time>2019-12-30T13:23:54Z</time>
      </trkpt>
      <trkpt lat="43.80592" lon="7.0407">
        <ele>1314</ele>
        <time>2019-12-30T13:23:55Z</time>
      </trkpt>
      <trkpt lat="43.80592" lon="7.04069">
        <ele>1313.9</ele>
        <time>2019-12-30T13:23:56Z</time>
      </trkpt>
      <trkpt lat="43.80593" lon="7.04068">
        <ele>1313.9</ele>
        <time>2019-12-30T13:23:57Z</time>
      </trkpt>
      <trkpt lat="43.80593" lon="7.04068">
        <ele>1313.9</ele>
        <time>2019-12-30T13:23:58Z</time>
      </trkpt>
      <trkpt lat="43.80593" lon="7.04068">
        <ele>1313.9</ele>
        <time>2019-12-30T13:23:59Z</time>
      </trkpt>
      <trkpt lat="43.80593" lon="7.04068">
        <ele>1313.9</ele>
        <time>2019-12-30T13:24:00Z</time>
      </trkpt>
      <trkpt lat="43.80593" lon="7.04068">
        <ele>1313.9</ele>
        <time>2019-12-30T13:24:01Z</time>
      </trkpt>
      <trkpt lat="43.80593" lon="7.04067">
        <ele>1313.9</ele>
        <time>2019-12-30T13:24:02Z</time>
      </trkpt>
      <trkpt lat="43.80593" lon="7.04067">
        <ele>1313.9</ele>
        <time>2019-12-30T13:24:03Z</time>
      </trkpt>
      <trkpt lat="43.80594" lon="7.04067">
        <ele>1313.9</ele>
        <time>2019-12-30T13:24:04Z</time>
      </trkpt>
      <trkpt lat="43.80594" lon="7.04066">
        <ele>1313.9</ele>
        <time>2019-12-30T13:24:05Z</time>
      </trkpt>
      <trkpt lat="43.80595" lon="7.04065">
        <ele>1313.9</ele>
        <time>2019-12-30T13:24:06Z</time>
      </trkpt>
      <trkpt lat="43.80595" lon="7.04065">
        <ele>1313.6</ele>
        <time>2019-12-30T13:24:07Z</time>
      </trkpt>
      <trkpt lat="43.80596" lon="7.04064">
        <ele>1313.6</ele>
        <time>2019-12-30T13:24:08Z</time>
      </trkpt>
      <trkpt lat="43.80596" lon="7.04063">
        <ele>1313.6</ele>
        <time>2019-12-30T13:24:09Z</time>
      </trkpt>
      <trkpt lat="43.80597" lon="7.04062">
        <ele>1313.6</ele>
        <time>2019-12-30T13:24:10Z</time>
      </trkpt>
      <trkpt lat="43.80597" lon="7.04061">
        <ele>1313.6</ele>
        <time>2019-12-30T13:24:11Z</time>
      </trkpt>
      <trkpt lat="43.80597" lon="7.0406">
        <ele>1313.6</ele>
        <time>2019-12-30T13:24:12Z</time>
      </trkpt>
      <trkpt lat="43.80597" lon="7.04059">
        <ele>1313.6</ele>
        <time>2019-12-30T13:24:13Z</time>
      </trkpt>
      <trkpt lat="43.80597" lon="7.04058">
        <ele>1313.6</ele>
        <time>2019-12-30T13:24:14Z</time>
      </trkpt>
      <trkpt lat="43.80597" lon="7.04057">
        <ele>1313.6</ele>
        <time>2019-12-30T13:24:15Z</time>
      </trkpt>
      <trkpt lat="43.80597" lon="7.04056">
        <ele>1313.6</ele>
        <time>2019-12-30T13:24:16Z</time>
      </trkpt>
      <trkpt lat="43.80596" lon="7.04055">
        <ele>1313.6</ele>
        <time>2019-12-30T13:24:17Z</time>
      </trkpt>
      <trkpt lat="43.80596" lon="7.04054">
        <ele>1313.6</ele>
        <time>2019-12-30T13:24:18Z</time>
      </trkpt>
      <trkpt lat="43.80595" lon="7.04054">
        <ele>1313.6</ele>
        <time>2019-12-30T13:24:19Z</time>
      </trkpt>
      <trkpt lat="43.80594" lon="7.04053">
        <ele>1313.9</ele>
        <time>2019-12-30T13:24:20Z</time>
      </trkpt>
      <trkpt lat="43.80594" lon="7.04053">
        <ele>1313.9</ele>
        <time>2019-12-30T13:24:21Z</time>
      </trkpt>
      <trkpt lat="43.80594" lon="7.04053">
        <ele>1313.9</ele>
        <time>2019-12-30T13:24:22Z</time>
      </trkpt>
      <trkpt lat="43.80593" lon="7.04052">
        <ele>1313.9</ele>
        <time>2019-12-30T13:24:23Z</time>
      </trkpt>
      <trkpt lat="43.80593" lon="7.04052">
        <ele>1313.9</ele>
        <time>2019-12-30T13:24:24Z</time>
      </trkpt>
      <trkpt lat="43.80593" lon="7.04052">
        <ele>1313.9</ele>
        <time>2019-12-30T13:24:25Z</time>
      </trkpt>
      <trkpt lat="43.80593" lon="7.04052">
        <ele>1313.8</ele>
        <time>2019-12-30T13:24:26Z</time>
      </trkpt>
      <trkpt lat="43.80592" lon="7.04051">
        <ele>1313.8</ele>
        <time>2019-12-30T13:24:27Z</time>
      </trkpt>
      <trkpt lat="43.80592" lon="7.0405">
        <ele>1313.8</ele>
        <time>2019-12-30T13:24:28Z</time>
      </trkpt>
      <trkpt lat="43.80591" lon="7.04049">
        <ele>1314.1</ele>
        <time>2019-12-30T13:24:29Z</time>
      </trkpt>
      <trkpt lat="43.80591" lon="7.04048">
        <ele>1314.1</ele>
        <time>2019-12-30T13:24:30Z</time>
      </trkpt>
      <trkpt lat="43.8059" lon="7.04047">
        <ele>1314.1</ele>
        <time>2019-12-30T13:24:31Z</time>
      </trkpt>
      <trkpt lat="43.8059" lon="7.04046">
        <ele>1314.1</ele>
        <time>2019-12-30T13:24:32Z</time>
      </trkpt>
      <trkpt lat="43.80589" lon="7.04046">
        <ele>1314.1</ele>
        <time>2019-12-30T13:24:33Z</time>
      </trkpt>
      <trkpt lat="43.80588" lon="7.04047">
        <ele>1314.4</ele>
        <time>2019-12-30T13:24:34Z</time>
      </trkpt>
      <trkpt lat="43.80588" lon="7.04048">
        <ele>1314.4</ele>
        <time>2019-12-30T13:24:35Z</time>
      </trkpt>
      <trkpt lat="43.80587" lon="7.04049">
        <ele>1314.5</ele>
        <time>2019-12-30T13:24:36Z</time>
      </trkpt>
      <trkpt lat="43.80587" lon="7.04049">
        <ele>1314.5</ele>
        <time>2019-12-30T13:24:37Z</time>
      </trkpt>
      <trkpt lat="43.80587" lon="7.04049">
        <ele>1314.5</ele>
        <time>2019-12-30T13:24:38Z</time>
      </trkpt>
      <trkpt lat="43.80587" lon="7.04048">
        <ele>1314.5</ele>
        <time>2019-12-30T13:24:39Z</time>
      </trkpt>
      <trkpt lat="43.80586" lon="7.04048">
        <ele>1314.5</ele>
        <time>2019-12-30T13:24:40Z</time>
      </trkpt>
      <trkpt lat="43.80586" lon="7.04048">
        <ele>1314.5</ele>
        <time>2019-12-30T13:24:41Z</time>
      </trkpt>
      <trkpt lat="43.80585" lon="7.04049">
        <ele>1314.8</ele>
        <time>2019-12-30T13:24:42Z</time>
      </trkpt>
      <trkpt lat="43.80584" lon="7.0405">
        <ele>1314.8</ele>
        <time>2019-12-30T13:24:43Z</time>
      </trkpt>
      <trkpt lat="43.80584" lon="7.04051">
        <ele>1314.8</ele>
        <time>2019-12-30T13:24:44Z</time>
      </trkpt>
      <trkpt lat="43.80583" lon="7.04053">
        <ele>1314.9</ele>
        <time>2019-12-30T13:24:45Z</time>
      </trkpt>
      <trkpt lat="43.80582" lon="7.04054">
        <ele>1315.3</ele>
        <time>2019-12-30T13:24:46Z</time>
      </trkpt>
      <trkpt lat="43.80582" lon="7.04056">
        <ele>1315.3</ele>
        <time>2019-12-30T13:24:47Z</time>
      </trkpt>
      <trkpt lat="43.80582" lon="7.04057">
        <ele>1315.4</ele>
        <time>2019-12-30T13:24:48Z</time>
      </trkpt>
      <trkpt lat="43.80582" lon="7.04058">
        <ele>1315.4</ele>
        <time>2019-12-30T13:24:49Z</time>
      </trkpt>
      <trkpt lat="43.80582" lon="7.04058">
        <ele>1314.9</ele>
        <time>2019-12-30T13:24:50Z</time>
      </trkpt>
      <trkpt lat="43.80583" lon="7.04059">
        <ele>1314.9</ele>
        <time>2019-12-30T13:24:51Z</time>
      </trkpt>
      <trkpt lat="43.80583" lon="7.04059">
        <ele>1314.9</ele>
        <time>2019-12-30T13:24:52Z</time>
      </trkpt>
      <trkpt lat="43.80582" lon="7.04059">
        <ele>1315.4</ele>
        <time>2019-12-30T13:24:53Z</time>
      </trkpt>
      <trkpt lat="43.80582" lon="7.04059">
        <ele>1315.4</ele>
        <time>2019-12-30T13:24:54Z</time>
      </trkpt>
      <trkpt lat="43.80581" lon="7.0406">
        <ele>1315.4</ele>
        <time>2019-12-30T13:24:55Z</time>
      </trkpt>
      <trkpt lat="43.8058" lon="7.0406">
        <ele>1315.4</ele>
        <time>2019-12-30T13:24:56Z</time>
      </trkpt>
      <trkpt lat="43.80579" lon="7.0406">
        <ele>1315.8</ele>
        <time>2019-12-30T13:24:57Z</time>
      </trkpt>
      <trkpt lat="43.80578" lon="7.0406">
        <ele>1315.8</ele>
        <time>2019-12-30T13:24:58Z</time>
      </trkpt>
      <trkpt lat="43.80578" lon="7.04059">
        <ele>1315.8</ele>
        <time>2019-12-30T13:24:59Z</time>
      </trkpt>
      <trkpt lat="43.80577" lon="7.04059">
        <ele>1315.8</ele>
        <time>2019-12-30T13:25:00Z</time>
      </trkpt>
      <trkpt lat="43.80576" lon="7.04059">
        <ele>1315.8</ele>
        <time>2019-12-30T13:25:01Z</time>
      </trkpt>
      <trkpt lat="43.80576" lon="7.04059">
        <ele>1316.3</ele>
        <time>2019-12-30T13:25:02Z</time>
      </trkpt>
      <trkpt lat="43.80576" lon="7.04058">
        <ele>1316.3</ele>
        <time>2019-12-30T13:25:03Z</time>
      </trkpt>
      <trkpt lat="43.80575" lon="7.04058">
        <ele>1316.3</ele>
        <time>2019-12-30T13:25:04Z</time>
      </trkpt>
      <trkpt lat="43.80575" lon="7.04058">
        <ele>1316.3</ele>
        <time>2019-12-30T13:25:05Z</time>
      </trkpt>
      <trkpt lat="43.80574" lon="7.04058">
        <ele>1316.3</ele>
        <time>2019-12-30T13:25:06Z</time>
      </trkpt>
      <trkpt lat="43.80573" lon="7.04059">
        <ele>1316.3</ele>
        <time>2019-12-30T13:25:07Z</time>
      </trkpt>
      <trkpt lat="43.80572" lon="7.04059">
        <ele>1316.7</ele>
        <time>2019-12-30T13:25:08Z</time>
      </trkpt>
      <trkpt lat="43.80571" lon="7.0406">
        <ele>1316.7</ele>
        <time>2019-12-30T13:25:09Z</time>
      </trkpt>
      <trkpt lat="43.80569" lon="7.04061">
        <ele>1317.2</ele>
        <time>2019-12-30T13:25:10Z</time>
      </trkpt>
      <trkpt lat="43.80567" lon="7.04062">
        <ele>1317.2</ele>
        <time>2019-12-30T13:25:11Z</time>
      </trkpt>
      <trkpt lat="43.80565" lon="7.04063">
        <ele>1317.5</ele>
        <time>2019-12-30T13:25:12Z</time>
      </trkpt>
      <trkpt lat="43.80564" lon="7.04065">
        <ele>1317.8</ele>
        <time>2019-12-30T13:25:13Z</time>
      </trkpt>
      <trkpt lat="43.80562" lon="7.04067">
        <ele>1318.1</ele>
        <time>2019-12-30T13:25:14Z</time>
      </trkpt>
      <trkpt lat="43.8056" lon="7.04068">
        <ele>1318.4</ele>
        <time>2019-12-30T13:25:15Z</time>
      </trkpt>
      <trkpt lat="43.80558" lon="7.0407">
        <ele>1318.7</ele>
        <time>2019-12-30T13:25:16Z</time>
      </trkpt>
      <trkpt lat="43.80557" lon="7.04072">
        <ele>1319</ele>
        <time>2019-12-30T13:25:17Z</time>
      </trkpt>
      <trkpt lat="43.80555" lon="7.04074">
        <ele>1319.3</ele>
        <time>2019-12-30T13:25:18Z</time>
      </trkpt>
      <trkpt lat="43.80553" lon="7.04075">
        <ele>1319.7</ele>
        <time>2019-12-30T13:25:19Z</time>
      </trkpt>
      <trkpt lat="43.80551" lon="7.04076">
        <ele>1320</ele>
        <time>2019-12-30T13:25:20Z</time>
      </trkpt>
      <trkpt lat="43.80549" lon="7.04077">
        <ele>1320.4</ele>
        <time>2019-12-30T13:25:21Z</time>
      </trkpt>
      <trkpt lat="43.80547" lon="7.04078">
        <ele>1320.7</ele>
        <time>2019-12-30T13:25:22Z</time>
      </trkpt>
      <trkpt lat="43.80545" lon="7.04078">
        <ele>1321</ele>
        <time>2019-12-30T13:25:23Z</time>
      </trkpt>
      <trkpt lat="43.80544" lon="7.04079">
        <ele>1321.2</ele>
        <time>2019-12-30T13:25:24Z</time>
      </trkpt>
      <trkpt lat="43.80543" lon="7.04079">
        <ele>1321.3</ele>
        <time>2019-12-30T13:25:25Z</time>
      </trkpt>
      <trkpt lat="43.80542" lon="7.0408">
        <ele>1321.5</ele>
        <time>2019-12-30T13:25:26Z</time>
      </trkpt>
      <trkpt lat="43.80541" lon="7.04082">
        <ele>1321.7</ele>
        <time>2019-12-30T13:25:27Z</time>
      </trkpt>
      <trkpt lat="43.8054" lon="7.04083">
        <ele>1321.9</ele>
        <time>2019-12-30T13:25:28Z</time>
      </trkpt>
      <trkpt lat="43.80539" lon="7.04085">
        <ele>1322.2</ele>
        <time>2019-12-30T13:25:29Z</time>
      </trkpt>
      <trkpt lat="43.80538" lon="7.04088">
        <ele>1322.5</ele>
        <time>2019-12-30T13:25:30Z</time>
      </trkpt>
      <trkpt lat="43.80537" lon="7.0409">
        <ele>1322.8</ele>
        <time>2019-12-30T13:25:31Z</time>
      </trkpt>
      <trkpt lat="43.80537" lon="7.04092">
        <ele>1323.1</ele>
        <time>2019-12-30T13:25:32Z</time>
      </trkpt>
      <trkpt lat="43.80536" lon="7.04094">
        <ele>1323.7</ele>
        <time>2019-12-30T13:25:33Z</time>
      </trkpt>
      <trkpt lat="43.80535" lon="7.04096">
        <ele>1324.2</ele>
        <time>2019-12-30T13:25:34Z</time>
      </trkpt>
      <trkpt lat="43.80535" lon="7.04098">
        <ele>1324.7</ele>
        <time>2019-12-30T13:25:35Z</time>
      </trkpt>
      <trkpt lat="43.80534" lon="7.041">
        <ele>1325.1</ele>
        <time>2019-12-30T13:25:36Z</time>
      </trkpt>
      <trkpt lat="43.80533" lon="7.04102">
        <ele>1325.5</ele>
        <time>2019-12-30T13:25:37Z</time>
      </trkpt>
      <trkpt lat="43.80532" lon="7.04103">
        <ele>1325.9</ele>
        <time>2019-12-30T13:25:38Z</time>
      </trkpt>
      <trkpt lat="43.80532" lon="7.04105">
        <ele>1326.2</ele>
        <time>2019-12-30T13:25:39Z</time>
      </trkpt>
      <trkpt lat="43.80531" lon="7.04107">
        <ele>1326.6</ele>
        <time>2019-12-30T13:25:40Z</time>
      </trkpt>
      <trkpt lat="43.8053" lon="7.0411">
        <ele>1327</ele>
        <time>2019-12-30T13:25:41Z</time>
      </trkpt>
      <trkpt lat="43.80529" lon="7.04113">
        <ele>1327.4</ele>
        <time>2019-12-30T13:25:42Z</time>
      </trkpt>
      <trkpt lat="43.80528" lon="7.04115">
        <ele>1327.6</ele>
        <time>2019-12-30T13:25:43Z</time>
      </trkpt>
      <trkpt lat="43.80527" lon="7.04118">
        <ele>1327.8</ele>
        <time>2019-12-30T13:25:44Z</time>
      </trkpt>
      <trkpt lat="43.80526" lon="7.0412">
        <ele>1328</ele>
        <time>2019-12-30T13:25:45Z</time>
      </trkpt>
      <trkpt lat="43.80525" lon="7.04122">
        <ele>1328.1</ele>
        <time>2019-12-30T13:25:46Z</time>
      </trkpt>
      <trkpt lat="43.80525" lon="7.04125">
        <ele>1328.3</ele>
        <time>2019-12-30T13:25:47Z</time>
      </trkpt>
      <trkpt lat="43.80524" lon="7.04127">
        <ele>1328.4</ele>
        <time>2019-12-30T13:25:48Z</time>
      </trkpt>
      <trkpt lat="43.80523" lon="7.0413">
        <ele>1328.6</ele>
        <time>2019-12-30T13:25:49Z</time>
      </trkpt>
      <trkpt lat="43.80522" lon="7.04133">
        <ele>1328.7</ele>
        <time>2019-12-30T13:25:50Z</time>
      </trkpt>
      <trkpt lat="43.8052" lon="7.04135">
        <ele>1328.9</ele>
        <time>2019-12-30T13:25:51Z</time>
      </trkpt>
      <trkpt lat="43.80519" lon="7.04138">
        <ele>1329.1</ele>
        <time>2019-12-30T13:25:52Z</time>
      </trkpt>
      <trkpt lat="43.80518" lon="7.04141">
        <ele>1329.4</ele>
        <time>2019-12-30T13:25:53Z</time>
      </trkpt>
      <trkpt lat="43.80516" lon="7.04144">
        <ele>1329.7</ele>
        <time>2019-12-30T13:25:54Z</time>
      </trkpt>
      <trkpt lat="43.80514" lon="7.04146">
        <ele>1330</ele>
        <time>2019-12-30T13:25:55Z</time>
      </trkpt>
      <trkpt lat="43.80512" lon="7.04149">
        <ele>1330.4</ele>
        <time>2019-12-30T13:25:56Z</time>
      </trkpt>
      <trkpt lat="43.8051" lon="7.04152">
        <ele>1330.8</ele>
        <time>2019-12-30T13:25:57Z</time>
      </trkpt>
      <trkpt lat="43.80507" lon="7.04154">
        <ele>1331.6</ele>
        <time>2019-12-30T13:25:58Z</time>
      </trkpt>
      <trkpt lat="43.80505" lon="7.04157">
        <ele>1332.6</ele>
        <time>2019-12-30T13:25:59Z</time>
      </trkpt>
      <trkpt lat="43.80502" lon="7.04159">
        <ele>1333.6</ele>
        <time>2019-12-30T13:26:00Z</time>
      </trkpt>
      <trkpt lat="43.80499" lon="7.04161">
        <ele>1334.6</ele>
        <time>2019-12-30T13:26:01Z</time>
      </trkpt>
      <trkpt lat="43.80495" lon="7.04164">
        <ele>1335.4</ele>
        <time>2019-12-30T13:26:02Z</time>
      </trkpt>
      <trkpt lat="43.80494" lon="7.04165">
        <ele>1335.5</ele>
        <time>2019-12-30T13:26:03Z</time>
      </trkpt>
      <trkpt lat="43.80493" lon="7.04166">
        <ele>1335.7</ele>
        <time>2019-12-30T13:26:04Z</time>
      </trkpt>
      <trkpt lat="43.80492" lon="7.04166">
        <ele>1335.8</ele>
        <time>2019-12-30T13:26:05Z</time>
      </trkpt>
      <trkpt lat="43.80492" lon="7.04167">
        <ele>1336</ele>
        <time>2019-12-30T13:26:06Z</time>
      </trkpt>
      <trkpt lat="43.80491" lon="7.04168">
        <ele>1336.3</ele>
        <time>2019-12-30T13:26:07Z</time>
      </trkpt>
      <trkpt lat="43.8049" lon="7.04169">
        <ele>1336.5</ele>
        <time>2019-12-30T13:26:08Z</time>
      </trkpt>
      <trkpt lat="43.80489" lon="7.0417">
        <ele>1336.8</ele>
        <time>2019-12-30T13:26:09Z</time>
      </trkpt>
      <trkpt lat="43.80488" lon="7.04171">
        <ele>1337.1</ele>
        <time>2019-12-30T13:26:10Z</time>
      </trkpt>
      <trkpt lat="43.80487" lon="7.04171">
        <ele>1337.3</ele>
        <time>2019-12-30T13:26:11Z</time>
      </trkpt>
      <trkpt lat="43.80487" lon="7.04172">
        <ele>1337.5</ele>
        <time>2019-12-30T13:26:12Z</time>
      </trkpt>
      <trkpt lat="43.80486" lon="7.04173">
        <ele>1337.5</ele>
        <time>2019-12-30T13:26:13Z</time>
      </trkpt>
      <trkpt lat="43.80486" lon="7.04173">
        <ele>1337.6</ele>
        <time>2019-12-30T13:26:14Z</time>
      </trkpt>
      <trkpt lat="43.80486" lon="7.04173">
        <ele>1337.7</ele>
        <time>2019-12-30T13:26:15Z</time>
      </trkpt>
      <trkpt lat="43.80486" lon="7.04174">
        <ele>1337.7</ele>
        <time>2019-12-30T13:26:16Z</time>
      </trkpt>
      <trkpt lat="43.80486" lon="7.04174">
        <ele>1337.8</ele>
        <time>2019-12-30T13:26:17Z</time>
      </trkpt>
      <trkpt lat="43.80486" lon="7.04174">
        <ele>1337.8</ele>
        <time>2019-12-30T13:26:18Z</time>
      </trkpt>
      <trkpt lat="43.80485" lon="7.04176">
        <ele>1338.1</ele>
        <time>2019-12-30T13:26:19Z</time>
      </trkpt>
      <trkpt lat="43.80485" lon="7.04178">
        <ele>1338.3</ele>
        <time>2019-12-30T13:26:20Z</time>
      </trkpt>
      <trkpt lat="43.80484" lon="7.04181">
        <ele>1338.5</ele>
        <time>2019-12-30T13:26:21Z</time>
      </trkpt>
      <trkpt lat="43.80483" lon="7.04184">
        <ele>1338.8</ele>
        <time>2019-12-30T13:26:22Z</time>
      </trkpt>
      <trkpt lat="43.80482" lon="7.04187">
        <ele>1339.3</ele>
        <time>2019-12-30T13:26:23Z</time>
      </trkpt>
      <trkpt lat="43.80481" lon="7.04191">
        <ele>1340</ele>
        <time>2019-12-30T13:26:24Z</time>
      </trkpt>
      <trkpt lat="43.80479" lon="7.04195">
        <ele>1340.7</ele>
        <time>2019-12-30T13:26:25Z</time>
      </trkpt>
      <trkpt lat="43.80477" lon="7.04198">
        <ele>1341</ele>
        <time>2019-12-30T13:26:26Z</time>
      </trkpt>
      <trkpt lat="43.80476" lon="7.04202">
        <ele>1341.3</ele>
        <time>2019-12-30T13:26:27Z</time>
      </trkpt>
      <trkpt lat="43.80474" lon="7.04205">
        <ele>1341.6</ele>
        <time>2019-12-30T13:26:28Z</time>
      </trkpt>
      <trkpt lat="43.80473" lon="7.04209">
        <ele>1342.2</ele>
        <time>2019-12-30T13:26:29Z</time>
      </trkpt>
      <trkpt lat="43.80471" lon="7.04213">
        <ele>1342.8</ele>
        <time>2019-12-30T13:26:30Z</time>
      </trkpt>
      <trkpt lat="43.8047" lon="7.04216">
        <ele>1342.8</ele>
        <time>2019-12-30T13:26:31Z</time>
      </trkpt>
      <trkpt lat="43.80469" lon="7.0422">
        <ele>1342.5</ele>
        <time>2019-12-30T13:26:32Z</time>
      </trkpt>
      <trkpt lat="43.80468" lon="7.04224">
        <ele>1342.3</ele>
        <time>2019-12-30T13:26:33Z</time>
      </trkpt>
      <trkpt lat="43.80468" lon="7.04229">
        <ele>1341.9</ele>
        <time>2019-12-30T13:26:34Z</time>
      </trkpt>
      <trkpt lat="43.80468" lon="7.04234">
        <ele>1341.6</ele>
        <time>2019-12-30T13:26:35Z</time>
      </trkpt>
      <trkpt lat="43.80468" lon="7.04238">
        <ele>1341.5</ele>
        <time>2019-12-30T13:26:36Z</time>
      </trkpt>
      <trkpt lat="43.80468" lon="7.04242">
        <ele>1341.5</ele>
        <time>2019-12-30T13:26:37Z</time>
      </trkpt>
      <trkpt lat="43.80468" lon="7.04247">
        <ele>1340.9</ele>
        <time>2019-12-30T13:26:38Z</time>
      </trkpt>
      <trkpt lat="43.80468" lon="7.04251">
        <ele>1340</ele>
        <time>2019-12-30T13:26:39Z</time>
      </trkpt>
      <trkpt lat="43.80468" lon="7.04255">
        <ele>1339.4</ele>
        <time>2019-12-30T13:26:40Z</time>
      </trkpt>
      <trkpt lat="43.80469" lon="7.0426">
        <ele>1339</ele>
        <time>2019-12-30T13:26:41Z</time>
      </trkpt>
      <trkpt lat="43.80469" lon="7.04264">
        <ele>1338.6</ele>
        <time>2019-12-30T13:26:42Z</time>
      </trkpt>
      <trkpt lat="43.80469" lon="7.04268">
        <ele>1338.2</ele>
        <time>2019-12-30T13:26:43Z</time>
      </trkpt>
      <trkpt lat="43.8047" lon="7.04272">
        <ele>1337.9</ele>
        <time>2019-12-30T13:26:44Z</time>
      </trkpt>
      <trkpt lat="43.8047" lon="7.04276">
        <ele>1337.5</ele>
        <time>2019-12-30T13:26:45Z</time>
      </trkpt>
      <trkpt lat="43.8047" lon="7.0428">
        <ele>1337</ele>
        <time>2019-12-30T13:26:46Z</time>
      </trkpt>
      <trkpt lat="43.80469" lon="7.04284">
        <ele>1336.7</ele>
        <time>2019-12-30T13:26:47Z</time>
      </trkpt>
      <trkpt lat="43.80469" lon="7.04287">
        <ele>1336.5</ele>
        <time>2019-12-30T13:26:48Z</time>
      </trkpt>
      <trkpt lat="43.80468" lon="7.0429">
        <ele>1336.3</ele>
        <time>2019-12-30T13:26:49Z</time>
      </trkpt>
      <trkpt lat="43.80467" lon="7.04293">
        <ele>1336.1</ele>
        <time>2019-12-30T13:26:50Z</time>
      </trkpt>
      <trkpt lat="43.80466" lon="7.04296">
        <ele>1336.1</ele>
        <time>2019-12-30T13:26:51Z</time>
      </trkpt>
      <trkpt lat="43.80465" lon="7.04299">
        <ele>1336.1</ele>
        <time>2019-12-30T13:26:52Z</time>
      </trkpt>
      <trkpt lat="43.80464" lon="7.04302">
        <ele>1336.1</ele>
        <time>2019-12-30T13:26:53Z</time>
      </trkpt>
      <trkpt lat="43.80463" lon="7.04306">
        <ele>1336.1</ele>
        <time>2019-12-30T13:26:54Z</time>
      </trkpt>
      <trkpt lat="43.8046" lon="7.0431">
        <ele>1336.1</ele>
        <time>2019-12-30T13:26:55Z</time>
      </trkpt>
      <trkpt lat="43.80458" lon="7.04314">
        <ele>1336.2</ele>
        <time>2019-12-30T13:26:56Z</time>
      </trkpt>
      <trkpt lat="43.80456" lon="7.04318">
        <ele>1336.1</ele>
        <time>2019-12-30T13:26:57Z</time>
      </trkpt>
      <trkpt lat="43.80454" lon="7.04321">
        <ele>1336</ele>
        <time>2019-12-30T13:26:58Z</time>
      </trkpt>
      <trkpt lat="43.80452" lon="7.04325">
        <ele>1336.4</ele>
        <time>2019-12-30T13:26:59Z</time>
      </trkpt>
      <trkpt lat="43.80451" lon="7.04329">
        <ele>1336.7</ele>
        <time>2019-12-30T13:27:00Z</time>
      </trkpt>
      <trkpt lat="43.8045" lon="7.04333">
        <ele>1337.1</ele>
        <time>2019-12-30T13:27:01Z</time>
      </trkpt>
      <trkpt lat="43.80448" lon="7.04337">
        <ele>1337.5</ele>
        <time>2019-12-30T13:27:02Z</time>
      </trkpt>
      <trkpt lat="43.80447" lon="7.04341">
        <ele>1337.9</ele>
        <time>2019-12-30T13:27:03Z</time>
      </trkpt>
      <trkpt lat="43.80446" lon="7.04345">
        <ele>1338.1</ele>
        <time>2019-12-30T13:27:04Z</time>
      </trkpt>
      <trkpt lat="43.80445" lon="7.04348">
        <ele>1338.2</ele>
        <time>2019-12-30T13:27:05Z</time>
      </trkpt>
      <trkpt lat="43.80444" lon="7.04352">
        <ele>1338.4</ele>
        <time>2019-12-30T13:27:06Z</time>
      </trkpt>
      <trkpt lat="43.80444" lon="7.04356">
        <ele>1338.5</ele>
        <time>2019-12-30T13:27:07Z</time>
      </trkpt>
      <trkpt lat="43.80443" lon="7.04359">
        <ele>1338.6</ele>
        <time>2019-12-30T13:27:08Z</time>
      </trkpt>
      <trkpt lat="43.80442" lon="7.04361">
        <ele>1338.6</ele>
        <time>2019-12-30T13:27:09Z</time>
      </trkpt>
      <trkpt lat="43.80442" lon="7.04364">
        <ele>1338.5</ele>
        <time>2019-12-30T13:27:10Z</time>
      </trkpt>
      <trkpt lat="43.80441" lon="7.04368">
        <ele>1338.4</ele>
        <time>2019-12-30T13:27:11Z</time>
      </trkpt>
      <trkpt lat="43.8044" lon="7.04371">
        <ele>1338.3</ele>
        <time>2019-12-30T13:27:12Z</time>
      </trkpt>
      <trkpt lat="43.80439" lon="7.04375">
        <ele>1338.4</ele>
        <time>2019-12-30T13:27:13Z</time>
      </trkpt>
      <trkpt lat="43.80437" lon="7.04377">
        <ele>1338.5</ele>
        <time>2019-12-30T13:27:14Z</time>
      </trkpt>
      <trkpt lat="43.80435" lon="7.0438">
        <ele>1338.6</ele>
        <time>2019-12-30T13:27:15Z</time>
      </trkpt>
      <trkpt lat="43.80434" lon="7.04382">
        <ele>1338.7</ele>
        <time>2019-12-30T13:27:16Z</time>
      </trkpt>
      <trkpt lat="43.80432" lon="7.04384">
        <ele>1338.7</ele>
        <time>2019-12-30T13:27:17Z</time>
      </trkpt>
      <trkpt lat="43.80431" lon="7.04386">
        <ele>1338.7</ele>
        <time>2019-12-30T13:27:18Z</time>
      </trkpt>
      <trkpt lat="43.8043" lon="7.04388">
        <ele>1338.8</ele>
        <time>2019-12-30T13:27:19Z</time>
      </trkpt>
      <trkpt lat="43.80429" lon="7.04391">
        <ele>1338.8</ele>
        <time>2019-12-30T13:27:20Z</time>
      </trkpt>
      <trkpt lat="43.80428" lon="7.04393">
        <ele>1338.9</ele>
        <time>2019-12-30T13:27:21Z</time>
      </trkpt>
      <trkpt lat="43.80426" lon="7.04395">
        <ele>1338.9</ele>
        <time>2019-12-30T13:27:22Z</time>
      </trkpt>
      <trkpt lat="43.80425" lon="7.04397">
        <ele>1339</ele>
        <time>2019-12-30T13:27:23Z</time>
      </trkpt>
      <trkpt lat="43.80424" lon="7.04399">
        <ele>1339</ele>
        <time>2019-12-30T13:27:24Z</time>
      </trkpt>
      <trkpt lat="43.80423" lon="7.04401">
        <ele>1339.1</ele>
        <time>2019-12-30T13:27:25Z</time>
      </trkpt>
      <trkpt lat="43.80421" lon="7.04403">
        <ele>1339.1</ele>
        <time>2019-12-30T13:27:26Z</time>
      </trkpt>
      <trkpt lat="43.8042" lon="7.04405">
        <ele>1339.1</ele>
        <time>2019-12-30T13:27:27Z</time>
      </trkpt>
      <trkpt lat="43.80419" lon="7.04408">
        <ele>1339.1</ele>
        <time>2019-12-30T13:27:28Z</time>
      </trkpt>
      <trkpt lat="43.80418" lon="7.0441">
        <ele>1339</ele>
        <time>2019-12-30T13:27:29Z</time>
      </trkpt>
      <trkpt lat="43.80417" lon="7.04412">
        <ele>1338.9</ele>
        <time>2019-12-30T13:27:30Z</time>
      </trkpt>
      <trkpt lat="43.80416" lon="7.04414">
        <ele>1338.9</ele>
        <time>2019-12-30T13:27:31Z</time>
      </trkpt>
      <trkpt lat="43.80414" lon="7.04416">
        <ele>1339.5</ele>
        <time>2019-12-30T13:27:32Z</time>
      </trkpt>
      <trkpt lat="43.80412" lon="7.04418">
        <ele>1340.2</ele>
        <time>2019-12-30T13:27:33Z</time>
      </trkpt>
      <trkpt lat="43.8041" lon="7.04419">
        <ele>1340.9</ele>
        <time>2019-12-30T13:27:34Z</time>
      </trkpt>
      <trkpt lat="43.80409" lon="7.0442">
        <ele>1341.5</ele>
        <time>2019-12-30T13:27:35Z</time>
      </trkpt>
      <trkpt lat="43.80407" lon="7.04421">
        <ele>1341.8</ele>
        <time>2019-12-30T13:27:36Z</time>
      </trkpt>
      <trkpt lat="43.80406" lon="7.04422">
        <ele>1342</ele>
        <time>2019-12-30T13:27:37Z</time>
      </trkpt>
      <trkpt lat="43.80405" lon="7.04423">
        <ele>1342.2</ele>
        <time>2019-12-30T13:27:38Z</time>
      </trkpt>
      <trkpt lat="43.80405" lon="7.04423">
        <ele>1342.2</ele>
        <time>2019-12-30T13:27:39Z</time>
      </trkpt>
      <trkpt lat="43.80405" lon="7.04423">
        <ele>1342.3</ele>
        <time>2019-12-30T13:27:40Z</time>
      </trkpt>
      <trkpt lat="43.80404" lon="7.04423">
        <ele>1342.3</ele>
        <time>2019-12-30T13:27:41Z</time>
      </trkpt>
      <trkpt lat="43.80404" lon="7.04424">
        <ele>1342.3</ele>
        <time>2019-12-30T13:27:42Z</time>
      </trkpt>
      <trkpt lat="43.80404" lon="7.04424">
        <ele>1342.4</ele>
        <time>2019-12-30T13:27:43Z</time>
      </trkpt>
      <trkpt lat="43.80404" lon="7.04424">
        <ele>1342.4</ele>
        <time>2019-12-30T13:27:44Z</time>
      </trkpt>
      <trkpt lat="43.80404" lon="7.04424">
        <ele>1342.4</ele>
        <time>2019-12-30T13:27:45Z</time>
      </trkpt>
      <trkpt lat="43.80403" lon="7.04424">
        <ele>1342.5</ele>
        <time>2019-12-30T13:27:46Z</time>
      </trkpt>
      <trkpt lat="43.80403" lon="7.04425">
        <ele>1342.5</ele>
        <time>2019-12-30T13:27:47Z</time>
      </trkpt>
      <trkpt lat="43.80403" lon="7.04425">
        <ele>1342.5</ele>
        <time>2019-12-30T13:27:48Z</time>
      </trkpt>
      <trkpt lat="43.80403" lon="7.04425">
        <ele>1342.5</ele>
        <time>2019-12-30T13:27:49Z</time>
      </trkpt>
      <trkpt lat="43.80403" lon="7.04425">
        <ele>1342.5</ele>
        <time>2019-12-30T13:27:50Z</time>
      </trkpt>
      <trkpt lat="43.80403" lon="7.04425">
        <ele>1342.5</ele>
        <time>2019-12-30T13:27:51Z</time>
      </trkpt>
      <trkpt lat="43.80403" lon="7.04425">
        <ele>1342.5</ele>
        <time>2019-12-30T13:27:52Z</time>
      </trkpt>
      <trkpt lat="43.80403" lon="7.04425">
        <ele>1342.5</ele>
        <time>2019-12-30T13:27:53Z</time>
      </trkpt>
      <trkpt lat="43.80403" lon="7.04425">
        <ele>1342.6</ele>
        <time>2019-12-30T13:27:54Z</time>
      </trkpt>
      <trkpt lat="43.80403" lon="7.04426">
        <ele>1342.7</ele>
        <time>2019-12-30T13:27:55Z</time>
      </trkpt>
      <trkpt lat="43.80402" lon="7.04427">
        <ele>1342.8</ele>
        <time>2019-12-30T13:27:56Z</time>
      </trkpt>
      <trkpt lat="43.80401" lon="7.04428">
        <ele>1343</ele>
        <time>2019-12-30T13:27:57Z</time>
      </trkpt>
      <trkpt lat="43.80399" lon="7.04429">
        <ele>1343.4</ele>
        <time>2019-12-30T13:27:58Z</time>
      </trkpt>
      <trkpt lat="43.80397" lon="7.0443">
        <ele>1343.9</ele>
        <time>2019-12-30T13:27:59Z</time>
      </trkpt>
      <trkpt lat="43.80394" lon="7.04431">
        <ele>1344.5</ele>
        <time>2019-12-30T13:28:00Z</time>
      </trkpt>
      <trkpt lat="43.80392" lon="7.04432">
        <ele>1344.9</ele>
        <time>2019-12-30T13:28:01Z</time>
      </trkpt>
      <trkpt lat="43.80389" lon="7.04433">
        <ele>1345.3</ele>
        <time>2019-12-30T13:28:02Z</time>
      </trkpt>
      <trkpt lat="43.80386" lon="7.04434">
        <ele>1345.7</ele>
        <time>2019-12-30T13:28:03Z</time>
      </trkpt>
      <trkpt lat="43.80383" lon="7.04435">
        <ele>1346</ele>
        <time>2019-12-30T13:28:04Z</time>
      </trkpt>
      <trkpt lat="43.80381" lon="7.04437">
        <ele>1346.3</ele>
        <time>2019-12-30T13:28:05Z</time>
      </trkpt>
      <trkpt lat="43.80378" lon="7.04439">
        <ele>1346.7</ele>
        <time>2019-12-30T13:28:06Z</time>
      </trkpt>
      <trkpt lat="43.80376" lon="7.04442">
        <ele>1346.7</ele>
        <time>2019-12-30T13:28:07Z</time>
      </trkpt>
      <trkpt lat="43.80374" lon="7.04446">
        <ele>1346.7</ele>
        <time>2019-12-30T13:28:08Z</time>
      </trkpt>
      <trkpt lat="43.80372" lon="7.04449">
        <ele>1346.7</ele>
        <time>2019-12-30T13:28:09Z</time>
      </trkpt>
      <trkpt lat="43.8037" lon="7.04453">
        <ele>1346.3</ele>
        <time>2019-12-30T13:28:10Z</time>
      </trkpt>
      <trkpt lat="43.80368" lon="7.04458">
        <ele>1346</ele>
        <time>2019-12-30T13:28:11Z</time>
      </trkpt>
      <trkpt lat="43.80366" lon="7.04462">
        <ele>1345.8</ele>
        <time>2019-12-30T13:28:12Z</time>
      </trkpt>
      <trkpt lat="43.80364" lon="7.04467">
        <ele>1345.8</ele>
        <time>2019-12-30T13:28:13Z</time>
      </trkpt>
      <trkpt lat="43.80362" lon="7.04471">
        <ele>1345.7</ele>
        <time>2019-12-30T13:28:14Z</time>
      </trkpt>
      <trkpt lat="43.8036" lon="7.04475">
        <ele>1345.2</ele>
        <time>2019-12-30T13:28:15Z</time>
      </trkpt>
      <trkpt lat="43.80359" lon="7.04479">
        <ele>1344.7</ele>
        <time>2019-12-30T13:28:16Z</time>
      </trkpt>
      <trkpt lat="43.80357" lon="7.04483">
        <ele>1344.5</ele>
        <time>2019-12-30T13:28:17Z</time>
      </trkpt>
      <trkpt lat="43.80356" lon="7.04487">
        <ele>1344.3</ele>
        <time>2019-12-30T13:28:18Z</time>
      </trkpt>
      <trkpt lat="43.80355" lon="7.0449">
        <ele>1344.2</ele>
        <time>2019-12-30T13:28:19Z</time>
      </trkpt>
      <trkpt lat="43.80354" lon="7.04493">
        <ele>1344.1</ele>
        <time>2019-12-30T13:28:20Z</time>
      </trkpt>
      <trkpt lat="43.80353" lon="7.04497">
        <ele>1344</ele>
        <time>2019-12-30T13:28:21Z</time>
      </trkpt>
      <trkpt lat="43.80353" lon="7.04501">
        <ele>1344</ele>
        <time>2019-12-30T13:28:22Z</time>
      </trkpt>
      <trkpt lat="43.80352" lon="7.04505">
        <ele>1343.9</ele>
        <time>2019-12-30T13:28:23Z</time>
      </trkpt>
      <trkpt lat="43.80352" lon="7.04509">
        <ele>1343.6</ele>
        <time>2019-12-30T13:28:24Z</time>
      </trkpt>
      <trkpt lat="43.80352" lon="7.04513">
        <ele>1343.3</ele>
        <time>2019-12-30T13:28:25Z</time>
      </trkpt>
      <trkpt lat="43.80352" lon="7.04517">
        <ele>1343.1</ele>
        <time>2019-12-30T13:28:26Z</time>
      </trkpt>
      <trkpt lat="43.80351" lon="7.04522">
        <ele>1343.1</ele>
        <time>2019-12-30T13:28:27Z</time>
      </trkpt>
      <trkpt lat="43.80351" lon="7.04526">
        <ele>1343</ele>
        <time>2019-12-30T13:28:28Z</time>
      </trkpt>
      <trkpt lat="43.8035" lon="7.0453">
        <ele>1343</ele>
        <time>2019-12-30T13:28:29Z</time>
      </trkpt>
      <trkpt lat="43.80348" lon="7.04534">
        <ele>1342.9</ele>
        <time>2019-12-30T13:28:30Z</time>
      </trkpt>
      <trkpt lat="43.80347" lon="7.04538">
        <ele>1342.8</ele>
        <time>2019-12-30T13:28:31Z</time>
      </trkpt>
      <trkpt lat="43.80345" lon="7.04541">
        <ele>1342.7</ele>
        <time>2019-12-30T13:28:32Z</time>
      </trkpt>
      <trkpt lat="43.80344" lon="7.04545">
        <ele>1342.5</ele>
        <time>2019-12-30T13:28:33Z</time>
      </trkpt>
      <trkpt lat="43.80342" lon="7.04549">
        <ele>1342.3</ele>
        <time>2019-12-30T13:28:34Z</time>
      </trkpt>
      <trkpt lat="43.80341" lon="7.04553">
        <ele>1342.5</ele>
        <time>2019-12-30T13:28:35Z</time>
      </trkpt>
      <trkpt lat="43.8034" lon="7.04557">
        <ele>1342.6</ele>
        <time>2019-12-30T13:28:36Z</time>
      </trkpt>
      <trkpt lat="43.80339" lon="7.04561">
        <ele>1342.8</ele>
        <time>2019-12-30T13:28:37Z</time>
      </trkpt>
      <trkpt lat="43.80339" lon="7.04564">
        <ele>1343</ele>
        <time>2019-12-30T13:28:38Z</time>
      </trkpt>
      <trkpt lat="43.80339" lon="7.04568">
        <ele>1343.2</ele>
        <time>2019-12-30T13:28:39Z</time>
      </trkpt>
      <trkpt lat="43.80339" lon="7.04571">
        <ele>1343.3</ele>
        <time>2019-12-30T13:28:40Z</time>
      </trkpt>
      <trkpt lat="43.80338" lon="7.04573">
        <ele>1343.5</ele>
        <time>2019-12-30T13:28:41Z</time>
      </trkpt>
      <trkpt lat="43.80338" lon="7.04576">
        <ele>1343.7</ele>
        <time>2019-12-30T13:28:42Z</time>
      </trkpt>
      <trkpt lat="43.80338" lon="7.04579">
        <ele>1343.8</ele>
        <time>2019-12-30T13:28:43Z</time>
      </trkpt>
      <trkpt lat="43.80338" lon="7.04582">
        <ele>1343.9</ele>
        <time>2019-12-30T13:28:44Z</time>
      </trkpt>
      <trkpt lat="43.80337" lon="7.04585">
        <ele>1343.9</ele>
        <time>2019-12-30T13:28:45Z</time>
      </trkpt>
      <trkpt lat="43.80337" lon="7.04588">
        <ele>1343.9</ele>
        <time>2019-12-30T13:28:46Z</time>
      </trkpt>
      <trkpt lat="43.80337" lon="7.04591">
        <ele>1343.9</ele>
        <time>2019-12-30T13:28:47Z</time>
      </trkpt>
      <trkpt lat="43.80336" lon="7.04594">
        <ele>1343.9</ele>
        <time>2019-12-30T13:28:48Z</time>
      </trkpt>
      <trkpt lat="43.80336" lon="7.04596">
        <ele>1344.1</ele>
        <time>2019-12-30T13:28:49Z</time>
      </trkpt>
      <trkpt lat="43.80335" lon="7.04599">
        <ele>1344.2</ele>
        <time>2019-12-30T13:28:50Z</time>
      </trkpt>
      <trkpt lat="43.80334" lon="7.04601">
        <ele>1344.3</ele>
        <time>2019-12-30T13:28:51Z</time>
      </trkpt>
      <trkpt lat="43.80333" lon="7.04603">
        <ele>1344.5</ele>
        <time>2019-12-30T13:28:52Z</time>
      </trkpt>
      <trkpt lat="43.80332" lon="7.04605">
        <ele>1344.6</ele>
        <time>2019-12-30T13:28:53Z</time>
      </trkpt>
      <trkpt lat="43.8033" lon="7.04607">
        <ele>1344.8</ele>
        <time>2019-12-30T13:28:54Z</time>
      </trkpt>
      <trkpt lat="43.80329" lon="7.04609">
        <ele>1344.9</ele>
        <time>2019-12-30T13:28:55Z</time>
      </trkpt>
      <trkpt lat="43.80327" lon="7.04611">
        <ele>1345.1</ele>
        <time>2019-12-30T13:28:56Z</time>
      </trkpt>
      <trkpt lat="43.80326" lon="7.04612">
        <ele>1345.2</ele>
        <time>2019-12-30T13:28:57Z</time>
      </trkpt>
      <trkpt lat="43.80324" lon="7.04614">
        <ele>1345.4</ele>
        <time>2019-12-30T13:28:58Z</time>
      </trkpt>
      <trkpt lat="43.80322" lon="7.04616">
        <ele>1345.6</ele>
        <time>2019-12-30T13:28:59Z</time>
      </trkpt>
      <trkpt lat="43.8032" lon="7.04619">
        <ele>1345.7</ele>
        <time>2019-12-30T13:29:00Z</time>
      </trkpt>
      <trkpt lat="43.80319" lon="7.04622">
        <ele>1345.9</ele>
        <time>2019-12-30T13:29:01Z</time>
      </trkpt>
      <trkpt lat="43.80317" lon="7.04624">
        <ele>1346.1</ele>
        <time>2019-12-30T13:29:02Z</time>
      </trkpt>
      <trkpt lat="43.80315" lon="7.04627">
        <ele>1346.3</ele>
        <time>2019-12-30T13:29:03Z</time>
      </trkpt>
      <trkpt lat="43.80314" lon="7.0463">
        <ele>1346.5</ele>
        <time>2019-12-30T13:29:04Z</time>
      </trkpt>
      <trkpt lat="43.80312" lon="7.04632">
        <ele>1346.8</ele>
        <time>2019-12-30T13:29:05Z</time>
      </trkpt>
      <trkpt lat="43.80311" lon="7.04634">
        <ele>1347</ele>
        <time>2019-12-30T13:29:06Z</time>
      </trkpt>
      <trkpt lat="43.80309" lon="7.04636">
        <ele>1347.2</ele>
        <time>2019-12-30T13:29:07Z</time>
      </trkpt>
      <trkpt lat="43.80307" lon="7.04637">
        <ele>1347.4</ele>
        <time>2019-12-30T13:29:08Z</time>
      </trkpt>
      <trkpt lat="43.80305" lon="7.04638">
        <ele>1347.6</ele>
        <time>2019-12-30T13:29:09Z</time>
      </trkpt>
      <trkpt lat="43.80303" lon="7.0464">
        <ele>1347.9</ele>
        <time>2019-12-30T13:29:10Z</time>
      </trkpt>
      <trkpt lat="43.80301" lon="7.04642">
        <ele>1348.1</ele>
        <time>2019-12-30T13:29:11Z</time>
      </trkpt>
      <trkpt lat="43.803" lon="7.04645">
        <ele>1348.4</ele>
        <time>2019-12-30T13:29:12Z</time>
      </trkpt>
      <trkpt lat="43.80298" lon="7.04647">
        <ele>1348.6</ele>
        <time>2019-12-30T13:29:13Z</time>
      </trkpt>
      <trkpt lat="43.80296" lon="7.0465">
        <ele>1348.8</ele>
        <time>2019-12-30T13:29:14Z</time>
      </trkpt>
      <trkpt lat="43.80295" lon="7.04652">
        <ele>1349</ele>
        <time>2019-12-30T13:29:15Z</time>
      </trkpt>
      <trkpt lat="43.80293" lon="7.04654">
        <ele>1349.2</ele>
        <time>2019-12-30T13:29:16Z</time>
      </trkpt>
      <trkpt lat="43.80292" lon="7.04657">
        <ele>1349.3</ele>
        <time>2019-12-30T13:29:17Z</time>
      </trkpt>
      <trkpt lat="43.8029" lon="7.04659">
        <ele>1349.5</ele>
        <time>2019-12-30T13:29:18Z</time>
      </trkpt>
      <trkpt lat="43.80289" lon="7.04661">
        <ele>1349.6</ele>
        <time>2019-12-30T13:29:19Z</time>
      </trkpt>
      <trkpt lat="43.80287" lon="7.04662">
        <ele>1349.8</ele>
        <time>2019-12-30T13:29:20Z</time>
      </trkpt>
      <trkpt lat="43.80285" lon="7.04664">
        <ele>1349.9</ele>
        <time>2019-12-30T13:29:21Z</time>
      </trkpt>
      <trkpt lat="43.80284" lon="7.04666">
        <ele>1350.2</ele>
        <time>2019-12-30T13:29:22Z</time>
      </trkpt>
      <trkpt lat="43.80281" lon="7.04667">
        <ele>1350.4</ele>
        <time>2019-12-30T13:29:23Z</time>
      </trkpt>
      <trkpt lat="43.80279" lon="7.04669">
        <ele>1350.6</ele>
        <time>2019-12-30T13:29:24Z</time>
      </trkpt>
      <trkpt lat="43.80276" lon="7.04671">
        <ele>1350.9</ele>
        <time>2019-12-30T13:29:25Z</time>
      </trkpt>
      <trkpt lat="43.80274" lon="7.04672">
        <ele>1351.2</ele>
        <time>2019-12-30T13:29:26Z</time>
      </trkpt>
      <trkpt lat="43.80272" lon="7.04674">
        <ele>1351.5</ele>
        <time>2019-12-30T13:29:27Z</time>
      </trkpt>
      <trkpt lat="43.80269" lon="7.04675">
        <ele>1351.6</ele>
        <time>2019-12-30T13:29:28Z</time>
      </trkpt>
      <trkpt lat="43.80267" lon="7.04677">
        <ele>1351.7</ele>
        <time>2019-12-30T13:29:29Z</time>
      </trkpt>
      <trkpt lat="43.80264" lon="7.04678">
        <ele>1351.9</ele>
        <time>2019-12-30T13:29:30Z</time>
      </trkpt>
      <trkpt lat="43.80262" lon="7.04678">
        <ele>1352</ele>
        <time>2019-12-30T13:29:31Z</time>
      </trkpt>
      <trkpt lat="43.80259" lon="7.04678">
        <ele>1352.1</ele>
        <time>2019-12-30T13:29:32Z</time>
      </trkpt>
      <trkpt lat="43.80257" lon="7.04679">
        <ele>1352.3</ele>
        <time>2019-12-30T13:29:33Z</time>
      </trkpt>
      <trkpt lat="43.80255" lon="7.04679">
        <ele>1352.4</ele>
        <time>2019-12-30T13:29:34Z</time>
      </trkpt>
      <trkpt lat="43.80253" lon="7.0468">
        <ele>1352.6</ele>
        <time>2019-12-30T13:29:35Z</time>
      </trkpt>
      <trkpt lat="43.80251" lon="7.04681">
        <ele>1352.8</ele>
        <time>2019-12-30T13:29:36Z</time>
      </trkpt>
      <trkpt lat="43.8025" lon="7.04683">
        <ele>1353</ele>
        <time>2019-12-30T13:29:37Z</time>
      </trkpt>
      <trkpt lat="43.80248" lon="7.04685">
        <ele>1353.2</ele>
        <time>2019-12-30T13:29:38Z</time>
      </trkpt>
      <trkpt lat="43.80247" lon="7.04688">
        <ele>1353.4</ele>
        <time>2019-12-30T13:29:39Z</time>
      </trkpt>
      <trkpt lat="43.80246" lon="7.04691">
        <ele>1353.6</ele>
        <time>2019-12-30T13:29:40Z</time>
      </trkpt>
      <trkpt lat="43.80245" lon="7.04694">
        <ele>1353.8</ele>
        <time>2019-12-30T13:29:41Z</time>
      </trkpt>
      <trkpt lat="43.80243" lon="7.04698">
        <ele>1354.1</ele>
        <time>2019-12-30T13:29:42Z</time>
      </trkpt>
      <trkpt lat="43.80242" lon="7.04701">
        <ele>1354.4</ele>
        <time>2019-12-30T13:29:43Z</time>
      </trkpt>
      <trkpt lat="43.80241" lon="7.04703">
        <ele>1354.7</ele>
        <time>2019-12-30T13:29:44Z</time>
      </trkpt>
      <trkpt lat="43.8024" lon="7.04706">
        <ele>1354.9</ele>
        <time>2019-12-30T13:29:45Z</time>
      </trkpt>
      <trkpt lat="43.80239" lon="7.04708">
        <ele>1355</ele>
        <time>2019-12-30T13:29:46Z</time>
      </trkpt>
      <trkpt lat="43.80238" lon="7.04711">
        <ele>1355.2</ele>
        <time>2019-12-30T13:29:47Z</time>
      </trkpt>
      <trkpt lat="43.80237" lon="7.04714">
        <ele>1355.3</ele>
        <time>2019-12-30T13:29:48Z</time>
      </trkpt>
      <trkpt lat="43.80236" lon="7.04717">
        <ele>1355.4</ele>
        <time>2019-12-30T13:29:49Z</time>
      </trkpt>
      <trkpt lat="43.80235" lon="7.04719">
        <ele>1355.5</ele>
        <time>2019-12-30T13:29:50Z</time>
      </trkpt>
      <trkpt lat="43.80234" lon="7.04722">
        <ele>1355.6</ele>
        <time>2019-12-30T13:29:51Z</time>
      </trkpt>
      <trkpt lat="43.80232" lon="7.04725">
        <ele>1355.7</ele>
        <time>2019-12-30T13:29:52Z</time>
      </trkpt>
      <trkpt lat="43.80231" lon="7.04727">
        <ele>1355.6</ele>
        <time>2019-12-30T13:29:53Z</time>
      </trkpt>
      <trkpt lat="43.8023" lon="7.0473">
        <ele>1355.6</ele>
        <time>2019-12-30T13:29:54Z</time>
      </trkpt>
      <trkpt lat="43.80228" lon="7.04733">
        <ele>1355.6</ele>
        <time>2019-12-30T13:29:55Z</time>
      </trkpt>
      <trkpt lat="43.80227" lon="7.04735">
        <ele>1355.5</ele>
        <time>2019-12-30T13:29:56Z</time>
      </trkpt>
      <trkpt lat="43.80226" lon="7.04737">
        <ele>1355.5</ele>
        <time>2019-12-30T13:29:57Z</time>
      </trkpt>
      <trkpt lat="43.80225" lon="7.04739">
        <ele>1355.4</ele>
        <time>2019-12-30T13:29:58Z</time>
      </trkpt>
      <trkpt lat="43.80223" lon="7.0474">
        <ele>1355.4</ele>
        <time>2019-12-30T13:29:59Z</time>
      </trkpt>
      <trkpt lat="43.80222" lon="7.0474">
        <ele>1355.5</ele>
        <time>2019-12-30T13:30:00Z</time>
      </trkpt>
      <trkpt lat="43.8022" lon="7.0474">
        <ele>1355.7</ele>
        <time>2019-12-30T13:30:01Z</time>
      </trkpt>
      <trkpt lat="43.80218" lon="7.04741">
        <ele>1355.9</ele>
        <time>2019-12-30T13:30:02Z</time>
      </trkpt>
      <trkpt lat="43.80217" lon="7.04741">
        <ele>1356.1</ele>
        <time>2019-12-30T13:30:03Z</time>
      </trkpt>
      <trkpt lat="43.80215" lon="7.04741">
        <ele>1356.4</ele>
        <time>2019-12-30T13:30:04Z</time>
      </trkpt>
      <trkpt lat="43.80213" lon="7.0474">
        <ele>1356.6</ele>
        <time>2019-12-30T13:30:05Z</time>
      </trkpt>
      <trkpt lat="43.80211" lon="7.0474">
        <ele>1356.7</ele>
        <time>2019-12-30T13:30:06Z</time>
      </trkpt>
      <trkpt lat="43.80209" lon="7.04741">
        <ele>1356.8</ele>
        <time>2019-12-30T13:30:07Z</time>
      </trkpt>
      <trkpt lat="43.80208" lon="7.04742">
        <ele>1356.9</ele>
        <time>2019-12-30T13:30:08Z</time>
      </trkpt>
      <trkpt lat="43.80207" lon="7.04742">
        <ele>1357</ele>
        <time>2019-12-30T13:30:09Z</time>
      </trkpt>
      <trkpt lat="43.80206" lon="7.04743">
        <ele>1357</ele>
        <time>2019-12-30T13:30:10Z</time>
      </trkpt>
      <trkpt lat="43.80206" lon="7.04744">
        <ele>1357.1</ele>
        <time>2019-12-30T13:30:11Z</time>
      </trkpt>
      <trkpt lat="43.80205" lon="7.04744">
        <ele>1357.1</ele>
        <time>2019-12-30T13:30:12Z</time>
      </trkpt>
      <trkpt lat="43.80205" lon="7.04744">
        <ele>1357.1</ele>
        <time>2019-12-30T13:30:13Z</time>
      </trkpt>
      <trkpt lat="43.80204" lon="7.04745">
        <ele>1357.1</ele>
        <time>2019-12-30T13:30:14Z</time>
      </trkpt>
      <trkpt lat="43.80204" lon="7.04745">
        <ele>1357.1</ele>
        <time>2019-12-30T13:30:15Z</time>
      </trkpt>
      <trkpt lat="43.80204" lon="7.04745">
        <ele>1357.1</ele>
        <time>2019-12-30T13:30:16Z</time>
      </trkpt>
      <trkpt lat="43.80204" lon="7.04745">
        <ele>1357.1</ele>
        <time>2019-12-30T13:30:17Z</time>
      </trkpt>
      <trkpt lat="43.80204" lon="7.04745">
        <ele>1357.1</ele>
        <time>2019-12-30T13:30:18Z</time>
      </trkpt>
      <trkpt lat="43.80204" lon="7.04745">
        <ele>1357.1</ele>
        <time>2019-12-30T13:30:19Z</time>
      </trkpt>
      <trkpt lat="43.80204" lon="7.04745">
        <ele>1357.1</ele>
        <time>2019-12-30T13:30:20Z</time>
      </trkpt>
      <trkpt lat="43.80204" lon="7.04745">
        <ele>1357.1</ele>
        <time>2019-12-30T13:30:21Z</time>
      </trkpt>
      <trkpt lat="43.80203" lon="7.04745">
        <ele>1357.2</ele>
        <time>2019-12-30T13:30:22Z</time>
      </trkpt>
      <trkpt lat="43.80203" lon="7.04746">
        <ele>1357.2</ele>
        <time>2019-12-30T13:30:23Z</time>
      </trkpt>
      <trkpt lat="43.80202" lon="7.04746">
        <ele>1357.2</ele>
        <time>2019-12-30T13:30:24Z</time>
      </trkpt>
      <trkpt lat="43.80202" lon="7.04747">
        <ele>1357.2</ele>
        <time>2019-12-30T13:30:25Z</time>
      </trkpt>
      <trkpt lat="43.80201" lon="7.04747">
        <ele>1357.3</ele>
        <time>2019-12-30T13:30:26Z</time>
      </trkpt>
      <trkpt lat="43.80201" lon="7.04747">
        <ele>1357.3</ele>
        <time>2019-12-30T13:30:27Z</time>
      </trkpt>
      <trkpt lat="43.80201" lon="7.04747">
        <ele>1357.3</ele>
        <time>2019-12-30T13:30:28Z</time>
      </trkpt>
      <trkpt lat="43.80201" lon="7.04747">
        <ele>1357.3</ele>
        <time>2019-12-30T13:30:29Z</time>
      </trkpt>
      <trkpt lat="43.80201" lon="7.04747">
        <ele>1357.3</ele>
        <time>2019-12-30T13:30:30Z</time>
      </trkpt>
      <trkpt lat="43.80201" lon="7.04747">
        <ele>1357.3</ele>
        <time>2019-12-30T13:30:31Z</time>
      </trkpt>
      <trkpt lat="43.80201" lon="7.04747">
        <ele>1357.3</ele>
        <time>2019-12-30T13:30:32Z</time>
      </trkpt>
      <trkpt lat="43.80201" lon="7.04747">
        <ele>1357.3</ele>
        <time>2019-12-30T13:30:33Z</time>
      </trkpt>
      <trkpt lat="43.80201" lon="7.04747">
        <ele>1357.3</ele>
        <time>2019-12-30T13:30:34Z</time>
      </trkpt>
      <trkpt lat="43.80201" lon="7.04747">
        <ele>1357.3</ele>
        <time>2019-12-30T13:30:35Z</time>
      </trkpt>
      <trkpt lat="43.80201" lon="7.04747">
        <ele>1357.3</ele>
        <time>2019-12-30T13:30:36Z</time>
      </trkpt>
      <trkpt lat="43.80201" lon="7.04747">
        <ele>1357.3</ele>
        <time>2019-12-30T13:30:37Z</time>
      </trkpt>
      <trkpt lat="43.802" lon="7.04747">
        <ele>1357.3</ele>
        <time>2019-12-30T13:30:38Z</time>
      </trkpt>
      <trkpt lat="43.802" lon="7.04747">
        <ele>1357.3</ele>
        <time>2019-12-30T13:30:39Z</time>
      </trkpt>
      <trkpt lat="43.802" lon="7.04747">
        <ele>1357.3</ele>
        <time>2019-12-30T13:30:40Z</time>
      </trkpt>
      <trkpt lat="43.80199" lon="7.04747">
        <ele>1357.4</ele>
        <time>2019-12-30T13:30:41Z</time>
      </trkpt>
      <trkpt lat="43.80199" lon="7.04747">
        <ele>1357.4</ele>
        <time>2019-12-30T13:30:42Z</time>
      </trkpt>
      <trkpt lat="43.80199" lon="7.04747">
        <ele>1357.4</ele>
        <time>2019-12-30T13:30:43Z</time>
      </trkpt>
      <trkpt lat="43.80199" lon="7.04747">
        <ele>1357.4</ele>
        <time>2019-12-30T13:30:44Z</time>
      </trkpt>
      <trkpt lat="43.80199" lon="7.04747">
        <ele>1357.4</ele>
        <time>2019-12-30T13:30:45Z</time>
      </trkpt>
      <trkpt lat="43.80199" lon="7.04747">
        <ele>1357.4</ele>
        <time>2019-12-30T13:30:46Z</time>
      </trkpt>
      <trkpt lat="43.80199" lon="7.04747">
        <ele>1357.4</ele>
        <time>2019-12-30T13:30:47Z</time>
      </trkpt>
      <trkpt lat="43.80199" lon="7.04747">
        <ele>1357.4</ele>
        <time>2019-12-30T13:30:48Z</time>
      </trkpt>
      <trkpt lat="43.80199" lon="7.04747">
        <ele>1357.4</ele>
        <time>2019-12-30T13:30:49Z</time>
      </trkpt>
      <trkpt lat="43.80199" lon="7.04747">
        <ele>1357.4</ele>
        <time>2019-12-30T13:30:50Z</time>
      </trkpt>
      <trkpt lat="43.80199" lon="7.04747">
        <ele>1357.4</ele>
        <time>2019-12-30T13:30:51Z</time>
      </trkpt>
      <trkpt lat="43.80199" lon="7.04747">
        <ele>1357.4</ele>
        <time>2019-12-30T13:30:52Z</time>
      </trkpt>
      <trkpt lat="43.80199" lon="7.04747">
        <ele>1357.4</ele>
        <time>2019-12-30T13:30:53Z</time>
      </trkpt>
      <trkpt lat="43.80199" lon="7.04747">
        <ele>1357.4</ele>
        <time>2019-12-30T13:30:54Z</time>
      </trkpt>
      <trkpt lat="43.80199" lon="7.04747">
        <ele>1357.4</ele>
        <time>2019-12-30T13:30:55Z</time>
      </trkpt>
      <trkpt lat="43.80199" lon="7.04747">
        <ele>1357.4</ele>
        <time>2019-12-30T13:30:56Z</time>
      </trkpt>
      <trkpt lat="43.80199" lon="7.04747">
        <ele>1357.4</ele>
        <time>2019-12-30T13:30:57Z</time>
      </trkpt>
      <trkpt lat="43.80199" lon="7.04747">
        <ele>1357.4</ele>
        <time>2019-12-30T13:30:58Z</time>
      </trkpt>
      <trkpt lat="43.80199" lon="7.04747">
        <ele>1357.4</ele>
        <time>2019-12-30T13:30:59Z</time>
      </trkpt>
      <trkpt lat="43.80199" lon="7.04747">
        <ele>1357.4</ele>
        <time>2019-12-30T13:31:00Z</time>
      </trkpt>
      <trkpt lat="43.80199" lon="7.04747">
        <ele>1357.4</ele>
        <time>2019-12-30T13:31:01Z</time>
      </trkpt>
      <trkpt lat="43.80199" lon="7.04747">
        <ele>1357.4</ele>
        <time>2019-12-30T13:31:02Z</time>
      </trkpt>
      <trkpt lat="43.80199" lon="7.04747">
        <ele>1357.4</ele>
        <time>2019-12-30T13:31:03Z</time>
      </trkpt>
      <trkpt lat="43.80199" lon="7.04747">
        <ele>1357.4</ele>
        <time>2019-12-30T13:31:04Z</time>
      </trkpt>
      <trkpt lat="43.80199" lon="7.04747">
        <ele>1357.4</ele>
        <time>2019-12-30T13:31:05Z</time>
      </trkpt>
      <trkpt lat="43.80199" lon="7.04747">
        <ele>1357.5</ele>
        <time>2019-12-30T13:31:06Z</time>
      </trkpt>
      <trkpt lat="43.802" lon="7.04748">
        <ele>1357.5</ele>
        <time>2019-12-30T13:31:07Z</time>
      </trkpt>
      <trkpt lat="43.802" lon="7.04748">
        <ele>1357.5</ele>
        <time>2019-12-30T13:31:08Z</time>
      </trkpt>
      <trkpt lat="43.802" lon="7.04748">
        <ele>1357.5</ele>
        <time>2019-12-30T13:31:09Z</time>
      </trkpt>
      <trkpt lat="43.802" lon="7.04748">
        <ele>1357.6</ele>
        <time>2019-12-30T13:31:10Z</time>
      </trkpt>
      <trkpt lat="43.802" lon="7.04748">
        <ele>1357.6</ele>
        <time>2019-12-30T13:31:11Z</time>
      </trkpt>
      <trkpt lat="43.802" lon="7.04749">
        <ele>1357.6</ele>
        <time>2019-12-30T13:31:12Z</time>
      </trkpt>
      <trkpt lat="43.802" lon="7.0475">
        <ele>1357.7</ele>
        <time>2019-12-30T13:31:13Z</time>
      </trkpt>
      <trkpt lat="43.80199" lon="7.04752">
        <ele>1357.9</ele>
        <time>2019-12-30T13:31:14Z</time>
      </trkpt>
      <trkpt lat="43.80197" lon="7.04753">
        <ele>1358</ele>
        <time>2019-12-30T13:31:15Z</time>
      </trkpt>
      <trkpt lat="43.80196" lon="7.04755">
        <ele>1358.1</ele>
        <time>2019-12-30T13:31:16Z</time>
      </trkpt>
      <trkpt lat="43.80194" lon="7.04757">
        <ele>1358.2</ele>
        <time>2019-12-30T13:31:17Z</time>
      </trkpt>
      <trkpt lat="43.80192" lon="7.04759">
        <ele>1358.3</ele>
        <time>2019-12-30T13:31:18Z</time>
      </trkpt>
      <trkpt lat="43.8019" lon="7.04761">
        <ele>1358.4</ele>
        <time>2019-12-30T13:31:19Z</time>
      </trkpt>
      <trkpt lat="43.80187" lon="7.04763">
        <ele>1358.4</ele>
        <time>2019-12-30T13:31:20Z</time>
      </trkpt>
      <trkpt lat="43.80185" lon="7.04765">
        <ele>1358.5</ele>
        <time>2019-12-30T13:31:21Z</time>
      </trkpt>
      <trkpt lat="43.80183" lon="7.04766">
        <ele>1358.6</ele>
        <time>2019-12-30T13:31:22Z</time>
      </trkpt>
      <trkpt lat="43.80181" lon="7.04768">
        <ele>1358.8</ele>
        <time>2019-12-30T13:31:23Z</time>
      </trkpt>
      <trkpt lat="43.8018" lon="7.04771">
        <ele>1358.9</ele>
        <time>2019-12-30T13:31:24Z</time>
      </trkpt>
      <trkpt lat="43.80179" lon="7.04775">
        <ele>1359.1</ele>
        <time>2019-12-30T13:31:25Z</time>
      </trkpt>
      <trkpt lat="43.80178" lon="7.04778">
        <ele>1359.3</ele>
        <time>2019-12-30T13:31:26Z</time>
      </trkpt>
      <trkpt lat="43.80178" lon="7.04781">
        <ele>1359.5</ele>
        <time>2019-12-30T13:31:27Z</time>
      </trkpt>
      <trkpt lat="43.80177" lon="7.04785">
        <ele>1359.4</ele>
        <time>2019-12-30T13:31:28Z</time>
      </trkpt>
      <trkpt lat="43.80176" lon="7.04789">
        <ele>1359.4</ele>
        <time>2019-12-30T13:31:29Z</time>
      </trkpt>
      <trkpt lat="43.80174" lon="7.04793">
        <ele>1359.3</ele>
        <time>2019-12-30T13:31:30Z</time>
      </trkpt>
      <trkpt lat="43.80173" lon="7.04797">
        <ele>1359.2</ele>
        <time>2019-12-30T13:31:31Z</time>
      </trkpt>
      <trkpt lat="43.80172" lon="7.04801">
        <ele>1359.1</ele>
        <time>2019-12-30T13:31:32Z</time>
      </trkpt>
      <trkpt lat="43.80171" lon="7.04804">
        <ele>1358.9</ele>
        <time>2019-12-30T13:31:33Z</time>
      </trkpt>
      <trkpt lat="43.80171" lon="7.04808">
        <ele>1358.7</ele>
        <time>2019-12-30T13:31:34Z</time>
      </trkpt>
      <trkpt lat="43.80171" lon="7.04812">
        <ele>1358.4</ele>
        <time>2019-12-30T13:31:35Z</time>
      </trkpt>
      <trkpt lat="43.8017" lon="7.04815">
        <ele>1358</ele>
        <time>2019-12-30T13:31:36Z</time>
      </trkpt>
      <trkpt lat="43.80169" lon="7.04819">
        <ele>1357.6</ele>
        <time>2019-12-30T13:31:37Z</time>
      </trkpt>
      <trkpt lat="43.80169" lon="7.04822">
        <ele>1357.5</ele>
        <time>2019-12-30T13:31:38Z</time>
      </trkpt>
      <trkpt lat="43.80168" lon="7.04826">
        <ele>1357.3</ele>
        <time>2019-12-30T13:31:39Z</time>
      </trkpt>
      <trkpt lat="43.80167" lon="7.04829">
        <ele>1357</ele>
        <time>2019-12-30T13:31:40Z</time>
      </trkpt>
      <trkpt lat="43.80165" lon="7.04832">
        <ele>1356.4</ele>
        <time>2019-12-30T13:31:41Z</time>
      </trkpt>
      <trkpt lat="43.80164" lon="7.04836">
        <ele>1355.9</ele>
        <time>2019-12-30T13:31:42Z</time>
      </trkpt>
      <trkpt lat="43.80163" lon="7.04838">
        <ele>1355.6</ele>
        <time>2019-12-30T13:31:43Z</time>
      </trkpt>
      <trkpt lat="43.80161" lon="7.04841">
        <ele>1355.3</ele>
        <time>2019-12-30T13:31:44Z</time>
      </trkpt>
      <trkpt lat="43.8016" lon="7.04844">
        <ele>1355</ele>
        <time>2019-12-30T13:31:45Z</time>
      </trkpt>
      <trkpt lat="43.8016" lon="7.04847">
        <ele>1354.8</ele>
        <time>2019-12-30T13:31:46Z</time>
      </trkpt>
      <trkpt lat="43.80159" lon="7.04851">
        <ele>1354.6</ele>
        <time>2019-12-30T13:31:47Z</time>
      </trkpt>
      <trkpt lat="43.80159" lon="7.04854">
        <ele>1354.5</ele>
        <time>2019-12-30T13:31:48Z</time>
      </trkpt>
      <trkpt lat="43.80158" lon="7.04858">
        <ele>1354.3</ele>
        <time>2019-12-30T13:31:49Z</time>
      </trkpt>
      <trkpt lat="43.80158" lon="7.04862">
        <ele>1354.2</ele>
        <time>2019-12-30T13:31:50Z</time>
      </trkpt>
      <trkpt lat="43.80157" lon="7.04866">
        <ele>1354</ele>
        <time>2019-12-30T13:31:51Z</time>
      </trkpt>
      <trkpt lat="43.80156" lon="7.0487">
        <ele>1353.8</ele>
        <time>2019-12-30T13:31:52Z</time>
      </trkpt>
      <trkpt lat="43.80154" lon="7.04873">
        <ele>1353.7</ele>
        <time>2019-12-30T13:31:53Z</time>
      </trkpt>
      <trkpt lat="43.80153" lon="7.04876">
        <ele>1353.3</ele>
        <time>2019-12-30T13:31:54Z</time>
      </trkpt>
      <trkpt lat="43.80152" lon="7.04879">
        <ele>1352.8</ele>
        <time>2019-12-30T13:31:55Z</time>
      </trkpt>
      <trkpt lat="43.80151" lon="7.04882">
        <ele>1352.4</ele>
        <time>2019-12-30T13:31:56Z</time>
      </trkpt>
      <trkpt lat="43.8015" lon="7.04885">
        <ele>1352.6</ele>
        <time>2019-12-30T13:31:57Z</time>
      </trkpt>
      <trkpt lat="43.80149" lon="7.04887">
        <ele>1352.8</ele>
        <time>2019-12-30T13:31:58Z</time>
      </trkpt>
      <trkpt lat="43.80148" lon="7.0489">
        <ele>1353</ele>
        <time>2019-12-30T13:31:59Z</time>
      </trkpt>
      <trkpt lat="43.80147" lon="7.04892">
        <ele>1353.1</ele>
        <time>2019-12-30T13:32:00Z</time>
      </trkpt>
      <trkpt lat="43.80146" lon="7.04895">
        <ele>1353.3</ele>
        <time>2019-12-30T13:32:01Z</time>
      </trkpt>
      <trkpt lat="43.80146" lon="7.04895">
        <ele>1353.3</ele>
        <time>2019-12-30T13:32:02Z</time>
      </trkpt>
      <trkpt lat="43.80145" lon="7.04896">
        <ele>1353.3</ele>
        <time>2019-12-30T13:32:03Z</time>
      </trkpt>
      <trkpt lat="43.80145" lon="7.04897">
        <ele>1353.4</ele>
        <time>2019-12-30T13:32:04Z</time>
      </trkpt>
      <trkpt lat="43.80145" lon="7.04897">
        <ele>1353.4</ele>
        <time>2019-12-30T13:32:05Z</time>
      </trkpt>
      <trkpt lat="43.80145" lon="7.04898">
        <ele>1353.4</ele>
        <time>2019-12-30T13:32:06Z</time>
      </trkpt>
      <trkpt lat="43.80144" lon="7.04899">
        <ele>1353.4</ele>
        <time>2019-12-30T13:32:07Z</time>
      </trkpt>
      <trkpt lat="43.80144" lon="7.049">
        <ele>1353.5</ele>
        <time>2019-12-30T13:32:08Z</time>
      </trkpt>
      <trkpt lat="43.80144" lon="7.049">
        <ele>1353.5</ele>
        <time>2019-12-30T13:32:09Z</time>
      </trkpt>
      <trkpt lat="43.80144" lon="7.049">
        <ele>1353.5</ele>
        <time>2019-12-30T13:32:10Z</time>
      </trkpt>
      <trkpt lat="43.80144" lon="7.049">
        <ele>1353.5</ele>
        <time>2019-12-30T13:32:11Z</time>
      </trkpt>
      <trkpt lat="43.80144" lon="7.049">
        <ele>1353.5</ele>
        <time>2019-12-30T13:32:12Z</time>
      </trkpt>
      <trkpt lat="43.80144" lon="7.049">
        <ele>1353.5</ele>
        <time>2019-12-30T13:32:13Z</time>
      </trkpt>
      <trkpt lat="43.80144" lon="7.049">
        <ele>1353.5</ele>
        <time>2019-12-30T13:32:14Z</time>
      </trkpt>
      <trkpt lat="43.80143" lon="7.049">
        <ele>1353.5</ele>
        <time>2019-12-30T13:32:15Z</time>
      </trkpt>
      <trkpt lat="43.80143" lon="7.049">
        <ele>1353.5</ele>
        <time>2019-12-30T13:32:16Z</time>
      </trkpt>
      <trkpt lat="43.80143" lon="7.04899">
        <ele>1353.5</ele>
        <time>2019-12-30T13:32:17Z</time>
      </trkpt>
      <trkpt lat="43.80142" lon="7.04899">
        <ele>1353.6</ele>
        <time>2019-12-30T13:32:18Z</time>
      </trkpt>
      <trkpt lat="43.80142" lon="7.04898">
        <ele>1353.7</ele>
        <time>2019-12-30T13:32:19Z</time>
      </trkpt>
      <trkpt lat="43.80141" lon="7.04898">
        <ele>1353.8</ele>
        <time>2019-12-30T13:32:20Z</time>
      </trkpt>
      <trkpt lat="43.80141" lon="7.04897">
        <ele>1353.9</ele>
        <time>2019-12-30T13:32:21Z</time>
      </trkpt>
      <trkpt lat="43.8014" lon="7.04896">
        <ele>1354.1</ele>
        <time>2019-12-30T13:32:22Z</time>
      </trkpt>
      <trkpt lat="43.8014" lon="7.04895">
        <ele>1354.2</ele>
        <time>2019-12-30T13:32:23Z</time>
      </trkpt>
      <trkpt lat="43.80139" lon="7.04895">
        <ele>1354.3</ele>
        <time>2019-12-30T13:32:24Z</time>
      </trkpt>
      <trkpt lat="43.80139" lon="7.04894">
        <ele>1354.4</ele>
        <time>2019-12-30T13:32:25Z</time>
      </trkpt>
      <trkpt lat="43.80138" lon="7.04894">
        <ele>1354.5</ele>
        <time>2019-12-30T13:32:26Z</time>
      </trkpt>
      <trkpt lat="43.80138" lon="7.04894">
        <ele>1354.5</ele>
        <time>2019-12-30T13:32:27Z</time>
      </trkpt>
      <trkpt lat="43.80138" lon="7.04894">
        <ele>1354.6</ele>
        <time>2019-12-30T13:32:28Z</time>
      </trkpt>
      <trkpt lat="43.80137" lon="7.04894">
        <ele>1354.6</ele>
        <time>2019-12-30T13:32:29Z</time>
      </trkpt>
      <trkpt lat="43.80137" lon="7.04894">
        <ele>1354.7</ele>
        <time>2019-12-30T13:32:30Z</time>
      </trkpt>
      <trkpt lat="43.80137" lon="7.04894">
        <ele>1354.7</ele>
        <time>2019-12-30T13:32:31Z</time>
      </trkpt>
      <trkpt lat="43.80137" lon="7.04894">
        <ele>1354.7</ele>
        <time>2019-12-30T13:32:32Z</time>
      </trkpt>
      <trkpt lat="43.80138" lon="7.04894">
        <ele>1354.7</ele>
        <time>2019-12-30T13:32:33Z</time>
      </trkpt>
      <trkpt lat="43.80138" lon="7.04894">
        <ele>1354.7</ele>
        <time>2019-12-30T13:32:34Z</time>
      </trkpt>
      <trkpt lat="43.80137" lon="7.04894">
        <ele>1354.7</ele>
        <time>2019-12-30T13:32:35Z</time>
      </trkpt>
      <trkpt lat="43.80137" lon="7.04894">
        <ele>1354.8</ele>
        <time>2019-12-30T13:32:36Z</time>
      </trkpt>
      <trkpt lat="43.80137" lon="7.04894">
        <ele>1354.9</ele>
        <time>2019-12-30T13:32:37Z</time>
      </trkpt>
      <trkpt lat="43.80136" lon="7.04894">
        <ele>1354.9</ele>
        <time>2019-12-30T13:32:38Z</time>
      </trkpt>
      <trkpt lat="43.80136" lon="7.04895">
        <ele>1355.1</ele>
        <time>2019-12-30T13:32:39Z</time>
      </trkpt>
      <trkpt lat="43.80136" lon="7.04895">
        <ele>1355.2</ele>
        <time>2019-12-30T13:32:40Z</time>
      </trkpt>
      <trkpt lat="43.80135" lon="7.04896">
        <ele>1355.4</ele>
        <time>2019-12-30T13:32:41Z</time>
      </trkpt>
      <trkpt lat="43.80135" lon="7.04896">
        <ele>1355.6</ele>
        <time>2019-12-30T13:32:42Z</time>
      </trkpt>
      <trkpt lat="43.80134" lon="7.04896">
        <ele>1355.9</ele>
        <time>2019-12-30T13:32:43Z</time>
      </trkpt>
      <trkpt lat="43.80132" lon="7.04896">
        <ele>1356.3</ele>
        <time>2019-12-30T13:32:44Z</time>
      </trkpt>
      <trkpt lat="43.80131" lon="7.04896">
        <ele>1356.7</ele>
        <time>2019-12-30T13:32:45Z</time>
      </trkpt>
      <trkpt lat="43.80129" lon="7.04896">
        <ele>1357.1</ele>
        <time>2019-12-30T13:32:46Z</time>
      </trkpt>
      <trkpt lat="43.80127" lon="7.04896">
        <ele>1357.4</ele>
        <time>2019-12-30T13:32:47Z</time>
      </trkpt>
      <trkpt lat="43.80125" lon="7.04895">
        <ele>1357.7</ele>
        <time>2019-12-30T13:32:48Z</time>
      </trkpt>
      <trkpt lat="43.80123" lon="7.04895">
        <ele>1358.1</ele>
        <time>2019-12-30T13:32:49Z</time>
      </trkpt>
      <trkpt lat="43.80121" lon="7.04894">
        <ele>1358.5</ele>
        <time>2019-12-30T13:32:50Z</time>
      </trkpt>
      <trkpt lat="43.80118" lon="7.04893">
        <ele>1359</ele>
        <time>2019-12-30T13:32:51Z</time>
      </trkpt>
      <trkpt lat="43.80115" lon="7.04893">
        <ele>1359.7</ele>
        <time>2019-12-30T13:32:52Z</time>
      </trkpt>
      <trkpt lat="43.80113" lon="7.04893">
        <ele>1360.2</ele>
        <time>2019-12-30T13:32:53Z</time>
      </trkpt>
      <trkpt lat="43.8011" lon="7.04893">
        <ele>1360.7</ele>
        <time>2019-12-30T13:32:54Z</time>
      </trkpt>
      <trkpt lat="43.80107" lon="7.04894">
        <ele>1361.1</ele>
        <time>2019-12-30T13:32:55Z</time>
      </trkpt>
      <trkpt lat="43.80104" lon="7.04894">
        <ele>1361.3</ele>
        <time>2019-12-30T13:32:56Z</time>
      </trkpt>
      <trkpt lat="43.80102" lon="7.04895">
        <ele>1360.9</ele>
        <time>2019-12-30T13:32:57Z</time>
      </trkpt>
      <trkpt lat="43.801" lon="7.049">
        <ele>1360.5</ele>
        <time>2019-12-30T13:32:58Z</time>
      </trkpt>
      <trkpt lat="43.80097" lon="7.04909">
        <ele>1359.5</ele>
        <time>2019-12-30T13:32:59Z</time>
      </trkpt>
      <trkpt lat="43.80096" lon="7.04914">
        <ele>1359.3</ele>
        <time>2019-12-30T13:33:00Z</time>
      </trkpt>
      <trkpt lat="43.80095" lon="7.04918">
        <ele>1359.1</ele>
        <time>2019-12-30T13:33:01Z</time>
      </trkpt>
      <trkpt lat="43.80094" lon="7.04923">
        <ele>1358.8</ele>
        <time>2019-12-30T13:33:02Z</time>
      </trkpt>
      <trkpt lat="43.80093" lon="7.04927">
        <ele>1358.5</ele>
        <time>2019-12-30T13:33:03Z</time>
      </trkpt>
      <trkpt lat="43.80092" lon="7.04932">
        <ele>1358.3</ele>
        <time>2019-12-30T13:33:04Z</time>
      </trkpt>
      <trkpt lat="43.8009" lon="7.04938">
        <ele>1357.9</ele>
        <time>2019-12-30T13:33:05Z</time>
      </trkpt>
      <trkpt lat="43.80088" lon="7.04943">
        <ele>1357.5</ele>
        <time>2019-12-30T13:33:06Z</time>
      </trkpt>
      <trkpt lat="43.80086" lon="7.04948">
        <ele>1357.1</ele>
        <time>2019-12-30T13:33:07Z</time>
      </trkpt>
      <trkpt lat="43.80083" lon="7.04952">
        <ele>1356.7</ele>
        <time>2019-12-30T13:33:08Z</time>
      </trkpt>
      <trkpt lat="43.80081" lon="7.04956">
        <ele>1356.4</ele>
        <time>2019-12-30T13:33:09Z</time>
      </trkpt>
      <trkpt lat="43.80079" lon="7.0496">
        <ele>1356.1</ele>
        <time>2019-12-30T13:33:10Z</time>
      </trkpt>
      <trkpt lat="43.80077" lon="7.04963">
        <ele>1355.9</ele>
        <time>2019-12-30T13:33:11Z</time>
      </trkpt>
      <trkpt lat="43.80075" lon="7.04967">
        <ele>1355.8</ele>
        <time>2019-12-30T13:33:12Z</time>
      </trkpt>
      <trkpt lat="43.80074" lon="7.0497">
        <ele>1355.6</ele>
        <time>2019-12-30T13:33:13Z</time>
      </trkpt>
      <trkpt lat="43.80074" lon="7.04974">
        <ele>1355.5</ele>
        <time>2019-12-30T13:33:14Z</time>
      </trkpt>
      <trkpt lat="43.80073" lon="7.04978">
        <ele>1355.3</ele>
        <time>2019-12-30T13:33:15Z</time>
      </trkpt>
      <trkpt lat="43.80072" lon="7.04983">
        <ele>1355.1</ele>
        <time>2019-12-30T13:33:16Z</time>
      </trkpt>
      <trkpt lat="43.80071" lon="7.04987">
        <ele>1354.9</ele>
        <time>2019-12-30T13:33:17Z</time>
      </trkpt>
      <trkpt lat="43.80071" lon="7.04992">
        <ele>1354.8</ele>
        <time>2019-12-30T13:33:18Z</time>
      </trkpt>
      <trkpt lat="43.8007" lon="7.04995">
        <ele>1354.5</ele>
        <time>2019-12-30T13:33:19Z</time>
      </trkpt>
      <trkpt lat="43.8007" lon="7.04999">
        <ele>1354.3</ele>
        <time>2019-12-30T13:33:20Z</time>
      </trkpt>
      <trkpt lat="43.80069" lon="7.05002">
        <ele>1354</ele>
        <time>2019-12-30T13:33:21Z</time>
      </trkpt>
      <trkpt lat="43.80068" lon="7.05006">
        <ele>1353.8</ele>
        <time>2019-12-30T13:33:22Z</time>
      </trkpt>
      <trkpt lat="43.80067" lon="7.05011">
        <ele>1353.7</ele>
        <time>2019-12-30T13:33:23Z</time>
      </trkpt>
      <trkpt lat="43.80067" lon="7.05017">
        <ele>1353.6</ele>
        <time>2019-12-30T13:33:24Z</time>
      </trkpt>
      <trkpt lat="43.80067" lon="7.05022">
        <ele>1353.6</ele>
        <time>2019-12-30T13:33:25Z</time>
      </trkpt>
      <trkpt lat="43.80067" lon="7.05027">
        <ele>1353.5</ele>
        <time>2019-12-30T13:33:26Z</time>
      </trkpt>
      <trkpt lat="43.80067" lon="7.05032">
        <ele>1353.4</ele>
        <time>2019-12-30T13:33:27Z</time>
      </trkpt>
      <trkpt lat="43.80066" lon="7.05037">
        <ele>1353.3</ele>
        <time>2019-12-30T13:33:28Z</time>
      </trkpt>
      <trkpt lat="43.80065" lon="7.05042">
        <ele>1353.2</ele>
        <time>2019-12-30T13:33:29Z</time>
      </trkpt>
      <trkpt lat="43.80064" lon="7.05047">
        <ele>1352.9</ele>
        <time>2019-12-30T13:33:30Z</time>
      </trkpt>
      <trkpt lat="43.80062" lon="7.05051">
        <ele>1352.7</ele>
        <time>2019-12-30T13:33:31Z</time>
      </trkpt>
      <trkpt lat="43.80061" lon="7.05056">
        <ele>1352.6</ele>
        <time>2019-12-30T13:33:32Z</time>
      </trkpt>
      <trkpt lat="43.8006" lon="7.0506">
        <ele>1352.5</ele>
        <time>2019-12-30T13:33:33Z</time>
      </trkpt>
      <trkpt lat="43.80059" lon="7.05065">
        <ele>1352.5</ele>
        <time>2019-12-30T13:33:34Z</time>
      </trkpt>
      <trkpt lat="43.80058" lon="7.05069">
        <ele>1352.5</ele>
        <time>2019-12-30T13:33:35Z</time>
      </trkpt>
      <trkpt lat="43.80057" lon="7.05073">
        <ele>1352.4</ele>
        <time>2019-12-30T13:33:36Z</time>
      </trkpt>
      <trkpt lat="43.80056" lon="7.05077">
        <ele>1352.7</ele>
        <time>2019-12-30T13:33:37Z</time>
      </trkpt>
      <trkpt lat="43.80055" lon="7.05081">
        <ele>1353</ele>
        <time>2019-12-30T13:33:38Z</time>
      </trkpt>
      <trkpt lat="43.80055" lon="7.05085">
        <ele>1353.4</ele>
        <time>2019-12-30T13:33:39Z</time>
      </trkpt>
      <trkpt lat="43.80054" lon="7.05089">
        <ele>1353.4</ele>
        <time>2019-12-30T13:33:40Z</time>
      </trkpt>
      <trkpt lat="43.80052" lon="7.05093">
        <ele>1353.4</ele>
        <time>2019-12-30T13:33:41Z</time>
      </trkpt>
      <trkpt lat="43.80052" lon="7.05095">
        <ele>1353.4</ele>
        <time>2019-12-30T13:33:42Z</time>
      </trkpt>
      <trkpt lat="43.80051" lon="7.05096">
        <ele>1353.4</ele>
        <time>2019-12-30T13:33:43Z</time>
      </trkpt>
      <trkpt lat="43.8005" lon="7.05098">
        <ele>1353.4</ele>
        <time>2019-12-30T13:33:44Z</time>
      </trkpt>
      <trkpt lat="43.80049" lon="7.051">
        <ele>1353.5</ele>
        <time>2019-12-30T13:33:45Z</time>
      </trkpt>
      <trkpt lat="43.80047" lon="7.05102">
        <ele>1353.6</ele>
        <time>2019-12-30T13:33:46Z</time>
      </trkpt>
      <trkpt lat="43.80046" lon="7.05105">
        <ele>1353.6</ele>
        <time>2019-12-30T13:33:47Z</time>
      </trkpt>
      <trkpt lat="43.80045" lon="7.05108">
        <ele>1353.7</ele>
        <time>2019-12-30T13:33:48Z</time>
      </trkpt>
      <trkpt lat="43.80044" lon="7.05112">
        <ele>1353.9</ele>
        <time>2019-12-30T13:33:49Z</time>
      </trkpt>
      <trkpt lat="43.80043" lon="7.05115">
        <ele>1354</ele>
        <time>2019-12-30T13:33:50Z</time>
      </trkpt>
      <trkpt lat="43.80042" lon="7.05119">
        <ele>1354.2</ele>
        <time>2019-12-30T13:33:51Z</time>
      </trkpt>
      <trkpt lat="43.80041" lon="7.05123">
        <ele>1354.2</ele>
        <time>2019-12-30T13:33:52Z</time>
      </trkpt>
      <trkpt lat="43.8004" lon="7.05127">
        <ele>1354.2</ele>
        <time>2019-12-30T13:33:53Z</time>
      </trkpt>
      <trkpt lat="43.80039" lon="7.05132">
        <ele>1354.2</ele>
        <time>2019-12-30T13:33:54Z</time>
      </trkpt>
      <trkpt lat="43.80037" lon="7.05137">
        <ele>1354.2</ele>
        <time>2019-12-30T13:33:55Z</time>
      </trkpt>
      <trkpt lat="43.80035" lon="7.05142">
        <ele>1354.2</ele>
        <time>2019-12-30T13:33:56Z</time>
      </trkpt>
      <trkpt lat="43.80033" lon="7.05147">
        <ele>1354.4</ele>
        <time>2019-12-30T13:33:57Z</time>
      </trkpt>
      <trkpt lat="43.8003" lon="7.05152">
        <ele>1354.5</ele>
        <time>2019-12-30T13:33:58Z</time>
      </trkpt>
      <trkpt lat="43.80028" lon="7.05156">
        <ele>1354.5</ele>
        <time>2019-12-30T13:33:59Z</time>
      </trkpt>
      <trkpt lat="43.80025" lon="7.05159">
        <ele>1354.5</ele>
        <time>2019-12-30T13:34:00Z</time>
      </trkpt>
      <trkpt lat="43.80023" lon="7.05163">
        <ele>1354.5</ele>
        <time>2019-12-30T13:34:01Z</time>
      </trkpt>
      <trkpt lat="43.8002" lon="7.05166">
        <ele>1354.4</ele>
        <time>2019-12-30T13:34:02Z</time>
      </trkpt>
      <trkpt lat="43.80018" lon="7.05169">
        <ele>1354.2</ele>
        <time>2019-12-30T13:34:03Z</time>
      </trkpt>
      <trkpt lat="43.80016" lon="7.05171">
        <ele>1354</ele>
        <time>2019-12-30T13:34:04Z</time>
      </trkpt>
      <trkpt lat="43.80013" lon="7.05174">
        <ele>1353.6</ele>
        <time>2019-12-30T13:34:05Z</time>
      </trkpt>
      <trkpt lat="43.80011" lon="7.05178">
        <ele>1353.3</ele>
        <time>2019-12-30T13:34:06Z</time>
      </trkpt>
      <trkpt lat="43.8001" lon="7.05182">
        <ele>1353</ele>
        <time>2019-12-30T13:34:07Z</time>
      </trkpt>
      <trkpt lat="43.80008" lon="7.05186">
        <ele>1352.6</ele>
        <time>2019-12-30T13:34:08Z</time>
      </trkpt>
      <trkpt lat="43.80007" lon="7.0519">
        <ele>1352.3</ele>
        <time>2019-12-30T13:34:09Z</time>
      </trkpt>
      <trkpt lat="43.80005" lon="7.05193">
        <ele>1352.2</ele>
        <time>2019-12-30T13:34:10Z</time>
      </trkpt>
      <trkpt lat="43.80003" lon="7.05196">
        <ele>1352.3</ele>
        <time>2019-12-30T13:34:11Z</time>
      </trkpt>
      <trkpt lat="43.80001" lon="7.05199">
        <ele>1352.3</ele>
        <time>2019-12-30T13:34:12Z</time>
      </trkpt>
      <trkpt lat="43.79999" lon="7.05201">
        <ele>1352.4</ele>
        <time>2019-12-30T13:34:13Z</time>
      </trkpt>
      <trkpt lat="43.79998" lon="7.05204">
        <ele>1352.5</ele>
        <time>2019-12-30T13:34:14Z</time>
      </trkpt>
      <trkpt lat="43.79996" lon="7.05206">
        <ele>1352.6</ele>
        <time>2019-12-30T13:34:15Z</time>
      </trkpt>
      <trkpt lat="43.79995" lon="7.05209">
        <ele>1352.7</ele>
        <time>2019-12-30T13:34:16Z</time>
      </trkpt>
      <trkpt lat="43.79993" lon="7.05211">
        <ele>1353</ele>
        <time>2019-12-30T13:34:17Z</time>
      </trkpt>
      <trkpt lat="43.79992" lon="7.05214">
        <ele>1353.2</ele>
        <time>2019-12-30T13:34:18Z</time>
      </trkpt>
      <trkpt lat="43.7999" lon="7.05216">
        <ele>1353.4</ele>
        <time>2019-12-30T13:34:19Z</time>
      </trkpt>
      <trkpt lat="43.79989" lon="7.05217">
        <ele>1353.6</ele>
        <time>2019-12-30T13:34:20Z</time>
      </trkpt>
      <trkpt lat="43.79987" lon="7.05219">
        <ele>1353.6</ele>
        <time>2019-12-30T13:34:21Z</time>
      </trkpt>
      <trkpt lat="43.79986" lon="7.0522">
        <ele>1353.7</ele>
        <time>2019-12-30T13:34:22Z</time>
      </trkpt>
      <trkpt lat="43.79985" lon="7.0522">
        <ele>1353.7</ele>
        <time>2019-12-30T13:34:23Z</time>
      </trkpt>
      <trkpt lat="43.79984" lon="7.05221">
        <ele>1353.7</ele>
        <time>2019-12-30T13:34:24Z</time>
      </trkpt>
      <trkpt lat="43.79984" lon="7.05221">
        <ele>1353.7</ele>
        <time>2019-12-30T13:34:25Z</time>
      </trkpt>
      <trkpt lat="43.79984" lon="7.05221">
        <ele>1353.8</ele>
        <time>2019-12-30T13:34:26Z</time>
      </trkpt>
      <trkpt lat="43.79984" lon="7.05221">
        <ele>1353.8</ele>
        <time>2019-12-30T13:34:27Z</time>
      </trkpt>
      <trkpt lat="43.79984" lon="7.05221">
        <ele>1353.8</ele>
        <time>2019-12-30T13:34:28Z</time>
      </trkpt>
      <trkpt lat="43.79984" lon="7.05221">
        <ele>1353.8</ele>
        <time>2019-12-30T13:34:29Z</time>
      </trkpt>
      <trkpt lat="43.79984" lon="7.05221">
        <ele>1353.8</ele>
        <time>2019-12-30T13:34:30Z</time>
      </trkpt>
      <trkpt lat="43.79984" lon="7.05221">
        <ele>1353.8</ele>
        <time>2019-12-30T13:34:31Z</time>
      </trkpt>
      <trkpt lat="43.79984" lon="7.05221">
        <ele>1353.8</ele>
        <time>2019-12-30T13:34:32Z</time>
      </trkpt>
      <trkpt lat="43.79984" lon="7.05221">
        <ele>1353.8</ele>
        <time>2019-12-30T13:34:33Z</time>
      </trkpt>
      <trkpt lat="43.79984" lon="7.05221">
        <ele>1353.8</ele>
        <time>2019-12-30T13:34:34Z</time>
      </trkpt>
      <trkpt lat="43.79984" lon="7.05221">
        <ele>1353.8</ele>
        <time>2019-12-30T13:34:35Z</time>
      </trkpt>
      <trkpt lat="43.79984" lon="7.05221">
        <ele>1353.8</ele>
        <time>2019-12-30T13:34:36Z</time>
      </trkpt>
      <trkpt lat="43.79984" lon="7.05221">
        <ele>1353.8</ele>
        <time>2019-12-30T13:34:37Z</time>
      </trkpt>
      <trkpt lat="43.79984" lon="7.05221">
        <ele>1353.8</ele>
        <time>2019-12-30T13:34:38Z</time>
      </trkpt>
      <trkpt lat="43.79984" lon="7.05221">
        <ele>1353.8</ele>
        <time>2019-12-30T13:34:39Z</time>
      </trkpt>
      <trkpt lat="43.79984" lon="7.05221">
        <ele>1353.8</ele>
        <time>2019-12-30T13:34:40Z</time>
      </trkpt>
      <trkpt lat="43.79984" lon="7.05221">
        <ele>1353.8</ele>
        <time>2019-12-30T13:34:41Z</time>
      </trkpt>
      <trkpt lat="43.79984" lon="7.05221">
        <ele>1353.8</ele>
        <time>2019-12-30T13:34:42Z</time>
      </trkpt>
      <trkpt lat="43.79984" lon="7.05221">
        <ele>1353.8</ele>
        <time>2019-12-30T13:34:43Z</time>
      </trkpt>
      <trkpt lat="43.79984" lon="7.05221">
        <ele>1353.8</ele>
        <time>2019-12-30T13:34:44Z</time>
      </trkpt>
      <trkpt lat="43.79984" lon="7.05221">
        <ele>1353.8</ele>
        <time>2019-12-30T13:34:45Z</time>
      </trkpt>
      <trkpt lat="43.79984" lon="7.05221">
        <ele>1353.8</ele>
        <time>2019-12-30T13:34:46Z</time>
      </trkpt>
      <trkpt lat="43.79984" lon="7.05221">
        <ele>1353.8</ele>
        <time>2019-12-30T13:34:47Z</time>
      </trkpt>
      <trkpt lat="43.79984" lon="7.05221">
        <ele>1353.8</ele>
        <time>2019-12-30T13:34:48Z</time>
      </trkpt>
      <trkpt lat="43.79984" lon="7.05221">
        <ele>1353.8</ele>
        <time>2019-12-30T13:34:49Z</time>
      </trkpt>
      <trkpt lat="43.79984" lon="7.05221">
        <ele>1353.8</ele>
        <time>2019-12-30T13:34:50Z</time>
      </trkpt>
      <trkpt lat="43.79984" lon="7.05221">
        <ele>1353.8</ele>
        <time>2019-12-30T13:34:51Z</time>
      </trkpt>
      <trkpt lat="43.79984" lon="7.05221">
        <ele>1353.8</ele>
        <time>2019-12-30T13:34:52Z</time>
      </trkpt>
      <trkpt lat="43.79985" lon="7.05221">
        <ele>1353.8</ele>
        <time>2019-12-30T13:34:53Z</time>
      </trkpt>
      <trkpt lat="43.79985" lon="7.05222">
        <ele>1353.8</ele>
        <time>2019-12-30T13:34:54Z</time>
      </trkpt>
      <trkpt lat="43.79984" lon="7.05223">
        <ele>1353.9</ele>
        <time>2019-12-30T13:34:55Z</time>
      </trkpt>
      <trkpt lat="43.79983" lon="7.05225">
        <ele>1353.9</ele>
        <time>2019-12-30T13:34:56Z</time>
      </trkpt>
      <trkpt lat="43.79982" lon="7.05226">
        <ele>1353.9</ele>
        <time>2019-12-30T13:34:57Z</time>
      </trkpt>
      <trkpt lat="43.7998" lon="7.05226">
        <ele>1354</ele>
        <time>2019-12-30T13:34:58Z</time>
      </trkpt>
      <trkpt lat="43.79979" lon="7.05226">
        <ele>1354.1</ele>
        <time>2019-12-30T13:34:59Z</time>
      </trkpt>
      <trkpt lat="43.79978" lon="7.05227">
        <ele>1354.2</ele>
        <time>2019-12-30T13:35:00Z</time>
      </trkpt>
      <trkpt lat="43.79978" lon="7.05228">
        <ele>1354.3</ele>
        <time>2019-12-30T13:35:01Z</time>
      </trkpt>
      <trkpt lat="43.79977" lon="7.0523">
        <ele>1354.4</ele>
        <time>2019-12-30T13:35:02Z</time>
      </trkpt>
      <trkpt lat="43.79977" lon="7.05232">
        <ele>1354.5</ele>
        <time>2019-12-30T13:35:03Z</time>
      </trkpt>
      <trkpt lat="43.79977" lon="7.05234">
        <ele>1354.6</ele>
        <time>2019-12-30T13:35:04Z</time>
      </trkpt>
      <trkpt lat="43.79977" lon="7.05236">
        <ele>1354.7</ele>
        <time>2019-12-30T13:35:05Z</time>
      </trkpt>
      <trkpt lat="43.79977" lon="7.05238">
        <ele>1354.8</ele>
        <time>2019-12-30T13:35:06Z</time>
      </trkpt>
      <trkpt lat="43.79978" lon="7.0524">
        <ele>1354.9</ele>
        <time>2019-12-30T13:35:07Z</time>
      </trkpt>
      <trkpt lat="43.79978" lon="7.05242">
        <ele>1355</ele>
        <time>2019-12-30T13:35:08Z</time>
      </trkpt>
      <trkpt lat="43.79979" lon="7.05245">
        <ele>1355.2</ele>
        <time>2019-12-30T13:35:09Z</time>
      </trkpt>
      <trkpt lat="43.7998" lon="7.05248">
        <ele>1355.3</ele>
        <time>2019-12-30T13:35:10Z</time>
      </trkpt>
      <trkpt lat="43.7998" lon="7.0525">
        <ele>1355.4</ele>
        <time>2019-12-30T13:35:11Z</time>
      </trkpt>
      <trkpt lat="43.79981" lon="7.05254">
        <ele>1355.6</ele>
        <time>2019-12-30T13:35:12Z</time>
      </trkpt>
      <trkpt lat="43.79982" lon="7.05257">
        <ele>1355.7</ele>
        <time>2019-12-30T13:35:13Z</time>
      </trkpt>
      <trkpt lat="43.79982" lon="7.0526">
        <ele>1355.8</ele>
        <time>2019-12-30T13:35:14Z</time>
      </trkpt>
      <trkpt lat="43.79982" lon="7.05263">
        <ele>1356</ele>
        <time>2019-12-30T13:35:15Z</time>
      </trkpt>
      <trkpt lat="43.79983" lon="7.05266">
        <ele>1356.1</ele>
        <time>2019-12-30T13:35:16Z</time>
      </trkpt>
      <trkpt lat="43.79983" lon="7.0527">
        <ele>1356.2</ele>
        <time>2019-12-30T13:35:17Z</time>
      </trkpt>
      <trkpt lat="43.79984" lon="7.05273">
        <ele>1356.3</ele>
        <time>2019-12-30T13:35:18Z</time>
      </trkpt>
      <trkpt lat="43.79984" lon="7.05276">
        <ele>1356.4</ele>
        <time>2019-12-30T13:35:19Z</time>
      </trkpt>
      <trkpt lat="43.79985" lon="7.0528">
        <ele>1356.5</ele>
        <time>2019-12-30T13:35:20Z</time>
      </trkpt>
      <trkpt lat="43.79985" lon="7.05284">
        <ele>1356.6</ele>
        <time>2019-12-30T13:35:21Z</time>
      </trkpt>
      <trkpt lat="43.79985" lon="7.05289">
        <ele>1356.7</ele>
        <time>2019-12-30T13:35:22Z</time>
      </trkpt>
      <trkpt lat="43.79985" lon="7.05293">
        <ele>1356.8</ele>
        <time>2019-12-30T13:35:23Z</time>
      </trkpt>
      <trkpt lat="43.79985" lon="7.05296">
        <ele>1356.8</ele>
        <time>2019-12-30T13:35:24Z</time>
      </trkpt>
      <trkpt lat="43.79985" lon="7.053">
        <ele>1356.9</ele>
        <time>2019-12-30T13:35:25Z</time>
      </trkpt>
      <trkpt lat="43.79985" lon="7.05303">
        <ele>1357</ele>
        <time>2019-12-30T13:35:26Z</time>
      </trkpt>
      <trkpt lat="43.79985" lon="7.05307">
        <ele>1357</ele>
        <time>2019-12-30T13:35:27Z</time>
      </trkpt>
      <trkpt lat="43.79985" lon="7.0531">
        <ele>1357.1</ele>
        <time>2019-12-30T13:35:28Z</time>
      </trkpt>
      <trkpt lat="43.79985" lon="7.05314">
        <ele>1357.2</ele>
        <time>2019-12-30T13:35:29Z</time>
      </trkpt>
      <trkpt lat="43.79985" lon="7.05318">
        <ele>1357.2</ele>
        <time>2019-12-30T13:35:30Z</time>
      </trkpt>
      <trkpt lat="43.79985" lon="7.05321">
        <ele>1357.3</ele>
        <time>2019-12-30T13:35:31Z</time>
      </trkpt>
      <trkpt lat="43.79984" lon="7.05324">
        <ele>1357.4</ele>
        <time>2019-12-30T13:35:32Z</time>
      </trkpt>
      <trkpt lat="43.79984" lon="7.05326">
        <ele>1357.4</ele>
        <time>2019-12-30T13:35:33Z</time>
      </trkpt>
      <trkpt lat="43.79984" lon="7.0533">
        <ele>1357.5</ele>
        <time>2019-12-30T13:35:34Z</time>
      </trkpt>
      <trkpt lat="43.79984" lon="7.05333">
        <ele>1357.5</ele>
        <time>2019-12-30T13:35:35Z</time>
      </trkpt>
      <trkpt lat="43.79985" lon="7.05337">
        <ele>1357.6</ele>
        <time>2019-12-30T13:35:36Z</time>
      </trkpt>
      <trkpt lat="43.79985" lon="7.0534">
        <ele>1357.6</ele>
        <time>2019-12-30T13:35:37Z</time>
      </trkpt>
      <trkpt lat="43.79985" lon="7.05344">
        <ele>1357.6</ele>
        <time>2019-12-30T13:35:38Z</time>
      </trkpt>
      <trkpt lat="43.79985" lon="7.05347">
        <ele>1357.6</ele>
        <time>2019-12-30T13:35:39Z</time>
      </trkpt>
      <trkpt lat="43.79985" lon="7.05351">
        <ele>1357.7</ele>
        <time>2019-12-30T13:35:40Z</time>
      </trkpt>
      <trkpt lat="43.79985" lon="7.05355">
        <ele>1357.7</ele>
        <time>2019-12-30T13:35:41Z</time>
      </trkpt>
      <trkpt lat="43.79984" lon="7.0536">
        <ele>1357.7</ele>
        <time>2019-12-30T13:35:42Z</time>
      </trkpt>
      <trkpt lat="43.79984" lon="7.05364">
        <ele>1357.7</ele>
        <time>2019-12-30T13:35:43Z</time>
      </trkpt>
      <trkpt lat="43.79984" lon="7.05369">
        <ele>1357.7</ele>
        <time>2019-12-30T13:35:44Z</time>
      </trkpt>
      <trkpt lat="43.79984" lon="7.05373">
        <ele>1357.7</ele>
        <time>2019-12-30T13:35:45Z</time>
      </trkpt>
      <trkpt lat="43.79984" lon="7.05378">
        <ele>1357.7</ele>
        <time>2019-12-30T13:35:46Z</time>
      </trkpt>
      <trkpt lat="43.79984" lon="7.05383">
        <ele>1357.7</ele>
        <time>2019-12-30T13:35:47Z</time>
      </trkpt>
      <trkpt lat="43.79984" lon="7.05388">
        <ele>1357.7</ele>
        <time>2019-12-30T13:35:48Z</time>
      </trkpt>
      <trkpt lat="43.79984" lon="7.05392">
        <ele>1357.7</ele>
        <time>2019-12-30T13:35:49Z</time>
      </trkpt>
      <trkpt lat="43.79984" lon="7.05396">
        <ele>1357.7</ele>
        <time>2019-12-30T13:35:50Z</time>
      </trkpt>
      <trkpt lat="43.79984" lon="7.054">
        <ele>1357.7</ele>
        <time>2019-12-30T13:35:51Z</time>
      </trkpt>
      <trkpt lat="43.79984" lon="7.05405">
        <ele>1357.7</ele>
        <time>2019-12-30T13:35:52Z</time>
      </trkpt>
      <trkpt lat="43.79984" lon="7.05409">
        <ele>1357.7</ele>
        <time>2019-12-30T13:35:53Z</time>
      </trkpt>
      <trkpt lat="43.79985" lon="7.05413">
        <ele>1357.7</ele>
        <time>2019-12-30T13:35:54Z</time>
      </trkpt>
      <trkpt lat="43.79985" lon="7.05417">
        <ele>1357.7</ele>
        <time>2019-12-30T13:35:55Z</time>
      </trkpt>
      <trkpt lat="43.79986" lon="7.05421">
        <ele>1357.8</ele>
        <time>2019-12-30T13:35:56Z</time>
      </trkpt>
      <trkpt lat="43.79986" lon="7.05426">
        <ele>1357.8</ele>
        <time>2019-12-30T13:35:57Z</time>
      </trkpt>
      <trkpt lat="43.79986" lon="7.05429">
        <ele>1357.9</ele>
        <time>2019-12-30T13:35:58Z</time>
      </trkpt>
      <trkpt lat="43.79987" lon="7.05433">
        <ele>1357.9</ele>
        <time>2019-12-30T13:35:59Z</time>
      </trkpt>
      <trkpt lat="43.79986" lon="7.05437">
        <ele>1358</ele>
        <time>2019-12-30T13:36:00Z</time>
      </trkpt>
      <trkpt lat="43.79986" lon="7.05441">
        <ele>1358.1</ele>
        <time>2019-12-30T13:36:01Z</time>
      </trkpt>
      <trkpt lat="43.79986" lon="7.05446">
        <ele>1358.1</ele>
        <time>2019-12-30T13:36:02Z</time>
      </trkpt>
      <trkpt lat="43.79986" lon="7.0545">
        <ele>1358.3</ele>
        <time>2019-12-30T13:36:03Z</time>
      </trkpt>
      <trkpt lat="43.79986" lon="7.05454">
        <ele>1358.4</ele>
        <time>2019-12-30T13:36:04Z</time>
      </trkpt>
      <trkpt lat="43.79987" lon="7.05458">
        <ele>1358.6</ele>
        <time>2019-12-30T13:36:05Z</time>
      </trkpt>
      <trkpt lat="43.79987" lon="7.05462">
        <ele>1358.7</ele>
        <time>2019-12-30T13:36:06Z</time>
      </trkpt>
      <trkpt lat="43.79987" lon="7.05466">
        <ele>1358.9</ele>
        <time>2019-12-30T13:36:07Z</time>
      </trkpt>
      <trkpt lat="43.79986" lon="7.05469">
        <ele>1359.1</ele>
        <time>2019-12-30T13:36:08Z</time>
      </trkpt>
      <trkpt lat="43.79985" lon="7.05473">
        <ele>1359.3</ele>
        <time>2019-12-30T13:36:09Z</time>
      </trkpt>
      <trkpt lat="43.79984" lon="7.05476">
        <ele>1359.6</ele>
        <time>2019-12-30T13:36:10Z</time>
      </trkpt>
      <trkpt lat="43.79984" lon="7.0548">
        <ele>1359.8</ele>
        <time>2019-12-30T13:36:11Z</time>
      </trkpt>
      <trkpt lat="43.79983" lon="7.05484">
        <ele>1360</ele>
        <time>2019-12-30T13:36:12Z</time>
      </trkpt>
      <trkpt lat="43.79983" lon="7.05487">
        <ele>1360.2</ele>
        <time>2019-12-30T13:36:13Z</time>
      </trkpt>
      <trkpt lat="43.79982" lon="7.05491">
        <ele>1360.5</ele>
        <time>2019-12-30T13:36:14Z</time>
      </trkpt>
      <trkpt lat="43.79982" lon="7.05494">
        <ele>1360.8</ele>
        <time>2019-12-30T13:36:15Z</time>
      </trkpt>
      <trkpt lat="43.79981" lon="7.05497">
        <ele>1361.1</ele>
        <time>2019-12-30T13:36:16Z</time>
      </trkpt>
      <trkpt lat="43.7998" lon="7.055">
        <ele>1361.3</ele>
        <time>2019-12-30T13:36:17Z</time>
      </trkpt>
      <trkpt lat="43.7998" lon="7.05502">
        <ele>1361.6</ele>
        <time>2019-12-30T13:36:18Z</time>
      </trkpt>
      <trkpt lat="43.79979" lon="7.05504">
        <ele>1361.8</ele>
        <time>2019-12-30T13:36:19Z</time>
      </trkpt>
      <trkpt lat="43.79978" lon="7.05507">
        <ele>1362</ele>
        <time>2019-12-30T13:36:20Z</time>
      </trkpt>
      <trkpt lat="43.79978" lon="7.05509">
        <ele>1362.3</ele>
        <time>2019-12-30T13:36:21Z</time>
      </trkpt>
      <trkpt lat="43.79978" lon="7.05513">
        <ele>1362.5</ele>
        <time>2019-12-30T13:36:22Z</time>
      </trkpt>
      <trkpt lat="43.79978" lon="7.05516">
        <ele>1362.8</ele>
        <time>2019-12-30T13:36:23Z</time>
      </trkpt>
      <trkpt lat="43.79978" lon="7.05519">
        <ele>1363</ele>
        <time>2019-12-30T13:36:24Z</time>
      </trkpt>
      <trkpt lat="43.79978" lon="7.05522">
        <ele>1363.3</ele>
        <time>2019-12-30T13:36:25Z</time>
      </trkpt>
      <trkpt lat="43.79978" lon="7.05525">
        <ele>1363.5</ele>
        <time>2019-12-30T13:36:26Z</time>
      </trkpt>
      <trkpt lat="43.79978" lon="7.05528">
        <ele>1363.7</ele>
        <time>2019-12-30T13:36:27Z</time>
      </trkpt>
      <trkpt lat="43.79978" lon="7.05531">
        <ele>1363.9</ele>
        <time>2019-12-30T13:36:28Z</time>
      </trkpt>
      <trkpt lat="43.79978" lon="7.05533">
        <ele>1364.1</ele>
        <time>2019-12-30T13:36:29Z</time>
      </trkpt>
      <trkpt lat="43.79977" lon="7.05536">
        <ele>1364.3</ele>
        <time>2019-12-30T13:36:30Z</time>
      </trkpt>
      <trkpt lat="43.79977" lon="7.05539">
        <ele>1364.5</ele>
        <time>2019-12-30T13:36:31Z</time>
      </trkpt>
      <trkpt lat="43.79978" lon="7.05543">
        <ele>1364.8</ele>
        <time>2019-12-30T13:36:32Z</time>
      </trkpt>
      <trkpt lat="43.79978" lon="7.05546">
        <ele>1365.1</ele>
        <time>2019-12-30T13:36:33Z</time>
      </trkpt>
      <trkpt lat="43.79978" lon="7.05549">
        <ele>1365.3</ele>
        <time>2019-12-30T13:36:34Z</time>
      </trkpt>
      <trkpt lat="43.79979" lon="7.05551">
        <ele>1365.6</ele>
        <time>2019-12-30T13:36:35Z</time>
      </trkpt>
      <trkpt lat="43.79979" lon="7.05554">
        <ele>1365.9</ele>
        <time>2019-12-30T13:36:36Z</time>
      </trkpt>
      <trkpt lat="43.7998" lon="7.05558">
        <ele>1366.2</ele>
        <time>2019-12-30T13:36:37Z</time>
      </trkpt>
      <trkpt lat="43.79979" lon="7.05562">
        <ele>1366.6</ele>
        <time>2019-12-30T13:36:38Z</time>
      </trkpt>
      <trkpt lat="43.79979" lon="7.05566">
        <ele>1367</ele>
        <time>2019-12-30T13:36:39Z</time>
      </trkpt>
      <trkpt lat="43.79979" lon="7.05569">
        <ele>1367.3</ele>
        <time>2019-12-30T13:36:40Z</time>
      </trkpt>
      <trkpt lat="43.79979" lon="7.05573">
        <ele>1367.6</ele>
        <time>2019-12-30T13:36:41Z</time>
      </trkpt>
      <trkpt lat="43.79979" lon="7.05577">
        <ele>1368</ele>
        <time>2019-12-30T13:36:42Z</time>
      </trkpt>
      <trkpt lat="43.79979" lon="7.0558">
        <ele>1368.3</ele>
        <time>2019-12-30T13:36:43Z</time>
      </trkpt>
      <trkpt lat="43.79978" lon="7.05582">
        <ele>1368.4</ele>
        <time>2019-12-30T13:36:44Z</time>
      </trkpt>
      <trkpt lat="43.79978" lon="7.05584">
        <ele>1368.5</ele>
        <time>2019-12-30T13:36:45Z</time>
      </trkpt>
      <trkpt lat="43.79979" lon="7.05587">
        <ele>1368.7</ele>
        <time>2019-12-30T13:36:46Z</time>
      </trkpt>
      <trkpt lat="43.79979" lon="7.0559">
        <ele>1368.9</ele>
        <time>2019-12-30T13:36:47Z</time>
      </trkpt>
      <trkpt lat="43.7998" lon="7.05593">
        <ele>1369.2</ele>
        <time>2019-12-30T13:36:48Z</time>
      </trkpt>
      <trkpt lat="43.7998" lon="7.05596">
        <ele>1369.4</ele>
        <time>2019-12-30T13:36:49Z</time>
      </trkpt>
      <trkpt lat="43.7998" lon="7.056">
        <ele>1369.6</ele>
        <time>2019-12-30T13:36:50Z</time>
      </trkpt>
      <trkpt lat="43.7998" lon="7.05604">
        <ele>1369.9</ele>
        <time>2019-12-30T13:36:51Z</time>
      </trkpt>
      <trkpt lat="43.7998" lon="7.05607">
        <ele>1370.1</ele>
        <time>2019-12-30T13:36:52Z</time>
      </trkpt>
      <trkpt lat="43.79979" lon="7.05611">
        <ele>1370.3</ele>
        <time>2019-12-30T13:36:53Z</time>
      </trkpt>
      <trkpt lat="43.79979" lon="7.05614">
        <ele>1370.4</ele>
        <time>2019-12-30T13:36:54Z</time>
      </trkpt>
      <trkpt lat="43.79978" lon="7.05617">
        <ele>1370.6</ele>
        <time>2019-12-30T13:36:55Z</time>
      </trkpt>
      <trkpt lat="43.79977" lon="7.05621">
        <ele>1370.8</ele>
        <time>2019-12-30T13:36:56Z</time>
      </trkpt>
      <trkpt lat="43.79976" lon="7.05624">
        <ele>1371</ele>
        <time>2019-12-30T13:36:57Z</time>
      </trkpt>
      <trkpt lat="43.79975" lon="7.05628">
        <ele>1371.2</ele>
        <time>2019-12-30T13:36:58Z</time>
      </trkpt>
      <trkpt lat="43.79974" lon="7.05631">
        <ele>1371.5</ele>
        <time>2019-12-30T13:36:59Z</time>
      </trkpt>
      <trkpt lat="43.79973" lon="7.05634">
        <ele>1371.7</ele>
        <time>2019-12-30T13:37:00Z</time>
      </trkpt>
      <trkpt lat="43.79972" lon="7.05638">
        <ele>1372</ele>
        <time>2019-12-30T13:37:01Z</time>
      </trkpt>
      <trkpt lat="43.79972" lon="7.05641">
        <ele>1372.2</ele>
        <time>2019-12-30T13:37:02Z</time>
      </trkpt>
      <trkpt lat="43.79972" lon="7.05644">
        <ele>1372.5</ele>
        <time>2019-12-30T13:37:03Z</time>
      </trkpt>
      <trkpt lat="43.79972" lon="7.05648">
        <ele>1372.7</ele>
        <time>2019-12-30T13:37:04Z</time>
      </trkpt>
      <trkpt lat="43.79972" lon="7.05651">
        <ele>1372.9</ele>
        <time>2019-12-30T13:37:05Z</time>
      </trkpt>
      <trkpt lat="43.79971" lon="7.05655">
        <ele>1373.1</ele>
        <time>2019-12-30T13:37:06Z</time>
      </trkpt>
      <trkpt lat="43.79971" lon="7.05659">
        <ele>1373.3</ele>
        <time>2019-12-30T13:37:07Z</time>
      </trkpt>
      <trkpt lat="43.79971" lon="7.05662">
        <ele>1373.6</ele>
        <time>2019-12-30T13:37:08Z</time>
      </trkpt>
      <trkpt lat="43.79972" lon="7.05666">
        <ele>1373.8</ele>
        <time>2019-12-30T13:37:09Z</time>
      </trkpt>
      <trkpt lat="43.79972" lon="7.05669">
        <ele>1374.1</ele>
        <time>2019-12-30T13:37:10Z</time>
      </trkpt>
      <trkpt lat="43.79972" lon="7.05673">
        <ele>1374.3</ele>
        <time>2019-12-30T13:37:11Z</time>
      </trkpt>
      <trkpt lat="43.79973" lon="7.05676">
        <ele>1374.6</ele>
        <time>2019-12-30T13:37:12Z</time>
      </trkpt>
      <trkpt lat="43.79973" lon="7.05679">
        <ele>1374.9</ele>
        <time>2019-12-30T13:37:13Z</time>
      </trkpt>
      <trkpt lat="43.79973" lon="7.05683">
        <ele>1375.3</ele>
        <time>2019-12-30T13:37:14Z</time>
      </trkpt>
      <trkpt lat="43.79974" lon="7.05686">
        <ele>1375.6</ele>
        <time>2019-12-30T13:37:15Z</time>
      </trkpt>
      <trkpt lat="43.79974" lon="7.0569">
        <ele>1375.8</ele>
        <time>2019-12-30T13:37:16Z</time>
      </trkpt>
      <trkpt lat="43.79975" lon="7.05693">
        <ele>1376.1</ele>
        <time>2019-12-30T13:37:17Z</time>
      </trkpt>
      <trkpt lat="43.79975" lon="7.05696">
        <ele>1376.3</ele>
        <time>2019-12-30T13:37:18Z</time>
      </trkpt>
      <trkpt lat="43.79975" lon="7.057">
        <ele>1376.5</ele>
        <time>2019-12-30T13:37:19Z</time>
      </trkpt>
      <trkpt lat="43.79976" lon="7.05702">
        <ele>1376.7</ele>
        <time>2019-12-30T13:37:20Z</time>
      </trkpt>
      <trkpt lat="43.79976" lon="7.05703">
        <ele>1376.8</ele>
        <time>2019-12-30T13:37:21Z</time>
      </trkpt>
      <trkpt lat="43.79976" lon="7.05705">
        <ele>1376.9</ele>
        <time>2019-12-30T13:37:22Z</time>
      </trkpt>
      <trkpt lat="43.79976" lon="7.05707">
        <ele>1377</ele>
        <time>2019-12-30T13:37:23Z</time>
      </trkpt>
      <trkpt lat="43.79976" lon="7.05709">
        <ele>1377.3</ele>
        <time>2019-12-30T13:37:24Z</time>
      </trkpt>
      <trkpt lat="43.79976" lon="7.05712">
        <ele>1377.6</ele>
        <time>2019-12-30T13:37:25Z</time>
      </trkpt>
      <trkpt lat="43.79976" lon="7.05715">
        <ele>1377.9</ele>
        <time>2019-12-30T13:37:26Z</time>
      </trkpt>
      <trkpt lat="43.79976" lon="7.05718">
        <ele>1378.2</ele>
        <time>2019-12-30T13:37:27Z</time>
      </trkpt>
      <trkpt lat="43.79976" lon="7.05721">
        <ele>1378.6</ele>
        <time>2019-12-30T13:37:28Z</time>
      </trkpt>
      <trkpt lat="43.79976" lon="7.05724">
        <ele>1378.8</ele>
        <time>2019-12-30T13:37:29Z</time>
      </trkpt>
      <trkpt lat="43.79976" lon="7.05726">
        <ele>1379.1</ele>
        <time>2019-12-30T13:37:30Z</time>
      </trkpt>
      <trkpt lat="43.79976" lon="7.05729">
        <ele>1379.2</ele>
        <time>2019-12-30T13:37:31Z</time>
      </trkpt>
      <trkpt lat="43.79976" lon="7.05731">
        <ele>1379.4</ele>
        <time>2019-12-30T13:37:32Z</time>
      </trkpt>
      <trkpt lat="43.79976" lon="7.05734">
        <ele>1379.6</ele>
        <time>2019-12-30T13:37:33Z</time>
      </trkpt>
      <trkpt lat="43.79976" lon="7.05737">
        <ele>1379.8</ele>
        <time>2019-12-30T13:37:34Z</time>
      </trkpt>
      <trkpt lat="43.79976" lon="7.0574">
        <ele>1380</ele>
        <time>2019-12-30T13:37:35Z</time>
      </trkpt>
      <trkpt lat="43.79976" lon="7.05743">
        <ele>1380.3</ele>
        <time>2019-12-30T13:37:36Z</time>
      </trkpt>
      <trkpt lat="43.79976" lon="7.05746">
        <ele>1380.4</ele>
        <time>2019-12-30T13:37:37Z</time>
      </trkpt>
      <trkpt lat="43.79976" lon="7.05749">
        <ele>1380.6</ele>
        <time>2019-12-30T13:37:38Z</time>
      </trkpt>
      <trkpt lat="43.79976" lon="7.0575">
        <ele>1380.7</ele>
        <time>2019-12-30T13:37:39Z</time>
      </trkpt>
      <trkpt lat="43.79976" lon="7.05752">
        <ele>1380.7</ele>
        <time>2019-12-30T13:37:40Z</time>
      </trkpt>
      <trkpt lat="43.79975" lon="7.05752">
        <ele>1380.7</ele>
        <time>2019-12-30T13:37:41Z</time>
      </trkpt>
      <trkpt lat="43.79975" lon="7.05752">
        <ele>1380.6</ele>
        <time>2019-12-30T13:37:42Z</time>
      </trkpt>
      <trkpt lat="43.79975" lon="7.05752">
        <ele>1380.7</ele>
        <time>2019-12-30T13:37:43Z</time>
      </trkpt>
      <trkpt lat="43.79975" lon="7.05753">
        <ele>1380.6</ele>
        <time>2019-12-30T13:37:44Z</time>
      </trkpt>
      <trkpt lat="43.79975" lon="7.05753">
        <ele>1380.5</ele>
        <time>2019-12-30T13:37:45Z</time>
      </trkpt>
      <trkpt lat="43.79975" lon="7.05753">
        <ele>1380.5</ele>
        <time>2019-12-30T13:37:46Z</time>
      </trkpt>
      <trkpt lat="43.79975" lon="7.05753">
        <ele>1380.5</ele>
        <time>2019-12-30T13:37:47Z</time>
      </trkpt>
      <trkpt lat="43.79974" lon="7.05753">
        <ele>1380.5</ele>
        <time>2019-12-30T13:37:48Z</time>
      </trkpt>
      <trkpt lat="43.79974" lon="7.05753">
        <ele>1380.4</ele>
        <time>2019-12-30T13:37:49Z</time>
      </trkpt>
      <trkpt lat="43.79974" lon="7.05753">
        <ele>1380.4</ele>
        <time>2019-12-30T13:37:50Z</time>
      </trkpt>
      <trkpt lat="43.79974" lon="7.05753">
        <ele>1380.4</ele>
        <time>2019-12-30T13:37:51Z</time>
      </trkpt>
      <trkpt lat="43.79973" lon="7.05753">
        <ele>1380.3</ele>
        <time>2019-12-30T13:37:52Z</time>
      </trkpt>
      <trkpt lat="43.79973" lon="7.05753">
        <ele>1380.3</ele>
        <time>2019-12-30T13:37:53Z</time>
      </trkpt>
      <trkpt lat="43.79973" lon="7.05753">
        <ele>1380.2</ele>
        <time>2019-12-30T13:37:54Z</time>
      </trkpt>
      <trkpt lat="43.79973" lon="7.05753">
        <ele>1380.2</ele>
        <time>2019-12-30T13:37:55Z</time>
      </trkpt>
      <trkpt lat="43.79973" lon="7.05753">
        <ele>1380.1</ele>
        <time>2019-12-30T13:37:56Z</time>
      </trkpt>
      <trkpt lat="43.79973" lon="7.05753">
        <ele>1380.1</ele>
        <time>2019-12-30T13:37:57Z</time>
      </trkpt>
      <trkpt lat="43.79973" lon="7.05753">
        <ele>1380</ele>
        <time>2019-12-30T13:37:58Z</time>
      </trkpt>
      <trkpt lat="43.79973" lon="7.05753">
        <ele>1380</ele>
        <time>2019-12-30T13:37:59Z</time>
      </trkpt>
      <trkpt lat="43.79973" lon="7.05753">
        <ele>1380</ele>
        <time>2019-12-30T13:38:00Z</time>
      </trkpt>
      <trkpt lat="43.79973" lon="7.05753">
        <ele>1379.9</ele>
        <time>2019-12-30T13:38:01Z</time>
      </trkpt>
      <trkpt lat="43.79973" lon="7.05753">
        <ele>1379.9</ele>
        <time>2019-12-30T13:38:02Z</time>
      </trkpt>
      <trkpt lat="43.79973" lon="7.05753">
        <ele>1379.8</ele>
        <time>2019-12-30T13:38:03Z</time>
      </trkpt>
      <trkpt lat="43.79973" lon="7.05753">
        <ele>1379.7</ele>
        <time>2019-12-30T13:38:04Z</time>
      </trkpt>
      <trkpt lat="43.79973" lon="7.05753">
        <ele>1379.7</ele>
        <time>2019-12-30T13:38:05Z</time>
      </trkpt>
      <trkpt lat="43.79973" lon="7.05752">
        <ele>1379.7</ele>
        <time>2019-12-30T13:38:06Z</time>
      </trkpt>
      <trkpt lat="43.79973" lon="7.05752">
        <ele>1379.7</ele>
        <time>2019-12-30T13:38:07Z</time>
      </trkpt>
      <trkpt lat="43.79972" lon="7.05752">
        <ele>1379.6</ele>
        <time>2019-12-30T13:38:08Z</time>
      </trkpt>
      <trkpt lat="43.79972" lon="7.05752">
        <ele>1379.6</ele>
        <time>2019-12-30T13:38:09Z</time>
      </trkpt>
      <trkpt lat="43.79972" lon="7.05752">
        <ele>1379.6</ele>
        <time>2019-12-30T13:38:10Z</time>
      </trkpt>
      <trkpt lat="43.79972" lon="7.05752">
        <ele>1379.5</ele>
        <time>2019-12-30T13:38:11Z</time>
      </trkpt>
      <trkpt lat="43.79972" lon="7.05752">
        <ele>1379.5</ele>
        <time>2019-12-30T13:38:12Z</time>
      </trkpt>
      <trkpt lat="43.79971" lon="7.05752">
        <ele>1379.4</ele>
        <time>2019-12-30T13:38:13Z</time>
      </trkpt>
      <trkpt lat="43.79971" lon="7.05753">
        <ele>1379.4</ele>
        <time>2019-12-30T13:38:14Z</time>
      </trkpt>
      <trkpt lat="43.79971" lon="7.05753">
        <ele>1379.4</ele>
        <time>2019-12-30T13:38:15Z</time>
      </trkpt>
      <trkpt lat="43.79971" lon="7.05753">
        <ele>1379.3</ele>
        <time>2019-12-30T13:38:16Z</time>
      </trkpt>
      <trkpt lat="43.79971" lon="7.05753">
        <ele>1379.3</ele>
        <time>2019-12-30T13:38:17Z</time>
      </trkpt>
      <trkpt lat="43.79971" lon="7.05754">
        <ele>1379.3</ele>
        <time>2019-12-30T13:38:18Z</time>
      </trkpt>
      <trkpt lat="43.79971" lon="7.05754">
        <ele>1379.2</ele>
        <time>2019-12-30T13:38:19Z</time>
      </trkpt>
      <trkpt lat="43.79971" lon="7.05754">
        <ele>1379.2</ele>
        <time>2019-12-30T13:38:20Z</time>
      </trkpt>
      <trkpt lat="43.79971" lon="7.05755">
        <ele>1379.1</ele>
        <time>2019-12-30T13:38:21Z</time>
      </trkpt>
      <trkpt lat="43.79971" lon="7.05755">
        <ele>1379.1</ele>
        <time>2019-12-30T13:38:22Z</time>
      </trkpt>
      <trkpt lat="43.79971" lon="7.05755">
        <ele>1379</ele>
        <time>2019-12-30T13:38:23Z</time>
      </trkpt>
      <trkpt lat="43.79972" lon="7.05755">
        <ele>1379</ele>
        <time>2019-12-30T13:38:24Z</time>
      </trkpt>
      <trkpt lat="43.79972" lon="7.05755">
        <ele>1379</ele>
        <time>2019-12-30T13:38:25Z</time>
      </trkpt>
      <trkpt lat="43.79972" lon="7.05755">
        <ele>1378.9</ele>
        <time>2019-12-30T13:38:26Z</time>
      </trkpt>
      <trkpt lat="43.79972" lon="7.05755">
        <ele>1378.9</ele>
        <time>2019-12-30T13:38:27Z</time>
      </trkpt>
      <trkpt lat="43.79972" lon="7.05754">
        <ele>1378.8</ele>
        <time>2019-12-30T13:38:28Z</time>
      </trkpt>
      <trkpt lat="43.79972" lon="7.05754">
        <ele>1378.8</ele>
        <time>2019-12-30T13:38:29Z</time>
      </trkpt>
      <trkpt lat="43.79973" lon="7.05754">
        <ele>1378.8</ele>
        <time>2019-12-30T13:38:30Z</time>
      </trkpt>
      <trkpt lat="43.79973" lon="7.05754">
        <ele>1378.7</ele>
        <time>2019-12-30T13:38:31Z</time>
      </trkpt>
      <trkpt lat="43.79973" lon="7.05753">
        <ele>1378.7</ele>
        <time>2019-12-30T13:38:32Z</time>
      </trkpt>
      <trkpt lat="43.79974" lon="7.05753">
        <ele>1378.7</ele>
        <time>2019-12-30T13:38:33Z</time>
      </trkpt>
      <trkpt lat="43.79974" lon="7.05753">
        <ele>1378.7</ele>
        <time>2019-12-30T13:38:34Z</time>
      </trkpt>
      <trkpt lat="43.79974" lon="7.05752">
        <ele>1378.6</ele>
        <time>2019-12-30T13:38:35Z</time>
      </trkpt>
      <trkpt lat="43.79974" lon="7.05752">
        <ele>1378.6</ele>
        <time>2019-12-30T13:38:36Z</time>
      </trkpt>
      <trkpt lat="43.79974" lon="7.05752">
        <ele>1378.5</ele>
        <time>2019-12-30T13:38:37Z</time>
      </trkpt>
      <trkpt lat="43.79974" lon="7.05752">
        <ele>1378.4</ele>
        <time>2019-12-30T13:38:38Z</time>
      </trkpt>
      <trkpt lat="43.79974" lon="7.05752">
        <ele>1378.4</ele>
        <time>2019-12-30T13:38:39Z</time>
      </trkpt>
      <trkpt lat="43.79974" lon="7.05752">
        <ele>1378.4</ele>
        <time>2019-12-30T13:38:40Z</time>
      </trkpt>
      <trkpt lat="43.79974" lon="7.05752">
        <ele>1378.4</ele>
        <time>2019-12-30T13:38:41Z</time>
      </trkpt>
      <trkpt lat="43.79974" lon="7.05752">
        <ele>1378.3</ele>
        <time>2019-12-30T13:38:42Z</time>
      </trkpt>
      <trkpt lat="43.79975" lon="7.05752">
        <ele>1378.3</ele>
        <time>2019-12-30T13:38:43Z</time>
      </trkpt>
      <trkpt lat="43.79975" lon="7.05751">
        <ele>1378.2</ele>
        <time>2019-12-30T13:38:44Z</time>
      </trkpt>
      <trkpt lat="43.79975" lon="7.05751">
        <ele>1378.1</ele>
        <time>2019-12-30T13:38:45Z</time>
      </trkpt>
      <trkpt lat="43.79975" lon="7.05751">
        <ele>1378.1</ele>
        <time>2019-12-30T13:38:46Z</time>
      </trkpt>
      <trkpt lat="43.79975" lon="7.05751">
        <ele>1378</ele>
        <time>2019-12-30T13:38:47Z</time>
      </trkpt>
      <trkpt lat="43.79975" lon="7.05751">
        <ele>1378</ele>
        <time>2019-12-30T13:38:48Z</time>
      </trkpt>
      <trkpt lat="43.79975" lon="7.05751">
        <ele>1378</ele>
        <time>2019-12-30T13:38:49Z</time>
      </trkpt>
      <trkpt lat="43.79975" lon="7.05751">
        <ele>1377.9</ele>
        <time>2019-12-30T13:38:50Z</time>
      </trkpt>
      <trkpt lat="43.79975" lon="7.05751">
        <ele>1377.9</ele>
        <time>2019-12-30T13:38:51Z</time>
      </trkpt>
      <trkpt lat="43.79975" lon="7.05751">
        <ele>1377.8</ele>
        <time>2019-12-30T13:38:52Z</time>
      </trkpt>
      <trkpt lat="43.79975" lon="7.05751">
        <ele>1377.8</ele>
        <time>2019-12-30T13:38:53Z</time>
      </trkpt>
      <trkpt lat="43.79975" lon="7.05751">
        <ele>1377.7</ele>
        <time>2019-12-30T13:38:54Z</time>
      </trkpt>
      <trkpt lat="43.79975" lon="7.05751">
        <ele>1377.7</ele>
        <time>2019-12-30T13:38:55Z</time>
      </trkpt>
      <trkpt lat="43.79975" lon="7.05751">
        <ele>1377.6</ele>
        <time>2019-12-30T13:38:56Z</time>
      </trkpt>
      <trkpt lat="43.79975" lon="7.05751">
        <ele>1377.5</ele>
        <time>2019-12-30T13:38:57Z</time>
      </trkpt>
      <trkpt lat="43.79976" lon="7.05751">
        <ele>1377.5</ele>
        <time>2019-12-30T13:38:58Z</time>
      </trkpt>
      <trkpt lat="43.79976" lon="7.05751">
        <ele>1377.4</ele>
        <time>2019-12-30T13:38:59Z</time>
      </trkpt>
      <trkpt lat="43.79976" lon="7.05751">
        <ele>1377.4</ele>
        <time>2019-12-30T13:39:00Z</time>
      </trkpt>
      <trkpt lat="43.79976" lon="7.05752">
        <ele>1377.3</ele>
        <time>2019-12-30T13:39:01Z</time>
      </trkpt>
      <trkpt lat="43.79976" lon="7.05752">
        <ele>1377.2</ele>
        <time>2019-12-30T13:39:02Z</time>
      </trkpt>
      <trkpt lat="43.79976" lon="7.05752">
        <ele>1377.2</ele>
        <time>2019-12-30T13:39:03Z</time>
      </trkpt>
      <trkpt lat="43.79976" lon="7.05752">
        <ele>1377.2</ele>
        <time>2019-12-30T13:39:04Z</time>
      </trkpt>
      <trkpt lat="43.79976" lon="7.05752">
        <ele>1377.2</ele>
        <time>2019-12-30T13:39:05Z</time>
      </trkpt>
      <trkpt lat="43.79976" lon="7.05752">
        <ele>1377.1</ele>
        <time>2019-12-30T13:39:06Z</time>
      </trkpt>
      <trkpt lat="43.79976" lon="7.05752">
        <ele>1377.1</ele>
        <time>2019-12-30T13:39:07Z</time>
      </trkpt>
      <trkpt lat="43.79976" lon="7.05752">
        <ele>1377</ele>
        <time>2019-12-30T13:39:08Z</time>
      </trkpt>
      <trkpt lat="43.79976" lon="7.05752">
        <ele>1377</ele>
        <time>2019-12-30T13:39:09Z</time>
      </trkpt>
      <trkpt lat="43.79976" lon="7.05752">
        <ele>1377</ele>
        <time>2019-12-30T13:39:10Z</time>
      </trkpt>
      <trkpt lat="43.79975" lon="7.05752">
        <ele>1377</ele>
        <time>2019-12-30T13:39:11Z</time>
      </trkpt>
      <trkpt lat="43.79975" lon="7.05752">
        <ele>1377</ele>
        <time>2019-12-30T13:39:12Z</time>
      </trkpt>
      <trkpt lat="43.79975" lon="7.05753">
        <ele>1377.1</ele>
        <time>2019-12-30T13:39:13Z</time>
      </trkpt>
      <trkpt lat="43.79975" lon="7.05753">
        <ele>1377.1</ele>
        <time>2019-12-30T13:39:14Z</time>
      </trkpt>
      <trkpt lat="43.79974" lon="7.05753">
        <ele>1377.1</ele>
        <time>2019-12-30T13:39:15Z</time>
      </trkpt>
      <trkpt lat="43.79974" lon="7.05753">
        <ele>1377.1</ele>
        <time>2019-12-30T13:39:16Z</time>
      </trkpt>
      <trkpt lat="43.79974" lon="7.05754">
        <ele>1377.2</ele>
        <time>2019-12-30T13:39:17Z</time>
      </trkpt>
      <trkpt lat="43.79974" lon="7.05754">
        <ele>1377.2</ele>
        <time>2019-12-30T13:39:18Z</time>
      </trkpt>
      <trkpt lat="43.79974" lon="7.05754">
        <ele>1377.2</ele>
        <time>2019-12-30T13:39:19Z</time>
      </trkpt>
      <trkpt lat="43.79974" lon="7.05754">
        <ele>1377.2</ele>
        <time>2019-12-30T13:39:20Z</time>
      </trkpt>
      <trkpt lat="43.79974" lon="7.05754">
        <ele>1377.2</ele>
        <time>2019-12-30T13:39:21Z</time>
      </trkpt>
      <trkpt lat="43.79974" lon="7.05754">
        <ele>1377.2</ele>
        <time>2019-12-30T13:39:22Z</time>
      </trkpt>
      <trkpt lat="43.79974" lon="7.05754">
        <ele>1377.2</ele>
        <time>2019-12-30T13:39:23Z</time>
      </trkpt>
      <trkpt lat="43.79974" lon="7.05754">
        <ele>1377.2</ele>
        <time>2019-12-30T13:39:24Z</time>
      </trkpt>
      <trkpt lat="43.79974" lon="7.05754">
        <ele>1377.3</ele>
        <time>2019-12-30T13:39:25Z</time>
      </trkpt>
      <trkpt lat="43.79974" lon="7.05754">
        <ele>1377.3</ele>
        <time>2019-12-30T13:39:26Z</time>
      </trkpt>
      <trkpt lat="43.79974" lon="7.05754">
        <ele>1377.3</ele>
        <time>2019-12-30T13:39:27Z</time>
      </trkpt>
      <trkpt lat="43.79974" lon="7.05754">
        <ele>1377.3</ele>
        <time>2019-12-30T13:39:28Z</time>
      </trkpt>
      <trkpt lat="43.79974" lon="7.05754">
        <ele>1377.3</ele>
        <time>2019-12-30T13:39:29Z</time>
      </trkpt>
      <trkpt lat="43.79973" lon="7.05754">
        <ele>1377.4</ele>
        <time>2019-12-30T13:39:30Z</time>
      </trkpt>
      <trkpt lat="43.79973" lon="7.05755">
        <ele>1377.4</ele>
        <time>2019-12-30T13:39:31Z</time>
      </trkpt>
      <trkpt lat="43.79973" lon="7.05755">
        <ele>1377.5</ele>
        <time>2019-12-30T13:39:32Z</time>
      </trkpt>
      <trkpt lat="43.79973" lon="7.05756">
        <ele>1377.5</ele>
        <time>2019-12-30T13:39:33Z</time>
      </trkpt>
      <trkpt lat="43.79972" lon="7.05756">
        <ele>1377.6</ele>
        <time>2019-12-30T13:39:34Z</time>
      </trkpt>
      <trkpt lat="43.79972" lon="7.05756">
        <ele>1377.6</ele>
        <time>2019-12-30T13:39:35Z</time>
      </trkpt>
      <trkpt lat="43.79972" lon="7.05756">
        <ele>1377.6</ele>
        <time>2019-12-30T13:39:36Z</time>
      </trkpt>
      <trkpt lat="43.79972" lon="7.05756">
        <ele>1377.7</ele>
        <time>2019-12-30T13:39:37Z</time>
      </trkpt>
      <trkpt lat="43.79972" lon="7.05756">
        <ele>1377.7</ele>
        <time>2019-12-30T13:39:38Z</time>
      </trkpt>
      <trkpt lat="43.79972" lon="7.05756">
        <ele>1377.7</ele>
        <time>2019-12-30T13:39:39Z</time>
      </trkpt>
      <trkpt lat="43.79972" lon="7.05756">
        <ele>1377.7</ele>
        <time>2019-12-30T13:39:40Z</time>
      </trkpt>
      <trkpt lat="43.79972" lon="7.05757">
        <ele>1377.8</ele>
        <time>2019-12-30T13:39:41Z</time>
      </trkpt>
      <trkpt lat="43.79971" lon="7.05759">
        <ele>1378</ele>
        <time>2019-12-30T13:39:42Z</time>
      </trkpt>
      <trkpt lat="43.79971" lon="7.05761">
        <ele>1378.2</ele>
        <time>2019-12-30T13:39:43Z</time>
      </trkpt>
      <trkpt lat="43.79971" lon="7.05765">
        <ele>1378.6</ele>
        <time>2019-12-30T13:39:44Z</time>
      </trkpt>
      <trkpt lat="43.7997" lon="7.05768">
        <ele>1379</ele>
        <time>2019-12-30T13:39:45Z</time>
      </trkpt>
      <trkpt lat="43.7997" lon="7.05772">
        <ele>1379.3</ele>
        <time>2019-12-30T13:39:46Z</time>
      </trkpt>
      <trkpt lat="43.7997" lon="7.05775">
        <ele>1379.6</ele>
        <time>2019-12-30T13:39:47Z</time>
      </trkpt>
      <trkpt lat="43.7997" lon="7.05779">
        <ele>1379.8</ele>
        <time>2019-12-30T13:39:48Z</time>
      </trkpt>
      <trkpt lat="43.79969" lon="7.05781">
        <ele>1380.1</ele>
        <time>2019-12-30T13:39:49Z</time>
      </trkpt>
      <trkpt lat="43.79969" lon="7.05784">
        <ele>1380.3</ele>
        <time>2019-12-30T13:39:50Z</time>
      </trkpt>
      <trkpt lat="43.79968" lon="7.05787">
        <ele>1380.5</ele>
        <time>2019-12-30T13:39:51Z</time>
      </trkpt>
      <trkpt lat="43.79968" lon="7.0579">
        <ele>1380.7</ele>
        <time>2019-12-30T13:39:52Z</time>
      </trkpt>
      <trkpt lat="43.79967" lon="7.05793">
        <ele>1381</ele>
        <time>2019-12-30T13:39:53Z</time>
      </trkpt>
      <trkpt lat="43.79967" lon="7.05796">
        <ele>1381.2</ele>
        <time>2019-12-30T13:39:54Z</time>
      </trkpt>
      <trkpt lat="43.79968" lon="7.05799">
        <ele>1381.4</ele>
        <time>2019-12-30T13:39:55Z</time>
      </trkpt>
      <trkpt lat="43.79968" lon="7.05801">
        <ele>1381.6</ele>
        <time>2019-12-30T13:39:56Z</time>
      </trkpt>
      <trkpt lat="43.79968" lon="7.05805">
        <ele>1381.9</ele>
        <time>2019-12-30T13:39:57Z</time>
      </trkpt>
      <trkpt lat="43.79968" lon="7.05811">
        <ele>1382.3</ele>
        <time>2019-12-30T13:39:58Z</time>
      </trkpt>
      <trkpt lat="43.79968" lon="7.05816">
        <ele>1382.6</ele>
        <time>2019-12-30T13:39:59Z</time>
      </trkpt>
      <trkpt lat="43.79968" lon="7.05821">
        <ele>1382.8</ele>
        <time>2019-12-30T13:40:00Z</time>
      </trkpt>
      <trkpt lat="43.79968" lon="7.05826">
        <ele>1382.9</ele>
        <time>2019-12-30T13:40:01Z</time>
      </trkpt>
      <trkpt lat="43.79967" lon="7.0583">
        <ele>1383</ele>
        <time>2019-12-30T13:40:02Z</time>
      </trkpt>
      <trkpt lat="43.79966" lon="7.05834">
        <ele>1383.1</ele>
        <time>2019-12-30T13:40:03Z</time>
      </trkpt>
      <trkpt lat="43.79964" lon="7.05837">
        <ele>1383.2</ele>
        <time>2019-12-30T13:40:04Z</time>
      </trkpt>
      <trkpt lat="43.79963" lon="7.0584">
        <ele>1383.2</ele>
        <time>2019-12-30T13:40:05Z</time>
      </trkpt>
      <trkpt lat="43.79961" lon="7.05843">
        <ele>1383.2</ele>
        <time>2019-12-30T13:40:06Z</time>
      </trkpt>
      <trkpt lat="43.7996" lon="7.05846">
        <ele>1383.2</ele>
        <time>2019-12-30T13:40:07Z</time>
      </trkpt>
      <trkpt lat="43.7996" lon="7.05849">
        <ele>1383.2</ele>
        <time>2019-12-30T13:40:08Z</time>
      </trkpt>
      <trkpt lat="43.79962" lon="7.05853">
        <ele>1383.2</ele>
        <time>2019-12-30T13:40:09Z</time>
      </trkpt>
      <trkpt lat="43.79963" lon="7.05857">
        <ele>1383.2</ele>
        <time>2019-12-30T13:40:10Z</time>
      </trkpt>
      <trkpt lat="43.79966" lon="7.0586">
        <ele>1383.1</ele>
        <time>2019-12-30T13:40:11Z</time>
      </trkpt>
      <trkpt lat="43.79967" lon="7.05864">
        <ele>1383.1</ele>
        <time>2019-12-30T13:40:12Z</time>
      </trkpt>
      <trkpt lat="43.79969" lon="7.05868">
        <ele>1383</ele>
        <time>2019-12-30T13:40:13Z</time>
      </trkpt>
      <trkpt lat="43.79969" lon="7.05872">
        <ele>1382.9</ele>
        <time>2019-12-30T13:40:14Z</time>
      </trkpt>
      <trkpt lat="43.7997" lon="7.05877">
        <ele>1382.8</ele>
        <time>2019-12-30T13:40:15Z</time>
      </trkpt>
      <trkpt lat="43.7997" lon="7.05881">
        <ele>1382.7</ele>
        <time>2019-12-30T13:40:16Z</time>
      </trkpt>
      <trkpt lat="43.7997" lon="7.05886">
        <ele>1382.6</ele>
        <time>2019-12-30T13:40:17Z</time>
      </trkpt>
      <trkpt lat="43.7997" lon="7.0589">
        <ele>1382.5</ele>
        <time>2019-12-30T13:40:18Z</time>
      </trkpt>
      <trkpt lat="43.7997" lon="7.05895">
        <ele>1382.4</ele>
        <time>2019-12-30T13:40:19Z</time>
      </trkpt>
      <trkpt lat="43.7997" lon="7.059">
        <ele>1382.3</ele>
        <time>2019-12-30T13:40:20Z</time>
      </trkpt>
      <trkpt lat="43.7997" lon="7.05905">
        <ele>1382.2</ele>
        <time>2019-12-30T13:40:21Z</time>
      </trkpt>
      <trkpt lat="43.7997" lon="7.0591">
        <ele>1382.1</ele>
        <time>2019-12-30T13:40:22Z</time>
      </trkpt>
      <trkpt lat="43.7997" lon="7.05914">
        <ele>1382.1</ele>
        <time>2019-12-30T13:40:23Z</time>
      </trkpt>
      <trkpt lat="43.7997" lon="7.05918">
        <ele>1382</ele>
        <time>2019-12-30T13:40:24Z</time>
      </trkpt>
      <trkpt lat="43.7997" lon="7.05922">
        <ele>1382</ele>
        <time>2019-12-30T13:40:25Z</time>
      </trkpt>
      <trkpt lat="43.7997" lon="7.05926">
        <ele>1382</ele>
        <time>2019-12-30T13:40:26Z</time>
      </trkpt>
      <trkpt lat="43.7997" lon="7.05929">
        <ele>1381.9</ele>
        <time>2019-12-30T13:40:27Z</time>
      </trkpt>
      <trkpt lat="43.7997" lon="7.05933">
        <ele>1381.9</ele>
        <time>2019-12-30T13:40:28Z</time>
      </trkpt>
      <trkpt lat="43.79969" lon="7.05936">
        <ele>1381.9</ele>
        <time>2019-12-30T13:40:29Z</time>
      </trkpt>
      <trkpt lat="43.79968" lon="7.05939">
        <ele>1382</ele>
        <time>2019-12-30T13:40:30Z</time>
      </trkpt>
      <trkpt lat="43.79967" lon="7.05942">
        <ele>1382</ele>
        <time>2019-12-30T13:40:31Z</time>
      </trkpt>
      <trkpt lat="43.79966" lon="7.05945">
        <ele>1382</ele>
        <time>2019-12-30T13:40:32Z</time>
      </trkpt>
      <trkpt lat="43.79964" lon="7.05947">
        <ele>1382.1</ele>
        <time>2019-12-30T13:40:33Z</time>
      </trkpt>
      <trkpt lat="43.79963" lon="7.0595">
        <ele>1382.2</ele>
        <time>2019-12-30T13:40:34Z</time>
      </trkpt>
      <trkpt lat="43.79962" lon="7.05953">
        <ele>1382.3</ele>
        <time>2019-12-30T13:40:35Z</time>
      </trkpt>
      <trkpt lat="43.79962" lon="7.05955">
        <ele>1382.4</ele>
        <time>2019-12-30T13:40:36Z</time>
      </trkpt>
      <trkpt lat="43.79961" lon="7.05958">
        <ele>1382.5</ele>
        <time>2019-12-30T13:40:37Z</time>
      </trkpt>
      <trkpt lat="43.79961" lon="7.0596">
        <ele>1382.6</ele>
        <time>2019-12-30T13:40:38Z</time>
      </trkpt>
      <trkpt lat="43.79961" lon="7.05963">
        <ele>1382.7</ele>
        <time>2019-12-30T13:40:39Z</time>
      </trkpt>
      <trkpt lat="43.79961" lon="7.05966">
        <ele>1382.8</ele>
        <time>2019-12-30T13:40:40Z</time>
      </trkpt>
      <trkpt lat="43.7996" lon="7.05967">
        <ele>1382.8</ele>
        <time>2019-12-30T13:40:41Z</time>
      </trkpt>
      <trkpt lat="43.7996" lon="7.05968">
        <ele>1382.9</ele>
        <time>2019-12-30T13:40:42Z</time>
      </trkpt>
      <trkpt lat="43.7996" lon="7.05968">
        <ele>1382.9</ele>
        <time>2019-12-30T13:40:43Z</time>
      </trkpt>
      <trkpt lat="43.7996" lon="7.05968">
        <ele>1382.9</ele>
        <time>2019-12-30T13:40:44Z</time>
      </trkpt>
      <trkpt lat="43.7996" lon="7.05968">
        <ele>1382.9</ele>
        <time>2019-12-30T13:40:45Z</time>
      </trkpt>
      <trkpt lat="43.79961" lon="7.05969">
        <ele>1383</ele>
        <time>2019-12-30T13:40:46Z</time>
      </trkpt>
      <trkpt lat="43.79961" lon="7.05969">
        <ele>1383</ele>
        <time>2019-12-30T13:40:47Z</time>
      </trkpt>
      <trkpt lat="43.79961" lon="7.05969">
        <ele>1383</ele>
        <time>2019-12-30T13:40:48Z</time>
      </trkpt>
      <trkpt lat="43.79961" lon="7.05968">
        <ele>1383</ele>
        <time>2019-12-30T13:40:49Z</time>
      </trkpt>
      <trkpt lat="43.79961" lon="7.05967">
        <ele>1383.1</ele>
        <time>2019-12-30T13:40:50Z</time>
      </trkpt>
      <trkpt lat="43.79961" lon="7.05965">
        <ele>1383.2</ele>
        <time>2019-12-30T13:40:51Z</time>
      </trkpt>
      <trkpt lat="43.79961" lon="7.05964">
        <ele>1383.3</ele>
        <time>2019-12-30T13:40:52Z</time>
      </trkpt>
      <trkpt lat="43.7996" lon="7.05962">
        <ele>1383.3</ele>
        <time>2019-12-30T13:40:53Z</time>
      </trkpt>
      <trkpt lat="43.7996" lon="7.05961">
        <ele>1383.4</ele>
        <time>2019-12-30T13:40:54Z</time>
      </trkpt>
      <trkpt lat="43.7996" lon="7.05959">
        <ele>1383.5</ele>
        <time>2019-12-30T13:40:55Z</time>
      </trkpt>
      <trkpt lat="43.79959" lon="7.05958">
        <ele>1383.5</ele>
        <time>2019-12-30T13:40:56Z</time>
      </trkpt>
      <trkpt lat="43.79959" lon="7.05957">
        <ele>1383.6</ele>
        <time>2019-12-30T13:40:57Z</time>
      </trkpt>
      <trkpt lat="43.79959" lon="7.05956">
        <ele>1383.6</ele>
        <time>2019-12-30T13:40:58Z</time>
      </trkpt>
      <trkpt lat="43.79958" lon="7.05956">
        <ele>1383.7</ele>
        <time>2019-12-30T13:40:59Z</time>
      </trkpt>
      <trkpt lat="43.79958" lon="7.05955">
        <ele>1383.7</ele>
        <time>2019-12-30T13:41:00Z</time>
      </trkpt>
      <trkpt lat="43.79958" lon="7.05955">
        <ele>1383.7</ele>
        <time>2019-12-30T13:41:01Z</time>
      </trkpt>
      <trkpt lat="43.79958" lon="7.05954">
        <ele>1383.7</ele>
        <time>2019-12-30T13:41:02Z</time>
      </trkpt>
      <trkpt lat="43.79958" lon="7.05954">
        <ele>1383.7</ele>
        <time>2019-12-30T13:41:03Z</time>
      </trkpt>
      <trkpt lat="43.79958" lon="7.05954">
        <ele>1383.7</ele>
        <time>2019-12-30T13:41:04Z</time>
      </trkpt>
      <trkpt lat="43.79958" lon="7.05954">
        <ele>1383.7</ele>
        <time>2019-12-30T13:41:05Z</time>
      </trkpt>
      <trkpt lat="43.79958" lon="7.05954">
        <ele>1383.7</ele>
        <time>2019-12-30T13:41:06Z</time>
      </trkpt>
      <trkpt lat="43.79958" lon="7.05953">
        <ele>1383.7</ele>
        <time>2019-12-30T13:41:07Z</time>
      </trkpt>
      <trkpt lat="43.79957" lon="7.05953">
        <ele>1383.7</ele>
        <time>2019-12-30T13:41:08Z</time>
      </trkpt>
      <trkpt lat="43.79957" lon="7.05953">
        <ele>1383.7</ele>
        <time>2019-12-30T13:41:09Z</time>
      </trkpt>
      <trkpt lat="43.79957" lon="7.05954">
        <ele>1383.7</ele>
        <time>2019-12-30T13:41:10Z</time>
      </trkpt>
      <trkpt lat="43.79958" lon="7.05954">
        <ele>1383.7</ele>
        <time>2019-12-30T13:41:11Z</time>
      </trkpt>
      <trkpt lat="43.79958" lon="7.05954">
        <ele>1383.7</ele>
        <time>2019-12-30T13:41:12Z</time>
      </trkpt>
      <trkpt lat="43.79958" lon="7.05954">
        <ele>1383.8</ele>
        <time>2019-12-30T13:41:13Z</time>
      </trkpt>
      <trkpt lat="43.79958" lon="7.05954">
        <ele>1383.8</ele>
        <time>2019-12-30T13:41:14Z</time>
      </trkpt>
      <trkpt lat="43.79958" lon="7.05954">
        <ele>1383.8</ele>
        <time>2019-12-30T13:41:15Z</time>
      </trkpt>
      <trkpt lat="43.79958" lon="7.05954">
        <ele>1383.8</ele>
        <time>2019-12-30T13:41:16Z</time>
      </trkpt>
      <trkpt lat="43.79958" lon="7.05954">
        <ele>1383.8</ele>
        <time>2019-12-30T13:41:17Z</time>
      </trkpt>
      <trkpt lat="43.79958" lon="7.05954">
        <ele>1383.8</ele>
        <time>2019-12-30T13:41:18Z</time>
      </trkpt>
      <trkpt lat="43.79958" lon="7.05954">
        <ele>1383.8</ele>
        <time>2019-12-30T13:41:19Z</time>
      </trkpt>
      <trkpt lat="43.79958" lon="7.05954">
        <ele>1383.8</ele>
        <time>2019-12-30T13:41:20Z</time>
      </trkpt>
      <trkpt lat="43.79958" lon="7.05954">
        <ele>1383.8</ele>
        <time>2019-12-30T13:41:21Z</time>
      </trkpt>
      <trkpt lat="43.79958" lon="7.05954">
        <ele>1383.8</ele>
        <time>2019-12-30T13:41:22Z</time>
      </trkpt>
      <trkpt lat="43.79958" lon="7.05954">
        <ele>1383.8</ele>
        <time>2019-12-30T13:41:23Z</time>
      </trkpt>
      <trkpt lat="43.79957" lon="7.05954">
        <ele>1383.8</ele>
        <time>2019-12-30T13:41:24Z</time>
      </trkpt>
      <trkpt lat="43.79957" lon="7.05954">
        <ele>1383.8</ele>
        <time>2019-12-30T13:41:25Z</time>
      </trkpt>
      <trkpt lat="43.79957" lon="7.05954">
        <ele>1383.8</ele>
        <time>2019-12-30T13:41:26Z</time>
      </trkpt>
      <trkpt lat="43.79957" lon="7.05954">
        <ele>1383.8</ele>
        <time>2019-12-30T13:41:27Z</time>
      </trkpt>
      <trkpt lat="43.79957" lon="7.05954">
        <ele>1383.8</ele>
        <time>2019-12-30T13:41:28Z</time>
      </trkpt>
      <trkpt lat="43.79957" lon="7.05954">
        <ele>1383.8</ele>
        <time>2019-12-30T13:41:29Z</time>
      </trkpt>
      <trkpt lat="43.79957" lon="7.05954">
        <ele>1383.8</ele>
        <time>2019-12-30T13:41:30Z</time>
      </trkpt>
      <trkpt lat="43.79957" lon="7.05954">
        <ele>1383.8</ele>
        <time>2019-12-30T13:41:31Z</time>
      </trkpt>
      <trkpt lat="43.79957" lon="7.05954">
        <ele>1383.8</ele>
        <time>2019-12-30T13:41:32Z</time>
      </trkpt>
      <trkpt lat="43.79957" lon="7.05954">
        <ele>1383.8</ele>
        <time>2019-12-30T13:41:33Z</time>
      </trkpt>
      <trkpt lat="43.79957" lon="7.05955">
        <ele>1383.8</ele>
        <time>2019-12-30T13:41:34Z</time>
      </trkpt>
      <trkpt lat="43.79956" lon="7.05955">
        <ele>1383.8</ele>
        <time>2019-12-30T13:41:35Z</time>
      </trkpt>
      <trkpt lat="43.79956" lon="7.05956">
        <ele>1383.9</ele>
        <time>2019-12-30T13:41:36Z</time>
      </trkpt>
      <trkpt lat="43.79955" lon="7.05956">
        <ele>1383.9</ele>
        <time>2019-12-30T13:41:37Z</time>
      </trkpt>
      <trkpt lat="43.79954" lon="7.05956">
        <ele>1383.9</ele>
        <time>2019-12-30T13:41:38Z</time>
      </trkpt>
      <trkpt lat="43.79954" lon="7.05956">
        <ele>1383.9</ele>
        <time>2019-12-30T13:41:39Z</time>
      </trkpt>
      <trkpt lat="43.79954" lon="7.05956">
        <ele>1383.9</ele>
        <time>2019-12-30T13:41:40Z</time>
      </trkpt>
      <trkpt lat="43.79954" lon="7.05956">
        <ele>1383.9</ele>
        <time>2019-12-30T13:41:41Z</time>
      </trkpt>
      <trkpt lat="43.79954" lon="7.05956">
        <ele>1383.9</ele>
        <time>2019-12-30T13:41:42Z</time>
      </trkpt>
      <trkpt lat="43.79954" lon="7.05956">
        <ele>1383.9</ele>
        <time>2019-12-30T13:41:43Z</time>
      </trkpt>
      <trkpt lat="43.79954" lon="7.05956">
        <ele>1383.9</ele>
        <time>2019-12-30T13:41:44Z</time>
      </trkpt>
      <trkpt lat="43.79954" lon="7.05956">
        <ele>1383.9</ele>
        <time>2019-12-30T13:41:45Z</time>
      </trkpt>
      <trkpt lat="43.79954" lon="7.05956">
        <ele>1383.9</ele>
        <time>2019-12-30T13:41:46Z</time>
      </trkpt>
      <trkpt lat="43.79954" lon="7.05956">
        <ele>1383.9</ele>
        <time>2019-12-30T13:41:47Z</time>
      </trkpt>
      <trkpt lat="43.79954" lon="7.05956">
        <ele>1383.9</ele>
        <time>2019-12-30T13:41:48Z</time>
      </trkpt>
      <trkpt lat="43.79954" lon="7.05956">
        <ele>1383.9</ele>
        <time>2019-12-30T13:41:49Z</time>
      </trkpt>
      <trkpt lat="43.79954" lon="7.05956">
        <ele>1383.9</ele>
        <time>2019-12-30T13:41:50Z</time>
      </trkpt>
      <trkpt lat="43.79954" lon="7.05956">
        <ele>1383.9</ele>
        <time>2019-12-30T13:41:51Z</time>
      </trkpt>
      <trkpt lat="43.79954" lon="7.05956">
        <ele>1383.9</ele>
        <time>2019-12-30T13:41:52Z</time>
      </trkpt>
      <trkpt lat="43.79954" lon="7.05956">
        <ele>1383.9</ele>
        <time>2019-12-30T13:41:53Z</time>
      </trkpt>
      <trkpt lat="43.79954" lon="7.05956">
        <ele>1383.9</ele>
        <time>2019-12-30T13:41:54Z</time>
      </trkpt>
      <trkpt lat="43.79954" lon="7.05956">
        <ele>1383.9</ele>
        <time>2019-12-30T13:41:55Z</time>
      </trkpt>
      <trkpt lat="43.79954" lon="7.05956">
        <ele>1383.9</ele>
        <time>2019-12-30T13:41:56Z</time>
      </trkpt>
      <trkpt lat="43.79954" lon="7.05956">
        <ele>1383.9</ele>
        <time>2019-12-30T13:41:57Z</time>
      </trkpt>
      <trkpt lat="43.79954" lon="7.05956">
        <ele>1383.9</ele>
        <time>2019-12-30T13:41:58Z</time>
      </trkpt>
      <trkpt lat="43.79954" lon="7.05956">
        <ele>1383.9</ele>
        <time>2019-12-30T13:41:59Z</time>
      </trkpt>
      <trkpt lat="43.79954" lon="7.05956">
        <ele>1383.9</ele>
        <time>2019-12-30T13:42:00Z</time>
      </trkpt>
      <trkpt lat="43.79954" lon="7.05956">
        <ele>1383.9</ele>
        <time>2019-12-30T13:42:01Z</time>
      </trkpt>
      <trkpt lat="43.79954" lon="7.05956">
        <ele>1383.9</ele>
        <time>2019-12-30T13:42:02Z</time>
      </trkpt>
      <trkpt lat="43.79954" lon="7.05956">
        <ele>1383.9</ele>
        <time>2019-12-30T13:42:03Z</time>
      </trkpt>
      <trkpt lat="43.79954" lon="7.05956">
        <ele>1383.9</ele>
        <time>2019-12-30T13:42:04Z</time>
      </trkpt>
      <trkpt lat="43.79955" lon="7.05957">
        <ele>1384</ele>
        <time>2019-12-30T13:42:05Z</time>
      </trkpt>
      <trkpt lat="43.79955" lon="7.05957">
        <ele>1384</ele>
        <time>2019-12-30T13:42:06Z</time>
      </trkpt>
      <trkpt lat="43.79955" lon="7.05957">
        <ele>1384</ele>
        <time>2019-12-30T13:42:07Z</time>
      </trkpt>
      <trkpt lat="43.79955" lon="7.05957">
        <ele>1384</ele>
        <time>2019-12-30T13:42:08Z</time>
      </trkpt>
      <trkpt lat="43.79955" lon="7.05957">
        <ele>1384</ele>
        <time>2019-12-30T13:42:09Z</time>
      </trkpt>
      <trkpt lat="43.79956" lon="7.05957">
        <ele>1384</ele>
        <time>2019-12-30T13:42:10Z</time>
      </trkpt>
      <trkpt lat="43.79956" lon="7.05957">
        <ele>1384</ele>
        <time>2019-12-30T13:42:11Z</time>
      </trkpt>
      <trkpt lat="43.79956" lon="7.05957">
        <ele>1384</ele>
        <time>2019-12-30T13:42:12Z</time>
      </trkpt>
      <trkpt lat="43.79956" lon="7.05957">
        <ele>1384</ele>
        <time>2019-12-30T13:42:13Z</time>
      </trkpt>
      <trkpt lat="43.79956" lon="7.05957">
        <ele>1384</ele>
        <time>2019-12-30T13:42:14Z</time>
      </trkpt>
      <trkpt lat="43.79956" lon="7.05957">
        <ele>1384</ele>
        <time>2019-12-30T13:42:15Z</time>
      </trkpt>
      <trkpt lat="43.79956" lon="7.05957">
        <ele>1384</ele>
        <time>2019-12-30T13:42:16Z</time>
      </trkpt>
      <trkpt lat="43.79956" lon="7.05957">
        <ele>1384</ele>
        <time>2019-12-30T13:42:17Z</time>
      </trkpt>
      <trkpt lat="43.79956" lon="7.05957">
        <ele>1384</ele>
        <time>2019-12-30T13:42:18Z</time>
      </trkpt>
      <trkpt lat="43.79956" lon="7.05957">
        <ele>1384</ele>
        <time>2019-12-30T13:42:19Z</time>
      </trkpt>
      <trkpt lat="43.79956" lon="7.05957">
        <ele>1384</ele>
        <time>2019-12-30T13:42:20Z</time>
      </trkpt>
      <trkpt lat="43.79956" lon="7.05957">
        <ele>1384</ele>
        <time>2019-12-30T13:42:21Z</time>
      </trkpt>
      <trkpt lat="43.79956" lon="7.05956">
        <ele>1384</ele>
        <time>2019-12-30T13:42:22Z</time>
      </trkpt>
      <trkpt lat="43.79956" lon="7.05956">
        <ele>1384</ele>
        <time>2019-12-30T13:42:23Z</time>
      </trkpt>
      <trkpt lat="43.79956" lon="7.05956">
        <ele>1384.1</ele>
        <time>2019-12-30T13:42:24Z</time>
      </trkpt>
      <trkpt lat="43.79956" lon="7.05956">
        <ele>1384.1</ele>
        <time>2019-12-30T13:42:25Z</time>
      </trkpt>
      <trkpt lat="43.79956" lon="7.05955">
        <ele>1384.1</ele>
        <time>2019-12-30T13:42:26Z</time>
      </trkpt>
      <trkpt lat="43.79956" lon="7.05955">
        <ele>1384.1</ele>
        <time>2019-12-30T13:42:27Z</time>
      </trkpt>
      <trkpt lat="43.79956" lon="7.05955">
        <ele>1384.1</ele>
        <time>2019-12-30T13:42:28Z</time>
      </trkpt>
      <trkpt lat="43.79956" lon="7.05955">
        <ele>1384.1</ele>
        <time>2019-12-30T13:42:29Z</time>
      </trkpt>
      <trkpt lat="43.79956" lon="7.05955">
        <ele>1384.1</ele>
        <time>2019-12-30T13:42:30Z</time>
      </trkpt>
      <trkpt lat="43.79956" lon="7.05955">
        <ele>1384.1</ele>
        <time>2019-12-30T13:42:31Z</time>
      </trkpt>
      <trkpt lat="43.79955" lon="7.05955">
        <ele>1384.1</ele>
        <time>2019-12-30T13:42:32Z</time>
      </trkpt>
      <trkpt lat="43.79955" lon="7.05955">
        <ele>1384.1</ele>
        <time>2019-12-30T13:42:33Z</time>
      </trkpt>
      <trkpt lat="43.79955" lon="7.05955">
        <ele>1384.1</ele>
        <time>2019-12-30T13:42:34Z</time>
      </trkpt>
      <trkpt lat="43.79955" lon="7.05955">
        <ele>1384.1</ele>
        <time>2019-12-30T13:42:35Z</time>
      </trkpt>
      <trkpt lat="43.79955" lon="7.05955">
        <ele>1384.1</ele>
        <time>2019-12-30T13:42:36Z</time>
      </trkpt>
      <trkpt lat="43.79955" lon="7.05955">
        <ele>1384.1</ele>
        <time>2019-12-30T13:42:37Z</time>
      </trkpt>
      <trkpt lat="43.79955" lon="7.05955">
        <ele>1384.1</ele>
        <time>2019-12-30T13:42:38Z</time>
      </trkpt>
      <trkpt lat="43.79955" lon="7.05955">
        <ele>1384.1</ele>
        <time>2019-12-30T13:42:39Z</time>
      </trkpt>
      <trkpt lat="43.79955" lon="7.05955">
        <ele>1384.1</ele>
        <time>2019-12-30T13:42:40Z</time>
      </trkpt>
      <trkpt lat="43.79955" lon="7.05955">
        <ele>1384.1</ele>
        <time>2019-12-30T13:42:41Z</time>
      </trkpt>
      <trkpt lat="43.79955" lon="7.05955">
        <ele>1384.1</ele>
        <time>2019-12-30T13:42:42Z</time>
      </trkpt>
      <trkpt lat="43.79955" lon="7.05955">
        <ele>1384.1</ele>
        <time>2019-12-30T13:42:43Z</time>
      </trkpt>
      <trkpt lat="43.79955" lon="7.05955">
        <ele>1384.1</ele>
        <time>2019-12-30T13:42:44Z</time>
      </trkpt>
      <trkpt lat="43.79955" lon="7.05955">
        <ele>1384.1</ele>
        <time>2019-12-30T13:42:45Z</time>
      </trkpt>
      <trkpt lat="43.79955" lon="7.05955">
        <ele>1384.1</ele>
        <time>2019-12-30T13:42:46Z</time>
      </trkpt>
      <trkpt lat="43.79955" lon="7.05955">
        <ele>1384.1</ele>
        <time>2019-12-30T13:42:47Z</time>
      </trkpt>
      <trkpt lat="43.79955" lon="7.05955">
        <ele>1384.1</ele>
        <time>2019-12-30T13:42:48Z</time>
      </trkpt>
      <trkpt lat="43.79955" lon="7.05955">
        <ele>1384.1</ele>
        <time>2019-12-30T13:42:49Z</time>
      </trkpt>
      <trkpt lat="43.79955" lon="7.05955">
        <ele>1384.1</ele>
        <time>2019-12-30T13:42:50Z</time>
      </trkpt>
      <trkpt lat="43.79955" lon="7.05955">
        <ele>1384.1</ele>
        <time>2019-12-30T13:42:51Z</time>
      </trkpt>
      <trkpt lat="43.79955" lon="7.05955">
        <ele>1384.1</ele>
        <time>2019-12-30T13:42:52Z</time>
      </trkpt>
      <trkpt lat="43.79955" lon="7.05955">
        <ele>1384.1</ele>
        <time>2019-12-30T13:42:53Z</time>
      </trkpt>
      <trkpt lat="43.79955" lon="7.05955">
        <ele>1384.1</ele>
        <time>2019-12-30T13:42:54Z</time>
      </trkpt>
      <trkpt lat="43.79955" lon="7.05954">
        <ele>1384.1</ele>
        <time>2019-12-30T13:42:55Z</time>
      </trkpt>
      <trkpt lat="43.79955" lon="7.05954">
        <ele>1384.1</ele>
        <time>2019-12-30T13:42:56Z</time>
      </trkpt>
      <trkpt lat="43.79955" lon="7.05954">
        <ele>1384.1</ele>
        <time>2019-12-30T13:42:57Z</time>
      </trkpt>
      <trkpt lat="43.79955" lon="7.05955">
        <ele>1384.1</ele>
        <time>2019-12-30T13:42:58Z</time>
      </trkpt>
      <trkpt lat="43.79955" lon="7.05955">
        <ele>1384.1</ele>
        <time>2019-12-30T13:42:59Z</time>
      </trkpt>
      <trkpt lat="43.79955" lon="7.05956">
        <ele>1384.1</ele>
        <time>2019-12-30T13:43:00Z</time>
      </trkpt>
      <trkpt lat="43.79955" lon="7.05956">
        <ele>1384.2</ele>
        <time>2019-12-30T13:43:01Z</time>
      </trkpt>
      <trkpt lat="43.79955" lon="7.05957">
        <ele>1384.2</ele>
        <time>2019-12-30T13:43:02Z</time>
      </trkpt>
      <trkpt lat="43.79955" lon="7.05958">
        <ele>1384.2</ele>
        <time>2019-12-30T13:43:03Z</time>
      </trkpt>
      <trkpt lat="43.79955" lon="7.05959">
        <ele>1384.2</ele>
        <time>2019-12-30T13:43:04Z</time>
      </trkpt>
      <trkpt lat="43.79956" lon="7.0596">
        <ele>1384.2</ele>
        <time>2019-12-30T13:43:05Z</time>
      </trkpt>
      <trkpt lat="43.79956" lon="7.05961">
        <ele>1384.2</ele>
        <time>2019-12-30T13:43:06Z</time>
      </trkpt>
      <trkpt lat="43.79956" lon="7.05961">
        <ele>1384.2</ele>
        <time>2019-12-30T13:43:07Z</time>
      </trkpt>
      <trkpt lat="43.79957" lon="7.05962">
        <ele>1384.2</ele>
        <time>2019-12-30T13:43:08Z</time>
      </trkpt>
      <trkpt lat="43.79957" lon="7.05963">
        <ele>1384.3</ele>
        <time>2019-12-30T13:43:09Z</time>
      </trkpt>
      <trkpt lat="43.79958" lon="7.05963">
        <ele>1384.3</ele>
        <time>2019-12-30T13:43:10Z</time>
      </trkpt>
      <trkpt lat="43.79958" lon="7.05964">
        <ele>1384.3</ele>
        <time>2019-12-30T13:43:11Z</time>
      </trkpt>
      <trkpt lat="43.79958" lon="7.05965">
        <ele>1384.3</ele>
        <time>2019-12-30T13:43:12Z</time>
      </trkpt>
      <trkpt lat="43.79959" lon="7.05967">
        <ele>1384.3</ele>
        <time>2019-12-30T13:43:13Z</time>
      </trkpt>
      <trkpt lat="43.79959" lon="7.05968">
        <ele>1384.4</ele>
        <time>2019-12-30T13:43:14Z</time>
      </trkpt>
      <trkpt lat="43.79959" lon="7.0597">
        <ele>1384.4</ele>
        <time>2019-12-30T13:43:15Z</time>
      </trkpt>
      <trkpt lat="43.79959" lon="7.05971">
        <ele>1384.4</ele>
        <time>2019-12-30T13:43:16Z</time>
      </trkpt>
      <trkpt lat="43.7996" lon="7.05972">
        <ele>1384.4</ele>
        <time>2019-12-30T13:43:17Z</time>
      </trkpt>
      <trkpt lat="43.7996" lon="7.05973">
        <ele>1384.4</ele>
        <time>2019-12-30T13:43:18Z</time>
      </trkpt>
      <trkpt lat="43.7996" lon="7.05974">
        <ele>1384.4</ele>
        <time>2019-12-30T13:43:19Z</time>
      </trkpt>
      <trkpt lat="43.7996" lon="7.05974">
        <ele>1384.4</ele>
        <time>2019-12-30T13:43:20Z</time>
      </trkpt>
      <trkpt lat="43.7996" lon="7.05974">
        <ele>1384.4</ele>
        <time>2019-12-30T13:43:21Z</time>
      </trkpt>
      <trkpt lat="43.7996" lon="7.05974">
        <ele>1384.5</ele>
        <time>2019-12-30T13:43:22Z</time>
      </trkpt>
      <trkpt lat="43.7996" lon="7.05974">
        <ele>1384.5</ele>
        <time>2019-12-30T13:43:23Z</time>
      </trkpt>
      <trkpt lat="43.7996" lon="7.05975">
        <ele>1384.5</ele>
        <time>2019-12-30T13:43:24Z</time>
      </trkpt>
      <trkpt lat="43.79961" lon="7.05975">
        <ele>1384.5</ele>
        <time>2019-12-30T13:43:25Z</time>
      </trkpt>
      <trkpt lat="43.79961" lon="7.05977">
        <ele>1384.5</ele>
        <time>2019-12-30T13:43:26Z</time>
      </trkpt>
      <trkpt lat="43.79962" lon="7.05978">
        <ele>1384.5</ele>
        <time>2019-12-30T13:43:27Z</time>
      </trkpt>
      <trkpt lat="43.79962" lon="7.05979">
        <ele>1384.5</ele>
        <time>2019-12-30T13:43:28Z</time>
      </trkpt>
      <trkpt lat="43.79962" lon="7.05981">
        <ele>1384.5</ele>
        <time>2019-12-30T13:43:29Z</time>
      </trkpt>
      <trkpt lat="43.79962" lon="7.05983">
        <ele>1384.6</ele>
        <time>2019-12-30T13:43:30Z</time>
      </trkpt>
      <trkpt lat="43.79962" lon="7.05986">
        <ele>1384.6</ele>
        <time>2019-12-30T13:43:31Z</time>
      </trkpt>
      <trkpt lat="43.79961" lon="7.05989">
        <ele>1384.6</ele>
        <time>2019-12-30T13:43:32Z</time>
      </trkpt>
      <trkpt lat="43.79961" lon="7.05992">
        <ele>1384.7</ele>
        <time>2019-12-30T13:43:33Z</time>
      </trkpt>
      <trkpt lat="43.79961" lon="7.05995">
        <ele>1384.7</ele>
        <time>2019-12-30T13:43:34Z</time>
      </trkpt>
      <trkpt lat="43.79961" lon="7.05997">
        <ele>1384.7</ele>
        <time>2019-12-30T13:43:35Z</time>
      </trkpt>
      <trkpt lat="43.79962" lon="7.05999">
        <ele>1384.8</ele>
        <time>2019-12-30T13:43:36Z</time>
      </trkpt>
      <trkpt lat="43.79962" lon="7.06">
        <ele>1384.8</ele>
        <time>2019-12-30T13:43:37Z</time>
      </trkpt>
      <trkpt lat="43.79963" lon="7.06">
        <ele>1384.8</ele>
        <time>2019-12-30T13:43:38Z</time>
      </trkpt>
      <trkpt lat="43.79963" lon="7.06001">
        <ele>1384.8</ele>
        <time>2019-12-30T13:43:39Z</time>
      </trkpt>
      <trkpt lat="43.79964" lon="7.06001">
        <ele>1384.8</ele>
        <time>2019-12-30T13:43:40Z</time>
      </trkpt>
      <trkpt lat="43.79964" lon="7.06001">
        <ele>1384.8</ele>
        <time>2019-12-30T13:43:41Z</time>
      </trkpt>
      <trkpt lat="43.79964" lon="7.06001">
        <ele>1384.8</ele>
        <time>2019-12-30T13:43:42Z</time>
      </trkpt>
      <trkpt lat="43.79964" lon="7.06001">
        <ele>1384.8</ele>
        <time>2019-12-30T13:43:43Z</time>
      </trkpt>
      <trkpt lat="43.79964" lon="7.06001">
        <ele>1384.8</ele>
        <time>2019-12-30T13:43:44Z</time>
      </trkpt>
      <trkpt lat="43.79964" lon="7.06001">
        <ele>1384.8</ele>
        <time>2019-12-30T13:43:45Z</time>
      </trkpt>
      <trkpt lat="43.79964" lon="7.06001">
        <ele>1384.8</ele>
        <time>2019-12-30T13:43:46Z</time>
      </trkpt>
      <trkpt lat="43.79964" lon="7.06002">
        <ele>1384.8</ele>
        <time>2019-12-30T13:43:47Z</time>
      </trkpt>
      <trkpt lat="43.79964" lon="7.06002">
        <ele>1384.8</ele>
        <time>2019-12-30T13:43:48Z</time>
      </trkpt>
      <trkpt lat="43.79964" lon="7.06002">
        <ele>1384.8</ele>
        <time>2019-12-30T13:43:49Z</time>
      </trkpt>
      <trkpt lat="43.79963" lon="7.06002">
        <ele>1384.8</ele>
        <time>2019-12-30T13:43:50Z</time>
      </trkpt>
      <trkpt lat="43.79963" lon="7.06002">
        <ele>1384.8</ele>
        <time>2019-12-30T13:43:51Z</time>
      </trkpt>
      <trkpt lat="43.79963" lon="7.06002">
        <ele>1384.8</ele>
        <time>2019-12-30T13:43:52Z</time>
      </trkpt>
      <trkpt lat="43.79963" lon="7.06002">
        <ele>1384.8</ele>
        <time>2019-12-30T13:43:53Z</time>
      </trkpt>
      <trkpt lat="43.79963" lon="7.06001">
        <ele>1384.8</ele>
        <time>2019-12-30T13:43:54Z</time>
      </trkpt>
      <trkpt lat="43.79963" lon="7.06001">
        <ele>1384.8</ele>
        <time>2019-12-30T13:43:55Z</time>
      </trkpt>
      <trkpt lat="43.79963" lon="7.06">
        <ele>1384.8</ele>
        <time>2019-12-30T13:43:56Z</time>
      </trkpt>
      <trkpt lat="43.79963" lon="7.06">
        <ele>1384.8</ele>
        <time>2019-12-30T13:43:57Z</time>
      </trkpt>
      <trkpt lat="43.79963" lon="7.06">
        <ele>1384.8</ele>
        <time>2019-12-30T13:43:58Z</time>
      </trkpt>
      <trkpt lat="43.79963" lon="7.06">
        <ele>1384.8</ele>
        <time>2019-12-30T13:43:59Z</time>
      </trkpt>
      <trkpt lat="43.79963" lon="7.06">
        <ele>1384.8</ele>
        <time>2019-12-30T13:44:00Z</time>
      </trkpt>
      <trkpt lat="43.79963" lon="7.06">
        <ele>1384.8</ele>
        <time>2019-12-30T13:44:01Z</time>
      </trkpt>
      <trkpt lat="43.79962" lon="7.06">
        <ele>1384.8</ele>
        <time>2019-12-30T13:44:02Z</time>
      </trkpt>
      <trkpt lat="43.79962" lon="7.06">
        <ele>1384.8</ele>
        <time>2019-12-30T13:44:03Z</time>
      </trkpt>
      <trkpt lat="43.79962" lon="7.06">
        <ele>1384.8</ele>
        <time>2019-12-30T13:44:04Z</time>
      </trkpt>
      <trkpt lat="43.79962" lon="7.06">
        <ele>1384.8</ele>
        <time>2019-12-30T13:44:05Z</time>
      </trkpt>
      <trkpt lat="43.79962" lon="7.06">
        <ele>1384.8</ele>
        <time>2019-12-30T13:44:06Z</time>
      </trkpt>
      <trkpt lat="43.79963" lon="7.05999">
        <ele>1384.8</ele>
        <time>2019-12-30T13:44:07Z</time>
      </trkpt>
      <trkpt lat="43.79963" lon="7.05999">
        <ele>1384.9</ele>
        <time>2019-12-30T13:44:08Z</time>
      </trkpt>
      <trkpt lat="43.79963" lon="7.05999">
        <ele>1384.9</ele>
        <time>2019-12-30T13:44:09Z</time>
      </trkpt>
      <trkpt lat="43.79963" lon="7.05998">
        <ele>1384.9</ele>
        <time>2019-12-30T13:44:10Z</time>
      </trkpt>
      <trkpt lat="43.79963" lon="7.05998">
        <ele>1384.9</ele>
        <time>2019-12-30T13:44:11Z</time>
      </trkpt>
      <trkpt lat="43.79963" lon="7.05998">
        <ele>1384.9</ele>
        <time>2019-12-30T13:44:12Z</time>
      </trkpt>
      <trkpt lat="43.79963" lon="7.05998">
        <ele>1384.9</ele>
        <time>2019-12-30T13:44:13Z</time>
      </trkpt>
      <trkpt lat="43.79963" lon="7.05998">
        <ele>1384.9</ele>
        <time>2019-12-30T13:44:14Z</time>
      </trkpt>
      <trkpt lat="43.79963" lon="7.05998">
        <ele>1384.9</ele>
        <time>2019-12-30T13:44:15Z</time>
      </trkpt>
      <trkpt lat="43.79963" lon="7.05998">
        <ele>1384.9</ele>
        <time>2019-12-30T13:44:16Z</time>
      </trkpt>
      <trkpt lat="43.79963" lon="7.05998">
        <ele>1384.9</ele>
        <time>2019-12-30T13:44:17Z</time>
      </trkpt>
      <trkpt lat="43.79963" lon="7.05998">
        <ele>1384.9</ele>
        <time>2019-12-30T13:44:18Z</time>
      </trkpt>
      <trkpt lat="43.79963" lon="7.05998">
        <ele>1384.9</ele>
        <time>2019-12-30T13:44:19Z</time>
      </trkpt>
      <trkpt lat="43.79963" lon="7.05998">
        <ele>1384.9</ele>
        <time>2019-12-30T13:44:20Z</time>
      </trkpt>
      <trkpt lat="43.79963" lon="7.05998">
        <ele>1384.9</ele>
        <time>2019-12-30T13:44:21Z</time>
      </trkpt>
      <trkpt lat="43.79963" lon="7.05998">
        <ele>1384.9</ele>
        <time>2019-12-30T13:44:22Z</time>
      </trkpt>
      <trkpt lat="43.79963" lon="7.05998">
        <ele>1384.9</ele>
        <time>2019-12-30T13:44:23Z</time>
      </trkpt>
      <trkpt lat="43.79963" lon="7.05998">
        <ele>1384.9</ele>
        <time>2019-12-30T13:44:24Z</time>
      </trkpt>
      <trkpt lat="43.79963" lon="7.05998">
        <ele>1384.9</ele>
        <time>2019-12-30T13:44:25Z</time>
      </trkpt>
      <trkpt lat="43.79963" lon="7.05998">
        <ele>1384.9</ele>
        <time>2019-12-30T13:44:26Z</time>
      </trkpt>
      <trkpt lat="43.79963" lon="7.05998">
        <ele>1384.9</ele>
        <time>2019-12-30T13:44:27Z</time>
      </trkpt>
      <trkpt lat="43.79963" lon="7.05998">
        <ele>1384.9</ele>
        <time>2019-12-30T13:44:28Z</time>
      </trkpt>
      <trkpt lat="43.79963" lon="7.05998">
        <ele>1384.9</ele>
        <time>2019-12-30T13:44:29Z</time>
      </trkpt>
      <trkpt lat="43.79963" lon="7.05998">
        <ele>1384.9</ele>
        <time>2019-12-30T13:44:30Z</time>
      </trkpt>
      <trkpt lat="43.79963" lon="7.05998">
        <ele>1384.9</ele>
        <time>2019-12-30T13:44:31Z</time>
      </trkpt>
      <trkpt lat="43.79963" lon="7.05998">
        <ele>1384.9</ele>
        <time>2019-12-30T13:44:32Z</time>
      </trkpt>
      <trkpt lat="43.79963" lon="7.05998">
        <ele>1384.9</ele>
        <time>2019-12-30T13:44:33Z</time>
      </trkpt>
      <trkpt lat="43.79963" lon="7.05998">
        <ele>1384.9</ele>
        <time>2019-12-30T13:44:34Z</time>
      </trkpt>
      <trkpt lat="43.79963" lon="7.05998">
        <ele>1384.9</ele>
        <time>2019-12-30T13:44:35Z</time>
      </trkpt>
      <trkpt lat="43.79963" lon="7.05998">
        <ele>1384.9</ele>
        <time>2019-12-30T13:44:36Z</time>
      </trkpt>
      <trkpt lat="43.79963" lon="7.05998">
        <ele>1384.9</ele>
        <time>2019-12-30T13:44:37Z</time>
      </trkpt>
      <trkpt lat="43.79963" lon="7.05998">
        <ele>1384.9</ele>
        <time>2019-12-30T13:44:38Z</time>
      </trkpt>
      <trkpt lat="43.79963" lon="7.05998">
        <ele>1384.9</ele>
        <time>2019-12-30T13:44:39Z</time>
      </trkpt>
      <trkpt lat="43.79963" lon="7.05998">
        <ele>1384.9</ele>
        <time>2019-12-30T13:44:40Z</time>
      </trkpt>
      <trkpt lat="43.79963" lon="7.05998">
        <ele>1384.9</ele>
        <time>2019-12-30T13:44:41Z</time>
      </trkpt>
      <trkpt lat="43.79963" lon="7.05998">
        <ele>1384.9</ele>
        <time>2019-12-30T13:44:42Z</time>
      </trkpt>
      <trkpt lat="43.79963" lon="7.05998">
        <ele>1384.9</ele>
        <time>2019-12-30T13:44:43Z</time>
      </trkpt>
      <trkpt lat="43.79963" lon="7.05998">
        <ele>1384.9</ele>
        <time>2019-12-30T13:44:44Z</time>
      </trkpt>
      <trkpt lat="43.79962" lon="7.05999">
        <ele>1384.9</ele>
        <time>2019-12-30T13:44:45Z</time>
      </trkpt>
      <trkpt lat="43.79962" lon="7.05999">
        <ele>1384.9</ele>
        <time>2019-12-30T13:44:46Z</time>
      </trkpt>
      <trkpt lat="43.79962" lon="7.06">
        <ele>1384.9</ele>
        <time>2019-12-30T13:44:47Z</time>
      </trkpt>
      <trkpt lat="43.79962" lon="7.06">
        <ele>1384.9</ele>
        <time>2019-12-30T13:44:48Z</time>
      </trkpt>
      <trkpt lat="43.79962" lon="7.06">
        <ele>1384.9</ele>
        <time>2019-12-30T13:44:49Z</time>
      </trkpt>
      <trkpt lat="43.79962" lon="7.06">
        <ele>1384.9</ele>
        <time>2019-12-30T13:44:50Z</time>
      </trkpt>
      <trkpt lat="43.79962" lon="7.06">
        <ele>1384.9</ele>
        <time>2019-12-30T13:44:51Z</time>
      </trkpt>
      <trkpt lat="43.79962" lon="7.06">
        <ele>1384.9</ele>
        <time>2019-12-30T13:44:52Z</time>
      </trkpt>
      <trkpt lat="43.79962" lon="7.06">
        <ele>1384.9</ele>
        <time>2019-12-30T13:44:53Z</time>
      </trkpt>
      <trkpt lat="43.79962" lon="7.06">
        <ele>1384.9</ele>
        <time>2019-12-30T13:44:54Z</time>
      </trkpt>
      <trkpt lat="43.79962" lon="7.06">
        <ele>1384.9</ele>
        <time>2019-12-30T13:44:55Z</time>
      </trkpt>
      <trkpt lat="43.79962" lon="7.06">
        <ele>1384.9</ele>
        <time>2019-12-30T13:44:56Z</time>
      </trkpt>
      <trkpt lat="43.79962" lon="7.06">
        <ele>1384.9</ele>
        <time>2019-12-30T13:44:57Z</time>
      </trkpt>
      <trkpt lat="43.79962" lon="7.06">
        <ele>1384.9</ele>
        <time>2019-12-30T13:44:58Z</time>
      </trkpt>
      <trkpt lat="43.79962" lon="7.06">
        <ele>1384.9</ele>
        <time>2019-12-30T13:44:59Z</time>
      </trkpt>
      <trkpt lat="43.79962" lon="7.06">
        <ele>1384.9</ele>
        <time>2019-12-30T13:45:00Z</time>
      </trkpt>
      <trkpt lat="43.79962" lon="7.06">
        <ele>1384.9</ele>
        <time>2019-12-30T13:45:01Z</time>
      </trkpt>
      <trkpt lat="43.79962" lon="7.06">
        <ele>1384.9</ele>
        <time>2019-12-30T13:45:02Z</time>
      </trkpt>
      <trkpt lat="43.79962" lon="7.06">
        <ele>1384.9</ele>
        <time>2019-12-30T13:45:03Z</time>
      </trkpt>
      <trkpt lat="43.79962" lon="7.06">
        <ele>1384.9</ele>
        <time>2019-12-30T13:45:04Z</time>
      </trkpt>
      <trkpt lat="43.79962" lon="7.06">
        <ele>1384.9</ele>
        <time>2019-12-30T13:45:05Z</time>
      </trkpt>
      <trkpt lat="43.79962" lon="7.06">
        <ele>1384.9</ele>
        <time>2019-12-30T13:45:06Z</time>
      </trkpt>
      <trkpt lat="43.79962" lon="7.06">
        <ele>1384.9</ele>
        <time>2019-12-30T13:45:07Z</time>
      </trkpt>
      <trkpt lat="43.79962" lon="7.06">
        <ele>1384.9</ele>
        <time>2019-12-30T13:45:08Z</time>
      </trkpt>
      <trkpt lat="43.79962" lon="7.06">
        <ele>1384.9</ele>
        <time>2019-12-30T13:45:09Z</time>
      </trkpt>
      <trkpt lat="43.79962" lon="7.06">
        <ele>1384.9</ele>
        <time>2019-12-30T13:45:10Z</time>
      </trkpt>
      <trkpt lat="43.79962" lon="7.06">
        <ele>1384.9</ele>
        <time>2019-12-30T13:45:11Z</time>
      </trkpt>
      <trkpt lat="43.79962" lon="7.06">
        <ele>1384.9</ele>
        <time>2019-12-30T13:45:12Z</time>
      </trkpt>
      <trkpt lat="43.79962" lon="7.06">
        <ele>1384.9</ele>
        <time>2019-12-30T13:45:13Z</time>
      </trkpt>
      <trkpt lat="43.79962" lon="7.06">
        <ele>1384.9</ele>
        <time>2019-12-30T13:45:14Z</time>
      </trkpt>
      <trkpt lat="43.79962" lon="7.06">
        <ele>1384.9</ele>
        <time>2019-12-30T13:45:15Z</time>
      </trkpt>
      <trkpt lat="43.79962" lon="7.06">
        <ele>1384.9</ele>
        <time>2019-12-30T13:45:16Z</time>
      </trkpt>
      <trkpt lat="43.79962" lon="7.06">
        <ele>1384.9</ele>
        <time>2019-12-30T13:45:17Z</time>
      </trkpt>
      <trkpt lat="43.79962" lon="7.06">
        <ele>1384.9</ele>
        <time>2019-12-30T13:45:18Z</time>
      </trkpt>
      <trkpt lat="43.79962" lon="7.06">
        <ele>1384.9</ele>
        <time>2019-12-30T13:45:19Z</time>
      </trkpt>
      <trkpt lat="43.79962" lon="7.05999">
        <ele>1384.9</ele>
        <time>2019-12-30T13:45:20Z</time>
      </trkpt>
      <trkpt lat="43.79962" lon="7.05999">
        <ele>1384.9</ele>
        <time>2019-12-30T13:45:21Z</time>
      </trkpt>
      <trkpt lat="43.79962" lon="7.05999">
        <ele>1384.9</ele>
        <time>2019-12-30T13:45:22Z</time>
      </trkpt>
      <trkpt lat="43.79962" lon="7.05998">
        <ele>1384.9</ele>
        <time>2019-12-30T13:45:23Z</time>
      </trkpt>
      <trkpt lat="43.79963" lon="7.05998">
        <ele>1384.9</ele>
        <time>2019-12-30T13:45:24Z</time>
      </trkpt>
      <trkpt lat="43.79963" lon="7.05997">
        <ele>1384.9</ele>
        <time>2019-12-30T13:45:25Z</time>
      </trkpt>
      <trkpt lat="43.79963" lon="7.05997">
        <ele>1384.9</ele>
        <time>2019-12-30T13:45:26Z</time>
      </trkpt>
      <trkpt lat="43.79963" lon="7.05997">
        <ele>1384.9</ele>
        <time>2019-12-30T13:45:27Z</time>
      </trkpt>
      <trkpt lat="43.79964" lon="7.05997">
        <ele>1384.9</ele>
        <time>2019-12-30T13:45:28Z</time>
      </trkpt>
      <trkpt lat="43.79964" lon="7.05997">
        <ele>1384.9</ele>
        <time>2019-12-30T13:45:29Z</time>
      </trkpt>
      <trkpt lat="43.79964" lon="7.05997">
        <ele>1384.9</ele>
        <time>2019-12-30T13:45:30Z</time>
      </trkpt>
      <trkpt lat="43.79964" lon="7.05997">
        <ele>1384.9</ele>
        <time>2019-12-30T13:45:31Z</time>
      </trkpt>
      <trkpt lat="43.79964" lon="7.05997">
        <ele>1384.9</ele>
        <time>2019-12-30T13:45:32Z</time>
      </trkpt>
      <trkpt lat="43.79964" lon="7.05997">
        <ele>1385</ele>
        <time>2019-12-30T13:45:33Z</time>
      </trkpt>
      <trkpt lat="43.79964" lon="7.05997">
        <ele>1385</ele>
        <time>2019-12-30T13:45:34Z</time>
      </trkpt>
      <trkpt lat="43.79964" lon="7.05997">
        <ele>1385</ele>
        <time>2019-12-30T13:45:35Z</time>
      </trkpt>
      <trkpt lat="43.79964" lon="7.05997">
        <ele>1385</ele>
        <time>2019-12-30T13:45:36Z</time>
      </trkpt>
      <trkpt lat="43.79964" lon="7.05996">
        <ele>1385</ele>
        <time>2019-12-30T13:45:37Z</time>
      </trkpt>
      <trkpt lat="43.79964" lon="7.05996">
        <ele>1385</ele>
        <time>2019-12-30T13:45:38Z</time>
      </trkpt>
      <trkpt lat="43.79964" lon="7.05996">
        <ele>1385</ele>
        <time>2019-12-30T13:45:39Z</time>
      </trkpt>
      <trkpt lat="43.79964" lon="7.05997">
        <ele>1385</ele>
        <time>2019-12-30T13:45:40Z</time>
      </trkpt>
      <trkpt lat="43.79964" lon="7.05997">
        <ele>1385</ele>
        <time>2019-12-30T13:45:41Z</time>
      </trkpt>
      <trkpt lat="43.79964" lon="7.05998">
        <ele>1385</ele>
        <time>2019-12-30T13:45:42Z</time>
      </trkpt>
      <trkpt lat="43.79964" lon="7.05998">
        <ele>1385</ele>
        <time>2019-12-30T13:45:43Z</time>
      </trkpt>
      <trkpt lat="43.79964" lon="7.05999">
        <ele>1385</ele>
        <time>2019-12-30T13:45:44Z</time>
      </trkpt>
      <trkpt lat="43.79963" lon="7.05999">
        <ele>1385</ele>
        <time>2019-12-30T13:45:45Z</time>
      </trkpt>
      <trkpt lat="43.79963" lon="7.05999">
        <ele>1385</ele>
        <time>2019-12-30T13:45:46Z</time>
      </trkpt>
      <trkpt lat="43.79963" lon="7.05999">
        <ele>1385</ele>
        <time>2019-12-30T13:45:47Z</time>
      </trkpt>
      <trkpt lat="43.79963" lon="7.05999">
        <ele>1385</ele>
        <time>2019-12-30T13:45:48Z</time>
      </trkpt>
      <trkpt lat="43.79963" lon="7.05999">
        <ele>1385</ele>
        <time>2019-12-30T13:45:49Z</time>
      </trkpt>
      <trkpt lat="43.79963" lon="7.05999">
        <ele>1385</ele>
        <time>2019-12-30T13:45:50Z</time>
      </trkpt>
      <trkpt lat="43.79963" lon="7.05999">
        <ele>1385</ele>
        <time>2019-12-30T13:45:51Z</time>
      </trkpt>
      <trkpt lat="43.79963" lon="7.05999">
        <ele>1385</ele>
        <time>2019-12-30T13:45:52Z</time>
      </trkpt>
      <trkpt lat="43.79963" lon="7.05999">
        <ele>1385</ele>
        <time>2019-12-30T13:45:53Z</time>
      </trkpt>
      <trkpt lat="43.79963" lon="7.05999">
        <ele>1385</ele>
        <time>2019-12-30T13:45:54Z</time>
      </trkpt>
      <trkpt lat="43.79963" lon="7.05999">
        <ele>1385</ele>
        <time>2019-12-30T13:45:55Z</time>
      </trkpt>
      <trkpt lat="43.79963" lon="7.05999">
        <ele>1385</ele>
        <time>2019-12-30T13:45:56Z</time>
      </trkpt>
      <trkpt lat="43.79963" lon="7.05999">
        <ele>1385</ele>
        <time>2019-12-30T13:45:57Z</time>
      </trkpt>
      <trkpt lat="43.79963" lon="7.05999">
        <ele>1385</ele>
        <time>2019-12-30T13:45:58Z</time>
      </trkpt>
      <trkpt lat="43.79963" lon="7.05999">
        <ele>1385</ele>
        <time>2019-12-30T13:45:59Z</time>
      </trkpt>
      <trkpt lat="43.79963" lon="7.05999">
        <ele>1385</ele>
        <time>2019-12-30T13:46:00Z</time>
      </trkpt>
      <trkpt lat="43.79963" lon="7.05998">
        <ele>1385</ele>
        <time>2019-12-30T13:46:01Z</time>
      </trkpt>
      <trkpt lat="43.79963" lon="7.05998">
        <ele>1385</ele>
        <time>2019-12-30T13:46:02Z</time>
      </trkpt>
      <trkpt lat="43.79963" lon="7.05998">
        <ele>1385</ele>
        <time>2019-12-30T13:46:03Z</time>
      </trkpt>
      <trkpt lat="43.79963" lon="7.05998">
        <ele>1385</ele>
        <time>2019-12-30T13:46:04Z</time>
      </trkpt>
      <trkpt lat="43.79963" lon="7.05998">
        <ele>1385</ele>
        <time>2019-12-30T13:46:05Z</time>
      </trkpt>
      <trkpt lat="43.79963" lon="7.05998">
        <ele>1385</ele>
        <time>2019-12-30T13:46:06Z</time>
      </trkpt>
      <trkpt lat="43.79963" lon="7.05997">
        <ele>1385</ele>
        <time>2019-12-30T13:46:07Z</time>
      </trkpt>
      <trkpt lat="43.79963" lon="7.05997">
        <ele>1385</ele>
        <time>2019-12-30T13:46:08Z</time>
      </trkpt>
      <trkpt lat="43.79963" lon="7.05997">
        <ele>1385</ele>
        <time>2019-12-30T13:46:09Z</time>
      </trkpt>
      <trkpt lat="43.79963" lon="7.05997">
        <ele>1385</ele>
        <time>2019-12-30T13:46:10Z</time>
      </trkpt>
      <trkpt lat="43.79963" lon="7.05997">
        <ele>1385</ele>
        <time>2019-12-30T13:46:11Z</time>
      </trkpt>
      <trkpt lat="43.79963" lon="7.05997">
        <ele>1385</ele>
        <time>2019-12-30T13:46:12Z</time>
      </trkpt>
      <trkpt lat="43.79963" lon="7.05997">
        <ele>1385</ele>
        <time>2019-12-30T13:46:13Z</time>
      </trkpt>
      <trkpt lat="43.79963" lon="7.05997">
        <ele>1385</ele>
        <time>2019-12-30T13:46:14Z</time>
      </trkpt>
      <trkpt lat="43.79963" lon="7.05997">
        <ele>1385</ele>
        <time>2019-12-30T13:46:15Z</time>
      </trkpt>
      <trkpt lat="43.79963" lon="7.05997">
        <ele>1385</ele>
        <time>2019-12-30T13:46:16Z</time>
      </trkpt>
      <trkpt lat="43.79963" lon="7.05997">
        <ele>1385</ele>
        <time>2019-12-30T13:46:17Z</time>
      </trkpt>
      <trkpt lat="43.79963" lon="7.05997">
        <ele>1385</ele>
        <time>2019-12-30T13:46:18Z</time>
      </trkpt>
      <trkpt lat="43.79963" lon="7.05997">
        <ele>1385</ele>
        <time>2019-12-30T13:46:19Z</time>
      </trkpt>
      <trkpt lat="43.79963" lon="7.05997">
        <ele>1385</ele>
        <time>2019-12-30T13:46:20Z</time>
      </trkpt>
      <trkpt lat="43.79963" lon="7.05997">
        <ele>1385</ele>
        <time>2019-12-30T13:46:21Z</time>
      </trkpt>
      <trkpt lat="43.79963" lon="7.05997">
        <ele>1385</ele>
        <time>2019-12-30T13:46:22Z</time>
      </trkpt>
      <trkpt lat="43.79963" lon="7.05997">
        <ele>1385</ele>
        <time>2019-12-30T13:46:23Z</time>
      </trkpt>
      <trkpt lat="43.79963" lon="7.05997">
        <ele>1385</ele>
        <time>2019-12-30T13:46:24Z</time>
      </trkpt>
      <trkpt lat="43.79963" lon="7.05997">
        <ele>1385</ele>
        <time>2019-12-30T13:46:25Z</time>
      </trkpt>
      <trkpt lat="43.79963" lon="7.05997">
        <ele>1385</ele>
        <time>2019-12-30T13:46:26Z</time>
      </trkpt>
      <trkpt lat="43.79963" lon="7.05997">
        <ele>1385</ele>
        <time>2019-12-30T13:46:27Z</time>
      </trkpt>
      <trkpt lat="43.79963" lon="7.05997">
        <ele>1385</ele>
        <time>2019-12-30T13:46:28Z</time>
      </trkpt>
      <trkpt lat="43.79963" lon="7.05997">
        <ele>1385</ele>
        <time>2019-12-30T13:46:29Z</time>
      </trkpt>
      <trkpt lat="43.79963" lon="7.05997">
        <ele>1385</ele>
        <time>2019-12-30T13:46:30Z</time>
      </trkpt>
      <trkpt lat="43.79963" lon="7.05997">
        <ele>1385</ele>
        <time>2019-12-30T13:46:31Z</time>
      </trkpt>
      <trkpt lat="43.79963" lon="7.05997">
        <ele>1385</ele>
        <time>2019-12-30T13:46:32Z</time>
      </trkpt>
      <trkpt lat="43.79963" lon="7.05997">
        <ele>1385</ele>
        <time>2019-12-30T13:46:33Z</time>
      </trkpt>
      <trkpt lat="43.79963" lon="7.05997">
        <ele>1385</ele>
        <time>2019-12-30T13:46:34Z</time>
      </trkpt>
      <trkpt lat="43.79963" lon="7.05997">
        <ele>1385</ele>
        <time>2019-12-30T13:46:35Z</time>
      </trkpt>
      <trkpt lat="43.79963" lon="7.05997">
        <ele>1385</ele>
        <time>2019-12-30T13:46:36Z</time>
      </trkpt>
      <trkpt lat="43.79963" lon="7.05997">
        <ele>1385</ele>
        <time>2019-12-30T13:46:37Z</time>
      </trkpt>
      <trkpt lat="43.79963" lon="7.05997">
        <ele>1385</ele>
        <time>2019-12-30T13:46:38Z</time>
      </trkpt>
      <trkpt lat="43.79963" lon="7.05997">
        <ele>1385</ele>
        <time>2019-12-30T13:46:39Z</time>
      </trkpt>
      <trkpt lat="43.79963" lon="7.05997">
        <ele>1385</ele>
        <time>2019-12-30T13:46:40Z</time>
      </trkpt>
      <trkpt lat="43.79963" lon="7.05997">
        <ele>1385</ele>
        <time>2019-12-30T13:46:41Z</time>
      </trkpt>
      <trkpt lat="43.79963" lon="7.05997">
        <ele>1385</ele>
        <time>2019-12-30T13:46:42Z</time>
      </trkpt>
      <trkpt lat="43.79963" lon="7.05997">
        <ele>1385</ele>
        <time>2019-12-30T13:46:43Z</time>
      </trkpt>
      <trkpt lat="43.79963" lon="7.05997">
        <ele>1385</ele>
        <time>2019-12-30T13:46:44Z</time>
      </trkpt>
      <trkpt lat="43.79963" lon="7.05997">
        <ele>1385</ele>
        <time>2019-12-30T13:46:45Z</time>
      </trkpt>
      <trkpt lat="43.79963" lon="7.05997">
        <ele>1385</ele>
        <time>2019-12-30T13:46:46Z</time>
      </trkpt>
      <trkpt lat="43.79963" lon="7.05997">
        <ele>1385</ele>
        <time>2019-12-30T13:46:47Z</time>
      </trkpt>
      <trkpt lat="43.79963" lon="7.05997">
        <ele>1385</ele>
        <time>2019-12-30T13:46:48Z</time>
      </trkpt>
      <trkpt lat="43.79963" lon="7.05997">
        <ele>1385</ele>
        <time>2019-12-30T13:46:49Z</time>
      </trkpt>
      <trkpt lat="43.79963" lon="7.05997">
        <ele>1385</ele>
        <time>2019-12-30T13:46:50Z</time>
      </trkpt>
      <trkpt lat="43.79963" lon="7.05997">
        <ele>1385</ele>
        <time>2019-12-30T13:46:51Z</time>
      </trkpt>
      <trkpt lat="43.79963" lon="7.05997">
        <ele>1385</ele>
        <time>2019-12-30T13:46:52Z</time>
      </trkpt>
      <trkpt lat="43.79963" lon="7.05997">
        <ele>1385</ele>
        <time>2019-12-30T13:46:53Z</time>
      </trkpt>
      <trkpt lat="43.79963" lon="7.05997">
        <ele>1385</ele>
        <time>2019-12-30T13:46:54Z</time>
      </trkpt>
      <trkpt lat="43.79963" lon="7.05997">
        <ele>1385</ele>
        <time>2019-12-30T13:46:55Z</time>
      </trkpt>
      <trkpt lat="43.79963" lon="7.05997">
        <ele>1385</ele>
        <time>2019-12-30T13:46:56Z</time>
      </trkpt>
      <trkpt lat="43.79963" lon="7.05997">
        <ele>1385</ele>
        <time>2019-12-30T13:46:57Z</time>
      </trkpt>
      <trkpt lat="43.79963" lon="7.05997">
        <ele>1385</ele>
        <time>2019-12-30T13:46:58Z</time>
      </trkpt>
      <trkpt lat="43.79963" lon="7.05997">
        <ele>1385</ele>
        <time>2019-12-30T13:46:59Z</time>
      </trkpt>
      <trkpt lat="43.79963" lon="7.05997">
        <ele>1385</ele>
        <time>2019-12-30T13:47:00Z</time>
      </trkpt>
      <trkpt lat="43.79963" lon="7.05997">
        <ele>1385</ele>
        <time>2019-12-30T13:47:01Z</time>
      </trkpt>
      <trkpt lat="43.79963" lon="7.05997">
        <ele>1385</ele>
        <time>2019-12-30T13:47:02Z</time>
      </trkpt>
      <trkpt lat="43.79963" lon="7.05997">
        <ele>1385</ele>
        <time>2019-12-30T13:47:03Z</time>
      </trkpt>
      <trkpt lat="43.79963" lon="7.05997">
        <ele>1385</ele>
        <time>2019-12-30T13:47:04Z</time>
      </trkpt>
      <trkpt lat="43.79963" lon="7.05997">
        <ele>1385</ele>
        <time>2019-12-30T13:47:05Z</time>
      </trkpt>
      <trkpt lat="43.79963" lon="7.05997">
        <ele>1385</ele>
        <time>2019-12-30T13:47:06Z</time>
      </trkpt>
      <trkpt lat="43.79963" lon="7.05997">
        <ele>1385</ele>
        <time>2019-12-30T13:47:07Z</time>
      </trkpt>
      <trkpt lat="43.79963" lon="7.05997">
        <ele>1385</ele>
        <time>2019-12-30T13:47:08Z</time>
      </trkpt>
      <trkpt lat="43.79963" lon="7.05997">
        <ele>1385</ele>
        <time>2019-12-30T13:47:09Z</time>
      </trkpt>
      <trkpt lat="43.79963" lon="7.05997">
        <ele>1385</ele>
        <time>2019-12-30T13:47:10Z</time>
      </trkpt>
      <trkpt lat="43.79963" lon="7.05997">
        <ele>1385</ele>
        <time>2019-12-30T13:47:11Z</time>
      </trkpt>
      <trkpt lat="43.79963" lon="7.05997">
        <ele>1385</ele>
        <time>2019-12-30T13:47:12Z</time>
      </trkpt>
      <trkpt lat="43.79963" lon="7.05997">
        <ele>1385</ele>
        <time>2019-12-30T13:47:13Z</time>
      </trkpt>
      <trkpt lat="43.79963" lon="7.05997">
        <ele>1385</ele>
        <time>2019-12-30T13:47:14Z</time>
      </trkpt>
      <trkpt lat="43.79963" lon="7.05997">
        <ele>1385</ele>
        <time>2019-12-30T13:47:15Z</time>
      </trkpt>
      <trkpt lat="43.79964" lon="7.05997">
        <ele>1385</ele>
        <time>2019-12-30T13:47:16Z</time>
      </trkpt>
      <trkpt lat="43.79964" lon="7.05996">
        <ele>1385</ele>
        <time>2019-12-30T13:47:17Z</time>
      </trkpt>
      <trkpt lat="43.79965" lon="7.05996">
        <ele>1385</ele>
        <time>2019-12-30T13:47:18Z</time>
      </trkpt>
      <trkpt lat="43.79965" lon="7.05996">
        <ele>1385</ele>
        <time>2019-12-30T13:47:19Z</time>
      </trkpt>
      <trkpt lat="43.79965" lon="7.05996">
        <ele>1385</ele>
        <time>2019-12-30T13:47:20Z</time>
      </trkpt>
      <trkpt lat="43.79965" lon="7.05996">
        <ele>1385</ele>
        <time>2019-12-30T13:47:21Z</time>
      </trkpt>
      <trkpt lat="43.79965" lon="7.05995">
        <ele>1385</ele>
        <time>2019-12-30T13:47:22Z</time>
      </trkpt>
      <trkpt lat="43.79965" lon="7.05995">
        <ele>1385</ele>
        <time>2019-12-30T13:47:23Z</time>
      </trkpt>
      <trkpt lat="43.79965" lon="7.05995">
        <ele>1385</ele>
        <time>2019-12-30T13:47:24Z</time>
      </trkpt>
      <trkpt lat="43.79965" lon="7.05995">
        <ele>1385</ele>
        <time>2019-12-30T13:47:25Z</time>
      </trkpt>
      <trkpt lat="43.79965" lon="7.05995">
        <ele>1385</ele>
        <time>2019-12-30T13:47:26Z</time>
      </trkpt>
      <trkpt lat="43.79965" lon="7.05995">
        <ele>1385</ele>
        <time>2019-12-30T13:47:27Z</time>
      </trkpt>
      <trkpt lat="43.79965" lon="7.05995">
        <ele>1385</ele>
        <time>2019-12-30T13:47:28Z</time>
      </trkpt>
      <trkpt lat="43.79965" lon="7.05995">
        <ele>1385</ele>
        <time>2019-12-30T13:47:29Z</time>
      </trkpt>
      <trkpt lat="43.79965" lon="7.05995">
        <ele>1385</ele>
        <time>2019-12-30T13:47:30Z</time>
      </trkpt>
      <trkpt lat="43.79965" lon="7.05995">
        <ele>1385</ele>
        <time>2019-12-30T13:47:31Z</time>
      </trkpt>
      <trkpt lat="43.79965" lon="7.05995">
        <ele>1385</ele>
        <time>2019-12-30T13:47:32Z</time>
      </trkpt>
      <trkpt lat="43.79965" lon="7.05995">
        <ele>1385</ele>
        <time>2019-12-30T13:47:33Z</time>
      </trkpt>
      <trkpt lat="43.79965" lon="7.05995">
        <ele>1385</ele>
        <time>2019-12-30T13:47:34Z</time>
      </trkpt>
      <trkpt lat="43.79965" lon="7.05995">
        <ele>1385</ele>
        <time>2019-12-30T13:47:35Z</time>
      </trkpt>
      <trkpt lat="43.79965" lon="7.05995">
        <ele>1385</ele>
        <time>2019-12-30T13:47:36Z</time>
      </trkpt>
      <trkpt lat="43.79965" lon="7.05995">
        <ele>1385</ele>
        <time>2019-12-30T13:47:37Z</time>
      </trkpt>
      <trkpt lat="43.79965" lon="7.05995">
        <ele>1385</ele>
        <time>2019-12-30T13:47:38Z</time>
      </trkpt>
      <trkpt lat="43.79965" lon="7.05995">
        <ele>1385</ele>
        <time>2019-12-30T13:47:39Z</time>
      </trkpt>
      <trkpt lat="43.79965" lon="7.05994">
        <ele>1385</ele>
        <time>2019-12-30T13:47:40Z</time>
      </trkpt>
      <trkpt lat="43.79965" lon="7.05994">
        <ele>1385</ele>
        <time>2019-12-30T13:47:41Z</time>
      </trkpt>
      <trkpt lat="43.79965" lon="7.05994">
        <ele>1385</ele>
        <time>2019-12-30T13:47:42Z</time>
      </trkpt>
      <trkpt lat="43.79965" lon="7.05994">
        <ele>1385</ele>
        <time>2019-12-30T13:47:43Z</time>
      </trkpt>
      <trkpt lat="43.79965" lon="7.05993">
        <ele>1385</ele>
        <time>2019-12-30T13:47:44Z</time>
      </trkpt>
      <trkpt lat="43.79965" lon="7.05993">
        <ele>1385</ele>
        <time>2019-12-30T13:47:45Z</time>
      </trkpt>
      <trkpt lat="43.79965" lon="7.05994">
        <ele>1385</ele>
        <time>2019-12-30T13:47:46Z</time>
      </trkpt>
      <trkpt lat="43.79965" lon="7.05994">
        <ele>1385</ele>
        <time>2019-12-30T13:47:47Z</time>
      </trkpt>
      <trkpt lat="43.79965" lon="7.05994">
        <ele>1385</ele>
        <time>2019-12-30T13:47:48Z</time>
      </trkpt>
      <trkpt lat="43.79965" lon="7.05994">
        <ele>1385</ele>
        <time>2019-12-30T13:47:49Z</time>
      </trkpt>
      <trkpt lat="43.79965" lon="7.05994">
        <ele>1385</ele>
        <time>2019-12-30T13:47:50Z</time>
      </trkpt>
      <trkpt lat="43.79965" lon="7.05994">
        <ele>1385</ele>
        <time>2019-12-30T13:47:51Z</time>
      </trkpt>
      <trkpt lat="43.79965" lon="7.05994">
        <ele>1385</ele>
        <time>2019-12-30T13:47:52Z</time>
      </trkpt>
      <trkpt lat="43.79965" lon="7.05994">
        <ele>1385</ele>
        <time>2019-12-30T13:47:53Z</time>
      </trkpt>
      <trkpt lat="43.79965" lon="7.05994">
        <ele>1385</ele>
        <time>2019-12-30T13:47:54Z</time>
      </trkpt>
      <trkpt lat="43.79965" lon="7.05994">
        <ele>1385</ele>
        <time>2019-12-30T13:47:55Z</time>
      </trkpt>
      <trkpt lat="43.79965" lon="7.05994">
        <ele>1385</ele>
        <time>2019-12-30T13:47:56Z</time>
      </trkpt>
      <trkpt lat="43.79965" lon="7.05994">
        <ele>1385</ele>
        <time>2019-12-30T13:47:57Z</time>
      </trkpt>
      <trkpt lat="43.79965" lon="7.05994">
        <ele>1385</ele>
        <time>2019-12-30T13:47:58Z</time>
      </trkpt>
      <trkpt lat="43.79965" lon="7.05994">
        <ele>1385</ele>
        <time>2019-12-30T13:47:59Z</time>
      </trkpt>
      <trkpt lat="43.79965" lon="7.05994">
        <ele>1385</ele>
        <time>2019-12-30T13:48:00Z</time>
      </trkpt>
      <trkpt lat="43.79965" lon="7.05994">
        <ele>1385</ele>
        <time>2019-12-30T13:48:01Z</time>
      </trkpt>
      <trkpt lat="43.79965" lon="7.05994">
        <ele>1385</ele>
        <time>2019-12-30T13:48:02Z</time>
      </trkpt>
      <trkpt lat="43.79965" lon="7.05994">
        <ele>1385</ele>
        <time>2019-12-30T13:48:03Z</time>
      </trkpt>
      <trkpt lat="43.79965" lon="7.05994">
        <ele>1385</ele>
        <time>2019-12-30T13:48:04Z</time>
      </trkpt>
      <trkpt lat="43.79965" lon="7.05994">
        <ele>1385</ele>
        <time>2019-12-30T13:48:05Z</time>
      </trkpt>
      <trkpt lat="43.79965" lon="7.05994">
        <ele>1385</ele>
        <time>2019-12-30T13:48:06Z</time>
      </trkpt>
      <trkpt lat="43.79965" lon="7.05994">
        <ele>1385</ele>
        <time>2019-12-30T13:48:07Z</time>
      </trkpt>
      <trkpt lat="43.79965" lon="7.05994">
        <ele>1385</ele>
        <time>2019-12-30T13:48:08Z</time>
      </trkpt>
      <trkpt lat="43.79965" lon="7.05995">
        <ele>1385</ele>
        <time>2019-12-30T13:48:09Z</time>
      </trkpt>
      <trkpt lat="43.79965" lon="7.05995">
        <ele>1385</ele>
        <time>2019-12-30T13:48:10Z</time>
      </trkpt>
      <trkpt lat="43.79965" lon="7.05995">
        <ele>1385.1</ele>
        <time>2019-12-30T13:48:11Z</time>
      </trkpt>
      <trkpt lat="43.79965" lon="7.05995">
        <ele>1385.1</ele>
        <time>2019-12-30T13:48:12Z</time>
      </trkpt>
      <trkpt lat="43.79965" lon="7.05995">
        <ele>1385.1</ele>
        <time>2019-12-30T13:48:13Z</time>
      </trkpt>
      <trkpt lat="43.79965" lon="7.05996">
        <ele>1385.1</ele>
        <time>2019-12-30T13:48:14Z</time>
      </trkpt>
      <trkpt lat="43.79965" lon="7.05996">
        <ele>1385.1</ele>
        <time>2019-12-30T13:48:15Z</time>
      </trkpt>
      <trkpt lat="43.79965" lon="7.05996">
        <ele>1385.1</ele>
        <time>2019-12-30T13:48:16Z</time>
      </trkpt>
      <trkpt lat="43.79964" lon="7.05996">
        <ele>1385.1</ele>
        <time>2019-12-30T13:48:17Z</time>
      </trkpt>
      <trkpt lat="43.79964" lon="7.05996">
        <ele>1385.1</ele>
        <time>2019-12-30T13:48:18Z</time>
      </trkpt>
      <trkpt lat="43.79964" lon="7.05996">
        <ele>1385.1</ele>
        <time>2019-12-30T13:48:19Z</time>
      </trkpt>
      <trkpt lat="43.79964" lon="7.05996">
        <ele>1385.1</ele>
        <time>2019-12-30T13:48:20Z</time>
      </trkpt>
      <trkpt lat="43.79964" lon="7.05996">
        <ele>1385.1</ele>
        <time>2019-12-30T13:48:21Z</time>
      </trkpt>
      <trkpt lat="43.79964" lon="7.05996">
        <ele>1385.1</ele>
        <time>2019-12-30T13:48:22Z</time>
      </trkpt>
      <trkpt lat="43.79964" lon="7.05996">
        <ele>1385.1</ele>
        <time>2019-12-30T13:48:23Z</time>
      </trkpt>
      <trkpt lat="43.79964" lon="7.05996">
        <ele>1385.1</ele>
        <time>2019-12-30T13:48:24Z</time>
      </trkpt>
      <trkpt lat="43.79964" lon="7.05996">
        <ele>1385.1</ele>
        <time>2019-12-30T13:48:25Z</time>
      </trkpt>
      <trkpt lat="43.79964" lon="7.05996">
        <ele>1385.1</ele>
        <time>2019-12-30T13:48:26Z</time>
      </trkpt>
      <trkpt lat="43.79964" lon="7.05996">
        <ele>1385.1</ele>
        <time>2019-12-30T13:48:27Z</time>
      </trkpt>
      <trkpt lat="43.79964" lon="7.05996">
        <ele>1385.1</ele>
        <time>2019-12-30T13:48:28Z</time>
      </trkpt>
      <trkpt lat="43.79964" lon="7.05996">
        <ele>1385.1</ele>
        <time>2019-12-30T13:48:29Z</time>
      </trkpt>
      <trkpt lat="43.79964" lon="7.05996">
        <ele>1385.1</ele>
        <time>2019-12-30T13:48:30Z</time>
      </trkpt>
      <trkpt lat="43.79964" lon="7.05996">
        <ele>1385.1</ele>
        <time>2019-12-30T13:48:31Z</time>
      </trkpt>
      <trkpt lat="43.79964" lon="7.05996">
        <ele>1385.1</ele>
        <time>2019-12-30T13:48:32Z</time>
      </trkpt>
      <trkpt lat="43.79964" lon="7.05996">
        <ele>1385.1</ele>
        <time>2019-12-30T13:48:33Z</time>
      </trkpt>
      <trkpt lat="43.79964" lon="7.05996">
        <ele>1385.1</ele>
        <time>2019-12-30T13:48:34Z</time>
      </trkpt>
      <trkpt lat="43.79964" lon="7.05996">
        <ele>1385.1</ele>
        <time>2019-12-30T13:48:35Z</time>
      </trkpt>
      <trkpt lat="43.79964" lon="7.05996">
        <ele>1385.1</ele>
        <time>2019-12-30T13:48:36Z</time>
      </trkpt>
      <trkpt lat="43.79964" lon="7.05996">
        <ele>1385.1</ele>
        <time>2019-12-30T13:48:37Z</time>
      </trkpt>
      <trkpt lat="43.79964" lon="7.05996">
        <ele>1385.1</ele>
        <time>2019-12-30T13:48:38Z</time>
      </trkpt>
      <trkpt lat="43.79964" lon="7.05996">
        <ele>1385.1</ele>
        <time>2019-12-30T13:48:39Z</time>
      </trkpt>
      <trkpt lat="43.79964" lon="7.05996">
        <ele>1385.1</ele>
        <time>2019-12-30T13:48:40Z</time>
      </trkpt>
      <trkpt lat="43.79964" lon="7.05996">
        <ele>1385.1</ele>
        <time>2019-12-30T13:48:41Z</time>
      </trkpt>
      <trkpt lat="43.79964" lon="7.05996">
        <ele>1385.1</ele>
        <time>2019-12-30T13:48:42Z</time>
      </trkpt>
      <trkpt lat="43.79964" lon="7.05996">
        <ele>1385.1</ele>
        <time>2019-12-30T13:48:43Z</time>
      </trkpt>
      <trkpt lat="43.79964" lon="7.05996">
        <ele>1385.1</ele>
        <time>2019-12-30T13:48:44Z</time>
      </trkpt>
      <trkpt lat="43.79964" lon="7.05996">
        <ele>1385.1</ele>
        <time>2019-12-30T13:48:45Z</time>
      </trkpt>
      <trkpt lat="43.79964" lon="7.05996">
        <ele>1385.1</ele>
        <time>2019-12-30T13:48:46Z</time>
      </trkpt>
      <trkpt lat="43.79964" lon="7.05996">
        <ele>1385.1</ele>
        <time>2019-12-30T13:48:47Z</time>
      </trkpt>
      <trkpt lat="43.79964" lon="7.05996">
        <ele>1385.1</ele>
        <time>2019-12-30T13:48:48Z</time>
      </trkpt>
      <trkpt lat="43.79964" lon="7.05996">
        <ele>1385.1</ele>
        <time>2019-12-30T13:48:49Z</time>
      </trkpt>
      <trkpt lat="43.79964" lon="7.05996">
        <ele>1385.1</ele>
        <time>2019-12-30T13:48:50Z</time>
      </trkpt>
      <trkpt lat="43.79964" lon="7.05996">
        <ele>1385.1</ele>
        <time>2019-12-30T13:48:51Z</time>
      </trkpt>
      <trkpt lat="43.79964" lon="7.05996">
        <ele>1385.1</ele>
        <time>2019-12-30T13:48:52Z</time>
      </trkpt>
      <trkpt lat="43.79964" lon="7.05996">
        <ele>1385.1</ele>
        <time>2019-12-30T13:48:53Z</time>
      </trkpt>
      <trkpt lat="43.79964" lon="7.05996">
        <ele>1385.1</ele>
        <time>2019-12-30T13:48:54Z</time>
      </trkpt>
      <trkpt lat="43.79964" lon="7.05996">
        <ele>1385.1</ele>
        <time>2019-12-30T13:48:55Z</time>
      </trkpt>
      <trkpt lat="43.79964" lon="7.05996">
        <ele>1385.1</ele>
        <time>2019-12-30T13:48:56Z</time>
      </trkpt>
      <trkpt lat="43.79964" lon="7.05996">
        <ele>1385.1</ele>
        <time>2019-12-30T13:48:57Z</time>
      </trkpt>
      <trkpt lat="43.79964" lon="7.05996">
        <ele>1385.1</ele>
        <time>2019-12-30T13:48:58Z</time>
      </trkpt>
      <trkpt lat="43.79964" lon="7.05996">
        <ele>1385.1</ele>
        <time>2019-12-30T13:48:59Z</time>
      </trkpt>
      <trkpt lat="43.79964" lon="7.05996">
        <ele>1385.1</ele>
        <time>2019-12-30T13:49:00Z</time>
      </trkpt>
      <trkpt lat="43.79964" lon="7.05996">
        <ele>1385.1</ele>
        <time>2019-12-30T13:49:01Z</time>
      </trkpt>
      <trkpt lat="43.79964" lon="7.05996">
        <ele>1385.1</ele>
        <time>2019-12-30T13:49:02Z</time>
      </trkpt>
      <trkpt lat="43.79964" lon="7.05996">
        <ele>1385.1</ele>
        <time>2019-12-30T13:49:03Z</time>
      </trkpt>
      <trkpt lat="43.79964" lon="7.05996">
        <ele>1385.1</ele>
        <time>2019-12-30T13:49:04Z</time>
      </trkpt>
      <trkpt lat="43.79964" lon="7.05996">
        <ele>1385.1</ele>
        <time>2019-12-30T13:49:05Z</time>
      </trkpt>
      <trkpt lat="43.79964" lon="7.05996">
        <ele>1385.1</ele>
        <time>2019-12-30T13:49:06Z</time>
      </trkpt>
      <trkpt lat="43.79964" lon="7.05996">
        <ele>1385.1</ele>
        <time>2019-12-30T13:49:07Z</time>
      </trkpt>
      <trkpt lat="43.79964" lon="7.05996">
        <ele>1385.1</ele>
        <time>2019-12-30T13:49:08Z</time>
      </trkpt>
      <trkpt lat="43.79964" lon="7.05996">
        <ele>1385.1</ele>
        <time>2019-12-30T13:49:09Z</time>
      </trkpt>
      <trkpt lat="43.79964" lon="7.05996">
        <ele>1385.1</ele>
        <time>2019-12-30T13:49:10Z</time>
      </trkpt>
      <trkpt lat="43.79964" lon="7.05996">
        <ele>1385.1</ele>
        <time>2019-12-30T13:49:11Z</time>
      </trkpt>
      <trkpt lat="43.79964" lon="7.05996">
        <ele>1385.1</ele>
        <time>2019-12-30T13:49:12Z</time>
      </trkpt>
      <trkpt lat="43.79964" lon="7.05996">
        <ele>1385.1</ele>
        <time>2019-12-30T13:49:13Z</time>
      </trkpt>
      <trkpt lat="43.79964" lon="7.05996">
        <ele>1385.1</ele>
        <time>2019-12-30T13:49:14Z</time>
      </trkpt>
      <trkpt lat="43.79964" lon="7.05996">
        <ele>1385.1</ele>
        <time>2019-12-30T13:49:15Z</time>
      </trkpt>
      <trkpt lat="43.79964" lon="7.05996">
        <ele>1385.1</ele>
        <time>2019-12-30T13:49:16Z</time>
      </trkpt>
      <trkpt lat="43.79964" lon="7.05996">
        <ele>1385.1</ele>
        <time>2019-12-30T13:49:17Z</time>
      </trkpt>
      <trkpt lat="43.79964" lon="7.05996">
        <ele>1385.1</ele>
        <time>2019-12-30T13:49:18Z</time>
      </trkpt>
      <trkpt lat="43.79964" lon="7.05996">
        <ele>1385.1</ele>
        <time>2019-12-30T13:49:19Z</time>
      </trkpt>
      <trkpt lat="43.79964" lon="7.05996">
        <ele>1385.1</ele>
        <time>2019-12-30T13:49:20Z</time>
      </trkpt>
      <trkpt lat="43.79964" lon="7.05996">
        <ele>1385.1</ele>
        <time>2019-12-30T13:49:21Z</time>
      </trkpt>
      <trkpt lat="43.79964" lon="7.05996">
        <ele>1385.1</ele>
        <time>2019-12-30T13:49:22Z</time>
      </trkpt>
      <trkpt lat="43.79964" lon="7.05996">
        <ele>1385.1</ele>
        <time>2019-12-30T13:49:23Z</time>
      </trkpt>
      <trkpt lat="43.79964" lon="7.05996">
        <ele>1385.1</ele>
        <time>2019-12-30T13:49:24Z</time>
      </trkpt>
      <trkpt lat="43.79964" lon="7.05996">
        <ele>1385.1</ele>
        <time>2019-12-30T13:49:25Z</time>
      </trkpt>
      <trkpt lat="43.79964" lon="7.05996">
        <ele>1385.1</ele>
        <time>2019-12-30T13:49:26Z</time>
      </trkpt>
      <trkpt lat="43.79964" lon="7.05996">
        <ele>1385.1</ele>
        <time>2019-12-30T13:49:27Z</time>
      </trkpt>
      <trkpt lat="43.79964" lon="7.05996">
        <ele>1385.1</ele>
        <time>2019-12-30T13:49:28Z</time>
      </trkpt>
      <trkpt lat="43.79964" lon="7.05996">
        <ele>1385.1</ele>
        <time>2019-12-30T13:49:29Z</time>
      </trkpt>
      <trkpt lat="43.79964" lon="7.05996">
        <ele>1385.1</ele>
        <time>2019-12-30T13:49:30Z</time>
      </trkpt>
      <trkpt lat="43.79964" lon="7.05996">
        <ele>1385.1</ele>
        <time>2019-12-30T13:49:31Z</time>
      </trkpt>
      <trkpt lat="43.79964" lon="7.05996">
        <ele>1385.1</ele>
        <time>2019-12-30T13:49:32Z</time>
      </trkpt>
      <trkpt lat="43.79964" lon="7.05996">
        <ele>1385.1</ele>
        <time>2019-12-30T13:49:33Z</time>
      </trkpt>
      <trkpt lat="43.79964" lon="7.05996">
        <ele>1385.1</ele>
        <time>2019-12-30T13:49:34Z</time>
      </trkpt>
      <trkpt lat="43.79964" lon="7.05996">
        <ele>1385.1</ele>
        <time>2019-12-30T13:49:35Z</time>
      </trkpt>
      <trkpt lat="43.79964" lon="7.05996">
        <ele>1385.1</ele>
        <time>2019-12-30T13:49:36Z</time>
      </trkpt>
      <trkpt lat="43.79964" lon="7.05996">
        <ele>1385.1</ele>
        <time>2019-12-30T13:49:37Z</time>
      </trkpt>
      <trkpt lat="43.79964" lon="7.05996">
        <ele>1385.1</ele>
        <time>2019-12-30T13:49:38Z</time>
      </trkpt>
      <trkpt lat="43.79964" lon="7.05996">
        <ele>1385.1</ele>
        <time>2019-12-30T13:49:39Z</time>
      </trkpt>
      <trkpt lat="43.79964" lon="7.05996">
        <ele>1385.1</ele>
        <time>2019-12-30T13:49:40Z</time>
      </trkpt>
      <trkpt lat="43.79964" lon="7.05996">
        <ele>1385.1</ele>
        <time>2019-12-30T13:49:41Z</time>
      </trkpt>
      <trkpt lat="43.79964" lon="7.05996">
        <ele>1385.1</ele>
        <time>2019-12-30T13:49:42Z</time>
      </trkpt>
      <trkpt lat="43.79964" lon="7.05996">
        <ele>1385.1</ele>
        <time>2019-12-30T13:49:43Z</time>
      </trkpt>
      <trkpt lat="43.79964" lon="7.05996">
        <ele>1385.1</ele>
        <time>2019-12-30T13:49:44Z</time>
      </trkpt>
      <trkpt lat="43.79964" lon="7.05996">
        <ele>1385.1</ele>
        <time>2019-12-30T13:49:45Z</time>
      </trkpt>
      <trkpt lat="43.79964" lon="7.05996">
        <ele>1385.1</ele>
        <time>2019-12-30T13:49:46Z</time>
      </trkpt>
      <trkpt lat="43.79964" lon="7.05996">
        <ele>1385.1</ele>
        <time>2019-12-30T13:49:47Z</time>
      </trkpt>
      <trkpt lat="43.79964" lon="7.05996">
        <ele>1385.1</ele>
        <time>2019-12-30T13:49:48Z</time>
      </trkpt>
      <trkpt lat="43.79964" lon="7.05996">
        <ele>1385.1</ele>
        <time>2019-12-30T13:49:49Z</time>
      </trkpt>
      <trkpt lat="43.79964" lon="7.05996">
        <ele>1385.1</ele>
        <time>2019-12-30T13:49:50Z</time>
      </trkpt>
      <trkpt lat="43.79964" lon="7.05996">
        <ele>1385.1</ele>
        <time>2019-12-30T13:49:51Z</time>
      </trkpt>
      <trkpt lat="43.79964" lon="7.05996">
        <ele>1385.1</ele>
        <time>2019-12-30T13:49:52Z</time>
      </trkpt>
      <trkpt lat="43.79964" lon="7.05996">
        <ele>1385.1</ele>
        <time>2019-12-30T13:49:53Z</time>
      </trkpt>
      <trkpt lat="43.79964" lon="7.05996">
        <ele>1385.1</ele>
        <time>2019-12-30T13:49:54Z</time>
      </trkpt>
      <trkpt lat="43.79964" lon="7.05996">
        <ele>1385.1</ele>
        <time>2019-12-30T13:49:55Z</time>
      </trkpt>
      <trkpt lat="43.79964" lon="7.05996">
        <ele>1385.1</ele>
        <time>2019-12-30T13:49:56Z</time>
      </trkpt>
      <trkpt lat="43.79964" lon="7.05996">
        <ele>1385.1</ele>
        <time>2019-12-30T13:49:57Z</time>
      </trkpt>
      <trkpt lat="43.79964" lon="7.05996">
        <ele>1385.1</ele>
        <time>2019-12-30T13:49:58Z</time>
      </trkpt>
      <trkpt lat="43.79964" lon="7.05996">
        <ele>1385.1</ele>
        <time>2019-12-30T13:49:59Z</time>
      </trkpt>
      <trkpt lat="43.79964" lon="7.05996">
        <ele>1385.1</ele>
        <time>2019-12-30T13:50:00Z</time>
      </trkpt>
      <trkpt lat="43.79964" lon="7.05996">
        <ele>1385.1</ele>
        <time>2019-12-30T13:50:01Z</time>
      </trkpt>
      <trkpt lat="43.79964" lon="7.05996">
        <ele>1385.1</ele>
        <time>2019-12-30T13:50:02Z</time>
      </trkpt>
      <trkpt lat="43.79964" lon="7.05996">
        <ele>1385.1</ele>
        <time>2019-12-30T13:50:03Z</time>
      </trkpt>
      <trkpt lat="43.79964" lon="7.05996">
        <ele>1385.1</ele>
        <time>2019-12-30T13:50:04Z</time>
      </trkpt>
      <trkpt lat="43.79964" lon="7.05996">
        <ele>1385.1</ele>
        <time>2019-12-30T13:50:05Z</time>
      </trkpt>
      <trkpt lat="43.79964" lon="7.05996">
        <ele>1385.1</ele>
        <time>2019-12-30T13:50:06Z</time>
      </trkpt>
      <trkpt lat="43.79964" lon="7.05996">
        <ele>1385.1</ele>
        <time>2019-12-30T13:50:07Z</time>
      </trkpt>
      <trkpt lat="43.79964" lon="7.05996">
        <ele>1385.1</ele>
        <time>2019-12-30T13:50:08Z</time>
      </trkpt>
      <trkpt lat="43.79964" lon="7.05996">
        <ele>1385.1</ele>
        <time>2019-12-30T13:50:09Z</time>
      </trkpt>
      <trkpt lat="43.79964" lon="7.05996">
        <ele>1385.1</ele>
        <time>2019-12-30T13:50:10Z</time>
      </trkpt>
      <trkpt lat="43.79964" lon="7.05996">
        <ele>1385.1</ele>
        <time>2019-12-30T13:50:11Z</time>
      </trkpt>
      <trkpt lat="43.79964" lon="7.05996">
        <ele>1385.1</ele>
        <time>2019-12-30T13:50:12Z</time>
      </trkpt>
      <trkpt lat="43.79964" lon="7.05996">
        <ele>1385.1</ele>
        <time>2019-12-30T13:50:13Z</time>
      </trkpt>
      <trkpt lat="43.79964" lon="7.05996">
        <ele>1385.1</ele>
        <time>2019-12-30T13:50:14Z</time>
      </trkpt>
      <trkpt lat="43.79964" lon="7.05996">
        <ele>1385.1</ele>
        <time>2019-12-30T13:50:15Z</time>
      </trkpt>
      <trkpt lat="43.79964" lon="7.05996">
        <ele>1385.1</ele>
        <time>2019-12-30T13:50:16Z</time>
      </trkpt>
      <trkpt lat="43.79963" lon="7.05996">
        <ele>1385.1</ele>
        <time>2019-12-30T13:50:17Z</time>
      </trkpt>
      <trkpt lat="43.79963" lon="7.05996">
        <ele>1385.1</ele>
        <time>2019-12-30T13:50:18Z</time>
      </trkpt>
      <trkpt lat="43.79963" lon="7.05996">
        <ele>1385.1</ele>
        <time>2019-12-30T13:50:19Z</time>
      </trkpt>
      <trkpt lat="43.79963" lon="7.05996">
        <ele>1385.1</ele>
        <time>2019-12-30T13:50:20Z</time>
      </trkpt>
      <trkpt lat="43.79963" lon="7.05996">
        <ele>1385.1</ele>
        <time>2019-12-30T13:50:21Z</time>
      </trkpt>
      <trkpt lat="43.79963" lon="7.05996">
        <ele>1385.1</ele>
        <time>2019-12-30T13:50:22Z</time>
      </trkpt>
      <trkpt lat="43.79963" lon="7.05996">
        <ele>1385.1</ele>
        <time>2019-12-30T13:50:23Z</time>
      </trkpt>
      <trkpt lat="43.79963" lon="7.05996">
        <ele>1385.1</ele>
        <time>2019-12-30T13:50:24Z</time>
      </trkpt>
      <trkpt lat="43.79963" lon="7.05996">
        <ele>1385.1</ele>
        <time>2019-12-30T13:50:25Z</time>
      </trkpt>
      <trkpt lat="43.79963" lon="7.05996">
        <ele>1385.1</ele>
        <time>2019-12-30T13:50:26Z</time>
      </trkpt>
      <trkpt lat="43.79963" lon="7.05996">
        <ele>1385.1</ele>
        <time>2019-12-30T13:50:27Z</time>
      </trkpt>
      <trkpt lat="43.79963" lon="7.05996">
        <ele>1385.1</ele>
        <time>2019-12-30T13:50:28Z</time>
      </trkpt>
      <trkpt lat="43.79963" lon="7.05996">
        <ele>1385.1</ele>
        <time>2019-12-30T13:50:29Z</time>
      </trkpt>
      <trkpt lat="43.79963" lon="7.05996">
        <ele>1385.1</ele>
        <time>2019-12-30T13:50:30Z</time>
      </trkpt>
      <trkpt lat="43.79963" lon="7.05996">
        <ele>1385.1</ele>
        <time>2019-12-30T13:50:31Z</time>
      </trkpt>
      <trkpt lat="43.79963" lon="7.05996">
        <ele>1385.1</ele>
        <time>2019-12-30T13:50:32Z</time>
      </trkpt>
      <trkpt lat="43.79963" lon="7.05996">
        <ele>1385.1</ele>
        <time>2019-12-30T13:50:33Z</time>
      </trkpt>
      <trkpt lat="43.79963" lon="7.05996">
        <ele>1385.1</ele>
        <time>2019-12-30T13:50:34Z</time>
      </trkpt>
      <trkpt lat="43.79963" lon="7.05996">
        <ele>1385.1</ele>
        <time>2019-12-30T13:50:35Z</time>
      </trkpt>
      <trkpt lat="43.79963" lon="7.05996">
        <ele>1385.1</ele>
        <time>2019-12-30T13:50:36Z</time>
      </trkpt>
      <trkpt lat="43.79963" lon="7.05996">
        <ele>1385.1</ele>
        <time>2019-12-30T13:50:37Z</time>
      </trkpt>
      <trkpt lat="43.79963" lon="7.05996">
        <ele>1385.1</ele>
        <time>2019-12-30T13:50:38Z</time>
      </trkpt>
      <trkpt lat="43.79963" lon="7.05996">
        <ele>1385.1</ele>
        <time>2019-12-30T13:50:39Z</time>
      </trkpt>
      <trkpt lat="43.79963" lon="7.05996">
        <ele>1385.1</ele>
        <time>2019-12-30T13:50:40Z</time>
      </trkpt>
      <trkpt lat="43.79963" lon="7.05996">
        <ele>1385.1</ele>
        <time>2019-12-30T13:50:41Z</time>
      </trkpt>
      <trkpt lat="43.79963" lon="7.05996">
        <ele>1385.1</ele>
        <time>2019-12-30T13:50:42Z</time>
      </trkpt>
      <trkpt lat="43.79963" lon="7.05996">
        <ele>1385.1</ele>
        <time>2019-12-30T13:50:43Z</time>
      </trkpt>
      <trkpt lat="43.79963" lon="7.05996">
        <ele>1385.1</ele>
        <time>2019-12-30T13:50:44Z</time>
      </trkpt>
      <trkpt lat="43.79963" lon="7.05996">
        <ele>1385.1</ele>
        <time>2019-12-30T13:50:45Z</time>
      </trkpt>
      <trkpt lat="43.79963" lon="7.05996">
        <ele>1385.1</ele>
        <time>2019-12-30T13:50:46Z</time>
      </trkpt>
      <trkpt lat="43.79963" lon="7.05996">
        <ele>1385.1</ele>
        <time>2019-12-30T13:50:47Z</time>
      </trkpt>
      <trkpt lat="43.79963" lon="7.05996">
        <ele>1385.1</ele>
        <time>2019-12-30T13:50:48Z</time>
      </trkpt>
      <trkpt lat="43.79963" lon="7.05996">
        <ele>1385.1</ele>
        <time>2019-12-30T13:50:49Z</time>
      </trkpt>
      <trkpt lat="43.79963" lon="7.05996">
        <ele>1385.1</ele>
        <time>2019-12-30T13:50:50Z</time>
      </trkpt>
      <trkpt lat="43.79963" lon="7.05996">
        <ele>1385.1</ele>
        <time>2019-12-30T13:50:51Z</time>
      </trkpt>
      <trkpt lat="43.79963" lon="7.05996">
        <ele>1385.1</ele>
        <time>2019-12-30T13:50:52Z</time>
      </trkpt>
      <trkpt lat="43.79963" lon="7.05996">
        <ele>1385.1</ele>
        <time>2019-12-30T13:50:53Z</time>
      </trkpt>
      <trkpt lat="43.79963" lon="7.05996">
        <ele>1385.1</ele>
        <time>2019-12-30T13:50:54Z</time>
      </trkpt>
      <trkpt lat="43.79963" lon="7.05996">
        <ele>1385.1</ele>
        <time>2019-12-30T13:50:55Z</time>
      </trkpt>
      <trkpt lat="43.79963" lon="7.05996">
        <ele>1385.1</ele>
        <time>2019-12-30T13:50:56Z</time>
      </trkpt>
      <trkpt lat="43.79963" lon="7.05996">
        <ele>1385.1</ele>
        <time>2019-12-30T13:50:57Z</time>
      </trkpt>
      <trkpt lat="43.79963" lon="7.05996">
        <ele>1385.1</ele>
        <time>2019-12-30T13:50:58Z</time>
      </trkpt>
      <trkpt lat="43.79963" lon="7.05996">
        <ele>1385.1</ele>
        <time>2019-12-30T13:50:59Z</time>
      </trkpt>
      <trkpt lat="43.79963" lon="7.05996">
        <ele>1385.1</ele>
        <time>2019-12-30T13:51:00Z</time>
      </trkpt>
      <trkpt lat="43.79963" lon="7.05996">
        <ele>1385.1</ele>
        <time>2019-12-30T13:51:01Z</time>
      </trkpt>
      <trkpt lat="43.79963" lon="7.05996">
        <ele>1385.1</ele>
        <time>2019-12-30T13:51:02Z</time>
      </trkpt>
      <trkpt lat="43.79963" lon="7.05996">
        <ele>1385.1</ele>
        <time>2019-12-30T13:51:03Z</time>
      </trkpt>
      <trkpt lat="43.79963" lon="7.05996">
        <ele>1385.1</ele>
        <time>2019-12-30T13:51:04Z</time>
      </trkpt>
      <trkpt lat="43.79963" lon="7.05996">
        <ele>1385.1</ele>
        <time>2019-12-30T13:51:05Z</time>
      </trkpt>
      <trkpt lat="43.79963" lon="7.05996">
        <ele>1385.1</ele>
        <time>2019-12-30T13:51:06Z</time>
      </trkpt>
      <trkpt lat="43.79963" lon="7.05996">
        <ele>1385.1</ele>
        <time>2019-12-30T13:51:07Z</time>
      </trkpt>
      <trkpt lat="43.79963" lon="7.05996">
        <ele>1385.1</ele>
        <time>2019-12-30T13:51:08Z</time>
      </trkpt>
      <trkpt lat="43.79963" lon="7.05996">
        <ele>1385.1</ele>
        <time>2019-12-30T13:51:09Z</time>
      </trkpt>
      <trkpt lat="43.79963" lon="7.05996">
        <ele>1385.1</ele>
        <time>2019-12-30T13:51:10Z</time>
      </trkpt>
      <trkpt lat="43.79963" lon="7.05996">
        <ele>1385.1</ele>
        <time>2019-12-30T13:51:11Z</time>
      </trkpt>
      <trkpt lat="43.79963" lon="7.05996">
        <ele>1385.1</ele>
        <time>2019-12-30T13:51:12Z</time>
      </trkpt>
      <trkpt lat="43.79963" lon="7.05996">
        <ele>1385.1</ele>
        <time>2019-12-30T13:51:13Z</time>
      </trkpt>
      <trkpt lat="43.79963" lon="7.05996">
        <ele>1385.1</ele>
        <time>2019-12-30T13:51:14Z</time>
      </trkpt>
      <trkpt lat="43.79963" lon="7.05996">
        <ele>1385.1</ele>
        <time>2019-12-30T13:51:15Z</time>
      </trkpt>
      <trkpt lat="43.79963" lon="7.05996">
        <ele>1385.1</ele>
        <time>2019-12-30T13:51:16Z</time>
      </trkpt>
      <trkpt lat="43.79963" lon="7.05996">
        <ele>1385.1</ele>
        <time>2019-12-30T13:51:17Z</time>
      </trkpt>
      <trkpt lat="43.79963" lon="7.05996">
        <ele>1385.1</ele>
        <time>2019-12-30T13:51:18Z</time>
      </trkpt>
      <trkpt lat="43.79963" lon="7.05996">
        <ele>1385.1</ele>
        <time>2019-12-30T13:51:19Z</time>
      </trkpt>
      <trkpt lat="43.79963" lon="7.05996">
        <ele>1385.1</ele>
        <time>2019-12-30T13:51:20Z</time>
      </trkpt>
      <trkpt lat="43.79963" lon="7.05996">
        <ele>1385.1</ele>
        <time>2019-12-30T13:51:21Z</time>
      </trkpt>
      <trkpt lat="43.79963" lon="7.05996">
        <ele>1385.1</ele>
        <time>2019-12-30T13:51:22Z</time>
      </trkpt>
      <trkpt lat="43.79963" lon="7.05996">
        <ele>1385.1</ele>
        <time>2019-12-30T13:51:23Z</time>
      </trkpt>
      <trkpt lat="43.79963" lon="7.05996">
        <ele>1385.1</ele>
        <time>2019-12-30T13:51:24Z</time>
      </trkpt>
      <trkpt lat="43.79963" lon="7.05996">
        <ele>1385.1</ele>
        <time>2019-12-30T13:51:25Z</time>
      </trkpt>
      <trkpt lat="43.79963" lon="7.05996">
        <ele>1385.1</ele>
        <time>2019-12-30T13:51:26Z</time>
      </trkpt>
      <trkpt lat="43.79963" lon="7.05996">
        <ele>1385.1</ele>
        <time>2019-12-30T13:51:27Z</time>
      </trkpt>
      <trkpt lat="43.79963" lon="7.05996">
        <ele>1385.1</ele>
        <time>2019-12-30T13:51:28Z</time>
      </trkpt>
      <trkpt lat="43.79963" lon="7.05996">
        <ele>1385.1</ele>
        <time>2019-12-30T13:51:29Z</time>
      </trkpt>
      <trkpt lat="43.79963" lon="7.05996">
        <ele>1385.1</ele>
        <time>2019-12-30T13:51:30Z</time>
      </trkpt>
      <trkpt lat="43.79963" lon="7.05996">
        <ele>1385.1</ele>
        <time>2019-12-30T13:51:31Z</time>
      </trkpt>
      <trkpt lat="43.79963" lon="7.05996">
        <ele>1385.1</ele>
        <time>2019-12-30T13:51:32Z</time>
      </trkpt>
      <trkpt lat="43.79963" lon="7.05996">
        <ele>1385.1</ele>
        <time>2019-12-30T13:51:33Z</time>
      </trkpt>
      <trkpt lat="43.79963" lon="7.05996">
        <ele>1385.1</ele>
        <time>2019-12-30T13:51:34Z</time>
      </trkpt>
      <trkpt lat="43.79963" lon="7.05996">
        <ele>1385.1</ele>
        <time>2019-12-30T13:51:35Z</time>
      </trkpt>
      <trkpt lat="43.79964" lon="7.05996">
        <ele>1385.1</ele>
        <time>2019-12-30T13:51:36Z</time>
      </trkpt>
      <trkpt lat="43.79964" lon="7.05996">
        <ele>1385.1</ele>
        <time>2019-12-30T13:51:37Z</time>
      </trkpt>
      <trkpt lat="43.79964" lon="7.05996">
        <ele>1385.1</ele>
        <time>2019-12-30T13:51:38Z</time>
      </trkpt>
      <trkpt lat="43.79964" lon="7.05996">
        <ele>1385.1</ele>
        <time>2019-12-30T13:51:39Z</time>
      </trkpt>
      <trkpt lat="43.79964" lon="7.05996">
        <ele>1385.1</ele>
        <time>2019-12-30T13:51:40Z</time>
      </trkpt>
      <trkpt lat="43.79964" lon="7.05996">
        <ele>1385.1</ele>
        <time>2019-12-30T13:51:41Z</time>
      </trkpt>
      <trkpt lat="43.79964" lon="7.05996">
        <ele>1385.1</ele>
        <time>2019-12-30T13:51:42Z</time>
      </trkpt>
      <trkpt lat="43.79964" lon="7.05996">
        <ele>1385.1</ele>
        <time>2019-12-30T13:51:43Z</time>
      </trkpt>
      <trkpt lat="43.79964" lon="7.05996">
        <ele>1385.1</ele>
        <time>2019-12-30T13:51:44Z</time>
      </trkpt>
      <trkpt lat="43.79964" lon="7.05995">
        <ele>1385.1</ele>
        <time>2019-12-30T13:51:45Z</time>
      </trkpt>
      <trkpt lat="43.79964" lon="7.05995">
        <ele>1385.1</ele>
        <time>2019-12-30T13:51:46Z</time>
      </trkpt>
      <trkpt lat="43.79964" lon="7.05995">
        <ele>1385.1</ele>
        <time>2019-12-30T13:51:47Z</time>
      </trkpt>
      <trkpt lat="43.79964" lon="7.05995">
        <ele>1385.1</ele>
        <time>2019-12-30T13:51:48Z</time>
      </trkpt>
      <trkpt lat="43.79965" lon="7.05995">
        <ele>1385.1</ele>
        <time>2019-12-30T13:51:49Z</time>
      </trkpt>
      <trkpt lat="43.79965" lon="7.05995">
        <ele>1385.1</ele>
        <time>2019-12-30T13:51:50Z</time>
      </trkpt>
      <trkpt lat="43.79965" lon="7.05995">
        <ele>1385.1</ele>
        <time>2019-12-30T13:51:51Z</time>
      </trkpt>
      <trkpt lat="43.79965" lon="7.05995">
        <ele>1385.1</ele>
        <time>2019-12-30T13:51:52Z</time>
      </trkpt>
      <trkpt lat="43.79965" lon="7.05995">
        <ele>1385.1</ele>
        <time>2019-12-30T13:51:53Z</time>
      </trkpt>
      <trkpt lat="43.79965" lon="7.05995">
        <ele>1385.1</ele>
        <time>2019-12-30T13:51:54Z</time>
      </trkpt>
      <trkpt lat="43.79965" lon="7.05994">
        <ele>1385.1</ele>
        <time>2019-12-30T13:51:55Z</time>
      </trkpt>
      <trkpt lat="43.79965" lon="7.05994">
        <ele>1385.1</ele>
        <time>2019-12-30T13:51:56Z</time>
      </trkpt>
      <trkpt lat="43.79965" lon="7.05994">
        <ele>1385.1</ele>
        <time>2019-12-30T13:51:57Z</time>
      </trkpt>
      <trkpt lat="43.79965" lon="7.05994">
        <ele>1385.1</ele>
        <time>2019-12-30T13:51:58Z</time>
      </trkpt>
      <trkpt lat="43.79965" lon="7.05994">
        <ele>1385.1</ele>
        <time>2019-12-30T13:51:59Z</time>
      </trkpt>
      <trkpt lat="43.79965" lon="7.05994">
        <ele>1385.1</ele>
        <time>2019-12-30T13:52:00Z</time>
      </trkpt>
      <trkpt lat="43.79965" lon="7.05994">
        <ele>1385.1</ele>
        <time>2019-12-30T13:52:01Z</time>
      </trkpt>
      <trkpt lat="43.79965" lon="7.05994">
        <ele>1385.1</ele>
        <time>2019-12-30T13:52:02Z</time>
      </trkpt>
      <trkpt lat="43.79965" lon="7.05994">
        <ele>1385.1</ele>
        <time>2019-12-30T13:52:03Z</time>
      </trkpt>
      <trkpt lat="43.79965" lon="7.05994">
        <ele>1385.1</ele>
        <time>2019-12-30T13:52:04Z</time>
      </trkpt>
      <trkpt lat="43.79965" lon="7.05994">
        <ele>1385.1</ele>
        <time>2019-12-30T13:52:05Z</time>
      </trkpt>
      <trkpt lat="43.79965" lon="7.05994">
        <ele>1385.1</ele>
        <time>2019-12-30T13:52:06Z</time>
      </trkpt>
      <trkpt lat="43.79965" lon="7.05994">
        <ele>1385.1</ele>
        <time>2019-12-30T13:52:07Z</time>
      </trkpt>
      <trkpt lat="43.79965" lon="7.05994">
        <ele>1385.1</ele>
        <time>2019-12-30T13:52:08Z</time>
      </trkpt>
      <trkpt lat="43.79965" lon="7.05994">
        <ele>1385.1</ele>
        <time>2019-12-30T13:52:09Z</time>
      </trkpt>
      <trkpt lat="43.79965" lon="7.05994">
        <ele>1385.1</ele>
        <time>2019-12-30T13:52:10Z</time>
      </trkpt>
      <trkpt lat="43.79965" lon="7.05994">
        <ele>1385.1</ele>
        <time>2019-12-30T13:52:11Z</time>
      </trkpt>
      <trkpt lat="43.79965" lon="7.05994">
        <ele>1385.1</ele>
        <time>2019-12-30T13:52:12Z</time>
      </trkpt>
      <trkpt lat="43.79965" lon="7.05994">
        <ele>1385.1</ele>
        <time>2019-12-30T13:52:13Z</time>
      </trkpt>
      <trkpt lat="43.79964" lon="7.05994">
        <ele>1385.1</ele>
        <time>2019-12-30T13:52:14Z</time>
      </trkpt>
      <trkpt lat="43.79964" lon="7.05994">
        <ele>1385.1</ele>
        <time>2019-12-30T13:52:15Z</time>
      </trkpt>
      <trkpt lat="43.79964" lon="7.05994">
        <ele>1385.1</ele>
        <time>2019-12-30T13:52:16Z</time>
      </trkpt>
      <trkpt lat="43.79963" lon="7.05994">
        <ele>1385.1</ele>
        <time>2019-12-30T13:52:17Z</time>
      </trkpt>
      <trkpt lat="43.79963" lon="7.05994">
        <ele>1385.1</ele>
        <time>2019-12-30T13:52:18Z</time>
      </trkpt>
      <trkpt lat="43.79963" lon="7.05994">
        <ele>1385.1</ele>
        <time>2019-12-30T13:52:19Z</time>
      </trkpt>
      <trkpt lat="43.79963" lon="7.05994">
        <ele>1385.1</ele>
        <time>2019-12-30T13:52:20Z</time>
      </trkpt>
      <trkpt lat="43.79963" lon="7.05994">
        <ele>1385.1</ele>
        <time>2019-12-30T13:52:21Z</time>
      </trkpt>
      <trkpt lat="43.79963" lon="7.05994">
        <ele>1385.1</ele>
        <time>2019-12-30T13:52:22Z</time>
      </trkpt>
      <trkpt lat="43.79963" lon="7.05994">
        <ele>1385.1</ele>
        <time>2019-12-30T13:52:23Z</time>
      </trkpt>
      <trkpt lat="43.79963" lon="7.05994">
        <ele>1385.1</ele>
        <time>2019-12-30T13:52:24Z</time>
      </trkpt>
      <trkpt lat="43.79963" lon="7.05994">
        <ele>1385.1</ele>
        <time>2019-12-30T13:52:25Z</time>
      </trkpt>
      <trkpt lat="43.79963" lon="7.05994">
        <ele>1385.1</ele>
        <time>2019-12-30T13:52:26Z</time>
      </trkpt>
      <trkpt lat="43.79963" lon="7.05994">
        <ele>1385.1</ele>
        <time>2019-12-30T13:52:27Z</time>
      </trkpt>
      <trkpt lat="43.79963" lon="7.05994">
        <ele>1385.1</ele>
        <time>2019-12-30T13:52:28Z</time>
      </trkpt>
      <trkpt lat="43.79963" lon="7.05994">
        <ele>1385.1</ele>
        <time>2019-12-30T13:52:29Z</time>
      </trkpt>
      <trkpt lat="43.79963" lon="7.05994">
        <ele>1385.1</ele>
        <time>2019-12-30T13:52:30Z</time>
      </trkpt>
      <trkpt lat="43.79963" lon="7.05995">
        <ele>1385.1</ele>
        <time>2019-12-30T13:52:31Z</time>
      </trkpt>
      <trkpt lat="43.79963" lon="7.05995">
        <ele>1385.1</ele>
        <time>2019-12-30T13:52:32Z</time>
      </trkpt>
      <trkpt lat="43.79963" lon="7.05995">
        <ele>1385.1</ele>
        <time>2019-12-30T13:52:33Z</time>
      </trkpt>
      <trkpt lat="43.79963" lon="7.05995">
        <ele>1385.1</ele>
        <time>2019-12-30T13:52:34Z</time>
      </trkpt>
      <trkpt lat="43.79963" lon="7.05995">
        <ele>1385.1</ele>
        <time>2019-12-30T13:52:35Z</time>
      </trkpt>
      <trkpt lat="43.79963" lon="7.05995">
        <ele>1385.1</ele>
        <time>2019-12-30T13:52:36Z</time>
      </trkpt>
      <trkpt lat="43.79963" lon="7.05995">
        <ele>1385.1</ele>
        <time>2019-12-30T13:52:37Z</time>
      </trkpt>
      <trkpt lat="43.79964" lon="7.05995">
        <ele>1385.1</ele>
        <time>2019-12-30T13:52:38Z</time>
      </trkpt>
      <trkpt lat="43.79964" lon="7.05995">
        <ele>1385.1</ele>
        <time>2019-12-30T13:52:39Z</time>
      </trkpt>
      <trkpt lat="43.79964" lon="7.05995">
        <ele>1385.1</ele>
        <time>2019-12-30T13:52:40Z</time>
      </trkpt>
      <trkpt lat="43.79964" lon="7.05995">
        <ele>1385.1</ele>
        <time>2019-12-30T13:52:41Z</time>
      </trkpt>
      <trkpt lat="43.79964" lon="7.05995">
        <ele>1385.1</ele>
        <time>2019-12-30T13:52:42Z</time>
      </trkpt>
      <trkpt lat="43.79964" lon="7.05995">
        <ele>1385.1</ele>
        <time>2019-12-30T13:52:43Z</time>
      </trkpt>
      <trkpt lat="43.79964" lon="7.05995">
        <ele>1385.1</ele>
        <time>2019-12-30T13:52:44Z</time>
      </trkpt>
      <trkpt lat="43.79964" lon="7.05995">
        <ele>1385.1</ele>
        <time>2019-12-30T13:52:45Z</time>
      </trkpt>
      <trkpt lat="43.79965" lon="7.05995">
        <ele>1385.1</ele>
        <time>2019-12-30T13:52:46Z</time>
      </trkpt>
      <trkpt lat="43.79965" lon="7.05995">
        <ele>1385.2</ele>
        <time>2019-12-30T13:52:47Z</time>
      </trkpt>
      <trkpt lat="43.79966" lon="7.05995">
        <ele>1385.2</ele>
        <time>2019-12-30T13:52:48Z</time>
      </trkpt>
      <trkpt lat="43.79966" lon="7.05995">
        <ele>1385.2</ele>
        <time>2019-12-30T13:52:49Z</time>
      </trkpt>
      <trkpt lat="43.79966" lon="7.05995">
        <ele>1385.2</ele>
        <time>2019-12-30T13:52:50Z</time>
      </trkpt>
      <trkpt lat="43.79966" lon="7.05995">
        <ele>1385.2</ele>
        <time>2019-12-30T13:52:51Z</time>
      </trkpt>
      <trkpt lat="43.79966" lon="7.05995">
        <ele>1385.2</ele>
        <time>2019-12-30T13:52:52Z</time>
      </trkpt>
      <trkpt lat="43.79966" lon="7.05995">
        <ele>1385.2</ele>
        <time>2019-12-30T13:52:53Z</time>
      </trkpt>
      <trkpt lat="43.79966" lon="7.05995">
        <ele>1385.2</ele>
        <time>2019-12-30T13:52:54Z</time>
      </trkpt>
      <trkpt lat="43.79966" lon="7.05995">
        <ele>1385.2</ele>
        <time>2019-12-30T13:52:55Z</time>
      </trkpt>
      <trkpt lat="43.79966" lon="7.05995">
        <ele>1385.2</ele>
        <time>2019-12-30T13:52:56Z</time>
      </trkpt>
      <trkpt lat="43.79966" lon="7.05995">
        <ele>1385.2</ele>
        <time>2019-12-30T13:52:57Z</time>
      </trkpt>
      <trkpt lat="43.79966" lon="7.05995">
        <ele>1385.2</ele>
        <time>2019-12-30T13:52:58Z</time>
      </trkpt>
      <trkpt lat="43.79966" lon="7.05995">
        <ele>1385.2</ele>
        <time>2019-12-30T13:52:59Z</time>
      </trkpt>
      <trkpt lat="43.79966" lon="7.05995">
        <ele>1385.2</ele>
        <time>2019-12-30T13:53:00Z</time>
      </trkpt>
      <trkpt lat="43.79966" lon="7.05995">
        <ele>1385.2</ele>
        <time>2019-12-30T13:53:01Z</time>
      </trkpt>
      <trkpt lat="43.79966" lon="7.05995">
        <ele>1385.2</ele>
        <time>2019-12-30T13:53:02Z</time>
      </trkpt>
      <trkpt lat="43.79966" lon="7.05995">
        <ele>1385.2</ele>
        <time>2019-12-30T13:53:03Z</time>
      </trkpt>
      <trkpt lat="43.79966" lon="7.05995">
        <ele>1385.2</ele>
        <time>2019-12-30T13:53:04Z</time>
      </trkpt>
      <trkpt lat="43.79966" lon="7.05995">
        <ele>1385.2</ele>
        <time>2019-12-30T13:53:05Z</time>
      </trkpt>
      <trkpt lat="43.79966" lon="7.05995">
        <ele>1385.2</ele>
        <time>2019-12-30T13:53:06Z</time>
      </trkpt>
      <trkpt lat="43.79966" lon="7.05995">
        <ele>1385.2</ele>
        <time>2019-12-30T13:53:07Z</time>
      </trkpt>
      <trkpt lat="43.79966" lon="7.05995">
        <ele>1385.2</ele>
        <time>2019-12-30T13:53:08Z</time>
      </trkpt>
      <trkpt lat="43.79966" lon="7.05995">
        <ele>1385.2</ele>
        <time>2019-12-30T13:53:09Z</time>
      </trkpt>
      <trkpt lat="43.79966" lon="7.05995">
        <ele>1385.2</ele>
        <time>2019-12-30T13:53:10Z</time>
      </trkpt>
      <trkpt lat="43.79966" lon="7.05995">
        <ele>1385.2</ele>
        <time>2019-12-30T13:53:11Z</time>
      </trkpt>
      <trkpt lat="43.79966" lon="7.05995">
        <ele>1385.2</ele>
        <time>2019-12-30T13:53:12Z</time>
      </trkpt>
      <trkpt lat="43.79966" lon="7.05995">
        <ele>1385.2</ele>
        <time>2019-12-30T13:53:13Z</time>
      </trkpt>
      <trkpt lat="43.79966" lon="7.05995">
        <ele>1385.2</ele>
        <time>2019-12-30T13:53:14Z</time>
      </trkpt>
      <trkpt lat="43.79966" lon="7.05995">
        <ele>1385.2</ele>
        <time>2019-12-30T13:53:15Z</time>
      </trkpt>
      <trkpt lat="43.79966" lon="7.05995">
        <ele>1385.2</ele>
        <time>2019-12-30T13:53:16Z</time>
      </trkpt>
      <trkpt lat="43.79966" lon="7.05995">
        <ele>1385.2</ele>
        <time>2019-12-30T13:53:17Z</time>
      </trkpt>
      <trkpt lat="43.79966" lon="7.05995">
        <ele>1385.2</ele>
        <time>2019-12-30T13:53:18Z</time>
      </trkpt>
      <trkpt lat="43.79966" lon="7.05995">
        <ele>1385.2</ele>
        <time>2019-12-30T13:53:19Z</time>
      </trkpt>
      <trkpt lat="43.79966" lon="7.05995">
        <ele>1385.2</ele>
        <time>2019-12-30T13:53:20Z</time>
      </trkpt>
      <trkpt lat="43.79966" lon="7.05995">
        <ele>1385.2</ele>
        <time>2019-12-30T13:53:21Z</time>
      </trkpt>
      <trkpt lat="43.79966" lon="7.05995">
        <ele>1385.2</ele>
        <time>2019-12-30T13:53:22Z</time>
      </trkpt>
      <trkpt lat="43.79966" lon="7.05995">
        <ele>1385.2</ele>
        <time>2019-12-30T13:53:23Z</time>
      </trkpt>
      <trkpt lat="43.79966" lon="7.05995">
        <ele>1385.2</ele>
        <time>2019-12-30T13:53:24Z</time>
      </trkpt>
      <trkpt lat="43.79966" lon="7.05995">
        <ele>1385.2</ele>
        <time>2019-12-30T13:53:25Z</time>
      </trkpt>
      <trkpt lat="43.79966" lon="7.05995">
        <ele>1385.2</ele>
        <time>2019-12-30T13:53:26Z</time>
      </trkpt>
      <trkpt lat="43.79966" lon="7.05995">
        <ele>1385.2</ele>
        <time>2019-12-30T13:53:27Z</time>
      </trkpt>
      <trkpt lat="43.79966" lon="7.05995">
        <ele>1385.2</ele>
        <time>2019-12-30T13:53:28Z</time>
      </trkpt>
      <trkpt lat="43.79966" lon="7.05995">
        <ele>1385.2</ele>
        <time>2019-12-30T13:53:29Z</time>
      </trkpt>
      <trkpt lat="43.79966" lon="7.05995">
        <ele>1385.2</ele>
        <time>2019-12-30T13:53:30Z</time>
      </trkpt>
      <trkpt lat="43.79966" lon="7.05995">
        <ele>1385.2</ele>
        <time>2019-12-30T13:53:31Z</time>
      </trkpt>
      <trkpt lat="43.79966" lon="7.05995">
        <ele>1385.2</ele>
        <time>2019-12-30T13:53:32Z</time>
      </trkpt>
      <trkpt lat="43.79966" lon="7.05995">
        <ele>1385.2</ele>
        <time>2019-12-30T13:53:33Z</time>
      </trkpt>
      <trkpt lat="43.79966" lon="7.05995">
        <ele>1385.2</ele>
        <time>2019-12-30T13:53:34Z</time>
      </trkpt>
      <trkpt lat="43.79966" lon="7.05995">
        <ele>1385.2</ele>
        <time>2019-12-30T13:53:35Z</time>
      </trkpt>
      <trkpt lat="43.79966" lon="7.05995">
        <ele>1385.2</ele>
        <time>2019-12-30T13:53:36Z</time>
      </trkpt>
      <trkpt lat="43.79966" lon="7.05995">
        <ele>1385.2</ele>
        <time>2019-12-30T13:53:37Z</time>
      </trkpt>
      <trkpt lat="43.79966" lon="7.05995">
        <ele>1385.2</ele>
        <time>2019-12-30T13:53:38Z</time>
      </trkpt>
      <trkpt lat="43.79966" lon="7.05995">
        <ele>1385.2</ele>
        <time>2019-12-30T13:53:39Z</time>
      </trkpt>
      <trkpt lat="43.79966" lon="7.05995">
        <ele>1385.2</ele>
        <time>2019-12-30T13:53:40Z</time>
      </trkpt>
      <trkpt lat="43.79966" lon="7.05995">
        <ele>1385.2</ele>
        <time>2019-12-30T13:53:41Z</time>
      </trkpt>
      <trkpt lat="43.79966" lon="7.05995">
        <ele>1385.2</ele>
        <time>2019-12-30T13:53:42Z</time>
      </trkpt>
      <trkpt lat="43.79966" lon="7.05995">
        <ele>1385.2</ele>
        <time>2019-12-30T13:53:43Z</time>
      </trkpt>
      <trkpt lat="43.79966" lon="7.05995">
        <ele>1385.2</ele>
        <time>2019-12-30T13:53:44Z</time>
      </trkpt>
      <trkpt lat="43.79966" lon="7.05995">
        <ele>1385.2</ele>
        <time>2019-12-30T13:53:45Z</time>
      </trkpt>
      <trkpt lat="43.79966" lon="7.05995">
        <ele>1385.2</ele>
        <time>2019-12-30T13:53:46Z</time>
      </trkpt>
      <trkpt lat="43.79966" lon="7.05995">
        <ele>1385.2</ele>
        <time>2019-12-30T13:53:47Z</time>
      </trkpt>
      <trkpt lat="43.79966" lon="7.05995">
        <ele>1385.2</ele>
        <time>2019-12-30T13:53:48Z</time>
      </trkpt>
      <trkpt lat="43.79966" lon="7.05995">
        <ele>1385.2</ele>
        <time>2019-12-30T13:53:49Z</time>
      </trkpt>
      <trkpt lat="43.79966" lon="7.05995">
        <ele>1385.2</ele>
        <time>2019-12-30T13:53:50Z</time>
      </trkpt>
      <trkpt lat="43.79966" lon="7.05995">
        <ele>1385.2</ele>
        <time>2019-12-30T13:53:51Z</time>
      </trkpt>
      <trkpt lat="43.79966" lon="7.05995">
        <ele>1385.2</ele>
        <time>2019-12-30T13:53:52Z</time>
      </trkpt>
      <trkpt lat="43.79966" lon="7.05995">
        <ele>1385.2</ele>
        <time>2019-12-30T13:53:53Z</time>
      </trkpt>
      <trkpt lat="43.79966" lon="7.05995">
        <ele>1385.2</ele>
        <time>2019-12-30T13:53:54Z</time>
      </trkpt>
      <trkpt lat="43.79966" lon="7.05995">
        <ele>1385.2</ele>
        <time>2019-12-30T13:53:55Z</time>
      </trkpt>
      <trkpt lat="43.79966" lon="7.05995">
        <ele>1385.2</ele>
        <time>2019-12-30T13:53:56Z</time>
      </trkpt>
      <trkpt lat="43.79966" lon="7.05995">
        <ele>1385.2</ele>
        <time>2019-12-30T13:53:57Z</time>
      </trkpt>
      <trkpt lat="43.79966" lon="7.05995">
        <ele>1385.2</ele>
        <time>2019-12-30T13:53:58Z</time>
      </trkpt>
      <trkpt lat="43.79966" lon="7.05995">
        <ele>1385.2</ele>
        <time>2019-12-30T13:53:59Z</time>
      </trkpt>
      <trkpt lat="43.79966" lon="7.05995">
        <ele>1385.2</ele>
        <time>2019-12-30T13:54:00Z</time>
      </trkpt>
      <trkpt lat="43.79966" lon="7.05995">
        <ele>1385.2</ele>
        <time>2019-12-30T13:54:01Z</time>
      </trkpt>
      <trkpt lat="43.79966" lon="7.05995">
        <ele>1385.2</ele>
        <time>2019-12-30T13:54:02Z</time>
      </trkpt>
      <trkpt lat="43.79966" lon="7.05995">
        <ele>1385.2</ele>
        <time>2019-12-30T13:54:03Z</time>
      </trkpt>
      <trkpt lat="43.79966" lon="7.05995">
        <ele>1385.2</ele>
        <time>2019-12-30T13:54:04Z</time>
      </trkpt>
      <trkpt lat="43.79966" lon="7.05995">
        <ele>1385.2</ele>
        <time>2019-12-30T13:54:05Z</time>
      </trkpt>
      <trkpt lat="43.79966" lon="7.05995">
        <ele>1385.2</ele>
        <time>2019-12-30T13:54:06Z</time>
      </trkpt>
      <trkpt lat="43.79966" lon="7.05995">
        <ele>1385.2</ele>
        <time>2019-12-30T13:54:07Z</time>
      </trkpt>
      <trkpt lat="43.79966" lon="7.05995">
        <ele>1385.2</ele>
        <time>2019-12-30T13:54:08Z</time>
      </trkpt>
      <trkpt lat="43.79966" lon="7.05995">
        <ele>1385.2</ele>
        <time>2019-12-30T13:54:09Z</time>
      </trkpt>
      <trkpt lat="43.79966" lon="7.05995">
        <ele>1385.2</ele>
        <time>2019-12-30T13:54:10Z</time>
      </trkpt>
      <trkpt lat="43.79966" lon="7.05995">
        <ele>1385.2</ele>
        <time>2019-12-30T13:54:11Z</time>
      </trkpt>
      <trkpt lat="43.79966" lon="7.05995">
        <ele>1385.2</ele>
        <time>2019-12-30T13:54:12Z</time>
      </trkpt>
      <trkpt lat="43.79966" lon="7.05995">
        <ele>1385.2</ele>
        <time>2019-12-30T13:54:13Z</time>
      </trkpt>
      <trkpt lat="43.79966" lon="7.05995">
        <ele>1385.2</ele>
        <time>2019-12-30T13:54:14Z</time>
      </trkpt>
      <trkpt lat="43.79966" lon="7.05995">
        <ele>1385.2</ele>
        <time>2019-12-30T13:54:15Z</time>
      </trkpt>
      <trkpt lat="43.79966" lon="7.05995">
        <ele>1385.2</ele>
        <time>2019-12-30T13:54:16Z</time>
      </trkpt>
      <trkpt lat="43.79966" lon="7.05995">
        <ele>1385.2</ele>
        <time>2019-12-30T13:54:17Z</time>
      </trkpt>
      <trkpt lat="43.79966" lon="7.05995">
        <ele>1385.2</ele>
        <time>2019-12-30T13:54:18Z</time>
      </trkpt>
      <trkpt lat="43.79966" lon="7.05995">
        <ele>1385.2</ele>
        <time>2019-12-30T13:54:19Z</time>
      </trkpt>
      <trkpt lat="43.79966" lon="7.05995">
        <ele>1385.2</ele>
        <time>2019-12-30T13:54:20Z</time>
      </trkpt>
      <trkpt lat="43.79966" lon="7.05995">
        <ele>1385.2</ele>
        <time>2019-12-30T13:54:21Z</time>
      </trkpt>
      <trkpt lat="43.79966" lon="7.05995">
        <ele>1385.2</ele>
        <time>2019-12-30T13:54:22Z</time>
      </trkpt>
      <trkpt lat="43.79966" lon="7.05995">
        <ele>1385.2</ele>
        <time>2019-12-30T13:54:23Z</time>
      </trkpt>
      <trkpt lat="43.79966" lon="7.05995">
        <ele>1385.2</ele>
        <time>2019-12-30T13:54:24Z</time>
      </trkpt>
      <trkpt lat="43.79966" lon="7.05995">
        <ele>1385.2</ele>
        <time>2019-12-30T13:54:25Z</time>
      </trkpt>
      <trkpt lat="43.79966" lon="7.05995">
        <ele>1385.2</ele>
        <time>2019-12-30T13:54:26Z</time>
      </trkpt>
      <trkpt lat="43.79966" lon="7.05995">
        <ele>1385.2</ele>
        <time>2019-12-30T13:54:27Z</time>
      </trkpt>
      <trkpt lat="43.79966" lon="7.05995">
        <ele>1385.2</ele>
        <time>2019-12-30T13:54:28Z</time>
      </trkpt>
      <trkpt lat="43.79966" lon="7.05995">
        <ele>1385.2</ele>
        <time>2019-12-30T13:54:29Z</time>
      </trkpt>
      <trkpt lat="43.79966" lon="7.05995">
        <ele>1385.2</ele>
        <time>2019-12-30T13:54:30Z</time>
      </trkpt>
      <trkpt lat="43.79966" lon="7.05995">
        <ele>1385.2</ele>
        <time>2019-12-30T13:54:31Z</time>
      </trkpt>
      <trkpt lat="43.79966" lon="7.05995">
        <ele>1385.2</ele>
        <time>2019-12-30T13:54:32Z</time>
      </trkpt>
      <trkpt lat="43.79966" lon="7.05995">
        <ele>1385.2</ele>
        <time>2019-12-30T13:54:33Z</time>
      </trkpt>
      <trkpt lat="43.79966" lon="7.05995">
        <ele>1385.2</ele>
        <time>2019-12-30T13:54:34Z</time>
      </trkpt>
      <trkpt lat="43.79966" lon="7.05995">
        <ele>1385.2</ele>
        <time>2019-12-30T13:54:35Z</time>
      </trkpt>
      <trkpt lat="43.79966" lon="7.05995">
        <ele>1385.2</ele>
        <time>2019-12-30T13:54:36Z</time>
      </trkpt>
      <trkpt lat="43.79966" lon="7.05995">
        <ele>1385.2</ele>
        <time>2019-12-30T13:54:37Z</time>
      </trkpt>
      <trkpt lat="43.79966" lon="7.05995">
        <ele>1385.2</ele>
        <time>2019-12-30T13:54:38Z</time>
      </trkpt>
      <trkpt lat="43.79966" lon="7.05995">
        <ele>1385.2</ele>
        <time>2019-12-30T13:54:39Z</time>
      </trkpt>
      <trkpt lat="43.79966" lon="7.05995">
        <ele>1385.2</ele>
        <time>2019-12-30T13:54:40Z</time>
      </trkpt>
      <trkpt lat="43.79966" lon="7.05995">
        <ele>1385.2</ele>
        <time>2019-12-30T13:54:41Z</time>
      </trkpt>
      <trkpt lat="43.79966" lon="7.05995">
        <ele>1385.2</ele>
        <time>2019-12-30T13:54:42Z</time>
      </trkpt>
      <trkpt lat="43.79966" lon="7.05995">
        <ele>1385.2</ele>
        <time>2019-12-30T13:54:43Z</time>
      </trkpt>
      <trkpt lat="43.79966" lon="7.05995">
        <ele>1385.2</ele>
        <time>2019-12-30T13:54:44Z</time>
      </trkpt>
      <trkpt lat="43.79966" lon="7.05995">
        <ele>1385.2</ele>
        <time>2019-12-30T13:54:45Z</time>
      </trkpt>
      <trkpt lat="43.79966" lon="7.05995">
        <ele>1385.2</ele>
        <time>2019-12-30T13:54:46Z</time>
      </trkpt>
      <trkpt lat="43.79966" lon="7.05995">
        <ele>1385.2</ele>
        <time>2019-12-30T13:54:47Z</time>
      </trkpt>
      <trkpt lat="43.79966" lon="7.05995">
        <ele>1385.2</ele>
        <time>2019-12-30T13:54:48Z</time>
      </trkpt>
      <trkpt lat="43.79966" lon="7.05995">
        <ele>1385.2</ele>
        <time>2019-12-30T13:54:49Z</time>
      </trkpt>
      <trkpt lat="43.79966" lon="7.05995">
        <ele>1385.2</ele>
        <time>2019-12-30T13:54:50Z</time>
      </trkpt>
      <trkpt lat="43.79966" lon="7.05995">
        <ele>1385.2</ele>
        <time>2019-12-30T13:54:51Z</time>
      </trkpt>
      <trkpt lat="43.79966" lon="7.05995">
        <ele>1385.2</ele>
        <time>2019-12-30T13:54:52Z</time>
      </trkpt>
      <trkpt lat="43.79966" lon="7.05995">
        <ele>1385.2</ele>
        <time>2019-12-30T13:54:53Z</time>
      </trkpt>
      <trkpt lat="43.79966" lon="7.05995">
        <ele>1385.2</ele>
        <time>2019-12-30T13:54:54Z</time>
      </trkpt>
      <trkpt lat="43.79966" lon="7.05995">
        <ele>1385.2</ele>
        <time>2019-12-30T13:54:55Z</time>
      </trkpt>
      <trkpt lat="43.79966" lon="7.05995">
        <ele>1385.2</ele>
        <time>2019-12-30T13:54:56Z</time>
      </trkpt>
      <trkpt lat="43.79966" lon="7.05995">
        <ele>1385.2</ele>
        <time>2019-12-30T13:54:57Z</time>
      </trkpt>
      <trkpt lat="43.79966" lon="7.05995">
        <ele>1385.2</ele>
        <time>2019-12-30T13:54:58Z</time>
      </trkpt>
      <trkpt lat="43.79966" lon="7.05995">
        <ele>1385.2</ele>
        <time>2019-12-30T13:54:59Z</time>
      </trkpt>
      <trkpt lat="43.79966" lon="7.05995">
        <ele>1385.2</ele>
        <time>2019-12-30T13:55:00Z</time>
      </trkpt>
      <trkpt lat="43.79966" lon="7.05995">
        <ele>1385.2</ele>
        <time>2019-12-30T13:55:01Z</time>
      </trkpt>
      <trkpt lat="43.79966" lon="7.05995">
        <ele>1385.2</ele>
        <time>2019-12-30T13:55:02Z</time>
      </trkpt>
      <trkpt lat="43.79966" lon="7.05995">
        <ele>1385.2</ele>
        <time>2019-12-30T13:55:03Z</time>
      </trkpt>
      <trkpt lat="43.79966" lon="7.05995">
        <ele>1385.2</ele>
        <time>2019-12-30T13:55:04Z</time>
      </trkpt>
      <trkpt lat="43.79966" lon="7.05995">
        <ele>1385.2</ele>
        <time>2019-12-30T13:55:05Z</time>
      </trkpt>
      <trkpt lat="43.79966" lon="7.05995">
        <ele>1385.2</ele>
        <time>2019-12-30T13:55:06Z</time>
      </trkpt>
      <trkpt lat="43.79966" lon="7.05995">
        <ele>1385.2</ele>
        <time>2019-12-30T13:55:07Z</time>
      </trkpt>
      <trkpt lat="43.79966" lon="7.05995">
        <ele>1385.2</ele>
        <time>2019-12-30T13:55:08Z</time>
      </trkpt>
      <trkpt lat="43.79966" lon="7.05995">
        <ele>1385.2</ele>
        <time>2019-12-30T13:55:09Z</time>
      </trkpt>
      <trkpt lat="43.79966" lon="7.05995">
        <ele>1385.2</ele>
        <time>2019-12-30T13:55:10Z</time>
      </trkpt>
      <trkpt lat="43.79966" lon="7.05995">
        <ele>1385.2</ele>
        <time>2019-12-30T13:55:11Z</time>
      </trkpt>
      <trkpt lat="43.79966" lon="7.05995">
        <ele>1385.2</ele>
        <time>2019-12-30T13:55:12Z</time>
      </trkpt>
      <trkpt lat="43.79966" lon="7.05995">
        <ele>1385.2</ele>
        <time>2019-12-30T13:55:13Z</time>
      </trkpt>
      <trkpt lat="43.79966" lon="7.05995">
        <ele>1385.2</ele>
        <time>2019-12-30T13:55:14Z</time>
      </trkpt>
      <trkpt lat="43.79966" lon="7.05995">
        <ele>1385.2</ele>
        <time>2019-12-30T13:55:15Z</time>
      </trkpt>
      <trkpt lat="43.79966" lon="7.05995">
        <ele>1385.2</ele>
        <time>2019-12-30T13:55:16Z</time>
      </trkpt>
      <trkpt lat="43.79966" lon="7.05995">
        <ele>1385.2</ele>
        <time>2019-12-30T13:55:17Z</time>
      </trkpt>
      <trkpt lat="43.79966" lon="7.05995">
        <ele>1385.2</ele>
        <time>2019-12-30T13:55:18Z</time>
      </trkpt>
      <trkpt lat="43.79966" lon="7.05995">
        <ele>1385.2</ele>
        <time>2019-12-30T13:55:19Z</time>
      </trkpt>
      <trkpt lat="43.79966" lon="7.05995">
        <ele>1385.2</ele>
        <time>2019-12-30T13:55:20Z</time>
      </trkpt>
      <trkpt lat="43.79966" lon="7.05995">
        <ele>1385.2</ele>
        <time>2019-12-30T13:55:21Z</time>
      </trkpt>
      <trkpt lat="43.79966" lon="7.05995">
        <ele>1385.2</ele>
        <time>2019-12-30T13:55:22Z</time>
      </trkpt>
      <trkpt lat="43.79966" lon="7.05995">
        <ele>1385.2</ele>
        <time>2019-12-30T13:55:23Z</time>
      </trkpt>
      <trkpt lat="43.79966" lon="7.05995">
        <ele>1385.2</ele>
        <time>2019-12-30T13:55:24Z</time>
      </trkpt>
      <trkpt lat="43.79966" lon="7.05995">
        <ele>1385.2</ele>
        <time>2019-12-30T13:55:25Z</time>
      </trkpt>
      <trkpt lat="43.79966" lon="7.05995">
        <ele>1385.2</ele>
        <time>2019-12-30T13:55:26Z</time>
      </trkpt>
      <trkpt lat="43.79966" lon="7.05995">
        <ele>1385.2</ele>
        <time>2019-12-30T13:55:27Z</time>
      </trkpt>
      <trkpt lat="43.79966" lon="7.05995">
        <ele>1385.2</ele>
        <time>2019-12-30T13:55:28Z</time>
      </trkpt>
      <trkpt lat="43.79966" lon="7.05995">
        <ele>1385.2</ele>
        <time>2019-12-30T13:55:29Z</time>
      </trkpt>
      <trkpt lat="43.79966" lon="7.05995">
        <ele>1385.2</ele>
        <time>2019-12-30T13:55:30Z</time>
      </trkpt>
      <trkpt lat="43.79966" lon="7.05995">
        <ele>1385.2</ele>
        <time>2019-12-30T13:55:31Z</time>
      </trkpt>
      <trkpt lat="43.79966" lon="7.05995">
        <ele>1385.2</ele>
        <time>2019-12-30T13:55:32Z</time>
      </trkpt>
      <trkpt lat="43.79966" lon="7.05995">
        <ele>1385.2</ele>
        <time>2019-12-30T13:55:33Z</time>
      </trkpt>
      <trkpt lat="43.79966" lon="7.05995">
        <ele>1385.2</ele>
        <time>2019-12-30T13:55:34Z</time>
      </trkpt>
      <trkpt lat="43.79966" lon="7.05995">
        <ele>1385.2</ele>
        <time>2019-12-30T13:55:35Z</time>
      </trkpt>
      <trkpt lat="43.79966" lon="7.05995">
        <ele>1385.2</ele>
        <time>2019-12-30T13:55:36Z</time>
      </trkpt>
      <trkpt lat="43.79966" lon="7.05995">
        <ele>1385.2</ele>
        <time>2019-12-30T13:55:37Z</time>
      </trkpt>
      <trkpt lat="43.79966" lon="7.05995">
        <ele>1385.2</ele>
        <time>2019-12-30T13:55:38Z</time>
      </trkpt>
      <trkpt lat="43.79966" lon="7.05995">
        <ele>1385.2</ele>
        <time>2019-12-30T13:55:39Z</time>
      </trkpt>
      <trkpt lat="43.79966" lon="7.05995">
        <ele>1385.2</ele>
        <time>2019-12-30T13:55:40Z</time>
      </trkpt>
      <trkpt lat="43.79966" lon="7.05995">
        <ele>1385.2</ele>
        <time>2019-12-30T13:55:41Z</time>
      </trkpt>
      <trkpt lat="43.79966" lon="7.05995">
        <ele>1385.2</ele>
        <time>2019-12-30T13:55:42Z</time>
      </trkpt>
      <trkpt lat="43.79966" lon="7.05995">
        <ele>1385.2</ele>
        <time>2019-12-30T13:55:43Z</time>
      </trkpt>
      <trkpt lat="43.79966" lon="7.05995">
        <ele>1385.2</ele>
        <time>2019-12-30T13:55:44Z</time>
      </trkpt>
      <trkpt lat="43.79966" lon="7.05995">
        <ele>1385.2</ele>
        <time>2019-12-30T13:55:45Z</time>
      </trkpt>
      <trkpt lat="43.79966" lon="7.05995">
        <ele>1385.2</ele>
        <time>2019-12-30T13:55:46Z</time>
      </trkpt>
      <trkpt lat="43.79966" lon="7.05995">
        <ele>1385.2</ele>
        <time>2019-12-30T13:55:47Z</time>
      </trkpt>
      <trkpt lat="43.79966" lon="7.05995">
        <ele>1385.2</ele>
        <time>2019-12-30T13:55:48Z</time>
      </trkpt>
      <trkpt lat="43.79966" lon="7.05995">
        <ele>1385.2</ele>
        <time>2019-12-30T13:55:49Z</time>
      </trkpt>
      <trkpt lat="43.79966" lon="7.05995">
        <ele>1385.2</ele>
        <time>2019-12-30T13:55:50Z</time>
      </trkpt>
      <trkpt lat="43.79966" lon="7.05995">
        <ele>1385.2</ele>
        <time>2019-12-30T13:55:51Z</time>
      </trkpt>
      <trkpt lat="43.79966" lon="7.05995">
        <ele>1385.2</ele>
        <time>2019-12-30T13:55:52Z</time>
      </trkpt>
      <trkpt lat="43.79966" lon="7.05995">
        <ele>1385.2</ele>
        <time>2019-12-30T13:55:53Z</time>
      </trkpt>
      <trkpt lat="43.79966" lon="7.05995">
        <ele>1385.2</ele>
        <time>2019-12-30T13:55:54Z</time>
      </trkpt>
      <trkpt lat="43.79966" lon="7.05995">
        <ele>1385.2</ele>
        <time>2019-12-30T13:55:55Z</time>
      </trkpt>
      <trkpt lat="43.79966" lon="7.05995">
        <ele>1385.2</ele>
        <time>2019-12-30T13:55:56Z</time>
      </trkpt>
      <trkpt lat="43.79966" lon="7.05995">
        <ele>1385.2</ele>
        <time>2019-12-30T13:55:57Z</time>
      </trkpt>
      <trkpt lat="43.79966" lon="7.05995">
        <ele>1385.2</ele>
        <time>2019-12-30T13:55:58Z</time>
      </trkpt>
      <trkpt lat="43.79966" lon="7.05995">
        <ele>1385.2</ele>
        <time>2019-12-30T13:55:59Z</time>
      </trkpt>
      <trkpt lat="43.79966" lon="7.05995">
        <ele>1385.2</ele>
        <time>2019-12-30T13:56:00Z</time>
      </trkpt>
      <trkpt lat="43.79966" lon="7.05995">
        <ele>1385.2</ele>
        <time>2019-12-30T13:56:01Z</time>
      </trkpt>
      <trkpt lat="43.79966" lon="7.05995">
        <ele>1385.2</ele>
        <time>2019-12-30T13:56:02Z</time>
      </trkpt>
      <trkpt lat="43.79966" lon="7.05995">
        <ele>1385.2</ele>
        <time>2019-12-30T13:56:03Z</time>
      </trkpt>
      <trkpt lat="43.79966" lon="7.05995">
        <ele>1385.2</ele>
        <time>2019-12-30T13:56:04Z</time>
      </trkpt>
      <trkpt lat="43.79966" lon="7.05995">
        <ele>1385.2</ele>
        <time>2019-12-30T13:56:05Z</time>
      </trkpt>
      <trkpt lat="43.79966" lon="7.05995">
        <ele>1385.2</ele>
        <time>2019-12-30T13:56:06Z</time>
      </trkpt>
      <trkpt lat="43.79966" lon="7.05995">
        <ele>1385.2</ele>
        <time>2019-12-30T13:56:07Z</time>
      </trkpt>
      <trkpt lat="43.79966" lon="7.05995">
        <ele>1385.2</ele>
        <time>2019-12-30T13:56:08Z</time>
      </trkpt>
      <trkpt lat="43.79966" lon="7.05995">
        <ele>1385.2</ele>
        <time>2019-12-30T13:56:09Z</time>
      </trkpt>
      <trkpt lat="43.79966" lon="7.05995">
        <ele>1385.2</ele>
        <time>2019-12-30T13:56:10Z</time>
      </trkpt>
      <trkpt lat="43.79966" lon="7.05995">
        <ele>1385.2</ele>
        <time>2019-12-30T13:56:11Z</time>
      </trkpt>
      <trkpt lat="43.79966" lon="7.05995">
        <ele>1385.2</ele>
        <time>2019-12-30T13:56:12Z</time>
      </trkpt>
      <trkpt lat="43.79966" lon="7.05995">
        <ele>1385.2</ele>
        <time>2019-12-30T13:56:13Z</time>
      </trkpt>
      <trkpt lat="43.79966" lon="7.05995">
        <ele>1385.2</ele>
        <time>2019-12-30T13:56:14Z</time>
      </trkpt>
      <trkpt lat="43.79966" lon="7.05995">
        <ele>1385.2</ele>
        <time>2019-12-30T13:56:15Z</time>
      </trkpt>
      <trkpt lat="43.79966" lon="7.05995">
        <ele>1385.2</ele>
        <time>2019-12-30T13:56:16Z</time>
      </trkpt>
      <trkpt lat="43.79966" lon="7.05995">
        <ele>1385.2</ele>
        <time>2019-12-30T13:56:17Z</time>
      </trkpt>
      <trkpt lat="43.79966" lon="7.05995">
        <ele>1385.2</ele>
        <time>2019-12-30T13:56:18Z</time>
      </trkpt>
      <trkpt lat="43.79966" lon="7.05995">
        <ele>1385.2</ele>
        <time>2019-12-30T13:56:19Z</time>
      </trkpt>
      <trkpt lat="43.79966" lon="7.05995">
        <ele>1385.2</ele>
        <time>2019-12-30T13:56:20Z</time>
      </trkpt>
      <trkpt lat="43.79966" lon="7.05995">
        <ele>1385.2</ele>
        <time>2019-12-30T13:56:21Z</time>
      </trkpt>
      <trkpt lat="43.79966" lon="7.05995">
        <ele>1385.2</ele>
        <time>2019-12-30T13:56:22Z</time>
      </trkpt>
      <trkpt lat="43.79966" lon="7.05995">
        <ele>1385.2</ele>
        <time>2019-12-30T13:56:23Z</time>
      </trkpt>
      <trkpt lat="43.79966" lon="7.05995">
        <ele>1385.2</ele>
        <time>2019-12-30T13:56:24Z</time>
      </trkpt>
      <trkpt lat="43.79966" lon="7.05995">
        <ele>1385.2</ele>
        <time>2019-12-30T13:56:25Z</time>
      </trkpt>
      <trkpt lat="43.79966" lon="7.05995">
        <ele>1385.2</ele>
        <time>2019-12-30T13:56:26Z</time>
      </trkpt>
      <trkpt lat="43.79966" lon="7.05995">
        <ele>1385.2</ele>
        <time>2019-12-30T13:56:27Z</time>
      </trkpt>
      <trkpt lat="43.79966" lon="7.05995">
        <ele>1385.2</ele>
        <time>2019-12-30T13:56:28Z</time>
      </trkpt>
      <trkpt lat="43.79966" lon="7.05995">
        <ele>1385.2</ele>
        <time>2019-12-30T13:56:29Z</time>
      </trkpt>
      <trkpt lat="43.79966" lon="7.05995">
        <ele>1385.2</ele>
        <time>2019-12-30T13:56:30Z</time>
      </trkpt>
      <trkpt lat="43.79966" lon="7.05995">
        <ele>1385.2</ele>
        <time>2019-12-30T13:56:31Z</time>
      </trkpt>
      <trkpt lat="43.79966" lon="7.05995">
        <ele>1385.2</ele>
        <time>2019-12-30T13:56:32Z</time>
      </trkpt>
      <trkpt lat="43.79966" lon="7.05995">
        <ele>1385.2</ele>
        <time>2019-12-30T13:56:33Z</time>
      </trkpt>
      <trkpt lat="43.79966" lon="7.05995">
        <ele>1385.2</ele>
        <time>2019-12-30T13:56:34Z</time>
      </trkpt>
      <trkpt lat="43.79966" lon="7.05995">
        <ele>1385.2</ele>
        <time>2019-12-30T13:56:35Z</time>
      </trkpt>
      <trkpt lat="43.79966" lon="7.05995">
        <ele>1385.2</ele>
        <time>2019-12-30T13:56:36Z</time>
      </trkpt>
      <trkpt lat="43.79966" lon="7.05995">
        <ele>1385.2</ele>
        <time>2019-12-30T13:56:37Z</time>
      </trkpt>
      <trkpt lat="43.79966" lon="7.05995">
        <ele>1385.2</ele>
        <time>2019-12-30T13:56:38Z</time>
      </trkpt>
      <trkpt lat="43.79966" lon="7.05995">
        <ele>1385.2</ele>
        <time>2019-12-30T13:56:39Z</time>
      </trkpt>
      <trkpt lat="43.79966" lon="7.05995">
        <ele>1385.2</ele>
        <time>2019-12-30T13:56:40Z</time>
      </trkpt>
      <trkpt lat="43.79966" lon="7.05995">
        <ele>1385.2</ele>
        <time>2019-12-30T13:56:41Z</time>
      </trkpt>
      <trkpt lat="43.79966" lon="7.05995">
        <ele>1385.2</ele>
        <time>2019-12-30T13:56:42Z</time>
      </trkpt>
      <trkpt lat="43.79966" lon="7.05995">
        <ele>1385.2</ele>
        <time>2019-12-30T13:56:43Z</time>
      </trkpt>
      <trkpt lat="43.79966" lon="7.05995">
        <ele>1385.2</ele>
        <time>2019-12-30T13:56:44Z</time>
      </trkpt>
      <trkpt lat="43.79966" lon="7.05995">
        <ele>1385.2</ele>
        <time>2019-12-30T13:56:45Z</time>
      </trkpt>
      <trkpt lat="43.79966" lon="7.05995">
        <ele>1385.2</ele>
        <time>2019-12-30T13:56:46Z</time>
      </trkpt>
      <trkpt lat="43.79966" lon="7.05995">
        <ele>1385.2</ele>
        <time>2019-12-30T13:56:47Z</time>
      </trkpt>
      <trkpt lat="43.79966" lon="7.05995">
        <ele>1385.2</ele>
        <time>2019-12-30T13:56:48Z</time>
      </trkpt>
      <trkpt lat="43.79966" lon="7.05995">
        <ele>1385.2</ele>
        <time>2019-12-30T13:56:49Z</time>
      </trkpt>
      <trkpt lat="43.79966" lon="7.05995">
        <ele>1385.2</ele>
        <time>2019-12-30T13:56:50Z</time>
      </trkpt>
      <trkpt lat="43.79966" lon="7.05995">
        <ele>1385.2</ele>
        <time>2019-12-30T13:56:51Z</time>
      </trkpt>
      <trkpt lat="43.79966" lon="7.05995">
        <ele>1385.2</ele>
        <time>2019-12-30T13:56:52Z</time>
      </trkpt>
      <trkpt lat="43.79966" lon="7.05995">
        <ele>1385.2</ele>
        <time>2019-12-30T13:56:53Z</time>
      </trkpt>
      <trkpt lat="43.79966" lon="7.05995">
        <ele>1385.2</ele>
        <time>2019-12-30T13:56:54Z</time>
      </trkpt>
      <trkpt lat="43.79966" lon="7.05995">
        <ele>1385.2</ele>
        <time>2019-12-30T13:56:55Z</time>
      </trkpt>
      <trkpt lat="43.79966" lon="7.05995">
        <ele>1385.2</ele>
        <time>2019-12-30T13:56:56Z</time>
      </trkpt>
      <trkpt lat="43.79966" lon="7.05995">
        <ele>1385.2</ele>
        <time>2019-12-30T13:56:57Z</time>
      </trkpt>
      <trkpt lat="43.79966" lon="7.05995">
        <ele>1385.2</ele>
        <time>2019-12-30T13:56:58Z</time>
      </trkpt>
      <trkpt lat="43.79966" lon="7.05995">
        <ele>1385.2</ele>
        <time>2019-12-30T13:56:59Z</time>
      </trkpt>
      <trkpt lat="43.79966" lon="7.05995">
        <ele>1385.2</ele>
        <time>2019-12-30T13:57:00Z</time>
      </trkpt>
      <trkpt lat="43.79966" lon="7.05995">
        <ele>1385.2</ele>
        <time>2019-12-30T13:57:01Z</time>
      </trkpt>
      <trkpt lat="43.79966" lon="7.05995">
        <ele>1385.2</ele>
        <time>2019-12-30T13:57:02Z</time>
      </trkpt>
      <trkpt lat="43.79966" lon="7.05995">
        <ele>1385.2</ele>
        <time>2019-12-30T13:57:03Z</time>
      </trkpt>
      <trkpt lat="43.79966" lon="7.05995">
        <ele>1385.2</ele>
        <time>2019-12-30T13:57:04Z</time>
      </trkpt>
      <trkpt lat="43.79966" lon="7.05995">
        <ele>1385.2</ele>
        <time>2019-12-30T13:57:05Z</time>
      </trkpt>
      <trkpt lat="43.79966" lon="7.05995">
        <ele>1385.2</ele>
        <time>2019-12-30T13:57:06Z</time>
      </trkpt>
      <trkpt lat="43.79966" lon="7.05995">
        <ele>1385.2</ele>
        <time>2019-12-30T13:57:07Z</time>
      </trkpt>
      <trkpt lat="43.79966" lon="7.05995">
        <ele>1385.2</ele>
        <time>2019-12-30T13:57:08Z</time>
      </trkpt>
      <trkpt lat="43.79966" lon="7.05995">
        <ele>1385.2</ele>
        <time>2019-12-30T13:57:09Z</time>
      </trkpt>
      <trkpt lat="43.79966" lon="7.05995">
        <ele>1385.2</ele>
        <time>2019-12-30T13:57:10Z</time>
      </trkpt>
      <trkpt lat="43.79966" lon="7.05995">
        <ele>1385.2</ele>
        <time>2019-12-30T13:57:11Z</time>
      </trkpt>
      <trkpt lat="43.79966" lon="7.05995">
        <ele>1385.2</ele>
        <time>2019-12-30T13:57:12Z</time>
      </trkpt>
      <trkpt lat="43.79966" lon="7.05995">
        <ele>1385.2</ele>
        <time>2019-12-30T13:57:13Z</time>
      </trkpt>
      <trkpt lat="43.79966" lon="7.05995">
        <ele>1385.2</ele>
        <time>2019-12-30T13:57:14Z</time>
      </trkpt>
      <trkpt lat="43.79966" lon="7.05995">
        <ele>1385.2</ele>
        <time>2019-12-30T13:57:15Z</time>
      </trkpt>
      <trkpt lat="43.79966" lon="7.05995">
        <ele>1385.2</ele>
        <time>2019-12-30T13:57:16Z</time>
      </trkpt>
      <trkpt lat="43.79966" lon="7.05995">
        <ele>1385.2</ele>
        <time>2019-12-30T13:57:17Z</time>
      </trkpt>
      <trkpt lat="43.79966" lon="7.05995">
        <ele>1385.2</ele>
        <time>2019-12-30T13:57:18Z</time>
      </trkpt>
      <trkpt lat="43.79966" lon="7.05995">
        <ele>1385.2</ele>
        <time>2019-12-30T13:57:19Z</time>
      </trkpt>
      <trkpt lat="43.79966" lon="7.05995">
        <ele>1385.2</ele>
        <time>2019-12-30T13:57:20Z</time>
      </trkpt>
      <trkpt lat="43.79966" lon="7.05995">
        <ele>1385.2</ele>
        <time>2019-12-30T13:57:21Z</time>
      </trkpt>
      <trkpt lat="43.79966" lon="7.05995">
        <ele>1385.2</ele>
        <time>2019-12-30T13:57:22Z</time>
      </trkpt>
      <trkpt lat="43.79966" lon="7.05995">
        <ele>1385.2</ele>
        <time>2019-12-30T13:57:23Z</time>
      </trkpt>
      <trkpt lat="43.79966" lon="7.05995">
        <ele>1385.2</ele>
        <time>2019-12-30T13:57:24Z</time>
      </trkpt>
      <trkpt lat="43.79966" lon="7.05995">
        <ele>1385.2</ele>
        <time>2019-12-30T13:57:25Z</time>
      </trkpt>
      <trkpt lat="43.79966" lon="7.05995">
        <ele>1385.2</ele>
        <time>2019-12-30T13:57:26Z</time>
      </trkpt>
      <trkpt lat="43.79966" lon="7.05995">
        <ele>1385.2</ele>
        <time>2019-12-30T13:57:27Z</time>
      </trkpt>
      <trkpt lat="43.79966" lon="7.05995">
        <ele>1385.2</ele>
        <time>2019-12-30T13:57:28Z</time>
      </trkpt>
      <trkpt lat="43.79966" lon="7.05995">
        <ele>1385.2</ele>
        <time>2019-12-30T13:57:29Z</time>
      </trkpt>
      <trkpt lat="43.79966" lon="7.05995">
        <ele>1385.2</ele>
        <time>2019-12-30T13:57:30Z</time>
      </trkpt>
      <trkpt lat="43.79966" lon="7.05995">
        <ele>1385.2</ele>
        <time>2019-12-30T13:57:31Z</time>
      </trkpt>
      <trkpt lat="43.79966" lon="7.05995">
        <ele>1385.2</ele>
        <time>2019-12-30T13:57:32Z</time>
      </trkpt>
      <trkpt lat="43.79966" lon="7.05995">
        <ele>1385.2</ele>
        <time>2019-12-30T13:57:33Z</time>
      </trkpt>
      <trkpt lat="43.79966" lon="7.05995">
        <ele>1385.2</ele>
        <time>2019-12-30T13:57:34Z</time>
      </trkpt>
      <trkpt lat="43.79966" lon="7.05995">
        <ele>1385.2</ele>
        <time>2019-12-30T13:57:35Z</time>
      </trkpt>
      <trkpt lat="43.79966" lon="7.05995">
        <ele>1385.2</ele>
        <time>2019-12-30T13:57:36Z</time>
      </trkpt>
      <trkpt lat="43.79966" lon="7.05995">
        <ele>1385.2</ele>
        <time>2019-12-30T13:57:37Z</time>
      </trkpt>
      <trkpt lat="43.79966" lon="7.05995">
        <ele>1385.2</ele>
        <time>2019-12-30T13:57:38Z</time>
      </trkpt>
      <trkpt lat="43.79966" lon="7.05995">
        <ele>1385.2</ele>
        <time>2019-12-30T13:57:39Z</time>
      </trkpt>
      <trkpt lat="43.79966" lon="7.05995">
        <ele>1385.2</ele>
        <time>2019-12-30T13:57:40Z</time>
      </trkpt>
      <trkpt lat="43.79966" lon="7.05995">
        <ele>1385.2</ele>
        <time>2019-12-30T13:57:41Z</time>
      </trkpt>
      <trkpt lat="43.79966" lon="7.05995">
        <ele>1385.2</ele>
        <time>2019-12-30T13:57:42Z</time>
      </trkpt>
      <trkpt lat="43.79966" lon="7.05995">
        <ele>1385.2</ele>
        <time>2019-12-30T13:57:43Z</time>
      </trkpt>
      <trkpt lat="43.79966" lon="7.05995">
        <ele>1385.2</ele>
        <time>2019-12-30T13:57:44Z</time>
      </trkpt>
      <trkpt lat="43.79966" lon="7.05995">
        <ele>1385.2</ele>
        <time>2019-12-30T13:57:45Z</time>
      </trkpt>
      <trkpt lat="43.79966" lon="7.05995">
        <ele>1385.2</ele>
        <time>2019-12-30T13:57:46Z</time>
      </trkpt>
      <trkpt lat="43.79965" lon="7.05995">
        <ele>1385.2</ele>
        <time>2019-12-30T13:57:47Z</time>
      </trkpt>
      <trkpt lat="43.79965" lon="7.05995">
        <ele>1385.2</ele>
        <time>2019-12-30T13:57:48Z</time>
      </trkpt>
      <trkpt lat="43.79964" lon="7.05995">
        <ele>1385.2</ele>
        <time>2019-12-30T13:57:49Z</time>
      </trkpt>
      <trkpt lat="43.79964" lon="7.05996">
        <ele>1385.2</ele>
        <time>2019-12-30T13:57:50Z</time>
      </trkpt>
      <trkpt lat="43.79964" lon="7.05996">
        <ele>1385.3</ele>
        <time>2019-12-30T13:57:51Z</time>
      </trkpt>
      <trkpt lat="43.79964" lon="7.05996">
        <ele>1385.3</ele>
        <time>2019-12-30T13:57:52Z</time>
      </trkpt>
      <trkpt lat="43.79964" lon="7.05996">
        <ele>1385.3</ele>
        <time>2019-12-30T13:57:53Z</time>
      </trkpt>
      <trkpt lat="43.79964" lon="7.05996">
        <ele>1385.3</ele>
        <time>2019-12-30T13:57:54Z</time>
      </trkpt>
      <trkpt lat="43.79964" lon="7.05996">
        <ele>1385.3</ele>
        <time>2019-12-30T13:57:55Z</time>
      </trkpt>
      <trkpt lat="43.79964" lon="7.05996">
        <ele>1385.3</ele>
        <time>2019-12-30T13:57:56Z</time>
      </trkpt>
      <trkpt lat="43.79964" lon="7.05996">
        <ele>1385.3</ele>
        <time>2019-12-30T13:57:57Z</time>
      </trkpt>
      <trkpt lat="43.79964" lon="7.05996">
        <ele>1385.3</ele>
        <time>2019-12-30T13:57:58Z</time>
      </trkpt>
      <trkpt lat="43.79964" lon="7.05996">
        <ele>1385.3</ele>
        <time>2019-12-30T13:57:59Z</time>
      </trkpt>
      <trkpt lat="43.79964" lon="7.05996">
        <ele>1385.3</ele>
        <time>2019-12-30T13:58:00Z</time>
      </trkpt>
      <trkpt lat="43.79963" lon="7.05996">
        <ele>1385.4</ele>
        <time>2019-12-30T13:58:01Z</time>
      </trkpt>
      <trkpt lat="43.79963" lon="7.05996">
        <ele>1385.4</ele>
        <time>2019-12-30T13:58:02Z</time>
      </trkpt>
      <trkpt lat="43.79963" lon="7.05996">
        <ele>1385.4</ele>
        <time>2019-12-30T13:58:03Z</time>
      </trkpt>
      <trkpt lat="43.79963" lon="7.05996">
        <ele>1385.4</ele>
        <time>2019-12-30T13:58:04Z</time>
      </trkpt>
      <trkpt lat="43.79963" lon="7.05996">
        <ele>1385.4</ele>
        <time>2019-12-30T13:58:05Z</time>
      </trkpt>
      <trkpt lat="43.79963" lon="7.05996">
        <ele>1385.4</ele>
        <time>2019-12-30T13:58:06Z</time>
      </trkpt>
      <trkpt lat="43.79963" lon="7.05997">
        <ele>1385.4</ele>
        <time>2019-12-30T13:58:07Z</time>
      </trkpt>
      <trkpt lat="43.79963" lon="7.05997">
        <ele>1385.4</ele>
        <time>2019-12-30T13:58:08Z</time>
      </trkpt>
      <trkpt lat="43.79963" lon="7.05997">
        <ele>1385.5</ele>
        <time>2019-12-30T13:58:09Z</time>
      </trkpt>
      <trkpt lat="43.79963" lon="7.05997">
        <ele>1385.5</ele>
        <time>2019-12-30T13:58:10Z</time>
      </trkpt>
      <trkpt lat="43.79963" lon="7.05997">
        <ele>1385.5</ele>
        <time>2019-12-30T13:58:11Z</time>
      </trkpt>
      <trkpt lat="43.79963" lon="7.05997">
        <ele>1385.5</ele>
        <time>2019-12-30T13:58:12Z</time>
      </trkpt>
      <trkpt lat="43.79963" lon="7.05997">
        <ele>1385.5</ele>
        <time>2019-12-30T13:58:13Z</time>
      </trkpt>
      <trkpt lat="43.79963" lon="7.05997">
        <ele>1385.5</ele>
        <time>2019-12-30T13:58:14Z</time>
      </trkpt>
      <trkpt lat="43.79963" lon="7.05997">
        <ele>1385.5</ele>
        <time>2019-12-30T13:58:15Z</time>
      </trkpt>
      <trkpt lat="43.79963" lon="7.05997">
        <ele>1385.6</ele>
        <time>2019-12-30T13:58:16Z</time>
      </trkpt>
      <trkpt lat="43.79963" lon="7.05997">
        <ele>1385.6</ele>
        <time>2019-12-30T13:58:17Z</time>
      </trkpt>
      <trkpt lat="43.79963" lon="7.05997">
        <ele>1385.6</ele>
        <time>2019-12-30T13:58:18Z</time>
      </trkpt>
      <trkpt lat="43.79963" lon="7.05997">
        <ele>1385.6</ele>
        <time>2019-12-30T13:58:19Z</time>
      </trkpt>
      <trkpt lat="43.79963" lon="7.05997">
        <ele>1385.6</ele>
        <time>2019-12-30T13:58:20Z</time>
      </trkpt>
      <trkpt lat="43.79963" lon="7.05997">
        <ele>1385.6</ele>
        <time>2019-12-30T13:58:21Z</time>
      </trkpt>
      <trkpt lat="43.79963" lon="7.05997">
        <ele>1385.6</ele>
        <time>2019-12-30T13:58:22Z</time>
      </trkpt>
      <trkpt lat="43.79963" lon="7.05997">
        <ele>1385.6</ele>
        <time>2019-12-30T13:58:23Z</time>
      </trkpt>
      <trkpt lat="43.79963" lon="7.05997">
        <ele>1385.7</ele>
        <time>2019-12-30T13:58:24Z</time>
      </trkpt>
      <trkpt lat="43.79963" lon="7.05997">
        <ele>1385.7</ele>
        <time>2019-12-30T13:58:25Z</time>
      </trkpt>
      <trkpt lat="43.79963" lon="7.05997">
        <ele>1385.7</ele>
        <time>2019-12-30T13:58:26Z</time>
      </trkpt>
      <trkpt lat="43.79963" lon="7.05997">
        <ele>1385.7</ele>
        <time>2019-12-30T13:58:27Z</time>
      </trkpt>
      <trkpt lat="43.79963" lon="7.05997">
        <ele>1385.7</ele>
        <time>2019-12-30T13:58:28Z</time>
      </trkpt>
      <trkpt lat="43.79963" lon="7.05997">
        <ele>1385.7</ele>
        <time>2019-12-30T13:58:29Z</time>
      </trkpt>
      <trkpt lat="43.79963" lon="7.05997">
        <ele>1385.7</ele>
        <time>2019-12-30T13:58:30Z</time>
      </trkpt>
      <trkpt lat="43.79963" lon="7.05997">
        <ele>1385.7</ele>
        <time>2019-12-30T13:58:31Z</time>
      </trkpt>
      <trkpt lat="43.79963" lon="7.05997">
        <ele>1385.8</ele>
        <time>2019-12-30T13:58:32Z</time>
      </trkpt>
      <trkpt lat="43.79963" lon="7.05997">
        <ele>1385.8</ele>
        <time>2019-12-30T13:58:33Z</time>
      </trkpt>
      <trkpt lat="43.79963" lon="7.05997">
        <ele>1385.8</ele>
        <time>2019-12-30T13:58:34Z</time>
      </trkpt>
      <trkpt lat="43.79963" lon="7.05997">
        <ele>1385.8</ele>
        <time>2019-12-30T13:58:35Z</time>
      </trkpt>
      <trkpt lat="43.79963" lon="7.05997">
        <ele>1385.8</ele>
        <time>2019-12-30T13:58:36Z</time>
      </trkpt>
      <trkpt lat="43.79963" lon="7.05997">
        <ele>1385.8</ele>
        <time>2019-12-30T13:58:37Z</time>
      </trkpt>
      <trkpt lat="43.79963" lon="7.05997">
        <ele>1385.8</ele>
        <time>2019-12-30T13:58:38Z</time>
      </trkpt>
      <trkpt lat="43.79963" lon="7.05997">
        <ele>1385.8</ele>
        <time>2019-12-30T13:58:39Z</time>
      </trkpt>
      <trkpt lat="43.79963" lon="7.05997">
        <ele>1385.8</ele>
        <time>2019-12-30T13:58:40Z</time>
      </trkpt>
      <trkpt lat="43.79963" lon="7.05997">
        <ele>1385.9</ele>
        <time>2019-12-30T13:58:41Z</time>
      </trkpt>
      <trkpt lat="43.79963" lon="7.05997">
        <ele>1385.9</ele>
        <time>2019-12-30T13:58:42Z</time>
      </trkpt>
      <trkpt lat="43.79963" lon="7.05997">
        <ele>1385.9</ele>
        <time>2019-12-30T13:58:43Z</time>
      </trkpt>
      <trkpt lat="43.79963" lon="7.05997">
        <ele>1385.9</ele>
        <time>2019-12-30T13:58:44Z</time>
      </trkpt>
      <trkpt lat="43.79963" lon="7.05997">
        <ele>1385.9</ele>
        <time>2019-12-30T13:58:45Z</time>
      </trkpt>
      <trkpt lat="43.79963" lon="7.05997">
        <ele>1385.9</ele>
        <time>2019-12-30T13:58:46Z</time>
      </trkpt>
      <trkpt lat="43.79963" lon="7.05997">
        <ele>1385.9</ele>
        <time>2019-12-30T13:58:47Z</time>
      </trkpt>
      <trkpt lat="43.79963" lon="7.05997">
        <ele>1385.9</ele>
        <time>2019-12-30T13:58:48Z</time>
      </trkpt>
      <trkpt lat="43.79963" lon="7.05997">
        <ele>1386</ele>
        <time>2019-12-30T13:58:49Z</time>
      </trkpt>
      <trkpt lat="43.79963" lon="7.05997">
        <ele>1386</ele>
        <time>2019-12-30T13:58:50Z</time>
      </trkpt>
      <trkpt lat="43.79963" lon="7.05997">
        <ele>1386</ele>
        <time>2019-12-30T13:58:51Z</time>
      </trkpt>
      <trkpt lat="43.79963" lon="7.05997">
        <ele>1386</ele>
        <time>2019-12-30T13:58:52Z</time>
      </trkpt>
      <trkpt lat="43.79963" lon="7.05997">
        <ele>1386</ele>
        <time>2019-12-30T13:58:53Z</time>
      </trkpt>
      <trkpt lat="43.79963" lon="7.05997">
        <ele>1386</ele>
        <time>2019-12-30T13:58:54Z</time>
      </trkpt>
      <trkpt lat="43.79963" lon="7.05997">
        <ele>1386</ele>
        <time>2019-12-30T13:58:55Z</time>
      </trkpt>
      <trkpt lat="43.79963" lon="7.05997">
        <ele>1386</ele>
        <time>2019-12-30T13:58:56Z</time>
      </trkpt>
      <trkpt lat="43.79963" lon="7.05997">
        <ele>1386.1</ele>
        <time>2019-12-30T13:58:57Z</time>
      </trkpt>
      <trkpt lat="43.79963" lon="7.05997">
        <ele>1386.1</ele>
        <time>2019-12-30T13:58:58Z</time>
      </trkpt>
      <trkpt lat="43.79963" lon="7.05997">
        <ele>1386.1</ele>
        <time>2019-12-30T13:58:59Z</time>
      </trkpt>
      <trkpt lat="43.79963" lon="7.05997">
        <ele>1386.1</ele>
        <time>2019-12-30T13:59:00Z</time>
      </trkpt>
      <trkpt lat="43.79963" lon="7.05997">
        <ele>1386.1</ele>
        <time>2019-12-30T13:59:01Z</time>
      </trkpt>
      <trkpt lat="43.79963" lon="7.05997">
        <ele>1386.1</ele>
        <time>2019-12-30T13:59:02Z</time>
      </trkpt>
      <trkpt lat="43.79963" lon="7.05997">
        <ele>1386.1</ele>
        <time>2019-12-30T13:59:03Z</time>
      </trkpt>
      <trkpt lat="43.79963" lon="7.05997">
        <ele>1386.1</ele>
        <time>2019-12-30T13:59:04Z</time>
      </trkpt>
      <trkpt lat="43.79963" lon="7.05997">
        <ele>1386.1</ele>
        <time>2019-12-30T13:59:05Z</time>
      </trkpt>
      <trkpt lat="43.79963" lon="7.05997">
        <ele>1386.2</ele>
        <time>2019-12-30T13:59:06Z</time>
      </trkpt>
      <trkpt lat="43.79963" lon="7.05997">
        <ele>1386.2</ele>
        <time>2019-12-30T13:59:07Z</time>
      </trkpt>
      <trkpt lat="43.79963" lon="7.05997">
        <ele>1386.2</ele>
        <time>2019-12-30T13:59:08Z</time>
      </trkpt>
      <trkpt lat="43.79963" lon="7.05997">
        <ele>1386.2</ele>
        <time>2019-12-30T13:59:09Z</time>
      </trkpt>
      <trkpt lat="43.79963" lon="7.05997">
        <ele>1386.2</ele>
        <time>2019-12-30T13:59:10Z</time>
      </trkpt>
      <trkpt lat="43.79963" lon="7.05997">
        <ele>1386.2</ele>
        <time>2019-12-30T13:59:11Z</time>
      </trkpt>
      <trkpt lat="43.79963" lon="7.05997">
        <ele>1386.2</ele>
        <time>2019-12-30T13:59:12Z</time>
      </trkpt>
      <trkpt lat="43.79963" lon="7.05997">
        <ele>1386.2</ele>
        <time>2019-12-30T13:59:13Z</time>
      </trkpt>
      <trkpt lat="43.79963" lon="7.05997">
        <ele>1386.3</ele>
        <time>2019-12-30T13:59:14Z</time>
      </trkpt>
      <trkpt lat="43.79963" lon="7.05997">
        <ele>1386.3</ele>
        <time>2019-12-30T13:59:15Z</time>
      </trkpt>
      <trkpt lat="43.79963" lon="7.05997">
        <ele>1386.3</ele>
        <time>2019-12-30T13:59:16Z</time>
      </trkpt>
      <trkpt lat="43.79963" lon="7.05997">
        <ele>1386.3</ele>
        <time>2019-12-30T13:59:17Z</time>
      </trkpt>
      <trkpt lat="43.79963" lon="7.05997">
        <ele>1386.3</ele>
        <time>2019-12-30T13:59:18Z</time>
      </trkpt>
      <trkpt lat="43.79963" lon="7.05997">
        <ele>1386.3</ele>
        <time>2019-12-30T13:59:19Z</time>
      </trkpt>
      <trkpt lat="43.79963" lon="7.05997">
        <ele>1386.3</ele>
        <time>2019-12-30T13:59:20Z</time>
      </trkpt>
      <trkpt lat="43.79963" lon="7.05997">
        <ele>1386.3</ele>
        <time>2019-12-30T13:59:21Z</time>
      </trkpt>
      <trkpt lat="43.79963" lon="7.05997">
        <ele>1386.4</ele>
        <time>2019-12-30T13:59:22Z</time>
      </trkpt>
      <trkpt lat="43.79963" lon="7.05997">
        <ele>1386.4</ele>
        <time>2019-12-30T13:59:23Z</time>
      </trkpt>
      <trkpt lat="43.79963" lon="7.05997">
        <ele>1386.4</ele>
        <time>2019-12-30T13:59:24Z</time>
      </trkpt>
      <trkpt lat="43.79963" lon="7.05997">
        <ele>1386.4</ele>
        <time>2019-12-30T13:59:25Z</time>
      </trkpt>
      <trkpt lat="43.79963" lon="7.05997">
        <ele>1386.4</ele>
        <time>2019-12-30T13:59:26Z</time>
      </trkpt>
      <trkpt lat="43.79963" lon="7.05997">
        <ele>1386.4</ele>
        <time>2019-12-30T13:59:27Z</time>
      </trkpt>
      <trkpt lat="43.79963" lon="7.05997">
        <ele>1386.4</ele>
        <time>2019-12-30T13:59:28Z</time>
      </trkpt>
      <trkpt lat="43.79963" lon="7.05997">
        <ele>1386.4</ele>
        <time>2019-12-30T13:59:29Z</time>
      </trkpt>
      <trkpt lat="43.79963" lon="7.05997">
        <ele>1386.4</ele>
        <time>2019-12-30T13:59:30Z</time>
      </trkpt>
      <trkpt lat="43.79963" lon="7.05997">
        <ele>1386.4</ele>
        <time>2019-12-30T13:59:31Z</time>
      </trkpt>
      <trkpt lat="43.79963" lon="7.05997">
        <ele>1386.4</ele>
        <time>2019-12-30T13:59:32Z</time>
      </trkpt>
      <trkpt lat="43.79963" lon="7.05997">
        <ele>1386.4</ele>
        <time>2019-12-30T13:59:33Z</time>
      </trkpt>
      <trkpt lat="43.79963" lon="7.05997">
        <ele>1386.4</ele>
        <time>2019-12-30T13:59:34Z</time>
      </trkpt>
      <trkpt lat="43.79963" lon="7.05997">
        <ele>1386.4</ele>
        <time>2019-12-30T13:59:35Z</time>
      </trkpt>
      <trkpt lat="43.79963" lon="7.05997">
        <ele>1386.4</ele>
        <time>2019-12-30T13:59:36Z</time>
      </trkpt>
      <trkpt lat="43.79963" lon="7.05997">
        <ele>1386.4</ele>
        <time>2019-12-30T13:59:37Z</time>
      </trkpt>
      <trkpt lat="43.79963" lon="7.05997">
        <ele>1386.4</ele>
        <time>2019-12-30T13:59:38Z</time>
      </trkpt>
      <trkpt lat="43.79963" lon="7.05997">
        <ele>1386.4</ele>
        <time>2019-12-30T13:59:39Z</time>
      </trkpt>
      <trkpt lat="43.79963" lon="7.05997">
        <ele>1386.4</ele>
        <time>2019-12-30T13:59:40Z</time>
      </trkpt>
      <trkpt lat="43.79963" lon="7.05997">
        <ele>1386.4</ele>
        <time>2019-12-30T13:59:41Z</time>
      </trkpt>
      <trkpt lat="43.79963" lon="7.05997">
        <ele>1386.4</ele>
        <time>2019-12-30T13:59:42Z</time>
      </trkpt>
      <trkpt lat="43.79963" lon="7.05997">
        <ele>1386.4</ele>
        <time>2019-12-30T13:59:43Z</time>
      </trkpt>
      <trkpt lat="43.79963" lon="7.05997">
        <ele>1386.4</ele>
        <time>2019-12-30T13:59:44Z</time>
      </trkpt>
      <trkpt lat="43.79963" lon="7.05997">
        <ele>1386.4</ele>
        <time>2019-12-30T13:59:45Z</time>
      </trkpt>
      <trkpt lat="43.79963" lon="7.05997">
        <ele>1386.4</ele>
        <time>2019-12-30T13:59:46Z</time>
      </trkpt>
      <trkpt lat="43.79963" lon="7.05997">
        <ele>1386.4</ele>
        <time>2019-12-30T13:59:47Z</time>
      </trkpt>
      <trkpt lat="43.79963" lon="7.05997">
        <ele>1386.4</ele>
        <time>2019-12-30T13:59:48Z</time>
      </trkpt>
      <trkpt lat="43.79963" lon="7.05997">
        <ele>1386.4</ele>
        <time>2019-12-30T13:59:49Z</time>
      </trkpt>
      <trkpt lat="43.79963" lon="7.05997">
        <ele>1386.4</ele>
        <time>2019-12-30T13:59:50Z</time>
      </trkpt>
      <trkpt lat="43.79963" lon="7.05997">
        <ele>1386.4</ele>
        <time>2019-12-30T13:59:51Z</time>
      </trkpt>
      <trkpt lat="43.79963" lon="7.05997">
        <ele>1386.4</ele>
        <time>2019-12-30T13:59:52Z</time>
      </trkpt>
      <trkpt lat="43.79963" lon="7.05997">
        <ele>1386.4</ele>
        <time>2019-12-30T13:59:53Z</time>
      </trkpt>
      <trkpt lat="43.79963" lon="7.05997">
        <ele>1386.4</ele>
        <time>2019-12-30T13:59:54Z</time>
      </trkpt>
      <trkpt lat="43.79963" lon="7.05997">
        <ele>1386.4</ele>
        <time>2019-12-30T13:59:55Z</time>
      </trkpt>
      <trkpt lat="43.79963" lon="7.05997">
        <ele>1386.4</ele>
        <time>2019-12-30T13:59:56Z</time>
      </trkpt>
      <trkpt lat="43.79963" lon="7.05997">
        <ele>1386.4</ele>
        <time>2019-12-30T13:59:57Z</time>
      </trkpt>
      <trkpt lat="43.79963" lon="7.05997">
        <ele>1386.4</ele>
        <time>2019-12-30T13:59:58Z</time>
      </trkpt>
      <trkpt lat="43.79963" lon="7.05997">
        <ele>1386.4</ele>
        <time>2019-12-30T13:59:59Z</time>
      </trkpt>
      <trkpt lat="43.79963" lon="7.05997">
        <ele>1386.4</ele>
        <time>2019-12-30T14:00:00Z</time>
      </trkpt>
      <trkpt lat="43.79963" lon="7.05997">
        <ele>1386.4</ele>
        <time>2019-12-30T14:00:01Z</time>
      </trkpt>
      <trkpt lat="43.79963" lon="7.05997">
        <ele>1386.4</ele>
        <time>2019-12-30T14:00:02Z</time>
      </trkpt>
      <trkpt lat="43.79963" lon="7.05997">
        <ele>1386.4</ele>
        <time>2019-12-30T14:00:03Z</time>
      </trkpt>
      <trkpt lat="43.79963" lon="7.05997">
        <ele>1386.4</ele>
        <time>2019-12-30T14:00:04Z</time>
      </trkpt>
      <trkpt lat="43.79963" lon="7.05997">
        <ele>1386.4</ele>
        <time>2019-12-30T14:00:05Z</time>
      </trkpt>
      <trkpt lat="43.79963" lon="7.05997">
        <ele>1386.4</ele>
        <time>2019-12-30T14:00:06Z</time>
      </trkpt>
      <trkpt lat="43.79963" lon="7.05997">
        <ele>1386.4</ele>
        <time>2019-12-30T14:00:07Z</time>
      </trkpt>
      <trkpt lat="43.79963" lon="7.05997">
        <ele>1386.4</ele>
        <time>2019-12-30T14:00:08Z</time>
      </trkpt>
      <trkpt lat="43.79963" lon="7.05997">
        <ele>1386.4</ele>
        <time>2019-12-30T14:00:09Z</time>
      </trkpt>
      <trkpt lat="43.79963" lon="7.05997">
        <ele>1386.4</ele>
        <time>2019-12-30T14:00:10Z</time>
      </trkpt>
      <trkpt lat="43.79963" lon="7.05997">
        <ele>1386.4</ele>
        <time>2019-12-30T14:00:11Z</time>
      </trkpt>
      <trkpt lat="43.79963" lon="7.05997">
        <ele>1386.4</ele>
        <time>2019-12-30T14:00:12Z</time>
      </trkpt>
      <trkpt lat="43.79963" lon="7.05997">
        <ele>1386.4</ele>
        <time>2019-12-30T14:00:13Z</time>
      </trkpt>
      <trkpt lat="43.79963" lon="7.05997">
        <ele>1386.4</ele>
        <time>2019-12-30T14:00:14Z</time>
      </trkpt>
      <trkpt lat="43.79963" lon="7.05997">
        <ele>1386.4</ele>
        <time>2019-12-30T14:00:15Z</time>
      </trkpt>
      <trkpt lat="43.79963" lon="7.05997">
        <ele>1386.4</ele>
        <time>2019-12-30T14:00:16Z</time>
      </trkpt>
      <trkpt lat="43.79963" lon="7.05997">
        <ele>1386.4</ele>
        <time>2019-12-30T14:00:17Z</time>
      </trkpt>
      <trkpt lat="43.79963" lon="7.05997">
        <ele>1386.4</ele>
        <time>2019-12-30T14:00:18Z</time>
      </trkpt>
      <trkpt lat="43.79963" lon="7.05997">
        <ele>1386.4</ele>
        <time>2019-12-30T14:00:19Z</time>
      </trkpt>
      <trkpt lat="43.79963" lon="7.05997">
        <ele>1386.4</ele>
        <time>2019-12-30T14:00:20Z</time>
      </trkpt>
      <trkpt lat="43.79963" lon="7.05997">
        <ele>1386.4</ele>
        <time>2019-12-30T14:00:21Z</time>
      </trkpt>
      <trkpt lat="43.79963" lon="7.05997">
        <ele>1386.4</ele>
        <time>2019-12-30T14:00:22Z</time>
      </trkpt>
      <trkpt lat="43.79963" lon="7.05997">
        <ele>1386.4</ele>
        <time>2019-12-30T14:00:23Z</time>
      </trkpt>
      <trkpt lat="43.79963" lon="7.05997">
        <ele>1386.4</ele>
        <time>2019-12-30T14:00:24Z</time>
      </trkpt>
      <trkpt lat="43.79963" lon="7.05997">
        <ele>1386.4</ele>
        <time>2019-12-30T14:00:25Z</time>
      </trkpt>
      <trkpt lat="43.79963" lon="7.05997">
        <ele>1386.4</ele>
        <time>2019-12-30T14:00:26Z</time>
      </trkpt>
      <trkpt lat="43.79963" lon="7.05997">
        <ele>1386.4</ele>
        <time>2019-12-30T14:00:27Z</time>
      </trkpt>
      <trkpt lat="43.79963" lon="7.05997">
        <ele>1386.4</ele>
        <time>2019-12-30T14:00:28Z</time>
      </trkpt>
      <trkpt lat="43.79963" lon="7.05997">
        <ele>1386.4</ele>
        <time>2019-12-30T14:00:29Z</time>
      </trkpt>
      <trkpt lat="43.79963" lon="7.05997">
        <ele>1386.4</ele>
        <time>2019-12-30T14:00:30Z</time>
      </trkpt>
      <trkpt lat="43.79963" lon="7.05997">
        <ele>1386.4</ele>
        <time>2019-12-30T14:00:31Z</time>
      </trkpt>
      <trkpt lat="43.79963" lon="7.05997">
        <ele>1386.4</ele>
        <time>2019-12-30T14:00:32Z</time>
      </trkpt>
      <trkpt lat="43.79963" lon="7.05997">
        <ele>1386.4</ele>
        <time>2019-12-30T14:00:33Z</time>
      </trkpt>
      <trkpt lat="43.79963" lon="7.05997">
        <ele>1386.4</ele>
        <time>2019-12-30T14:00:34Z</time>
      </trkpt>
      <trkpt lat="43.79963" lon="7.05997">
        <ele>1386.4</ele>
        <time>2019-12-30T14:00:35Z</time>
      </trkpt>
      <trkpt lat="43.79963" lon="7.05997">
        <ele>1386.4</ele>
        <time>2019-12-30T14:00:36Z</time>
      </trkpt>
      <trkpt lat="43.79963" lon="7.05997">
        <ele>1386.4</ele>
        <time>2019-12-30T14:00:37Z</time>
      </trkpt>
      <trkpt lat="43.79963" lon="7.05997">
        <ele>1386.4</ele>
        <time>2019-12-30T14:00:38Z</time>
      </trkpt>
      <trkpt lat="43.79963" lon="7.05997">
        <ele>1386.4</ele>
        <time>2019-12-30T14:00:39Z</time>
      </trkpt>
      <trkpt lat="43.79963" lon="7.05997">
        <ele>1386.4</ele>
        <time>2019-12-30T14:00:40Z</time>
      </trkpt>
      <trkpt lat="43.79963" lon="7.05997">
        <ele>1386.4</ele>
        <time>2019-12-30T14:00:41Z</time>
      </trkpt>
      <trkpt lat="43.79963" lon="7.05997">
        <ele>1386.4</ele>
        <time>2019-12-30T14:00:42Z</time>
      </trkpt>
      <trkpt lat="43.79963" lon="7.05997">
        <ele>1386.4</ele>
        <time>2019-12-30T14:00:43Z</time>
      </trkpt>
      <trkpt lat="43.79963" lon="7.05997">
        <ele>1386.4</ele>
        <time>2019-12-30T14:00:44Z</time>
      </trkpt>
      <trkpt lat="43.79963" lon="7.05997">
        <ele>1386.4</ele>
        <time>2019-12-30T14:00:45Z</time>
      </trkpt>
      <trkpt lat="43.79963" lon="7.05997">
        <ele>1386.4</ele>
        <time>2019-12-30T14:00:46Z</time>
      </trkpt>
      <trkpt lat="43.79963" lon="7.05997">
        <ele>1386.4</ele>
        <time>2019-12-30T14:00:47Z</time>
      </trkpt>
      <trkpt lat="43.79963" lon="7.05997">
        <ele>1386.4</ele>
        <time>2019-12-30T14:00:48Z</time>
      </trkpt>
      <trkpt lat="43.79963" lon="7.05997">
        <ele>1386.4</ele>
        <time>2019-12-30T14:00:49Z</time>
      </trkpt>
      <trkpt lat="43.79963" lon="7.05997">
        <ele>1386.4</ele>
        <time>2019-12-30T14:00:50Z</time>
      </trkpt>
      <trkpt lat="43.79963" lon="7.05997">
        <ele>1386.4</ele>
        <time>2019-12-30T14:00:51Z</time>
      </trkpt>
      <trkpt lat="43.79963" lon="7.05997">
        <ele>1386.4</ele>
        <time>2019-12-30T14:00:52Z</time>
      </trkpt>
      <trkpt lat="43.79963" lon="7.05997">
        <ele>1386.4</ele>
        <time>2019-12-30T14:00:53Z</time>
      </trkpt>
      <trkpt lat="43.79963" lon="7.05997">
        <ele>1386.4</ele>
        <time>2019-12-30T14:00:54Z</time>
      </trkpt>
      <trkpt lat="43.79963" lon="7.05997">
        <ele>1386.4</ele>
        <time>2019-12-30T14:00:55Z</time>
      </trkpt>
      <trkpt lat="43.79963" lon="7.05997">
        <ele>1386.4</ele>
        <time>2019-12-30T14:00:56Z</time>
      </trkpt>
      <trkpt lat="43.79963" lon="7.05997">
        <ele>1386.4</ele>
        <time>2019-12-30T14:00:57Z</time>
      </trkpt>
      <trkpt lat="43.79963" lon="7.05997">
        <ele>1386.4</ele>
        <time>2019-12-30T14:00:58Z</time>
      </trkpt>
      <trkpt lat="43.79963" lon="7.05997">
        <ele>1386.4</ele>
        <time>2019-12-30T14:00:59Z</time>
      </trkpt>
      <trkpt lat="43.79963" lon="7.05997">
        <ele>1386.4</ele>
        <time>2019-12-30T14:01:00Z</time>
      </trkpt>
      <trkpt lat="43.79963" lon="7.05997">
        <ele>1386.4</ele>
        <time>2019-12-30T14:01:01Z</time>
      </trkpt>
      <trkpt lat="43.79963" lon="7.05997">
        <ele>1386.4</ele>
        <time>2019-12-30T14:01:02Z</time>
      </trkpt>
      <trkpt lat="43.79963" lon="7.05997">
        <ele>1386.4</ele>
        <time>2019-12-30T14:01:03Z</time>
      </trkpt>
      <trkpt lat="43.79963" lon="7.05997">
        <ele>1386.4</ele>
        <time>2019-12-30T14:01:04Z</time>
      </trkpt>
      <trkpt lat="43.79963" lon="7.05997">
        <ele>1386.4</ele>
        <time>2019-12-30T14:01:05Z</time>
      </trkpt>
      <trkpt lat="43.79963" lon="7.05997">
        <ele>1386.4</ele>
        <time>2019-12-30T14:01:06Z</time>
      </trkpt>
      <trkpt lat="43.79963" lon="7.05997">
        <ele>1386.4</ele>
        <time>2019-12-30T14:01:07Z</time>
      </trkpt>
      <trkpt lat="43.79963" lon="7.05997">
        <ele>1386.4</ele>
        <time>2019-12-30T14:01:08Z</time>
      </trkpt>
      <trkpt lat="43.79963" lon="7.05997">
        <ele>1386.4</ele>
        <time>2019-12-30T14:01:09Z</time>
      </trkpt>
      <trkpt lat="43.79963" lon="7.05997">
        <ele>1386.4</ele>
        <time>2019-12-30T14:01:10Z</time>
      </trkpt>
      <trkpt lat="43.79963" lon="7.05997">
        <ele>1386.4</ele>
        <time>2019-12-30T14:01:11Z</time>
      </trkpt>
      <trkpt lat="43.79963" lon="7.05997">
        <ele>1386.4</ele>
        <time>2019-12-30T14:01:12Z</time>
      </trkpt>
      <trkpt lat="43.79963" lon="7.05997">
        <ele>1386.4</ele>
        <time>2019-12-30T14:01:13Z</time>
      </trkpt>
      <trkpt lat="43.79963" lon="7.05997">
        <ele>1386.4</ele>
        <time>2019-12-30T14:01:14Z</time>
      </trkpt>
      <trkpt lat="43.79963" lon="7.05997">
        <ele>1386.4</ele>
        <time>2019-12-30T14:01:15Z</time>
      </trkpt>
      <trkpt lat="43.79963" lon="7.05997">
        <ele>1386.4</ele>
        <time>2019-12-30T14:01:16Z</time>
      </trkpt>
      <trkpt lat="43.79963" lon="7.05997">
        <ele>1386.4</ele>
        <time>2019-12-30T14:01:17Z</time>
      </trkpt>
      <trkpt lat="43.79963" lon="7.05997">
        <ele>1386.4</ele>
        <time>2019-12-30T14:01:18Z</time>
      </trkpt>
      <trkpt lat="43.79963" lon="7.05997">
        <ele>1386.4</ele>
        <time>2019-12-30T14:01:19Z</time>
      </trkpt>
      <trkpt lat="43.79963" lon="7.05997">
        <ele>1386.4</ele>
        <time>2019-12-30T14:01:20Z</time>
      </trkpt>
      <trkpt lat="43.79963" lon="7.05997">
        <ele>1386.4</ele>
        <time>2019-12-30T14:01:21Z</time>
      </trkpt>
      <trkpt lat="43.79963" lon="7.05997">
        <ele>1386.4</ele>
        <time>2019-12-30T14:01:22Z</time>
      </trkpt>
      <trkpt lat="43.79963" lon="7.05997">
        <ele>1386.4</ele>
        <time>2019-12-30T14:01:23Z</time>
      </trkpt>
      <trkpt lat="43.79963" lon="7.05997">
        <ele>1386.4</ele>
        <time>2019-12-30T14:01:24Z</time>
      </trkpt>
      <trkpt lat="43.79963" lon="7.05997">
        <ele>1386.4</ele>
        <time>2019-12-30T14:01:25Z</time>
      </trkpt>
      <trkpt lat="43.79963" lon="7.05997">
        <ele>1386.4</ele>
        <time>2019-12-30T14:01:26Z</time>
      </trkpt>
      <trkpt lat="43.79963" lon="7.05997">
        <ele>1386.4</ele>
        <time>2019-12-30T14:01:27Z</time>
      </trkpt>
      <trkpt lat="43.79963" lon="7.05997">
        <ele>1386.4</ele>
        <time>2019-12-30T14:01:28Z</time>
      </trkpt>
      <trkpt lat="43.79963" lon="7.05997">
        <ele>1386.4</ele>
        <time>2019-12-30T14:01:29Z</time>
      </trkpt>
      <trkpt lat="43.79963" lon="7.05997">
        <ele>1386.4</ele>
        <time>2019-12-30T14:01:30Z</time>
      </trkpt>
      <trkpt lat="43.79963" lon="7.05997">
        <ele>1386.4</ele>
        <time>2019-12-30T14:01:31Z</time>
      </trkpt>
      <trkpt lat="43.79963" lon="7.05997">
        <ele>1386.4</ele>
        <time>2019-12-30T14:01:32Z</time>
      </trkpt>
      <trkpt lat="43.79963" lon="7.05997">
        <ele>1386.4</ele>
        <time>2019-12-30T14:01:33Z</time>
      </trkpt>
      <trkpt lat="43.79963" lon="7.05997">
        <ele>1386.4</ele>
        <time>2019-12-30T14:01:34Z</time>
      </trkpt>
      <trkpt lat="43.79963" lon="7.05997">
        <ele>1386.4</ele>
        <time>2019-12-30T14:01:35Z</time>
      </trkpt>
      <trkpt lat="43.79963" lon="7.05997">
        <ele>1386.4</ele>
        <time>2019-12-30T14:01:36Z</time>
      </trkpt>
      <trkpt lat="43.79963" lon="7.05997">
        <ele>1386.4</ele>
        <time>2019-12-30T14:01:37Z</time>
      </trkpt>
      <trkpt lat="43.79963" lon="7.05997">
        <ele>1386.4</ele>
        <time>2019-12-30T14:01:38Z</time>
      </trkpt>
      <trkpt lat="43.79963" lon="7.05997">
        <ele>1386.4</ele>
        <time>2019-12-30T14:01:39Z</time>
      </trkpt>
      <trkpt lat="43.79963" lon="7.05997">
        <ele>1386.4</ele>
        <time>2019-12-30T14:01:40Z</time>
      </trkpt>
      <trkpt lat="43.79963" lon="7.05997">
        <ele>1386.4</ele>
        <time>2019-12-30T14:01:41Z</time>
      </trkpt>
      <trkpt lat="43.79963" lon="7.05997">
        <ele>1386.4</ele>
        <time>2019-12-30T14:01:42Z</time>
      </trkpt>
      <trkpt lat="43.79963" lon="7.05997">
        <ele>1386.4</ele>
        <time>2019-12-30T14:01:43Z</time>
      </trkpt>
      <trkpt lat="43.79963" lon="7.05997">
        <ele>1386.4</ele>
        <time>2019-12-30T14:01:44Z</time>
      </trkpt>
      <trkpt lat="43.79963" lon="7.05997">
        <ele>1386.4</ele>
        <time>2019-12-30T14:01:45Z</time>
      </trkpt>
      <trkpt lat="43.79963" lon="7.05997">
        <ele>1386.4</ele>
        <time>2019-12-30T14:01:46Z</time>
      </trkpt>
      <trkpt lat="43.79963" lon="7.05997">
        <ele>1386.4</ele>
        <time>2019-12-30T14:01:47Z</time>
      </trkpt>
      <trkpt lat="43.79963" lon="7.05997">
        <ele>1386.4</ele>
        <time>2019-12-30T14:01:48Z</time>
      </trkpt>
      <trkpt lat="43.79963" lon="7.05997">
        <ele>1386.4</ele>
        <time>2019-12-30T14:01:49Z</time>
      </trkpt>
      <trkpt lat="43.79963" lon="7.05997">
        <ele>1386.4</ele>
        <time>2019-12-30T14:01:50Z</time>
      </trkpt>
      <trkpt lat="43.79963" lon="7.05997">
        <ele>1386.4</ele>
        <time>2019-12-30T14:01:51Z</time>
      </trkpt>
      <trkpt lat="43.79963" lon="7.05997">
        <ele>1386.4</ele>
        <time>2019-12-30T14:01:52Z</time>
      </trkpt>
      <trkpt lat="43.79963" lon="7.05997">
        <ele>1386.4</ele>
        <time>2019-12-30T14:01:53Z</time>
      </trkpt>
      <trkpt lat="43.79963" lon="7.05997">
        <ele>1386.4</ele>
        <time>2019-12-30T14:01:54Z</time>
      </trkpt>
      <trkpt lat="43.79963" lon="7.05997">
        <ele>1386.4</ele>
        <time>2019-12-30T14:01:55Z</time>
      </trkpt>
      <trkpt lat="43.79963" lon="7.05997">
        <ele>1386.4</ele>
        <time>2019-12-30T14:01:56Z</time>
      </trkpt>
      <trkpt lat="43.79963" lon="7.05997">
        <ele>1386.4</ele>
        <time>2019-12-30T14:01:57Z</time>
      </trkpt>
      <trkpt lat="43.79963" lon="7.05997">
        <ele>1386.4</ele>
        <time>2019-12-30T14:01:58Z</time>
      </trkpt>
      <trkpt lat="43.79963" lon="7.05997">
        <ele>1386.4</ele>
        <time>2019-12-30T14:01:59Z</time>
      </trkpt>
      <trkpt lat="43.79963" lon="7.05997">
        <ele>1386.4</ele>
        <time>2019-12-30T14:02:00Z</time>
      </trkpt>
      <trkpt lat="43.79963" lon="7.05997">
        <ele>1386.4</ele>
        <time>2019-12-30T14:02:01Z</time>
      </trkpt>
      <trkpt lat="43.79963" lon="7.05997">
        <ele>1386.4</ele>
        <time>2019-12-30T14:02:02Z</time>
      </trkpt>
      <trkpt lat="43.79963" lon="7.05997">
        <ele>1386.4</ele>
        <time>2019-12-30T14:02:03Z</time>
      </trkpt>
      <trkpt lat="43.79963" lon="7.05997">
        <ele>1386.4</ele>
        <time>2019-12-30T14:02:04Z</time>
      </trkpt>
      <trkpt lat="43.79963" lon="7.05997">
        <ele>1386.4</ele>
        <time>2019-12-30T14:02:05Z</time>
      </trkpt>
      <trkpt lat="43.79963" lon="7.05997">
        <ele>1386.4</ele>
        <time>2019-12-30T14:02:06Z</time>
      </trkpt>
      <trkpt lat="43.79963" lon="7.05997">
        <ele>1386.4</ele>
        <time>2019-12-30T14:02:07Z</time>
      </trkpt>
      <trkpt lat="43.79963" lon="7.05997">
        <ele>1386.4</ele>
        <time>2019-12-30T14:02:08Z</time>
      </trkpt>
      <trkpt lat="43.79963" lon="7.05997">
        <ele>1386.4</ele>
        <time>2019-12-30T14:02:09Z</time>
      </trkpt>
      <trkpt lat="43.79963" lon="7.05997">
        <ele>1386.4</ele>
        <time>2019-12-30T14:02:10Z</time>
      </trkpt>
      <trkpt lat="43.79963" lon="7.05997">
        <ele>1386.4</ele>
        <time>2019-12-30T14:02:11Z</time>
      </trkpt>
      <trkpt lat="43.79963" lon="7.05997">
        <ele>1386.4</ele>
        <time>2019-12-30T14:02:12Z</time>
      </trkpt>
      <trkpt lat="43.79963" lon="7.05997">
        <ele>1386.4</ele>
        <time>2019-12-30T14:02:13Z</time>
      </trkpt>
      <trkpt lat="43.79963" lon="7.05997">
        <ele>1386.4</ele>
        <time>2019-12-30T14:02:14Z</time>
      </trkpt>
      <trkpt lat="43.79963" lon="7.05997">
        <ele>1386.4</ele>
        <time>2019-12-30T14:02:15Z</time>
      </trkpt>
      <trkpt lat="43.79963" lon="7.05997">
        <ele>1386.4</ele>
        <time>2019-12-30T14:02:16Z</time>
      </trkpt>
      <trkpt lat="43.79963" lon="7.05997">
        <ele>1386.4</ele>
        <time>2019-12-30T14:02:17Z</time>
      </trkpt>
      <trkpt lat="43.79963" lon="7.05997">
        <ele>1386.4</ele>
        <time>2019-12-30T14:02:18Z</time>
      </trkpt>
      <trkpt lat="43.79963" lon="7.05997">
        <ele>1386.4</ele>
        <time>2019-12-30T14:02:19Z</time>
      </trkpt>
      <trkpt lat="43.79963" lon="7.05997">
        <ele>1386.4</ele>
        <time>2019-12-30T14:02:20Z</time>
      </trkpt>
      <trkpt lat="43.79963" lon="7.05997">
        <ele>1386.4</ele>
        <time>2019-12-30T14:02:21Z</time>
      </trkpt>
      <trkpt lat="43.79963" lon="7.05997">
        <ele>1386.4</ele>
        <time>2019-12-30T14:02:22Z</time>
      </trkpt>
      <trkpt lat="43.79963" lon="7.05997">
        <ele>1386.4</ele>
        <time>2019-12-30T14:02:23Z</time>
      </trkpt>
      <trkpt lat="43.79963" lon="7.05997">
        <ele>1386.4</ele>
        <time>2019-12-30T14:02:24Z</time>
      </trkpt>
      <trkpt lat="43.79963" lon="7.05997">
        <ele>1386.4</ele>
        <time>2019-12-30T14:02:25Z</time>
      </trkpt>
      <trkpt lat="43.79963" lon="7.05997">
        <ele>1386.4</ele>
        <time>2019-12-30T14:02:26Z</time>
      </trkpt>
      <trkpt lat="43.79963" lon="7.05997">
        <ele>1386.4</ele>
        <time>2019-12-30T14:02:27Z</time>
      </trkpt>
      <trkpt lat="43.79963" lon="7.05997">
        <ele>1386.4</ele>
        <time>2019-12-30T14:02:28Z</time>
      </trkpt>
      <trkpt lat="43.79963" lon="7.05997">
        <ele>1386.4</ele>
        <time>2019-12-30T14:02:29Z</time>
      </trkpt>
      <trkpt lat="43.79963" lon="7.05997">
        <ele>1386.4</ele>
        <time>2019-12-30T14:02:30Z</time>
      </trkpt>
      <trkpt lat="43.79963" lon="7.05997">
        <ele>1386.4</ele>
        <time>2019-12-30T14:02:31Z</time>
      </trkpt>
      <trkpt lat="43.79963" lon="7.05997">
        <ele>1386.4</ele>
        <time>2019-12-30T14:02:32Z</time>
      </trkpt>
      <trkpt lat="43.79963" lon="7.05997">
        <ele>1386.4</ele>
        <time>2019-12-30T14:02:33Z</time>
      </trkpt>
      <trkpt lat="43.79963" lon="7.05997">
        <ele>1386.4</ele>
        <time>2019-12-30T14:02:34Z</time>
      </trkpt>
      <trkpt lat="43.79963" lon="7.05997">
        <ele>1386.4</ele>
        <time>2019-12-30T14:02:35Z</time>
      </trkpt>
      <trkpt lat="43.79963" lon="7.05997">
        <ele>1386.4</ele>
        <time>2019-12-30T14:02:36Z</time>
      </trkpt>
      <trkpt lat="43.79963" lon="7.05997">
        <ele>1386.4</ele>
        <time>2019-12-30T14:02:37Z</time>
      </trkpt>
      <trkpt lat="43.79963" lon="7.05997">
        <ele>1386.4</ele>
        <time>2019-12-30T14:02:38Z</time>
      </trkpt>
      <trkpt lat="43.79963" lon="7.05997">
        <ele>1386.4</ele>
        <time>2019-12-30T14:02:39Z</time>
      </trkpt>
      <trkpt lat="43.79963" lon="7.05997">
        <ele>1386.4</ele>
        <time>2019-12-30T14:02:40Z</time>
      </trkpt>
      <trkpt lat="43.79963" lon="7.05997">
        <ele>1386.4</ele>
        <time>2019-12-30T14:02:41Z</time>
      </trkpt>
      <trkpt lat="43.79963" lon="7.05997">
        <ele>1386.4</ele>
        <time>2019-12-30T14:02:42Z</time>
      </trkpt>
      <trkpt lat="43.79963" lon="7.05997">
        <ele>1386.4</ele>
        <time>2019-12-30T14:02:43Z</time>
      </trkpt>
      <trkpt lat="43.79963" lon="7.05997">
        <ele>1386.4</ele>
        <time>2019-12-30T14:02:44Z</time>
      </trkpt>
      <trkpt lat="43.79963" lon="7.05997">
        <ele>1386.4</ele>
        <time>2019-12-30T14:02:45Z</time>
      </trkpt>
      <trkpt lat="43.79963" lon="7.05997">
        <ele>1386.4</ele>
        <time>2019-12-30T14:02:46Z</time>
      </trkpt>
      <trkpt lat="43.79963" lon="7.05997">
        <ele>1386.4</ele>
        <time>2019-12-30T14:02:47Z</time>
      </trkpt>
      <trkpt lat="43.79963" lon="7.05997">
        <ele>1386.4</ele>
        <time>2019-12-30T14:02:48Z</time>
      </trkpt>
      <trkpt lat="43.79963" lon="7.05997">
        <ele>1386.4</ele>
        <time>2019-12-30T14:02:49Z</time>
      </trkpt>
      <trkpt lat="43.79963" lon="7.05997">
        <ele>1386.4</ele>
        <time>2019-12-30T14:02:50Z</time>
      </trkpt>
      <trkpt lat="43.79963" lon="7.05997">
        <ele>1386.4</ele>
        <time>2019-12-30T14:02:51Z</time>
      </trkpt>
      <trkpt lat="43.79963" lon="7.05997">
        <ele>1386.4</ele>
        <time>2019-12-30T14:02:52Z</time>
      </trkpt>
      <trkpt lat="43.79963" lon="7.05997">
        <ele>1386.4</ele>
        <time>2019-12-30T14:02:53Z</time>
      </trkpt>
      <trkpt lat="43.79963" lon="7.05997">
        <ele>1386.4</ele>
        <time>2019-12-30T14:02:54Z</time>
      </trkpt>
      <trkpt lat="43.79963" lon="7.05997">
        <ele>1386.4</ele>
        <time>2019-12-30T14:02:55Z</time>
      </trkpt>
      <trkpt lat="43.79963" lon="7.05997">
        <ele>1386.4</ele>
        <time>2019-12-30T14:02:56Z</time>
      </trkpt>
      <trkpt lat="43.79963" lon="7.05997">
        <ele>1386.4</ele>
        <time>2019-12-30T14:02:57Z</time>
      </trkpt>
      <trkpt lat="43.79963" lon="7.05997">
        <ele>1386.4</ele>
        <time>2019-12-30T14:02:58Z</time>
      </trkpt>
      <trkpt lat="43.79963" lon="7.05997">
        <ele>1386.4</ele>
        <time>2019-12-30T14:02:59Z</time>
      </trkpt>
      <trkpt lat="43.79963" lon="7.05997">
        <ele>1386.4</ele>
        <time>2019-12-30T14:03:00Z</time>
      </trkpt>
      <trkpt lat="43.79963" lon="7.05997">
        <ele>1386.4</ele>
        <time>2019-12-30T14:03:01Z</time>
      </trkpt>
      <trkpt lat="43.79963" lon="7.05997">
        <ele>1386.4</ele>
        <time>2019-12-30T14:03:02Z</time>
      </trkpt>
      <trkpt lat="43.79963" lon="7.05997">
        <ele>1386.4</ele>
        <time>2019-12-30T14:03:03Z</time>
      </trkpt>
      <trkpt lat="43.79963" lon="7.05997">
        <ele>1386.4</ele>
        <time>2019-12-30T14:03:04Z</time>
      </trkpt>
      <trkpt lat="43.79963" lon="7.05997">
        <ele>1386.4</ele>
        <time>2019-12-30T14:03:05Z</time>
      </trkpt>
      <trkpt lat="43.79963" lon="7.05997">
        <ele>1386.4</ele>
        <time>2019-12-30T14:03:06Z</time>
      </trkpt>
      <trkpt lat="43.79963" lon="7.05997">
        <ele>1386.4</ele>
        <time>2019-12-30T14:03:07Z</time>
      </trkpt>
      <trkpt lat="43.79963" lon="7.05997">
        <ele>1386.4</ele>
        <time>2019-12-30T14:03:08Z</time>
      </trkpt>
      <trkpt lat="43.79963" lon="7.05997">
        <ele>1386.4</ele>
        <time>2019-12-30T14:03:09Z</time>
      </trkpt>
      <trkpt lat="43.79963" lon="7.05997">
        <ele>1386.4</ele>
        <time>2019-12-30T14:03:10Z</time>
      </trkpt>
      <trkpt lat="43.79963" lon="7.05997">
        <ele>1386.4</ele>
        <time>2019-12-30T14:03:11Z</time>
      </trkpt>
      <trkpt lat="43.79963" lon="7.05997">
        <ele>1386.4</ele>
        <time>2019-12-30T14:03:12Z</time>
      </trkpt>
      <trkpt lat="43.79963" lon="7.05997">
        <ele>1386.4</ele>
        <time>2019-12-30T14:03:13Z</time>
      </trkpt>
      <trkpt lat="43.79963" lon="7.05997">
        <ele>1386.4</ele>
        <time>2019-12-30T14:03:14Z</time>
      </trkpt>
      <trkpt lat="43.79963" lon="7.05997">
        <ele>1386.4</ele>
        <time>2019-12-30T14:03:15Z</time>
      </trkpt>
      <trkpt lat="43.79963" lon="7.05997">
        <ele>1386.4</ele>
        <time>2019-12-30T14:03:16Z</time>
      </trkpt>
      <trkpt lat="43.79963" lon="7.05997">
        <ele>1386.4</ele>
        <time>2019-12-30T14:03:17Z</time>
      </trkpt>
      <trkpt lat="43.79963" lon="7.05997">
        <ele>1386.4</ele>
        <time>2019-12-30T14:03:18Z</time>
      </trkpt>
      <trkpt lat="43.79963" lon="7.05997">
        <ele>1386.4</ele>
        <time>2019-12-30T14:03:19Z</time>
      </trkpt>
      <trkpt lat="43.79963" lon="7.05997">
        <ele>1386.4</ele>
        <time>2019-12-30T14:03:20Z</time>
      </trkpt>
      <trkpt lat="43.79963" lon="7.05997">
        <ele>1386.4</ele>
        <time>2019-12-30T14:03:21Z</time>
      </trkpt>
      <trkpt lat="43.79963" lon="7.05997">
        <ele>1386.4</ele>
        <time>2019-12-30T14:03:22Z</time>
      </trkpt>
      <trkpt lat="43.79963" lon="7.05997">
        <ele>1386.4</ele>
        <time>2019-12-30T14:03:23Z</time>
      </trkpt>
      <trkpt lat="43.79963" lon="7.05997">
        <ele>1386.4</ele>
        <time>2019-12-30T14:03:24Z</time>
      </trkpt>
      <trkpt lat="43.79963" lon="7.05997">
        <ele>1386.4</ele>
        <time>2019-12-30T14:03:25Z</time>
      </trkpt>
      <trkpt lat="43.79963" lon="7.05997">
        <ele>1386.4</ele>
        <time>2019-12-30T14:03:26Z</time>
      </trkpt>
      <trkpt lat="43.79963" lon="7.05997">
        <ele>1386.4</ele>
        <time>2019-12-30T14:03:27Z</time>
      </trkpt>
      <trkpt lat="43.79963" lon="7.05997">
        <ele>1386.4</ele>
        <time>2019-12-30T14:03:28Z</time>
      </trkpt>
      <trkpt lat="43.79963" lon="7.05997">
        <ele>1386.4</ele>
        <time>2019-12-30T14:03:29Z</time>
      </trkpt>
      <trkpt lat="43.79963" lon="7.05997">
        <ele>1386.4</ele>
        <time>2019-12-30T14:03:30Z</time>
      </trkpt>
      <trkpt lat="43.79963" lon="7.05997">
        <ele>1386.4</ele>
        <time>2019-12-30T14:03:31Z</time>
      </trkpt>
      <trkpt lat="43.79963" lon="7.05997">
        <ele>1386.4</ele>
        <time>2019-12-30T14:03:32Z</time>
      </trkpt>
      <trkpt lat="43.79963" lon="7.05997">
        <ele>1386.4</ele>
        <time>2019-12-30T14:03:33Z</time>
      </trkpt>
      <trkpt lat="43.79963" lon="7.05997">
        <ele>1386.4</ele>
        <time>2019-12-30T14:03:34Z</time>
      </trkpt>
      <trkpt lat="43.79963" lon="7.05997">
        <ele>1386.4</ele>
        <time>2019-12-30T14:03:35Z</time>
      </trkpt>
      <trkpt lat="43.79963" lon="7.05997">
        <ele>1386.4</ele>
        <time>2019-12-30T14:03:36Z</time>
      </trkpt>
      <trkpt lat="43.79963" lon="7.05997">
        <ele>1386.4</ele>
        <time>2019-12-30T14:03:37Z</time>
      </trkpt>
      <trkpt lat="43.79963" lon="7.05997">
        <ele>1386.4</ele>
        <time>2019-12-30T14:03:38Z</time>
      </trkpt>
      <trkpt lat="43.79963" lon="7.05997">
        <ele>1386.4</ele>
        <time>2019-12-30T14:03:39Z</time>
      </trkpt>
      <trkpt lat="43.79963" lon="7.05997">
        <ele>1386.4</ele>
        <time>2019-12-30T14:03:40Z</time>
      </trkpt>
      <trkpt lat="43.79963" lon="7.05997">
        <ele>1386.4</ele>
        <time>2019-12-30T14:03:41Z</time>
      </trkpt>
      <trkpt lat="43.79963" lon="7.05997">
        <ele>1386.4</ele>
        <time>2019-12-30T14:03:42Z</time>
      </trkpt>
      <trkpt lat="43.79963" lon="7.05997">
        <ele>1386.4</ele>
        <time>2019-12-30T14:03:43Z</time>
      </trkpt>
      <trkpt lat="43.79963" lon="7.05997">
        <ele>1386.4</ele>
        <time>2019-12-30T14:03:44Z</time>
      </trkpt>
      <trkpt lat="43.79963" lon="7.05997">
        <ele>1386.4</ele>
        <time>2019-12-30T14:03:45Z</time>
      </trkpt>
      <trkpt lat="43.79963" lon="7.05997">
        <ele>1386.4</ele>
        <time>2019-12-30T14:03:46Z</time>
      </trkpt>
      <trkpt lat="43.79963" lon="7.05997">
        <ele>1386.4</ele>
        <time>2019-12-30T14:03:47Z</time>
      </trkpt>
      <trkpt lat="43.79963" lon="7.05997">
        <ele>1386.4</ele>
        <time>2019-12-30T14:03:48Z</time>
      </trkpt>
      <trkpt lat="43.79963" lon="7.05997">
        <ele>1386.4</ele>
        <time>2019-12-30T14:03:49Z</time>
      </trkpt>
      <trkpt lat="43.79963" lon="7.05997">
        <ele>1386.4</ele>
        <time>2019-12-30T14:03:50Z</time>
      </trkpt>
      <trkpt lat="43.79963" lon="7.05997">
        <ele>1386.4</ele>
        <time>2019-12-30T14:03:51Z</time>
      </trkpt>
      <trkpt lat="43.79963" lon="7.05997">
        <ele>1386.4</ele>
        <time>2019-12-30T14:03:52Z</time>
      </trkpt>
      <trkpt lat="43.79963" lon="7.05997">
        <ele>1386.4</ele>
        <time>2019-12-30T14:03:53Z</time>
      </trkpt>
      <trkpt lat="43.79963" lon="7.05997">
        <ele>1386.4</ele>
        <time>2019-12-30T14:03:54Z</time>
      </trkpt>
      <trkpt lat="43.79963" lon="7.05997">
        <ele>1386.4</ele>
        <time>2019-12-30T14:03:55Z</time>
      </trkpt>
      <trkpt lat="43.79963" lon="7.05997">
        <ele>1386.4</ele>
        <time>2019-12-30T14:03:56Z</time>
      </trkpt>
      <trkpt lat="43.79963" lon="7.05997">
        <ele>1386.4</ele>
        <time>2019-12-30T14:03:57Z</time>
      </trkpt>
      <trkpt lat="43.79963" lon="7.05997">
        <ele>1386.4</ele>
        <time>2019-12-30T14:03:58Z</time>
      </trkpt>
      <trkpt lat="43.79963" lon="7.05997">
        <ele>1386.4</ele>
        <time>2019-12-30T14:03:59Z</time>
      </trkpt>
      <trkpt lat="43.79963" lon="7.05997">
        <ele>1386.4</ele>
        <time>2019-12-30T14:04:00Z</time>
      </trkpt>
      <trkpt lat="43.79963" lon="7.05997">
        <ele>1386.4</ele>
        <time>2019-12-30T14:04:01Z</time>
      </trkpt>
      <trkpt lat="43.79963" lon="7.05997">
        <ele>1386.4</ele>
        <time>2019-12-30T14:04:02Z</time>
      </trkpt>
      <trkpt lat="43.79963" lon="7.05997">
        <ele>1386.4</ele>
        <time>2019-12-30T14:04:03Z</time>
      </trkpt>
      <trkpt lat="43.79963" lon="7.05997">
        <ele>1386.4</ele>
        <time>2019-12-30T14:04:04Z</time>
      </trkpt>
      <trkpt lat="43.79963" lon="7.05997">
        <ele>1386.4</ele>
        <time>2019-12-30T14:04:05Z</time>
      </trkpt>
      <trkpt lat="43.79963" lon="7.05997">
        <ele>1386.4</ele>
        <time>2019-12-30T14:04:06Z</time>
      </trkpt>
      <trkpt lat="43.79963" lon="7.05997">
        <ele>1386.4</ele>
        <time>2019-12-30T14:04:07Z</time>
      </trkpt>
      <trkpt lat="43.79963" lon="7.05997">
        <ele>1386.3</ele>
        <time>2019-12-30T14:04:08Z</time>
      </trkpt>
      <trkpt lat="43.79964" lon="7.05997">
        <ele>1386.3</ele>
        <time>2019-12-30T14:04:09Z</time>
      </trkpt>
      <trkpt lat="43.79964" lon="7.05997">
        <ele>1386.3</ele>
        <time>2019-12-30T14:04:10Z</time>
      </trkpt>
      <trkpt lat="43.79965" lon="7.05996">
        <ele>1386.3</ele>
        <time>2019-12-30T14:04:11Z</time>
      </trkpt>
      <trkpt lat="43.79965" lon="7.05996">
        <ele>1386.2</ele>
        <time>2019-12-30T14:04:12Z</time>
      </trkpt>
      <trkpt lat="43.79965" lon="7.05995">
        <ele>1386.2</ele>
        <time>2019-12-30T14:04:13Z</time>
      </trkpt>
      <trkpt lat="43.79966" lon="7.05995">
        <ele>1386.2</ele>
        <time>2019-12-30T14:04:14Z</time>
      </trkpt>
      <trkpt lat="43.79966" lon="7.05995">
        <ele>1386.2</ele>
        <time>2019-12-30T14:04:15Z</time>
      </trkpt>
      <trkpt lat="43.79966" lon="7.05995">
        <ele>1386</ele>
        <time>2019-12-30T14:04:16Z</time>
      </trkpt>
      <trkpt lat="43.79966" lon="7.05995">
        <ele>1386</ele>
        <time>2019-12-30T14:04:17Z</time>
      </trkpt>
      <trkpt lat="43.79966" lon="7.05995">
        <ele>1386</ele>
        <time>2019-12-30T14:04:18Z</time>
      </trkpt>
      <trkpt lat="43.79966" lon="7.05995">
        <ele>1386</ele>
        <time>2019-12-30T14:04:19Z</time>
      </trkpt>
      <trkpt lat="43.79966" lon="7.05995">
        <ele>1386</ele>
        <time>2019-12-30T14:04:20Z</time>
      </trkpt>
      <trkpt lat="43.79966" lon="7.05995">
        <ele>1386</ele>
        <time>2019-12-30T14:04:21Z</time>
      </trkpt>
      <trkpt lat="43.79966" lon="7.05995">
        <ele>1386</ele>
        <time>2019-12-30T14:04:22Z</time>
      </trkpt>
      <trkpt lat="43.79966" lon="7.05995">
        <ele>1386</ele>
        <time>2019-12-30T14:04:23Z</time>
      </trkpt>
      <trkpt lat="43.79966" lon="7.05995">
        <ele>1386</ele>
        <time>2019-12-30T14:04:24Z</time>
      </trkpt>
      <trkpt lat="43.79966" lon="7.05995">
        <ele>1386</ele>
        <time>2019-12-30T14:04:25Z</time>
      </trkpt>
      <trkpt lat="43.79966" lon="7.05995">
        <ele>1386</ele>
        <time>2019-12-30T14:04:26Z</time>
      </trkpt>
      <trkpt lat="43.79966" lon="7.05995">
        <ele>1386</ele>
        <time>2019-12-30T14:04:27Z</time>
      </trkpt>
      <trkpt lat="43.79966" lon="7.05995">
        <ele>1386</ele>
        <time>2019-12-30T14:04:28Z</time>
      </trkpt>
      <trkpt lat="43.79966" lon="7.05995">
        <ele>1386</ele>
        <time>2019-12-30T14:04:29Z</time>
      </trkpt>
      <trkpt lat="43.79966" lon="7.05995">
        <ele>1386</ele>
        <time>2019-12-30T14:04:30Z</time>
      </trkpt>
      <trkpt lat="43.79966" lon="7.05995">
        <ele>1386</ele>
        <time>2019-12-30T14:04:31Z</time>
      </trkpt>
      <trkpt lat="43.79966" lon="7.05995">
        <ele>1386</ele>
        <time>2019-12-30T14:04:32Z</time>
      </trkpt>
      <trkpt lat="43.79966" lon="7.05995">
        <ele>1386</ele>
        <time>2019-12-30T14:04:33Z</time>
      </trkpt>
      <trkpt lat="43.79966" lon="7.05995">
        <ele>1386</ele>
        <time>2019-12-30T14:04:34Z</time>
      </trkpt>
      <trkpt lat="43.79966" lon="7.05995">
        <ele>1386</ele>
        <time>2019-12-30T14:04:35Z</time>
      </trkpt>
      <trkpt lat="43.79966" lon="7.05995">
        <ele>1386</ele>
        <time>2019-12-30T14:04:36Z</time>
      </trkpt>
      <trkpt lat="43.79966" lon="7.05995">
        <ele>1386</ele>
        <time>2019-12-30T14:04:37Z</time>
      </trkpt>
      <trkpt lat="43.79966" lon="7.05995">
        <ele>1386</ele>
        <time>2019-12-30T14:04:38Z</time>
      </trkpt>
      <trkpt lat="43.79966" lon="7.05995">
        <ele>1386</ele>
        <time>2019-12-30T14:04:39Z</time>
      </trkpt>
      <trkpt lat="43.79966" lon="7.05995">
        <ele>1386</ele>
        <time>2019-12-30T14:04:40Z</time>
      </trkpt>
      <trkpt lat="43.79966" lon="7.05995">
        <ele>1386</ele>
        <time>2019-12-30T14:04:41Z</time>
      </trkpt>
      <trkpt lat="43.79966" lon="7.05995">
        <ele>1386</ele>
        <time>2019-12-30T14:04:42Z</time>
      </trkpt>
      <trkpt lat="43.79966" lon="7.05995">
        <ele>1386</ele>
        <time>2019-12-30T14:04:43Z</time>
      </trkpt>
      <trkpt lat="43.79966" lon="7.05995">
        <ele>1386</ele>
        <time>2019-12-30T14:04:44Z</time>
      </trkpt>
      <trkpt lat="43.79966" lon="7.05995">
        <ele>1386</ele>
        <time>2019-12-30T14:04:45Z</time>
      </trkpt>
      <trkpt lat="43.79966" lon="7.05995">
        <ele>1386</ele>
        <time>2019-12-30T14:04:46Z</time>
      </trkpt>
      <trkpt lat="43.79966" lon="7.05995">
        <ele>1386</ele>
        <time>2019-12-30T14:04:47Z</time>
      </trkpt>
      <trkpt lat="43.79966" lon="7.05995">
        <ele>1386</ele>
        <time>2019-12-30T14:04:48Z</time>
      </trkpt>
      <trkpt lat="43.79966" lon="7.05995">
        <ele>1386</ele>
        <time>2019-12-30T14:04:49Z</time>
      </trkpt>
      <trkpt lat="43.79966" lon="7.05995">
        <ele>1386</ele>
        <time>2019-12-30T14:04:50Z</time>
      </trkpt>
      <trkpt lat="43.79966" lon="7.05995">
        <ele>1386</ele>
        <time>2019-12-30T14:04:51Z</time>
      </trkpt>
      <trkpt lat="43.79966" lon="7.05995">
        <ele>1386</ele>
        <time>2019-12-30T14:04:52Z</time>
      </trkpt>
      <trkpt lat="43.79966" lon="7.05995">
        <ele>1386</ele>
        <time>2019-12-30T14:04:53Z</time>
      </trkpt>
      <trkpt lat="43.79966" lon="7.05995">
        <ele>1386.2</ele>
        <time>2019-12-30T14:04:54Z</time>
      </trkpt>
      <trkpt lat="43.79965" lon="7.05995">
        <ele>1386.2</ele>
        <time>2019-12-30T14:04:55Z</time>
      </trkpt>
      <trkpt lat="43.79965" lon="7.05995">
        <ele>1386.2</ele>
        <time>2019-12-30T14:04:56Z</time>
      </trkpt>
      <trkpt lat="43.79965" lon="7.05995">
        <ele>1386.2</ele>
        <time>2019-12-30T14:04:57Z</time>
      </trkpt>
      <trkpt lat="43.79965" lon="7.05995">
        <ele>1386.2</ele>
        <time>2019-12-30T14:04:58Z</time>
      </trkpt>
      <trkpt lat="43.79965" lon="7.05995">
        <ele>1386.2</ele>
        <time>2019-12-30T14:04:59Z</time>
      </trkpt>
      <trkpt lat="43.79965" lon="7.05995">
        <ele>1386.2</ele>
        <time>2019-12-30T14:05:00Z</time>
      </trkpt>
      <trkpt lat="43.79965" lon="7.05995">
        <ele>1386.2</ele>
        <time>2019-12-30T14:05:01Z</time>
      </trkpt>
      <trkpt lat="43.79964" lon="7.05995">
        <ele>1386.2</ele>
        <time>2019-12-30T14:05:02Z</time>
      </trkpt>
      <trkpt lat="43.79964" lon="7.05995">
        <ele>1386.2</ele>
        <time>2019-12-30T14:05:03Z</time>
      </trkpt>
      <trkpt lat="43.79964" lon="7.05995">
        <ele>1386.2</ele>
        <time>2019-12-30T14:05:04Z</time>
      </trkpt>
      <trkpt lat="43.79963" lon="7.05995">
        <ele>1386.2</ele>
        <time>2019-12-30T14:05:05Z</time>
      </trkpt>
      <trkpt lat="43.79963" lon="7.05995">
        <ele>1386.2</ele>
        <time>2019-12-30T14:05:06Z</time>
      </trkpt>
      <trkpt lat="43.79963" lon="7.05995">
        <ele>1386.3</ele>
        <time>2019-12-30T14:05:07Z</time>
      </trkpt>
      <trkpt lat="43.79963" lon="7.05995">
        <ele>1386.3</ele>
        <time>2019-12-30T14:05:08Z</time>
      </trkpt>
      <trkpt lat="43.79962" lon="7.05995">
        <ele>1386.3</ele>
        <time>2019-12-30T14:05:09Z</time>
      </trkpt>
      <trkpt lat="43.79962" lon="7.05995">
        <ele>1386.3</ele>
        <time>2019-12-30T14:05:10Z</time>
      </trkpt>
      <trkpt lat="43.79962" lon="7.05995">
        <ele>1386.3</ele>
        <time>2019-12-30T14:05:11Z</time>
      </trkpt>
      <trkpt lat="43.79962" lon="7.05995">
        <ele>1386.3</ele>
        <time>2019-12-30T14:05:12Z</time>
      </trkpt>
      <trkpt lat="43.79962" lon="7.05995">
        <ele>1386.3</ele>
        <time>2019-12-30T14:05:13Z</time>
      </trkpt>
      <trkpt lat="43.79962" lon="7.05995">
        <ele>1386.3</ele>
        <time>2019-12-30T14:05:14Z</time>
      </trkpt>
      <trkpt lat="43.79962" lon="7.05995">
        <ele>1386.3</ele>
        <time>2019-12-30T14:05:15Z</time>
      </trkpt>
      <trkpt lat="43.79962" lon="7.05995">
        <ele>1386.3</ele>
        <time>2019-12-30T14:05:16Z</time>
      </trkpt>
      <trkpt lat="43.79962" lon="7.05995">
        <ele>1386.3</ele>
        <time>2019-12-30T14:05:17Z</time>
      </trkpt>
      <trkpt lat="43.79962" lon="7.05995">
        <ele>1386.3</ele>
        <time>2019-12-30T14:05:18Z</time>
      </trkpt>
      <trkpt lat="43.79961" lon="7.05995">
        <ele>1386.3</ele>
        <time>2019-12-30T14:05:19Z</time>
      </trkpt>
      <trkpt lat="43.79961" lon="7.05995">
        <ele>1386.3</ele>
        <time>2019-12-30T14:05:20Z</time>
      </trkpt>
      <trkpt lat="43.79961" lon="7.05995">
        <ele>1386.3</ele>
        <time>2019-12-30T14:05:21Z</time>
      </trkpt>
      <trkpt lat="43.79961" lon="7.05995">
        <ele>1386.3</ele>
        <time>2019-12-30T14:05:22Z</time>
      </trkpt>
      <trkpt lat="43.7996" lon="7.05995">
        <ele>1386.3</ele>
        <time>2019-12-30T14:05:23Z</time>
      </trkpt>
      <trkpt lat="43.7996" lon="7.05995">
        <ele>1386.3</ele>
        <time>2019-12-30T14:05:24Z</time>
      </trkpt>
      <trkpt lat="43.7996" lon="7.05995">
        <ele>1386.5</ele>
        <time>2019-12-30T14:05:25Z</time>
      </trkpt>
      <trkpt lat="43.79959" lon="7.05995">
        <ele>1386.5</ele>
        <time>2019-12-30T14:05:26Z</time>
      </trkpt>
      <trkpt lat="43.79959" lon="7.05995">
        <ele>1386.5</ele>
        <time>2019-12-30T14:05:27Z</time>
      </trkpt>
      <trkpt lat="43.79959" lon="7.05995">
        <ele>1386.5</ele>
        <time>2019-12-30T14:05:28Z</time>
      </trkpt>
      <trkpt lat="43.79959" lon="7.05995">
        <ele>1386.5</ele>
        <time>2019-12-30T14:05:29Z</time>
      </trkpt>
      <trkpt lat="43.79958" lon="7.05995">
        <ele>1386.5</ele>
        <time>2019-12-30T14:05:30Z</time>
      </trkpt>
      <trkpt lat="43.79958" lon="7.05995">
        <ele>1386.5</ele>
        <time>2019-12-30T14:05:31Z</time>
      </trkpt>
      <trkpt lat="43.79958" lon="7.05995">
        <ele>1386.5</ele>
        <time>2019-12-30T14:05:32Z</time>
      </trkpt>
      <trkpt lat="43.79958" lon="7.05995">
        <ele>1386.5</ele>
        <time>2019-12-30T14:05:33Z</time>
      </trkpt>
      <trkpt lat="43.79958" lon="7.05995">
        <ele>1386.5</ele>
        <time>2019-12-30T14:05:34Z</time>
      </trkpt>
      <trkpt lat="43.79958" lon="7.05995">
        <ele>1386.5</ele>
        <time>2019-12-30T14:05:35Z</time>
      </trkpt>
      <trkpt lat="43.79958" lon="7.05995">
        <ele>1386.5</ele>
        <time>2019-12-30T14:05:36Z</time>
      </trkpt>
      <trkpt lat="43.79958" lon="7.05995">
        <ele>1386.5</ele>
        <time>2019-12-30T14:05:37Z</time>
      </trkpt>
      <trkpt lat="43.79958" lon="7.05995">
        <ele>1386.5</ele>
        <time>2019-12-30T14:05:38Z</time>
      </trkpt>
      <trkpt lat="43.79958" lon="7.05995">
        <ele>1386.5</ele>
        <time>2019-12-30T14:05:39Z</time>
      </trkpt>
      <trkpt lat="43.79958" lon="7.05995">
        <ele>1386.5</ele>
        <time>2019-12-30T14:05:40Z</time>
      </trkpt>
      <trkpt lat="43.79958" lon="7.05995">
        <ele>1386.5</ele>
        <time>2019-12-30T14:05:41Z</time>
      </trkpt>
      <trkpt lat="43.79958" lon="7.05995">
        <ele>1386.5</ele>
        <time>2019-12-30T14:05:42Z</time>
      </trkpt>
      <trkpt lat="43.79958" lon="7.05995">
        <ele>1386.5</ele>
        <time>2019-12-30T14:05:43Z</time>
      </trkpt>
      <trkpt lat="43.79957" lon="7.05995">
        <ele>1386.5</ele>
        <time>2019-12-30T14:05:44Z</time>
      </trkpt>
      <trkpt lat="43.79957" lon="7.05995">
        <ele>1386.5</ele>
        <time>2019-12-30T14:05:45Z</time>
      </trkpt>
      <trkpt lat="43.79957" lon="7.05995">
        <ele>1386.5</ele>
        <time>2019-12-30T14:05:46Z</time>
      </trkpt>
      <trkpt lat="43.79957" lon="7.05995">
        <ele>1386.5</ele>
        <time>2019-12-30T14:05:47Z</time>
      </trkpt>
      <trkpt lat="43.79957" lon="7.05995">
        <ele>1386.5</ele>
        <time>2019-12-30T14:05:48Z</time>
      </trkpt>
      <trkpt lat="43.79957" lon="7.05995">
        <ele>1386.5</ele>
        <time>2019-12-30T14:05:49Z</time>
      </trkpt>
      <trkpt lat="43.79957" lon="7.05996">
        <ele>1386.5</ele>
        <time>2019-12-30T14:05:50Z</time>
      </trkpt>
      <trkpt lat="43.79957" lon="7.05996">
        <ele>1386.7</ele>
        <time>2019-12-30T14:05:51Z</time>
      </trkpt>
      <trkpt lat="43.79957" lon="7.05996">
        <ele>1386.5</ele>
        <time>2019-12-30T14:05:52Z</time>
      </trkpt>
      <trkpt lat="43.79957" lon="7.05996">
        <ele>1386.5</ele>
        <time>2019-12-30T14:05:53Z</time>
      </trkpt>
      <trkpt lat="43.79957" lon="7.05996">
        <ele>1386.5</ele>
        <time>2019-12-30T14:05:54Z</time>
      </trkpt>
      <trkpt lat="43.79957" lon="7.05996">
        <ele>1386.5</ele>
        <time>2019-12-30T14:05:55Z</time>
      </trkpt>
      <trkpt lat="43.79957" lon="7.05996">
        <ele>1386.5</ele>
        <time>2019-12-30T14:05:56Z</time>
      </trkpt>
      <trkpt lat="43.79957" lon="7.05996">
        <ele>1386.5</ele>
        <time>2019-12-30T14:05:57Z</time>
      </trkpt>
      <trkpt lat="43.79957" lon="7.05996">
        <ele>1386.5</ele>
        <time>2019-12-30T14:05:58Z</time>
      </trkpt>
      <trkpt lat="43.79958" lon="7.05996">
        <ele>1386.5</ele>
        <time>2019-12-30T14:05:59Z</time>
      </trkpt>
      <trkpt lat="43.79958" lon="7.05996">
        <ele>1386.5</ele>
        <time>2019-12-30T14:06:00Z</time>
      </trkpt>
      <trkpt lat="43.79958" lon="7.05996">
        <ele>1386.5</ele>
        <time>2019-12-30T14:06:01Z</time>
      </trkpt>
      <trkpt lat="43.79958" lon="7.05996">
        <ele>1386.5</ele>
        <time>2019-12-30T14:06:02Z</time>
      </trkpt>
      <trkpt lat="43.79958" lon="7.05996">
        <ele>1386.5</ele>
        <time>2019-12-30T14:06:03Z</time>
      </trkpt>
      <trkpt lat="43.79958" lon="7.05996">
        <ele>1386.5</ele>
        <time>2019-12-30T14:06:04Z</time>
      </trkpt>
      <trkpt lat="43.79958" lon="7.05996">
        <ele>1386.5</ele>
        <time>2019-12-30T14:06:05Z</time>
      </trkpt>
      <trkpt lat="43.79958" lon="7.05996">
        <ele>1386.5</ele>
        <time>2019-12-30T14:06:06Z</time>
      </trkpt>
      <trkpt lat="43.79958" lon="7.05995">
        <ele>1386.5</ele>
        <time>2019-12-30T14:06:07Z</time>
      </trkpt>
      <trkpt lat="43.79958" lon="7.05995">
        <ele>1386.5</ele>
        <time>2019-12-30T14:06:08Z</time>
      </trkpt>
      <trkpt lat="43.79958" lon="7.05995">
        <ele>1386.5</ele>
        <time>2019-12-30T14:06:09Z</time>
      </trkpt>
      <trkpt lat="43.79958" lon="7.05995">
        <ele>1386.5</ele>
        <time>2019-12-30T14:06:10Z</time>
      </trkpt>
      <trkpt lat="43.79957" lon="7.05995">
        <ele>1386.5</ele>
        <time>2019-12-30T14:06:11Z</time>
      </trkpt>
      <trkpt lat="43.79957" lon="7.05995">
        <ele>1386.5</ele>
        <time>2019-12-30T14:06:12Z</time>
      </trkpt>
      <trkpt lat="43.79957" lon="7.05994">
        <ele>1386.5</ele>
        <time>2019-12-30T14:06:13Z</time>
      </trkpt>
      <trkpt lat="43.79957" lon="7.05994">
        <ele>1386.7</ele>
        <time>2019-12-30T14:06:14Z</time>
      </trkpt>
      <trkpt lat="43.79956" lon="7.05994">
        <ele>1386.7</ele>
        <time>2019-12-30T14:06:15Z</time>
      </trkpt>
      <trkpt lat="43.79956" lon="7.05994">
        <ele>1386.7</ele>
        <time>2019-12-30T14:06:16Z</time>
      </trkpt>
      <trkpt lat="43.79956" lon="7.05994">
        <ele>1386.7</ele>
        <time>2019-12-30T14:06:17Z</time>
      </trkpt>
      <trkpt lat="43.79956" lon="7.05994">
        <ele>1386.7</ele>
        <time>2019-12-30T14:06:18Z</time>
      </trkpt>
      <trkpt lat="43.79956" lon="7.05994">
        <ele>1386.7</ele>
        <time>2019-12-30T14:06:19Z</time>
      </trkpt>
      <trkpt lat="43.79956" lon="7.05994">
        <ele>1386.7</ele>
        <time>2019-12-30T14:06:20Z</time>
      </trkpt>
      <trkpt lat="43.79956" lon="7.05994">
        <ele>1386.7</ele>
        <time>2019-12-30T14:06:21Z</time>
      </trkpt>
      <trkpt lat="43.79955" lon="7.05994">
        <ele>1386.7</ele>
        <time>2019-12-30T14:06:22Z</time>
      </trkpt>
      <trkpt lat="43.79955" lon="7.05994">
        <ele>1386.7</ele>
        <time>2019-12-30T14:06:23Z</time>
      </trkpt>
      <trkpt lat="43.79955" lon="7.05994">
        <ele>1386.7</ele>
        <time>2019-12-30T14:06:24Z</time>
      </trkpt>
      <trkpt lat="43.79956" lon="7.05994">
        <ele>1386.7</ele>
        <time>2019-12-30T14:06:25Z</time>
      </trkpt>
      <trkpt lat="43.79956" lon="7.05994">
        <ele>1386.7</ele>
        <time>2019-12-30T14:06:26Z</time>
      </trkpt>
      <trkpt lat="43.79956" lon="7.05994">
        <ele>1386.7</ele>
        <time>2019-12-30T14:06:27Z</time>
      </trkpt>
      <trkpt lat="43.79956" lon="7.05994">
        <ele>1386.7</ele>
        <time>2019-12-30T14:06:28Z</time>
      </trkpt>
      <trkpt lat="43.79956" lon="7.05994">
        <ele>1386.7</ele>
        <time>2019-12-30T14:06:29Z</time>
      </trkpt>
      <trkpt lat="43.79956" lon="7.05994">
        <ele>1386.7</ele>
        <time>2019-12-30T14:06:30Z</time>
      </trkpt>
      <trkpt lat="43.79956" lon="7.05994">
        <ele>1386.7</ele>
        <time>2019-12-30T14:06:31Z</time>
      </trkpt>
      <trkpt lat="43.79956" lon="7.05994">
        <ele>1386.7</ele>
        <time>2019-12-30T14:06:32Z</time>
      </trkpt>
      <trkpt lat="43.79956" lon="7.05994">
        <ele>1386.7</ele>
        <time>2019-12-30T14:06:33Z</time>
      </trkpt>
      <trkpt lat="43.79956" lon="7.05994">
        <ele>1386.7</ele>
        <time>2019-12-30T14:06:34Z</time>
      </trkpt>
      <trkpt lat="43.79956" lon="7.05994">
        <ele>1386.7</ele>
        <time>2019-12-30T14:06:35Z</time>
      </trkpt>
      <trkpt lat="43.79956" lon="7.05994">
        <ele>1386.7</ele>
        <time>2019-12-30T14:06:36Z</time>
      </trkpt>
      <trkpt lat="43.79956" lon="7.05994">
        <ele>1386.7</ele>
        <time>2019-12-30T14:06:37Z</time>
      </trkpt>
      <trkpt lat="43.79957" lon="7.05994">
        <ele>1386.7</ele>
        <time>2019-12-30T14:06:38Z</time>
      </trkpt>
      <trkpt lat="43.79957" lon="7.05994">
        <ele>1386.7</ele>
        <time>2019-12-30T14:06:39Z</time>
      </trkpt>
      <trkpt lat="43.79957" lon="7.05994">
        <ele>1386.7</ele>
        <time>2019-12-30T14:06:40Z</time>
      </trkpt>
      <trkpt lat="43.79957" lon="7.05994">
        <ele>1386.7</ele>
        <time>2019-12-30T14:06:41Z</time>
      </trkpt>
      <trkpt lat="43.79957" lon="7.05994">
        <ele>1386.5</ele>
        <time>2019-12-30T14:06:42Z</time>
      </trkpt>
      <trkpt lat="43.79957" lon="7.05994">
        <ele>1386.5</ele>
        <time>2019-12-30T14:06:43Z</time>
      </trkpt>
      <trkpt lat="43.79957" lon="7.05994">
        <ele>1386.5</ele>
        <time>2019-12-30T14:06:44Z</time>
      </trkpt>
      <trkpt lat="43.79957" lon="7.05994">
        <ele>1386.5</ele>
        <time>2019-12-30T14:06:45Z</time>
      </trkpt>
      <trkpt lat="43.79957" lon="7.05994">
        <ele>1386.5</ele>
        <time>2019-12-30T14:06:46Z</time>
      </trkpt>
      <trkpt lat="43.79957" lon="7.05994">
        <ele>1386.5</ele>
        <time>2019-12-30T14:06:47Z</time>
      </trkpt>
      <trkpt lat="43.79957" lon="7.05994">
        <ele>1386.5</ele>
        <time>2019-12-30T14:06:48Z</time>
      </trkpt>
      <trkpt lat="43.79957" lon="7.05994">
        <ele>1386.5</ele>
        <time>2019-12-30T14:06:49Z</time>
      </trkpt>
      <trkpt lat="43.79957" lon="7.05994">
        <ele>1386.5</ele>
        <time>2019-12-30T14:06:50Z</time>
      </trkpt>
      <trkpt lat="43.79957" lon="7.05994">
        <ele>1386.5</ele>
        <time>2019-12-30T14:06:51Z</time>
      </trkpt>
      <trkpt lat="43.79957" lon="7.05994">
        <ele>1386.5</ele>
        <time>2019-12-30T14:06:52Z</time>
      </trkpt>
      <trkpt lat="43.79957" lon="7.05994">
        <ele>1386.5</ele>
        <time>2019-12-30T14:06:53Z</time>
      </trkpt>
      <trkpt lat="43.79957" lon="7.05994">
        <ele>1386.5</ele>
        <time>2019-12-30T14:06:54Z</time>
      </trkpt>
      <trkpt lat="43.79957" lon="7.05994">
        <ele>1386.5</ele>
        <time>2019-12-30T14:06:55Z</time>
      </trkpt>
      <trkpt lat="43.79957" lon="7.05994">
        <ele>1386.5</ele>
        <time>2019-12-30T14:06:56Z</time>
      </trkpt>
      <trkpt lat="43.79957" lon="7.05994">
        <ele>1386.5</ele>
        <time>2019-12-30T14:06:57Z</time>
      </trkpt>
      <trkpt lat="43.79957" lon="7.05994">
        <ele>1386.5</ele>
        <time>2019-12-30T14:06:58Z</time>
      </trkpt>
      <trkpt lat="43.79957" lon="7.05994">
        <ele>1386.5</ele>
        <time>2019-12-30T14:06:59Z</time>
      </trkpt>
      <trkpt lat="43.79957" lon="7.05994">
        <ele>1386.5</ele>
        <time>2019-12-30T14:07:00Z</time>
      </trkpt>
      <trkpt lat="43.79957" lon="7.05994">
        <ele>1386.5</ele>
        <time>2019-12-30T14:07:01Z</time>
      </trkpt>
      <trkpt lat="43.79957" lon="7.05994">
        <ele>1386.5</ele>
        <time>2019-12-30T14:07:02Z</time>
      </trkpt>
      <trkpt lat="43.79957" lon="7.05994">
        <ele>1386.5</ele>
        <time>2019-12-30T14:07:03Z</time>
      </trkpt>
      <trkpt lat="43.79957" lon="7.05994">
        <ele>1386.5</ele>
        <time>2019-12-30T14:07:04Z</time>
      </trkpt>
      <trkpt lat="43.79957" lon="7.05994">
        <ele>1386.5</ele>
        <time>2019-12-30T14:07:05Z</time>
      </trkpt>
      <trkpt lat="43.79957" lon="7.05994">
        <ele>1386.5</ele>
        <time>2019-12-30T14:07:06Z</time>
      </trkpt>
      <trkpt lat="43.79957" lon="7.05994">
        <ele>1386.5</ele>
        <time>2019-12-30T14:07:07Z</time>
      </trkpt>
      <trkpt lat="43.79957" lon="7.05994">
        <ele>1386.5</ele>
        <time>2019-12-30T14:07:08Z</time>
      </trkpt>
      <trkpt lat="43.79957" lon="7.05994">
        <ele>1386.5</ele>
        <time>2019-12-30T14:07:09Z</time>
      </trkpt>
      <trkpt lat="43.79957" lon="7.05994">
        <ele>1386.5</ele>
        <time>2019-12-30T14:07:10Z</time>
      </trkpt>
      <trkpt lat="43.79957" lon="7.05994">
        <ele>1386.5</ele>
        <time>2019-12-30T14:07:11Z</time>
      </trkpt>
      <trkpt lat="43.79957" lon="7.05994">
        <ele>1386.5</ele>
        <time>2019-12-30T14:07:12Z</time>
      </trkpt>
      <trkpt lat="43.79957" lon="7.05994">
        <ele>1386.5</ele>
        <time>2019-12-30T14:07:13Z</time>
      </trkpt>
      <trkpt lat="43.79957" lon="7.05994">
        <ele>1386.5</ele>
        <time>2019-12-30T14:07:14Z</time>
      </trkpt>
      <trkpt lat="43.79957" lon="7.05994">
        <ele>1386.5</ele>
        <time>2019-12-30T14:07:15Z</time>
      </trkpt>
      <trkpt lat="43.79957" lon="7.05994">
        <ele>1386.5</ele>
        <time>2019-12-30T14:07:16Z</time>
      </trkpt>
      <trkpt lat="43.79957" lon="7.05994">
        <ele>1386.5</ele>
        <time>2019-12-30T14:07:17Z</time>
      </trkpt>
      <trkpt lat="43.79957" lon="7.05994">
        <ele>1386.5</ele>
        <time>2019-12-30T14:07:18Z</time>
      </trkpt>
      <trkpt lat="43.79957" lon="7.05994">
        <ele>1386.5</ele>
        <time>2019-12-30T14:07:19Z</time>
      </trkpt>
      <trkpt lat="43.79957" lon="7.05994">
        <ele>1386.5</ele>
        <time>2019-12-30T14:07:20Z</time>
      </trkpt>
      <trkpt lat="43.79957" lon="7.05994">
        <ele>1386.5</ele>
        <time>2019-12-30T14:07:21Z</time>
      </trkpt>
      <trkpt lat="43.79957" lon="7.05994">
        <ele>1386.5</ele>
        <time>2019-12-30T14:07:22Z</time>
      </trkpt>
      <trkpt lat="43.79957" lon="7.05994">
        <ele>1386.5</ele>
        <time>2019-12-30T14:07:23Z</time>
      </trkpt>
      <trkpt lat="43.79957" lon="7.05994">
        <ele>1386.5</ele>
        <time>2019-12-30T14:07:24Z</time>
      </trkpt>
      <trkpt lat="43.79957" lon="7.05994">
        <ele>1386.5</ele>
        <time>2019-12-30T14:07:25Z</time>
      </trkpt>
      <trkpt lat="43.79957" lon="7.05994">
        <ele>1386.5</ele>
        <time>2019-12-30T14:07:26Z</time>
      </trkpt>
      <trkpt lat="43.79957" lon="7.05994">
        <ele>1386.5</ele>
        <time>2019-12-30T14:07:27Z</time>
      </trkpt>
      <trkpt lat="43.79958" lon="7.05994">
        <ele>1386.5</ele>
        <time>2019-12-30T14:07:28Z</time>
      </trkpt>
      <trkpt lat="43.79958" lon="7.05994">
        <ele>1386.5</ele>
        <time>2019-12-30T14:07:29Z</time>
      </trkpt>
      <trkpt lat="43.79959" lon="7.05994">
        <ele>1386.5</ele>
        <time>2019-12-30T14:07:30Z</time>
      </trkpt>
      <trkpt lat="43.7996" lon="7.05994">
        <ele>1386.5</ele>
        <time>2019-12-30T14:07:31Z</time>
      </trkpt>
      <trkpt lat="43.7996" lon="7.05994">
        <ele>1386.3</ele>
        <time>2019-12-30T14:07:32Z</time>
      </trkpt>
      <trkpt lat="43.7996" lon="7.05994">
        <ele>1386.3</ele>
        <time>2019-12-30T14:07:33Z</time>
      </trkpt>
      <trkpt lat="43.7996" lon="7.05994">
        <ele>1386.3</ele>
        <time>2019-12-30T14:07:34Z</time>
      </trkpt>
      <trkpt lat="43.7996" lon="7.05994">
        <ele>1386.3</ele>
        <time>2019-12-30T14:07:35Z</time>
      </trkpt>
      <trkpt lat="43.7996" lon="7.05994">
        <ele>1386.3</ele>
        <time>2019-12-30T14:07:36Z</time>
      </trkpt>
      <trkpt lat="43.7996" lon="7.05994">
        <ele>1386.3</ele>
        <time>2019-12-30T14:07:37Z</time>
      </trkpt>
      <trkpt lat="43.7996" lon="7.05994">
        <ele>1386.3</ele>
        <time>2019-12-30T14:07:38Z</time>
      </trkpt>
      <trkpt lat="43.79961" lon="7.05994">
        <ele>1386.3</ele>
        <time>2019-12-30T14:07:39Z</time>
      </trkpt>
      <trkpt lat="43.79961" lon="7.05994">
        <ele>1386.3</ele>
        <time>2019-12-30T14:07:40Z</time>
      </trkpt>
      <trkpt lat="43.79961" lon="7.05993">
        <ele>1386.3</ele>
        <time>2019-12-30T14:07:41Z</time>
      </trkpt>
      <trkpt lat="43.79961" lon="7.05993">
        <ele>1386.3</ele>
        <time>2019-12-30T14:07:42Z</time>
      </trkpt>
      <trkpt lat="43.79961" lon="7.05993">
        <ele>1386.3</ele>
        <time>2019-12-30T14:07:43Z</time>
      </trkpt>
      <trkpt lat="43.79961" lon="7.05993">
        <ele>1386.3</ele>
        <time>2019-12-30T14:07:44Z</time>
      </trkpt>
      <trkpt lat="43.79961" lon="7.05993">
        <ele>1386.3</ele>
        <time>2019-12-30T14:07:45Z</time>
      </trkpt>
      <trkpt lat="43.79961" lon="7.05993">
        <ele>1386.3</ele>
        <time>2019-12-30T14:07:46Z</time>
      </trkpt>
      <trkpt lat="43.79961" lon="7.05993">
        <ele>1386.3</ele>
        <time>2019-12-30T14:07:47Z</time>
      </trkpt>
      <trkpt lat="43.79961" lon="7.05993">
        <ele>1386.3</ele>
        <time>2019-12-30T14:07:48Z</time>
      </trkpt>
      <trkpt lat="43.79961" lon="7.05993">
        <ele>1386.3</ele>
        <time>2019-12-30T14:07:49Z</time>
      </trkpt>
      <trkpt lat="43.79961" lon="7.05993">
        <ele>1386.3</ele>
        <time>2019-12-30T14:07:50Z</time>
      </trkpt>
      <trkpt lat="43.79961" lon="7.05993">
        <ele>1386.3</ele>
        <time>2019-12-30T14:07:51Z</time>
      </trkpt>
      <trkpt lat="43.79961" lon="7.05993">
        <ele>1386.3</ele>
        <time>2019-12-30T14:07:52Z</time>
      </trkpt>
      <trkpt lat="43.79961" lon="7.05993">
        <ele>1386.3</ele>
        <time>2019-12-30T14:07:53Z</time>
      </trkpt>
      <trkpt lat="43.79961" lon="7.05993">
        <ele>1386.3</ele>
        <time>2019-12-30T14:07:54Z</time>
      </trkpt>
      <trkpt lat="43.79961" lon="7.05993">
        <ele>1386.3</ele>
        <time>2019-12-30T14:07:55Z</time>
      </trkpt>
      <trkpt lat="43.79961" lon="7.05993">
        <ele>1386.3</ele>
        <time>2019-12-30T14:07:56Z</time>
      </trkpt>
      <trkpt lat="43.79961" lon="7.05993">
        <ele>1386.3</ele>
        <time>2019-12-30T14:07:57Z</time>
      </trkpt>
      <trkpt lat="43.79961" lon="7.05993">
        <ele>1386.3</ele>
        <time>2019-12-30T14:07:58Z</time>
      </trkpt>
      <trkpt lat="43.79961" lon="7.05993">
        <ele>1386.3</ele>
        <time>2019-12-30T14:07:59Z</time>
      </trkpt>
      <trkpt lat="43.79961" lon="7.05993">
        <ele>1386.3</ele>
        <time>2019-12-30T14:08:00Z</time>
      </trkpt>
      <trkpt lat="43.79961" lon="7.05993">
        <ele>1386.3</ele>
        <time>2019-12-30T14:08:01Z</time>
      </trkpt>
      <trkpt lat="43.79961" lon="7.05993">
        <ele>1386.3</ele>
        <time>2019-12-30T14:08:02Z</time>
      </trkpt>
      <trkpt lat="43.79961" lon="7.05993">
        <ele>1386.3</ele>
        <time>2019-12-30T14:08:03Z</time>
      </trkpt>
      <trkpt lat="43.79961" lon="7.05993">
        <ele>1386.3</ele>
        <time>2019-12-30T14:08:04Z</time>
      </trkpt>
      <trkpt lat="43.79961" lon="7.05993">
        <ele>1386.3</ele>
        <time>2019-12-30T14:08:05Z</time>
      </trkpt>
      <trkpt lat="43.79961" lon="7.05993">
        <ele>1386.3</ele>
        <time>2019-12-30T14:08:06Z</time>
      </trkpt>
      <trkpt lat="43.79961" lon="7.05993">
        <ele>1386.3</ele>
        <time>2019-12-30T14:08:07Z</time>
      </trkpt>
      <trkpt lat="43.79961" lon="7.05993">
        <ele>1386.3</ele>
        <time>2019-12-30T14:08:08Z</time>
      </trkpt>
      <trkpt lat="43.79961" lon="7.05993">
        <ele>1386.3</ele>
        <time>2019-12-30T14:08:09Z</time>
      </trkpt>
      <trkpt lat="43.79961" lon="7.05993">
        <ele>1386.3</ele>
        <time>2019-12-30T14:08:10Z</time>
      </trkpt>
      <trkpt lat="43.79961" lon="7.05993">
        <ele>1386.3</ele>
        <time>2019-12-30T14:08:11Z</time>
      </trkpt>
      <trkpt lat="43.79961" lon="7.05993">
        <ele>1386.3</ele>
        <time>2019-12-30T14:08:12Z</time>
      </trkpt>
      <trkpt lat="43.79961" lon="7.05993">
        <ele>1386.3</ele>
        <time>2019-12-30T14:08:13Z</time>
      </trkpt>
      <trkpt lat="43.79961" lon="7.05993">
        <ele>1386.3</ele>
        <time>2019-12-30T14:08:14Z</time>
      </trkpt>
      <trkpt lat="43.79961" lon="7.05993">
        <ele>1386.3</ele>
        <time>2019-12-30T14:08:15Z</time>
      </trkpt>
      <trkpt lat="43.79961" lon="7.05993">
        <ele>1386.3</ele>
        <time>2019-12-30T14:08:16Z</time>
      </trkpt>
      <trkpt lat="43.79961" lon="7.05993">
        <ele>1386.3</ele>
        <time>2019-12-30T14:08:17Z</time>
      </trkpt>
      <trkpt lat="43.79961" lon="7.05993">
        <ele>1386.3</ele>
        <time>2019-12-30T14:08:18Z</time>
      </trkpt>
      <trkpt lat="43.79961" lon="7.05993">
        <ele>1386.3</ele>
        <time>2019-12-30T14:08:19Z</time>
      </trkpt>
      <trkpt lat="43.79961" lon="7.05993">
        <ele>1386.3</ele>
        <time>2019-12-30T14:08:20Z</time>
      </trkpt>
      <trkpt lat="43.79961" lon="7.05993">
        <ele>1386.3</ele>
        <time>2019-12-30T14:08:21Z</time>
      </trkpt>
      <trkpt lat="43.79961" lon="7.05993">
        <ele>1386.3</ele>
        <time>2019-12-30T14:08:22Z</time>
      </trkpt>
      <trkpt lat="43.79961" lon="7.05993">
        <ele>1386.3</ele>
        <time>2019-12-30T14:08:23Z</time>
      </trkpt>
      <trkpt lat="43.79961" lon="7.05993">
        <ele>1386.3</ele>
        <time>2019-12-30T14:08:24Z</time>
      </trkpt>
      <trkpt lat="43.79961" lon="7.05993">
        <ele>1386.3</ele>
        <time>2019-12-30T14:08:25Z</time>
      </trkpt>
      <trkpt lat="43.79961" lon="7.05993">
        <ele>1386.3</ele>
        <time>2019-12-30T14:08:26Z</time>
      </trkpt>
      <trkpt lat="43.79961" lon="7.05993">
        <ele>1386.3</ele>
        <time>2019-12-30T14:08:27Z</time>
      </trkpt>
      <trkpt lat="43.79961" lon="7.05993">
        <ele>1386.3</ele>
        <time>2019-12-30T14:08:28Z</time>
      </trkpt>
      <trkpt lat="43.79961" lon="7.05993">
        <ele>1386.3</ele>
        <time>2019-12-30T14:08:29Z</time>
      </trkpt>
      <trkpt lat="43.79961" lon="7.05993">
        <ele>1386.3</ele>
        <time>2019-12-30T14:08:30Z</time>
      </trkpt>
      <trkpt lat="43.79961" lon="7.05993">
        <ele>1386.3</ele>
        <time>2019-12-30T14:08:31Z</time>
      </trkpt>
      <trkpt lat="43.79961" lon="7.05993">
        <ele>1386.3</ele>
        <time>2019-12-30T14:08:32Z</time>
      </trkpt>
      <trkpt lat="43.79961" lon="7.05993">
        <ele>1386.3</ele>
        <time>2019-12-30T14:08:33Z</time>
      </trkpt>
      <trkpt lat="43.79961" lon="7.05993">
        <ele>1386.3</ele>
        <time>2019-12-30T14:08:34Z</time>
      </trkpt>
      <trkpt lat="43.79961" lon="7.05993">
        <ele>1386.3</ele>
        <time>2019-12-30T14:08:35Z</time>
      </trkpt>
      <trkpt lat="43.79961" lon="7.05993">
        <ele>1386.3</ele>
        <time>2019-12-30T14:08:36Z</time>
      </trkpt>
      <trkpt lat="43.79961" lon="7.05993">
        <ele>1386.3</ele>
        <time>2019-12-30T14:08:37Z</time>
      </trkpt>
      <trkpt lat="43.79961" lon="7.05993">
        <ele>1386.3</ele>
        <time>2019-12-30T14:08:38Z</time>
      </trkpt>
      <trkpt lat="43.79961" lon="7.05993">
        <ele>1386.3</ele>
        <time>2019-12-30T14:08:39Z</time>
      </trkpt>
      <trkpt lat="43.79961" lon="7.05993">
        <ele>1386.3</ele>
        <time>2019-12-30T14:08:40Z</time>
      </trkpt>
      <trkpt lat="43.79961" lon="7.05993">
        <ele>1386.3</ele>
        <time>2019-12-30T14:08:41Z</time>
      </trkpt>
      <trkpt lat="43.79961" lon="7.05993">
        <ele>1386.3</ele>
        <time>2019-12-30T14:08:42Z</time>
      </trkpt>
      <trkpt lat="43.79961" lon="7.05993">
        <ele>1386.3</ele>
        <time>2019-12-30T14:08:43Z</time>
      </trkpt>
      <trkpt lat="43.79961" lon="7.05993">
        <ele>1386.3</ele>
        <time>2019-12-30T14:08:44Z</time>
      </trkpt>
      <trkpt lat="43.79961" lon="7.05993">
        <ele>1386.3</ele>
        <time>2019-12-30T14:08:45Z</time>
      </trkpt>
      <trkpt lat="43.79961" lon="7.05993">
        <ele>1386.3</ele>
        <time>2019-12-30T14:08:46Z</time>
      </trkpt>
      <trkpt lat="43.79961" lon="7.05993">
        <ele>1386.3</ele>
        <time>2019-12-30T14:08:47Z</time>
      </trkpt>
      <trkpt lat="43.79961" lon="7.05993">
        <ele>1386.3</ele>
        <time>2019-12-30T14:08:48Z</time>
      </trkpt>
      <trkpt lat="43.79961" lon="7.05993">
        <ele>1386.3</ele>
        <time>2019-12-30T14:08:49Z</time>
      </trkpt>
      <trkpt lat="43.79961" lon="7.05993">
        <ele>1386.3</ele>
        <time>2019-12-30T14:08:50Z</time>
      </trkpt>
      <trkpt lat="43.79961" lon="7.05993">
        <ele>1386.3</ele>
        <time>2019-12-30T14:08:51Z</time>
      </trkpt>
      <trkpt lat="43.79961" lon="7.05993">
        <ele>1386.3</ele>
        <time>2019-12-30T14:08:52Z</time>
      </trkpt>
      <trkpt lat="43.79961" lon="7.05993">
        <ele>1386.3</ele>
        <time>2019-12-30T14:08:53Z</time>
      </trkpt>
      <trkpt lat="43.79961" lon="7.05993">
        <ele>1386.3</ele>
        <time>2019-12-30T14:08:54Z</time>
      </trkpt>
      <trkpt lat="43.79961" lon="7.05993">
        <ele>1386.3</ele>
        <time>2019-12-30T14:08:55Z</time>
      </trkpt>
      <trkpt lat="43.79961" lon="7.05993">
        <ele>1386.3</ele>
        <time>2019-12-30T14:08:56Z</time>
      </trkpt>
      <trkpt lat="43.79961" lon="7.05993">
        <ele>1386.3</ele>
        <time>2019-12-30T14:08:57Z</time>
      </trkpt>
      <trkpt lat="43.79961" lon="7.05993">
        <ele>1386.3</ele>
        <time>2019-12-30T14:08:58Z</time>
      </trkpt>
      <trkpt lat="43.79961" lon="7.05993">
        <ele>1386.3</ele>
        <time>2019-12-30T14:08:59Z</time>
      </trkpt>
      <trkpt lat="43.79961" lon="7.05993">
        <ele>1386.3</ele>
        <time>2019-12-30T14:09:00Z</time>
      </trkpt>
      <trkpt lat="43.79961" lon="7.05993">
        <ele>1386.3</ele>
        <time>2019-12-30T14:09:01Z</time>
      </trkpt>
      <trkpt lat="43.79961" lon="7.05993">
        <ele>1386.3</ele>
        <time>2019-12-30T14:09:02Z</time>
      </trkpt>
      <trkpt lat="43.79961" lon="7.05993">
        <ele>1386.3</ele>
        <time>2019-12-30T14:09:03Z</time>
      </trkpt>
      <trkpt lat="43.79961" lon="7.05993">
        <ele>1386.3</ele>
        <time>2019-12-30T14:09:04Z</time>
      </trkpt>
      <trkpt lat="43.79961" lon="7.05993">
        <ele>1386.3</ele>
        <time>2019-12-30T14:09:05Z</time>
      </trkpt>
      <trkpt lat="43.79961" lon="7.05993">
        <ele>1386.3</ele>
        <time>2019-12-30T14:09:06Z</time>
      </trkpt>
      <trkpt lat="43.79961" lon="7.05993">
        <ele>1386.3</ele>
        <time>2019-12-30T14:09:07Z</time>
      </trkpt>
      <trkpt lat="43.79961" lon="7.05993">
        <ele>1386.3</ele>
        <time>2019-12-30T14:09:08Z</time>
      </trkpt>
      <trkpt lat="43.79961" lon="7.05993">
        <ele>1386.3</ele>
        <time>2019-12-30T14:09:09Z</time>
      </trkpt>
      <trkpt lat="43.79961" lon="7.05993">
        <ele>1386.3</ele>
        <time>2019-12-30T14:09:10Z</time>
      </trkpt>
      <trkpt lat="43.79961" lon="7.05993">
        <ele>1386.3</ele>
        <time>2019-12-30T14:09:11Z</time>
      </trkpt>
      <trkpt lat="43.79961" lon="7.05993">
        <ele>1386.3</ele>
        <time>2019-12-30T14:09:12Z</time>
      </trkpt>
      <trkpt lat="43.79961" lon="7.05993">
        <ele>1386.3</ele>
        <time>2019-12-30T14:09:13Z</time>
      </trkpt>
      <trkpt lat="43.79961" lon="7.05993">
        <ele>1386.3</ele>
        <time>2019-12-30T14:09:14Z</time>
      </trkpt>
      <trkpt lat="43.79961" lon="7.05993">
        <ele>1386.3</ele>
        <time>2019-12-30T14:09:15Z</time>
      </trkpt>
      <trkpt lat="43.79961" lon="7.05993">
        <ele>1386.3</ele>
        <time>2019-12-30T14:09:16Z</time>
      </trkpt>
      <trkpt lat="43.79961" lon="7.05993">
        <ele>1386.3</ele>
        <time>2019-12-30T14:09:17Z</time>
      </trkpt>
      <trkpt lat="43.79961" lon="7.05993">
        <ele>1386.3</ele>
        <time>2019-12-30T14:09:18Z</time>
      </trkpt>
      <trkpt lat="43.79961" lon="7.05993">
        <ele>1386.3</ele>
        <time>2019-12-30T14:09:19Z</time>
      </trkpt>
      <trkpt lat="43.79961" lon="7.05993">
        <ele>1386.3</ele>
        <time>2019-12-30T14:09:20Z</time>
      </trkpt>
      <trkpt lat="43.79961" lon="7.05993">
        <ele>1386.3</ele>
        <time>2019-12-30T14:09:21Z</time>
      </trkpt>
      <trkpt lat="43.79961" lon="7.05993">
        <ele>1386.3</ele>
        <time>2019-12-30T14:09:22Z</time>
      </trkpt>
      <trkpt lat="43.79961" lon="7.05993">
        <ele>1386.3</ele>
        <time>2019-12-30T14:09:23Z</time>
      </trkpt>
      <trkpt lat="43.79961" lon="7.05993">
        <ele>1386.3</ele>
        <time>2019-12-30T14:09:24Z</time>
      </trkpt>
      <trkpt lat="43.79961" lon="7.05993">
        <ele>1386.3</ele>
        <time>2019-12-30T14:09:25Z</time>
      </trkpt>
      <trkpt lat="43.79961" lon="7.05993">
        <ele>1386.3</ele>
        <time>2019-12-30T14:09:26Z</time>
      </trkpt>
      <trkpt lat="43.79961" lon="7.05993">
        <ele>1386.3</ele>
        <time>2019-12-30T14:09:27Z</time>
      </trkpt>
      <trkpt lat="43.79961" lon="7.05993">
        <ele>1386.3</ele>
        <time>2019-12-30T14:09:28Z</time>
      </trkpt>
      <trkpt lat="43.79961" lon="7.05993">
        <ele>1386.3</ele>
        <time>2019-12-30T14:09:29Z</time>
      </trkpt>
      <trkpt lat="43.79961" lon="7.05993">
        <ele>1386.3</ele>
        <time>2019-12-30T14:09:30Z</time>
      </trkpt>
      <trkpt lat="43.79961" lon="7.05993">
        <ele>1386.3</ele>
        <time>2019-12-30T14:09:31Z</time>
      </trkpt>
      <trkpt lat="43.79961" lon="7.05993">
        <ele>1386.3</ele>
        <time>2019-12-30T14:09:32Z</time>
      </trkpt>
      <trkpt lat="43.79961" lon="7.05993">
        <ele>1386.3</ele>
        <time>2019-12-30T14:09:33Z</time>
      </trkpt>
      <trkpt lat="43.79961" lon="7.05993">
        <ele>1386.3</ele>
        <time>2019-12-30T14:09:34Z</time>
      </trkpt>
      <trkpt lat="43.79961" lon="7.05993">
        <ele>1386.3</ele>
        <time>2019-12-30T14:09:35Z</time>
      </trkpt>
      <trkpt lat="43.79961" lon="7.05993">
        <ele>1386.3</ele>
        <time>2019-12-30T14:09:36Z</time>
      </trkpt>
      <trkpt lat="43.79961" lon="7.05993">
        <ele>1386.3</ele>
        <time>2019-12-30T14:09:37Z</time>
      </trkpt>
      <trkpt lat="43.79961" lon="7.05993">
        <ele>1386.3</ele>
        <time>2019-12-30T14:09:38Z</time>
      </trkpt>
      <trkpt lat="43.79961" lon="7.05993">
        <ele>1386.3</ele>
        <time>2019-12-30T14:09:39Z</time>
      </trkpt>
      <trkpt lat="43.79961" lon="7.05993">
        <ele>1386.3</ele>
        <time>2019-12-30T14:09:40Z</time>
      </trkpt>
      <trkpt lat="43.79961" lon="7.05993">
        <ele>1386.3</ele>
        <time>2019-12-30T14:09:41Z</time>
      </trkpt>
      <trkpt lat="43.79961" lon="7.05993">
        <ele>1386.3</ele>
        <time>2019-12-30T14:09:42Z</time>
      </trkpt>
      <trkpt lat="43.79961" lon="7.05993">
        <ele>1386.3</ele>
        <time>2019-12-30T14:09:43Z</time>
      </trkpt>
      <trkpt lat="43.79961" lon="7.05993">
        <ele>1386.3</ele>
        <time>2019-12-30T14:09:44Z</time>
      </trkpt>
      <trkpt lat="43.79961" lon="7.05993">
        <ele>1386.3</ele>
        <time>2019-12-30T14:09:45Z</time>
      </trkpt>
      <trkpt lat="43.79961" lon="7.05993">
        <ele>1386.3</ele>
        <time>2019-12-30T14:09:46Z</time>
      </trkpt>
      <trkpt lat="43.79961" lon="7.05993">
        <ele>1386.3</ele>
        <time>2019-12-30T14:09:47Z</time>
      </trkpt>
      <trkpt lat="43.79961" lon="7.05993">
        <ele>1386.3</ele>
        <time>2019-12-30T14:09:48Z</time>
      </trkpt>
      <trkpt lat="43.79961" lon="7.05993">
        <ele>1386.3</ele>
        <time>2019-12-30T14:09:49Z</time>
      </trkpt>
      <trkpt lat="43.79961" lon="7.05993">
        <ele>1386.3</ele>
        <time>2019-12-30T14:09:50Z</time>
      </trkpt>
      <trkpt lat="43.79961" lon="7.05993">
        <ele>1386.3</ele>
        <time>2019-12-30T14:09:51Z</time>
      </trkpt>
      <trkpt lat="43.79961" lon="7.05993">
        <ele>1386.3</ele>
        <time>2019-12-30T14:09:52Z</time>
      </trkpt>
      <trkpt lat="43.79961" lon="7.05993">
        <ele>1386.3</ele>
        <time>2019-12-30T14:09:53Z</time>
      </trkpt>
      <trkpt lat="43.79961" lon="7.05993">
        <ele>1386.3</ele>
        <time>2019-12-30T14:09:54Z</time>
      </trkpt>
      <trkpt lat="43.79961" lon="7.05993">
        <ele>1386.3</ele>
        <time>2019-12-30T14:09:55Z</time>
      </trkpt>
      <trkpt lat="43.79961" lon="7.05993">
        <ele>1386.3</ele>
        <time>2019-12-30T14:09:56Z</time>
      </trkpt>
      <trkpt lat="43.79961" lon="7.05993">
        <ele>1386.3</ele>
        <time>2019-12-30T14:09:57Z</time>
      </trkpt>
      <trkpt lat="43.79961" lon="7.05993">
        <ele>1386.3</ele>
        <time>2019-12-30T14:09:58Z</time>
      </trkpt>
      <trkpt lat="43.79961" lon="7.05993">
        <ele>1386.3</ele>
        <time>2019-12-30T14:09:59Z</time>
      </trkpt>
      <trkpt lat="43.79961" lon="7.05993">
        <ele>1386.3</ele>
        <time>2019-12-30T14:10:00Z</time>
      </trkpt>
      <trkpt lat="43.79961" lon="7.05993">
        <ele>1386.3</ele>
        <time>2019-12-30T14:10:01Z</time>
      </trkpt>
      <trkpt lat="43.79961" lon="7.05993">
        <ele>1386.3</ele>
        <time>2019-12-30T14:10:02Z</time>
      </trkpt>
      <trkpt lat="43.79961" lon="7.05993">
        <ele>1386.3</ele>
        <time>2019-12-30T14:10:03Z</time>
      </trkpt>
      <trkpt lat="43.79961" lon="7.05993">
        <ele>1386.3</ele>
        <time>2019-12-30T14:10:04Z</time>
      </trkpt>
      <trkpt lat="43.79961" lon="7.05993">
        <ele>1386.3</ele>
        <time>2019-12-30T14:10:05Z</time>
      </trkpt>
      <trkpt lat="43.79961" lon="7.05993">
        <ele>1386.3</ele>
        <time>2019-12-30T14:10:06Z</time>
      </trkpt>
      <trkpt lat="43.79961" lon="7.05993">
        <ele>1386.3</ele>
        <time>2019-12-30T14:10:07Z</time>
      </trkpt>
      <trkpt lat="43.79961" lon="7.05993">
        <ele>1386.3</ele>
        <time>2019-12-30T14:10:08Z</time>
      </trkpt>
      <trkpt lat="43.79961" lon="7.05993">
        <ele>1386.3</ele>
        <time>2019-12-30T14:10:09Z</time>
      </trkpt>
      <trkpt lat="43.79961" lon="7.05993">
        <ele>1386.3</ele>
        <time>2019-12-30T14:10:10Z</time>
      </trkpt>
      <trkpt lat="43.79961" lon="7.05993">
        <ele>1386.3</ele>
        <time>2019-12-30T14:10:11Z</time>
      </trkpt>
      <trkpt lat="43.79961" lon="7.05993">
        <ele>1386.3</ele>
        <time>2019-12-30T14:10:12Z</time>
      </trkpt>
      <trkpt lat="43.79961" lon="7.05993">
        <ele>1386.3</ele>
        <time>2019-12-30T14:10:13Z</time>
      </trkpt>
      <trkpt lat="43.79961" lon="7.05993">
        <ele>1386.3</ele>
        <time>2019-12-30T14:10:14Z</time>
      </trkpt>
      <trkpt lat="43.79961" lon="7.05993">
        <ele>1386.3</ele>
        <time>2019-12-30T14:10:15Z</time>
      </trkpt>
      <trkpt lat="43.79961" lon="7.05993">
        <ele>1386.3</ele>
        <time>2019-12-30T14:10:16Z</time>
      </trkpt>
      <trkpt lat="43.79961" lon="7.05993">
        <ele>1386.3</ele>
        <time>2019-12-30T14:10:17Z</time>
      </trkpt>
      <trkpt lat="43.79961" lon="7.05993">
        <ele>1386.3</ele>
        <time>2019-12-30T14:10:18Z</time>
      </trkpt>
      <trkpt lat="43.79961" lon="7.05993">
        <ele>1386.3</ele>
        <time>2019-12-30T14:10:19Z</time>
      </trkpt>
      <trkpt lat="43.79961" lon="7.05993">
        <ele>1386.3</ele>
        <time>2019-12-30T14:10:20Z</time>
      </trkpt>
      <trkpt lat="43.79961" lon="7.05993">
        <ele>1386.3</ele>
        <time>2019-12-30T14:10:21Z</time>
      </trkpt>
      <trkpt lat="43.79961" lon="7.05993">
        <ele>1386.3</ele>
        <time>2019-12-30T14:10:22Z</time>
      </trkpt>
      <trkpt lat="43.79961" lon="7.05993">
        <ele>1386.3</ele>
        <time>2019-12-30T14:10:23Z</time>
      </trkpt>
      <trkpt lat="43.79961" lon="7.05993">
        <ele>1386.3</ele>
        <time>2019-12-30T14:10:24Z</time>
      </trkpt>
      <trkpt lat="43.79961" lon="7.05993">
        <ele>1386.3</ele>
        <time>2019-12-30T14:10:25Z</time>
      </trkpt>
      <trkpt lat="43.79961" lon="7.05993">
        <ele>1386.3</ele>
        <time>2019-12-30T14:10:26Z</time>
      </trkpt>
      <trkpt lat="43.79961" lon="7.05993">
        <ele>1386.3</ele>
        <time>2019-12-30T14:10:27Z</time>
      </trkpt>
      <trkpt lat="43.79961" lon="7.05993">
        <ele>1386.3</ele>
        <time>2019-12-30T14:10:28Z</time>
      </trkpt>
      <trkpt lat="43.79961" lon="7.05993">
        <ele>1386.3</ele>
        <time>2019-12-30T14:10:29Z</time>
      </trkpt>
      <trkpt lat="43.79962" lon="7.05992">
        <ele>1386.3</ele>
        <time>2019-12-30T14:10:30Z</time>
      </trkpt>
      <trkpt lat="43.79962" lon="7.05992">
        <ele>1386.3</ele>
        <time>2019-12-30T14:10:31Z</time>
      </trkpt>
      <trkpt lat="43.79962" lon="7.05992">
        <ele>1386.2</ele>
        <time>2019-12-30T14:10:32Z</time>
      </trkpt>
      <trkpt lat="43.79962" lon="7.05992">
        <ele>1386.2</ele>
        <time>2019-12-30T14:10:33Z</time>
      </trkpt>
      <trkpt lat="43.79963" lon="7.05991">
        <ele>1386.2</ele>
        <time>2019-12-30T14:10:34Z</time>
      </trkpt>
      <trkpt lat="43.79963" lon="7.05991">
        <ele>1386.2</ele>
        <time>2019-12-30T14:10:35Z</time>
      </trkpt>
      <trkpt lat="43.79963" lon="7.05991">
        <ele>1386.1</ele>
        <time>2019-12-30T14:10:36Z</time>
      </trkpt>
      <trkpt lat="43.79963" lon="7.05991">
        <ele>1386.1</ele>
        <time>2019-12-30T14:10:37Z</time>
      </trkpt>
      <trkpt lat="43.79963" lon="7.05991">
        <ele>1386.1</ele>
        <time>2019-12-30T14:10:38Z</time>
      </trkpt>
      <trkpt lat="43.79963" lon="7.05992">
        <ele>1386.1</ele>
        <time>2019-12-30T14:10:39Z</time>
      </trkpt>
      <trkpt lat="43.79964" lon="7.05992">
        <ele>1386.2</ele>
        <time>2019-12-30T14:10:40Z</time>
      </trkpt>
      <trkpt lat="43.79964" lon="7.05992">
        <ele>1386.2</ele>
        <time>2019-12-30T14:10:41Z</time>
      </trkpt>
      <trkpt lat="43.79964" lon="7.05993">
        <ele>1386.2</ele>
        <time>2019-12-30T14:10:42Z</time>
      </trkpt>
      <trkpt lat="43.79964" lon="7.05993">
        <ele>1386.2</ele>
        <time>2019-12-30T14:10:43Z</time>
      </trkpt>
      <trkpt lat="43.79964" lon="7.05994">
        <ele>1386.2</ele>
        <time>2019-12-30T14:10:44Z</time>
      </trkpt>
      <trkpt lat="43.79964" lon="7.05994">
        <ele>1386.2</ele>
        <time>2019-12-30T14:10:45Z</time>
      </trkpt>
      <trkpt lat="43.79964" lon="7.05995">
        <ele>1386.2</ele>
        <time>2019-12-30T14:10:46Z</time>
      </trkpt>
      <trkpt lat="43.79964" lon="7.05995">
        <ele>1386.2</ele>
        <time>2019-12-30T14:10:47Z</time>
      </trkpt>
      <trkpt lat="43.79964" lon="7.05995">
        <ele>1386.2</ele>
        <time>2019-12-30T14:10:48Z</time>
      </trkpt>
      <trkpt lat="43.79964" lon="7.05995">
        <ele>1386.2</ele>
        <time>2019-12-30T14:10:49Z</time>
      </trkpt>
      <trkpt lat="43.79964" lon="7.05996">
        <ele>1386.2</ele>
        <time>2019-12-30T14:10:50Z</time>
      </trkpt>
      <trkpt lat="43.79964" lon="7.05996">
        <ele>1386.2</ele>
        <time>2019-12-30T14:10:51Z</time>
      </trkpt>
      <trkpt lat="43.79964" lon="7.05996">
        <ele>1386.2</ele>
        <time>2019-12-30T14:10:52Z</time>
      </trkpt>
      <trkpt lat="43.79964" lon="7.05996">
        <ele>1386.2</ele>
        <time>2019-12-30T14:10:53Z</time>
      </trkpt>
      <trkpt lat="43.79963" lon="7.05996">
        <ele>1386.2</ele>
        <time>2019-12-30T14:10:54Z</time>
      </trkpt>
      <trkpt lat="43.79963" lon="7.05996">
        <ele>1386.2</ele>
        <time>2019-12-30T14:10:55Z</time>
      </trkpt>
      <trkpt lat="43.79963" lon="7.05996">
        <ele>1386.2</ele>
        <time>2019-12-30T14:10:56Z</time>
      </trkpt>
      <trkpt lat="43.79963" lon="7.05996">
        <ele>1386.2</ele>
        <time>2019-12-30T14:10:57Z</time>
      </trkpt>
      <trkpt lat="43.79963" lon="7.05996">
        <ele>1386.2</ele>
        <time>2019-12-30T14:10:58Z</time>
      </trkpt>
      <trkpt lat="43.79963" lon="7.05996">
        <ele>1386.2</ele>
        <time>2019-12-30T14:10:59Z</time>
      </trkpt>
      <trkpt lat="43.79963" lon="7.05996">
        <ele>1386.2</ele>
        <time>2019-12-30T14:11:00Z</time>
      </trkpt>
      <trkpt lat="43.79963" lon="7.05996">
        <ele>1386.2</ele>
        <time>2019-12-30T14:11:01Z</time>
      </trkpt>
      <trkpt lat="43.79963" lon="7.05996">
        <ele>1386.3</ele>
        <time>2019-12-30T14:11:02Z</time>
      </trkpt>
      <trkpt lat="43.79963" lon="7.05996">
        <ele>1386.3</ele>
        <time>2019-12-30T14:11:03Z</time>
      </trkpt>
      <trkpt lat="43.79963" lon="7.05996">
        <ele>1386.3</ele>
        <time>2019-12-30T14:11:04Z</time>
      </trkpt>
      <trkpt lat="43.79963" lon="7.05996">
        <ele>1386.3</ele>
        <time>2019-12-30T14:11:05Z</time>
      </trkpt>
      <trkpt lat="43.79963" lon="7.05996">
        <ele>1386.3</ele>
        <time>2019-12-30T14:11:06Z</time>
      </trkpt>
      <trkpt lat="43.79963" lon="7.05996">
        <ele>1386.3</ele>
        <time>2019-12-30T14:11:07Z</time>
      </trkpt>
      <trkpt lat="43.79963" lon="7.05996">
        <ele>1386.3</ele>
        <time>2019-12-30T14:11:08Z</time>
      </trkpt>
      <trkpt lat="43.79963" lon="7.05996">
        <ele>1386.4</ele>
        <time>2019-12-30T14:11:09Z</time>
      </trkpt>
      <trkpt lat="43.79963" lon="7.05996">
        <ele>1386.4</ele>
        <time>2019-12-30T14:11:10Z</time>
      </trkpt>
      <trkpt lat="43.79963" lon="7.05997">
        <ele>1386.4</ele>
        <time>2019-12-30T14:11:11Z</time>
      </trkpt>
      <trkpt lat="43.79962" lon="7.05997">
        <ele>1386.4</ele>
        <time>2019-12-30T14:11:12Z</time>
      </trkpt>
      <trkpt lat="43.79962" lon="7.05997">
        <ele>1386.4</ele>
        <time>2019-12-30T14:11:13Z</time>
      </trkpt>
      <trkpt lat="43.79962" lon="7.05997">
        <ele>1386.4</ele>
        <time>2019-12-30T14:11:14Z</time>
      </trkpt>
      <trkpt lat="43.79962" lon="7.05997">
        <ele>1386.4</ele>
        <time>2019-12-30T14:11:15Z</time>
      </trkpt>
      <trkpt lat="43.79962" lon="7.05997">
        <ele>1386.4</ele>
        <time>2019-12-30T14:11:16Z</time>
      </trkpt>
      <trkpt lat="43.79962" lon="7.05997">
        <ele>1386.4</ele>
        <time>2019-12-30T14:11:17Z</time>
      </trkpt>
      <trkpt lat="43.79962" lon="7.05997">
        <ele>1386.4</ele>
        <time>2019-12-30T14:11:18Z</time>
      </trkpt>
      <trkpt lat="43.79962" lon="7.05997">
        <ele>1386.4</ele>
        <time>2019-12-30T14:11:19Z</time>
      </trkpt>
      <trkpt lat="43.79962" lon="7.05997">
        <ele>1386.4</ele>
        <time>2019-12-30T14:11:20Z</time>
      </trkpt>
      <trkpt lat="43.79962" lon="7.05997">
        <ele>1386.4</ele>
        <time>2019-12-30T14:11:21Z</time>
      </trkpt>
      <trkpt lat="43.79962" lon="7.05997">
        <ele>1386.4</ele>
        <time>2019-12-30T14:11:22Z</time>
      </trkpt>
      <trkpt lat="43.79962" lon="7.05997">
        <ele>1386.4</ele>
        <time>2019-12-30T14:11:23Z</time>
      </trkpt>
      <trkpt lat="43.79962" lon="7.05997">
        <ele>1386.4</ele>
        <time>2019-12-30T14:11:24Z</time>
      </trkpt>
      <trkpt lat="43.79962" lon="7.05997">
        <ele>1386.4</ele>
        <time>2019-12-30T14:11:25Z</time>
      </trkpt>
      <trkpt lat="43.79962" lon="7.05997">
        <ele>1386.4</ele>
        <time>2019-12-30T14:11:26Z</time>
      </trkpt>
      <trkpt lat="43.79962" lon="7.05997">
        <ele>1386.4</ele>
        <time>2019-12-30T14:11:27Z</time>
      </trkpt>
      <trkpt lat="43.79962" lon="7.05997">
        <ele>1386.4</ele>
        <time>2019-12-30T14:11:28Z</time>
      </trkpt>
      <trkpt lat="43.79962" lon="7.05997">
        <ele>1386.4</ele>
        <time>2019-12-30T14:11:29Z</time>
      </trkpt>
      <trkpt lat="43.79962" lon="7.05997">
        <ele>1386.4</ele>
        <time>2019-12-30T14:11:30Z</time>
      </trkpt>
      <trkpt lat="43.79962" lon="7.05997">
        <ele>1386.4</ele>
        <time>2019-12-30T14:11:31Z</time>
      </trkpt>
      <trkpt lat="43.79962" lon="7.05997">
        <ele>1386.4</ele>
        <time>2019-12-30T14:11:32Z</time>
      </trkpt>
      <trkpt lat="43.79962" lon="7.05997">
        <ele>1386.4</ele>
        <time>2019-12-30T14:11:33Z</time>
      </trkpt>
      <trkpt lat="43.79962" lon="7.05997">
        <ele>1386.4</ele>
        <time>2019-12-30T14:11:34Z</time>
      </trkpt>
      <trkpt lat="43.79962" lon="7.05997">
        <ele>1386.4</ele>
        <time>2019-12-30T14:11:35Z</time>
      </trkpt>
      <trkpt lat="43.79962" lon="7.05997">
        <ele>1386.4</ele>
        <time>2019-12-30T14:11:36Z</time>
      </trkpt>
      <trkpt lat="43.79962" lon="7.05997">
        <ele>1386.4</ele>
        <time>2019-12-30T14:11:37Z</time>
      </trkpt>
      <trkpt lat="43.79962" lon="7.05997">
        <ele>1386.4</ele>
        <time>2019-12-30T14:11:38Z</time>
      </trkpt>
      <trkpt lat="43.79962" lon="7.05997">
        <ele>1386.4</ele>
        <time>2019-12-30T14:11:39Z</time>
      </trkpt>
      <trkpt lat="43.79962" lon="7.05997">
        <ele>1386.4</ele>
        <time>2019-12-30T14:11:40Z</time>
      </trkpt>
      <trkpt lat="43.79962" lon="7.05997">
        <ele>1386.4</ele>
        <time>2019-12-30T14:11:41Z</time>
      </trkpt>
      <trkpt lat="43.79962" lon="7.05997">
        <ele>1386.4</ele>
        <time>2019-12-30T14:11:42Z</time>
      </trkpt>
      <trkpt lat="43.79962" lon="7.05997">
        <ele>1386.4</ele>
        <time>2019-12-30T14:11:43Z</time>
      </trkpt>
      <trkpt lat="43.79962" lon="7.05997">
        <ele>1386.4</ele>
        <time>2019-12-30T14:11:44Z</time>
      </trkpt>
      <trkpt lat="43.79962" lon="7.05997">
        <ele>1386.4</ele>
        <time>2019-12-30T14:11:45Z</time>
      </trkpt>
      <trkpt lat="43.79962" lon="7.05997">
        <ele>1386.4</ele>
        <time>2019-12-30T14:11:46Z</time>
      </trkpt>
      <trkpt lat="43.79962" lon="7.05997">
        <ele>1386.4</ele>
        <time>2019-12-30T14:11:47Z</time>
      </trkpt>
      <trkpt lat="43.79962" lon="7.05997">
        <ele>1386.4</ele>
        <time>2019-12-30T14:11:48Z</time>
      </trkpt>
      <trkpt lat="43.79962" lon="7.05997">
        <ele>1386.4</ele>
        <time>2019-12-30T14:11:49Z</time>
      </trkpt>
      <trkpt lat="43.79962" lon="7.05997">
        <ele>1386.4</ele>
        <time>2019-12-30T14:11:50Z</time>
      </trkpt>
      <trkpt lat="43.79962" lon="7.05997">
        <ele>1386.4</ele>
        <time>2019-12-30T14:11:51Z</time>
      </trkpt>
      <trkpt lat="43.79962" lon="7.05997">
        <ele>1386.4</ele>
        <time>2019-12-30T14:11:52Z</time>
      </trkpt>
      <trkpt lat="43.79962" lon="7.05997">
        <ele>1386.4</ele>
        <time>2019-12-30T14:11:53Z</time>
      </trkpt>
      <trkpt lat="43.79962" lon="7.05997">
        <ele>1386.4</ele>
        <time>2019-12-30T14:11:54Z</time>
      </trkpt>
      <trkpt lat="43.79962" lon="7.05997">
        <ele>1386.4</ele>
        <time>2019-12-30T14:11:55Z</time>
      </trkpt>
      <trkpt lat="43.79962" lon="7.05997">
        <ele>1386.4</ele>
        <time>2019-12-30T14:11:56Z</time>
      </trkpt>
      <trkpt lat="43.79962" lon="7.05997">
        <ele>1386.4</ele>
        <time>2019-12-30T14:11:57Z</time>
      </trkpt>
      <trkpt lat="43.79962" lon="7.05997">
        <ele>1386.4</ele>
        <time>2019-12-30T14:11:58Z</time>
      </trkpt>
      <trkpt lat="43.79962" lon="7.05997">
        <ele>1386.4</ele>
        <time>2019-12-30T14:11:59Z</time>
      </trkpt>
      <trkpt lat="43.79962" lon="7.05997">
        <ele>1386.4</ele>
        <time>2019-12-30T14:12:00Z</time>
      </trkpt>
      <trkpt lat="43.79962" lon="7.05997">
        <ele>1386.4</ele>
        <time>2019-12-30T14:12:01Z</time>
      </trkpt>
      <trkpt lat="43.79962" lon="7.05997">
        <ele>1386.4</ele>
        <time>2019-12-30T14:12:02Z</time>
      </trkpt>
      <trkpt lat="43.79962" lon="7.05997">
        <ele>1386.4</ele>
        <time>2019-12-30T14:12:03Z</time>
      </trkpt>
      <trkpt lat="43.79962" lon="7.05997">
        <ele>1386.4</ele>
        <time>2019-12-30T14:12:04Z</time>
      </trkpt>
      <trkpt lat="43.79962" lon="7.05997">
        <ele>1386.4</ele>
        <time>2019-12-30T14:12:05Z</time>
      </trkpt>
      <trkpt lat="43.79962" lon="7.05997">
        <ele>1386.4</ele>
        <time>2019-12-30T14:12:06Z</time>
      </trkpt>
      <trkpt lat="43.79962" lon="7.05997">
        <ele>1386.4</ele>
        <time>2019-12-30T14:12:07Z</time>
      </trkpt>
      <trkpt lat="43.79963" lon="7.05997">
        <ele>1386.4</ele>
        <time>2019-12-30T14:12:08Z</time>
      </trkpt>
      <trkpt lat="43.79963" lon="7.05996">
        <ele>1386.3</ele>
        <time>2019-12-30T14:12:09Z</time>
      </trkpt>
      <trkpt lat="43.79963" lon="7.05996">
        <ele>1386.3</ele>
        <time>2019-12-30T14:12:10Z</time>
      </trkpt>
      <trkpt lat="43.79963" lon="7.05996">
        <ele>1386.3</ele>
        <time>2019-12-30T14:12:11Z</time>
      </trkpt>
      <trkpt lat="43.79964" lon="7.05996">
        <ele>1386.3</ele>
        <time>2019-12-30T14:12:12Z</time>
      </trkpt>
      <trkpt lat="43.79964" lon="7.05996">
        <ele>1386.3</ele>
        <time>2019-12-30T14:12:13Z</time>
      </trkpt>
      <trkpt lat="43.79964" lon="7.05996">
        <ele>1386.3</ele>
        <time>2019-12-30T14:12:14Z</time>
      </trkpt>
      <trkpt lat="43.79964" lon="7.05996">
        <ele>1386.3</ele>
        <time>2019-12-30T14:12:15Z</time>
      </trkpt>
      <trkpt lat="43.79964" lon="7.05996">
        <ele>1386.3</ele>
        <time>2019-12-30T14:12:16Z</time>
      </trkpt>
      <trkpt lat="43.79964" lon="7.05996">
        <ele>1386.3</ele>
        <time>2019-12-30T14:12:17Z</time>
      </trkpt>
      <trkpt lat="43.79964" lon="7.05996">
        <ele>1386.3</ele>
        <time>2019-12-30T14:12:18Z</time>
      </trkpt>
      <trkpt lat="43.79964" lon="7.05996">
        <ele>1386.3</ele>
        <time>2019-12-30T14:12:19Z</time>
      </trkpt>
      <trkpt lat="43.79964" lon="7.05996">
        <ele>1386.3</ele>
        <time>2019-12-30T14:12:20Z</time>
      </trkpt>
      <trkpt lat="43.79964" lon="7.05996">
        <ele>1386.3</ele>
        <time>2019-12-30T14:12:21Z</time>
      </trkpt>
      <trkpt lat="43.79964" lon="7.05996">
        <ele>1386.3</ele>
        <time>2019-12-30T14:12:22Z</time>
      </trkpt>
      <trkpt lat="43.79964" lon="7.05996">
        <ele>1386.3</ele>
        <time>2019-12-30T14:12:23Z</time>
      </trkpt>
      <trkpt lat="43.79964" lon="7.05996">
        <ele>1386.3</ele>
        <time>2019-12-30T14:12:24Z</time>
      </trkpt>
      <trkpt lat="43.79964" lon="7.05996">
        <ele>1386.3</ele>
        <time>2019-12-30T14:12:25Z</time>
      </trkpt>
      <trkpt lat="43.79964" lon="7.05996">
        <ele>1386.3</ele>
        <time>2019-12-30T14:12:26Z</time>
      </trkpt>
      <trkpt lat="43.79964" lon="7.05996">
        <ele>1386.2</ele>
        <time>2019-12-30T14:12:27Z</time>
      </trkpt>
      <trkpt lat="43.79963" lon="7.05996">
        <ele>1386.2</ele>
        <time>2019-12-30T14:12:28Z</time>
      </trkpt>
      <trkpt lat="43.79963" lon="7.05996">
        <ele>1386.2</ele>
        <time>2019-12-30T14:12:29Z</time>
      </trkpt>
      <trkpt lat="43.79963" lon="7.05996">
        <ele>1386.3</ele>
        <time>2019-12-30T14:12:30Z</time>
      </trkpt>
      <trkpt lat="43.79962" lon="7.05996">
        <ele>1386.3</ele>
        <time>2019-12-30T14:12:31Z</time>
      </trkpt>
      <trkpt lat="43.79962" lon="7.05996">
        <ele>1386.3</ele>
        <time>2019-12-30T14:12:32Z</time>
      </trkpt>
      <trkpt lat="43.79962" lon="7.05996">
        <ele>1386.3</ele>
        <time>2019-12-30T14:12:33Z</time>
      </trkpt>
      <trkpt lat="43.79962" lon="7.05996">
        <ele>1386.3</ele>
        <time>2019-12-30T14:12:34Z</time>
      </trkpt>
      <trkpt lat="43.79962" lon="7.05996">
        <ele>1386.3</ele>
        <time>2019-12-30T14:12:35Z</time>
      </trkpt>
      <trkpt lat="43.79962" lon="7.05996">
        <ele>1386.3</ele>
        <time>2019-12-30T14:12:36Z</time>
      </trkpt>
      <trkpt lat="43.79962" lon="7.05996">
        <ele>1386.3</ele>
        <time>2019-12-30T14:12:37Z</time>
      </trkpt>
      <trkpt lat="43.79962" lon="7.05996">
        <ele>1386.3</ele>
        <time>2019-12-30T14:12:38Z</time>
      </trkpt>
      <trkpt lat="43.79962" lon="7.05996">
        <ele>1386.3</ele>
        <time>2019-12-30T14:12:39Z</time>
      </trkpt>
      <trkpt lat="43.79962" lon="7.05996">
        <ele>1386.3</ele>
        <time>2019-12-30T14:12:40Z</time>
      </trkpt>
      <trkpt lat="43.79962" lon="7.05996">
        <ele>1386.3</ele>
        <time>2019-12-30T14:12:41Z</time>
      </trkpt>
      <trkpt lat="43.79962" lon="7.05996">
        <ele>1386.3</ele>
        <time>2019-12-30T14:12:42Z</time>
      </trkpt>
      <trkpt lat="43.79962" lon="7.05996">
        <ele>1386.3</ele>
        <time>2019-12-30T14:12:43Z</time>
      </trkpt>
      <trkpt lat="43.79962" lon="7.05996">
        <ele>1386.3</ele>
        <time>2019-12-30T14:12:44Z</time>
      </trkpt>
      <trkpt lat="43.79962" lon="7.05996">
        <ele>1386.3</ele>
        <time>2019-12-30T14:12:45Z</time>
      </trkpt>
      <trkpt lat="43.79962" lon="7.05996">
        <ele>1386.3</ele>
        <time>2019-12-30T14:12:46Z</time>
      </trkpt>
      <trkpt lat="43.79962" lon="7.05996">
        <ele>1386.3</ele>
        <time>2019-12-30T14:12:47Z</time>
      </trkpt>
      <trkpt lat="43.79962" lon="7.05996">
        <ele>1386.3</ele>
        <time>2019-12-30T14:12:48Z</time>
      </trkpt>
      <trkpt lat="43.79962" lon="7.05996">
        <ele>1386.3</ele>
        <time>2019-12-30T14:12:49Z</time>
      </trkpt>
      <trkpt lat="43.79962" lon="7.05996">
        <ele>1386.3</ele>
        <time>2019-12-30T14:12:50Z</time>
      </trkpt>
      <trkpt lat="43.79962" lon="7.05996">
        <ele>1386.3</ele>
        <time>2019-12-30T14:12:51Z</time>
      </trkpt>
      <trkpt lat="43.79962" lon="7.05996">
        <ele>1386.3</ele>
        <time>2019-12-30T14:12:52Z</time>
      </trkpt>
      <trkpt lat="43.79962" lon="7.05996">
        <ele>1386.3</ele>
        <time>2019-12-30T14:12:53Z</time>
      </trkpt>
      <trkpt lat="43.79962" lon="7.05996">
        <ele>1386.3</ele>
        <time>2019-12-30T14:12:54Z</time>
      </trkpt>
      <trkpt lat="43.79962" lon="7.05996">
        <ele>1386.3</ele>
        <time>2019-12-30T14:12:55Z</time>
      </trkpt>
      <trkpt lat="43.79962" lon="7.05996">
        <ele>1386.3</ele>
        <time>2019-12-30T14:12:56Z</time>
      </trkpt>
      <trkpt lat="43.79962" lon="7.05996">
        <ele>1386.3</ele>
        <time>2019-12-30T14:12:57Z</time>
      </trkpt>
      <trkpt lat="43.79962" lon="7.05996">
        <ele>1386.3</ele>
        <time>2019-12-30T14:12:58Z</time>
      </trkpt>
      <trkpt lat="43.79962" lon="7.05996">
        <ele>1386.3</ele>
        <time>2019-12-30T14:12:59Z</time>
      </trkpt>
      <trkpt lat="43.79962" lon="7.05996">
        <ele>1386.3</ele>
        <time>2019-12-30T14:13:00Z</time>
      </trkpt>
      <trkpt lat="43.79962" lon="7.05996">
        <ele>1386.3</ele>
        <time>2019-12-30T14:13:01Z</time>
      </trkpt>
      <trkpt lat="43.79962" lon="7.05996">
        <ele>1386.3</ele>
        <time>2019-12-30T14:13:02Z</time>
      </trkpt>
      <trkpt lat="43.79962" lon="7.05996">
        <ele>1386.3</ele>
        <time>2019-12-30T14:13:03Z</time>
      </trkpt>
      <trkpt lat="43.79962" lon="7.05996">
        <ele>1386.3</ele>
        <time>2019-12-30T14:13:04Z</time>
      </trkpt>
      <trkpt lat="43.79962" lon="7.05996">
        <ele>1386.3</ele>
        <time>2019-12-30T14:13:05Z</time>
      </trkpt>
      <trkpt lat="43.79962" lon="7.05996">
        <ele>1386.3</ele>
        <time>2019-12-30T14:13:06Z</time>
      </trkpt>
      <trkpt lat="43.79962" lon="7.05996">
        <ele>1386.3</ele>
        <time>2019-12-30T14:13:07Z</time>
      </trkpt>
      <trkpt lat="43.79962" lon="7.05996">
        <ele>1386.3</ele>
        <time>2019-12-30T14:13:08Z</time>
      </trkpt>
      <trkpt lat="43.79962" lon="7.05996">
        <ele>1386.3</ele>
        <time>2019-12-30T14:13:09Z</time>
      </trkpt>
      <trkpt lat="43.79962" lon="7.05996">
        <ele>1386.3</ele>
        <time>2019-12-30T14:13:10Z</time>
      </trkpt>
      <trkpt lat="43.79962" lon="7.05996">
        <ele>1386.3</ele>
        <time>2019-12-30T14:13:11Z</time>
      </trkpt>
      <trkpt lat="43.79962" lon="7.05996">
        <ele>1386.3</ele>
        <time>2019-12-30T14:13:12Z</time>
      </trkpt>
      <trkpt lat="43.79962" lon="7.05996">
        <ele>1386.3</ele>
        <time>2019-12-30T14:13:13Z</time>
      </trkpt>
      <trkpt lat="43.79962" lon="7.05996">
        <ele>1386.3</ele>
        <time>2019-12-30T14:13:14Z</time>
      </trkpt>
      <trkpt lat="43.79962" lon="7.05996">
        <ele>1386.3</ele>
        <time>2019-12-30T14:13:15Z</time>
      </trkpt>
      <trkpt lat="43.79962" lon="7.05996">
        <ele>1386.3</ele>
        <time>2019-12-30T14:13:16Z</time>
      </trkpt>
      <trkpt lat="43.79962" lon="7.05996">
        <ele>1386.3</ele>
        <time>2019-12-30T14:13:17Z</time>
      </trkpt>
      <trkpt lat="43.79962" lon="7.05996">
        <ele>1386.3</ele>
        <time>2019-12-30T14:13:18Z</time>
      </trkpt>
      <trkpt lat="43.79962" lon="7.05996">
        <ele>1386.3</ele>
        <time>2019-12-30T14:13:19Z</time>
      </trkpt>
      <trkpt lat="43.79962" lon="7.05996">
        <ele>1386.3</ele>
        <time>2019-12-30T14:13:20Z</time>
      </trkpt>
      <trkpt lat="43.79962" lon="7.05996">
        <ele>1386.3</ele>
        <time>2019-12-30T14:13:21Z</time>
      </trkpt>
      <trkpt lat="43.79962" lon="7.05996">
        <ele>1386.3</ele>
        <time>2019-12-30T14:13:22Z</time>
      </trkpt>
      <trkpt lat="43.79962" lon="7.05996">
        <ele>1386.3</ele>
        <time>2019-12-30T14:13:23Z</time>
      </trkpt>
      <trkpt lat="43.79962" lon="7.05996">
        <ele>1386.3</ele>
        <time>2019-12-30T14:13:24Z</time>
      </trkpt>
      <trkpt lat="43.79962" lon="7.05996">
        <ele>1386.3</ele>
        <time>2019-12-30T14:13:25Z</time>
      </trkpt>
      <trkpt lat="43.79962" lon="7.05996">
        <ele>1386.3</ele>
        <time>2019-12-30T14:13:26Z</time>
      </trkpt>
      <trkpt lat="43.79962" lon="7.05996">
        <ele>1386.3</ele>
        <time>2019-12-30T14:13:27Z</time>
      </trkpt>
      <trkpt lat="43.79962" lon="7.05996">
        <ele>1386.3</ele>
        <time>2019-12-30T14:13:28Z</time>
      </trkpt>
      <trkpt lat="43.79962" lon="7.05996">
        <ele>1386.3</ele>
        <time>2019-12-30T14:13:29Z</time>
      </trkpt>
      <trkpt lat="43.79963" lon="7.05996">
        <ele>1386.3</ele>
        <time>2019-12-30T14:13:30Z</time>
      </trkpt>
      <trkpt lat="43.79963" lon="7.05996">
        <ele>1386.2</ele>
        <time>2019-12-30T14:13:31Z</time>
      </trkpt>
      <trkpt lat="43.79964" lon="7.05996">
        <ele>1386.2</ele>
        <time>2019-12-30T14:13:32Z</time>
      </trkpt>
      <trkpt lat="43.79964" lon="7.05996">
        <ele>1386.2</ele>
        <time>2019-12-30T14:13:33Z</time>
      </trkpt>
      <trkpt lat="43.79964" lon="7.05996">
        <ele>1386.2</ele>
        <time>2019-12-30T14:13:34Z</time>
      </trkpt>
      <trkpt lat="43.79964" lon="7.05996">
        <ele>1386.2</ele>
        <time>2019-12-30T14:13:35Z</time>
      </trkpt>
      <trkpt lat="43.79964" lon="7.05996">
        <ele>1386.2</ele>
        <time>2019-12-30T14:13:36Z</time>
      </trkpt>
      <trkpt lat="43.79964" lon="7.05996">
        <ele>1386.2</ele>
        <time>2019-12-30T14:13:37Z</time>
      </trkpt>
      <trkpt lat="43.79964" lon="7.05996">
        <ele>1386.2</ele>
        <time>2019-12-30T14:13:38Z</time>
      </trkpt>
      <trkpt lat="43.79964" lon="7.05996">
        <ele>1386.2</ele>
        <time>2019-12-30T14:13:39Z</time>
      </trkpt>
      <trkpt lat="43.79964" lon="7.05996">
        <ele>1386.2</ele>
        <time>2019-12-30T14:13:40Z</time>
      </trkpt>
      <trkpt lat="43.79964" lon="7.05996">
        <ele>1386.2</ele>
        <time>2019-12-30T14:13:41Z</time>
      </trkpt>
      <trkpt lat="43.79964" lon="7.05996">
        <ele>1386.2</ele>
        <time>2019-12-30T14:13:42Z</time>
      </trkpt>
      <trkpt lat="43.79964" lon="7.05996">
        <ele>1386.2</ele>
        <time>2019-12-30T14:13:43Z</time>
      </trkpt>
      <trkpt lat="43.79964" lon="7.05996">
        <ele>1386.2</ele>
        <time>2019-12-30T14:13:44Z</time>
      </trkpt>
      <trkpt lat="43.79964" lon="7.05996">
        <ele>1386.2</ele>
        <time>2019-12-30T14:13:45Z</time>
      </trkpt>
      <trkpt lat="43.79964" lon="7.05996">
        <ele>1386.2</ele>
        <time>2019-12-30T14:13:46Z</time>
      </trkpt>
      <trkpt lat="43.79964" lon="7.05996">
        <ele>1386.2</ele>
        <time>2019-12-30T14:13:47Z</time>
      </trkpt>
      <trkpt lat="43.79964" lon="7.05996">
        <ele>1386.2</ele>
        <time>2019-12-30T14:13:48Z</time>
      </trkpt>
      <trkpt lat="43.79964" lon="7.05996">
        <ele>1386.2</ele>
        <time>2019-12-30T14:13:49Z</time>
      </trkpt>
      <trkpt lat="43.79964" lon="7.05996">
        <ele>1386.2</ele>
        <time>2019-12-30T14:13:50Z</time>
      </trkpt>
      <trkpt lat="43.79964" lon="7.05996">
        <ele>1386.2</ele>
        <time>2019-12-30T14:13:51Z</time>
      </trkpt>
      <trkpt lat="43.79964" lon="7.05996">
        <ele>1386.2</ele>
        <time>2019-12-30T14:13:52Z</time>
      </trkpt>
      <trkpt lat="43.79964" lon="7.05996">
        <ele>1386.2</ele>
        <time>2019-12-30T14:13:53Z</time>
      </trkpt>
      <trkpt lat="43.79964" lon="7.05996">
        <ele>1386.2</ele>
        <time>2019-12-30T14:13:54Z</time>
      </trkpt>
      <trkpt lat="43.79964" lon="7.05996">
        <ele>1386.2</ele>
        <time>2019-12-30T14:13:55Z</time>
      </trkpt>
      <trkpt lat="43.79964" lon="7.05996">
        <ele>1386.2</ele>
        <time>2019-12-30T14:13:56Z</time>
      </trkpt>
      <trkpt lat="43.79964" lon="7.05996">
        <ele>1386.2</ele>
        <time>2019-12-30T14:13:57Z</time>
      </trkpt>
      <trkpt lat="43.79964" lon="7.05996">
        <ele>1386.2</ele>
        <time>2019-12-30T14:13:58Z</time>
      </trkpt>
      <trkpt lat="43.79964" lon="7.05996">
        <ele>1386.2</ele>
        <time>2019-12-30T14:13:59Z</time>
      </trkpt>
      <trkpt lat="43.79964" lon="7.05996">
        <ele>1386.2</ele>
        <time>2019-12-30T14:14:00Z</time>
      </trkpt>
      <trkpt lat="43.79964" lon="7.05996">
        <ele>1386.2</ele>
        <time>2019-12-30T14:14:01Z</time>
      </trkpt>
      <trkpt lat="43.79964" lon="7.05996">
        <ele>1386.2</ele>
        <time>2019-12-30T14:14:02Z</time>
      </trkpt>
      <trkpt lat="43.79964" lon="7.05996">
        <ele>1386.2</ele>
        <time>2019-12-30T14:14:03Z</time>
      </trkpt>
      <trkpt lat="43.79964" lon="7.05996">
        <ele>1386.2</ele>
        <time>2019-12-30T14:14:04Z</time>
      </trkpt>
      <trkpt lat="43.79964" lon="7.05996">
        <ele>1386.2</ele>
        <time>2019-12-30T14:14:05Z</time>
      </trkpt>
      <trkpt lat="43.79964" lon="7.05996">
        <ele>1386.2</ele>
        <time>2019-12-30T14:14:06Z</time>
      </trkpt>
      <trkpt lat="43.79964" lon="7.05996">
        <ele>1386.2</ele>
        <time>2019-12-30T14:14:07Z</time>
      </trkpt>
      <trkpt lat="43.79964" lon="7.05996">
        <ele>1386.2</ele>
        <time>2019-12-30T14:14:08Z</time>
      </trkpt>
      <trkpt lat="43.79964" lon="7.05996">
        <ele>1386.2</ele>
        <time>2019-12-30T14:14:09Z</time>
      </trkpt>
      <trkpt lat="43.79964" lon="7.05996">
        <ele>1386.2</ele>
        <time>2019-12-30T14:14:10Z</time>
      </trkpt>
      <trkpt lat="43.79964" lon="7.05996">
        <ele>1386.2</ele>
        <time>2019-12-30T14:14:11Z</time>
      </trkpt>
      <trkpt lat="43.79964" lon="7.05996">
        <ele>1386.2</ele>
        <time>2019-12-30T14:14:12Z</time>
      </trkpt>
      <trkpt lat="43.79964" lon="7.05996">
        <ele>1386.2</ele>
        <time>2019-12-30T14:14:13Z</time>
      </trkpt>
      <trkpt lat="43.79964" lon="7.05996">
        <ele>1386.2</ele>
        <time>2019-12-30T14:14:14Z</time>
      </trkpt>
      <trkpt lat="43.79964" lon="7.05996">
        <ele>1386.2</ele>
        <time>2019-12-30T14:14:15Z</time>
      </trkpt>
      <trkpt lat="43.79964" lon="7.05996">
        <ele>1386.2</ele>
        <time>2019-12-30T14:14:16Z</time>
      </trkpt>
      <trkpt lat="43.79964" lon="7.05996">
        <ele>1386.2</ele>
        <time>2019-12-30T14:14:17Z</time>
      </trkpt>
      <trkpt lat="43.79964" lon="7.05996">
        <ele>1386.2</ele>
        <time>2019-12-30T14:14:18Z</time>
      </trkpt>
      <trkpt lat="43.79964" lon="7.05996">
        <ele>1386.2</ele>
        <time>2019-12-30T14:14:19Z</time>
      </trkpt>
      <trkpt lat="43.79964" lon="7.05996">
        <ele>1386.2</ele>
        <time>2019-12-30T14:14:20Z</time>
      </trkpt>
      <trkpt lat="43.79964" lon="7.05996">
        <ele>1386.2</ele>
        <time>2019-12-30T14:14:21Z</time>
      </trkpt>
      <trkpt lat="43.79964" lon="7.05996">
        <ele>1386.2</ele>
        <time>2019-12-30T14:14:22Z</time>
      </trkpt>
      <trkpt lat="43.79964" lon="7.05996">
        <ele>1386.2</ele>
        <time>2019-12-30T14:14:23Z</time>
      </trkpt>
      <trkpt lat="43.79964" lon="7.05996">
        <ele>1386.2</ele>
        <time>2019-12-30T14:14:24Z</time>
      </trkpt>
      <trkpt lat="43.79964" lon="7.05996">
        <ele>1386.2</ele>
        <time>2019-12-30T14:14:25Z</time>
      </trkpt>
      <trkpt lat="43.79964" lon="7.05996">
        <ele>1386.2</ele>
        <time>2019-12-30T14:14:26Z</time>
      </trkpt>
      <trkpt lat="43.79964" lon="7.05996">
        <ele>1386.2</ele>
        <time>2019-12-30T14:14:27Z</time>
      </trkpt>
      <trkpt lat="43.79964" lon="7.05996">
        <ele>1386.2</ele>
        <time>2019-12-30T14:14:28Z</time>
      </trkpt>
      <trkpt lat="43.79964" lon="7.05996">
        <ele>1386.2</ele>
        <time>2019-12-30T14:14:29Z</time>
      </trkpt>
      <trkpt lat="43.79964" lon="7.05996">
        <ele>1386.2</ele>
        <time>2019-12-30T14:14:30Z</time>
      </trkpt>
      <trkpt lat="43.79964" lon="7.05996">
        <ele>1386.2</ele>
        <time>2019-12-30T14:14:31Z</time>
      </trkpt>
      <trkpt lat="43.79964" lon="7.05996">
        <ele>1386.2</ele>
        <time>2019-12-30T14:14:32Z</time>
      </trkpt>
      <trkpt lat="43.79964" lon="7.05996">
        <ele>1386.2</ele>
        <time>2019-12-30T14:14:33Z</time>
      </trkpt>
      <trkpt lat="43.79964" lon="7.05996">
        <ele>1386.2</ele>
        <time>2019-12-30T14:14:34Z</time>
      </trkpt>
      <trkpt lat="43.79964" lon="7.05996">
        <ele>1386.2</ele>
        <time>2019-12-30T14:14:35Z</time>
      </trkpt>
      <trkpt lat="43.79964" lon="7.05996">
        <ele>1386.2</ele>
        <time>2019-12-30T14:14:36Z</time>
      </trkpt>
      <trkpt lat="43.79964" lon="7.05996">
        <ele>1386.2</ele>
        <time>2019-12-30T14:14:37Z</time>
      </trkpt>
      <trkpt lat="43.79964" lon="7.05996">
        <ele>1386.2</ele>
        <time>2019-12-30T14:14:38Z</time>
      </trkpt>
      <trkpt lat="43.79964" lon="7.05996">
        <ele>1386.2</ele>
        <time>2019-12-30T14:14:39Z</time>
      </trkpt>
      <trkpt lat="43.79964" lon="7.05996">
        <ele>1386.2</ele>
        <time>2019-12-30T14:14:40Z</time>
      </trkpt>
      <trkpt lat="43.79964" lon="7.05996">
        <ele>1386.2</ele>
        <time>2019-12-30T14:14:41Z</time>
      </trkpt>
      <trkpt lat="43.79964" lon="7.05996">
        <ele>1386.2</ele>
        <time>2019-12-30T14:14:42Z</time>
      </trkpt>
      <trkpt lat="43.79964" lon="7.05996">
        <ele>1386.2</ele>
        <time>2019-12-30T14:14:43Z</time>
      </trkpt>
      <trkpt lat="43.79964" lon="7.05996">
        <ele>1386.2</ele>
        <time>2019-12-30T14:14:44Z</time>
      </trkpt>
      <trkpt lat="43.79964" lon="7.05996">
        <ele>1386.2</ele>
        <time>2019-12-30T14:14:45Z</time>
      </trkpt>
      <trkpt lat="43.79964" lon="7.05996">
        <ele>1386.2</ele>
        <time>2019-12-30T14:14:46Z</time>
      </trkpt>
      <trkpt lat="43.79964" lon="7.05996">
        <ele>1386.2</ele>
        <time>2019-12-30T14:14:47Z</time>
      </trkpt>
      <trkpt lat="43.79964" lon="7.05996">
        <ele>1386.2</ele>
        <time>2019-12-30T14:14:48Z</time>
      </trkpt>
      <trkpt lat="43.79964" lon="7.05996">
        <ele>1386.2</ele>
        <time>2019-12-30T14:14:49Z</time>
      </trkpt>
      <trkpt lat="43.79964" lon="7.05996">
        <ele>1386.2</ele>
        <time>2019-12-30T14:14:50Z</time>
      </trkpt>
      <trkpt lat="43.79964" lon="7.05996">
        <ele>1386.2</ele>
        <time>2019-12-30T14:14:51Z</time>
      </trkpt>
      <trkpt lat="43.79964" lon="7.05996">
        <ele>1386.2</ele>
        <time>2019-12-30T14:14:52Z</time>
      </trkpt>
      <trkpt lat="43.79964" lon="7.05996">
        <ele>1386.2</ele>
        <time>2019-12-30T14:14:53Z</time>
      </trkpt>
      <trkpt lat="43.79964" lon="7.05996">
        <ele>1386.2</ele>
        <time>2019-12-30T14:14:54Z</time>
      </trkpt>
      <trkpt lat="43.79964" lon="7.05996">
        <ele>1386.2</ele>
        <time>2019-12-30T14:14:55Z</time>
      </trkpt>
      <trkpt lat="43.79964" lon="7.05996">
        <ele>1386.2</ele>
        <time>2019-12-30T14:14:56Z</time>
      </trkpt>
      <trkpt lat="43.79964" lon="7.05996">
        <ele>1386.2</ele>
        <time>2019-12-30T14:14:57Z</time>
      </trkpt>
      <trkpt lat="43.79964" lon="7.05996">
        <ele>1386.2</ele>
        <time>2019-12-30T14:14:58Z</time>
      </trkpt>
      <trkpt lat="43.79964" lon="7.05996">
        <ele>1386.2</ele>
        <time>2019-12-30T14:14:59Z</time>
      </trkpt>
      <trkpt lat="43.79964" lon="7.05996">
        <ele>1386.2</ele>
        <time>2019-12-30T14:15:00Z</time>
      </trkpt>
      <trkpt lat="43.79964" lon="7.05996">
        <ele>1386.2</ele>
        <time>2019-12-30T14:15:01Z</time>
      </trkpt>
      <trkpt lat="43.79964" lon="7.05996">
        <ele>1386.2</ele>
        <time>2019-12-30T14:15:02Z</time>
      </trkpt>
      <trkpt lat="43.79964" lon="7.05996">
        <ele>1386.2</ele>
        <time>2019-12-30T14:15:03Z</time>
      </trkpt>
      <trkpt lat="43.79964" lon="7.05996">
        <ele>1386.2</ele>
        <time>2019-12-30T14:15:04Z</time>
      </trkpt>
      <trkpt lat="43.79964" lon="7.05996">
        <ele>1386.2</ele>
        <time>2019-12-30T14:15:05Z</time>
      </trkpt>
      <trkpt lat="43.79964" lon="7.05996">
        <ele>1386.2</ele>
        <time>2019-12-30T14:15:06Z</time>
      </trkpt>
      <trkpt lat="43.79964" lon="7.05996">
        <ele>1386.2</ele>
        <time>2019-12-30T14:15:07Z</time>
      </trkpt>
      <trkpt lat="43.79964" lon="7.05996">
        <ele>1386.2</ele>
        <time>2019-12-30T14:15:08Z</time>
      </trkpt>
      <trkpt lat="43.79964" lon="7.05996">
        <ele>1386.2</ele>
        <time>2019-12-30T14:15:09Z</time>
      </trkpt>
      <trkpt lat="43.79964" lon="7.05996">
        <ele>1386.2</ele>
        <time>2019-12-30T14:15:10Z</time>
      </trkpt>
      <trkpt lat="43.79964" lon="7.05996">
        <ele>1386.2</ele>
        <time>2019-12-30T14:15:11Z</time>
      </trkpt>
      <trkpt lat="43.79964" lon="7.05996">
        <ele>1386.2</ele>
        <time>2019-12-30T14:15:12Z</time>
      </trkpt>
      <trkpt lat="43.79964" lon="7.05996">
        <ele>1386.2</ele>
        <time>2019-12-30T14:15:13Z</time>
      </trkpt>
      <trkpt lat="43.79964" lon="7.05996">
        <ele>1386.2</ele>
        <time>2019-12-30T14:15:14Z</time>
      </trkpt>
      <trkpt lat="43.79964" lon="7.05996">
        <ele>1386.2</ele>
        <time>2019-12-30T14:15:15Z</time>
      </trkpt>
      <trkpt lat="43.79964" lon="7.05996">
        <ele>1386.2</ele>
        <time>2019-12-30T14:15:16Z</time>
      </trkpt>
      <trkpt lat="43.79964" lon="7.05996">
        <ele>1386.2</ele>
        <time>2019-12-30T14:15:17Z</time>
      </trkpt>
      <trkpt lat="43.79964" lon="7.05996">
        <ele>1386.2</ele>
        <time>2019-12-30T14:15:18Z</time>
      </trkpt>
      <trkpt lat="43.79964" lon="7.05996">
        <ele>1386.2</ele>
        <time>2019-12-30T14:15:19Z</time>
      </trkpt>
      <trkpt lat="43.79964" lon="7.05996">
        <ele>1386.2</ele>
        <time>2019-12-30T14:15:20Z</time>
      </trkpt>
      <trkpt lat="43.79964" lon="7.05996">
        <ele>1386.2</ele>
        <time>2019-12-30T14:15:21Z</time>
      </trkpt>
      <trkpt lat="43.79964" lon="7.05996">
        <ele>1386.2</ele>
        <time>2019-12-30T14:15:22Z</time>
      </trkpt>
      <trkpt lat="43.79964" lon="7.05996">
        <ele>1386.2</ele>
        <time>2019-12-30T14:15:23Z</time>
      </trkpt>
      <trkpt lat="43.79964" lon="7.05996">
        <ele>1386.2</ele>
        <time>2019-12-30T14:15:24Z</time>
      </trkpt>
      <trkpt lat="43.79964" lon="7.05996">
        <ele>1386.2</ele>
        <time>2019-12-30T14:15:25Z</time>
      </trkpt>
      <trkpt lat="43.79964" lon="7.05996">
        <ele>1386.2</ele>
        <time>2019-12-30T14:15:26Z</time>
      </trkpt>
      <trkpt lat="43.79964" lon="7.05996">
        <ele>1386.2</ele>
        <time>2019-12-30T14:15:27Z</time>
      </trkpt>
      <trkpt lat="43.79964" lon="7.05996">
        <ele>1386.2</ele>
        <time>2019-12-30T14:15:28Z</time>
      </trkpt>
      <trkpt lat="43.79964" lon="7.05996">
        <ele>1386.2</ele>
        <time>2019-12-30T14:15:29Z</time>
      </trkpt>
      <trkpt lat="43.79964" lon="7.05996">
        <ele>1386.2</ele>
        <time>2019-12-30T14:15:30Z</time>
      </trkpt>
      <trkpt lat="43.79964" lon="7.05996">
        <ele>1386.2</ele>
        <time>2019-12-30T14:15:31Z</time>
      </trkpt>
      <trkpt lat="43.79964" lon="7.05996">
        <ele>1386.2</ele>
        <time>2019-12-30T14:15:32Z</time>
      </trkpt>
      <trkpt lat="43.79964" lon="7.05996">
        <ele>1386.2</ele>
        <time>2019-12-30T14:15:33Z</time>
      </trkpt>
      <trkpt lat="43.79964" lon="7.05996">
        <ele>1386.2</ele>
        <time>2019-12-30T14:15:34Z</time>
      </trkpt>
      <trkpt lat="43.79964" lon="7.05996">
        <ele>1386.2</ele>
        <time>2019-12-30T14:15:35Z</time>
      </trkpt>
      <trkpt lat="43.79964" lon="7.05996">
        <ele>1386.2</ele>
        <time>2019-12-30T14:15:36Z</time>
      </trkpt>
      <trkpt lat="43.79964" lon="7.05996">
        <ele>1386.2</ele>
        <time>2019-12-30T14:15:37Z</time>
      </trkpt>
      <trkpt lat="43.79963" lon="7.05996">
        <ele>1386.2</ele>
        <time>2019-12-30T14:15:38Z</time>
      </trkpt>
      <trkpt lat="43.79963" lon="7.05995">
        <ele>1386.2</ele>
        <time>2019-12-30T14:15:39Z</time>
      </trkpt>
      <trkpt lat="43.79962" lon="7.05995">
        <ele>1386.3</ele>
        <time>2019-12-30T14:15:40Z</time>
      </trkpt>
      <trkpt lat="43.79962" lon="7.05994">
        <ele>1386.3</ele>
        <time>2019-12-30T14:15:41Z</time>
      </trkpt>
      <trkpt lat="43.79962" lon="7.05994">
        <ele>1386.3</ele>
        <time>2019-12-30T14:15:42Z</time>
      </trkpt>
      <trkpt lat="43.79962" lon="7.05994">
        <ele>1386.3</ele>
        <time>2019-12-30T14:15:43Z</time>
      </trkpt>
      <trkpt lat="43.79962" lon="7.05993">
        <ele>1386.3</ele>
        <time>2019-12-30T14:15:44Z</time>
      </trkpt>
      <trkpt lat="43.79962" lon="7.05993">
        <ele>1386.3</ele>
        <time>2019-12-30T14:15:45Z</time>
      </trkpt>
      <trkpt lat="43.79962" lon="7.05993">
        <ele>1386.3</ele>
        <time>2019-12-30T14:15:46Z</time>
      </trkpt>
      <trkpt lat="43.79962" lon="7.05993">
        <ele>1386.3</ele>
        <time>2019-12-30T14:15:47Z</time>
      </trkpt>
      <trkpt lat="43.79962" lon="7.05993">
        <ele>1386.3</ele>
        <time>2019-12-30T14:15:48Z</time>
      </trkpt>
      <trkpt lat="43.79962" lon="7.05993">
        <ele>1386.3</ele>
        <time>2019-12-30T14:15:49Z</time>
      </trkpt>
      <trkpt lat="43.79962" lon="7.05993">
        <ele>1386.3</ele>
        <time>2019-12-30T14:15:50Z</time>
      </trkpt>
      <trkpt lat="43.79962" lon="7.05993">
        <ele>1386.3</ele>
        <time>2019-12-30T14:15:51Z</time>
      </trkpt>
      <trkpt lat="43.79962" lon="7.05993">
        <ele>1386.3</ele>
        <time>2019-12-30T14:15:52Z</time>
      </trkpt>
      <trkpt lat="43.79962" lon="7.05993">
        <ele>1386.3</ele>
        <time>2019-12-30T14:15:53Z</time>
      </trkpt>
      <trkpt lat="43.79962" lon="7.05993">
        <ele>1386.3</ele>
        <time>2019-12-30T14:15:54Z</time>
      </trkpt>
      <trkpt lat="43.79962" lon="7.05993">
        <ele>1386.3</ele>
        <time>2019-12-30T14:15:55Z</time>
      </trkpt>
      <trkpt lat="43.79962" lon="7.05993">
        <ele>1386.3</ele>
        <time>2019-12-30T14:15:56Z</time>
      </trkpt>
      <trkpt lat="43.79962" lon="7.05993">
        <ele>1386.3</ele>
        <time>2019-12-30T14:15:57Z</time>
      </trkpt>
      <trkpt lat="43.79962" lon="7.05993">
        <ele>1386.3</ele>
        <time>2019-12-30T14:15:58Z</time>
      </trkpt>
      <trkpt lat="43.79962" lon="7.05993">
        <ele>1386.3</ele>
        <time>2019-12-30T14:15:59Z</time>
      </trkpt>
      <trkpt lat="43.79962" lon="7.05993">
        <ele>1386.3</ele>
        <time>2019-12-30T14:16:00Z</time>
      </trkpt>
      <trkpt lat="43.79962" lon="7.05993">
        <ele>1386.3</ele>
        <time>2019-12-30T14:16:01Z</time>
      </trkpt>
      <trkpt lat="43.79962" lon="7.05993">
        <ele>1386.3</ele>
        <time>2019-12-30T14:16:02Z</time>
      </trkpt>
      <trkpt lat="43.79962" lon="7.05993">
        <ele>1386.3</ele>
        <time>2019-12-30T14:16:03Z</time>
      </trkpt>
      <trkpt lat="43.79961" lon="7.05993">
        <ele>1386.3</ele>
        <time>2019-12-30T14:16:04Z</time>
      </trkpt>
      <trkpt lat="43.79961" lon="7.05994">
        <ele>1386.3</ele>
        <time>2019-12-30T14:16:05Z</time>
      </trkpt>
      <trkpt lat="43.79961" lon="7.05994">
        <ele>1386.3</ele>
        <time>2019-12-30T14:16:06Z</time>
      </trkpt>
      <trkpt lat="43.79961" lon="7.05994">
        <ele>1386.3</ele>
        <time>2019-12-30T14:16:07Z</time>
      </trkpt>
      <trkpt lat="43.79961" lon="7.05994">
        <ele>1386.3</ele>
        <time>2019-12-30T14:16:08Z</time>
      </trkpt>
      <trkpt lat="43.79961" lon="7.05994">
        <ele>1386.3</ele>
        <time>2019-12-30T14:16:09Z</time>
      </trkpt>
      <trkpt lat="43.7996" lon="7.05994">
        <ele>1386.3</ele>
        <time>2019-12-30T14:16:10Z</time>
      </trkpt>
      <trkpt lat="43.7996" lon="7.05994">
        <ele>1386.3</ele>
        <time>2019-12-30T14:16:11Z</time>
      </trkpt>
      <trkpt lat="43.7996" lon="7.05994">
        <ele>1386.3</ele>
        <time>2019-12-30T14:16:12Z</time>
      </trkpt>
      <trkpt lat="43.7996" lon="7.05994">
        <ele>1386.3</ele>
        <time>2019-12-30T14:16:13Z</time>
      </trkpt>
      <trkpt lat="43.7996" lon="7.05994">
        <ele>1386.5</ele>
        <time>2019-12-30T14:16:14Z</time>
      </trkpt>
      <trkpt lat="43.7996" lon="7.05994">
        <ele>1386.5</ele>
        <time>2019-12-30T14:16:15Z</time>
      </trkpt>
      <trkpt lat="43.7996" lon="7.05994">
        <ele>1386.5</ele>
        <time>2019-12-30T14:16:16Z</time>
      </trkpt>
      <trkpt lat="43.7996" lon="7.05994">
        <ele>1386.5</ele>
        <time>2019-12-30T14:16:17Z</time>
      </trkpt>
      <trkpt lat="43.7996" lon="7.05994">
        <ele>1386.5</ele>
        <time>2019-12-30T14:16:18Z</time>
      </trkpt>
      <trkpt lat="43.7996" lon="7.05994">
        <ele>1386.5</ele>
        <time>2019-12-30T14:16:19Z</time>
      </trkpt>
      <trkpt lat="43.7996" lon="7.05994">
        <ele>1386.5</ele>
        <time>2019-12-30T14:16:20Z</time>
      </trkpt>
      <trkpt lat="43.7996" lon="7.05994">
        <ele>1386.5</ele>
        <time>2019-12-30T14:16:21Z</time>
      </trkpt>
      <trkpt lat="43.7996" lon="7.05994">
        <ele>1386.5</ele>
        <time>2019-12-30T14:16:22Z</time>
      </trkpt>
      <trkpt lat="43.7996" lon="7.05994">
        <ele>1386.5</ele>
        <time>2019-12-30T14:16:23Z</time>
      </trkpt>
      <trkpt lat="43.7996" lon="7.05994">
        <ele>1386.5</ele>
        <time>2019-12-30T14:16:24Z</time>
      </trkpt>
      <trkpt lat="43.7996" lon="7.05994">
        <ele>1386.5</ele>
        <time>2019-12-30T14:16:25Z</time>
      </trkpt>
      <trkpt lat="43.7996" lon="7.05994">
        <ele>1386.5</ele>
        <time>2019-12-30T14:16:26Z</time>
      </trkpt>
      <trkpt lat="43.7996" lon="7.05994">
        <ele>1386.5</ele>
        <time>2019-12-30T14:16:27Z</time>
      </trkpt>
      <trkpt lat="43.7996" lon="7.05994">
        <ele>1386.5</ele>
        <time>2019-12-30T14:16:28Z</time>
      </trkpt>
      <trkpt lat="43.7996" lon="7.05994">
        <ele>1386.5</ele>
        <time>2019-12-30T14:16:29Z</time>
      </trkpt>
      <trkpt lat="43.7996" lon="7.05994">
        <ele>1386.5</ele>
        <time>2019-12-30T14:16:30Z</time>
      </trkpt>
      <trkpt lat="43.7996" lon="7.05994">
        <ele>1386.5</ele>
        <time>2019-12-30T14:16:31Z</time>
      </trkpt>
      <trkpt lat="43.7996" lon="7.05994">
        <ele>1386.5</ele>
        <time>2019-12-30T14:16:32Z</time>
      </trkpt>
      <trkpt lat="43.7996" lon="7.05994">
        <ele>1386.5</ele>
        <time>2019-12-30T14:16:33Z</time>
      </trkpt>
      <trkpt lat="43.7996" lon="7.05994">
        <ele>1386.5</ele>
        <time>2019-12-30T14:16:34Z</time>
      </trkpt>
      <trkpt lat="43.7996" lon="7.05994">
        <ele>1386.5</ele>
        <time>2019-12-30T14:16:35Z</time>
      </trkpt>
      <trkpt lat="43.7996" lon="7.05994">
        <ele>1386.5</ele>
        <time>2019-12-30T14:16:36Z</time>
      </trkpt>
      <trkpt lat="43.7996" lon="7.05994">
        <ele>1386.5</ele>
        <time>2019-12-30T14:16:37Z</time>
      </trkpt>
      <trkpt lat="43.7996" lon="7.05994">
        <ele>1386.3</ele>
        <time>2019-12-30T14:16:38Z</time>
      </trkpt>
      <trkpt lat="43.7996" lon="7.05994">
        <ele>1386.3</ele>
        <time>2019-12-30T14:16:39Z</time>
      </trkpt>
      <trkpt lat="43.7996" lon="7.05994">
        <ele>1386.3</ele>
        <time>2019-12-30T14:16:40Z</time>
      </trkpt>
      <trkpt lat="43.7996" lon="7.05994">
        <ele>1386.3</ele>
        <time>2019-12-30T14:16:41Z</time>
      </trkpt>
      <trkpt lat="43.7996" lon="7.05994">
        <ele>1386.3</ele>
        <time>2019-12-30T14:16:42Z</time>
      </trkpt>
      <trkpt lat="43.79961" lon="7.05994">
        <ele>1386.3</ele>
        <time>2019-12-30T14:16:43Z</time>
      </trkpt>
      <trkpt lat="43.79961" lon="7.05994">
        <ele>1386.3</ele>
        <time>2019-12-30T14:16:44Z</time>
      </trkpt>
      <trkpt lat="43.79961" lon="7.05994">
        <ele>1386.3</ele>
        <time>2019-12-30T14:16:45Z</time>
      </trkpt>
      <trkpt lat="43.79961" lon="7.05994">
        <ele>1386.3</ele>
        <time>2019-12-30T14:16:46Z</time>
      </trkpt>
      <trkpt lat="43.79961" lon="7.05994">
        <ele>1386.3</ele>
        <time>2019-12-30T14:16:47Z</time>
      </trkpt>
      <trkpt lat="43.79961" lon="7.05994">
        <ele>1386.3</ele>
        <time>2019-12-30T14:16:48Z</time>
      </trkpt>
      <trkpt lat="43.79961" lon="7.05994">
        <ele>1386.3</ele>
        <time>2019-12-30T14:16:49Z</time>
      </trkpt>
      <trkpt lat="43.79961" lon="7.05994">
        <ele>1386.3</ele>
        <time>2019-12-30T14:16:50Z</time>
      </trkpt>
      <trkpt lat="43.79961" lon="7.05994">
        <ele>1386.3</ele>
        <time>2019-12-30T14:16:51Z</time>
      </trkpt>
      <trkpt lat="43.79961" lon="7.05994">
        <ele>1386.3</ele>
        <time>2019-12-30T14:16:52Z</time>
      </trkpt>
      <trkpt lat="43.79961" lon="7.05994">
        <ele>1386.3</ele>
        <time>2019-12-30T14:16:53Z</time>
      </trkpt>
      <trkpt lat="43.79961" lon="7.05994">
        <ele>1386.3</ele>
        <time>2019-12-30T14:16:54Z</time>
      </trkpt>
      <trkpt lat="43.79961" lon="7.05994">
        <ele>1386.3</ele>
        <time>2019-12-30T14:16:55Z</time>
      </trkpt>
      <trkpt lat="43.79961" lon="7.05994">
        <ele>1386.3</ele>
        <time>2019-12-30T14:16:56Z</time>
      </trkpt>
      <trkpt lat="43.79961" lon="7.05994">
        <ele>1386.3</ele>
        <time>2019-12-30T14:16:57Z</time>
      </trkpt>
      <trkpt lat="43.79961" lon="7.05994">
        <ele>1386.3</ele>
        <time>2019-12-30T14:16:58Z</time>
      </trkpt>
      <trkpt lat="43.79961" lon="7.05994">
        <ele>1386.3</ele>
        <time>2019-12-30T14:16:59Z</time>
      </trkpt>
      <trkpt lat="43.79961" lon="7.05994">
        <ele>1386.3</ele>
        <time>2019-12-30T14:17:00Z</time>
      </trkpt>
      <trkpt lat="43.79961" lon="7.05994">
        <ele>1386.3</ele>
        <time>2019-12-30T14:17:01Z</time>
      </trkpt>
      <trkpt lat="43.79961" lon="7.05994">
        <ele>1386.3</ele>
        <time>2019-12-30T14:17:02Z</time>
      </trkpt>
      <trkpt lat="43.79961" lon="7.05994">
        <ele>1386.3</ele>
        <time>2019-12-30T14:17:03Z</time>
      </trkpt>
      <trkpt lat="43.79961" lon="7.05994">
        <ele>1386.3</ele>
        <time>2019-12-30T14:17:04Z</time>
      </trkpt>
      <trkpt lat="43.79961" lon="7.05994">
        <ele>1386.3</ele>
        <time>2019-12-30T14:17:05Z</time>
      </trkpt>
      <trkpt lat="43.79961" lon="7.05994">
        <ele>1386.3</ele>
        <time>2019-12-30T14:17:06Z</time>
      </trkpt>
      <trkpt lat="43.79961" lon="7.05994">
        <ele>1386.3</ele>
        <time>2019-12-30T14:17:07Z</time>
      </trkpt>
      <trkpt lat="43.79961" lon="7.05994">
        <ele>1386.3</ele>
        <time>2019-12-30T14:17:08Z</time>
      </trkpt>
      <trkpt lat="43.79961" lon="7.05994">
        <ele>1386.3</ele>
        <time>2019-12-30T14:17:09Z</time>
      </trkpt>
      <trkpt lat="43.79961" lon="7.05994">
        <ele>1386.3</ele>
        <time>2019-12-30T14:17:10Z</time>
      </trkpt>
      <trkpt lat="43.79961" lon="7.05994">
        <ele>1386.3</ele>
        <time>2019-12-30T14:17:11Z</time>
      </trkpt>
      <trkpt lat="43.79961" lon="7.05994">
        <ele>1386.3</ele>
        <time>2019-12-30T14:17:12Z</time>
      </trkpt>
      <trkpt lat="43.79961" lon="7.05994">
        <ele>1386.3</ele>
        <time>2019-12-30T14:17:13Z</time>
      </trkpt>
      <trkpt lat="43.79961" lon="7.05994">
        <ele>1386.3</ele>
        <time>2019-12-30T14:17:14Z</time>
      </trkpt>
      <trkpt lat="43.79961" lon="7.05994">
        <ele>1386.3</ele>
        <time>2019-12-30T14:17:15Z</time>
      </trkpt>
      <trkpt lat="43.79961" lon="7.05994">
        <ele>1386.3</ele>
        <time>2019-12-30T14:17:16Z</time>
      </trkpt>
      <trkpt lat="43.79961" lon="7.05994">
        <ele>1386.3</ele>
        <time>2019-12-30T14:17:17Z</time>
      </trkpt>
      <trkpt lat="43.79961" lon="7.05994">
        <ele>1386.3</ele>
        <time>2019-12-30T14:17:18Z</time>
      </trkpt>
      <trkpt lat="43.79961" lon="7.05994">
        <ele>1386.3</ele>
        <time>2019-12-30T14:17:19Z</time>
      </trkpt>
      <trkpt lat="43.79961" lon="7.05994">
        <ele>1386.3</ele>
        <time>2019-12-30T14:17:20Z</time>
      </trkpt>
      <trkpt lat="43.79961" lon="7.05994">
        <ele>1386.3</ele>
        <time>2019-12-30T14:17:21Z</time>
      </trkpt>
      <trkpt lat="43.79961" lon="7.05994">
        <ele>1386.3</ele>
        <time>2019-12-30T14:17:22Z</time>
      </trkpt>
      <trkpt lat="43.79961" lon="7.05994">
        <ele>1386.3</ele>
        <time>2019-12-30T14:17:23Z</time>
      </trkpt>
      <trkpt lat="43.79961" lon="7.05994">
        <ele>1386.3</ele>
        <time>2019-12-30T14:17:24Z</time>
      </trkpt>
      <trkpt lat="43.79961" lon="7.05994">
        <ele>1386.3</ele>
        <time>2019-12-30T14:17:25Z</time>
      </trkpt>
      <trkpt lat="43.79961" lon="7.05994">
        <ele>1386.3</ele>
        <time>2019-12-30T14:17:26Z</time>
      </trkpt>
      <trkpt lat="43.79961" lon="7.05994">
        <ele>1386.3</ele>
        <time>2019-12-30T14:17:27Z</time>
      </trkpt>
      <trkpt lat="43.79961" lon="7.05994">
        <ele>1386.3</ele>
        <time>2019-12-30T14:17:28Z</time>
      </trkpt>
      <trkpt lat="43.79961" lon="7.05994">
        <ele>1386.3</ele>
        <time>2019-12-30T14:17:29Z</time>
      </trkpt>
      <trkpt lat="43.79961" lon="7.05994">
        <ele>1386.3</ele>
        <time>2019-12-30T14:17:30Z</time>
      </trkpt>
      <trkpt lat="43.79961" lon="7.05994">
        <ele>1386.3</ele>
        <time>2019-12-30T14:17:31Z</time>
      </trkpt>
      <trkpt lat="43.79961" lon="7.05994">
        <ele>1386.3</ele>
        <time>2019-12-30T14:17:32Z</time>
      </trkpt>
      <trkpt lat="43.79961" lon="7.05994">
        <ele>1386.3</ele>
        <time>2019-12-30T14:17:33Z</time>
      </trkpt>
      <trkpt lat="43.79961" lon="7.05994">
        <ele>1386.3</ele>
        <time>2019-12-30T14:17:34Z</time>
      </trkpt>
      <trkpt lat="43.79961" lon="7.05994">
        <ele>1386.3</ele>
        <time>2019-12-30T14:17:35Z</time>
      </trkpt>
      <trkpt lat="43.79961" lon="7.05994">
        <ele>1386.3</ele>
        <time>2019-12-30T14:17:36Z</time>
      </trkpt>
      <trkpt lat="43.79961" lon="7.05994">
        <ele>1386.3</ele>
        <time>2019-12-30T14:17:37Z</time>
      </trkpt>
      <trkpt lat="43.79961" lon="7.05994">
        <ele>1386.3</ele>
        <time>2019-12-30T14:17:38Z</time>
      </trkpt>
      <trkpt lat="43.79961" lon="7.05994">
        <ele>1386.3</ele>
        <time>2019-12-30T14:17:39Z</time>
      </trkpt>
      <trkpt lat="43.79961" lon="7.05994">
        <ele>1386.3</ele>
        <time>2019-12-30T14:17:40Z</time>
      </trkpt>
      <trkpt lat="43.79961" lon="7.05994">
        <ele>1386.3</ele>
        <time>2019-12-30T14:17:41Z</time>
      </trkpt>
      <trkpt lat="43.79961" lon="7.05994">
        <ele>1386.3</ele>
        <time>2019-12-30T14:17:42Z</time>
      </trkpt>
      <trkpt lat="43.79961" lon="7.05994">
        <ele>1386.3</ele>
        <time>2019-12-30T14:17:43Z</time>
      </trkpt>
      <trkpt lat="43.79961" lon="7.05994">
        <ele>1386.3</ele>
        <time>2019-12-30T14:17:44Z</time>
      </trkpt>
      <trkpt lat="43.79961" lon="7.05994">
        <ele>1386.3</ele>
        <time>2019-12-30T14:17:45Z</time>
      </trkpt>
      <trkpt lat="43.79961" lon="7.05994">
        <ele>1386.3</ele>
        <time>2019-12-30T14:17:46Z</time>
      </trkpt>
      <trkpt lat="43.79961" lon="7.05994">
        <ele>1386.3</ele>
        <time>2019-12-30T14:17:47Z</time>
      </trkpt>
      <trkpt lat="43.79961" lon="7.05994">
        <ele>1386.3</ele>
        <time>2019-12-30T14:17:48Z</time>
      </trkpt>
      <trkpt lat="43.79961" lon="7.05994">
        <ele>1386.3</ele>
        <time>2019-12-30T14:17:49Z</time>
      </trkpt>
      <trkpt lat="43.79961" lon="7.05994">
        <ele>1386.3</ele>
        <time>2019-12-30T14:17:50Z</time>
      </trkpt>
      <trkpt lat="43.79961" lon="7.05994">
        <ele>1386.3</ele>
        <time>2019-12-30T14:17:51Z</time>
      </trkpt>
      <trkpt lat="43.79961" lon="7.05994">
        <ele>1386.3</ele>
        <time>2019-12-30T14:17:52Z</time>
      </trkpt>
      <trkpt lat="43.79961" lon="7.05994">
        <ele>1386.3</ele>
        <time>2019-12-30T14:17:53Z</time>
      </trkpt>
      <trkpt lat="43.79961" lon="7.05994">
        <ele>1386.3</ele>
        <time>2019-12-30T14:17:54Z</time>
      </trkpt>
      <trkpt lat="43.79961" lon="7.05994">
        <ele>1386.3</ele>
        <time>2019-12-30T14:17:55Z</time>
      </trkpt>
      <trkpt lat="43.79961" lon="7.05994">
        <ele>1386.3</ele>
        <time>2019-12-30T14:17:56Z</time>
      </trkpt>
      <trkpt lat="43.79961" lon="7.05994">
        <ele>1386.3</ele>
        <time>2019-12-30T14:17:57Z</time>
      </trkpt>
      <trkpt lat="43.79961" lon="7.05994">
        <ele>1386.3</ele>
        <time>2019-12-30T14:17:58Z</time>
      </trkpt>
      <trkpt lat="43.79961" lon="7.05994">
        <ele>1386.3</ele>
        <time>2019-12-30T14:17:59Z</time>
      </trkpt>
      <trkpt lat="43.79961" lon="7.05994">
        <ele>1386.3</ele>
        <time>2019-12-30T14:18:00Z</time>
      </trkpt>
      <trkpt lat="43.79961" lon="7.05994">
        <ele>1386.3</ele>
        <time>2019-12-30T14:18:01Z</time>
      </trkpt>
      <trkpt lat="43.79961" lon="7.05994">
        <ele>1386.3</ele>
        <time>2019-12-30T14:18:02Z</time>
      </trkpt>
      <trkpt lat="43.79961" lon="7.05994">
        <ele>1386.3</ele>
        <time>2019-12-30T14:18:03Z</time>
      </trkpt>
      <trkpt lat="43.79961" lon="7.05994">
        <ele>1386.3</ele>
        <time>2019-12-30T14:18:04Z</time>
      </trkpt>
      <trkpt lat="43.79961" lon="7.05994">
        <ele>1386.3</ele>
        <time>2019-12-30T14:18:05Z</time>
      </trkpt>
      <trkpt lat="43.79961" lon="7.05994">
        <ele>1386.3</ele>
        <time>2019-12-30T14:18:06Z</time>
      </trkpt>
      <trkpt lat="43.79961" lon="7.05994">
        <ele>1386.3</ele>
        <time>2019-12-30T14:18:07Z</time>
      </trkpt>
      <trkpt lat="43.79961" lon="7.05994">
        <ele>1386.3</ele>
        <time>2019-12-30T14:18:08Z</time>
      </trkpt>
      <trkpt lat="43.79961" lon="7.05994">
        <ele>1386.3</ele>
        <time>2019-12-30T14:18:09Z</time>
      </trkpt>
      <trkpt lat="43.79961" lon="7.05994">
        <ele>1386.2</ele>
        <time>2019-12-30T14:18:10Z</time>
      </trkpt>
      <trkpt lat="43.79961" lon="7.05994">
        <ele>1386.2</ele>
        <time>2019-12-30T14:18:11Z</time>
      </trkpt>
      <trkpt lat="43.79961" lon="7.05994">
        <ele>1386.2</ele>
        <time>2019-12-30T14:18:12Z</time>
      </trkpt>
      <trkpt lat="43.79961" lon="7.05994">
        <ele>1386.2</ele>
        <time>2019-12-30T14:18:13Z</time>
      </trkpt>
      <trkpt lat="43.79961" lon="7.05994">
        <ele>1386.2</ele>
        <time>2019-12-30T14:18:14Z</time>
      </trkpt>
      <trkpt lat="43.79961" lon="7.05994">
        <ele>1386.2</ele>
        <time>2019-12-30T14:18:15Z</time>
      </trkpt>
      <trkpt lat="43.79961" lon="7.05994">
        <ele>1386.2</ele>
        <time>2019-12-30T14:18:16Z</time>
      </trkpt>
      <trkpt lat="43.79961" lon="7.05994">
        <ele>1386.2</ele>
        <time>2019-12-30T14:18:17Z</time>
      </trkpt>
      <trkpt lat="43.79961" lon="7.05994">
        <ele>1386.2</ele>
        <time>2019-12-30T14:18:18Z</time>
      </trkpt>
      <trkpt lat="43.79961" lon="7.05994">
        <ele>1386.2</ele>
        <time>2019-12-30T14:18:19Z</time>
      </trkpt>
      <trkpt lat="43.79961" lon="7.05994">
        <ele>1386.1</ele>
        <time>2019-12-30T14:18:20Z</time>
      </trkpt>
      <trkpt lat="43.79961" lon="7.05994">
        <ele>1386.1</ele>
        <time>2019-12-30T14:18:21Z</time>
      </trkpt>
      <trkpt lat="43.79961" lon="7.05994">
        <ele>1386.1</ele>
        <time>2019-12-30T14:18:22Z</time>
      </trkpt>
      <trkpt lat="43.79961" lon="7.05994">
        <ele>1386.1</ele>
        <time>2019-12-30T14:18:23Z</time>
      </trkpt>
      <trkpt lat="43.79961" lon="7.05994">
        <ele>1386.1</ele>
        <time>2019-12-30T14:18:24Z</time>
      </trkpt>
      <trkpt lat="43.79961" lon="7.05994">
        <ele>1386.1</ele>
        <time>2019-12-30T14:18:25Z</time>
      </trkpt>
      <trkpt lat="43.79961" lon="7.05994">
        <ele>1386.1</ele>
        <time>2019-12-30T14:18:26Z</time>
      </trkpt>
      <trkpt lat="43.79961" lon="7.05994">
        <ele>1386.1</ele>
        <time>2019-12-30T14:18:27Z</time>
      </trkpt>
      <trkpt lat="43.79961" lon="7.05994">
        <ele>1386.1</ele>
        <time>2019-12-30T14:18:28Z</time>
      </trkpt>
      <trkpt lat="43.79961" lon="7.05994">
        <ele>1386.1</ele>
        <time>2019-12-30T14:18:29Z</time>
      </trkpt>
      <trkpt lat="43.79961" lon="7.05994">
        <ele>1386</ele>
        <time>2019-12-30T14:18:30Z</time>
      </trkpt>
      <trkpt lat="43.79961" lon="7.05994">
        <ele>1386</ele>
        <time>2019-12-30T14:18:31Z</time>
      </trkpt>
      <trkpt lat="43.79961" lon="7.05994">
        <ele>1386</ele>
        <time>2019-12-30T14:18:32Z</time>
      </trkpt>
      <trkpt lat="43.79961" lon="7.05994">
        <ele>1386</ele>
        <time>2019-12-30T14:18:33Z</time>
      </trkpt>
      <trkpt lat="43.79961" lon="7.05994">
        <ele>1386</ele>
        <time>2019-12-30T14:18:34Z</time>
      </trkpt>
      <trkpt lat="43.79961" lon="7.05994">
        <ele>1386</ele>
        <time>2019-12-30T14:18:35Z</time>
      </trkpt>
      <trkpt lat="43.79961" lon="7.05994">
        <ele>1386</ele>
        <time>2019-12-30T14:18:36Z</time>
      </trkpt>
      <trkpt lat="43.79961" lon="7.05994">
        <ele>1386</ele>
        <time>2019-12-30T14:18:37Z</time>
      </trkpt>
      <trkpt lat="43.79961" lon="7.05994">
        <ele>1386</ele>
        <time>2019-12-30T14:18:38Z</time>
      </trkpt>
      <trkpt lat="43.79961" lon="7.05994">
        <ele>1386</ele>
        <time>2019-12-30T14:18:39Z</time>
      </trkpt>
      <trkpt lat="43.79961" lon="7.05994">
        <ele>1385.9</ele>
        <time>2019-12-30T14:18:40Z</time>
      </trkpt>
      <trkpt lat="43.79961" lon="7.05994">
        <ele>1385.9</ele>
        <time>2019-12-30T14:18:41Z</time>
      </trkpt>
      <trkpt lat="43.79961" lon="7.05994">
        <ele>1385.9</ele>
        <time>2019-12-30T14:18:42Z</time>
      </trkpt>
      <trkpt lat="43.79961" lon="7.05994">
        <ele>1385.9</ele>
        <time>2019-12-30T14:18:43Z</time>
      </trkpt>
      <trkpt lat="43.79961" lon="7.05994">
        <ele>1385.9</ele>
        <time>2019-12-30T14:18:44Z</time>
      </trkpt>
      <trkpt lat="43.79961" lon="7.05994">
        <ele>1385.9</ele>
        <time>2019-12-30T14:18:45Z</time>
      </trkpt>
      <trkpt lat="43.79961" lon="7.05994">
        <ele>1385.9</ele>
        <time>2019-12-30T14:18:46Z</time>
      </trkpt>
      <trkpt lat="43.79961" lon="7.05994">
        <ele>1385.9</ele>
        <time>2019-12-30T14:18:47Z</time>
      </trkpt>
      <trkpt lat="43.79961" lon="7.05994">
        <ele>1385.9</ele>
        <time>2019-12-30T14:18:48Z</time>
      </trkpt>
      <trkpt lat="43.79961" lon="7.05994">
        <ele>1385.9</ele>
        <time>2019-12-30T14:18:49Z</time>
      </trkpt>
      <trkpt lat="43.79961" lon="7.05994">
        <ele>1385.8</ele>
        <time>2019-12-30T14:18:50Z</time>
      </trkpt>
      <trkpt lat="43.79961" lon="7.05994">
        <ele>1385.8</ele>
        <time>2019-12-30T14:18:51Z</time>
      </trkpt>
      <trkpt lat="43.79961" lon="7.05994">
        <ele>1385.8</ele>
        <time>2019-12-30T14:18:52Z</time>
      </trkpt>
      <trkpt lat="43.79961" lon="7.05994">
        <ele>1385.8</ele>
        <time>2019-12-30T14:18:53Z</time>
      </trkpt>
      <trkpt lat="43.79961" lon="7.05994">
        <ele>1385.8</ele>
        <time>2019-12-30T14:18:54Z</time>
      </trkpt>
      <trkpt lat="43.79961" lon="7.05994">
        <ele>1385.8</ele>
        <time>2019-12-30T14:18:55Z</time>
      </trkpt>
      <trkpt lat="43.79961" lon="7.05994">
        <ele>1385.8</ele>
        <time>2019-12-30T14:18:56Z</time>
      </trkpt>
      <trkpt lat="43.79961" lon="7.05994">
        <ele>1385.8</ele>
        <time>2019-12-30T14:18:57Z</time>
      </trkpt>
      <trkpt lat="43.79961" lon="7.05994">
        <ele>1385.8</ele>
        <time>2019-12-30T14:18:58Z</time>
      </trkpt>
      <trkpt lat="43.79961" lon="7.05994">
        <ele>1385.8</ele>
        <time>2019-12-30T14:18:59Z</time>
      </trkpt>
      <trkpt lat="43.79961" lon="7.05994">
        <ele>1385.7</ele>
        <time>2019-12-30T14:19:00Z</time>
      </trkpt>
      <trkpt lat="43.79961" lon="7.05994">
        <ele>1385.7</ele>
        <time>2019-12-30T14:19:01Z</time>
      </trkpt>
      <trkpt lat="43.79961" lon="7.05994">
        <ele>1385.7</ele>
        <time>2019-12-30T14:19:02Z</time>
      </trkpt>
      <trkpt lat="43.79961" lon="7.05994">
        <ele>1385.7</ele>
        <time>2019-12-30T14:19:03Z</time>
      </trkpt>
      <trkpt lat="43.79961" lon="7.05994">
        <ele>1385.7</ele>
        <time>2019-12-30T14:19:04Z</time>
      </trkpt>
      <trkpt lat="43.79961" lon="7.05994">
        <ele>1385.7</ele>
        <time>2019-12-30T14:19:05Z</time>
      </trkpt>
      <trkpt lat="43.79961" lon="7.05994">
        <ele>1385.7</ele>
        <time>2019-12-30T14:19:06Z</time>
      </trkpt>
      <trkpt lat="43.79961" lon="7.05994">
        <ele>1385.7</ele>
        <time>2019-12-30T14:19:07Z</time>
      </trkpt>
      <trkpt lat="43.79961" lon="7.05994">
        <ele>1385.7</ele>
        <time>2019-12-30T14:19:08Z</time>
      </trkpt>
      <trkpt lat="43.79961" lon="7.05994">
        <ele>1385.7</ele>
        <time>2019-12-30T14:19:09Z</time>
      </trkpt>
      <trkpt lat="43.79961" lon="7.05994">
        <ele>1385.6</ele>
        <time>2019-12-30T14:19:10Z</time>
      </trkpt>
      <trkpt lat="43.79961" lon="7.05994">
        <ele>1385.6</ele>
        <time>2019-12-30T14:19:11Z</time>
      </trkpt>
      <trkpt lat="43.79961" lon="7.05994">
        <ele>1385.6</ele>
        <time>2019-12-30T14:19:12Z</time>
      </trkpt>
      <trkpt lat="43.79961" lon="7.05994">
        <ele>1385.6</ele>
        <time>2019-12-30T14:19:13Z</time>
      </trkpt>
      <trkpt lat="43.79961" lon="7.05994">
        <ele>1385.6</ele>
        <time>2019-12-30T14:19:14Z</time>
      </trkpt>
      <trkpt lat="43.79961" lon="7.05994">
        <ele>1385.6</ele>
        <time>2019-12-30T14:19:15Z</time>
      </trkpt>
      <trkpt lat="43.79961" lon="7.05994">
        <ele>1385.6</ele>
        <time>2019-12-30T14:19:16Z</time>
      </trkpt>
      <trkpt lat="43.79961" lon="7.05994">
        <ele>1385.6</ele>
        <time>2019-12-30T14:19:17Z</time>
      </trkpt>
      <trkpt lat="43.79961" lon="7.05994">
        <ele>1385.6</ele>
        <time>2019-12-30T14:19:18Z</time>
      </trkpt>
      <trkpt lat="43.79961" lon="7.05994">
        <ele>1385.6</ele>
        <time>2019-12-30T14:19:19Z</time>
      </trkpt>
      <trkpt lat="43.79961" lon="7.05994">
        <ele>1385.5</ele>
        <time>2019-12-30T14:19:20Z</time>
      </trkpt>
      <trkpt lat="43.79961" lon="7.05994">
        <ele>1385.5</ele>
        <time>2019-12-30T14:19:21Z</time>
      </trkpt>
      <trkpt lat="43.79961" lon="7.05994">
        <ele>1385.5</ele>
        <time>2019-12-30T14:19:22Z</time>
      </trkpt>
      <trkpt lat="43.79961" lon="7.05994">
        <ele>1385.5</ele>
        <time>2019-12-30T14:19:23Z</time>
      </trkpt>
      <trkpt lat="43.79961" lon="7.05994">
        <ele>1385.5</ele>
        <time>2019-12-30T14:19:24Z</time>
      </trkpt>
      <trkpt lat="43.79961" lon="7.05994">
        <ele>1385.5</ele>
        <time>2019-12-30T14:19:25Z</time>
      </trkpt>
      <trkpt lat="43.79961" lon="7.05994">
        <ele>1385.5</ele>
        <time>2019-12-30T14:19:26Z</time>
      </trkpt>
      <trkpt lat="43.79961" lon="7.05994">
        <ele>1385.5</ele>
        <time>2019-12-30T14:19:27Z</time>
      </trkpt>
      <trkpt lat="43.79961" lon="7.05994">
        <ele>1385.5</ele>
        <time>2019-12-30T14:19:28Z</time>
      </trkpt>
      <trkpt lat="43.79961" lon="7.05994">
        <ele>1385.4</ele>
        <time>2019-12-30T14:19:29Z</time>
      </trkpt>
      <trkpt lat="43.79961" lon="7.05994">
        <ele>1385.4</ele>
        <time>2019-12-30T14:19:30Z</time>
      </trkpt>
      <trkpt lat="43.79961" lon="7.05994">
        <ele>1385.4</ele>
        <time>2019-12-30T14:19:31Z</time>
      </trkpt>
      <trkpt lat="43.79961" lon="7.05994">
        <ele>1385.4</ele>
        <time>2019-12-30T14:19:32Z</time>
      </trkpt>
      <trkpt lat="43.79961" lon="7.05994">
        <ele>1385.4</ele>
        <time>2019-12-30T14:19:33Z</time>
      </trkpt>
      <trkpt lat="43.79961" lon="7.05994">
        <ele>1385.4</ele>
        <time>2019-12-30T14:19:34Z</time>
      </trkpt>
      <trkpt lat="43.79961" lon="7.05994">
        <ele>1385.4</ele>
        <time>2019-12-30T14:19:35Z</time>
      </trkpt>
      <trkpt lat="43.79961" lon="7.05994">
        <ele>1385.4</ele>
        <time>2019-12-30T14:19:36Z</time>
      </trkpt>
      <trkpt lat="43.79961" lon="7.05994">
        <ele>1385.4</ele>
        <time>2019-12-30T14:19:37Z</time>
      </trkpt>
      <trkpt lat="43.79961" lon="7.05994">
        <ele>1385.4</ele>
        <time>2019-12-30T14:19:38Z</time>
      </trkpt>
      <trkpt lat="43.79961" lon="7.05994">
        <ele>1385.4</ele>
        <time>2019-12-30T14:19:39Z</time>
      </trkpt>
      <trkpt lat="43.79961" lon="7.05994">
        <ele>1385.3</ele>
        <time>2019-12-30T14:19:40Z</time>
      </trkpt>
      <trkpt lat="43.79961" lon="7.05994">
        <ele>1385.3</ele>
        <time>2019-12-30T14:19:41Z</time>
      </trkpt>
      <trkpt lat="43.79961" lon="7.05994">
        <ele>1385.3</ele>
        <time>2019-12-30T14:19:42Z</time>
      </trkpt>
      <trkpt lat="43.79961" lon="7.05994">
        <ele>1385.3</ele>
        <time>2019-12-30T14:19:43Z</time>
      </trkpt>
      <trkpt lat="43.79961" lon="7.05994">
        <ele>1385.3</ele>
        <time>2019-12-30T14:19:44Z</time>
      </trkpt>
      <trkpt lat="43.79961" lon="7.05994">
        <ele>1385.3</ele>
        <time>2019-12-30T14:19:45Z</time>
      </trkpt>
      <trkpt lat="43.79961" lon="7.05994">
        <ele>1385.3</ele>
        <time>2019-12-30T14:19:46Z</time>
      </trkpt>
      <trkpt lat="43.79961" lon="7.05994">
        <ele>1385.3</ele>
        <time>2019-12-30T14:19:47Z</time>
      </trkpt>
      <trkpt lat="43.79961" lon="7.05994">
        <ele>1385.3</ele>
        <time>2019-12-30T14:19:48Z</time>
      </trkpt>
      <trkpt lat="43.79961" lon="7.05994">
        <ele>1385.3</ele>
        <time>2019-12-30T14:19:49Z</time>
      </trkpt>
      <trkpt lat="43.79961" lon="7.05994">
        <ele>1385.3</ele>
        <time>2019-12-30T14:19:50Z</time>
      </trkpt>
      <trkpt lat="43.79961" lon="7.05994">
        <ele>1385.3</ele>
        <time>2019-12-30T14:19:51Z</time>
      </trkpt>
      <trkpt lat="43.79961" lon="7.05994">
        <ele>1385.3</ele>
        <time>2019-12-30T14:19:52Z</time>
      </trkpt>
      <trkpt lat="43.79961" lon="7.05994">
        <ele>1385.3</ele>
        <time>2019-12-30T14:19:53Z</time>
      </trkpt>
      <trkpt lat="43.79961" lon="7.05994">
        <ele>1385.3</ele>
        <time>2019-12-30T14:19:54Z</time>
      </trkpt>
      <trkpt lat="43.79961" lon="7.05994">
        <ele>1385.3</ele>
        <time>2019-12-30T14:19:55Z</time>
      </trkpt>
      <trkpt lat="43.79961" lon="7.05994">
        <ele>1385.3</ele>
        <time>2019-12-30T14:19:56Z</time>
      </trkpt>
      <trkpt lat="43.79961" lon="7.05994">
        <ele>1385.3</ele>
        <time>2019-12-30T14:19:57Z</time>
      </trkpt>
      <trkpt lat="43.79961" lon="7.05994">
        <ele>1385.3</ele>
        <time>2019-12-30T14:19:58Z</time>
      </trkpt>
      <trkpt lat="43.79961" lon="7.05994">
        <ele>1385.3</ele>
        <time>2019-12-30T14:19:59Z</time>
      </trkpt>
      <trkpt lat="43.79961" lon="7.05994">
        <ele>1385.3</ele>
        <time>2019-12-30T14:20:00Z</time>
      </trkpt>
      <trkpt lat="43.79961" lon="7.05994">
        <ele>1385.3</ele>
        <time>2019-12-30T14:20:01Z</time>
      </trkpt>
      <trkpt lat="43.79961" lon="7.05994">
        <ele>1385.3</ele>
        <time>2019-12-30T14:20:02Z</time>
      </trkpt>
      <trkpt lat="43.79961" lon="7.05994">
        <ele>1385.3</ele>
        <time>2019-12-30T14:20:03Z</time>
      </trkpt>
      <trkpt lat="43.79961" lon="7.05994">
        <ele>1385.3</ele>
        <time>2019-12-30T14:20:04Z</time>
      </trkpt>
      <trkpt lat="43.79961" lon="7.05994">
        <ele>1385.3</ele>
        <time>2019-12-30T14:20:05Z</time>
      </trkpt>
      <trkpt lat="43.79961" lon="7.05994">
        <ele>1385.3</ele>
        <time>2019-12-30T14:20:06Z</time>
      </trkpt>
      <trkpt lat="43.79961" lon="7.05994">
        <ele>1385.3</ele>
        <time>2019-12-30T14:20:07Z</time>
      </trkpt>
      <trkpt lat="43.79961" lon="7.05994">
        <ele>1385.3</ele>
        <time>2019-12-30T14:20:08Z</time>
      </trkpt>
      <trkpt lat="43.79961" lon="7.05994">
        <ele>1385.3</ele>
        <time>2019-12-30T14:20:09Z</time>
      </trkpt>
      <trkpt lat="43.79961" lon="7.05994">
        <ele>1385.3</ele>
        <time>2019-12-30T14:20:10Z</time>
      </trkpt>
      <trkpt lat="43.79961" lon="7.05994">
        <ele>1385.3</ele>
        <time>2019-12-30T14:20:11Z</time>
      </trkpt>
      <trkpt lat="43.79961" lon="7.05994">
        <ele>1385.3</ele>
        <time>2019-12-30T14:20:12Z</time>
      </trkpt>
      <trkpt lat="43.79961" lon="7.05994">
        <ele>1385.3</ele>
        <time>2019-12-30T14:20:13Z</time>
      </trkpt>
      <trkpt lat="43.79961" lon="7.05994">
        <ele>1385.3</ele>
        <time>2019-12-30T14:20:14Z</time>
      </trkpt>
      <trkpt lat="43.79961" lon="7.05994">
        <ele>1385.3</ele>
        <time>2019-12-30T14:20:15Z</time>
      </trkpt>
      <trkpt lat="43.79961" lon="7.05994">
        <ele>1385.3</ele>
        <time>2019-12-30T14:20:16Z</time>
      </trkpt>
      <trkpt lat="43.79961" lon="7.05994">
        <ele>1385.3</ele>
        <time>2019-12-30T14:20:17Z</time>
      </trkpt>
      <trkpt lat="43.79961" lon="7.05994">
        <ele>1385.3</ele>
        <time>2019-12-30T14:20:18Z</time>
      </trkpt>
      <trkpt lat="43.79961" lon="7.05994">
        <ele>1385.3</ele>
        <time>2019-12-30T14:20:19Z</time>
      </trkpt>
      <trkpt lat="43.79961" lon="7.05994">
        <ele>1385.3</ele>
        <time>2019-12-30T14:20:20Z</time>
      </trkpt>
      <trkpt lat="43.79961" lon="7.05994">
        <ele>1385.3</ele>
        <time>2019-12-30T14:20:21Z</time>
      </trkpt>
      <trkpt lat="43.79961" lon="7.05994">
        <ele>1385.3</ele>
        <time>2019-12-30T14:20:22Z</time>
      </trkpt>
      <trkpt lat="43.79961" lon="7.05994">
        <ele>1385.3</ele>
        <time>2019-12-30T14:20:23Z</time>
      </trkpt>
      <trkpt lat="43.79961" lon="7.05994">
        <ele>1385.3</ele>
        <time>2019-12-30T14:20:24Z</time>
      </trkpt>
      <trkpt lat="43.79961" lon="7.05994">
        <ele>1385.3</ele>
        <time>2019-12-30T14:20:25Z</time>
      </trkpt>
      <trkpt lat="43.79961" lon="7.05994">
        <ele>1385.3</ele>
        <time>2019-12-30T14:20:26Z</time>
      </trkpt>
      <trkpt lat="43.79961" lon="7.05994">
        <ele>1385.3</ele>
        <time>2019-12-30T14:20:27Z</time>
      </trkpt>
      <trkpt lat="43.79961" lon="7.05994">
        <ele>1385.3</ele>
        <time>2019-12-30T14:20:28Z</time>
      </trkpt>
      <trkpt lat="43.79961" lon="7.05994">
        <ele>1385.3</ele>
        <time>2019-12-30T14:20:29Z</time>
      </trkpt>
      <trkpt lat="43.79961" lon="7.05994">
        <ele>1385.3</ele>
        <time>2019-12-30T14:20:30Z</time>
      </trkpt>
      <trkpt lat="43.79961" lon="7.05994">
        <ele>1385.3</ele>
        <time>2019-12-30T14:20:31Z</time>
      </trkpt>
      <trkpt lat="43.79961" lon="7.05994">
        <ele>1385.3</ele>
        <time>2019-12-30T14:20:32Z</time>
      </trkpt>
      <trkpt lat="43.79961" lon="7.05994">
        <ele>1385.3</ele>
        <time>2019-12-30T14:20:33Z</time>
      </trkpt>
      <trkpt lat="43.79961" lon="7.05994">
        <ele>1385.3</ele>
        <time>2019-12-30T14:20:34Z</time>
      </trkpt>
      <trkpt lat="43.79961" lon="7.05994">
        <ele>1385.3</ele>
        <time>2019-12-30T14:20:35Z</time>
      </trkpt>
      <trkpt lat="43.79961" lon="7.05994">
        <ele>1385.3</ele>
        <time>2019-12-30T14:20:36Z</time>
      </trkpt>
      <trkpt lat="43.79961" lon="7.05994">
        <ele>1385.3</ele>
        <time>2019-12-30T14:20:37Z</time>
      </trkpt>
      <trkpt lat="43.79961" lon="7.05994">
        <ele>1385.3</ele>
        <time>2019-12-30T14:20:38Z</time>
      </trkpt>
      <trkpt lat="43.79961" lon="7.05994">
        <ele>1385.3</ele>
        <time>2019-12-30T14:20:39Z</time>
      </trkpt>
      <trkpt lat="43.79961" lon="7.05994">
        <ele>1385.3</ele>
        <time>2019-12-30T14:20:40Z</time>
      </trkpt>
      <trkpt lat="43.79961" lon="7.05994">
        <ele>1385.3</ele>
        <time>2019-12-30T14:20:41Z</time>
      </trkpt>
      <trkpt lat="43.79961" lon="7.05994">
        <ele>1385.3</ele>
        <time>2019-12-30T14:20:42Z</time>
      </trkpt>
      <trkpt lat="43.79961" lon="7.05994">
        <ele>1385.3</ele>
        <time>2019-12-30T14:20:43Z</time>
      </trkpt>
      <trkpt lat="43.79961" lon="7.05994">
        <ele>1385.3</ele>
        <time>2019-12-30T14:20:44Z</time>
      </trkpt>
      <trkpt lat="43.79961" lon="7.05994">
        <ele>1385.3</ele>
        <time>2019-12-30T14:20:45Z</time>
      </trkpt>
      <trkpt lat="43.79961" lon="7.05994">
        <ele>1385.3</ele>
        <time>2019-12-30T14:20:46Z</time>
      </trkpt>
      <trkpt lat="43.79961" lon="7.05994">
        <ele>1385.3</ele>
        <time>2019-12-30T14:20:47Z</time>
      </trkpt>
      <trkpt lat="43.79961" lon="7.05994">
        <ele>1385.3</ele>
        <time>2019-12-30T14:20:48Z</time>
      </trkpt>
      <trkpt lat="43.79961" lon="7.05994">
        <ele>1385.3</ele>
        <time>2019-12-30T14:20:49Z</time>
      </trkpt>
      <trkpt lat="43.79961" lon="7.05994">
        <ele>1385.3</ele>
        <time>2019-12-30T14:20:50Z</time>
      </trkpt>
      <trkpt lat="43.79961" lon="7.05994">
        <ele>1385.3</ele>
        <time>2019-12-30T14:20:51Z</time>
      </trkpt>
      <trkpt lat="43.79961" lon="7.05994">
        <ele>1385.3</ele>
        <time>2019-12-30T14:20:52Z</time>
      </trkpt>
      <trkpt lat="43.79961" lon="7.05994">
        <ele>1385.3</ele>
        <time>2019-12-30T14:20:53Z</time>
      </trkpt>
      <trkpt lat="43.79961" lon="7.05994">
        <ele>1385.3</ele>
        <time>2019-12-30T14:20:54Z</time>
      </trkpt>
      <trkpt lat="43.79961" lon="7.05994">
        <ele>1385.3</ele>
        <time>2019-12-30T14:20:55Z</time>
      </trkpt>
      <trkpt lat="43.79961" lon="7.05994">
        <ele>1385.3</ele>
        <time>2019-12-30T14:20:56Z</time>
      </trkpt>
      <trkpt lat="43.79961" lon="7.05994">
        <ele>1385.3</ele>
        <time>2019-12-30T14:20:57Z</time>
      </trkpt>
      <trkpt lat="43.79961" lon="7.05994">
        <ele>1385.3</ele>
        <time>2019-12-30T14:20:58Z</time>
      </trkpt>
      <trkpt lat="43.79961" lon="7.05994">
        <ele>1385.3</ele>
        <time>2019-12-30T14:20:59Z</time>
      </trkpt>
      <trkpt lat="43.79961" lon="7.05994">
        <ele>1385.3</ele>
        <time>2019-12-30T14:21:00Z</time>
      </trkpt>
      <trkpt lat="43.79961" lon="7.05994">
        <ele>1385.3</ele>
        <time>2019-12-30T14:21:01Z</time>
      </trkpt>
      <trkpt lat="43.79961" lon="7.05994">
        <ele>1385.3</ele>
        <time>2019-12-30T14:21:02Z</time>
      </trkpt>
      <trkpt lat="43.79961" lon="7.05994">
        <ele>1385.3</ele>
        <time>2019-12-30T14:21:03Z</time>
      </trkpt>
      <trkpt lat="43.79961" lon="7.05994">
        <ele>1385.3</ele>
        <time>2019-12-30T14:21:04Z</time>
      </trkpt>
      <trkpt lat="43.79961" lon="7.05995">
        <ele>1385.3</ele>
        <time>2019-12-30T14:21:05Z</time>
      </trkpt>
      <trkpt lat="43.79961" lon="7.05995">
        <ele>1385.3</ele>
        <time>2019-12-30T14:21:06Z</time>
      </trkpt>
      <trkpt lat="43.79962" lon="7.05995">
        <ele>1385.3</ele>
        <time>2019-12-30T14:21:07Z</time>
      </trkpt>
      <trkpt lat="43.79962" lon="7.05995">
        <ele>1385.3</ele>
        <time>2019-12-30T14:21:08Z</time>
      </trkpt>
      <trkpt lat="43.79962" lon="7.05996">
        <ele>1385.3</ele>
        <time>2019-12-30T14:21:09Z</time>
      </trkpt>
      <trkpt lat="43.79962" lon="7.05996">
        <ele>1385.3</ele>
        <time>2019-12-30T14:21:10Z</time>
      </trkpt>
      <trkpt lat="43.79962" lon="7.05996">
        <ele>1385.3</ele>
        <time>2019-12-30T14:21:11Z</time>
      </trkpt>
      <trkpt lat="43.79962" lon="7.05996">
        <ele>1385.3</ele>
        <time>2019-12-30T14:21:12Z</time>
      </trkpt>
      <trkpt lat="43.79962" lon="7.05996">
        <ele>1385.3</ele>
        <time>2019-12-30T14:21:13Z</time>
      </trkpt>
      <trkpt lat="43.79962" lon="7.05996">
        <ele>1385.3</ele>
        <time>2019-12-30T14:21:14Z</time>
      </trkpt>
      <trkpt lat="43.79962" lon="7.05996">
        <ele>1385.3</ele>
        <time>2019-12-30T14:21:15Z</time>
      </trkpt>
      <trkpt lat="43.79962" lon="7.05996">
        <ele>1385.3</ele>
        <time>2019-12-30T14:21:16Z</time>
      </trkpt>
      <trkpt lat="43.79962" lon="7.05996">
        <ele>1385.3</ele>
        <time>2019-12-30T14:21:17Z</time>
      </trkpt>
      <trkpt lat="43.79962" lon="7.05996">
        <ele>1385.3</ele>
        <time>2019-12-30T14:21:18Z</time>
      </trkpt>
      <trkpt lat="43.79962" lon="7.05996">
        <ele>1385.3</ele>
        <time>2019-12-30T14:21:19Z</time>
      </trkpt>
      <trkpt lat="43.79962" lon="7.05996">
        <ele>1385.3</ele>
        <time>2019-12-30T14:21:20Z</time>
      </trkpt>
      <trkpt lat="43.79962" lon="7.05996">
        <ele>1385.3</ele>
        <time>2019-12-30T14:21:21Z</time>
      </trkpt>
      <trkpt lat="43.79962" lon="7.05996">
        <ele>1385.3</ele>
        <time>2019-12-30T14:21:22Z</time>
      </trkpt>
      <trkpt lat="43.79962" lon="7.05996">
        <ele>1385.3</ele>
        <time>2019-12-30T14:21:23Z</time>
      </trkpt>
      <trkpt lat="43.79962" lon="7.05997">
        <ele>1385.3</ele>
        <time>2019-12-30T14:21:24Z</time>
      </trkpt>
      <trkpt lat="43.79962" lon="7.05997">
        <ele>1385.3</ele>
        <time>2019-12-30T14:21:25Z</time>
      </trkpt>
      <trkpt lat="43.79962" lon="7.05997">
        <ele>1385.3</ele>
        <time>2019-12-30T14:21:26Z</time>
      </trkpt>
      <trkpt lat="43.79963" lon="7.05998">
        <ele>1385.3</ele>
        <time>2019-12-30T14:21:27Z</time>
      </trkpt>
      <trkpt lat="43.79963" lon="7.05998">
        <ele>1385.3</ele>
        <time>2019-12-30T14:21:28Z</time>
      </trkpt>
      <trkpt lat="43.79963" lon="7.05998">
        <ele>1385.3</ele>
        <time>2019-12-30T14:21:29Z</time>
      </trkpt>
      <trkpt lat="43.79963" lon="7.05998">
        <ele>1385.3</ele>
        <time>2019-12-30T14:21:30Z</time>
      </trkpt>
      <trkpt lat="43.79963" lon="7.05998">
        <ele>1385.3</ele>
        <time>2019-12-30T14:21:31Z</time>
      </trkpt>
      <trkpt lat="43.79963" lon="7.05998">
        <ele>1385.3</ele>
        <time>2019-12-30T14:21:32Z</time>
      </trkpt>
      <trkpt lat="43.79963" lon="7.05998">
        <ele>1385.3</ele>
        <time>2019-12-30T14:21:33Z</time>
      </trkpt>
      <trkpt lat="43.79963" lon="7.05998">
        <ele>1385.3</ele>
        <time>2019-12-30T14:21:34Z</time>
      </trkpt>
      <trkpt lat="43.79963" lon="7.05998">
        <ele>1385.3</ele>
        <time>2019-12-30T14:21:35Z</time>
      </trkpt>
      <trkpt lat="43.79963" lon="7.05998">
        <ele>1385.3</ele>
        <time>2019-12-30T14:21:36Z</time>
      </trkpt>
      <trkpt lat="43.79963" lon="7.05998">
        <ele>1385.3</ele>
        <time>2019-12-30T14:21:37Z</time>
      </trkpt>
      <trkpt lat="43.79963" lon="7.05998">
        <ele>1385.3</ele>
        <time>2019-12-30T14:21:38Z</time>
      </trkpt>
      <trkpt lat="43.79963" lon="7.05998">
        <ele>1385.3</ele>
        <time>2019-12-30T14:21:39Z</time>
      </trkpt>
      <trkpt lat="43.79963" lon="7.05998">
        <ele>1385.3</ele>
        <time>2019-12-30T14:21:40Z</time>
      </trkpt>
      <trkpt lat="43.79963" lon="7.05998">
        <ele>1385.3</ele>
        <time>2019-12-30T14:21:41Z</time>
      </trkpt>
      <trkpt lat="43.79963" lon="7.05998">
        <ele>1385.3</ele>
        <time>2019-12-30T14:21:42Z</time>
      </trkpt>
      <trkpt lat="43.79963" lon="7.05998">
        <ele>1385.3</ele>
        <time>2019-12-30T14:21:43Z</time>
      </trkpt>
      <trkpt lat="43.79963" lon="7.05998">
        <ele>1385.3</ele>
        <time>2019-12-30T14:21:44Z</time>
      </trkpt>
      <trkpt lat="43.79963" lon="7.05998">
        <ele>1385.3</ele>
        <time>2019-12-30T14:21:45Z</time>
      </trkpt>
      <trkpt lat="43.79963" lon="7.05998">
        <ele>1385.3</ele>
        <time>2019-12-30T14:21:46Z</time>
      </trkpt>
      <trkpt lat="43.79963" lon="7.05998">
        <ele>1385.3</ele>
        <time>2019-12-30T14:21:47Z</time>
      </trkpt>
      <trkpt lat="43.79963" lon="7.05998">
        <ele>1385.3</ele>
        <time>2019-12-30T14:21:48Z</time>
      </trkpt>
      <trkpt lat="43.79963" lon="7.05998">
        <ele>1385.3</ele>
        <time>2019-12-30T14:21:49Z</time>
      </trkpt>
      <trkpt lat="43.79963" lon="7.05998">
        <ele>1385.3</ele>
        <time>2019-12-30T14:21:50Z</time>
      </trkpt>
      <trkpt lat="43.79963" lon="7.05998">
        <ele>1385.3</ele>
        <time>2019-12-30T14:21:51Z</time>
      </trkpt>
      <trkpt lat="43.79963" lon="7.05998">
        <ele>1385.3</ele>
        <time>2019-12-30T14:21:52Z</time>
      </trkpt>
      <trkpt lat="43.79963" lon="7.05998">
        <ele>1385.3</ele>
        <time>2019-12-30T14:21:53Z</time>
      </trkpt>
      <trkpt lat="43.79963" lon="7.05998">
        <ele>1385.3</ele>
        <time>2019-12-30T14:21:54Z</time>
      </trkpt>
      <trkpt lat="43.79963" lon="7.05998">
        <ele>1385.3</ele>
        <time>2019-12-30T14:21:55Z</time>
      </trkpt>
      <trkpt lat="43.79963" lon="7.05998">
        <ele>1385.3</ele>
        <time>2019-12-30T14:21:56Z</time>
      </trkpt>
      <trkpt lat="43.79963" lon="7.05998">
        <ele>1385.3</ele>
        <time>2019-12-30T14:21:57Z</time>
      </trkpt>
      <trkpt lat="43.79963" lon="7.05998">
        <ele>1385.3</ele>
        <time>2019-12-30T14:21:58Z</time>
      </trkpt>
      <trkpt lat="43.79963" lon="7.05998">
        <ele>1385.3</ele>
        <time>2019-12-30T14:21:59Z</time>
      </trkpt>
      <trkpt lat="43.79963" lon="7.05998">
        <ele>1385.3</ele>
        <time>2019-12-30T14:22:00Z</time>
      </trkpt>
      <trkpt lat="43.79963" lon="7.05998">
        <ele>1385.3</ele>
        <time>2019-12-30T14:22:01Z</time>
      </trkpt>
      <trkpt lat="43.79963" lon="7.05998">
        <ele>1385.3</ele>
        <time>2019-12-30T14:22:02Z</time>
      </trkpt>
      <trkpt lat="43.79963" lon="7.05998">
        <ele>1385.3</ele>
        <time>2019-12-30T14:22:03Z</time>
      </trkpt>
      <trkpt lat="43.79963" lon="7.05998">
        <ele>1385.3</ele>
        <time>2019-12-30T14:22:04Z</time>
      </trkpt>
      <trkpt lat="43.79963" lon="7.05998">
        <ele>1385.3</ele>
        <time>2019-12-30T14:22:05Z</time>
      </trkpt>
      <trkpt lat="43.79963" lon="7.05998">
        <ele>1385.3</ele>
        <time>2019-12-30T14:22:06Z</time>
      </trkpt>
      <trkpt lat="43.79963" lon="7.05998">
        <ele>1385.3</ele>
        <time>2019-12-30T14:22:07Z</time>
      </trkpt>
      <trkpt lat="43.79963" lon="7.05998">
        <ele>1385.3</ele>
        <time>2019-12-30T14:22:08Z</time>
      </trkpt>
      <trkpt lat="43.79963" lon="7.05998">
        <ele>1385.3</ele>
        <time>2019-12-30T14:22:09Z</time>
      </trkpt>
      <trkpt lat="43.79963" lon="7.05998">
        <ele>1385.3</ele>
        <time>2019-12-30T14:22:10Z</time>
      </trkpt>
      <trkpt lat="43.79963" lon="7.05998">
        <ele>1385.3</ele>
        <time>2019-12-30T14:22:11Z</time>
      </trkpt>
      <trkpt lat="43.79963" lon="7.05998">
        <ele>1385.3</ele>
        <time>2019-12-30T14:22:12Z</time>
      </trkpt>
      <trkpt lat="43.79963" lon="7.05998">
        <ele>1385.3</ele>
        <time>2019-12-30T14:22:13Z</time>
      </trkpt>
      <trkpt lat="43.79963" lon="7.05998">
        <ele>1385.3</ele>
        <time>2019-12-30T14:22:14Z</time>
      </trkpt>
      <trkpt lat="43.79963" lon="7.05998">
        <ele>1385.3</ele>
        <time>2019-12-30T14:22:15Z</time>
      </trkpt>
      <trkpt lat="43.79963" lon="7.05998">
        <ele>1385.3</ele>
        <time>2019-12-30T14:22:16Z</time>
      </trkpt>
      <trkpt lat="43.79963" lon="7.05998">
        <ele>1385.3</ele>
        <time>2019-12-30T14:22:17Z</time>
      </trkpt>
      <trkpt lat="43.79963" lon="7.05998">
        <ele>1385.3</ele>
        <time>2019-12-30T14:22:18Z</time>
      </trkpt>
      <trkpt lat="43.79963" lon="7.05998">
        <ele>1385.3</ele>
        <time>2019-12-30T14:22:19Z</time>
      </trkpt>
      <trkpt lat="43.79963" lon="7.05998">
        <ele>1385.3</ele>
        <time>2019-12-30T14:22:20Z</time>
      </trkpt>
      <trkpt lat="43.79963" lon="7.05998">
        <ele>1385.3</ele>
        <time>2019-12-30T14:22:21Z</time>
      </trkpt>
      <trkpt lat="43.79963" lon="7.05998">
        <ele>1385.3</ele>
        <time>2019-12-30T14:22:22Z</time>
      </trkpt>
      <trkpt lat="43.79963" lon="7.05998">
        <ele>1385.3</ele>
        <time>2019-12-30T14:22:23Z</time>
      </trkpt>
      <trkpt lat="43.79963" lon="7.05998">
        <ele>1385.3</ele>
        <time>2019-12-30T14:22:24Z</time>
      </trkpt>
      <trkpt lat="43.79963" lon="7.05998">
        <ele>1385.3</ele>
        <time>2019-12-30T14:22:25Z</time>
      </trkpt>
      <trkpt lat="43.79963" lon="7.05998">
        <ele>1385.3</ele>
        <time>2019-12-30T14:22:26Z</time>
      </trkpt>
      <trkpt lat="43.79963" lon="7.05998">
        <ele>1385.3</ele>
        <time>2019-12-30T14:22:27Z</time>
      </trkpt>
      <trkpt lat="43.79963" lon="7.05998">
        <ele>1385.3</ele>
        <time>2019-12-30T14:22:28Z</time>
      </trkpt>
      <trkpt lat="43.79963" lon="7.05998">
        <ele>1385.3</ele>
        <time>2019-12-30T14:22:29Z</time>
      </trkpt>
      <trkpt lat="43.79963" lon="7.05998">
        <ele>1385.3</ele>
        <time>2019-12-30T14:22:30Z</time>
      </trkpt>
      <trkpt lat="43.79963" lon="7.05998">
        <ele>1385.3</ele>
        <time>2019-12-30T14:22:31Z</time>
      </trkpt>
      <trkpt lat="43.79963" lon="7.05998">
        <ele>1385.3</ele>
        <time>2019-12-30T14:22:32Z</time>
      </trkpt>
      <trkpt lat="43.79963" lon="7.05998">
        <ele>1385.3</ele>
        <time>2019-12-30T14:22:33Z</time>
      </trkpt>
      <trkpt lat="43.79963" lon="7.05998">
        <ele>1385.3</ele>
        <time>2019-12-30T14:22:34Z</time>
      </trkpt>
      <trkpt lat="43.79963" lon="7.05998">
        <ele>1385.3</ele>
        <time>2019-12-30T14:22:35Z</time>
      </trkpt>
      <trkpt lat="43.79963" lon="7.05998">
        <ele>1385.3</ele>
        <time>2019-12-30T14:22:36Z</time>
      </trkpt>
      <trkpt lat="43.79963" lon="7.05998">
        <ele>1385.3</ele>
        <time>2019-12-30T14:22:37Z</time>
      </trkpt>
      <trkpt lat="43.79963" lon="7.05998">
        <ele>1385.3</ele>
        <time>2019-12-30T14:22:38Z</time>
      </trkpt>
      <trkpt lat="43.79963" lon="7.05998">
        <ele>1385.3</ele>
        <time>2019-12-30T14:22:39Z</time>
      </trkpt>
      <trkpt lat="43.79963" lon="7.05998">
        <ele>1385.3</ele>
        <time>2019-12-30T14:22:40Z</time>
      </trkpt>
      <trkpt lat="43.79963" lon="7.05998">
        <ele>1385.3</ele>
        <time>2019-12-30T14:22:41Z</time>
      </trkpt>
      <trkpt lat="43.79963" lon="7.05998">
        <ele>1385.3</ele>
        <time>2019-12-30T14:22:42Z</time>
      </trkpt>
      <trkpt lat="43.79963" lon="7.05998">
        <ele>1385.3</ele>
        <time>2019-12-30T14:22:43Z</time>
      </trkpt>
      <trkpt lat="43.79963" lon="7.05998">
        <ele>1385.3</ele>
        <time>2019-12-30T14:22:44Z</time>
      </trkpt>
      <trkpt lat="43.79963" lon="7.05998">
        <ele>1385.3</ele>
        <time>2019-12-30T14:22:45Z</time>
      </trkpt>
      <trkpt lat="43.79963" lon="7.05998">
        <ele>1385.3</ele>
        <time>2019-12-30T14:22:46Z</time>
      </trkpt>
      <trkpt lat="43.79963" lon="7.05998">
        <ele>1385.3</ele>
        <time>2019-12-30T14:22:47Z</time>
      </trkpt>
      <trkpt lat="43.79963" lon="7.05998">
        <ele>1385.3</ele>
        <time>2019-12-30T14:22:48Z</time>
      </trkpt>
      <trkpt lat="43.79963" lon="7.05998">
        <ele>1385.3</ele>
        <time>2019-12-30T14:22:49Z</time>
      </trkpt>
      <trkpt lat="43.79963" lon="7.05998">
        <ele>1385.3</ele>
        <time>2019-12-30T14:22:50Z</time>
      </trkpt>
      <trkpt lat="43.79963" lon="7.05998">
        <ele>1385.3</ele>
        <time>2019-12-30T14:22:51Z</time>
      </trkpt>
      <trkpt lat="43.79963" lon="7.05998">
        <ele>1385.3</ele>
        <time>2019-12-30T14:22:52Z</time>
      </trkpt>
      <trkpt lat="43.79963" lon="7.05998">
        <ele>1385.3</ele>
        <time>2019-12-30T14:22:53Z</time>
      </trkpt>
      <trkpt lat="43.79963" lon="7.05998">
        <ele>1385.3</ele>
        <time>2019-12-30T14:22:54Z</time>
      </trkpt>
      <trkpt lat="43.79963" lon="7.05998">
        <ele>1385.3</ele>
        <time>2019-12-30T14:22:55Z</time>
      </trkpt>
      <trkpt lat="43.79963" lon="7.05997">
        <ele>1385.3</ele>
        <time>2019-12-30T14:22:56Z</time>
      </trkpt>
      <trkpt lat="43.79963" lon="7.05997">
        <ele>1385.3</ele>
        <time>2019-12-30T14:22:57Z</time>
      </trkpt>
      <trkpt lat="43.79963" lon="7.05997">
        <ele>1385.3</ele>
        <time>2019-12-30T14:22:58Z</time>
      </trkpt>
      <trkpt lat="43.79963" lon="7.05997">
        <ele>1385.3</ele>
        <time>2019-12-30T14:22:59Z</time>
      </trkpt>
      <trkpt lat="43.79963" lon="7.05997">
        <ele>1385.3</ele>
        <time>2019-12-30T14:23:00Z</time>
      </trkpt>
      <trkpt lat="43.79963" lon="7.05997">
        <ele>1385.3</ele>
        <time>2019-12-30T14:23:01Z</time>
      </trkpt>
      <trkpt lat="43.79963" lon="7.05997">
        <ele>1385.3</ele>
        <time>2019-12-30T14:23:02Z</time>
      </trkpt>
      <trkpt lat="43.79963" lon="7.05997">
        <ele>1385.3</ele>
        <time>2019-12-30T14:23:03Z</time>
      </trkpt>
      <trkpt lat="43.79963" lon="7.05997">
        <ele>1385.3</ele>
        <time>2019-12-30T14:23:04Z</time>
      </trkpt>
      <trkpt lat="43.79963" lon="7.05997">
        <ele>1385.3</ele>
        <time>2019-12-30T14:23:05Z</time>
      </trkpt>
      <trkpt lat="43.79963" lon="7.05997">
        <ele>1385.3</ele>
        <time>2019-12-30T14:23:06Z</time>
      </trkpt>
      <trkpt lat="43.79963" lon="7.05997">
        <ele>1385.3</ele>
        <time>2019-12-30T14:23:07Z</time>
      </trkpt>
      <trkpt lat="43.79963" lon="7.05997">
        <ele>1385.3</ele>
        <time>2019-12-30T14:23:08Z</time>
      </trkpt>
      <trkpt lat="43.79963" lon="7.05997">
        <ele>1385.3</ele>
        <time>2019-12-30T14:23:09Z</time>
      </trkpt>
      <trkpt lat="43.79963" lon="7.05997">
        <ele>1385.3</ele>
        <time>2019-12-30T14:23:10Z</time>
      </trkpt>
      <trkpt lat="43.79963" lon="7.05997">
        <ele>1385.3</ele>
        <time>2019-12-30T14:23:11Z</time>
      </trkpt>
      <trkpt lat="43.79963" lon="7.05997">
        <ele>1385.3</ele>
        <time>2019-12-30T14:23:12Z</time>
      </trkpt>
      <trkpt lat="43.79963" lon="7.05997">
        <ele>1385.3</ele>
        <time>2019-12-30T14:23:13Z</time>
      </trkpt>
      <trkpt lat="43.79963" lon="7.05997">
        <ele>1385.3</ele>
        <time>2019-12-30T14:23:14Z</time>
      </trkpt>
      <trkpt lat="43.79963" lon="7.05997">
        <ele>1385.3</ele>
        <time>2019-12-30T14:23:15Z</time>
      </trkpt>
      <trkpt lat="43.79963" lon="7.05997">
        <ele>1385.3</ele>
        <time>2019-12-30T14:23:16Z</time>
      </trkpt>
      <trkpt lat="43.79963" lon="7.05997">
        <ele>1385.3</ele>
        <time>2019-12-30T14:23:17Z</time>
      </trkpt>
      <trkpt lat="43.79963" lon="7.05997">
        <ele>1385.3</ele>
        <time>2019-12-30T14:23:18Z</time>
      </trkpt>
      <trkpt lat="43.79963" lon="7.05997">
        <ele>1385.3</ele>
        <time>2019-12-30T14:23:19Z</time>
      </trkpt>
      <trkpt lat="43.79963" lon="7.05997">
        <ele>1385.3</ele>
        <time>2019-12-30T14:23:20Z</time>
      </trkpt>
      <trkpt lat="43.79963" lon="7.05997">
        <ele>1385.3</ele>
        <time>2019-12-30T14:23:21Z</time>
      </trkpt>
      <trkpt lat="43.79963" lon="7.05997">
        <ele>1385.3</ele>
        <time>2019-12-30T14:23:22Z</time>
      </trkpt>
      <trkpt lat="43.79963" lon="7.05997">
        <ele>1385.3</ele>
        <time>2019-12-30T14:23:23Z</time>
      </trkpt>
      <trkpt lat="43.79963" lon="7.05997">
        <ele>1385.3</ele>
        <time>2019-12-30T14:23:24Z</time>
      </trkpt>
      <trkpt lat="43.79963" lon="7.05997">
        <ele>1385.3</ele>
        <time>2019-12-30T14:23:25Z</time>
      </trkpt>
      <trkpt lat="43.79963" lon="7.05997">
        <ele>1385.3</ele>
        <time>2019-12-30T14:23:26Z</time>
      </trkpt>
      <trkpt lat="43.79963" lon="7.05996">
        <ele>1385.3</ele>
        <time>2019-12-30T14:23:27Z</time>
      </trkpt>
      <trkpt lat="43.79963" lon="7.05996">
        <ele>1385.3</ele>
        <time>2019-12-30T14:23:28Z</time>
      </trkpt>
      <trkpt lat="43.79963" lon="7.05996">
        <ele>1385.3</ele>
        <time>2019-12-30T14:23:29Z</time>
      </trkpt>
      <trkpt lat="43.79963" lon="7.05996">
        <ele>1385.3</ele>
        <time>2019-12-30T14:23:30Z</time>
      </trkpt>
      <trkpt lat="43.79962" lon="7.05996">
        <ele>1385.3</ele>
        <time>2019-12-30T14:23:31Z</time>
      </trkpt>
      <trkpt lat="43.79962" lon="7.05996">
        <ele>1385.3</ele>
        <time>2019-12-30T14:23:32Z</time>
      </trkpt>
      <trkpt lat="43.79962" lon="7.05996">
        <ele>1385.4</ele>
        <time>2019-12-30T14:23:33Z</time>
      </trkpt>
      <trkpt lat="43.79962" lon="7.05996">
        <ele>1385.4</ele>
        <time>2019-12-30T14:23:34Z</time>
      </trkpt>
      <trkpt lat="43.79962" lon="7.05996">
        <ele>1385.4</ele>
        <time>2019-12-30T14:23:35Z</time>
      </trkpt>
      <trkpt lat="43.79962" lon="7.05996">
        <ele>1385.4</ele>
        <time>2019-12-30T14:23:36Z</time>
      </trkpt>
      <trkpt lat="43.79962" lon="7.05996">
        <ele>1385.4</ele>
        <time>2019-12-30T14:23:37Z</time>
      </trkpt>
      <trkpt lat="43.79962" lon="7.05996">
        <ele>1385.4</ele>
        <time>2019-12-30T14:23:38Z</time>
      </trkpt>
      <trkpt lat="43.79962" lon="7.05996">
        <ele>1385.4</ele>
        <time>2019-12-30T14:23:39Z</time>
      </trkpt>
      <trkpt lat="43.79962" lon="7.05996">
        <ele>1385.4</ele>
        <time>2019-12-30T14:23:40Z</time>
      </trkpt>
      <trkpt lat="43.79962" lon="7.05996">
        <ele>1385.4</ele>
        <time>2019-12-30T14:23:41Z</time>
      </trkpt>
      <trkpt lat="43.79962" lon="7.05996">
        <ele>1385.4</ele>
        <time>2019-12-30T14:23:42Z</time>
      </trkpt>
      <trkpt lat="43.79962" lon="7.05996">
        <ele>1385.4</ele>
        <time>2019-12-30T14:23:43Z</time>
      </trkpt>
      <trkpt lat="43.79962" lon="7.05996">
        <ele>1385.4</ele>
        <time>2019-12-30T14:23:44Z</time>
      </trkpt>
      <trkpt lat="43.79962" lon="7.05996">
        <ele>1385.4</ele>
        <time>2019-12-30T14:23:45Z</time>
      </trkpt>
      <trkpt lat="43.79962" lon="7.05996">
        <ele>1385.4</ele>
        <time>2019-12-30T14:23:46Z</time>
      </trkpt>
      <trkpt lat="43.79962" lon="7.05996">
        <ele>1385.4</ele>
        <time>2019-12-30T14:23:47Z</time>
      </trkpt>
      <trkpt lat="43.79962" lon="7.05996">
        <ele>1385.4</ele>
        <time>2019-12-30T14:23:48Z</time>
      </trkpt>
      <trkpt lat="43.79962" lon="7.05996">
        <ele>1385.4</ele>
        <time>2019-12-30T14:23:49Z</time>
      </trkpt>
      <trkpt lat="43.79962" lon="7.05996">
        <ele>1385.4</ele>
        <time>2019-12-30T14:23:50Z</time>
      </trkpt>
      <trkpt lat="43.79962" lon="7.05996">
        <ele>1385.4</ele>
        <time>2019-12-30T14:23:51Z</time>
      </trkpt>
      <trkpt lat="43.79962" lon="7.05996">
        <ele>1385.4</ele>
        <time>2019-12-30T14:23:52Z</time>
      </trkpt>
      <trkpt lat="43.79962" lon="7.05996">
        <ele>1385.4</ele>
        <time>2019-12-30T14:23:53Z</time>
      </trkpt>
      <trkpt lat="43.79962" lon="7.05996">
        <ele>1385.4</ele>
        <time>2019-12-30T14:23:54Z</time>
      </trkpt>
      <trkpt lat="43.79962" lon="7.05996">
        <ele>1385.4</ele>
        <time>2019-12-30T14:23:55Z</time>
      </trkpt>
      <trkpt lat="43.79962" lon="7.05996">
        <ele>1385.4</ele>
        <time>2019-12-30T14:23:56Z</time>
      </trkpt>
      <trkpt lat="43.79962" lon="7.05996">
        <ele>1385.4</ele>
        <time>2019-12-30T14:23:57Z</time>
      </trkpt>
      <trkpt lat="43.79962" lon="7.05996">
        <ele>1385.4</ele>
        <time>2019-12-30T14:23:58Z</time>
      </trkpt>
      <trkpt lat="43.79962" lon="7.05996">
        <ele>1385.4</ele>
        <time>2019-12-30T14:23:59Z</time>
      </trkpt>
      <trkpt lat="43.79962" lon="7.05996">
        <ele>1385.4</ele>
        <time>2019-12-30T14:24:00Z</time>
      </trkpt>
      <trkpt lat="43.79962" lon="7.05996">
        <ele>1385.4</ele>
        <time>2019-12-30T14:24:01Z</time>
      </trkpt>
      <trkpt lat="43.79962" lon="7.05996">
        <ele>1385.4</ele>
        <time>2019-12-30T14:24:02Z</time>
      </trkpt>
      <trkpt lat="43.79962" lon="7.05996">
        <ele>1385.4</ele>
        <time>2019-12-30T14:24:03Z</time>
      </trkpt>
      <trkpt lat="43.79962" lon="7.05996">
        <ele>1385.4</ele>
        <time>2019-12-30T14:24:04Z</time>
      </trkpt>
      <trkpt lat="43.79962" lon="7.05996">
        <ele>1385.4</ele>
        <time>2019-12-30T14:24:05Z</time>
      </trkpt>
      <trkpt lat="43.79962" lon="7.05996">
        <ele>1385.4</ele>
        <time>2019-12-30T14:24:06Z</time>
      </trkpt>
      <trkpt lat="43.79962" lon="7.05996">
        <ele>1385.4</ele>
        <time>2019-12-30T14:24:07Z</time>
      </trkpt>
      <trkpt lat="43.79962" lon="7.05996">
        <ele>1385.4</ele>
        <time>2019-12-30T14:24:08Z</time>
      </trkpt>
      <trkpt lat="43.79962" lon="7.05996">
        <ele>1385.4</ele>
        <time>2019-12-30T14:24:09Z</time>
      </trkpt>
      <trkpt lat="43.79962" lon="7.05996">
        <ele>1385.4</ele>
        <time>2019-12-30T14:24:10Z</time>
      </trkpt>
      <trkpt lat="43.79962" lon="7.05996">
        <ele>1385.4</ele>
        <time>2019-12-30T14:24:11Z</time>
      </trkpt>
      <trkpt lat="43.79962" lon="7.05996">
        <ele>1385.4</ele>
        <time>2019-12-30T14:24:12Z</time>
      </trkpt>
      <trkpt lat="43.79962" lon="7.05996">
        <ele>1385.4</ele>
        <time>2019-12-30T14:24:13Z</time>
      </trkpt>
      <trkpt lat="43.79962" lon="7.05996">
        <ele>1385.4</ele>
        <time>2019-12-30T14:24:14Z</time>
      </trkpt>
      <trkpt lat="43.79962" lon="7.05996">
        <ele>1385.4</ele>
        <time>2019-12-30T14:24:15Z</time>
      </trkpt>
      <trkpt lat="43.79962" lon="7.05996">
        <ele>1385.4</ele>
        <time>2019-12-30T14:24:16Z</time>
      </trkpt>
      <trkpt lat="43.79962" lon="7.05996">
        <ele>1385.4</ele>
        <time>2019-12-30T14:24:17Z</time>
      </trkpt>
      <trkpt lat="43.79962" lon="7.05996">
        <ele>1385.4</ele>
        <time>2019-12-30T14:24:18Z</time>
      </trkpt>
      <trkpt lat="43.79962" lon="7.05996">
        <ele>1385.4</ele>
        <time>2019-12-30T14:24:19Z</time>
      </trkpt>
      <trkpt lat="43.79962" lon="7.05996">
        <ele>1385.4</ele>
        <time>2019-12-30T14:24:20Z</time>
      </trkpt>
      <trkpt lat="43.79962" lon="7.05996">
        <ele>1385.4</ele>
        <time>2019-12-30T14:24:21Z</time>
      </trkpt>
      <trkpt lat="43.79962" lon="7.05996">
        <ele>1385.4</ele>
        <time>2019-12-30T14:24:22Z</time>
      </trkpt>
      <trkpt lat="43.79961" lon="7.05996">
        <ele>1385.4</ele>
        <time>2019-12-30T14:24:23Z</time>
      </trkpt>
      <trkpt lat="43.79961" lon="7.05996">
        <ele>1385.4</ele>
        <time>2019-12-30T14:24:24Z</time>
      </trkpt>
      <trkpt lat="43.79961" lon="7.05996">
        <ele>1385.4</ele>
        <time>2019-12-30T14:24:25Z</time>
      </trkpt>
      <trkpt lat="43.79961" lon="7.05996">
        <ele>1385.4</ele>
        <time>2019-12-30T14:24:26Z</time>
      </trkpt>
      <trkpt lat="43.79961" lon="7.05996">
        <ele>1385.4</ele>
        <time>2019-12-30T14:24:27Z</time>
      </trkpt>
      <trkpt lat="43.79961" lon="7.05996">
        <ele>1385.4</ele>
        <time>2019-12-30T14:24:28Z</time>
      </trkpt>
      <trkpt lat="43.79961" lon="7.05996">
        <ele>1385.4</ele>
        <time>2019-12-30T14:24:29Z</time>
      </trkpt>
      <trkpt lat="43.79961" lon="7.05996">
        <ele>1385.4</ele>
        <time>2019-12-30T14:24:30Z</time>
      </trkpt>
      <trkpt lat="43.79961" lon="7.05996">
        <ele>1385.4</ele>
        <time>2019-12-30T14:24:31Z</time>
      </trkpt>
      <trkpt lat="43.79961" lon="7.05996">
        <ele>1385.4</ele>
        <time>2019-12-30T14:24:32Z</time>
      </trkpt>
      <trkpt lat="43.79961" lon="7.05996">
        <ele>1385.4</ele>
        <time>2019-12-30T14:24:33Z</time>
      </trkpt>
      <trkpt lat="43.79961" lon="7.05997">
        <ele>1385.4</ele>
        <time>2019-12-30T14:24:34Z</time>
      </trkpt>
      <trkpt lat="43.79961" lon="7.05997">
        <ele>1385.4</ele>
        <time>2019-12-30T14:24:35Z</time>
      </trkpt>
      <trkpt lat="43.79961" lon="7.05997">
        <ele>1385.4</ele>
        <time>2019-12-30T14:24:36Z</time>
      </trkpt>
      <trkpt lat="43.79961" lon="7.05997">
        <ele>1385.4</ele>
        <time>2019-12-30T14:24:37Z</time>
      </trkpt>
      <trkpt lat="43.79961" lon="7.05997">
        <ele>1385.4</ele>
        <time>2019-12-30T14:24:38Z</time>
      </trkpt>
      <trkpt lat="43.79961" lon="7.05997">
        <ele>1385.4</ele>
        <time>2019-12-30T14:24:39Z</time>
      </trkpt>
      <trkpt lat="43.79961" lon="7.05997">
        <ele>1385.4</ele>
        <time>2019-12-30T14:24:40Z</time>
      </trkpt>
      <trkpt lat="43.79961" lon="7.05997">
        <ele>1385.4</ele>
        <time>2019-12-30T14:24:41Z</time>
      </trkpt>
      <trkpt lat="43.79961" lon="7.05997">
        <ele>1385.4</ele>
        <time>2019-12-30T14:24:42Z</time>
      </trkpt>
      <trkpt lat="43.79961" lon="7.05997">
        <ele>1385.4</ele>
        <time>2019-12-30T14:24:43Z</time>
      </trkpt>
      <trkpt lat="43.79961" lon="7.05997">
        <ele>1385.4</ele>
        <time>2019-12-30T14:24:44Z</time>
      </trkpt>
      <trkpt lat="43.79961" lon="7.05997">
        <ele>1385.4</ele>
        <time>2019-12-30T14:24:45Z</time>
      </trkpt>
      <trkpt lat="43.79961" lon="7.05997">
        <ele>1385.4</ele>
        <time>2019-12-30T14:24:46Z</time>
      </trkpt>
      <trkpt lat="43.79961" lon="7.05997">
        <ele>1385.4</ele>
        <time>2019-12-30T14:24:47Z</time>
      </trkpt>
      <trkpt lat="43.79961" lon="7.05997">
        <ele>1385.4</ele>
        <time>2019-12-30T14:24:48Z</time>
      </trkpt>
      <trkpt lat="43.79961" lon="7.05997">
        <ele>1385.4</ele>
        <time>2019-12-30T14:24:49Z</time>
      </trkpt>
      <trkpt lat="43.79961" lon="7.05997">
        <ele>1385.4</ele>
        <time>2019-12-30T14:24:50Z</time>
      </trkpt>
      <trkpt lat="43.79961" lon="7.05997">
        <ele>1385.4</ele>
        <time>2019-12-30T14:24:51Z</time>
      </trkpt>
      <trkpt lat="43.79961" lon="7.05997">
        <ele>1385.4</ele>
        <time>2019-12-30T14:24:52Z</time>
      </trkpt>
      <trkpt lat="43.79961" lon="7.05997">
        <ele>1385.4</ele>
        <time>2019-12-30T14:24:53Z</time>
      </trkpt>
      <trkpt lat="43.79961" lon="7.05997">
        <ele>1385.4</ele>
        <time>2019-12-30T14:24:54Z</time>
      </trkpt>
      <trkpt lat="43.79961" lon="7.05997">
        <ele>1385.4</ele>
        <time>2019-12-30T14:24:55Z</time>
      </trkpt>
      <trkpt lat="43.79961" lon="7.05997">
        <ele>1385.4</ele>
        <time>2019-12-30T14:24:56Z</time>
      </trkpt>
      <trkpt lat="43.79961" lon="7.05997">
        <ele>1385.4</ele>
        <time>2019-12-30T14:24:57Z</time>
      </trkpt>
      <trkpt lat="43.79961" lon="7.05997">
        <ele>1385.4</ele>
        <time>2019-12-30T14:24:58Z</time>
      </trkpt>
      <trkpt lat="43.79961" lon="7.05997">
        <ele>1385.4</ele>
        <time>2019-12-30T14:24:59Z</time>
      </trkpt>
      <trkpt lat="43.79961" lon="7.05997">
        <ele>1385.4</ele>
        <time>2019-12-30T14:25:00Z</time>
      </trkpt>
      <trkpt lat="43.79961" lon="7.05997">
        <ele>1385.4</ele>
        <time>2019-12-30T14:25:01Z</time>
      </trkpt>
      <trkpt lat="43.79961" lon="7.05997">
        <ele>1385.4</ele>
        <time>2019-12-30T14:25:02Z</time>
      </trkpt>
      <trkpt lat="43.79961" lon="7.05997">
        <ele>1385.4</ele>
        <time>2019-12-30T14:25:03Z</time>
      </trkpt>
      <trkpt lat="43.79961" lon="7.05997">
        <ele>1385.4</ele>
        <time>2019-12-30T14:25:04Z</time>
      </trkpt>
      <trkpt lat="43.79961" lon="7.05997">
        <ele>1385.4</ele>
        <time>2019-12-30T14:25:05Z</time>
      </trkpt>
      <trkpt lat="43.79961" lon="7.05997">
        <ele>1385.4</ele>
        <time>2019-12-30T14:25:06Z</time>
      </trkpt>
      <trkpt lat="43.79961" lon="7.05997">
        <ele>1385.4</ele>
        <time>2019-12-30T14:25:07Z</time>
      </trkpt>
      <trkpt lat="43.79961" lon="7.05997">
        <ele>1385.4</ele>
        <time>2019-12-30T14:25:08Z</time>
      </trkpt>
      <trkpt lat="43.79961" lon="7.05997">
        <ele>1385.4</ele>
        <time>2019-12-30T14:25:09Z</time>
      </trkpt>
      <trkpt lat="43.79961" lon="7.05997">
        <ele>1385.4</ele>
        <time>2019-12-30T14:25:10Z</time>
      </trkpt>
      <trkpt lat="43.79961" lon="7.05997">
        <ele>1385.4</ele>
        <time>2019-12-30T14:25:11Z</time>
      </trkpt>
      <trkpt lat="43.79961" lon="7.05997">
        <ele>1385.4</ele>
        <time>2019-12-30T14:25:12Z</time>
      </trkpt>
      <trkpt lat="43.79961" lon="7.05997">
        <ele>1385.4</ele>
        <time>2019-12-30T14:25:13Z</time>
      </trkpt>
      <trkpt lat="43.79961" lon="7.05997">
        <ele>1385.4</ele>
        <time>2019-12-30T14:25:14Z</time>
      </trkpt>
      <trkpt lat="43.79961" lon="7.05997">
        <ele>1385.4</ele>
        <time>2019-12-30T14:25:15Z</time>
      </trkpt>
      <trkpt lat="43.79961" lon="7.05997">
        <ele>1385.4</ele>
        <time>2019-12-30T14:25:16Z</time>
      </trkpt>
      <trkpt lat="43.79961" lon="7.05997">
        <ele>1385.4</ele>
        <time>2019-12-30T14:25:17Z</time>
      </trkpt>
      <trkpt lat="43.79961" lon="7.05997">
        <ele>1385.4</ele>
        <time>2019-12-30T14:25:18Z</time>
      </trkpt>
      <trkpt lat="43.79961" lon="7.05997">
        <ele>1385.4</ele>
        <time>2019-12-30T14:25:19Z</time>
      </trkpt>
      <trkpt lat="43.79961" lon="7.05997">
        <ele>1385.4</ele>
        <time>2019-12-30T14:25:20Z</time>
      </trkpt>
      <trkpt lat="43.79961" lon="7.05997">
        <ele>1385.4</ele>
        <time>2019-12-30T14:25:21Z</time>
      </trkpt>
      <trkpt lat="43.79961" lon="7.05997">
        <ele>1385.4</ele>
        <time>2019-12-30T14:25:22Z</time>
      </trkpt>
      <trkpt lat="43.79961" lon="7.05997">
        <ele>1385.4</ele>
        <time>2019-12-30T14:25:23Z</time>
      </trkpt>
      <trkpt lat="43.79961" lon="7.05997">
        <ele>1385.4</ele>
        <time>2019-12-30T14:25:24Z</time>
      </trkpt>
      <trkpt lat="43.79961" lon="7.05997">
        <ele>1385.4</ele>
        <time>2019-12-30T14:25:25Z</time>
      </trkpt>
      <trkpt lat="43.79961" lon="7.05997">
        <ele>1385.4</ele>
        <time>2019-12-30T14:25:26Z</time>
      </trkpt>
      <trkpt lat="43.79961" lon="7.05997">
        <ele>1385.4</ele>
        <time>2019-12-30T14:25:27Z</time>
      </trkpt>
      <trkpt lat="43.79961" lon="7.05997">
        <ele>1385.4</ele>
        <time>2019-12-30T14:25:28Z</time>
      </trkpt>
      <trkpt lat="43.79961" lon="7.05997">
        <ele>1385.4</ele>
        <time>2019-12-30T14:25:29Z</time>
      </trkpt>
      <trkpt lat="43.79961" lon="7.05997">
        <ele>1385.4</ele>
        <time>2019-12-30T14:25:30Z</time>
      </trkpt>
      <trkpt lat="43.79961" lon="7.05997">
        <ele>1385.4</ele>
        <time>2019-12-30T14:25:31Z</time>
      </trkpt>
      <trkpt lat="43.79961" lon="7.05997">
        <ele>1385.4</ele>
        <time>2019-12-30T14:25:32Z</time>
      </trkpt>
      <trkpt lat="43.79961" lon="7.05997">
        <ele>1385.4</ele>
        <time>2019-12-30T14:25:33Z</time>
      </trkpt>
      <trkpt lat="43.79961" lon="7.05997">
        <ele>1385.4</ele>
        <time>2019-12-30T14:25:34Z</time>
      </trkpt>
      <trkpt lat="43.79961" lon="7.05997">
        <ele>1385.4</ele>
        <time>2019-12-30T14:25:35Z</time>
      </trkpt>
      <trkpt lat="43.79961" lon="7.05997">
        <ele>1385.4</ele>
        <time>2019-12-30T14:25:36Z</time>
      </trkpt>
      <trkpt lat="43.7996" lon="7.05997">
        <ele>1385.4</ele>
        <time>2019-12-30T14:25:37Z</time>
      </trkpt>
      <trkpt lat="43.7996" lon="7.05997">
        <ele>1385.4</ele>
        <time>2019-12-30T14:25:38Z</time>
      </trkpt>
      <trkpt lat="43.7996" lon="7.05997">
        <ele>1385.4</ele>
        <time>2019-12-30T14:25:39Z</time>
      </trkpt>
      <trkpt lat="43.7996" lon="7.05997">
        <ele>1385.4</ele>
        <time>2019-12-30T14:25:40Z</time>
      </trkpt>
      <trkpt lat="43.7996" lon="7.05997">
        <ele>1385.4</ele>
        <time>2019-12-30T14:25:41Z</time>
      </trkpt>
      <trkpt lat="43.7996" lon="7.05997">
        <ele>1385.4</ele>
        <time>2019-12-30T14:25:42Z</time>
      </trkpt>
      <trkpt lat="43.7996" lon="7.05997">
        <ele>1385.4</ele>
        <time>2019-12-30T14:25:43Z</time>
      </trkpt>
      <trkpt lat="43.7996" lon="7.05997">
        <ele>1385.4</ele>
        <time>2019-12-30T14:25:44Z</time>
      </trkpt>
      <trkpt lat="43.7996" lon="7.05997">
        <ele>1385.4</ele>
        <time>2019-12-30T14:25:45Z</time>
      </trkpt>
      <trkpt lat="43.7996" lon="7.05997">
        <ele>1385.4</ele>
        <time>2019-12-30T14:25:46Z</time>
      </trkpt>
      <trkpt lat="43.7996" lon="7.05997">
        <ele>1385.4</ele>
        <time>2019-12-30T14:25:47Z</time>
      </trkpt>
      <trkpt lat="43.7996" lon="7.05997">
        <ele>1385.4</ele>
        <time>2019-12-30T14:25:48Z</time>
      </trkpt>
      <trkpt lat="43.7996" lon="7.05997">
        <ele>1385.4</ele>
        <time>2019-12-30T14:25:49Z</time>
      </trkpt>
      <trkpt lat="43.7996" lon="7.05997">
        <ele>1385.4</ele>
        <time>2019-12-30T14:25:50Z</time>
      </trkpt>
      <trkpt lat="43.7996" lon="7.05997">
        <ele>1385.4</ele>
        <time>2019-12-30T14:25:51Z</time>
      </trkpt>
      <trkpt lat="43.7996" lon="7.05997">
        <ele>1385.4</ele>
        <time>2019-12-30T14:25:52Z</time>
      </trkpt>
      <trkpt lat="43.7996" lon="7.05997">
        <ele>1385.4</ele>
        <time>2019-12-30T14:25:53Z</time>
      </trkpt>
      <trkpt lat="43.7996" lon="7.05997">
        <ele>1385.4</ele>
        <time>2019-12-30T14:25:54Z</time>
      </trkpt>
      <trkpt lat="43.7996" lon="7.05997">
        <ele>1385.4</ele>
        <time>2019-12-30T14:25:55Z</time>
      </trkpt>
      <trkpt lat="43.7996" lon="7.05997">
        <ele>1385.4</ele>
        <time>2019-12-30T14:25:56Z</time>
      </trkpt>
      <trkpt lat="43.7996" lon="7.05997">
        <ele>1385.4</ele>
        <time>2019-12-30T14:25:57Z</time>
      </trkpt>
      <trkpt lat="43.7996" lon="7.05997">
        <ele>1385.4</ele>
        <time>2019-12-30T14:25:58Z</time>
      </trkpt>
      <trkpt lat="43.7996" lon="7.05997">
        <ele>1385.4</ele>
        <time>2019-12-30T14:25:59Z</time>
      </trkpt>
      <trkpt lat="43.7996" lon="7.05997">
        <ele>1385.4</ele>
        <time>2019-12-30T14:26:00Z</time>
      </trkpt>
      <trkpt lat="43.7996" lon="7.05997">
        <ele>1385.4</ele>
        <time>2019-12-30T14:26:01Z</time>
      </trkpt>
      <trkpt lat="43.7996" lon="7.05997">
        <ele>1385.4</ele>
        <time>2019-12-30T14:26:02Z</time>
      </trkpt>
      <trkpt lat="43.7996" lon="7.05997">
        <ele>1385.4</ele>
        <time>2019-12-30T14:26:03Z</time>
      </trkpt>
      <trkpt lat="43.7996" lon="7.05997">
        <ele>1385.4</ele>
        <time>2019-12-30T14:26:04Z</time>
      </trkpt>
      <trkpt lat="43.7996" lon="7.05997">
        <ele>1385.4</ele>
        <time>2019-12-30T14:26:05Z</time>
      </trkpt>
      <trkpt lat="43.7996" lon="7.05997">
        <ele>1385.4</ele>
        <time>2019-12-30T14:26:06Z</time>
      </trkpt>
      <trkpt lat="43.7996" lon="7.05997">
        <ele>1385.4</ele>
        <time>2019-12-30T14:26:07Z</time>
      </trkpt>
      <trkpt lat="43.7996" lon="7.05997">
        <ele>1385.4</ele>
        <time>2019-12-30T14:26:08Z</time>
      </trkpt>
      <trkpt lat="43.7996" lon="7.05997">
        <ele>1385.4</ele>
        <time>2019-12-30T14:26:09Z</time>
      </trkpt>
      <trkpt lat="43.7996" lon="7.05997">
        <ele>1385.4</ele>
        <time>2019-12-30T14:26:10Z</time>
      </trkpt>
      <trkpt lat="43.7996" lon="7.05997">
        <ele>1385.4</ele>
        <time>2019-12-30T14:26:11Z</time>
      </trkpt>
      <trkpt lat="43.79961" lon="7.05997">
        <ele>1385.4</ele>
        <time>2019-12-30T14:26:12Z</time>
      </trkpt>
      <trkpt lat="43.79961" lon="7.05998">
        <ele>1385.4</ele>
        <time>2019-12-30T14:26:13Z</time>
      </trkpt>
      <trkpt lat="43.79961" lon="7.05998">
        <ele>1385.4</ele>
        <time>2019-12-30T14:26:14Z</time>
      </trkpt>
      <trkpt lat="43.79961" lon="7.05998">
        <ele>1385.4</ele>
        <time>2019-12-30T14:26:15Z</time>
      </trkpt>
      <trkpt lat="43.79961" lon="7.05998">
        <ele>1385.4</ele>
        <time>2019-12-30T14:26:16Z</time>
      </trkpt>
      <trkpt lat="43.79961" lon="7.05998">
        <ele>1385.4</ele>
        <time>2019-12-30T14:26:17Z</time>
      </trkpt>
      <trkpt lat="43.79961" lon="7.05998">
        <ele>1385.4</ele>
        <time>2019-12-30T14:26:18Z</time>
      </trkpt>
      <trkpt lat="43.79961" lon="7.05998">
        <ele>1385.4</ele>
        <time>2019-12-30T14:26:19Z</time>
      </trkpt>
      <trkpt lat="43.79962" lon="7.05998">
        <ele>1385.4</ele>
        <time>2019-12-30T14:26:20Z</time>
      </trkpt>
      <trkpt lat="43.79962" lon="7.05998">
        <ele>1385.5</ele>
        <time>2019-12-30T14:26:21Z</time>
      </trkpt>
      <trkpt lat="43.79962" lon="7.05998">
        <ele>1385.5</ele>
        <time>2019-12-30T14:26:22Z</time>
      </trkpt>
      <trkpt lat="43.79962" lon="7.05998">
        <ele>1385.5</ele>
        <time>2019-12-30T14:26:23Z</time>
      </trkpt>
      <trkpt lat="43.79962" lon="7.05998">
        <ele>1385.5</ele>
        <time>2019-12-30T14:26:24Z</time>
      </trkpt>
      <trkpt lat="43.79962" lon="7.05998">
        <ele>1385.5</ele>
        <time>2019-12-30T14:26:25Z</time>
      </trkpt>
      <trkpt lat="43.79962" lon="7.05997">
        <ele>1385.5</ele>
        <time>2019-12-30T14:26:26Z</time>
      </trkpt>
      <trkpt lat="43.79962" lon="7.05997">
        <ele>1385.5</ele>
        <time>2019-12-30T14:26:27Z</time>
      </trkpt>
      <trkpt lat="43.79963" lon="7.05997">
        <ele>1385.5</ele>
        <time>2019-12-30T14:26:28Z</time>
      </trkpt>
      <trkpt lat="43.79963" lon="7.05997">
        <ele>1385.5</ele>
        <time>2019-12-30T14:26:29Z</time>
      </trkpt>
      <trkpt lat="43.79963" lon="7.05997">
        <ele>1385.5</ele>
        <time>2019-12-30T14:26:30Z</time>
      </trkpt>
      <trkpt lat="43.79963" lon="7.05997">
        <ele>1385.5</ele>
        <time>2019-12-30T14:26:31Z</time>
      </trkpt>
      <trkpt lat="43.79963" lon="7.05997">
        <ele>1385.5</ele>
        <time>2019-12-30T14:26:32Z</time>
      </trkpt>
      <trkpt lat="43.79963" lon="7.05997">
        <ele>1385.5</ele>
        <time>2019-12-30T14:26:33Z</time>
      </trkpt>
      <trkpt lat="43.79963" lon="7.05997">
        <ele>1385.5</ele>
        <time>2019-12-30T14:26:34Z</time>
      </trkpt>
      <trkpt lat="43.79963" lon="7.05997">
        <ele>1385.5</ele>
        <time>2019-12-30T14:26:35Z</time>
      </trkpt>
      <trkpt lat="43.79963" lon="7.05997">
        <ele>1385.5</ele>
        <time>2019-12-30T14:26:36Z</time>
      </trkpt>
      <trkpt lat="43.79963" lon="7.05997">
        <ele>1385.5</ele>
        <time>2019-12-30T14:26:37Z</time>
      </trkpt>
      <trkpt lat="43.79963" lon="7.05997">
        <ele>1385.5</ele>
        <time>2019-12-30T14:26:38Z</time>
      </trkpt>
      <trkpt lat="43.79963" lon="7.05997">
        <ele>1385.5</ele>
        <time>2019-12-30T14:26:39Z</time>
      </trkpt>
      <trkpt lat="43.79963" lon="7.05997">
        <ele>1385.5</ele>
        <time>2019-12-30T14:26:40Z</time>
      </trkpt>
      <trkpt lat="43.79963" lon="7.05997">
        <ele>1385.5</ele>
        <time>2019-12-30T14:26:41Z</time>
      </trkpt>
      <trkpt lat="43.79963" lon="7.05997">
        <ele>1385.5</ele>
        <time>2019-12-30T14:26:42Z</time>
      </trkpt>
      <trkpt lat="43.79963" lon="7.05997">
        <ele>1385.5</ele>
        <time>2019-12-30T14:26:43Z</time>
      </trkpt>
      <trkpt lat="43.79963" lon="7.05997">
        <ele>1385.5</ele>
        <time>2019-12-30T14:26:44Z</time>
      </trkpt>
      <trkpt lat="43.79963" lon="7.05997">
        <ele>1385.5</ele>
        <time>2019-12-30T14:26:45Z</time>
      </trkpt>
      <trkpt lat="43.79963" lon="7.05997">
        <ele>1385.5</ele>
        <time>2019-12-30T14:26:46Z</time>
      </trkpt>
      <trkpt lat="43.79963" lon="7.05997">
        <ele>1385.5</ele>
        <time>2019-12-30T14:26:47Z</time>
      </trkpt>
      <trkpt lat="43.79963" lon="7.05997">
        <ele>1385.5</ele>
        <time>2019-12-30T14:26:48Z</time>
      </trkpt>
      <trkpt lat="43.79963" lon="7.05997">
        <ele>1385.5</ele>
        <time>2019-12-30T14:26:49Z</time>
      </trkpt>
      <trkpt lat="43.79963" lon="7.05997">
        <ele>1385.5</ele>
        <time>2019-12-30T14:26:50Z</time>
      </trkpt>
      <trkpt lat="43.79963" lon="7.05998">
        <ele>1385.5</ele>
        <time>2019-12-30T14:26:51Z</time>
      </trkpt>
      <trkpt lat="43.79964" lon="7.05998">
        <ele>1385.5</ele>
        <time>2019-12-30T14:26:52Z</time>
      </trkpt>
      <trkpt lat="43.79964" lon="7.05999">
        <ele>1385.5</ele>
        <time>2019-12-30T14:26:53Z</time>
      </trkpt>
      <trkpt lat="43.79964" lon="7.06">
        <ele>1385.5</ele>
        <time>2019-12-30T14:26:54Z</time>
      </trkpt>
      <trkpt lat="43.79965" lon="7.06001">
        <ele>1385.5</ele>
        <time>2019-12-30T14:26:55Z</time>
      </trkpt>
      <trkpt lat="43.79965" lon="7.06001">
        <ele>1385.6</ele>
        <time>2019-12-30T14:26:56Z</time>
      </trkpt>
      <trkpt lat="43.79965" lon="7.06002">
        <ele>1385.6</ele>
        <time>2019-12-30T14:26:57Z</time>
      </trkpt>
      <trkpt lat="43.79964" lon="7.06003">
        <ele>1385.6</ele>
        <time>2019-12-30T14:26:58Z</time>
      </trkpt>
      <trkpt lat="43.79964" lon="7.06003">
        <ele>1385.6</ele>
        <time>2019-12-30T14:26:59Z</time>
      </trkpt>
      <trkpt lat="43.79963" lon="7.06003">
        <ele>1385.6</ele>
        <time>2019-12-30T14:27:00Z</time>
      </trkpt>
      <trkpt lat="43.79963" lon="7.06003">
        <ele>1385.6</ele>
        <time>2019-12-30T14:27:01Z</time>
      </trkpt>
      <trkpt lat="43.79963" lon="7.06002">
        <ele>1385.6</ele>
        <time>2019-12-30T14:27:02Z</time>
      </trkpt>
      <trkpt lat="43.79963" lon="7.06002">
        <ele>1385.6</ele>
        <time>2019-12-30T14:27:03Z</time>
      </trkpt>
      <trkpt lat="43.79964" lon="7.06002">
        <ele>1385.6</ele>
        <time>2019-12-30T14:27:04Z</time>
      </trkpt>
      <trkpt lat="43.79964" lon="7.06002">
        <ele>1385.6</ele>
        <time>2019-12-30T14:27:05Z</time>
      </trkpt>
      <trkpt lat="43.79964" lon="7.06002">
        <ele>1385.6</ele>
        <time>2019-12-30T14:27:06Z</time>
      </trkpt>
      <trkpt lat="43.79964" lon="7.06002">
        <ele>1385.6</ele>
        <time>2019-12-30T14:27:07Z</time>
      </trkpt>
      <trkpt lat="43.79964" lon="7.06002">
        <ele>1385.6</ele>
        <time>2019-12-30T14:27:08Z</time>
      </trkpt>
      <trkpt lat="43.79964" lon="7.06002">
        <ele>1385.6</ele>
        <time>2019-12-30T14:27:09Z</time>
      </trkpt>
      <trkpt lat="43.79965" lon="7.06003">
        <ele>1385.6</ele>
        <time>2019-12-30T14:27:10Z</time>
      </trkpt>
      <trkpt lat="43.79965" lon="7.06003">
        <ele>1385.6</ele>
        <time>2019-12-30T14:27:11Z</time>
      </trkpt>
      <trkpt lat="43.79966" lon="7.06003">
        <ele>1385.6</ele>
        <time>2019-12-30T14:27:12Z</time>
      </trkpt>
      <trkpt lat="43.79966" lon="7.06003">
        <ele>1385.6</ele>
        <time>2019-12-30T14:27:13Z</time>
      </trkpt>
      <trkpt lat="43.79966" lon="7.06004">
        <ele>1385.6</ele>
        <time>2019-12-30T14:27:14Z</time>
      </trkpt>
      <trkpt lat="43.79967" lon="7.06005">
        <ele>1385.6</ele>
        <time>2019-12-30T14:27:15Z</time>
      </trkpt>
      <trkpt lat="43.79967" lon="7.06006">
        <ele>1385.5</ele>
        <time>2019-12-30T14:27:16Z</time>
      </trkpt>
      <trkpt lat="43.79967" lon="7.06008">
        <ele>1385.5</ele>
        <time>2019-12-30T14:27:17Z</time>
      </trkpt>
      <trkpt lat="43.79967" lon="7.06009">
        <ele>1385.5</ele>
        <time>2019-12-30T14:27:18Z</time>
      </trkpt>
      <trkpt lat="43.79967" lon="7.06011">
        <ele>1385.4</ele>
        <time>2019-12-30T14:27:19Z</time>
      </trkpt>
      <trkpt lat="43.79967" lon="7.06014">
        <ele>1385.3</ele>
        <time>2019-12-30T14:27:20Z</time>
      </trkpt>
      <trkpt lat="43.79967" lon="7.06017">
        <ele>1385.2</ele>
        <time>2019-12-30T14:27:21Z</time>
      </trkpt>
      <trkpt lat="43.79967" lon="7.0602">
        <ele>1385.1</ele>
        <time>2019-12-30T14:27:22Z</time>
      </trkpt>
      <trkpt lat="43.79967" lon="7.06024">
        <ele>1384.9</ele>
        <time>2019-12-30T14:27:23Z</time>
      </trkpt>
      <trkpt lat="43.79966" lon="7.06026">
        <ele>1384.8</ele>
        <time>2019-12-30T14:27:24Z</time>
      </trkpt>
      <trkpt lat="43.79966" lon="7.06029">
        <ele>1384.6</ele>
        <time>2019-12-30T14:27:25Z</time>
      </trkpt>
      <trkpt lat="43.79966" lon="7.06032">
        <ele>1384.5</ele>
        <time>2019-12-30T14:27:26Z</time>
      </trkpt>
      <trkpt lat="43.79966" lon="7.06035">
        <ele>1384.3</ele>
        <time>2019-12-30T14:27:27Z</time>
      </trkpt>
      <trkpt lat="43.79966" lon="7.06038">
        <ele>1384.2</ele>
        <time>2019-12-30T14:27:28Z</time>
      </trkpt>
      <trkpt lat="43.79966" lon="7.0604">
        <ele>1384</ele>
        <time>2019-12-30T14:27:29Z</time>
      </trkpt>
      <trkpt lat="43.79967" lon="7.06043">
        <ele>1383.9</ele>
        <time>2019-12-30T14:27:30Z</time>
      </trkpt>
      <trkpt lat="43.79967" lon="7.06045">
        <ele>1383.7</ele>
        <time>2019-12-30T14:27:31Z</time>
      </trkpt>
      <trkpt lat="43.79966" lon="7.06047">
        <ele>1383.5</ele>
        <time>2019-12-30T14:27:32Z</time>
      </trkpt>
      <trkpt lat="43.79965" lon="7.0605">
        <ele>1383.3</ele>
        <time>2019-12-30T14:27:33Z</time>
      </trkpt>
      <trkpt lat="43.79964" lon="7.06052">
        <ele>1383.1</ele>
        <time>2019-12-30T14:27:34Z</time>
      </trkpt>
      <trkpt lat="43.79963" lon="7.06054">
        <ele>1382.9</ele>
        <time>2019-12-30T14:27:35Z</time>
      </trkpt>
      <trkpt lat="43.79962" lon="7.06057">
        <ele>1382.7</ele>
        <time>2019-12-30T14:27:36Z</time>
      </trkpt>
      <trkpt lat="43.79961" lon="7.06061">
        <ele>1382.4</ele>
        <time>2019-12-30T14:27:37Z</time>
      </trkpt>
      <trkpt lat="43.79961" lon="7.06065">
        <ele>1382.1</ele>
        <time>2019-12-30T14:27:38Z</time>
      </trkpt>
      <trkpt lat="43.7996" lon="7.06069">
        <ele>1381.7</ele>
        <time>2019-12-30T14:27:39Z</time>
      </trkpt>
      <trkpt lat="43.7996" lon="7.06074">
        <ele>1381.3</ele>
        <time>2019-12-30T14:27:40Z</time>
      </trkpt>
      <trkpt lat="43.7996" lon="7.06078">
        <ele>1381</ele>
        <time>2019-12-30T14:27:41Z</time>
      </trkpt>
      <trkpt lat="43.79961" lon="7.06082">
        <ele>1380.7</ele>
        <time>2019-12-30T14:27:42Z</time>
      </trkpt>
      <trkpt lat="43.79961" lon="7.06086">
        <ele>1380.4</ele>
        <time>2019-12-30T14:27:43Z</time>
      </trkpt>
      <trkpt lat="43.79962" lon="7.06089">
        <ele>1380.2</ele>
        <time>2019-12-30T14:27:44Z</time>
      </trkpt>
      <trkpt lat="43.79962" lon="7.06093">
        <ele>1380</ele>
        <time>2019-12-30T14:27:45Z</time>
      </trkpt>
      <trkpt lat="43.79961" lon="7.06098">
        <ele>1379.7</ele>
        <time>2019-12-30T14:27:46Z</time>
      </trkpt>
      <trkpt lat="43.79961" lon="7.06103">
        <ele>1379.4</ele>
        <time>2019-12-30T14:27:47Z</time>
      </trkpt>
      <trkpt lat="43.7996" lon="7.06107">
        <ele>1379.1</ele>
        <time>2019-12-30T14:27:48Z</time>
      </trkpt>
      <trkpt lat="43.79959" lon="7.06111">
        <ele>1378.9</ele>
        <time>2019-12-30T14:27:49Z</time>
      </trkpt>
      <trkpt lat="43.79959" lon="7.06115">
        <ele>1378.6</ele>
        <time>2019-12-30T14:27:50Z</time>
      </trkpt>
      <trkpt lat="43.79958" lon="7.06118">
        <ele>1378.4</ele>
        <time>2019-12-30T14:27:51Z</time>
      </trkpt>
      <trkpt lat="43.79958" lon="7.06121">
        <ele>1378.3</ele>
        <time>2019-12-30T14:27:52Z</time>
      </trkpt>
      <trkpt lat="43.79957" lon="7.06124">
        <ele>1378.1</ele>
        <time>2019-12-30T14:27:53Z</time>
      </trkpt>
      <trkpt lat="43.79957" lon="7.06127">
        <ele>1377.9</ele>
        <time>2019-12-30T14:27:54Z</time>
      </trkpt>
      <trkpt lat="43.79957" lon="7.06131">
        <ele>1377.7</ele>
        <time>2019-12-30T14:27:55Z</time>
      </trkpt>
      <trkpt lat="43.79957" lon="7.06134">
        <ele>1377.6</ele>
        <time>2019-12-30T14:27:56Z</time>
      </trkpt>
      <trkpt lat="43.79957" lon="7.06138">
        <ele>1377.4</ele>
        <time>2019-12-30T14:27:57Z</time>
      </trkpt>
      <trkpt lat="43.79957" lon="7.06141">
        <ele>1377.3</ele>
        <time>2019-12-30T14:27:58Z</time>
      </trkpt>
      <trkpt lat="43.79957" lon="7.06144">
        <ele>1377.2</ele>
        <time>2019-12-30T14:27:59Z</time>
      </trkpt>
      <trkpt lat="43.79957" lon="7.06148">
        <ele>1377.1</ele>
        <time>2019-12-30T14:28:00Z</time>
      </trkpt>
      <trkpt lat="43.79957" lon="7.06151">
        <ele>1377</ele>
        <time>2019-12-30T14:28:01Z</time>
      </trkpt>
      <trkpt lat="43.79957" lon="7.06154">
        <ele>1376.8</ele>
        <time>2019-12-30T14:28:02Z</time>
      </trkpt>
      <trkpt lat="43.79957" lon="7.06157">
        <ele>1376.7</ele>
        <time>2019-12-30T14:28:03Z</time>
      </trkpt>
      <trkpt lat="43.79957" lon="7.06162">
        <ele>1376.5</ele>
        <time>2019-12-30T14:28:04Z</time>
      </trkpt>
      <trkpt lat="43.79957" lon="7.06167">
        <ele>1376.4</ele>
        <time>2019-12-30T14:28:05Z</time>
      </trkpt>
      <trkpt lat="43.79957" lon="7.0617">
        <ele>1376.3</ele>
        <time>2019-12-30T14:28:06Z</time>
      </trkpt>
      <trkpt lat="43.79958" lon="7.06174">
        <ele>1376.2</ele>
        <time>2019-12-30T14:28:07Z</time>
      </trkpt>
      <trkpt lat="43.79958" lon="7.06177">
        <ele>1376.2</ele>
        <time>2019-12-30T14:28:08Z</time>
      </trkpt>
      <trkpt lat="43.79957" lon="7.0618">
        <ele>1376.1</ele>
        <time>2019-12-30T14:28:09Z</time>
      </trkpt>
      <trkpt lat="43.79957" lon="7.06184">
        <ele>1376</ele>
        <time>2019-12-30T14:28:10Z</time>
      </trkpt>
      <trkpt lat="43.79957" lon="7.06188">
        <ele>1375.8</ele>
        <time>2019-12-30T14:28:11Z</time>
      </trkpt>
      <trkpt lat="43.79957" lon="7.06191">
        <ele>1375.6</ele>
        <time>2019-12-30T14:28:12Z</time>
      </trkpt>
      <trkpt lat="43.79957" lon="7.06194">
        <ele>1375.5</ele>
        <time>2019-12-30T14:28:13Z</time>
      </trkpt>
      <trkpt lat="43.79957" lon="7.06198">
        <ele>1375.3</ele>
        <time>2019-12-30T14:28:14Z</time>
      </trkpt>
      <trkpt lat="43.79957" lon="7.06201">
        <ele>1375.2</ele>
        <time>2019-12-30T14:28:15Z</time>
      </trkpt>
      <trkpt lat="43.79957" lon="7.06205">
        <ele>1375</ele>
        <time>2019-12-30T14:28:16Z</time>
      </trkpt>
      <trkpt lat="43.79957" lon="7.06208">
        <ele>1374.8</ele>
        <time>2019-12-30T14:28:17Z</time>
      </trkpt>
      <trkpt lat="43.79957" lon="7.06211">
        <ele>1374.7</ele>
        <time>2019-12-30T14:28:18Z</time>
      </trkpt>
      <trkpt lat="43.79956" lon="7.06214">
        <ele>1374.5</ele>
        <time>2019-12-30T14:28:19Z</time>
      </trkpt>
      <trkpt lat="43.79956" lon="7.06215">
        <ele>1374.5</ele>
        <time>2019-12-30T14:28:20Z</time>
      </trkpt>
      <trkpt lat="43.79955" lon="7.06216">
        <ele>1374.5</ele>
        <time>2019-12-30T14:28:21Z</time>
      </trkpt>
      <trkpt lat="43.79955" lon="7.06216">
        <ele>1374.4</ele>
        <time>2019-12-30T14:28:22Z</time>
      </trkpt>
      <trkpt lat="43.79955" lon="7.06217">
        <ele>1374.4</ele>
        <time>2019-12-30T14:28:23Z</time>
      </trkpt>
      <trkpt lat="43.79955" lon="7.06217">
        <ele>1374.4</ele>
        <time>2019-12-30T14:28:24Z</time>
      </trkpt>
      <trkpt lat="43.79955" lon="7.06218">
        <ele>1374.4</ele>
        <time>2019-12-30T14:28:25Z</time>
      </trkpt>
      <trkpt lat="43.79955" lon="7.06218">
        <ele>1374.4</ele>
        <time>2019-12-30T14:28:26Z</time>
      </trkpt>
      <trkpt lat="43.79955" lon="7.06218">
        <ele>1374.3</ele>
        <time>2019-12-30T14:28:27Z</time>
      </trkpt>
      <trkpt lat="43.79955" lon="7.06218">
        <ele>1374.3</ele>
        <time>2019-12-30T14:28:28Z</time>
      </trkpt>
      <trkpt lat="43.79955" lon="7.06218">
        <ele>1374.3</ele>
        <time>2019-12-30T14:28:29Z</time>
      </trkpt>
      <trkpt lat="43.79955" lon="7.06218">
        <ele>1374.3</ele>
        <time>2019-12-30T14:28:30Z</time>
      </trkpt>
      <trkpt lat="43.79955" lon="7.06219">
        <ele>1374.3</ele>
        <time>2019-12-30T14:28:31Z</time>
      </trkpt>
      <trkpt lat="43.79955" lon="7.06219">
        <ele>1374.3</ele>
        <time>2019-12-30T14:28:32Z</time>
      </trkpt>
      <trkpt lat="43.79955" lon="7.06219">
        <ele>1374.3</ele>
        <time>2019-12-30T14:28:33Z</time>
      </trkpt>
      <trkpt lat="43.79955" lon="7.06219">
        <ele>1374.3</ele>
        <time>2019-12-30T14:28:34Z</time>
      </trkpt>
      <trkpt lat="43.79955" lon="7.06219">
        <ele>1374.3</ele>
        <time>2019-12-30T14:28:35Z</time>
      </trkpt>
      <trkpt lat="43.79955" lon="7.06219">
        <ele>1374.3</ele>
        <time>2019-12-30T14:28:36Z</time>
      </trkpt>
      <trkpt lat="43.79955" lon="7.06219">
        <ele>1374.3</ele>
        <time>2019-12-30T14:28:37Z</time>
      </trkpt>
      <trkpt lat="43.79955" lon="7.0622">
        <ele>1374.2</ele>
        <time>2019-12-30T14:28:38Z</time>
      </trkpt>
      <trkpt lat="43.79955" lon="7.0622">
        <ele>1374.2</ele>
        <time>2019-12-30T14:28:39Z</time>
      </trkpt>
      <trkpt lat="43.79955" lon="7.0622">
        <ele>1374.2</ele>
        <time>2019-12-30T14:28:40Z</time>
      </trkpt>
      <trkpt lat="43.79955" lon="7.0622">
        <ele>1374.2</ele>
        <time>2019-12-30T14:28:41Z</time>
      </trkpt>
      <trkpt lat="43.79955" lon="7.0622">
        <ele>1374.2</ele>
        <time>2019-12-30T14:28:42Z</time>
      </trkpt>
      <trkpt lat="43.79955" lon="7.0622">
        <ele>1374.2</ele>
        <time>2019-12-30T14:28:43Z</time>
      </trkpt>
      <trkpt lat="43.79955" lon="7.0622">
        <ele>1374.2</ele>
        <time>2019-12-30T14:28:44Z</time>
      </trkpt>
      <trkpt lat="43.79955" lon="7.0622">
        <ele>1374.2</ele>
        <time>2019-12-30T14:28:45Z</time>
      </trkpt>
      <trkpt lat="43.79955" lon="7.0622">
        <ele>1374.2</ele>
        <time>2019-12-30T14:28:46Z</time>
      </trkpt>
      <trkpt lat="43.79955" lon="7.0622">
        <ele>1374.2</ele>
        <time>2019-12-30T14:28:47Z</time>
      </trkpt>
      <trkpt lat="43.79955" lon="7.0622">
        <ele>1374.2</ele>
        <time>2019-12-30T14:28:48Z</time>
      </trkpt>
      <trkpt lat="43.79955" lon="7.0622">
        <ele>1374.2</ele>
        <time>2019-12-30T14:28:49Z</time>
      </trkpt>
      <trkpt lat="43.79955" lon="7.0622">
        <ele>1374.2</ele>
        <time>2019-12-30T14:28:50Z</time>
      </trkpt>
      <trkpt lat="43.79955" lon="7.0622">
        <ele>1374.2</ele>
        <time>2019-12-30T14:28:51Z</time>
      </trkpt>
      <trkpt lat="43.79955" lon="7.0622">
        <ele>1374.2</ele>
        <time>2019-12-30T14:28:52Z</time>
      </trkpt>
      <trkpt lat="43.79955" lon="7.0622">
        <ele>1374.2</ele>
        <time>2019-12-30T14:28:53Z</time>
      </trkpt>
      <trkpt lat="43.79955" lon="7.0622">
        <ele>1374.2</ele>
        <time>2019-12-30T14:28:54Z</time>
      </trkpt>
      <trkpt lat="43.79955" lon="7.0622">
        <ele>1374.2</ele>
        <time>2019-12-30T14:28:55Z</time>
      </trkpt>
      <trkpt lat="43.79955" lon="7.0622">
        <ele>1374.2</ele>
        <time>2019-12-30T14:28:56Z</time>
      </trkpt>
      <trkpt lat="43.79955" lon="7.0622">
        <ele>1374.2</ele>
        <time>2019-12-30T14:28:57Z</time>
      </trkpt>
      <trkpt lat="43.79955" lon="7.0622">
        <ele>1374.2</ele>
        <time>2019-12-30T14:28:58Z</time>
      </trkpt>
      <trkpt lat="43.79955" lon="7.0622">
        <ele>1374.2</ele>
        <time>2019-12-30T14:28:59Z</time>
      </trkpt>
      <trkpt lat="43.79955" lon="7.0622">
        <ele>1374.2</ele>
        <time>2019-12-30T14:29:00Z</time>
      </trkpt>
      <trkpt lat="43.79955" lon="7.0622">
        <ele>1374.2</ele>
        <time>2019-12-30T14:29:01Z</time>
      </trkpt>
      <trkpt lat="43.79955" lon="7.0622">
        <ele>1374.2</ele>
        <time>2019-12-30T14:29:02Z</time>
      </trkpt>
      <trkpt lat="43.79955" lon="7.0622">
        <ele>1374.2</ele>
        <time>2019-12-30T14:29:03Z</time>
      </trkpt>
      <trkpt lat="43.79955" lon="7.0622">
        <ele>1374.2</ele>
        <time>2019-12-30T14:29:04Z</time>
      </trkpt>
      <trkpt lat="43.79955" lon="7.0622">
        <ele>1374.2</ele>
        <time>2019-12-30T14:29:05Z</time>
      </trkpt>
      <trkpt lat="43.79955" lon="7.0622">
        <ele>1374.2</ele>
        <time>2019-12-30T14:29:06Z</time>
      </trkpt>
      <trkpt lat="43.79955" lon="7.0622">
        <ele>1374.2</ele>
        <time>2019-12-30T14:29:07Z</time>
      </trkpt>
      <trkpt lat="43.79955" lon="7.0622">
        <ele>1374.2</ele>
        <time>2019-12-30T14:29:08Z</time>
      </trkpt>
      <trkpt lat="43.79955" lon="7.0622">
        <ele>1374.2</ele>
        <time>2019-12-30T14:29:09Z</time>
      </trkpt>
      <trkpt lat="43.79955" lon="7.0622">
        <ele>1374.2</ele>
        <time>2019-12-30T14:29:10Z</time>
      </trkpt>
      <trkpt lat="43.79955" lon="7.0622">
        <ele>1374.2</ele>
        <time>2019-12-30T14:29:11Z</time>
      </trkpt>
      <trkpt lat="43.79955" lon="7.0622">
        <ele>1374.2</ele>
        <time>2019-12-30T14:29:12Z</time>
      </trkpt>
      <trkpt lat="43.79955" lon="7.0622">
        <ele>1374.2</ele>
        <time>2019-12-30T14:29:13Z</time>
      </trkpt>
      <trkpt lat="43.79955" lon="7.0622">
        <ele>1374.2</ele>
        <time>2019-12-30T14:29:14Z</time>
      </trkpt>
      <trkpt lat="43.79955" lon="7.0622">
        <ele>1374.2</ele>
        <time>2019-12-30T14:29:15Z</time>
      </trkpt>
      <trkpt lat="43.79955" lon="7.0622">
        <ele>1374.2</ele>
        <time>2019-12-30T14:29:16Z</time>
      </trkpt>
      <trkpt lat="43.79955" lon="7.0622">
        <ele>1374.2</ele>
        <time>2019-12-30T14:29:17Z</time>
      </trkpt>
      <trkpt lat="43.79955" lon="7.0622">
        <ele>1374.2</ele>
        <time>2019-12-30T14:29:18Z</time>
      </trkpt>
      <trkpt lat="43.79955" lon="7.0622">
        <ele>1374.2</ele>
        <time>2019-12-30T14:29:19Z</time>
      </trkpt>
      <trkpt lat="43.79955" lon="7.0622">
        <ele>1374.2</ele>
        <time>2019-12-30T14:29:20Z</time>
      </trkpt>
      <trkpt lat="43.79955" lon="7.0622">
        <ele>1374.2</ele>
        <time>2019-12-30T14:29:21Z</time>
      </trkpt>
      <trkpt lat="43.79955" lon="7.0622">
        <ele>1374.2</ele>
        <time>2019-12-30T14:29:22Z</time>
      </trkpt>
      <trkpt lat="43.79955" lon="7.0622">
        <ele>1374.2</ele>
        <time>2019-12-30T14:29:23Z</time>
      </trkpt>
      <trkpt lat="43.79955" lon="7.0622">
        <ele>1374.1</ele>
        <time>2019-12-30T14:29:24Z</time>
      </trkpt>
      <trkpt lat="43.79955" lon="7.0622">
        <ele>1374.1</ele>
        <time>2019-12-30T14:29:25Z</time>
      </trkpt>
      <trkpt lat="43.79955" lon="7.0622">
        <ele>1374.1</ele>
        <time>2019-12-30T14:29:26Z</time>
      </trkpt>
      <trkpt lat="43.79955" lon="7.0622">
        <ele>1374.1</ele>
        <time>2019-12-30T14:29:27Z</time>
      </trkpt>
      <trkpt lat="43.79955" lon="7.0622">
        <ele>1374.1</ele>
        <time>2019-12-30T14:29:28Z</time>
      </trkpt>
      <trkpt lat="43.79955" lon="7.0622">
        <ele>1374.1</ele>
        <time>2019-12-30T14:29:29Z</time>
      </trkpt>
      <trkpt lat="43.79955" lon="7.0622">
        <ele>1374.1</ele>
        <time>2019-12-30T14:29:30Z</time>
      </trkpt>
      <trkpt lat="43.79955" lon="7.0622">
        <ele>1374.1</ele>
        <time>2019-12-30T14:29:31Z</time>
      </trkpt>
      <trkpt lat="43.79955" lon="7.0622">
        <ele>1374.1</ele>
        <time>2019-12-30T14:29:32Z</time>
      </trkpt>
      <trkpt lat="43.79955" lon="7.06221">
        <ele>1374.1</ele>
        <time>2019-12-30T14:29:33Z</time>
      </trkpt>
      <trkpt lat="43.79954" lon="7.06225">
        <ele>1373.7</ele>
        <time>2019-12-30T14:29:34Z</time>
      </trkpt>
      <trkpt lat="43.79953" lon="7.06228">
        <ele>1373.4</ele>
        <time>2019-12-30T14:29:35Z</time>
      </trkpt>
      <trkpt lat="43.79952" lon="7.06232">
        <ele>1373</ele>
        <time>2019-12-30T14:29:36Z</time>
      </trkpt>
      <trkpt lat="43.79951" lon="7.06237">
        <ele>1372.4</ele>
        <time>2019-12-30T14:29:37Z</time>
      </trkpt>
      <trkpt lat="43.79951" lon="7.06243">
        <ele>1371.7</ele>
        <time>2019-12-30T14:29:38Z</time>
      </trkpt>
      <trkpt lat="43.7995" lon="7.0625">
        <ele>1370.8</ele>
        <time>2019-12-30T14:29:39Z</time>
      </trkpt>
      <trkpt lat="43.79949" lon="7.06258">
        <ele>1369.8</ele>
        <time>2019-12-30T14:29:40Z</time>
      </trkpt>
      <trkpt lat="43.79947" lon="7.06271">
        <ele>1368.1</ele>
        <time>2019-12-30T14:29:41Z</time>
      </trkpt>
      <trkpt lat="43.79946" lon="7.06276">
        <ele>1367.4</ele>
        <time>2019-12-30T14:29:42Z</time>
      </trkpt>
      <trkpt lat="43.79946" lon="7.06281">
        <ele>1366.7</ele>
        <time>2019-12-30T14:29:43Z</time>
      </trkpt>
      <trkpt lat="43.79945" lon="7.06286">
        <ele>1366.1</ele>
        <time>2019-12-30T14:29:44Z</time>
      </trkpt>
      <trkpt lat="43.79944" lon="7.06291">
        <ele>1365.4</ele>
        <time>2019-12-30T14:29:45Z</time>
      </trkpt>
      <trkpt lat="43.79945" lon="7.06297">
        <ele>1364.3</ele>
        <time>2019-12-30T14:29:46Z</time>
      </trkpt>
      <trkpt lat="43.79945" lon="7.06303">
        <ele>1363.4</ele>
        <time>2019-12-30T14:29:47Z</time>
      </trkpt>
      <trkpt lat="43.79946" lon="7.06309">
        <ele>1362.6</ele>
        <time>2019-12-30T14:29:48Z</time>
      </trkpt>
      <trkpt lat="43.79946" lon="7.06315">
        <ele>1361.8</ele>
        <time>2019-12-30T14:29:49Z</time>
      </trkpt>
      <trkpt lat="43.79944" lon="7.06327">
        <ele>1360.3</ele>
        <time>2019-12-30T14:29:50Z</time>
      </trkpt>
      <trkpt lat="43.79943" lon="7.06332">
        <ele>1359.7</ele>
        <time>2019-12-30T14:29:51Z</time>
      </trkpt>
      <trkpt lat="43.79942" lon="7.06337">
        <ele>1359</ele>
        <time>2019-12-30T14:29:52Z</time>
      </trkpt>
      <trkpt lat="43.79941" lon="7.06342">
        <ele>1357.9</ele>
        <time>2019-12-30T14:29:53Z</time>
      </trkpt>
      <trkpt lat="43.7994" lon="7.06349">
        <ele>1356.8</ele>
        <time>2019-12-30T14:29:54Z</time>
      </trkpt>
      <trkpt lat="43.79939" lon="7.06357">
        <ele>1355.6</ele>
        <time>2019-12-30T14:29:55Z</time>
      </trkpt>
      <trkpt lat="43.79938" lon="7.06365">
        <ele>1354.3</ele>
        <time>2019-12-30T14:29:56Z</time>
      </trkpt>
      <trkpt lat="43.79938" lon="7.06374">
        <ele>1353</ele>
        <time>2019-12-30T14:29:57Z</time>
      </trkpt>
      <trkpt lat="43.79939" lon="7.06383">
        <ele>1351.8</ele>
        <time>2019-12-30T14:29:58Z</time>
      </trkpt>
      <trkpt lat="43.79939" lon="7.06392">
        <ele>1350.2</ele>
        <time>2019-12-30T14:29:59Z</time>
      </trkpt>
      <trkpt lat="43.79939" lon="7.06401">
        <ele>1349.1</ele>
        <time>2019-12-30T14:30:00Z</time>
      </trkpt>
      <trkpt lat="43.79939" lon="7.0641">
        <ele>1347.9</ele>
        <time>2019-12-30T14:30:01Z</time>
      </trkpt>
      <trkpt lat="43.7994" lon="7.06425">
        <ele>1346.1</ele>
        <time>2019-12-30T14:30:02Z</time>
      </trkpt>
      <trkpt lat="43.79941" lon="7.06432">
        <ele>1345.6</ele>
        <time>2019-12-30T14:30:03Z</time>
      </trkpt>
      <trkpt lat="43.79941" lon="7.06438">
        <ele>1345.1</ele>
        <time>2019-12-30T14:30:04Z</time>
      </trkpt>
      <trkpt lat="43.79941" lon="7.06445">
        <ele>1344.6</ele>
        <time>2019-12-30T14:30:05Z</time>
      </trkpt>
      <trkpt lat="43.79941" lon="7.06452">
        <ele>1343.9</ele>
        <time>2019-12-30T14:30:06Z</time>
      </trkpt>
      <trkpt lat="43.79942" lon="7.0646">
        <ele>1343</ele>
        <time>2019-12-30T14:30:07Z</time>
      </trkpt>
      <trkpt lat="43.79943" lon="7.06467">
        <ele>1342.2</ele>
        <time>2019-12-30T14:30:08Z</time>
      </trkpt>
      <trkpt lat="43.79943" lon="7.06475">
        <ele>1341.4</ele>
        <time>2019-12-30T14:30:09Z</time>
      </trkpt>
      <trkpt lat="43.79944" lon="7.06482">
        <ele>1340.7</ele>
        <time>2019-12-30T14:30:10Z</time>
      </trkpt>
      <trkpt lat="43.79946" lon="7.06488">
        <ele>1340</ele>
        <time>2019-12-30T14:30:11Z</time>
      </trkpt>
      <trkpt lat="43.79947" lon="7.06495">
        <ele>1339.2</ele>
        <time>2019-12-30T14:30:12Z</time>
      </trkpt>
      <trkpt lat="43.79948" lon="7.06502">
        <ele>1338.2</ele>
        <time>2019-12-30T14:30:13Z</time>
      </trkpt>
      <trkpt lat="43.79949" lon="7.0651">
        <ele>1337.2</ele>
        <time>2019-12-30T14:30:14Z</time>
      </trkpt>
      <trkpt lat="43.79951" lon="7.06517">
        <ele>1336.3</ele>
        <time>2019-12-30T14:30:15Z</time>
      </trkpt>
      <trkpt lat="43.79952" lon="7.06524">
        <ele>1335.4</ele>
        <time>2019-12-30T14:30:16Z</time>
      </trkpt>
      <trkpt lat="43.79953" lon="7.06532">
        <ele>1334.5</ele>
        <time>2019-12-30T14:30:17Z</time>
      </trkpt>
      <trkpt lat="43.79955" lon="7.06539">
        <ele>1333.3</ele>
        <time>2019-12-30T14:30:18Z</time>
      </trkpt>
      <trkpt lat="43.79957" lon="7.06546">
        <ele>1332.4</ele>
        <time>2019-12-30T14:30:19Z</time>
      </trkpt>
      <trkpt lat="43.79956" lon="7.06551">
        <ele>1331.6</ele>
        <time>2019-12-30T14:30:20Z</time>
      </trkpt>
      <trkpt lat="43.79954" lon="7.06556">
        <ele>1330.9</ele>
        <time>2019-12-30T14:30:21Z</time>
      </trkpt>
      <trkpt lat="43.79952" lon="7.0656">
        <ele>1330.2</ele>
        <time>2019-12-30T14:30:22Z</time>
      </trkpt>
      <trkpt lat="43.7995" lon="7.06564">
        <ele>1329.5</ele>
        <time>2019-12-30T14:30:23Z</time>
      </trkpt>
      <trkpt lat="43.79949" lon="7.0657">
        <ele>1328.7</ele>
        <time>2019-12-30T14:30:24Z</time>
      </trkpt>
      <trkpt lat="43.7995" lon="7.06575">
        <ele>1328</ele>
        <time>2019-12-30T14:30:25Z</time>
      </trkpt>
      <trkpt lat="43.79952" lon="7.06579">
        <ele>1327.3</ele>
        <time>2019-12-30T14:30:26Z</time>
      </trkpt>
      <trkpt lat="43.79956" lon="7.06582">
        <ele>1326.6</ele>
        <time>2019-12-30T14:30:27Z</time>
      </trkpt>
      <trkpt lat="43.79958" lon="7.06585">
        <ele>1325.9</ele>
        <time>2019-12-30T14:30:28Z</time>
      </trkpt>
      <trkpt lat="43.7996" lon="7.06587">
        <ele>1325.6</ele>
        <time>2019-12-30T14:30:29Z</time>
      </trkpt>
      <trkpt lat="43.79961" lon="7.06587">
        <ele>1325.3</ele>
        <time>2019-12-30T14:30:30Z</time>
      </trkpt>
      <trkpt lat="43.79961" lon="7.06588">
        <ele>1325.3</ele>
        <time>2019-12-30T14:30:31Z</time>
      </trkpt>
      <trkpt lat="43.79961" lon="7.06588">
        <ele>1325.3</ele>
        <time>2019-12-30T14:30:32Z</time>
      </trkpt>
      <trkpt lat="43.79961" lon="7.06588">
        <ele>1325.2</ele>
        <time>2019-12-30T14:30:33Z</time>
      </trkpt>
      <trkpt lat="43.79962" lon="7.06588">
        <ele>1325.2</ele>
        <time>2019-12-30T14:30:34Z</time>
      </trkpt>
      <trkpt lat="43.79962" lon="7.06588">
        <ele>1325.2</ele>
        <time>2019-12-30T14:30:35Z</time>
      </trkpt>
      <trkpt lat="43.79962" lon="7.06588">
        <ele>1325.1</ele>
        <time>2019-12-30T14:30:36Z</time>
      </trkpt>
      <trkpt lat="43.79962" lon="7.06588">
        <ele>1325.1</ele>
        <time>2019-12-30T14:30:37Z</time>
      </trkpt>
      <trkpt lat="43.79962" lon="7.06588">
        <ele>1325.1</ele>
        <time>2019-12-30T14:30:38Z</time>
      </trkpt>
      <trkpt lat="43.79962" lon="7.06589">
        <ele>1325.1</ele>
        <time>2019-12-30T14:30:39Z</time>
      </trkpt>
      <trkpt lat="43.79962" lon="7.06589">
        <ele>1325.1</ele>
        <time>2019-12-30T14:30:40Z</time>
      </trkpt>
      <trkpt lat="43.79962" lon="7.06589">
        <ele>1325.1</ele>
        <time>2019-12-30T14:30:41Z</time>
      </trkpt>
      <trkpt lat="43.79962" lon="7.06589">
        <ele>1325.1</ele>
        <time>2019-12-30T14:30:42Z</time>
      </trkpt>
      <trkpt lat="43.79962" lon="7.06589">
        <ele>1325.1</ele>
        <time>2019-12-30T14:30:43Z</time>
      </trkpt>
      <trkpt lat="43.79962" lon="7.06589">
        <ele>1325</ele>
        <time>2019-12-30T14:30:44Z</time>
      </trkpt>
      <trkpt lat="43.79962" lon="7.06589">
        <ele>1325</ele>
        <time>2019-12-30T14:30:45Z</time>
      </trkpt>
      <trkpt lat="43.79962" lon="7.06589">
        <ele>1325</ele>
        <time>2019-12-30T14:30:46Z</time>
      </trkpt>
      <trkpt lat="43.79962" lon="7.06589">
        <ele>1325</ele>
        <time>2019-12-30T14:30:47Z</time>
      </trkpt>
      <trkpt lat="43.79962" lon="7.06589">
        <ele>1325</ele>
        <time>2019-12-30T14:30:48Z</time>
      </trkpt>
      <trkpt lat="43.79962" lon="7.06589">
        <ele>1325</ele>
        <time>2019-12-30T14:30:49Z</time>
      </trkpt>
      <trkpt lat="43.79962" lon="7.06589">
        <ele>1325</ele>
        <time>2019-12-30T14:30:50Z</time>
      </trkpt>
      <trkpt lat="43.79962" lon="7.06589">
        <ele>1325</ele>
        <time>2019-12-30T14:30:51Z</time>
      </trkpt>
      <trkpt lat="43.79962" lon="7.06589">
        <ele>1325</ele>
        <time>2019-12-30T14:30:52Z</time>
      </trkpt>
      <trkpt lat="43.79962" lon="7.06589">
        <ele>1325</ele>
        <time>2019-12-30T14:30:53Z</time>
      </trkpt>
      <trkpt lat="43.79962" lon="7.0659">
        <ele>1324.9</ele>
        <time>2019-12-30T14:30:54Z</time>
      </trkpt>
      <trkpt lat="43.79962" lon="7.0659">
        <ele>1324.9</ele>
        <time>2019-12-30T14:30:55Z</time>
      </trkpt>
      <trkpt lat="43.79962" lon="7.0659">
        <ele>1324.8</ele>
        <time>2019-12-30T14:30:56Z</time>
      </trkpt>
      <trkpt lat="43.79962" lon="7.06591">
        <ele>1324.7</ele>
        <time>2019-12-30T14:30:57Z</time>
      </trkpt>
      <trkpt lat="43.79962" lon="7.06592">
        <ele>1324.6</ele>
        <time>2019-12-30T14:30:58Z</time>
      </trkpt>
      <trkpt lat="43.79962" lon="7.06594">
        <ele>1324.4</ele>
        <time>2019-12-30T14:30:59Z</time>
      </trkpt>
      <trkpt lat="43.79962" lon="7.06596">
        <ele>1324.1</ele>
        <time>2019-12-30T14:31:00Z</time>
      </trkpt>
      <trkpt lat="43.79963" lon="7.06598">
        <ele>1323.9</ele>
        <time>2019-12-30T14:31:01Z</time>
      </trkpt>
      <trkpt lat="43.79964" lon="7.06601">
        <ele>1323.7</ele>
        <time>2019-12-30T14:31:02Z</time>
      </trkpt>
      <trkpt lat="43.79964" lon="7.06604">
        <ele>1323.4</ele>
        <time>2019-12-30T14:31:03Z</time>
      </trkpt>
      <trkpt lat="43.79966" lon="7.06607">
        <ele>1323</ele>
        <time>2019-12-30T14:31:04Z</time>
      </trkpt>
      <trkpt lat="43.79968" lon="7.06611">
        <ele>1322.7</ele>
        <time>2019-12-30T14:31:05Z</time>
      </trkpt>
      <trkpt lat="43.7997" lon="7.06613">
        <ele>1322.4</ele>
        <time>2019-12-30T14:31:06Z</time>
      </trkpt>
      <trkpt lat="43.79971" lon="7.06616">
        <ele>1322.2</ele>
        <time>2019-12-30T14:31:07Z</time>
      </trkpt>
      <trkpt lat="43.79972" lon="7.06618">
        <ele>1322</ele>
        <time>2019-12-30T14:31:08Z</time>
      </trkpt>
      <trkpt lat="43.79972" lon="7.06618">
        <ele>1322</ele>
        <time>2019-12-30T14:31:09Z</time>
      </trkpt>
      <trkpt lat="43.79972" lon="7.06618">
        <ele>1322</ele>
        <time>2019-12-30T14:31:10Z</time>
      </trkpt>
      <trkpt lat="43.79973" lon="7.06618">
        <ele>1322</ele>
        <time>2019-12-30T14:31:11Z</time>
      </trkpt>
      <trkpt lat="43.79973" lon="7.06618">
        <ele>1322</ele>
        <time>2019-12-30T14:31:12Z</time>
      </trkpt>
      <trkpt lat="43.79973" lon="7.06619">
        <ele>1321.9</ele>
        <time>2019-12-30T14:31:13Z</time>
      </trkpt>
      <trkpt lat="43.79973" lon="7.06619">
        <ele>1321.9</ele>
        <time>2019-12-30T14:31:14Z</time>
      </trkpt>
      <trkpt lat="43.79973" lon="7.06619">
        <ele>1321.9</ele>
        <time>2019-12-30T14:31:15Z</time>
      </trkpt>
      <trkpt lat="43.79973" lon="7.06619">
        <ele>1321.9</ele>
        <time>2019-12-30T14:31:16Z</time>
      </trkpt>
      <trkpt lat="43.79973" lon="7.06619">
        <ele>1321.9</ele>
        <time>2019-12-30T14:31:17Z</time>
      </trkpt>
      <trkpt lat="43.79973" lon="7.06619">
        <ele>1321.8</ele>
        <time>2019-12-30T14:31:18Z</time>
      </trkpt>
      <trkpt lat="43.79974" lon="7.0662">
        <ele>1321.8</ele>
        <time>2019-12-30T14:31:19Z</time>
      </trkpt>
      <trkpt lat="43.79974" lon="7.0662">
        <ele>1321.8</ele>
        <time>2019-12-30T14:31:20Z</time>
      </trkpt>
      <trkpt lat="43.79974" lon="7.0662">
        <ele>1321.8</ele>
        <time>2019-12-30T14:31:21Z</time>
      </trkpt>
      <trkpt lat="43.79974" lon="7.0662">
        <ele>1321.8</ele>
        <time>2019-12-30T14:31:22Z</time>
      </trkpt>
      <trkpt lat="43.79974" lon="7.0662">
        <ele>1321.7</ele>
        <time>2019-12-30T14:31:23Z</time>
      </trkpt>
      <trkpt lat="43.79974" lon="7.06621">
        <ele>1321.7</ele>
        <time>2019-12-30T14:31:24Z</time>
      </trkpt>
      <trkpt lat="43.79974" lon="7.06621">
        <ele>1321.7</ele>
        <time>2019-12-30T14:31:25Z</time>
      </trkpt>
      <trkpt lat="43.79975" lon="7.06622">
        <ele>1321.6</ele>
        <time>2019-12-30T14:31:26Z</time>
      </trkpt>
      <trkpt lat="43.79976" lon="7.06625">
        <ele>1321.4</ele>
        <time>2019-12-30T14:31:27Z</time>
      </trkpt>
      <trkpt lat="43.79978" lon="7.06627">
        <ele>1321.1</ele>
        <time>2019-12-30T14:31:28Z</time>
      </trkpt>
      <trkpt lat="43.79979" lon="7.0663">
        <ele>1320.8</ele>
        <time>2019-12-30T14:31:29Z</time>
      </trkpt>
      <trkpt lat="43.7998" lon="7.06634">
        <ele>1320.5</ele>
        <time>2019-12-30T14:31:30Z</time>
      </trkpt>
      <trkpt lat="43.79981" lon="7.06638">
        <ele>1320.1</ele>
        <time>2019-12-30T14:31:31Z</time>
      </trkpt>
      <trkpt lat="43.79982" lon="7.06643">
        <ele>1319.6</ele>
        <time>2019-12-30T14:31:32Z</time>
      </trkpt>
      <trkpt lat="43.79982" lon="7.06648">
        <ele>1319.1</ele>
        <time>2019-12-30T14:31:33Z</time>
      </trkpt>
      <trkpt lat="43.79982" lon="7.06652">
        <ele>1318.6</ele>
        <time>2019-12-30T14:31:34Z</time>
      </trkpt>
      <trkpt lat="43.79982" lon="7.06656">
        <ele>1318.2</ele>
        <time>2019-12-30T14:31:35Z</time>
      </trkpt>
      <trkpt lat="43.79982" lon="7.0666">
        <ele>1317.8</ele>
        <time>2019-12-30T14:31:36Z</time>
      </trkpt>
      <trkpt lat="43.79982" lon="7.06663">
        <ele>1317.4</ele>
        <time>2019-12-30T14:31:37Z</time>
      </trkpt>
      <trkpt lat="43.79982" lon="7.06665">
        <ele>1316.9</ele>
        <time>2019-12-30T14:31:38Z</time>
      </trkpt>
      <trkpt lat="43.79982" lon="7.06669">
        <ele>1316.5</ele>
        <time>2019-12-30T14:31:39Z</time>
      </trkpt>
      <trkpt lat="43.79983" lon="7.06673">
        <ele>1315.7</ele>
        <time>2019-12-30T14:31:40Z</time>
      </trkpt>
      <trkpt lat="43.79984" lon="7.06678">
        <ele>1314.7</ele>
        <time>2019-12-30T14:31:41Z</time>
      </trkpt>
      <trkpt lat="43.79986" lon="7.06683">
        <ele>1313.4</ele>
        <time>2019-12-30T14:31:42Z</time>
      </trkpt>
      <trkpt lat="43.79988" lon="7.06689">
        <ele>1312.1</ele>
        <time>2019-12-30T14:31:43Z</time>
      </trkpt>
      <trkpt lat="43.79989" lon="7.06695">
        <ele>1310.6</ele>
        <time>2019-12-30T14:31:44Z</time>
      </trkpt>
      <trkpt lat="43.7999" lon="7.06702">
        <ele>1308.9</ele>
        <time>2019-12-30T14:31:45Z</time>
      </trkpt>
      <trkpt lat="43.7999" lon="7.06707">
        <ele>1307.5</ele>
        <time>2019-12-30T14:31:46Z</time>
      </trkpt>
      <trkpt lat="43.79991" lon="7.06711">
        <ele>1306.6</ele>
        <time>2019-12-30T14:31:47Z</time>
      </trkpt>
      <trkpt lat="43.79991" lon="7.06715">
        <ele>1305.8</ele>
        <time>2019-12-30T14:31:48Z</time>
      </trkpt>
      <trkpt lat="43.79991" lon="7.06719">
        <ele>1305</ele>
        <time>2019-12-30T14:31:49Z</time>
      </trkpt>
      <trkpt lat="43.79991" lon="7.06723">
        <ele>1304.2</ele>
        <time>2019-12-30T14:31:50Z</time>
      </trkpt>
      <trkpt lat="43.79992" lon="7.06727">
        <ele>1303.3</ele>
        <time>2019-12-30T14:31:51Z</time>
      </trkpt>
      <trkpt lat="43.79994" lon="7.06731">
        <ele>1302.3</ele>
        <time>2019-12-30T14:31:52Z</time>
      </trkpt>
      <trkpt lat="43.79995" lon="7.06736">
        <ele>1301.2</ele>
        <time>2019-12-30T14:31:53Z</time>
      </trkpt>
      <trkpt lat="43.79998" lon="7.0674">
        <ele>1300.2</ele>
        <time>2019-12-30T14:31:54Z</time>
      </trkpt>
      <trkpt lat="43.8" lon="7.06745">
        <ele>1299.1</ele>
        <time>2019-12-30T14:31:55Z</time>
      </trkpt>
      <trkpt lat="43.80002" lon="7.06749">
        <ele>1298.2</ele>
        <time>2019-12-30T14:31:56Z</time>
      </trkpt>
      <trkpt lat="43.80004" lon="7.06753">
        <ele>1297.3</ele>
        <time>2019-12-30T14:31:57Z</time>
      </trkpt>
      <trkpt lat="43.80005" lon="7.06758">
        <ele>1296.3</ele>
        <time>2019-12-30T14:31:58Z</time>
      </trkpt>
      <trkpt lat="43.80006" lon="7.06764">
        <ele>1295.1</ele>
        <time>2019-12-30T14:31:59Z</time>
      </trkpt>
      <trkpt lat="43.80006" lon="7.06775">
        <ele>1292.6</ele>
        <time>2019-12-30T14:32:00Z</time>
      </trkpt>
      <trkpt lat="43.80006" lon="7.0678">
        <ele>1291.5</ele>
        <time>2019-12-30T14:32:01Z</time>
      </trkpt>
      <trkpt lat="43.80006" lon="7.06785">
        <ele>1290.3</ele>
        <time>2019-12-30T14:32:02Z</time>
      </trkpt>
      <trkpt lat="43.80006" lon="7.06789">
        <ele>1289.2</ele>
        <time>2019-12-30T14:32:03Z</time>
      </trkpt>
      <trkpt lat="43.80006" lon="7.06794">
        <ele>1288</ele>
        <time>2019-12-30T14:32:04Z</time>
      </trkpt>
      <trkpt lat="43.80006" lon="7.06797">
        <ele>1287.3</ele>
        <time>2019-12-30T14:32:05Z</time>
      </trkpt>
      <trkpt lat="43.80006" lon="7.06799">
        <ele>1286.8</ele>
        <time>2019-12-30T14:32:06Z</time>
      </trkpt>
      <trkpt lat="43.80006" lon="7.06801">
        <ele>1286.4</ele>
        <time>2019-12-30T14:32:07Z</time>
      </trkpt>
      <trkpt lat="43.80006" lon="7.06802">
        <ele>1286.1</ele>
        <time>2019-12-30T14:32:08Z</time>
      </trkpt>
      <trkpt lat="43.80007" lon="7.06803">
        <ele>1285.9</ele>
        <time>2019-12-30T14:32:09Z</time>
      </trkpt>
      <trkpt lat="43.80007" lon="7.06803">
        <ele>1285.8</ele>
        <time>2019-12-30T14:32:10Z</time>
      </trkpt>
      <trkpt lat="43.80007" lon="7.06804">
        <ele>1285.7</ele>
        <time>2019-12-30T14:32:11Z</time>
      </trkpt>
      <trkpt lat="43.80007" lon="7.06804">
        <ele>1285.7</ele>
        <time>2019-12-30T14:32:12Z</time>
      </trkpt>
      <trkpt lat="43.80007" lon="7.06804">
        <ele>1285.6</ele>
        <time>2019-12-30T14:32:13Z</time>
      </trkpt>
      <trkpt lat="43.80007" lon="7.06804">
        <ele>1285.6</ele>
        <time>2019-12-30T14:32:14Z</time>
      </trkpt>
      <trkpt lat="43.80007" lon="7.06803">
        <ele>1285.6</ele>
        <time>2019-12-30T14:32:15Z</time>
      </trkpt>
      <trkpt lat="43.80007" lon="7.06803">
        <ele>1285.6</ele>
        <time>2019-12-30T14:32:16Z</time>
      </trkpt>
      <trkpt lat="43.80007" lon="7.06803">
        <ele>1285.6</ele>
        <time>2019-12-30T14:32:17Z</time>
      </trkpt>
      <trkpt lat="43.80007" lon="7.06803">
        <ele>1285.6</ele>
        <time>2019-12-30T14:32:18Z</time>
      </trkpt>
      <trkpt lat="43.80007" lon="7.06803">
        <ele>1285.6</ele>
        <time>2019-12-30T14:32:19Z</time>
      </trkpt>
      <trkpt lat="43.80007" lon="7.06803">
        <ele>1285.6</ele>
        <time>2019-12-30T14:32:20Z</time>
      </trkpt>
      <trkpt lat="43.80007" lon="7.06803">
        <ele>1285.6</ele>
        <time>2019-12-30T14:32:21Z</time>
      </trkpt>
      <trkpt lat="43.80007" lon="7.06803">
        <ele>1285.6</ele>
        <time>2019-12-30T14:32:22Z</time>
      </trkpt>
      <trkpt lat="43.80007" lon="7.06803">
        <ele>1285.6</ele>
        <time>2019-12-30T14:32:23Z</time>
      </trkpt>
      <trkpt lat="43.80007" lon="7.06803">
        <ele>1285.6</ele>
        <time>2019-12-30T14:32:24Z</time>
      </trkpt>
      <trkpt lat="43.80007" lon="7.06803">
        <ele>1285.6</ele>
        <time>2019-12-30T14:32:25Z</time>
      </trkpt>
      <trkpt lat="43.80007" lon="7.06803">
        <ele>1285.6</ele>
        <time>2019-12-30T14:32:26Z</time>
      </trkpt>
      <trkpt lat="43.80007" lon="7.06803">
        <ele>1285.6</ele>
        <time>2019-12-30T14:32:27Z</time>
      </trkpt>
      <trkpt lat="43.80007" lon="7.06803">
        <ele>1285.6</ele>
        <time>2019-12-30T14:32:28Z</time>
      </trkpt>
      <trkpt lat="43.80007" lon="7.06803">
        <ele>1285.6</ele>
        <time>2019-12-30T14:32:29Z</time>
      </trkpt>
      <trkpt lat="43.80007" lon="7.06803">
        <ele>1285.6</ele>
        <time>2019-12-30T14:32:30Z</time>
      </trkpt>
      <trkpt lat="43.80007" lon="7.06803">
        <ele>1285.6</ele>
        <time>2019-12-30T14:32:31Z</time>
      </trkpt>
      <trkpt lat="43.80007" lon="7.06803">
        <ele>1285.6</ele>
        <time>2019-12-30T14:32:32Z</time>
      </trkpt>
      <trkpt lat="43.80007" lon="7.06803">
        <ele>1285.6</ele>
        <time>2019-12-30T14:32:33Z</time>
      </trkpt>
      <trkpt lat="43.80007" lon="7.06804">
        <ele>1285.5</ele>
        <time>2019-12-30T14:32:34Z</time>
      </trkpt>
      <trkpt lat="43.80007" lon="7.06804">
        <ele>1285.5</ele>
        <time>2019-12-30T14:32:35Z</time>
      </trkpt>
      <trkpt lat="43.80008" lon="7.06805">
        <ele>1285.2</ele>
        <time>2019-12-30T14:32:36Z</time>
      </trkpt>
      <trkpt lat="43.80008" lon="7.06805">
        <ele>1285</ele>
        <time>2019-12-30T14:32:37Z</time>
      </trkpt>
      <trkpt lat="43.80008" lon="7.06806">
        <ele>1284.9</ele>
        <time>2019-12-30T14:32:38Z</time>
      </trkpt>
      <trkpt lat="43.80009" lon="7.06806">
        <ele>1284.8</ele>
        <time>2019-12-30T14:32:39Z</time>
      </trkpt>
      <trkpt lat="43.80009" lon="7.06806">
        <ele>1284.8</ele>
        <time>2019-12-30T14:32:40Z</time>
      </trkpt>
      <trkpt lat="43.80009" lon="7.06806">
        <ele>1284.7</ele>
        <time>2019-12-30T14:32:41Z</time>
      </trkpt>
      <trkpt lat="43.80009" lon="7.06806">
        <ele>1284.7</ele>
        <time>2019-12-30T14:32:42Z</time>
      </trkpt>
      <trkpt lat="43.80009" lon="7.06806">
        <ele>1284.6</ele>
        <time>2019-12-30T14:32:43Z</time>
      </trkpt>
      <trkpt lat="43.80009" lon="7.06806">
        <ele>1284.6</ele>
        <time>2019-12-30T14:32:44Z</time>
      </trkpt>
      <trkpt lat="43.80009" lon="7.06806">
        <ele>1284.6</ele>
        <time>2019-12-30T14:32:45Z</time>
      </trkpt>
      <trkpt lat="43.80009" lon="7.06806">
        <ele>1284.6</ele>
        <time>2019-12-30T14:32:46Z</time>
      </trkpt>
      <trkpt lat="43.80009" lon="7.06806">
        <ele>1284.6</ele>
        <time>2019-12-30T14:32:47Z</time>
      </trkpt>
      <trkpt lat="43.80009" lon="7.06806">
        <ele>1284.6</ele>
        <time>2019-12-30T14:32:48Z</time>
      </trkpt>
      <trkpt lat="43.80009" lon="7.06806">
        <ele>1284.6</ele>
        <time>2019-12-30T14:32:49Z</time>
      </trkpt>
      <trkpt lat="43.80009" lon="7.06806">
        <ele>1284.5</ele>
        <time>2019-12-30T14:32:50Z</time>
      </trkpt>
      <trkpt lat="43.80009" lon="7.06806">
        <ele>1284.5</ele>
        <time>2019-12-30T14:32:51Z</time>
      </trkpt>
      <trkpt lat="43.80009" lon="7.06806">
        <ele>1284.4</ele>
        <time>2019-12-30T14:32:52Z</time>
      </trkpt>
      <trkpt lat="43.80009" lon="7.06807">
        <ele>1284.3</ele>
        <time>2019-12-30T14:32:53Z</time>
      </trkpt>
      <trkpt lat="43.80009" lon="7.06807">
        <ele>1284.2</ele>
        <time>2019-12-30T14:32:54Z</time>
      </trkpt>
      <trkpt lat="43.80009" lon="7.06808">
        <ele>1284.1</ele>
        <time>2019-12-30T14:32:55Z</time>
      </trkpt>
      <trkpt lat="43.80009" lon="7.06808">
        <ele>1284.1</ele>
        <time>2019-12-30T14:32:56Z</time>
      </trkpt>
      <trkpt lat="43.80009" lon="7.06808">
        <ele>1284</ele>
        <time>2019-12-30T14:32:57Z</time>
      </trkpt>
      <trkpt lat="43.80009" lon="7.06808">
        <ele>1283.9</ele>
        <time>2019-12-30T14:32:58Z</time>
      </trkpt>
      <trkpt lat="43.8001" lon="7.06809">
        <ele>1283.7</ele>
        <time>2019-12-30T14:32:59Z</time>
      </trkpt>
      <trkpt lat="43.80011" lon="7.06811">
        <ele>1283.1</ele>
        <time>2019-12-30T14:33:00Z</time>
      </trkpt>
      <trkpt lat="43.80011" lon="7.06814">
        <ele>1282.4</ele>
        <time>2019-12-30T14:33:01Z</time>
      </trkpt>
      <trkpt lat="43.80012" lon="7.06818">
        <ele>1281.8</ele>
        <time>2019-12-30T14:33:02Z</time>
      </trkpt>
      <trkpt lat="43.80012" lon="7.06822">
        <ele>1281.1</ele>
        <time>2019-12-30T14:33:03Z</time>
      </trkpt>
      <trkpt lat="43.80013" lon="7.06827">
        <ele>1280.2</ele>
        <time>2019-12-30T14:33:04Z</time>
      </trkpt>
      <trkpt lat="43.80013" lon="7.06832">
        <ele>1279.4</ele>
        <time>2019-12-30T14:33:05Z</time>
      </trkpt>
      <trkpt lat="43.80014" lon="7.06836">
        <ele>1278.8</ele>
        <time>2019-12-30T14:33:06Z</time>
      </trkpt>
      <trkpt lat="43.80014" lon="7.06839">
        <ele>1278.3</ele>
        <time>2019-12-30T14:33:07Z</time>
      </trkpt>
      <trkpt lat="43.80015" lon="7.06842">
        <ele>1277.8</ele>
        <time>2019-12-30T14:33:08Z</time>
      </trkpt>
      <trkpt lat="43.80017" lon="7.06845">
        <ele>1277.2</ele>
        <time>2019-12-30T14:33:09Z</time>
      </trkpt>
      <trkpt lat="43.80019" lon="7.06848">
        <ele>1276.6</ele>
        <time>2019-12-30T14:33:10Z</time>
      </trkpt>
      <trkpt lat="43.80022" lon="7.06851">
        <ele>1276</ele>
        <time>2019-12-30T14:33:11Z</time>
      </trkpt>
      <trkpt lat="43.80024" lon="7.06853">
        <ele>1275.4</ele>
        <time>2019-12-30T14:33:12Z</time>
      </trkpt>
      <trkpt lat="43.80027" lon="7.06855">
        <ele>1274.8</ele>
        <time>2019-12-30T14:33:13Z</time>
      </trkpt>
      <trkpt lat="43.8003" lon="7.06857">
        <ele>1274.2</ele>
        <time>2019-12-30T14:33:14Z</time>
      </trkpt>
      <trkpt lat="43.80032" lon="7.0686">
        <ele>1273.7</ele>
        <time>2019-12-30T14:33:15Z</time>
      </trkpt>
      <trkpt lat="43.80033" lon="7.06863">
        <ele>1273.3</ele>
        <time>2019-12-30T14:33:16Z</time>
      </trkpt>
      <trkpt lat="43.80033" lon="7.06865">
        <ele>1273</ele>
        <time>2019-12-30T14:33:17Z</time>
      </trkpt>
      <trkpt lat="43.80033" lon="7.06867">
        <ele>1272.7</ele>
        <time>2019-12-30T14:33:18Z</time>
      </trkpt>
      <trkpt lat="43.80034" lon="7.06869">
        <ele>1272.4</ele>
        <time>2019-12-30T14:33:19Z</time>
      </trkpt>
      <trkpt lat="43.80034" lon="7.06872">
        <ele>1272</ele>
        <time>2019-12-30T14:33:20Z</time>
      </trkpt>
      <trkpt lat="43.80035" lon="7.06874">
        <ele>1271.7</ele>
        <time>2019-12-30T14:33:21Z</time>
      </trkpt>
      <trkpt lat="43.80036" lon="7.06877">
        <ele>1271.1</ele>
        <time>2019-12-30T14:33:22Z</time>
      </trkpt>
      <trkpt lat="43.80037" lon="7.06881">
        <ele>1270.3</ele>
        <time>2019-12-30T14:33:23Z</time>
      </trkpt>
      <trkpt lat="43.8004" lon="7.06884">
        <ele>1269.5</ele>
        <time>2019-12-30T14:33:24Z</time>
      </trkpt>
      <trkpt lat="43.80042" lon="7.06887">
        <ele>1268.7</ele>
        <time>2019-12-30T14:33:25Z</time>
      </trkpt>
      <trkpt lat="43.80044" lon="7.0689">
        <ele>1267.9</ele>
        <time>2019-12-30T14:33:26Z</time>
      </trkpt>
      <trkpt lat="43.80046" lon="7.06892">
        <ele>1267</ele>
        <time>2019-12-30T14:33:27Z</time>
      </trkpt>
      <trkpt lat="43.80048" lon="7.06895">
        <ele>1266.1</ele>
        <time>2019-12-30T14:33:28Z</time>
      </trkpt>
      <trkpt lat="43.80051" lon="7.06898">
        <ele>1265.2</ele>
        <time>2019-12-30T14:33:29Z</time>
      </trkpt>
      <trkpt lat="43.80051" lon="7.06904">
        <ele>1263.9</ele>
        <time>2019-12-30T14:33:30Z</time>
      </trkpt>
      <trkpt lat="43.80052" lon="7.0691">
        <ele>1262.6</ele>
        <time>2019-12-30T14:33:31Z</time>
      </trkpt>
      <trkpt lat="43.80053" lon="7.06915">
        <ele>1261.5</ele>
        <time>2019-12-30T14:33:32Z</time>
      </trkpt>
      <trkpt lat="43.80053" lon="7.06919">
        <ele>1260.4</ele>
        <time>2019-12-30T14:33:33Z</time>
      </trkpt>
      <trkpt lat="43.80055" lon="7.06924">
        <ele>1259.2</ele>
        <time>2019-12-30T14:33:34Z</time>
      </trkpt>
      <trkpt lat="43.80056" lon="7.06928">
        <ele>1258</ele>
        <time>2019-12-30T14:33:35Z</time>
      </trkpt>
      <trkpt lat="43.80056" lon="7.06933">
        <ele>1256.9</ele>
        <time>2019-12-30T14:33:36Z</time>
      </trkpt>
      <trkpt lat="43.80056" lon="7.06938">
        <ele>1255.7</ele>
        <time>2019-12-30T14:33:37Z</time>
      </trkpt>
      <trkpt lat="43.80056" lon="7.06944">
        <ele>1254.4</ele>
        <time>2019-12-30T14:33:38Z</time>
      </trkpt>
      <trkpt lat="43.80056" lon="7.06949">
        <ele>1253</ele>
        <time>2019-12-30T14:33:39Z</time>
      </trkpt>
      <trkpt lat="43.80056" lon="7.06955">
        <ele>1251.7</ele>
        <time>2019-12-30T14:33:40Z</time>
      </trkpt>
      <trkpt lat="43.80056" lon="7.0696">
        <ele>1250.6</ele>
        <time>2019-12-30T14:33:41Z</time>
      </trkpt>
      <trkpt lat="43.80056" lon="7.06966">
        <ele>1249.4</ele>
        <time>2019-12-30T14:33:42Z</time>
      </trkpt>
      <trkpt lat="43.80057" lon="7.06972">
        <ele>1247.8</ele>
        <time>2019-12-30T14:33:43Z</time>
      </trkpt>
      <trkpt lat="43.80059" lon="7.06977">
        <ele>1246.4</ele>
        <time>2019-12-30T14:33:44Z</time>
      </trkpt>
      <trkpt lat="43.80061" lon="7.06981">
        <ele>1245.3</ele>
        <time>2019-12-30T14:33:45Z</time>
      </trkpt>
      <trkpt lat="43.80063" lon="7.06984">
        <ele>1244</ele>
        <time>2019-12-30T14:33:46Z</time>
      </trkpt>
      <trkpt lat="43.80066" lon="7.06989">
        <ele>1242.7</ele>
        <time>2019-12-30T14:33:47Z</time>
      </trkpt>
      <trkpt lat="43.80069" lon="7.06993">
        <ele>1241.6</ele>
        <time>2019-12-30T14:33:48Z</time>
      </trkpt>
      <trkpt lat="43.80072" lon="7.06996">
        <ele>1240.4</ele>
        <time>2019-12-30T14:33:49Z</time>
      </trkpt>
      <trkpt lat="43.80072" lon="7.07003">
        <ele>1238.8</ele>
        <time>2019-12-30T14:33:50Z</time>
      </trkpt>
      <trkpt lat="43.80071" lon="7.0701">
        <ele>1237.2</ele>
        <time>2019-12-30T14:33:51Z</time>
      </trkpt>
      <trkpt lat="43.8007" lon="7.07017">
        <ele>1235.6</ele>
        <time>2019-12-30T14:33:52Z</time>
      </trkpt>
      <trkpt lat="43.80069" lon="7.07022">
        <ele>1234.4</ele>
        <time>2019-12-30T14:33:53Z</time>
      </trkpt>
      <trkpt lat="43.80069" lon="7.07027">
        <ele>1233.6</ele>
        <time>2019-12-30T14:33:54Z</time>
      </trkpt>
      <trkpt lat="43.80069" lon="7.0703">
        <ele>1232.9</ele>
        <time>2019-12-30T14:33:55Z</time>
      </trkpt>
      <trkpt lat="43.80069" lon="7.07034">
        <ele>1232.4</ele>
        <time>2019-12-30T14:33:56Z</time>
      </trkpt>
      <trkpt lat="43.80069" lon="7.07037">
        <ele>1231.8</ele>
        <time>2019-12-30T14:33:57Z</time>
      </trkpt>
      <trkpt lat="43.8007" lon="7.07039">
        <ele>1231.1</ele>
        <time>2019-12-30T14:33:58Z</time>
      </trkpt>
      <trkpt lat="43.80071" lon="7.07042">
        <ele>1230.4</ele>
        <time>2019-12-30T14:33:59Z</time>
      </trkpt>
      <trkpt lat="43.80072" lon="7.07046">
        <ele>1229.6</ele>
        <time>2019-12-30T14:34:00Z</time>
      </trkpt>
      <trkpt lat="43.80072" lon="7.07049">
        <ele>1229.1</ele>
        <time>2019-12-30T14:34:01Z</time>
      </trkpt>
      <trkpt lat="43.80072" lon="7.07053">
        <ele>1228.5</ele>
        <time>2019-12-30T14:34:02Z</time>
      </trkpt>
      <trkpt lat="43.80071" lon="7.07055">
        <ele>1228</ele>
        <time>2019-12-30T14:34:03Z</time>
      </trkpt>
      <trkpt lat="43.80071" lon="7.07058">
        <ele>1227.6</ele>
        <time>2019-12-30T14:34:04Z</time>
      </trkpt>
      <trkpt lat="43.8007" lon="7.07061">
        <ele>1227.1</ele>
        <time>2019-12-30T14:34:05Z</time>
      </trkpt>
      <trkpt lat="43.8007" lon="7.07064">
        <ele>1226.6</ele>
        <time>2019-12-30T14:34:06Z</time>
      </trkpt>
      <trkpt lat="43.8007" lon="7.07067">
        <ele>1226.3</ele>
        <time>2019-12-30T14:34:07Z</time>
      </trkpt>
      <trkpt lat="43.8007" lon="7.07068">
        <ele>1226.1</ele>
        <time>2019-12-30T14:34:08Z</time>
      </trkpt>
      <trkpt lat="43.80071" lon="7.07068">
        <ele>1226</ele>
        <time>2019-12-30T14:34:09Z</time>
      </trkpt>
      <trkpt lat="43.80071" lon="7.07068">
        <ele>1226</ele>
        <time>2019-12-30T14:34:10Z</time>
      </trkpt>
      <trkpt lat="43.80071" lon="7.07068">
        <ele>1225.9</ele>
        <time>2019-12-30T14:34:11Z</time>
      </trkpt>
      <trkpt lat="43.80071" lon="7.07069">
        <ele>1225.9</ele>
        <time>2019-12-30T14:34:12Z</time>
      </trkpt>
      <trkpt lat="43.80071" lon="7.07069">
        <ele>1225.9</ele>
        <time>2019-12-30T14:34:13Z</time>
      </trkpt>
      <trkpt lat="43.80071" lon="7.07069">
        <ele>1225.8</ele>
        <time>2019-12-30T14:34:14Z</time>
      </trkpt>
      <trkpt lat="43.80071" lon="7.07069">
        <ele>1225.8</ele>
        <time>2019-12-30T14:34:15Z</time>
      </trkpt>
      <trkpt lat="43.80071" lon="7.07069">
        <ele>1225.8</ele>
        <time>2019-12-30T14:34:16Z</time>
      </trkpt>
      <trkpt lat="43.80071" lon="7.07069">
        <ele>1225.8</ele>
        <time>2019-12-30T14:34:17Z</time>
      </trkpt>
      <trkpt lat="43.80071" lon="7.07069">
        <ele>1225.8</ele>
        <time>2019-12-30T14:34:18Z</time>
      </trkpt>
      <trkpt lat="43.80071" lon="7.07069">
        <ele>1225.8</ele>
        <time>2019-12-30T14:34:19Z</time>
      </trkpt>
      <trkpt lat="43.80071" lon="7.07069">
        <ele>1225.8</ele>
        <time>2019-12-30T14:34:20Z</time>
      </trkpt>
      <trkpt lat="43.80071" lon="7.07069">
        <ele>1225.8</ele>
        <time>2019-12-30T14:34:21Z</time>
      </trkpt>
      <trkpt lat="43.80072" lon="7.07069">
        <ele>1225.8</ele>
        <time>2019-12-30T14:34:22Z</time>
      </trkpt>
      <trkpt lat="43.80072" lon="7.07069">
        <ele>1225.8</ele>
        <time>2019-12-30T14:34:23Z</time>
      </trkpt>
      <trkpt lat="43.80072" lon="7.07069">
        <ele>1225.8</ele>
        <time>2019-12-30T14:34:24Z</time>
      </trkpt>
      <trkpt lat="43.80072" lon="7.07069">
        <ele>1225.7</ele>
        <time>2019-12-30T14:34:25Z</time>
      </trkpt>
      <trkpt lat="43.80072" lon="7.07069">
        <ele>1225.7</ele>
        <time>2019-12-30T14:34:26Z</time>
      </trkpt>
      <trkpt lat="43.80072" lon="7.0707">
        <ele>1225.6</ele>
        <time>2019-12-30T14:34:27Z</time>
      </trkpt>
      <trkpt lat="43.80072" lon="7.07071">
        <ele>1225.5</ele>
        <time>2019-12-30T14:34:28Z</time>
      </trkpt>
      <trkpt lat="43.80072" lon="7.07072">
        <ele>1225.3</ele>
        <time>2019-12-30T14:34:29Z</time>
      </trkpt>
      <trkpt lat="43.80072" lon="7.07074">
        <ele>1225</ele>
        <time>2019-12-30T14:34:30Z</time>
      </trkpt>
      <trkpt lat="43.80072" lon="7.07076">
        <ele>1224.7</ele>
        <time>2019-12-30T14:34:31Z</time>
      </trkpt>
      <trkpt lat="43.80072" lon="7.07079">
        <ele>1224.2</ele>
        <time>2019-12-30T14:34:32Z</time>
      </trkpt>
      <trkpt lat="43.80072" lon="7.07082">
        <ele>1223.8</ele>
        <time>2019-12-30T14:34:33Z</time>
      </trkpt>
      <trkpt lat="43.80072" lon="7.07085">
        <ele>1223.4</ele>
        <time>2019-12-30T14:34:34Z</time>
      </trkpt>
      <trkpt lat="43.80072" lon="7.07088">
        <ele>1223</ele>
        <time>2019-12-30T14:34:35Z</time>
      </trkpt>
      <trkpt lat="43.80072" lon="7.07091">
        <ele>1222.5</ele>
        <time>2019-12-30T14:34:36Z</time>
      </trkpt>
      <trkpt lat="43.80073" lon="7.07095">
        <ele>1222.1</ele>
        <time>2019-12-30T14:34:37Z</time>
      </trkpt>
      <trkpt lat="43.80073" lon="7.07099">
        <ele>1221.6</ele>
        <time>2019-12-30T14:34:38Z</time>
      </trkpt>
      <trkpt lat="43.80074" lon="7.07103">
        <ele>1221.1</ele>
        <time>2019-12-30T14:34:39Z</time>
      </trkpt>
      <trkpt lat="43.80074" lon="7.07106">
        <ele>1220.8</ele>
        <time>2019-12-30T14:34:40Z</time>
      </trkpt>
      <trkpt lat="43.80073" lon="7.07109">
        <ele>1220.5</ele>
        <time>2019-12-30T14:34:41Z</time>
      </trkpt>
      <trkpt lat="43.80073" lon="7.07111">
        <ele>1220.3</ele>
        <time>2019-12-30T14:34:42Z</time>
      </trkpt>
      <trkpt lat="43.80073" lon="7.07114">
        <ele>1220</ele>
        <time>2019-12-30T14:34:43Z</time>
      </trkpt>
      <trkpt lat="43.80072" lon="7.07118">
        <ele>1219.7</ele>
        <time>2019-12-30T14:34:44Z</time>
      </trkpt>
      <trkpt lat="43.80072" lon="7.07122">
        <ele>1219.3</ele>
        <time>2019-12-30T14:34:45Z</time>
      </trkpt>
      <trkpt lat="43.80073" lon="7.07126">
        <ele>1218.9</ele>
        <time>2019-12-30T14:34:46Z</time>
      </trkpt>
      <trkpt lat="43.80073" lon="7.0713">
        <ele>1218.6</ele>
        <time>2019-12-30T14:34:47Z</time>
      </trkpt>
      <trkpt lat="43.80073" lon="7.07133">
        <ele>1218.3</ele>
        <time>2019-12-30T14:34:48Z</time>
      </trkpt>
      <trkpt lat="43.80073" lon="7.07136">
        <ele>1218</ele>
        <time>2019-12-30T14:34:49Z</time>
      </trkpt>
      <trkpt lat="43.80073" lon="7.07138">
        <ele>1217.8</ele>
        <time>2019-12-30T14:34:50Z</time>
      </trkpt>
      <trkpt lat="43.80073" lon="7.07141">
        <ele>1217.6</ele>
        <time>2019-12-30T14:34:51Z</time>
      </trkpt>
      <trkpt lat="43.80072" lon="7.07145">
        <ele>1217.3</ele>
        <time>2019-12-30T14:34:52Z</time>
      </trkpt>
      <trkpt lat="43.80072" lon="7.0715">
        <ele>1216.9</ele>
        <time>2019-12-30T14:34:53Z</time>
      </trkpt>
      <trkpt lat="43.80072" lon="7.07154">
        <ele>1216.5</ele>
        <time>2019-12-30T14:34:54Z</time>
      </trkpt>
      <trkpt lat="43.80071" lon="7.07159">
        <ele>1216</ele>
        <time>2019-12-30T14:34:55Z</time>
      </trkpt>
      <trkpt lat="43.8007" lon="7.07164">
        <ele>1215.5</ele>
        <time>2019-12-30T14:34:56Z</time>
      </trkpt>
      <trkpt lat="43.8007" lon="7.0717">
        <ele>1214.9</ele>
        <time>2019-12-30T14:34:57Z</time>
      </trkpt>
      <trkpt lat="43.80071" lon="7.07176">
        <ele>1214.2</ele>
        <time>2019-12-30T14:34:58Z</time>
      </trkpt>
      <trkpt lat="43.80072" lon="7.07181">
        <ele>1213.6</ele>
        <time>2019-12-30T14:34:59Z</time>
      </trkpt>
      <trkpt lat="43.80074" lon="7.07187">
        <ele>1212.8</ele>
        <time>2019-12-30T14:35:00Z</time>
      </trkpt>
      <trkpt lat="43.80075" lon="7.07192">
        <ele>1212.1</ele>
        <time>2019-12-30T14:35:01Z</time>
      </trkpt>
      <trkpt lat="43.80075" lon="7.07197">
        <ele>1211.4</ele>
        <time>2019-12-30T14:35:02Z</time>
      </trkpt>
      <trkpt lat="43.80075" lon="7.07202">
        <ele>1210.8</ele>
        <time>2019-12-30T14:35:03Z</time>
      </trkpt>
      <trkpt lat="43.80075" lon="7.07207">
        <ele>1210.2</ele>
        <time>2019-12-30T14:35:04Z</time>
      </trkpt>
      <trkpt lat="43.80074" lon="7.07211">
        <ele>1209.7</ele>
        <time>2019-12-30T14:35:05Z</time>
      </trkpt>
      <trkpt lat="43.80074" lon="7.07215">
        <ele>1209.1</ele>
        <time>2019-12-30T14:35:06Z</time>
      </trkpt>
      <trkpt lat="43.80073" lon="7.07218">
        <ele>1208.6</ele>
        <time>2019-12-30T14:35:07Z</time>
      </trkpt>
      <trkpt lat="43.80074" lon="7.07223">
        <ele>1208</ele>
        <time>2019-12-30T14:35:08Z</time>
      </trkpt>
      <trkpt lat="43.80074" lon="7.07227">
        <ele>1207.4</ele>
        <time>2019-12-30T14:35:09Z</time>
      </trkpt>
      <trkpt lat="43.80074" lon="7.07231">
        <ele>1206.9</ele>
        <time>2019-12-30T14:35:10Z</time>
      </trkpt>
      <trkpt lat="43.80075" lon="7.07235">
        <ele>1206.4</ele>
        <time>2019-12-30T14:35:11Z</time>
      </trkpt>
      <trkpt lat="43.80076" lon="7.07238">
        <ele>1206</ele>
        <time>2019-12-30T14:35:12Z</time>
      </trkpt>
      <trkpt lat="43.80078" lon="7.0724">
        <ele>1205.5</ele>
        <time>2019-12-30T14:35:13Z</time>
      </trkpt>
      <trkpt lat="43.80079" lon="7.07243">
        <ele>1205</ele>
        <time>2019-12-30T14:35:14Z</time>
      </trkpt>
      <trkpt lat="43.80081" lon="7.07246">
        <ele>1204.4</ele>
        <time>2019-12-30T14:35:15Z</time>
      </trkpt>
      <trkpt lat="43.80082" lon="7.0725">
        <ele>1203.6</ele>
        <time>2019-12-30T14:35:16Z</time>
      </trkpt>
      <trkpt lat="43.80083" lon="7.07254">
        <ele>1202.9</ele>
        <time>2019-12-30T14:35:17Z</time>
      </trkpt>
      <trkpt lat="43.80084" lon="7.07258">
        <ele>1202.2</ele>
        <time>2019-12-30T14:35:18Z</time>
      </trkpt>
      <trkpt lat="43.80084" lon="7.07262">
        <ele>1201.6</ele>
        <time>2019-12-30T14:35:19Z</time>
      </trkpt>
      <trkpt lat="43.80084" lon="7.07265">
        <ele>1201</ele>
        <time>2019-12-30T14:35:20Z</time>
      </trkpt>
      <trkpt lat="43.80084" lon="7.07269">
        <ele>1200.6</ele>
        <time>2019-12-30T14:35:21Z</time>
      </trkpt>
      <trkpt lat="43.80083" lon="7.07273">
        <ele>1200.2</ele>
        <time>2019-12-30T14:35:22Z</time>
      </trkpt>
      <trkpt lat="43.80083" lon="7.07277">
        <ele>1199.8</ele>
        <time>2019-12-30T14:35:23Z</time>
      </trkpt>
      <trkpt lat="43.80083" lon="7.07281">
        <ele>1199.4</ele>
        <time>2019-12-30T14:35:24Z</time>
      </trkpt>
      <trkpt lat="43.80083" lon="7.07285">
        <ele>1198.9</ele>
        <time>2019-12-30T14:35:25Z</time>
      </trkpt>
      <trkpt lat="43.80085" lon="7.07292">
        <ele>1197.9</ele>
        <time>2019-12-30T14:35:26Z</time>
      </trkpt>
      <trkpt lat="43.80086" lon="7.07296">
        <ele>1197.5</ele>
        <time>2019-12-30T14:35:27Z</time>
      </trkpt>
      <trkpt lat="43.80088" lon="7.07299">
        <ele>1197</ele>
        <time>2019-12-30T14:35:28Z</time>
      </trkpt>
      <trkpt lat="43.80089" lon="7.07302">
        <ele>1196.6</ele>
        <time>2019-12-30T14:35:29Z</time>
      </trkpt>
      <trkpt lat="43.8009" lon="7.07306">
        <ele>1196</ele>
        <time>2019-12-30T14:35:30Z</time>
      </trkpt>
      <trkpt lat="43.80091" lon="7.07311">
        <ele>1195.6</ele>
        <time>2019-12-30T14:35:31Z</time>
      </trkpt>
      <trkpt lat="43.80092" lon="7.07315">
        <ele>1195.2</ele>
        <time>2019-12-30T14:35:32Z</time>
      </trkpt>
      <trkpt lat="43.80093" lon="7.07318">
        <ele>1194.8</ele>
        <time>2019-12-30T14:35:33Z</time>
      </trkpt>
      <trkpt lat="43.80094" lon="7.07321">
        <ele>1194.5</ele>
        <time>2019-12-30T14:35:34Z</time>
      </trkpt>
      <trkpt lat="43.80095" lon="7.07324">
        <ele>1194.2</ele>
        <time>2019-12-30T14:35:35Z</time>
      </trkpt>
      <trkpt lat="43.80096" lon="7.07326">
        <ele>1194</ele>
        <time>2019-12-30T14:35:36Z</time>
      </trkpt>
      <trkpt lat="43.80096" lon="7.07328">
        <ele>1193.8</ele>
        <time>2019-12-30T14:35:37Z</time>
      </trkpt>
      <trkpt lat="43.80096" lon="7.07331">
        <ele>1193.6</ele>
        <time>2019-12-30T14:35:38Z</time>
      </trkpt>
      <trkpt lat="43.80097" lon="7.07333">
        <ele>1193.4</ele>
        <time>2019-12-30T14:35:39Z</time>
      </trkpt>
      <trkpt lat="43.80097" lon="7.07337">
        <ele>1193</ele>
        <time>2019-12-30T14:35:40Z</time>
      </trkpt>
      <trkpt lat="43.80097" lon="7.07338">
        <ele>1192.9</ele>
        <time>2019-12-30T14:35:41Z</time>
      </trkpt>
      <trkpt lat="43.80097" lon="7.07339">
        <ele>1192.8</ele>
        <time>2019-12-30T14:35:42Z</time>
      </trkpt>
      <trkpt lat="43.80096" lon="7.07341">
        <ele>1192.7</ele>
        <time>2019-12-30T14:35:43Z</time>
      </trkpt>
      <trkpt lat="43.80096" lon="7.07341">
        <ele>1192.6</ele>
        <time>2019-12-30T14:35:44Z</time>
      </trkpt>
      <trkpt lat="43.80096" lon="7.07341">
        <ele>1192.6</ele>
        <time>2019-12-30T14:35:45Z</time>
      </trkpt>
      <trkpt lat="43.80096" lon="7.07342">
        <ele>1192.6</ele>
        <time>2019-12-30T14:35:46Z</time>
      </trkpt>
      <trkpt lat="43.80096" lon="7.07342">
        <ele>1192.6</ele>
        <time>2019-12-30T14:35:47Z</time>
      </trkpt>
      <trkpt lat="43.80096" lon="7.07342">
        <ele>1192.5</ele>
        <time>2019-12-30T14:35:48Z</time>
      </trkpt>
      <trkpt lat="43.80096" lon="7.07343">
        <ele>1192.5</ele>
        <time>2019-12-30T14:35:49Z</time>
      </trkpt>
      <trkpt lat="43.80096" lon="7.07343">
        <ele>1192.5</ele>
        <time>2019-12-30T14:35:50Z</time>
      </trkpt>
      <trkpt lat="43.80096" lon="7.07344">
        <ele>1192.4</ele>
        <time>2019-12-30T14:35:51Z</time>
      </trkpt>
      <trkpt lat="43.80096" lon="7.07347">
        <ele>1192.1</ele>
        <time>2019-12-30T14:35:52Z</time>
      </trkpt>
      <trkpt lat="43.80096" lon="7.0735">
        <ele>1191.8</ele>
        <time>2019-12-30T14:35:53Z</time>
      </trkpt>
      <trkpt lat="43.80096" lon="7.07353">
        <ele>1191.5</ele>
        <time>2019-12-30T14:35:54Z</time>
      </trkpt>
      <trkpt lat="43.80097" lon="7.07356">
        <ele>1191.3</ele>
        <time>2019-12-30T14:35:55Z</time>
      </trkpt>
      <trkpt lat="43.80097" lon="7.07359">
        <ele>1190.9</ele>
        <time>2019-12-30T14:35:56Z</time>
      </trkpt>
      <trkpt lat="43.80097" lon="7.07363">
        <ele>1190.6</ele>
        <time>2019-12-30T14:35:57Z</time>
      </trkpt>
      <trkpt lat="43.80097" lon="7.07367">
        <ele>1190.3</ele>
        <time>2019-12-30T14:35:58Z</time>
      </trkpt>
      <trkpt lat="43.80097" lon="7.07371">
        <ele>1190</ele>
        <time>2019-12-30T14:35:59Z</time>
      </trkpt>
      <trkpt lat="43.80097" lon="7.07375">
        <ele>1189.8</ele>
        <time>2019-12-30T14:36:00Z</time>
      </trkpt>
      <trkpt lat="43.80097" lon="7.07378">
        <ele>1189.5</ele>
        <time>2019-12-30T14:36:01Z</time>
      </trkpt>
      <trkpt lat="43.80097" lon="7.07382">
        <ele>1189.2</ele>
        <time>2019-12-30T14:36:02Z</time>
      </trkpt>
      <trkpt lat="43.80097" lon="7.07386">
        <ele>1188.9</ele>
        <time>2019-12-30T14:36:03Z</time>
      </trkpt>
      <trkpt lat="43.80097" lon="7.07389">
        <ele>1188.6</ele>
        <time>2019-12-30T14:36:04Z</time>
      </trkpt>
      <trkpt lat="43.80097" lon="7.07391">
        <ele>1188.3</ele>
        <time>2019-12-30T14:36:05Z</time>
      </trkpt>
      <trkpt lat="43.80098" lon="7.07393">
        <ele>1188.1</ele>
        <time>2019-12-30T14:36:06Z</time>
      </trkpt>
      <trkpt lat="43.80098" lon="7.07395">
        <ele>1187.9</ele>
        <time>2019-12-30T14:36:07Z</time>
      </trkpt>
      <trkpt lat="43.80098" lon="7.07396">
        <ele>1187.8</ele>
        <time>2019-12-30T14:36:08Z</time>
      </trkpt>
      <trkpt lat="43.80098" lon="7.07397">
        <ele>1187.7</ele>
        <time>2019-12-30T14:36:09Z</time>
      </trkpt>
      <trkpt lat="43.80099" lon="7.07398">
        <ele>1187.7</ele>
        <time>2019-12-30T14:36:10Z</time>
      </trkpt>
      <trkpt lat="43.80099" lon="7.07398">
        <ele>1187.6</ele>
        <time>2019-12-30T14:36:11Z</time>
      </trkpt>
      <trkpt lat="43.80099" lon="7.07398">
        <ele>1187.6</ele>
        <time>2019-12-30T14:36:12Z</time>
      </trkpt>
      <trkpt lat="43.80099" lon="7.07398">
        <ele>1187.6</ele>
        <time>2019-12-30T14:36:13Z</time>
      </trkpt>
      <trkpt lat="43.80099" lon="7.07398">
        <ele>1187.6</ele>
        <time>2019-12-30T14:36:14Z</time>
      </trkpt>
      <trkpt lat="43.80099" lon="7.07399">
        <ele>1187.6</ele>
        <time>2019-12-30T14:36:15Z</time>
      </trkpt>
      <trkpt lat="43.80099" lon="7.07399">
        <ele>1187.5</ele>
        <time>2019-12-30T14:36:16Z</time>
      </trkpt>
      <trkpt lat="43.80099" lon="7.07399">
        <ele>1187.5</ele>
        <time>2019-12-30T14:36:17Z</time>
      </trkpt>
      <trkpt lat="43.80099" lon="7.074">
        <ele>1187.4</ele>
        <time>2019-12-30T14:36:18Z</time>
      </trkpt>
      <trkpt lat="43.80099" lon="7.07402">
        <ele>1187.3</ele>
        <time>2019-12-30T14:36:19Z</time>
      </trkpt>
      <trkpt lat="43.80099" lon="7.07403">
        <ele>1187.2</ele>
        <time>2019-12-30T14:36:20Z</time>
      </trkpt>
      <trkpt lat="43.80099" lon="7.07406">
        <ele>1187</ele>
        <time>2019-12-30T14:36:21Z</time>
      </trkpt>
      <trkpt lat="43.80099" lon="7.07409">
        <ele>1186.8</ele>
        <time>2019-12-30T14:36:22Z</time>
      </trkpt>
      <trkpt lat="43.801" lon="7.07412">
        <ele>1186.6</ele>
        <time>2019-12-30T14:36:23Z</time>
      </trkpt>
      <trkpt lat="43.801" lon="7.07415">
        <ele>1186.3</ele>
        <time>2019-12-30T14:36:24Z</time>
      </trkpt>
      <trkpt lat="43.80101" lon="7.07418">
        <ele>1186.1</ele>
        <time>2019-12-30T14:36:25Z</time>
      </trkpt>
      <trkpt lat="43.80101" lon="7.07421">
        <ele>1185.8</ele>
        <time>2019-12-30T14:36:26Z</time>
      </trkpt>
      <trkpt lat="43.80102" lon="7.07424">
        <ele>1185.5</ele>
        <time>2019-12-30T14:36:27Z</time>
      </trkpt>
      <trkpt lat="43.80102" lon="7.07427">
        <ele>1185.3</ele>
        <time>2019-12-30T14:36:28Z</time>
      </trkpt>
      <trkpt lat="43.80103" lon="7.0743">
        <ele>1185</ele>
        <time>2019-12-30T14:36:29Z</time>
      </trkpt>
      <trkpt lat="43.80104" lon="7.07434">
        <ele>1184.5</ele>
        <time>2019-12-30T14:36:30Z</time>
      </trkpt>
      <trkpt lat="43.80105" lon="7.07435">
        <ele>1184.4</ele>
        <time>2019-12-30T14:36:31Z</time>
      </trkpt>
      <trkpt lat="43.80105" lon="7.07436">
        <ele>1184.3</ele>
        <time>2019-12-30T14:36:32Z</time>
      </trkpt>
      <trkpt lat="43.80105" lon="7.07437">
        <ele>1184.2</ele>
        <time>2019-12-30T14:36:33Z</time>
      </trkpt>
      <trkpt lat="43.80105" lon="7.07438">
        <ele>1184</ele>
        <time>2019-12-30T14:36:34Z</time>
      </trkpt>
      <trkpt lat="43.80105" lon="7.07439">
        <ele>1183.9</ele>
        <time>2019-12-30T14:36:35Z</time>
      </trkpt>
      <trkpt lat="43.80105" lon="7.0744">
        <ele>1183.8</ele>
        <time>2019-12-30T14:36:36Z</time>
      </trkpt>
      <trkpt lat="43.80105" lon="7.07441">
        <ele>1183.7</ele>
        <time>2019-12-30T14:36:37Z</time>
      </trkpt>
      <trkpt lat="43.80105" lon="7.07443">
        <ele>1183.5</ele>
        <time>2019-12-30T14:36:38Z</time>
      </trkpt>
      <trkpt lat="43.80105" lon="7.07442">
        <ele>1183.5</ele>
        <time>2019-12-30T14:36:39Z</time>
      </trkpt>
      <trkpt lat="43.80105" lon="7.07442">
        <ele>1183.5</ele>
        <time>2019-12-30T14:36:40Z</time>
      </trkpt>
      <trkpt lat="43.80105" lon="7.07443">
        <ele>1183.5</ele>
        <time>2019-12-30T14:36:41Z</time>
      </trkpt>
      <trkpt lat="43.80105" lon="7.07443">
        <ele>1183.5</ele>
        <time>2019-12-30T14:36:42Z</time>
      </trkpt>
      <trkpt lat="43.80105" lon="7.07443">
        <ele>1183.5</ele>
        <time>2019-12-30T14:36:43Z</time>
      </trkpt>
      <trkpt lat="43.80105" lon="7.07442">
        <ele>1183.5</ele>
        <time>2019-12-30T14:36:44Z</time>
      </trkpt>
      <trkpt lat="43.80105" lon="7.07442">
        <ele>1183.5</ele>
        <time>2019-12-30T14:36:45Z</time>
      </trkpt>
      <trkpt lat="43.80104" lon="7.07445">
        <ele>1183.1</ele>
        <time>2019-12-30T14:36:46Z</time>
      </trkpt>
      <trkpt lat="43.80104" lon="7.07448">
        <ele>1182.8</ele>
        <time>2019-12-30T14:36:47Z</time>
      </trkpt>
      <trkpt lat="43.80103" lon="7.0745">
        <ele>1182.5</ele>
        <time>2019-12-30T14:36:48Z</time>
      </trkpt>
      <trkpt lat="43.80102" lon="7.07453">
        <ele>1182.1</ele>
        <time>2019-12-30T14:36:49Z</time>
      </trkpt>
      <trkpt lat="43.80102" lon="7.07456">
        <ele>1181.7</ele>
        <time>2019-12-30T14:36:50Z</time>
      </trkpt>
      <trkpt lat="43.80102" lon="7.07459">
        <ele>1181.3</ele>
        <time>2019-12-30T14:36:51Z</time>
      </trkpt>
      <trkpt lat="43.80102" lon="7.07462">
        <ele>1180.9</ele>
        <time>2019-12-30T14:36:52Z</time>
      </trkpt>
      <trkpt lat="43.80102" lon="7.07465">
        <ele>1180.5</ele>
        <time>2019-12-30T14:36:53Z</time>
      </trkpt>
      <trkpt lat="43.80103" lon="7.07469">
        <ele>1180</ele>
        <time>2019-12-30T14:36:54Z</time>
      </trkpt>
      <trkpt lat="43.80104" lon="7.07473">
        <ele>1179.4</ele>
        <time>2019-12-30T14:36:55Z</time>
      </trkpt>
      <trkpt lat="43.80105" lon="7.07477">
        <ele>1178.7</ele>
        <time>2019-12-30T14:36:56Z</time>
      </trkpt>
      <trkpt lat="43.80106" lon="7.07478">
        <ele>1178.6</ele>
        <time>2019-12-30T14:36:57Z</time>
      </trkpt>
      <trkpt lat="43.80106" lon="7.07478">
        <ele>1178.4</ele>
        <time>2019-12-30T14:36:58Z</time>
      </trkpt>
      <trkpt lat="43.80106" lon="7.07479">
        <ele>1178.3</ele>
        <time>2019-12-30T14:36:59Z</time>
      </trkpt>
      <trkpt lat="43.80106" lon="7.0748">
        <ele>1178.1</ele>
        <time>2019-12-30T14:37:00Z</time>
      </trkpt>
      <trkpt lat="43.80107" lon="7.07481">
        <ele>1178</ele>
        <time>2019-12-30T14:37:01Z</time>
      </trkpt>
      <trkpt lat="43.80107" lon="7.07482">
        <ele>1177.8</ele>
        <time>2019-12-30T14:37:02Z</time>
      </trkpt>
      <trkpt lat="43.80107" lon="7.07483">
        <ele>1177.7</ele>
        <time>2019-12-30T14:37:03Z</time>
      </trkpt>
      <trkpt lat="43.80107" lon="7.07483">
        <ele>1177.6</ele>
        <time>2019-12-30T14:37:04Z</time>
      </trkpt>
      <trkpt lat="43.80107" lon="7.07484">
        <ele>1177.5</ele>
        <time>2019-12-30T14:37:05Z</time>
      </trkpt>
      <trkpt lat="43.80107" lon="7.07484">
        <ele>1177.4</ele>
        <time>2019-12-30T14:37:06Z</time>
      </trkpt>
      <trkpt lat="43.80107" lon="7.07484">
        <ele>1177.4</ele>
        <time>2019-12-30T14:37:07Z</time>
      </trkpt>
      <trkpt lat="43.80107" lon="7.07484">
        <ele>1177.4</ele>
        <time>2019-12-30T14:37:08Z</time>
      </trkpt>
      <trkpt lat="43.80107" lon="7.07484">
        <ele>1177.4</ele>
        <time>2019-12-30T14:37:09Z</time>
      </trkpt>
      <trkpt lat="43.80107" lon="7.07484">
        <ele>1177.4</ele>
        <time>2019-12-30T14:37:10Z</time>
      </trkpt>
      <trkpt lat="43.80107" lon="7.07484">
        <ele>1177.4</ele>
        <time>2019-12-30T14:37:11Z</time>
      </trkpt>
      <trkpt lat="43.80107" lon="7.07484">
        <ele>1177.4</ele>
        <time>2019-12-30T14:37:12Z</time>
      </trkpt>
      <trkpt lat="43.80107" lon="7.07484">
        <ele>1177.4</ele>
        <time>2019-12-30T14:37:13Z</time>
      </trkpt>
      <trkpt lat="43.80107" lon="7.07484">
        <ele>1177.4</ele>
        <time>2019-12-30T14:37:14Z</time>
      </trkpt>
      <trkpt lat="43.80107" lon="7.07484">
        <ele>1177.4</ele>
        <time>2019-12-30T14:37:15Z</time>
      </trkpt>
      <trkpt lat="43.80106" lon="7.07484">
        <ele>1177.3</ele>
        <time>2019-12-30T14:37:16Z</time>
      </trkpt>
      <trkpt lat="43.80106" lon="7.07484">
        <ele>1177.3</ele>
        <time>2019-12-30T14:37:17Z</time>
      </trkpt>
      <trkpt lat="43.80105" lon="7.07485">
        <ele>1177.1</ele>
        <time>2019-12-30T14:37:18Z</time>
      </trkpt>
      <trkpt lat="43.80105" lon="7.07486">
        <ele>1176.8</ele>
        <time>2019-12-30T14:37:19Z</time>
      </trkpt>
      <trkpt lat="43.80105" lon="7.07489">
        <ele>1176.4</ele>
        <time>2019-12-30T14:37:20Z</time>
      </trkpt>
      <trkpt lat="43.80107" lon="7.07492">
        <ele>1175.9</ele>
        <time>2019-12-30T14:37:21Z</time>
      </trkpt>
      <trkpt lat="43.80108" lon="7.07494">
        <ele>1175.6</ele>
        <time>2019-12-30T14:37:22Z</time>
      </trkpt>
      <trkpt lat="43.80109" lon="7.07496">
        <ele>1175.3</ele>
        <time>2019-12-30T14:37:23Z</time>
      </trkpt>
      <trkpt lat="43.80109" lon="7.07497">
        <ele>1175.1</ele>
        <time>2019-12-30T14:37:24Z</time>
      </trkpt>
      <trkpt lat="43.8011" lon="7.07497">
        <ele>1175</ele>
        <time>2019-12-30T14:37:25Z</time>
      </trkpt>
      <trkpt lat="43.8011" lon="7.07497">
        <ele>1174.9</ele>
        <time>2019-12-30T14:37:26Z</time>
      </trkpt>
      <trkpt lat="43.8011" lon="7.07496">
        <ele>1174.8</ele>
        <time>2019-12-30T14:37:27Z</time>
      </trkpt>
      <trkpt lat="43.80111" lon="7.07496">
        <ele>1174.7</ele>
        <time>2019-12-30T14:37:28Z</time>
      </trkpt>
      <trkpt lat="43.80111" lon="7.07495">
        <ele>1174.6</ele>
        <time>2019-12-30T14:37:29Z</time>
      </trkpt>
      <trkpt lat="43.80111" lon="7.07495">
        <ele>1174.6</ele>
        <time>2019-12-30T14:37:30Z</time>
      </trkpt>
      <trkpt lat="43.80111" lon="7.07495">
        <ele>1174.6</ele>
        <time>2019-12-30T14:37:31Z</time>
      </trkpt>
      <trkpt lat="43.80111" lon="7.07495">
        <ele>1174.6</ele>
        <time>2019-12-30T14:37:32Z</time>
      </trkpt>
      <trkpt lat="43.80111" lon="7.07495">
        <ele>1174.6</ele>
        <time>2019-12-30T14:37:33Z</time>
      </trkpt>
      <trkpt lat="43.80111" lon="7.07495">
        <ele>1174.6</ele>
        <time>2019-12-30T14:37:34Z</time>
      </trkpt>
      <trkpt lat="43.80111" lon="7.07495">
        <ele>1174.5</ele>
        <time>2019-12-30T14:37:35Z</time>
      </trkpt>
      <trkpt lat="43.80111" lon="7.07495">
        <ele>1174.5</ele>
        <time>2019-12-30T14:37:36Z</time>
      </trkpt>
      <trkpt lat="43.8011" lon="7.07495">
        <ele>1174.5</ele>
        <time>2019-12-30T14:37:37Z</time>
      </trkpt>
      <trkpt lat="43.8011" lon="7.07495">
        <ele>1174.5</ele>
        <time>2019-12-30T14:37:38Z</time>
      </trkpt>
      <trkpt lat="43.8011" lon="7.07495">
        <ele>1174.4</ele>
        <time>2019-12-30T14:37:39Z</time>
      </trkpt>
      <trkpt lat="43.8011" lon="7.07495">
        <ele>1174.4</ele>
        <time>2019-12-30T14:37:40Z</time>
      </trkpt>
      <trkpt lat="43.80109" lon="7.07495">
        <ele>1174.3</ele>
        <time>2019-12-30T14:37:41Z</time>
      </trkpt>
      <trkpt lat="43.80109" lon="7.07495">
        <ele>1174.2</ele>
        <time>2019-12-30T14:37:42Z</time>
      </trkpt>
      <trkpt lat="43.80109" lon="7.07495">
        <ele>1174.1</ele>
        <time>2019-12-30T14:37:43Z</time>
      </trkpt>
      <trkpt lat="43.80108" lon="7.07496">
        <ele>1174</ele>
        <time>2019-12-30T14:37:44Z</time>
      </trkpt>
      <trkpt lat="43.80108" lon="7.07496">
        <ele>1173.9</ele>
        <time>2019-12-30T14:37:45Z</time>
      </trkpt>
      <trkpt lat="43.80107" lon="7.07495">
        <ele>1173.7</ele>
        <time>2019-12-30T14:37:46Z</time>
      </trkpt>
      <trkpt lat="43.80107" lon="7.07496">
        <ele>1173.5</ele>
        <time>2019-12-30T14:37:47Z</time>
      </trkpt>
      <trkpt lat="43.80107" lon="7.07498">
        <ele>1173.3</ele>
        <time>2019-12-30T14:37:48Z</time>
      </trkpt>
      <trkpt lat="43.80107" lon="7.07499">
        <ele>1173</ele>
        <time>2019-12-30T14:37:49Z</time>
      </trkpt>
      <trkpt lat="43.80108" lon="7.07501">
        <ele>1172.7</ele>
        <time>2019-12-30T14:37:50Z</time>
      </trkpt>
      <trkpt lat="43.8011" lon="7.07502">
        <ele>1172.3</ele>
        <time>2019-12-30T14:37:51Z</time>
      </trkpt>
      <trkpt lat="43.80111" lon="7.07504">
        <ele>1172.1</ele>
        <time>2019-12-30T14:37:52Z</time>
      </trkpt>
      <trkpt lat="43.80112" lon="7.07505">
        <ele>1171.9</ele>
        <time>2019-12-30T14:37:53Z</time>
      </trkpt>
      <trkpt lat="43.80112" lon="7.07505">
        <ele>1171.7</ele>
        <time>2019-12-30T14:37:54Z</time>
      </trkpt>
      <trkpt lat="43.80112" lon="7.07508">
        <ele>1171.4</ele>
        <time>2019-12-30T14:37:55Z</time>
      </trkpt>
      <trkpt lat="43.80113" lon="7.07513">
        <ele>1170.8</ele>
        <time>2019-12-30T14:37:56Z</time>
      </trkpt>
      <trkpt lat="43.80115" lon="7.07518">
        <ele>1170.2</ele>
        <time>2019-12-30T14:37:57Z</time>
      </trkpt>
      <trkpt lat="43.80115" lon="7.07522">
        <ele>1169.6</ele>
        <time>2019-12-30T14:37:58Z</time>
      </trkpt>
      <trkpt lat="43.80117" lon="7.07527">
        <ele>1169.2</ele>
        <time>2019-12-30T14:37:59Z</time>
      </trkpt>
      <trkpt lat="43.80118" lon="7.07532">
        <ele>1168.7</ele>
        <time>2019-12-30T14:38:00Z</time>
      </trkpt>
      <trkpt lat="43.8012" lon="7.07538">
        <ele>1168.1</ele>
        <time>2019-12-30T14:38:01Z</time>
      </trkpt>
      <trkpt lat="43.80121" lon="7.07544">
        <ele>1167.3</ele>
        <time>2019-12-30T14:38:02Z</time>
      </trkpt>
      <trkpt lat="43.80121" lon="7.0755">
        <ele>1166.5</ele>
        <time>2019-12-30T14:38:03Z</time>
      </trkpt>
      <trkpt lat="43.80122" lon="7.07554">
        <ele>1165.8</ele>
        <time>2019-12-30T14:38:04Z</time>
      </trkpt>
      <trkpt lat="43.80122" lon="7.07558">
        <ele>1165.3</ele>
        <time>2019-12-30T14:38:05Z</time>
      </trkpt>
      <trkpt lat="43.80122" lon="7.07561">
        <ele>1164.7</ele>
        <time>2019-12-30T14:38:06Z</time>
      </trkpt>
      <trkpt lat="43.80121" lon="7.07565">
        <ele>1163.9</ele>
        <time>2019-12-30T14:38:07Z</time>
      </trkpt>
      <trkpt lat="43.8012" lon="7.07571">
        <ele>1162.9</ele>
        <time>2019-12-30T14:38:08Z</time>
      </trkpt>
      <trkpt lat="43.8012" lon="7.07572">
        <ele>1162.8</ele>
        <time>2019-12-30T14:38:09Z</time>
      </trkpt>
      <trkpt lat="43.8012" lon="7.07573">
        <ele>1162.6</ele>
        <time>2019-12-30T14:38:10Z</time>
      </trkpt>
      <trkpt lat="43.8012" lon="7.07574">
        <ele>1162.5</ele>
        <time>2019-12-30T14:38:11Z</time>
      </trkpt>
      <trkpt lat="43.80119" lon="7.07575">
        <ele>1162.3</ele>
        <time>2019-12-30T14:38:12Z</time>
      </trkpt>
      <trkpt lat="43.80119" lon="7.07576">
        <ele>1162.1</ele>
        <time>2019-12-30T14:38:13Z</time>
      </trkpt>
      <trkpt lat="43.80119" lon="7.07577">
        <ele>1162</ele>
        <time>2019-12-30T14:38:14Z</time>
      </trkpt>
      <trkpt lat="43.80118" lon="7.07578">
        <ele>1161.8</ele>
        <time>2019-12-30T14:38:15Z</time>
      </trkpt>
      <trkpt lat="43.80118" lon="7.0758">
        <ele>1161.6</ele>
        <time>2019-12-30T14:38:16Z</time>
      </trkpt>
      <trkpt lat="43.80118" lon="7.07581">
        <ele>1161.4</ele>
        <time>2019-12-30T14:38:17Z</time>
      </trkpt>
      <trkpt lat="43.80117" lon="7.07583">
        <ele>1161.1</ele>
        <time>2019-12-30T14:38:18Z</time>
      </trkpt>
      <trkpt lat="43.80117" lon="7.07585">
        <ele>1160.9</ele>
        <time>2019-12-30T14:38:19Z</time>
      </trkpt>
      <trkpt lat="43.80117" lon="7.07586">
        <ele>1160.7</ele>
        <time>2019-12-30T14:38:20Z</time>
      </trkpt>
      <trkpt lat="43.80116" lon="7.07587">
        <ele>1160.5</ele>
        <time>2019-12-30T14:38:21Z</time>
      </trkpt>
      <trkpt lat="43.80116" lon="7.07588">
        <ele>1160.4</ele>
        <time>2019-12-30T14:38:22Z</time>
      </trkpt>
      <trkpt lat="43.80116" lon="7.07589">
        <ele>1160.2</ele>
        <time>2019-12-30T14:38:23Z</time>
      </trkpt>
      <trkpt lat="43.80116" lon="7.07589">
        <ele>1160.1</ele>
        <time>2019-12-30T14:38:24Z</time>
      </trkpt>
      <trkpt lat="43.80116" lon="7.0759">
        <ele>1160.1</ele>
        <time>2019-12-30T14:38:25Z</time>
      </trkpt>
      <trkpt lat="43.80116" lon="7.0759">
        <ele>1160.1</ele>
        <time>2019-12-30T14:38:26Z</time>
      </trkpt>
      <trkpt lat="43.80116" lon="7.0759">
        <ele>1160</ele>
        <time>2019-12-30T14:38:27Z</time>
      </trkpt>
      <trkpt lat="43.80116" lon="7.0759">
        <ele>1160</ele>
        <time>2019-12-30T14:38:28Z</time>
      </trkpt>
      <trkpt lat="43.80116" lon="7.0759">
        <ele>1160</ele>
        <time>2019-12-30T14:38:29Z</time>
      </trkpt>
      <trkpt lat="43.80116" lon="7.0759">
        <ele>1160</ele>
        <time>2019-12-30T14:38:30Z</time>
      </trkpt>
      <trkpt lat="43.80116" lon="7.0759">
        <ele>1160</ele>
        <time>2019-12-30T14:38:31Z</time>
      </trkpt>
      <trkpt lat="43.80116" lon="7.0759">
        <ele>1160</ele>
        <time>2019-12-30T14:38:32Z</time>
      </trkpt>
      <trkpt lat="43.80116" lon="7.0759">
        <ele>1160</ele>
        <time>2019-12-30T14:38:33Z</time>
      </trkpt>
      <trkpt lat="43.80116" lon="7.0759">
        <ele>1160</ele>
        <time>2019-12-30T14:38:34Z</time>
      </trkpt>
      <trkpt lat="43.80116" lon="7.0759">
        <ele>1160.1</ele>
        <time>2019-12-30T14:38:35Z</time>
      </trkpt>
      <trkpt lat="43.80116" lon="7.0759">
        <ele>1160.1</ele>
        <time>2019-12-30T14:38:36Z</time>
      </trkpt>
      <trkpt lat="43.80116" lon="7.0759">
        <ele>1160.1</ele>
        <time>2019-12-30T14:38:37Z</time>
      </trkpt>
      <trkpt lat="43.80116" lon="7.0759">
        <ele>1160.1</ele>
        <time>2019-12-30T14:38:38Z</time>
      </trkpt>
      <trkpt lat="43.80116" lon="7.0759">
        <ele>1160.1</ele>
        <time>2019-12-30T14:38:39Z</time>
      </trkpt>
      <trkpt lat="43.80116" lon="7.0759">
        <ele>1160.1</ele>
        <time>2019-12-30T14:38:40Z</time>
      </trkpt>
      <trkpt lat="43.80116" lon="7.0759">
        <ele>1160.1</ele>
        <time>2019-12-30T14:38:41Z</time>
      </trkpt>
      <trkpt lat="43.80116" lon="7.0759">
        <ele>1160.1</ele>
        <time>2019-12-30T14:38:42Z</time>
      </trkpt>
      <trkpt lat="43.80116" lon="7.0759">
        <ele>1160.1</ele>
        <time>2019-12-30T14:38:43Z</time>
      </trkpt>
      <trkpt lat="43.80116" lon="7.0759">
        <ele>1160.1</ele>
        <time>2019-12-30T14:38:44Z</time>
      </trkpt>
      <trkpt lat="43.80116" lon="7.0759">
        <ele>1160</ele>
        <time>2019-12-30T14:38:45Z</time>
      </trkpt>
      <trkpt lat="43.80116" lon="7.0759">
        <ele>1160</ele>
        <time>2019-12-30T14:38:46Z</time>
      </trkpt>
      <trkpt lat="43.80116" lon="7.0759">
        <ele>1160</ele>
        <time>2019-12-30T14:38:47Z</time>
      </trkpt>
      <trkpt lat="43.80116" lon="7.0759">
        <ele>1160</ele>
        <time>2019-12-30T14:38:48Z</time>
      </trkpt>
      <trkpt lat="43.80117" lon="7.0759">
        <ele>1159.9</ele>
        <time>2019-12-30T14:38:49Z</time>
      </trkpt>
      <trkpt lat="43.80117" lon="7.07589">
        <ele>1159.8</ele>
        <time>2019-12-30T14:38:50Z</time>
      </trkpt>
      <trkpt lat="43.80118" lon="7.07589">
        <ele>1159.7</ele>
        <time>2019-12-30T14:38:51Z</time>
      </trkpt>
      <trkpt lat="43.80118" lon="7.07589">
        <ele>1159.6</ele>
        <time>2019-12-30T14:38:52Z</time>
      </trkpt>
      <trkpt lat="43.80118" lon="7.07589">
        <ele>1159.6</ele>
        <time>2019-12-30T14:38:53Z</time>
      </trkpt>
      <trkpt lat="43.80118" lon="7.07589">
        <ele>1159.6</ele>
        <time>2019-12-30T14:38:54Z</time>
      </trkpt>
      <trkpt lat="43.80118" lon="7.07589">
        <ele>1159.6</ele>
        <time>2019-12-30T14:38:55Z</time>
      </trkpt>
      <trkpt lat="43.80118" lon="7.07589">
        <ele>1159.6</ele>
        <time>2019-12-30T14:38:56Z</time>
      </trkpt>
      <trkpt lat="43.80118" lon="7.07589">
        <ele>1159.6</ele>
        <time>2019-12-30T14:38:57Z</time>
      </trkpt>
      <trkpt lat="43.80118" lon="7.07589">
        <ele>1159.6</ele>
        <time>2019-12-30T14:38:58Z</time>
      </trkpt>
      <trkpt lat="43.80118" lon="7.07589">
        <ele>1159.6</ele>
        <time>2019-12-30T14:38:59Z</time>
      </trkpt>
      <trkpt lat="43.80118" lon="7.07589">
        <ele>1159.7</ele>
        <time>2019-12-30T14:39:00Z</time>
      </trkpt>
      <trkpt lat="43.80118" lon="7.07589">
        <ele>1159.7</ele>
        <time>2019-12-30T14:39:01Z</time>
      </trkpt>
      <trkpt lat="43.80118" lon="7.07589">
        <ele>1159.7</ele>
        <time>2019-12-30T14:39:02Z</time>
      </trkpt>
      <trkpt lat="43.80118" lon="7.07589">
        <ele>1159.7</ele>
        <time>2019-12-30T14:39:03Z</time>
      </trkpt>
      <trkpt lat="43.80118" lon="7.07589">
        <ele>1159.7</ele>
        <time>2019-12-30T14:39:04Z</time>
      </trkpt>
      <trkpt lat="43.80118" lon="7.07589">
        <ele>1159.7</ele>
        <time>2019-12-30T14:39:05Z</time>
      </trkpt>
      <trkpt lat="43.80118" lon="7.07589">
        <ele>1159.7</ele>
        <time>2019-12-30T14:39:06Z</time>
      </trkpt>
      <trkpt lat="43.80118" lon="7.07589">
        <ele>1159.7</ele>
        <time>2019-12-30T14:39:07Z</time>
      </trkpt>
      <trkpt lat="43.80118" lon="7.07589">
        <ele>1159.7</ele>
        <time>2019-12-30T14:39:08Z</time>
      </trkpt>
      <trkpt lat="43.80118" lon="7.07589">
        <ele>1159.7</ele>
        <time>2019-12-30T14:39:09Z</time>
      </trkpt>
      <trkpt lat="43.80118" lon="7.07589">
        <ele>1159.7</ele>
        <time>2019-12-30T14:39:10Z</time>
      </trkpt>
      <trkpt lat="43.80118" lon="7.07589">
        <ele>1159.7</ele>
        <time>2019-12-30T14:39:11Z</time>
      </trkpt>
      <trkpt lat="43.80118" lon="7.07589">
        <ele>1159.7</ele>
        <time>2019-12-30T14:39:12Z</time>
      </trkpt>
      <trkpt lat="43.80118" lon="7.07589">
        <ele>1159.7</ele>
        <time>2019-12-30T14:39:13Z</time>
      </trkpt>
      <trkpt lat="43.80118" lon="7.07589">
        <ele>1159.7</ele>
        <time>2019-12-30T14:39:14Z</time>
      </trkpt>
      <trkpt lat="43.80118" lon="7.07589">
        <ele>1159.7</ele>
        <time>2019-12-30T14:39:15Z</time>
      </trkpt>
      <trkpt lat="43.80118" lon="7.0759">
        <ele>1159.7</ele>
        <time>2019-12-30T14:39:16Z</time>
      </trkpt>
      <trkpt lat="43.80118" lon="7.0759">
        <ele>1159.6</ele>
        <time>2019-12-30T14:39:17Z</time>
      </trkpt>
      <trkpt lat="43.80118" lon="7.07591">
        <ele>1159.6</ele>
        <time>2019-12-30T14:39:18Z</time>
      </trkpt>
      <trkpt lat="43.80118" lon="7.07591">
        <ele>1159.5</ele>
        <time>2019-12-30T14:39:19Z</time>
      </trkpt>
      <trkpt lat="43.80118" lon="7.07591">
        <ele>1159.5</ele>
        <time>2019-12-30T14:39:20Z</time>
      </trkpt>
      <trkpt lat="43.80117" lon="7.07592">
        <ele>1159.4</ele>
        <time>2019-12-30T14:39:21Z</time>
      </trkpt>
      <trkpt lat="43.80117" lon="7.07592">
        <ele>1159.4</ele>
        <time>2019-12-30T14:39:22Z</time>
      </trkpt>
      <trkpt lat="43.80117" lon="7.07592">
        <ele>1159.3</ele>
        <time>2019-12-30T14:39:23Z</time>
      </trkpt>
      <trkpt lat="43.80117" lon="7.07593">
        <ele>1159.3</ele>
        <time>2019-12-30T14:39:24Z</time>
      </trkpt>
      <trkpt lat="43.80116" lon="7.07593">
        <ele>1159.3</ele>
        <time>2019-12-30T14:39:25Z</time>
      </trkpt>
      <trkpt lat="43.80116" lon="7.07593">
        <ele>1159.2</ele>
        <time>2019-12-30T14:39:26Z</time>
      </trkpt>
      <trkpt lat="43.80116" lon="7.07594">
        <ele>1159.1</ele>
        <time>2019-12-30T14:39:27Z</time>
      </trkpt>
      <trkpt lat="43.80116" lon="7.07594">
        <ele>1159</ele>
        <time>2019-12-30T14:39:28Z</time>
      </trkpt>
      <trkpt lat="43.80115" lon="7.07595">
        <ele>1159</ele>
        <time>2019-12-30T14:39:29Z</time>
      </trkpt>
      <trkpt lat="43.80115" lon="7.07596">
        <ele>1158.9</ele>
        <time>2019-12-30T14:39:30Z</time>
      </trkpt>
      <trkpt lat="43.80115" lon="7.07597">
        <ele>1158.8</ele>
        <time>2019-12-30T14:39:31Z</time>
      </trkpt>
      <trkpt lat="43.80115" lon="7.07598">
        <ele>1158.8</ele>
        <time>2019-12-30T14:39:32Z</time>
      </trkpt>
      <trkpt lat="43.80115" lon="7.076">
        <ele>1158.7</ele>
        <time>2019-12-30T14:39:33Z</time>
      </trkpt>
      <trkpt lat="43.80115" lon="7.07601">
        <ele>1158.6</ele>
        <time>2019-12-30T14:39:34Z</time>
      </trkpt>
      <trkpt lat="43.80115" lon="7.07603">
        <ele>1158.5</ele>
        <time>2019-12-30T14:39:35Z</time>
      </trkpt>
      <trkpt lat="43.80115" lon="7.07604">
        <ele>1158.4</ele>
        <time>2019-12-30T14:39:36Z</time>
      </trkpt>
      <trkpt lat="43.80114" lon="7.07605">
        <ele>1158.4</ele>
        <time>2019-12-30T14:39:37Z</time>
      </trkpt>
      <trkpt lat="43.80114" lon="7.07606">
        <ele>1158.3</ele>
        <time>2019-12-30T14:39:38Z</time>
      </trkpt>
      <trkpt lat="43.80114" lon="7.07607">
        <ele>1158.3</ele>
        <time>2019-12-30T14:39:39Z</time>
      </trkpt>
      <trkpt lat="43.80114" lon="7.07608">
        <ele>1158.3</ele>
        <time>2019-12-30T14:39:40Z</time>
      </trkpt>
      <trkpt lat="43.80115" lon="7.0761">
        <ele>1158.2</ele>
        <time>2019-12-30T14:39:41Z</time>
      </trkpt>
      <trkpt lat="43.80115" lon="7.07612">
        <ele>1158.1</ele>
        <time>2019-12-30T14:39:42Z</time>
      </trkpt>
      <trkpt lat="43.80115" lon="7.07614">
        <ele>1158.1</ele>
        <time>2019-12-30T14:39:43Z</time>
      </trkpt>
      <trkpt lat="43.80115" lon="7.07618">
        <ele>1158</ele>
        <time>2019-12-30T14:39:44Z</time>
      </trkpt>
      <trkpt lat="43.80115" lon="7.07621">
        <ele>1158</ele>
        <time>2019-12-30T14:39:45Z</time>
      </trkpt>
      <trkpt lat="43.80114" lon="7.07623">
        <ele>1158</ele>
        <time>2019-12-30T14:39:46Z</time>
      </trkpt>
      <trkpt lat="43.80114" lon="7.07626">
        <ele>1158</ele>
        <time>2019-12-30T14:39:47Z</time>
      </trkpt>
      <trkpt lat="43.80114" lon="7.07629">
        <ele>1158</ele>
        <time>2019-12-30T14:39:48Z</time>
      </trkpt>
      <trkpt lat="43.80115" lon="7.07632">
        <ele>1158</ele>
        <time>2019-12-30T14:39:49Z</time>
      </trkpt>
      <trkpt lat="43.80115" lon="7.07635">
        <ele>1158</ele>
        <time>2019-12-30T14:39:50Z</time>
      </trkpt>
      <trkpt lat="43.80115" lon="7.07638">
        <ele>1158.1</ele>
        <time>2019-12-30T14:39:51Z</time>
      </trkpt>
      <trkpt lat="43.80115" lon="7.07641">
        <ele>1158.1</ele>
        <time>2019-12-30T14:39:52Z</time>
      </trkpt>
      <trkpt lat="43.80115" lon="7.07643">
        <ele>1158.2</ele>
        <time>2019-12-30T14:39:53Z</time>
      </trkpt>
      <trkpt lat="43.80114" lon="7.07645">
        <ele>1158.2</ele>
        <time>2019-12-30T14:39:54Z</time>
      </trkpt>
      <trkpt lat="43.80113" lon="7.07648">
        <ele>1158.3</ele>
        <time>2019-12-30T14:39:55Z</time>
      </trkpt>
      <trkpt lat="43.80113" lon="7.0765">
        <ele>1158.3</ele>
        <time>2019-12-30T14:39:56Z</time>
      </trkpt>
      <trkpt lat="43.80112" lon="7.07653">
        <ele>1158.3</ele>
        <time>2019-12-30T14:39:57Z</time>
      </trkpt>
      <trkpt lat="43.80111" lon="7.07656">
        <ele>1158.4</ele>
        <time>2019-12-30T14:39:58Z</time>
      </trkpt>
      <trkpt lat="43.80111" lon="7.07659">
        <ele>1158.3</ele>
        <time>2019-12-30T14:39:59Z</time>
      </trkpt>
      <trkpt lat="43.8011" lon="7.07663">
        <ele>1158.3</ele>
        <time>2019-12-30T14:40:00Z</time>
      </trkpt>
      <trkpt lat="43.80109" lon="7.07666">
        <ele>1158.2</ele>
        <time>2019-12-30T14:40:01Z</time>
      </trkpt>
      <trkpt lat="43.80109" lon="7.07669">
        <ele>1158.2</ele>
        <time>2019-12-30T14:40:02Z</time>
      </trkpt>
      <trkpt lat="43.80108" lon="7.07673">
        <ele>1158</ele>
        <time>2019-12-30T14:40:03Z</time>
      </trkpt>
      <trkpt lat="43.80108" lon="7.07676">
        <ele>1157.9</ele>
        <time>2019-12-30T14:40:04Z</time>
      </trkpt>
      <trkpt lat="43.80107" lon="7.07679">
        <ele>1157.7</ele>
        <time>2019-12-30T14:40:05Z</time>
      </trkpt>
      <trkpt lat="43.80107" lon="7.07682">
        <ele>1157.5</ele>
        <time>2019-12-30T14:40:06Z</time>
      </trkpt>
      <trkpt lat="43.80107" lon="7.07685">
        <ele>1157.3</ele>
        <time>2019-12-30T14:40:07Z</time>
      </trkpt>
      <trkpt lat="43.80107" lon="7.07688">
        <ele>1157.1</ele>
        <time>2019-12-30T14:40:08Z</time>
      </trkpt>
      <trkpt lat="43.80107" lon="7.07691">
        <ele>1156.8</ele>
        <time>2019-12-30T14:40:09Z</time>
      </trkpt>
      <trkpt lat="43.80107" lon="7.07694">
        <ele>1156.6</ele>
        <time>2019-12-30T14:40:10Z</time>
      </trkpt>
      <trkpt lat="43.80107" lon="7.07696">
        <ele>1156.4</ele>
        <time>2019-12-30T14:40:11Z</time>
      </trkpt>
      <trkpt lat="43.80107" lon="7.07698">
        <ele>1156.2</ele>
        <time>2019-12-30T14:40:12Z</time>
      </trkpt>
      <trkpt lat="43.80107" lon="7.07699">
        <ele>1156.2</ele>
        <time>2019-12-30T14:40:13Z</time>
      </trkpt>
      <trkpt lat="43.80107" lon="7.07699">
        <ele>1156.1</ele>
        <time>2019-12-30T14:40:14Z</time>
      </trkpt>
      <trkpt lat="43.80107" lon="7.077">
        <ele>1156.1</ele>
        <time>2019-12-30T14:40:15Z</time>
      </trkpt>
      <trkpt lat="43.80107" lon="7.077">
        <ele>1156.1</ele>
        <time>2019-12-30T14:40:16Z</time>
      </trkpt>
      <trkpt lat="43.80107" lon="7.077">
        <ele>1156.1</ele>
        <time>2019-12-30T14:40:17Z</time>
      </trkpt>
      <trkpt lat="43.80107" lon="7.077">
        <ele>1156.1</ele>
        <time>2019-12-30T14:40:18Z</time>
      </trkpt>
      <trkpt lat="43.80107" lon="7.077">
        <ele>1156</ele>
        <time>2019-12-30T14:40:19Z</time>
      </trkpt>
      <trkpt lat="43.80108" lon="7.07701">
        <ele>1156</ele>
        <time>2019-12-30T14:40:20Z</time>
      </trkpt>
      <trkpt lat="43.80108" lon="7.07701">
        <ele>1156</ele>
        <time>2019-12-30T14:40:21Z</time>
      </trkpt>
      <trkpt lat="43.80108" lon="7.07701">
        <ele>1156</ele>
        <time>2019-12-30T14:40:22Z</time>
      </trkpt>
      <trkpt lat="43.80108" lon="7.07701">
        <ele>1156</ele>
        <time>2019-12-30T14:40:23Z</time>
      </trkpt>
      <trkpt lat="43.80108" lon="7.07701">
        <ele>1155.9</ele>
        <time>2019-12-30T14:40:24Z</time>
      </trkpt>
      <trkpt lat="43.80108" lon="7.07701">
        <ele>1155.9</ele>
        <time>2019-12-30T14:40:25Z</time>
      </trkpt>
      <trkpt lat="43.80109" lon="7.07701">
        <ele>1155.9</ele>
        <time>2019-12-30T14:40:26Z</time>
      </trkpt>
      <trkpt lat="43.80109" lon="7.07702">
        <ele>1155.8</ele>
        <time>2019-12-30T14:40:27Z</time>
      </trkpt>
      <trkpt lat="43.8011" lon="7.07702">
        <ele>1155.7</ele>
        <time>2019-12-30T14:40:28Z</time>
      </trkpt>
      <trkpt lat="43.8011" lon="7.07702">
        <ele>1155.7</ele>
        <time>2019-12-30T14:40:29Z</time>
      </trkpt>
      <trkpt lat="43.80111" lon="7.07702">
        <ele>1155.6</ele>
        <time>2019-12-30T14:40:30Z</time>
      </trkpt>
      <trkpt lat="43.80111" lon="7.07702">
        <ele>1155.6</ele>
        <time>2019-12-30T14:40:31Z</time>
      </trkpt>
      <trkpt lat="43.80111" lon="7.07703">
        <ele>1155.5</ele>
        <time>2019-12-30T14:40:32Z</time>
      </trkpt>
      <trkpt lat="43.80112" lon="7.07703">
        <ele>1155.5</ele>
        <time>2019-12-30T14:40:33Z</time>
      </trkpt>
      <trkpt lat="43.80112" lon="7.07703">
        <ele>1155.5</ele>
        <time>2019-12-30T14:40:34Z</time>
      </trkpt>
      <trkpt lat="43.80112" lon="7.07703">
        <ele>1155.5</ele>
        <time>2019-12-30T14:40:35Z</time>
      </trkpt>
      <trkpt lat="43.80112" lon="7.07702">
        <ele>1155.5</ele>
        <time>2019-12-30T14:40:36Z</time>
      </trkpt>
      <trkpt lat="43.80112" lon="7.07702">
        <ele>1155.5</ele>
        <time>2019-12-30T14:40:37Z</time>
      </trkpt>
      <trkpt lat="43.80112" lon="7.07702">
        <ele>1155.5</ele>
        <time>2019-12-30T14:40:38Z</time>
      </trkpt>
      <trkpt lat="43.80112" lon="7.07702">
        <ele>1155.5</ele>
        <time>2019-12-30T14:40:39Z</time>
      </trkpt>
      <trkpt lat="43.80112" lon="7.07703">
        <ele>1155.5</ele>
        <time>2019-12-30T14:40:40Z</time>
      </trkpt>
      <trkpt lat="43.80112" lon="7.07703">
        <ele>1155.5</ele>
        <time>2019-12-30T14:40:41Z</time>
      </trkpt>
      <trkpt lat="43.80113" lon="7.07703">
        <ele>1155.4</ele>
        <time>2019-12-30T14:40:42Z</time>
      </trkpt>
      <trkpt lat="43.80113" lon="7.07704">
        <ele>1155.3</ele>
        <time>2019-12-30T14:40:43Z</time>
      </trkpt>
      <trkpt lat="43.80113" lon="7.07705">
        <ele>1155.2</ele>
        <time>2019-12-30T14:40:44Z</time>
      </trkpt>
      <trkpt lat="43.80114" lon="7.07706">
        <ele>1155.1</ele>
        <time>2019-12-30T14:40:45Z</time>
      </trkpt>
      <trkpt lat="43.80114" lon="7.07707">
        <ele>1155.1</ele>
        <time>2019-12-30T14:40:46Z</time>
      </trkpt>
      <trkpt lat="43.80114" lon="7.07707">
        <ele>1155.1</ele>
        <time>2019-12-30T14:40:47Z</time>
      </trkpt>
      <trkpt lat="43.80114" lon="7.07707">
        <ele>1155.1</ele>
        <time>2019-12-30T14:40:48Z</time>
      </trkpt>
      <trkpt lat="43.80114" lon="7.07708">
        <ele>1155</ele>
        <time>2019-12-30T14:40:49Z</time>
      </trkpt>
      <trkpt lat="43.80113" lon="7.0771">
        <ele>1154.8</ele>
        <time>2019-12-30T14:40:50Z</time>
      </trkpt>
      <trkpt lat="43.80112" lon="7.07713">
        <ele>1154.7</ele>
        <time>2019-12-30T14:40:51Z</time>
      </trkpt>
      <trkpt lat="43.80111" lon="7.07716">
        <ele>1154.5</ele>
        <time>2019-12-30T14:40:52Z</time>
      </trkpt>
      <trkpt lat="43.8011" lon="7.07719">
        <ele>1154.2</ele>
        <time>2019-12-30T14:40:53Z</time>
      </trkpt>
      <trkpt lat="43.80109" lon="7.07723">
        <ele>1154</ele>
        <time>2019-12-30T14:40:54Z</time>
      </trkpt>
      <trkpt lat="43.80107" lon="7.07726">
        <ele>1153.6</ele>
        <time>2019-12-30T14:40:55Z</time>
      </trkpt>
      <trkpt lat="43.80107" lon="7.07729">
        <ele>1153.3</ele>
        <time>2019-12-30T14:40:56Z</time>
      </trkpt>
      <trkpt lat="43.80106" lon="7.07732">
        <ele>1153</ele>
        <time>2019-12-30T14:40:57Z</time>
      </trkpt>
      <trkpt lat="43.80106" lon="7.07735">
        <ele>1152.7</ele>
        <time>2019-12-30T14:40:58Z</time>
      </trkpt>
      <trkpt lat="43.80105" lon="7.07737">
        <ele>1152.5</ele>
        <time>2019-12-30T14:40:59Z</time>
      </trkpt>
      <trkpt lat="43.80105" lon="7.07739">
        <ele>1152.2</ele>
        <time>2019-12-30T14:41:00Z</time>
      </trkpt>
      <trkpt lat="43.80105" lon="7.0774">
        <ele>1152.2</ele>
        <time>2019-12-30T14:41:01Z</time>
      </trkpt>
      <trkpt lat="43.80105" lon="7.0774">
        <ele>1152.2</ele>
        <time>2019-12-30T14:41:02Z</time>
      </trkpt>
      <trkpt lat="43.80105" lon="7.0774">
        <ele>1152.2</ele>
        <time>2019-12-30T14:41:03Z</time>
      </trkpt>
      <trkpt lat="43.80105" lon="7.0774">
        <ele>1152.1</ele>
        <time>2019-12-30T14:41:04Z</time>
      </trkpt>
      <trkpt lat="43.80105" lon="7.07741">
        <ele>1152.1</ele>
        <time>2019-12-30T14:41:05Z</time>
      </trkpt>
      <trkpt lat="43.80105" lon="7.07741">
        <ele>1152.1</ele>
        <time>2019-12-30T14:41:06Z</time>
      </trkpt>
      <trkpt lat="43.80105" lon="7.07741">
        <ele>1152.1</ele>
        <time>2019-12-30T14:41:07Z</time>
      </trkpt>
      <trkpt lat="43.80105" lon="7.07741">
        <ele>1152</ele>
        <time>2019-12-30T14:41:08Z</time>
      </trkpt>
      <trkpt lat="43.80105" lon="7.07741">
        <ele>1152</ele>
        <time>2019-12-30T14:41:09Z</time>
      </trkpt>
      <trkpt lat="43.80105" lon="7.07742">
        <ele>1152</ele>
        <time>2019-12-30T14:41:10Z</time>
      </trkpt>
      <trkpt lat="43.80105" lon="7.07742">
        <ele>1152</ele>
        <time>2019-12-30T14:41:11Z</time>
      </trkpt>
      <trkpt lat="43.80105" lon="7.07742">
        <ele>1152</ele>
        <time>2019-12-30T14:41:12Z</time>
      </trkpt>
      <trkpt lat="43.80105" lon="7.07742">
        <ele>1151.9</ele>
        <time>2019-12-30T14:41:13Z</time>
      </trkpt>
      <trkpt lat="43.80105" lon="7.07742">
        <ele>1151.9</ele>
        <time>2019-12-30T14:41:14Z</time>
      </trkpt>
      <trkpt lat="43.80105" lon="7.07743">
        <ele>1151.9</ele>
        <time>2019-12-30T14:41:15Z</time>
      </trkpt>
      <trkpt lat="43.80105" lon="7.07743">
        <ele>1151.8</ele>
        <time>2019-12-30T14:41:16Z</time>
      </trkpt>
      <trkpt lat="43.80105" lon="7.07743">
        <ele>1151.8</ele>
        <time>2019-12-30T14:41:17Z</time>
      </trkpt>
      <trkpt lat="43.80106" lon="7.07744">
        <ele>1151.7</ele>
        <time>2019-12-30T14:41:18Z</time>
      </trkpt>
      <trkpt lat="43.80106" lon="7.07745">
        <ele>1151.7</ele>
        <time>2019-12-30T14:41:19Z</time>
      </trkpt>
      <trkpt lat="43.80106" lon="7.07745">
        <ele>1151.6</ele>
        <time>2019-12-30T14:41:20Z</time>
      </trkpt>
      <trkpt lat="43.80106" lon="7.07746">
        <ele>1151.5</ele>
        <time>2019-12-30T14:41:21Z</time>
      </trkpt>
      <trkpt lat="43.80106" lon="7.07747">
        <ele>1151.4</ele>
        <time>2019-12-30T14:41:22Z</time>
      </trkpt>
      <trkpt lat="43.80106" lon="7.07748">
        <ele>1151.2</ele>
        <time>2019-12-30T14:41:23Z</time>
      </trkpt>
      <trkpt lat="43.80106" lon="7.07749">
        <ele>1151</ele>
        <time>2019-12-30T14:41:24Z</time>
      </trkpt>
      <trkpt lat="43.80106" lon="7.0775">
        <ele>1150.8</ele>
        <time>2019-12-30T14:41:25Z</time>
      </trkpt>
      <trkpt lat="43.80105" lon="7.07751">
        <ele>1150.7</ele>
        <time>2019-12-30T14:41:26Z</time>
      </trkpt>
      <trkpt lat="43.80105" lon="7.07752">
        <ele>1150.6</ele>
        <time>2019-12-30T14:41:27Z</time>
      </trkpt>
      <trkpt lat="43.80105" lon="7.07752">
        <ele>1150.5</ele>
        <time>2019-12-30T14:41:28Z</time>
      </trkpt>
      <trkpt lat="43.80105" lon="7.07752">
        <ele>1150.5</ele>
        <time>2019-12-30T14:41:29Z</time>
      </trkpt>
      <trkpt lat="43.80105" lon="7.07752">
        <ele>1150.5</ele>
        <time>2019-12-30T14:41:30Z</time>
      </trkpt>
      <trkpt lat="43.80105" lon="7.07753">
        <ele>1150.4</ele>
        <time>2019-12-30T14:41:31Z</time>
      </trkpt>
      <trkpt lat="43.80105" lon="7.07754">
        <ele>1150.2</ele>
        <time>2019-12-30T14:41:32Z</time>
      </trkpt>
      <trkpt lat="43.80105" lon="7.07755">
        <ele>1149.9</ele>
        <time>2019-12-30T14:41:33Z</time>
      </trkpt>
      <trkpt lat="43.80104" lon="7.07757">
        <ele>1149.6</ele>
        <time>2019-12-30T14:41:34Z</time>
      </trkpt>
      <trkpt lat="43.80104" lon="7.07759">
        <ele>1149.1</ele>
        <time>2019-12-30T14:41:35Z</time>
      </trkpt>
      <trkpt lat="43.80103" lon="7.07761">
        <ele>1148.6</ele>
        <time>2019-12-30T14:41:36Z</time>
      </trkpt>
      <trkpt lat="43.80101" lon="7.07764">
        <ele>1148</ele>
        <time>2019-12-30T14:41:37Z</time>
      </trkpt>
      <trkpt lat="43.801" lon="7.07767">
        <ele>1147.3</ele>
        <time>2019-12-30T14:41:38Z</time>
      </trkpt>
      <trkpt lat="43.80099" lon="7.07769">
        <ele>1146.7</ele>
        <time>2019-12-30T14:41:39Z</time>
      </trkpt>
      <trkpt lat="43.80098" lon="7.07771">
        <ele>1146.2</ele>
        <time>2019-12-30T14:41:40Z</time>
      </trkpt>
      <trkpt lat="43.80097" lon="7.07773">
        <ele>1145.8</ele>
        <time>2019-12-30T14:41:41Z</time>
      </trkpt>
      <trkpt lat="43.80096" lon="7.07774">
        <ele>1145.5</ele>
        <time>2019-12-30T14:41:42Z</time>
      </trkpt>
      <trkpt lat="43.80095" lon="7.07775">
        <ele>1145.2</ele>
        <time>2019-12-30T14:41:43Z</time>
      </trkpt>
      <trkpt lat="43.80094" lon="7.07777">
        <ele>1144.8</ele>
        <time>2019-12-30T14:41:44Z</time>
      </trkpt>
      <trkpt lat="43.80093" lon="7.0778">
        <ele>1144.3</ele>
        <time>2019-12-30T14:41:45Z</time>
      </trkpt>
      <trkpt lat="43.80092" lon="7.07782">
        <ele>1143.7</ele>
        <time>2019-12-30T14:41:46Z</time>
      </trkpt>
      <trkpt lat="43.80091" lon="7.07785">
        <ele>1143.2</ele>
        <time>2019-12-30T14:41:47Z</time>
      </trkpt>
      <trkpt lat="43.8009" lon="7.07787">
        <ele>1142.7</ele>
        <time>2019-12-30T14:41:48Z</time>
      </trkpt>
      <trkpt lat="43.80089" lon="7.0779">
        <ele>1142.1</ele>
        <time>2019-12-30T14:41:49Z</time>
      </trkpt>
      <trkpt lat="43.80088" lon="7.07793">
        <ele>1141.5</ele>
        <time>2019-12-30T14:41:50Z</time>
      </trkpt>
      <trkpt lat="43.80087" lon="7.07796">
        <ele>1141</ele>
        <time>2019-12-30T14:41:51Z</time>
      </trkpt>
      <trkpt lat="43.80086" lon="7.07799">
        <ele>1140.4</ele>
        <time>2019-12-30T14:41:52Z</time>
      </trkpt>
      <trkpt lat="43.80084" lon="7.07801">
        <ele>1139.9</ele>
        <time>2019-12-30T14:41:53Z</time>
      </trkpt>
      <trkpt lat="43.80083" lon="7.07804">
        <ele>1139.3</ele>
        <time>2019-12-30T14:41:54Z</time>
      </trkpt>
      <trkpt lat="43.80082" lon="7.07807">
        <ele>1138.8</ele>
        <time>2019-12-30T14:41:55Z</time>
      </trkpt>
      <trkpt lat="43.80081" lon="7.07809">
        <ele>1138.4</ele>
        <time>2019-12-30T14:41:56Z</time>
      </trkpt>
      <trkpt lat="43.80081" lon="7.07811">
        <ele>1138</ele>
        <time>2019-12-30T14:41:57Z</time>
      </trkpt>
      <trkpt lat="43.8008" lon="7.07813">
        <ele>1137.5</ele>
        <time>2019-12-30T14:41:58Z</time>
      </trkpt>
      <trkpt lat="43.8008" lon="7.07816">
        <ele>1137</ele>
        <time>2019-12-30T14:41:59Z</time>
      </trkpt>
      <trkpt lat="43.8008" lon="7.07819">
        <ele>1136.4</ele>
        <time>2019-12-30T14:42:00Z</time>
      </trkpt>
      <trkpt lat="43.8008" lon="7.07822">
        <ele>1135.9</ele>
        <time>2019-12-30T14:42:01Z</time>
      </trkpt>
      <trkpt lat="43.80081" lon="7.07824">
        <ele>1135.5</ele>
        <time>2019-12-30T14:42:02Z</time>
      </trkpt>
      <trkpt lat="43.80081" lon="7.07826">
        <ele>1135.1</ele>
        <time>2019-12-30T14:42:03Z</time>
      </trkpt>
      <trkpt lat="43.80081" lon="7.07828">
        <ele>1134.7</ele>
        <time>2019-12-30T14:42:04Z</time>
      </trkpt>
      <trkpt lat="43.80081" lon="7.07831">
        <ele>1134.1</ele>
        <time>2019-12-30T14:42:05Z</time>
      </trkpt>
      <trkpt lat="43.8008" lon="7.07834">
        <ele>1133.4</ele>
        <time>2019-12-30T14:42:06Z</time>
      </trkpt>
      <trkpt lat="43.80079" lon="7.07838">
        <ele>1132.6</ele>
        <time>2019-12-30T14:42:07Z</time>
      </trkpt>
      <trkpt lat="43.80079" lon="7.07841">
        <ele>1131.9</ele>
        <time>2019-12-30T14:42:08Z</time>
      </trkpt>
      <trkpt lat="43.80078" lon="7.07844">
        <ele>1131.3</ele>
        <time>2019-12-30T14:42:09Z</time>
      </trkpt>
      <trkpt lat="43.80077" lon="7.07847">
        <ele>1130.5</ele>
        <time>2019-12-30T14:42:10Z</time>
      </trkpt>
      <trkpt lat="43.80075" lon="7.0785">
        <ele>1129.7</ele>
        <time>2019-12-30T14:42:11Z</time>
      </trkpt>
      <trkpt lat="43.80074" lon="7.07853">
        <ele>1128.9</ele>
        <time>2019-12-30T14:42:12Z</time>
      </trkpt>
      <trkpt lat="43.80073" lon="7.07856">
        <ele>1128.2</ele>
        <time>2019-12-30T14:42:13Z</time>
      </trkpt>
      <trkpt lat="43.80072" lon="7.07859">
        <ele>1127.5</ele>
        <time>2019-12-30T14:42:14Z</time>
      </trkpt>
      <trkpt lat="43.80072" lon="7.07862">
        <ele>1126.9</ele>
        <time>2019-12-30T14:42:15Z</time>
      </trkpt>
      <trkpt lat="43.80071" lon="7.07866">
        <ele>1126.2</ele>
        <time>2019-12-30T14:42:16Z</time>
      </trkpt>
      <trkpt lat="43.80071" lon="7.0787">
        <ele>1125.5</ele>
        <time>2019-12-30T14:42:17Z</time>
      </trkpt>
      <trkpt lat="43.80071" lon="7.07874">
        <ele>1124.8</ele>
        <time>2019-12-30T14:42:18Z</time>
      </trkpt>
      <trkpt lat="43.8007" lon="7.07878">
        <ele>1124</ele>
        <time>2019-12-30T14:42:19Z</time>
      </trkpt>
      <trkpt lat="43.8007" lon="7.07882">
        <ele>1123</ele>
        <time>2019-12-30T14:42:20Z</time>
      </trkpt>
      <trkpt lat="43.80069" lon="7.07886">
        <ele>1122.2</ele>
        <time>2019-12-30T14:42:21Z</time>
      </trkpt>
      <trkpt lat="43.80069" lon="7.07889">
        <ele>1121.6</ele>
        <time>2019-12-30T14:42:22Z</time>
      </trkpt>
      <trkpt lat="43.80069" lon="7.0789">
        <ele>1121.5</ele>
        <time>2019-12-30T14:42:23Z</time>
      </trkpt>
      <trkpt lat="43.80069" lon="7.0789">
        <ele>1121.5</ele>
        <time>2019-12-30T14:42:24Z</time>
      </trkpt>
      <trkpt lat="43.80069" lon="7.0789">
        <ele>1121.5</ele>
        <time>2019-12-30T14:42:25Z</time>
      </trkpt>
      <trkpt lat="43.80069" lon="7.0789">
        <ele>1121.5</ele>
        <time>2019-12-30T14:42:26Z</time>
      </trkpt>
      <trkpt lat="43.80069" lon="7.0789">
        <ele>1121.4</ele>
        <time>2019-12-30T14:42:27Z</time>
      </trkpt>
      <trkpt lat="43.80069" lon="7.0789">
        <ele>1121.4</ele>
        <time>2019-12-30T14:42:28Z</time>
      </trkpt>
      <trkpt lat="43.80069" lon="7.0789">
        <ele>1121.4</ele>
        <time>2019-12-30T14:42:29Z</time>
      </trkpt>
      <trkpt lat="43.80069" lon="7.0789">
        <ele>1121.4</ele>
        <time>2019-12-30T14:42:30Z</time>
      </trkpt>
      <trkpt lat="43.80069" lon="7.0789">
        <ele>1121.3</ele>
        <time>2019-12-30T14:42:31Z</time>
      </trkpt>
      <trkpt lat="43.80069" lon="7.0789">
        <ele>1121.3</ele>
        <time>2019-12-30T14:42:32Z</time>
      </trkpt>
      <trkpt lat="43.80069" lon="7.0789">
        <ele>1121.3</ele>
        <time>2019-12-30T14:42:33Z</time>
      </trkpt>
      <trkpt lat="43.80069" lon="7.07891">
        <ele>1121.3</ele>
        <time>2019-12-30T14:42:34Z</time>
      </trkpt>
      <trkpt lat="43.80069" lon="7.07891">
        <ele>1121.3</ele>
        <time>2019-12-30T14:42:35Z</time>
      </trkpt>
      <trkpt lat="43.8007" lon="7.07891">
        <ele>1121.2</ele>
        <time>2019-12-30T14:42:36Z</time>
      </trkpt>
      <trkpt lat="43.8007" lon="7.07891">
        <ele>1121.2</ele>
        <time>2019-12-30T14:42:37Z</time>
      </trkpt>
      <trkpt lat="43.8007" lon="7.07891">
        <ele>1121.2</ele>
        <time>2019-12-30T14:42:38Z</time>
      </trkpt>
      <trkpt lat="43.8007" lon="7.07891">
        <ele>1121.2</ele>
        <time>2019-12-30T14:42:39Z</time>
      </trkpt>
      <trkpt lat="43.8007" lon="7.07891">
        <ele>1121.1</ele>
        <time>2019-12-30T14:42:40Z</time>
      </trkpt>
      <trkpt lat="43.8007" lon="7.07891">
        <ele>1121.1</ele>
        <time>2019-12-30T14:42:41Z</time>
      </trkpt>
      <trkpt lat="43.8007" lon="7.07891">
        <ele>1121.1</ele>
        <time>2019-12-30T14:42:42Z</time>
      </trkpt>
      <trkpt lat="43.8007" lon="7.07891">
        <ele>1121.1</ele>
        <time>2019-12-30T14:42:43Z</time>
      </trkpt>
      <trkpt lat="43.8007" lon="7.07892">
        <ele>1121.1</ele>
        <time>2019-12-30T14:42:44Z</time>
      </trkpt>
      <trkpt lat="43.8007" lon="7.07892">
        <ele>1121</ele>
        <time>2019-12-30T14:42:45Z</time>
      </trkpt>
      <trkpt lat="43.8007" lon="7.07892">
        <ele>1121</ele>
        <time>2019-12-30T14:42:46Z</time>
      </trkpt>
      <trkpt lat="43.8007" lon="7.07892">
        <ele>1121</ele>
        <time>2019-12-30T14:42:47Z</time>
      </trkpt>
      <trkpt lat="43.8007" lon="7.07892">
        <ele>1121</ele>
        <time>2019-12-30T14:42:48Z</time>
      </trkpt>
      <trkpt lat="43.8007" lon="7.07892">
        <ele>1120.9</ele>
        <time>2019-12-30T14:42:49Z</time>
      </trkpt>
      <trkpt lat="43.8007" lon="7.07892">
        <ele>1120.9</ele>
        <time>2019-12-30T14:42:50Z</time>
      </trkpt>
      <trkpt lat="43.8007" lon="7.07892">
        <ele>1120.9</ele>
        <time>2019-12-30T14:42:51Z</time>
      </trkpt>
      <trkpt lat="43.8007" lon="7.07892">
        <ele>1120.9</ele>
        <time>2019-12-30T14:42:52Z</time>
      </trkpt>
      <trkpt lat="43.8007" lon="7.07892">
        <ele>1120.8</ele>
        <time>2019-12-30T14:42:53Z</time>
      </trkpt>
      <trkpt lat="43.8007" lon="7.07892">
        <ele>1120.8</ele>
        <time>2019-12-30T14:42:54Z</time>
      </trkpt>
      <trkpt lat="43.8007" lon="7.07893">
        <ele>1120.8</ele>
        <time>2019-12-30T14:42:55Z</time>
      </trkpt>
      <trkpt lat="43.8007" lon="7.07893">
        <ele>1120.8</ele>
        <time>2019-12-30T14:42:56Z</time>
      </trkpt>
      <trkpt lat="43.8007" lon="7.07893">
        <ele>1120.8</ele>
        <time>2019-12-30T14:42:57Z</time>
      </trkpt>
      <trkpt lat="43.8007" lon="7.07893">
        <ele>1120.7</ele>
        <time>2019-12-30T14:42:58Z</time>
      </trkpt>
      <trkpt lat="43.8007" lon="7.07893">
        <ele>1120.7</ele>
        <time>2019-12-30T14:42:59Z</time>
      </trkpt>
      <trkpt lat="43.8007" lon="7.07893">
        <ele>1120.7</ele>
        <time>2019-12-30T14:43:00Z</time>
      </trkpt>
      <trkpt lat="43.8007" lon="7.07893">
        <ele>1120.7</ele>
        <time>2019-12-30T14:43:01Z</time>
      </trkpt>
      <trkpt lat="43.8007" lon="7.07893">
        <ele>1120.6</ele>
        <time>2019-12-30T14:43:02Z</time>
      </trkpt>
      <trkpt lat="43.8007" lon="7.07893">
        <ele>1120.6</ele>
        <time>2019-12-30T14:43:03Z</time>
      </trkpt>
      <trkpt lat="43.8007" lon="7.07893">
        <ele>1120.6</ele>
        <time>2019-12-30T14:43:04Z</time>
      </trkpt>
      <trkpt lat="43.8007" lon="7.07894">
        <ele>1120.6</ele>
        <time>2019-12-30T14:43:05Z</time>
      </trkpt>
      <trkpt lat="43.8007" lon="7.07894">
        <ele>1120.5</ele>
        <time>2019-12-30T14:43:06Z</time>
      </trkpt>
      <trkpt lat="43.8007" lon="7.07894">
        <ele>1120.5</ele>
        <time>2019-12-30T14:43:07Z</time>
      </trkpt>
      <trkpt lat="43.8007" lon="7.07894">
        <ele>1120.5</ele>
        <time>2019-12-30T14:43:08Z</time>
      </trkpt>
      <trkpt lat="43.80071" lon="7.07894">
        <ele>1120.5</ele>
        <time>2019-12-30T14:43:09Z</time>
      </trkpt>
      <trkpt lat="43.80071" lon="7.07894">
        <ele>1120.4</ele>
        <time>2019-12-30T14:43:10Z</time>
      </trkpt>
      <trkpt lat="43.80071" lon="7.07894">
        <ele>1120.4</ele>
        <time>2019-12-30T14:43:11Z</time>
      </trkpt>
      <trkpt lat="43.80071" lon="7.07894">
        <ele>1120.4</ele>
        <time>2019-12-30T14:43:12Z</time>
      </trkpt>
      <trkpt lat="43.80071" lon="7.07894">
        <ele>1120.4</ele>
        <time>2019-12-30T14:43:13Z</time>
      </trkpt>
      <trkpt lat="43.80071" lon="7.07894">
        <ele>1120.3</ele>
        <time>2019-12-30T14:43:14Z</time>
      </trkpt>
      <trkpt lat="43.80071" lon="7.07895">
        <ele>1120.3</ele>
        <time>2019-12-30T14:43:15Z</time>
      </trkpt>
      <trkpt lat="43.80071" lon="7.07895">
        <ele>1120.3</ele>
        <time>2019-12-30T14:43:16Z</time>
      </trkpt>
      <trkpt lat="43.80071" lon="7.07895">
        <ele>1120.3</ele>
        <time>2019-12-30T14:43:17Z</time>
      </trkpt>
      <trkpt lat="43.80071" lon="7.07895">
        <ele>1120.2</ele>
        <time>2019-12-30T14:43:18Z</time>
      </trkpt>
      <trkpt lat="43.80071" lon="7.07895">
        <ele>1120.2</ele>
        <time>2019-12-30T14:43:19Z</time>
      </trkpt>
      <trkpt lat="43.80071" lon="7.07895">
        <ele>1120.2</ele>
        <time>2019-12-30T14:43:20Z</time>
      </trkpt>
      <trkpt lat="43.80071" lon="7.07895">
        <ele>1120.2</ele>
        <time>2019-12-30T14:43:21Z</time>
      </trkpt>
      <trkpt lat="43.80071" lon="7.07895">
        <ele>1120.1</ele>
        <time>2019-12-30T14:43:22Z</time>
      </trkpt>
      <trkpt lat="43.80071" lon="7.07895">
        <ele>1120.1</ele>
        <time>2019-12-30T14:43:23Z</time>
      </trkpt>
      <trkpt lat="43.80071" lon="7.07895">
        <ele>1120.1</ele>
        <time>2019-12-30T14:43:24Z</time>
      </trkpt>
      <trkpt lat="43.80071" lon="7.07895">
        <ele>1120</ele>
        <time>2019-12-30T14:43:25Z</time>
      </trkpt>
      <trkpt lat="43.80071" lon="7.07896">
        <ele>1120</ele>
        <time>2019-12-30T14:43:26Z</time>
      </trkpt>
      <trkpt lat="43.80071" lon="7.07896">
        <ele>1120</ele>
        <time>2019-12-30T14:43:27Z</time>
      </trkpt>
      <trkpt lat="43.80071" lon="7.07896">
        <ele>1120</ele>
        <time>2019-12-30T14:43:28Z</time>
      </trkpt>
      <trkpt lat="43.80071" lon="7.07896">
        <ele>1119.9</ele>
        <time>2019-12-30T14:43:29Z</time>
      </trkpt>
      <trkpt lat="43.80071" lon="7.07896">
        <ele>1119.8</ele>
        <time>2019-12-30T14:43:30Z</time>
      </trkpt>
      <trkpt lat="43.80071" lon="7.07897">
        <ele>1119.7</ele>
        <time>2019-12-30T14:43:31Z</time>
      </trkpt>
      <trkpt lat="43.80071" lon="7.07897">
        <ele>1119.5</ele>
        <time>2019-12-30T14:43:32Z</time>
      </trkpt>
      <trkpt lat="43.80071" lon="7.07899">
        <ele>1119.2</ele>
        <time>2019-12-30T14:43:33Z</time>
      </trkpt>
      <trkpt lat="43.80071" lon="7.079">
        <ele>1118.8</ele>
        <time>2019-12-30T14:43:34Z</time>
      </trkpt>
      <trkpt lat="43.80071" lon="7.07902">
        <ele>1118.5</ele>
        <time>2019-12-30T14:43:35Z</time>
      </trkpt>
      <trkpt lat="43.80071" lon="7.07902">
        <ele>1118.4</ele>
        <time>2019-12-30T14:43:36Z</time>
      </trkpt>
      <trkpt lat="43.80071" lon="7.07903">
        <ele>1118.4</ele>
        <time>2019-12-30T14:43:37Z</time>
      </trkpt>
      <trkpt lat="43.80071" lon="7.07903">
        <ele>1118.3</ele>
        <time>2019-12-30T14:43:38Z</time>
      </trkpt>
      <trkpt lat="43.80071" lon="7.07904">
        <ele>1118.1</ele>
        <time>2019-12-30T14:43:39Z</time>
      </trkpt>
      <trkpt lat="43.80072" lon="7.07905">
        <ele>1117.9</ele>
        <time>2019-12-30T14:43:40Z</time>
      </trkpt>
      <trkpt lat="43.80072" lon="7.07906">
        <ele>1117.6</ele>
        <time>2019-12-30T14:43:41Z</time>
      </trkpt>
      <trkpt lat="43.80072" lon="7.07908">
        <ele>1117.3</ele>
        <time>2019-12-30T14:43:42Z</time>
      </trkpt>
      <trkpt lat="43.80073" lon="7.0791">
        <ele>1116.9</ele>
        <time>2019-12-30T14:43:43Z</time>
      </trkpt>
      <trkpt lat="43.80073" lon="7.07912">
        <ele>1116.5</ele>
        <time>2019-12-30T14:43:44Z</time>
      </trkpt>
      <trkpt lat="43.80073" lon="7.07915">
        <ele>1116.1</ele>
        <time>2019-12-30T14:43:45Z</time>
      </trkpt>
      <trkpt lat="43.80073" lon="7.07917">
        <ele>1115.6</ele>
        <time>2019-12-30T14:43:46Z</time>
      </trkpt>
      <trkpt lat="43.80073" lon="7.0792">
        <ele>1115.2</ele>
        <time>2019-12-30T14:43:47Z</time>
      </trkpt>
      <trkpt lat="43.80073" lon="7.07923">
        <ele>1114.6</ele>
        <time>2019-12-30T14:43:48Z</time>
      </trkpt>
      <trkpt lat="43.80073" lon="7.07926">
        <ele>1114.1</ele>
        <time>2019-12-30T14:43:49Z</time>
      </trkpt>
      <trkpt lat="43.80073" lon="7.07929">
        <ele>1113.5</ele>
        <time>2019-12-30T14:43:50Z</time>
      </trkpt>
      <trkpt lat="43.80074" lon="7.07931">
        <ele>1113.1</ele>
        <time>2019-12-30T14:43:51Z</time>
      </trkpt>
      <trkpt lat="43.80074" lon="7.07933">
        <ele>1112.8</ele>
        <time>2019-12-30T14:43:52Z</time>
      </trkpt>
      <trkpt lat="43.80075" lon="7.07935">
        <ele>1112.4</ele>
        <time>2019-12-30T14:43:53Z</time>
      </trkpt>
      <trkpt lat="43.80075" lon="7.07936">
        <ele>1112.1</ele>
        <time>2019-12-30T14:43:54Z</time>
      </trkpt>
      <trkpt lat="43.80076" lon="7.07938">
        <ele>1111.7</ele>
        <time>2019-12-30T14:43:55Z</time>
      </trkpt>
      <trkpt lat="43.80077" lon="7.0794">
        <ele>1111.3</ele>
        <time>2019-12-30T14:43:56Z</time>
      </trkpt>
      <trkpt lat="43.80077" lon="7.07942">
        <ele>1111</ele>
        <time>2019-12-30T14:43:57Z</time>
      </trkpt>
      <trkpt lat="43.80077" lon="7.07943">
        <ele>1110.7</ele>
        <time>2019-12-30T14:43:58Z</time>
      </trkpt>
      <trkpt lat="43.80078" lon="7.07944">
        <ele>1110.4</ele>
        <time>2019-12-30T14:43:59Z</time>
      </trkpt>
      <trkpt lat="43.80079" lon="7.07945">
        <ele>1110.2</ele>
        <time>2019-12-30T14:44:00Z</time>
      </trkpt>
      <trkpt lat="43.80079" lon="7.07946">
        <ele>1109.9</ele>
        <time>2019-12-30T14:44:01Z</time>
      </trkpt>
      <trkpt lat="43.8008" lon="7.07947">
        <ele>1109.7</ele>
        <time>2019-12-30T14:44:02Z</time>
      </trkpt>
      <trkpt lat="43.80081" lon="7.07947">
        <ele>1109.5</ele>
        <time>2019-12-30T14:44:03Z</time>
      </trkpt>
      <trkpt lat="43.80081" lon="7.07948">
        <ele>1109.3</ele>
        <time>2019-12-30T14:44:04Z</time>
      </trkpt>
      <trkpt lat="43.80082" lon="7.07948">
        <ele>1109.1</ele>
        <time>2019-12-30T14:44:05Z</time>
      </trkpt>
      <trkpt lat="43.80082" lon="7.07949">
        <ele>1108.9</ele>
        <time>2019-12-30T14:44:06Z</time>
      </trkpt>
      <trkpt lat="43.80083" lon="7.0795">
        <ele>1108.7</ele>
        <time>2019-12-30T14:44:07Z</time>
      </trkpt>
      <trkpt lat="43.80083" lon="7.07951">
        <ele>1108.5</ele>
        <time>2019-12-30T14:44:08Z</time>
      </trkpt>
      <trkpt lat="43.80083" lon="7.07952">
        <ele>1108.3</ele>
        <time>2019-12-30T14:44:09Z</time>
      </trkpt>
      <trkpt lat="43.80083" lon="7.07953">
        <ele>1108.1</ele>
        <time>2019-12-30T14:44:10Z</time>
      </trkpt>
      <trkpt lat="43.80084" lon="7.07954">
        <ele>1107.9</ele>
        <time>2019-12-30T14:44:11Z</time>
      </trkpt>
      <trkpt lat="43.80085" lon="7.07956">
        <ele>1107.4</ele>
        <time>2019-12-30T14:44:12Z</time>
      </trkpt>
      <trkpt lat="43.80086" lon="7.07959">
        <ele>1107</ele>
        <time>2019-12-30T14:44:13Z</time>
      </trkpt>
      <trkpt lat="43.80087" lon="7.07961">
        <ele>1106.5</ele>
        <time>2019-12-30T14:44:14Z</time>
      </trkpt>
      <trkpt lat="43.80088" lon="7.07963">
        <ele>1106.1</ele>
        <time>2019-12-30T14:44:15Z</time>
      </trkpt>
      <trkpt lat="43.80089" lon="7.07966">
        <ele>1105.7</ele>
        <time>2019-12-30T14:44:16Z</time>
      </trkpt>
      <trkpt lat="43.80089" lon="7.07968">
        <ele>1105.3</ele>
        <time>2019-12-30T14:44:17Z</time>
      </trkpt>
      <trkpt lat="43.80089" lon="7.07971">
        <ele>1104.8</ele>
        <time>2019-12-30T14:44:18Z</time>
      </trkpt>
      <trkpt lat="43.80089" lon="7.07973">
        <ele>1104.3</ele>
        <time>2019-12-30T14:44:19Z</time>
      </trkpt>
      <trkpt lat="43.80089" lon="7.07975">
        <ele>1103.8</ele>
        <time>2019-12-30T14:44:20Z</time>
      </trkpt>
      <trkpt lat="43.80088" lon="7.07977">
        <ele>1103.4</ele>
        <time>2019-12-30T14:44:21Z</time>
      </trkpt>
      <trkpt lat="43.80088" lon="7.0798">
        <ele>1102.9</ele>
        <time>2019-12-30T14:44:22Z</time>
      </trkpt>
      <trkpt lat="43.80088" lon="7.07982">
        <ele>1102.5</ele>
        <time>2019-12-30T14:44:23Z</time>
      </trkpt>
      <trkpt lat="43.80088" lon="7.07984">
        <ele>1102</ele>
        <time>2019-12-30T14:44:24Z</time>
      </trkpt>
      <trkpt lat="43.80089" lon="7.07986">
        <ele>1101.6</ele>
        <time>2019-12-30T14:44:25Z</time>
      </trkpt>
      <trkpt lat="43.80089" lon="7.07988">
        <ele>1101.2</ele>
        <time>2019-12-30T14:44:26Z</time>
      </trkpt>
      <trkpt lat="43.8009" lon="7.07989">
        <ele>1100.8</ele>
        <time>2019-12-30T14:44:27Z</time>
      </trkpt>
      <trkpt lat="43.80091" lon="7.07991">
        <ele>1100.4</ele>
        <time>2019-12-30T14:44:28Z</time>
      </trkpt>
      <trkpt lat="43.80091" lon="7.07993">
        <ele>1100</ele>
        <time>2019-12-30T14:44:29Z</time>
      </trkpt>
      <trkpt lat="43.80091" lon="7.07996">
        <ele>1099.6</ele>
        <time>2019-12-30T14:44:30Z</time>
      </trkpt>
      <trkpt lat="43.80092" lon="7.07998">
        <ele>1099.2</ele>
        <time>2019-12-30T14:44:31Z</time>
      </trkpt>
      <trkpt lat="43.80092" lon="7.08001">
        <ele>1098.7</ele>
        <time>2019-12-30T14:44:32Z</time>
      </trkpt>
      <trkpt lat="43.80092" lon="7.08005">
        <ele>1098.1</ele>
        <time>2019-12-30T14:44:33Z</time>
      </trkpt>
      <trkpt lat="43.80093" lon="7.08009">
        <ele>1097.4</ele>
        <time>2019-12-30T14:44:34Z</time>
      </trkpt>
      <trkpt lat="43.80094" lon="7.08013">
        <ele>1096.5</ele>
        <time>2019-12-30T14:44:35Z</time>
      </trkpt>
      <trkpt lat="43.80095" lon="7.08017">
        <ele>1095.8</ele>
        <time>2019-12-30T14:44:36Z</time>
      </trkpt>
      <trkpt lat="43.80096" lon="7.08022">
        <ele>1095.1</ele>
        <time>2019-12-30T14:44:37Z</time>
      </trkpt>
      <trkpt lat="43.80098" lon="7.08026">
        <ele>1094.5</ele>
        <time>2019-12-30T14:44:38Z</time>
      </trkpt>
      <trkpt lat="43.80099" lon="7.0803">
        <ele>1093.8</ele>
        <time>2019-12-30T14:44:39Z</time>
      </trkpt>
      <trkpt lat="43.80102" lon="7.08035">
        <ele>1092.7</ele>
        <time>2019-12-30T14:44:40Z</time>
      </trkpt>
      <trkpt lat="43.80102" lon="7.08036">
        <ele>1092.5</ele>
        <time>2019-12-30T14:44:41Z</time>
      </trkpt>
      <trkpt lat="43.80103" lon="7.08037">
        <ele>1092.2</ele>
        <time>2019-12-30T14:44:42Z</time>
      </trkpt>
      <trkpt lat="43.80104" lon="7.08038">
        <ele>1092</ele>
        <time>2019-12-30T14:44:43Z</time>
      </trkpt>
      <trkpt lat="43.80105" lon="7.08039">
        <ele>1091.7</ele>
        <time>2019-12-30T14:44:44Z</time>
      </trkpt>
      <trkpt lat="43.80105" lon="7.0804">
        <ele>1091.5</ele>
        <time>2019-12-30T14:44:45Z</time>
      </trkpt>
      <trkpt lat="43.80106" lon="7.08041">
        <ele>1091.2</ele>
        <time>2019-12-30T14:44:46Z</time>
      </trkpt>
      <trkpt lat="43.80107" lon="7.08042">
        <ele>1091</ele>
        <time>2019-12-30T14:44:47Z</time>
      </trkpt>
      <trkpt lat="43.80107" lon="7.08043">
        <ele>1090.8</ele>
        <time>2019-12-30T14:44:48Z</time>
      </trkpt>
      <trkpt lat="43.80108" lon="7.08043">
        <ele>1090.7</ele>
        <time>2019-12-30T14:44:49Z</time>
      </trkpt>
      <trkpt lat="43.80108" lon="7.08043">
        <ele>1090.7</ele>
        <time>2019-12-30T14:44:50Z</time>
      </trkpt>
      <trkpt lat="43.80108" lon="7.08043">
        <ele>1090.6</ele>
        <time>2019-12-30T14:44:51Z</time>
      </trkpt>
      <trkpt lat="43.80108" lon="7.08044">
        <ele>1090.6</ele>
        <time>2019-12-30T14:44:52Z</time>
      </trkpt>
      <trkpt lat="43.80108" lon="7.08044">
        <ele>1090.5</ele>
        <time>2019-12-30T14:44:53Z</time>
      </trkpt>
      <trkpt lat="43.80108" lon="7.08044">
        <ele>1090.5</ele>
        <time>2019-12-30T14:44:54Z</time>
      </trkpt>
      <trkpt lat="43.80108" lon="7.08044">
        <ele>1090.5</ele>
        <time>2019-12-30T14:44:55Z</time>
      </trkpt>
      <trkpt lat="43.80108" lon="7.08044">
        <ele>1090.5</ele>
        <time>2019-12-30T14:44:56Z</time>
      </trkpt>
      <trkpt lat="43.80108" lon="7.08044">
        <ele>1090.5</ele>
        <time>2019-12-30T14:44:57Z</time>
      </trkpt>
      <trkpt lat="43.80108" lon="7.08044">
        <ele>1090.5</ele>
        <time>2019-12-30T14:44:58Z</time>
      </trkpt>
      <trkpt lat="43.80108" lon="7.08044">
        <ele>1090.5</ele>
        <time>2019-12-30T14:44:59Z</time>
      </trkpt>
      <trkpt lat="43.80108" lon="7.08044">
        <ele>1090.5</ele>
        <time>2019-12-30T14:45:00Z</time>
      </trkpt>
      <trkpt lat="43.80108" lon="7.08044">
        <ele>1090.5</ele>
        <time>2019-12-30T14:45:01Z</time>
      </trkpt>
      <trkpt lat="43.80109" lon="7.08044">
        <ele>1090.5</ele>
        <time>2019-12-30T14:45:02Z</time>
      </trkpt>
      <trkpt lat="43.80109" lon="7.08044">
        <ele>1090.4</ele>
        <time>2019-12-30T14:45:03Z</time>
      </trkpt>
      <trkpt lat="43.80109" lon="7.08044">
        <ele>1090.3</ele>
        <time>2019-12-30T14:45:04Z</time>
      </trkpt>
      <trkpt lat="43.8011" lon="7.08044">
        <ele>1090.1</ele>
        <time>2019-12-30T14:45:05Z</time>
      </trkpt>
      <trkpt lat="43.80111" lon="7.08043">
        <ele>1089.8</ele>
        <time>2019-12-30T14:45:06Z</time>
      </trkpt>
      <trkpt lat="43.80112" lon="7.08043">
        <ele>1089.6</ele>
        <time>2019-12-30T14:45:07Z</time>
      </trkpt>
      <trkpt lat="43.80112" lon="7.08042">
        <ele>1089.3</ele>
        <time>2019-12-30T14:45:08Z</time>
      </trkpt>
      <trkpt lat="43.80111" lon="7.08041">
        <ele>1089.1</ele>
        <time>2019-12-30T14:45:09Z</time>
      </trkpt>
      <trkpt lat="43.8011" lon="7.08042">
        <ele>1088.9</ele>
        <time>2019-12-30T14:45:10Z</time>
      </trkpt>
      <trkpt lat="43.8011" lon="7.08043">
        <ele>1088.8</ele>
        <time>2019-12-30T14:45:11Z</time>
      </trkpt>
      <trkpt lat="43.8011" lon="7.08043">
        <ele>1088.7</ele>
        <time>2019-12-30T14:45:12Z</time>
      </trkpt>
      <trkpt lat="43.8011" lon="7.08043">
        <ele>1088.7</ele>
        <time>2019-12-30T14:45:13Z</time>
      </trkpt>
      <trkpt lat="43.8011" lon="7.08043">
        <ele>1088.7</ele>
        <time>2019-12-30T14:45:14Z</time>
      </trkpt>
      <trkpt lat="43.8011" lon="7.08043">
        <ele>1088.7</ele>
        <time>2019-12-30T14:45:15Z</time>
      </trkpt>
      <trkpt lat="43.8011" lon="7.08043">
        <ele>1088.7</ele>
        <time>2019-12-30T14:45:16Z</time>
      </trkpt>
      <trkpt lat="43.8011" lon="7.08043">
        <ele>1088.7</ele>
        <time>2019-12-30T14:45:17Z</time>
      </trkpt>
      <trkpt lat="43.8011" lon="7.08043">
        <ele>1088.7</ele>
        <time>2019-12-30T14:45:18Z</time>
      </trkpt>
      <trkpt lat="43.8011" lon="7.08043">
        <ele>1088.7</ele>
        <time>2019-12-30T14:45:19Z</time>
      </trkpt>
      <trkpt lat="43.8011" lon="7.08043">
        <ele>1088.7</ele>
        <time>2019-12-30T14:45:20Z</time>
      </trkpt>
      <trkpt lat="43.8011" lon="7.08043">
        <ele>1088.7</ele>
        <time>2019-12-30T14:45:21Z</time>
      </trkpt>
      <trkpt lat="43.8011" lon="7.08043">
        <ele>1088.7</ele>
        <time>2019-12-30T14:45:22Z</time>
      </trkpt>
      <trkpt lat="43.8011" lon="7.08043">
        <ele>1088.7</ele>
        <time>2019-12-30T14:45:23Z</time>
      </trkpt>
      <trkpt lat="43.8011" lon="7.08043">
        <ele>1088.7</ele>
        <time>2019-12-30T14:45:24Z</time>
      </trkpt>
      <trkpt lat="43.8011" lon="7.08043">
        <ele>1088.7</ele>
        <time>2019-12-30T14:45:25Z</time>
      </trkpt>
      <trkpt lat="43.8011" lon="7.08043">
        <ele>1088.7</ele>
        <time>2019-12-30T14:45:26Z</time>
      </trkpt>
      <trkpt lat="43.8011" lon="7.08043">
        <ele>1088.7</ele>
        <time>2019-12-30T14:45:27Z</time>
      </trkpt>
      <trkpt lat="43.8011" lon="7.08043">
        <ele>1088.7</ele>
        <time>2019-12-30T14:45:28Z</time>
      </trkpt>
      <trkpt lat="43.8011" lon="7.08043">
        <ele>1088.7</ele>
        <time>2019-12-30T14:45:29Z</time>
      </trkpt>
      <trkpt lat="43.8011" lon="7.08043">
        <ele>1088.7</ele>
        <time>2019-12-30T14:45:30Z</time>
      </trkpt>
      <trkpt lat="43.8011" lon="7.08043">
        <ele>1088.7</ele>
        <time>2019-12-30T14:45:31Z</time>
      </trkpt>
      <trkpt lat="43.8011" lon="7.08043">
        <ele>1088.7</ele>
        <time>2019-12-30T14:45:32Z</time>
      </trkpt>
      <trkpt lat="43.8011" lon="7.08043">
        <ele>1088.7</ele>
        <time>2019-12-30T14:45:33Z</time>
      </trkpt>
      <trkpt lat="43.8011" lon="7.08043">
        <ele>1088.7</ele>
        <time>2019-12-30T14:45:34Z</time>
      </trkpt>
      <trkpt lat="43.8011" lon="7.08043">
        <ele>1088.7</ele>
        <time>2019-12-30T14:45:35Z</time>
      </trkpt>
      <trkpt lat="43.8011" lon="7.08043">
        <ele>1088.7</ele>
        <time>2019-12-30T14:45:36Z</time>
      </trkpt>
      <trkpt lat="43.8011" lon="7.08043">
        <ele>1088.7</ele>
        <time>2019-12-30T14:45:37Z</time>
      </trkpt>
      <trkpt lat="43.8011" lon="7.08043">
        <ele>1088.7</ele>
        <time>2019-12-30T14:45:38Z</time>
      </trkpt>
      <trkpt lat="43.80111" lon="7.08043">
        <ele>1088.7</ele>
        <time>2019-12-30T14:45:39Z</time>
      </trkpt>
      <trkpt lat="43.80111" lon="7.08043">
        <ele>1088.7</ele>
        <time>2019-12-30T14:45:40Z</time>
      </trkpt>
      <trkpt lat="43.80111" lon="7.08043">
        <ele>1088.6</ele>
        <time>2019-12-30T14:45:41Z</time>
      </trkpt>
      <trkpt lat="43.80111" lon="7.08043">
        <ele>1088.5</ele>
        <time>2019-12-30T14:45:42Z</time>
      </trkpt>
      <trkpt lat="43.80111" lon="7.08043">
        <ele>1088.4</ele>
        <time>2019-12-30T14:45:43Z</time>
      </trkpt>
      <trkpt lat="43.80112" lon="7.08044">
        <ele>1088.4</ele>
        <time>2019-12-30T14:45:44Z</time>
      </trkpt>
      <trkpt lat="43.80112" lon="7.08044">
        <ele>1088.3</ele>
        <time>2019-12-30T14:45:45Z</time>
      </trkpt>
      <trkpt lat="43.80112" lon="7.08044">
        <ele>1088.2</ele>
        <time>2019-12-30T14:45:46Z</time>
      </trkpt>
      <trkpt lat="43.80112" lon="7.08044">
        <ele>1088.2</ele>
        <time>2019-12-30T14:45:47Z</time>
      </trkpt>
      <trkpt lat="43.80112" lon="7.08044">
        <ele>1088.2</ele>
        <time>2019-12-30T14:45:48Z</time>
      </trkpt>
      <trkpt lat="43.80112" lon="7.08044">
        <ele>1088.2</ele>
        <time>2019-12-30T14:45:49Z</time>
      </trkpt>
      <trkpt lat="43.80112" lon="7.08044">
        <ele>1088.2</ele>
        <time>2019-12-30T14:45:50Z</time>
      </trkpt>
      <trkpt lat="43.80112" lon="7.08044">
        <ele>1088.1</ele>
        <time>2019-12-30T14:45:51Z</time>
      </trkpt>
      <trkpt lat="43.80112" lon="7.08044">
        <ele>1088.1</ele>
        <time>2019-12-30T14:45:52Z</time>
      </trkpt>
      <trkpt lat="43.80112" lon="7.08044">
        <ele>1088.1</ele>
        <time>2019-12-30T14:45:53Z</time>
      </trkpt>
      <trkpt lat="43.80112" lon="7.08044">
        <ele>1088.1</ele>
        <time>2019-12-30T14:45:54Z</time>
      </trkpt>
      <trkpt lat="43.80112" lon="7.08044">
        <ele>1088.1</ele>
        <time>2019-12-30T14:45:55Z</time>
      </trkpt>
      <trkpt lat="43.80112" lon="7.08044">
        <ele>1088.1</ele>
        <time>2019-12-30T14:45:56Z</time>
      </trkpt>
      <trkpt lat="43.80112" lon="7.08044">
        <ele>1088.1</ele>
        <time>2019-12-30T14:45:57Z</time>
      </trkpt>
      <trkpt lat="43.80112" lon="7.08044">
        <ele>1088.1</ele>
        <time>2019-12-30T14:45:58Z</time>
      </trkpt>
      <trkpt lat="43.80112" lon="7.08044">
        <ele>1088.1</ele>
        <time>2019-12-30T14:45:59Z</time>
      </trkpt>
      <trkpt lat="43.80112" lon="7.08044">
        <ele>1088.1</ele>
        <time>2019-12-30T14:46:00Z</time>
      </trkpt>
      <trkpt lat="43.80112" lon="7.08044">
        <ele>1088.1</ele>
        <time>2019-12-30T14:46:01Z</time>
      </trkpt>
      <trkpt lat="43.80112" lon="7.08044">
        <ele>1088.1</ele>
        <time>2019-12-30T14:46:02Z</time>
      </trkpt>
      <trkpt lat="43.80112" lon="7.08044">
        <ele>1088.1</ele>
        <time>2019-12-30T14:46:03Z</time>
      </trkpt>
      <trkpt lat="43.80112" lon="7.08044">
        <ele>1088.1</ele>
        <time>2019-12-30T14:46:04Z</time>
      </trkpt>
      <trkpt lat="43.80112" lon="7.08044">
        <ele>1088.1</ele>
        <time>2019-12-30T14:46:05Z</time>
      </trkpt>
      <trkpt lat="43.80112" lon="7.08044">
        <ele>1088.1</ele>
        <time>2019-12-30T14:46:06Z</time>
      </trkpt>
      <trkpt lat="43.80112" lon="7.08044">
        <ele>1088.1</ele>
        <time>2019-12-30T14:46:07Z</time>
      </trkpt>
      <trkpt lat="43.80112" lon="7.08044">
        <ele>1088.1</ele>
        <time>2019-12-30T14:46:08Z</time>
      </trkpt>
      <trkpt lat="43.80112" lon="7.08044">
        <ele>1088.1</ele>
        <time>2019-12-30T14:46:09Z</time>
      </trkpt>
      <trkpt lat="43.80112" lon="7.08044">
        <ele>1088.1</ele>
        <time>2019-12-30T14:46:10Z</time>
      </trkpt>
      <trkpt lat="43.80112" lon="7.08044">
        <ele>1088.1</ele>
        <time>2019-12-30T14:46:11Z</time>
      </trkpt>
      <trkpt lat="43.80112" lon="7.08044">
        <ele>1088.1</ele>
        <time>2019-12-30T14:46:12Z</time>
      </trkpt>
      <trkpt lat="43.80112" lon="7.08044">
        <ele>1088.1</ele>
        <time>2019-12-30T14:46:13Z</time>
      </trkpt>
      <trkpt lat="43.80112" lon="7.08044">
        <ele>1088.1</ele>
        <time>2019-12-30T14:46:14Z</time>
      </trkpt>
      <trkpt lat="43.80112" lon="7.08044">
        <ele>1088.1</ele>
        <time>2019-12-30T14:46:15Z</time>
      </trkpt>
      <trkpt lat="43.80112" lon="7.08044">
        <ele>1088.1</ele>
        <time>2019-12-30T14:46:16Z</time>
      </trkpt>
      <trkpt lat="43.80112" lon="7.08044">
        <ele>1088.1</ele>
        <time>2019-12-30T14:46:17Z</time>
      </trkpt>
      <trkpt lat="43.80112" lon="7.08044">
        <ele>1088.1</ele>
        <time>2019-12-30T14:46:18Z</time>
      </trkpt>
      <trkpt lat="43.80112" lon="7.08044">
        <ele>1088.1</ele>
        <time>2019-12-30T14:46:19Z</time>
      </trkpt>
      <trkpt lat="43.80112" lon="7.08044">
        <ele>1088.1</ele>
        <time>2019-12-30T14:46:20Z</time>
      </trkpt>
      <trkpt lat="43.80112" lon="7.08044">
        <ele>1088.1</ele>
        <time>2019-12-30T14:46:21Z</time>
      </trkpt>
      <trkpt lat="43.80112" lon="7.08044">
        <ele>1088.1</ele>
        <time>2019-12-30T14:46:22Z</time>
      </trkpt>
      <trkpt lat="43.80112" lon="7.08044">
        <ele>1088.1</ele>
        <time>2019-12-30T14:46:23Z</time>
      </trkpt>
      <trkpt lat="43.80112" lon="7.08044">
        <ele>1088.1</ele>
        <time>2019-12-30T14:46:24Z</time>
      </trkpt>
      <trkpt lat="43.80112" lon="7.08044">
        <ele>1088.1</ele>
        <time>2019-12-30T14:46:25Z</time>
      </trkpt>
      <trkpt lat="43.80112" lon="7.08044">
        <ele>1088.1</ele>
        <time>2019-12-30T14:46:26Z</time>
      </trkpt>
      <trkpt lat="43.80112" lon="7.08044">
        <ele>1088.1</ele>
        <time>2019-12-30T14:46:27Z</time>
      </trkpt>
      <trkpt lat="43.80112" lon="7.08044">
        <ele>1088</ele>
        <time>2019-12-30T14:46:28Z</time>
      </trkpt>
      <trkpt lat="43.80112" lon="7.08044">
        <ele>1088</ele>
        <time>2019-12-30T14:46:29Z</time>
      </trkpt>
      <trkpt lat="43.80113" lon="7.08044">
        <ele>1087.9</ele>
        <time>2019-12-30T14:46:30Z</time>
      </trkpt>
      <trkpt lat="43.80113" lon="7.08045">
        <ele>1087.9</ele>
        <time>2019-12-30T14:46:31Z</time>
      </trkpt>
      <trkpt lat="43.80114" lon="7.08045">
        <ele>1087.7</ele>
        <time>2019-12-30T14:46:32Z</time>
      </trkpt>
      <trkpt lat="43.80115" lon="7.08046">
        <ele>1087.4</ele>
        <time>2019-12-30T14:46:33Z</time>
      </trkpt>
      <trkpt lat="43.80116" lon="7.08047">
        <ele>1087</ele>
        <time>2019-12-30T14:46:34Z</time>
      </trkpt>
      <trkpt lat="43.80117" lon="7.08048">
        <ele>1086.8</ele>
        <time>2019-12-30T14:46:35Z</time>
      </trkpt>
      <trkpt lat="43.80118" lon="7.08048">
        <ele>1086.6</ele>
        <time>2019-12-30T14:46:36Z</time>
      </trkpt>
      <trkpt lat="43.80119" lon="7.08049">
        <ele>1086.4</ele>
        <time>2019-12-30T14:46:37Z</time>
      </trkpt>
      <trkpt lat="43.80119" lon="7.08049">
        <ele>1086.3</ele>
        <time>2019-12-30T14:46:38Z</time>
      </trkpt>
      <trkpt lat="43.8012" lon="7.08049">
        <ele>1086.3</ele>
        <time>2019-12-30T14:46:39Z</time>
      </trkpt>
      <trkpt lat="43.8012" lon="7.08049">
        <ele>1086.2</ele>
        <time>2019-12-30T14:46:40Z</time>
      </trkpt>
      <trkpt lat="43.8012" lon="7.08049">
        <ele>1086.2</ele>
        <time>2019-12-30T14:46:41Z</time>
      </trkpt>
      <trkpt lat="43.8012" lon="7.08049">
        <ele>1086.2</ele>
        <time>2019-12-30T14:46:42Z</time>
      </trkpt>
      <trkpt lat="43.8012" lon="7.08049">
        <ele>1086.2</ele>
        <time>2019-12-30T14:46:43Z</time>
      </trkpt>
      <trkpt lat="43.8012" lon="7.08049">
        <ele>1086.2</ele>
        <time>2019-12-30T14:46:44Z</time>
      </trkpt>
      <trkpt lat="43.8012" lon="7.08049">
        <ele>1086.2</ele>
        <time>2019-12-30T14:46:45Z</time>
      </trkpt>
      <trkpt lat="43.8012" lon="7.08049">
        <ele>1086.2</ele>
        <time>2019-12-30T14:46:46Z</time>
      </trkpt>
      <trkpt lat="43.8012" lon="7.08049">
        <ele>1086.2</ele>
        <time>2019-12-30T14:46:47Z</time>
      </trkpt>
      <trkpt lat="43.8012" lon="7.08049">
        <ele>1086.2</ele>
        <time>2019-12-30T14:46:48Z</time>
      </trkpt>
      <trkpt lat="43.8012" lon="7.08049">
        <ele>1086.2</ele>
        <time>2019-12-30T14:46:49Z</time>
      </trkpt>
      <trkpt lat="43.8012" lon="7.08049">
        <ele>1086.1</ele>
        <time>2019-12-30T14:46:50Z</time>
      </trkpt>
      <trkpt lat="43.8012" lon="7.08049">
        <ele>1086.1</ele>
        <time>2019-12-30T14:46:51Z</time>
      </trkpt>
      <trkpt lat="43.8012" lon="7.08049">
        <ele>1086.1</ele>
        <time>2019-12-30T14:46:52Z</time>
      </trkpt>
      <trkpt lat="43.8012" lon="7.08049">
        <ele>1086.1</ele>
        <time>2019-12-30T14:46:53Z</time>
      </trkpt>
      <trkpt lat="43.8012" lon="7.08049">
        <ele>1086.1</ele>
        <time>2019-12-30T14:46:54Z</time>
      </trkpt>
      <trkpt lat="43.8012" lon="7.08049">
        <ele>1086</ele>
        <time>2019-12-30T14:46:55Z</time>
      </trkpt>
      <trkpt lat="43.8012" lon="7.0805">
        <ele>1085.8</ele>
        <time>2019-12-30T14:46:56Z</time>
      </trkpt>
      <trkpt lat="43.80121" lon="7.08051">
        <ele>1085.6</ele>
        <time>2019-12-30T14:46:57Z</time>
      </trkpt>
      <trkpt lat="43.80121" lon="7.08053">
        <ele>1085.4</ele>
        <time>2019-12-30T14:46:58Z</time>
      </trkpt>
      <trkpt lat="43.80122" lon="7.08055">
        <ele>1085.1</ele>
        <time>2019-12-30T14:46:59Z</time>
      </trkpt>
      <trkpt lat="43.80122" lon="7.08057">
        <ele>1084.8</ele>
        <time>2019-12-30T14:47:00Z</time>
      </trkpt>
      <trkpt lat="43.80123" lon="7.08058">
        <ele>1084.6</ele>
        <time>2019-12-30T14:47:01Z</time>
      </trkpt>
      <trkpt lat="43.80123" lon="7.0806">
        <ele>1084.4</ele>
        <time>2019-12-30T14:47:02Z</time>
      </trkpt>
      <trkpt lat="43.80123" lon="7.08061">
        <ele>1084.2</ele>
        <time>2019-12-30T14:47:03Z</time>
      </trkpt>
      <trkpt lat="43.80123" lon="7.08062">
        <ele>1084</ele>
        <time>2019-12-30T14:47:04Z</time>
      </trkpt>
      <trkpt lat="43.80123" lon="7.08064">
        <ele>1083.6</ele>
        <time>2019-12-30T14:47:05Z</time>
      </trkpt>
      <trkpt lat="43.80123" lon="7.08067">
        <ele>1083.2</ele>
        <time>2019-12-30T14:47:06Z</time>
      </trkpt>
      <trkpt lat="43.80124" lon="7.08069">
        <ele>1082.9</ele>
        <time>2019-12-30T14:47:07Z</time>
      </trkpt>
      <trkpt lat="43.80125" lon="7.08072">
        <ele>1082.3</ele>
        <time>2019-12-30T14:47:08Z</time>
      </trkpt>
      <trkpt lat="43.80126" lon="7.08075">
        <ele>1081.7</ele>
        <time>2019-12-30T14:47:09Z</time>
      </trkpt>
      <trkpt lat="43.80127" lon="7.08079">
        <ele>1081.1</ele>
        <time>2019-12-30T14:47:10Z</time>
      </trkpt>
      <trkpt lat="43.80128" lon="7.08082">
        <ele>1080.5</ele>
        <time>2019-12-30T14:47:11Z</time>
      </trkpt>
      <trkpt lat="43.80129" lon="7.08085">
        <ele>1080</ele>
        <time>2019-12-30T14:47:12Z</time>
      </trkpt>
      <trkpt lat="43.8013" lon="7.08087">
        <ele>1079.6</ele>
        <time>2019-12-30T14:47:13Z</time>
      </trkpt>
      <trkpt lat="43.8013" lon="7.08088">
        <ele>1079.5</ele>
        <time>2019-12-30T14:47:14Z</time>
      </trkpt>
      <trkpt lat="43.8013" lon="7.08088">
        <ele>1079.5</ele>
        <time>2019-12-30T14:47:15Z</time>
      </trkpt>
      <trkpt lat="43.8013" lon="7.08088">
        <ele>1079.5</ele>
        <time>2019-12-30T14:47:16Z</time>
      </trkpt>
      <trkpt lat="43.8013" lon="7.08088">
        <ele>1079.4</ele>
        <time>2019-12-30T14:47:17Z</time>
      </trkpt>
      <trkpt lat="43.8013" lon="7.08089">
        <ele>1079.3</ele>
        <time>2019-12-30T14:47:18Z</time>
      </trkpt>
      <trkpt lat="43.8013" lon="7.08089">
        <ele>1079.2</ele>
        <time>2019-12-30T14:47:19Z</time>
      </trkpt>
      <trkpt lat="43.80131" lon="7.08089">
        <ele>1079.2</ele>
        <time>2019-12-30T14:47:20Z</time>
      </trkpt>
      <trkpt lat="43.80131" lon="7.08089">
        <ele>1079.1</ele>
        <time>2019-12-30T14:47:21Z</time>
      </trkpt>
      <trkpt lat="43.80131" lon="7.08089">
        <ele>1079.1</ele>
        <time>2019-12-30T14:47:22Z</time>
      </trkpt>
      <trkpt lat="43.80132" lon="7.08089">
        <ele>1078.9</ele>
        <time>2019-12-30T14:47:23Z</time>
      </trkpt>
      <trkpt lat="43.80134" lon="7.0809">
        <ele>1078.3</ele>
        <time>2019-12-30T14:47:24Z</time>
      </trkpt>
      <trkpt lat="43.80137" lon="7.08091">
        <ele>1077.5</ele>
        <time>2019-12-30T14:47:25Z</time>
      </trkpt>
      <trkpt lat="43.80139" lon="7.08092">
        <ele>1077</ele>
        <time>2019-12-30T14:47:26Z</time>
      </trkpt>
      <trkpt lat="43.80139" lon="7.08092">
        <ele>1076.8</ele>
        <time>2019-12-30T14:47:27Z</time>
      </trkpt>
      <trkpt lat="43.80139" lon="7.08092">
        <ele>1076.8</ele>
        <time>2019-12-30T14:47:28Z</time>
      </trkpt>
      <trkpt lat="43.80139" lon="7.08092">
        <ele>1076.8</ele>
        <time>2019-12-30T14:47:29Z</time>
      </trkpt>
      <trkpt lat="43.8014" lon="7.08092">
        <ele>1076.7</ele>
        <time>2019-12-30T14:47:30Z</time>
      </trkpt>
      <trkpt lat="43.8014" lon="7.08092">
        <ele>1076.7</ele>
        <time>2019-12-30T14:47:31Z</time>
      </trkpt>
      <trkpt lat="43.8014" lon="7.08092">
        <ele>1076.7</ele>
        <time>2019-12-30T14:47:32Z</time>
      </trkpt>
      <trkpt lat="43.8014" lon="7.08092">
        <ele>1076.7</ele>
        <time>2019-12-30T14:47:33Z</time>
      </trkpt>
      <trkpt lat="43.8014" lon="7.08092">
        <ele>1076.7</ele>
        <time>2019-12-30T14:47:34Z</time>
      </trkpt>
      <trkpt lat="43.8014" lon="7.08092">
        <ele>1076.7</ele>
        <time>2019-12-30T14:47:35Z</time>
      </trkpt>
      <trkpt lat="43.8014" lon="7.08092">
        <ele>1076.6</ele>
        <time>2019-12-30T14:47:36Z</time>
      </trkpt>
      <trkpt lat="43.8014" lon="7.08092">
        <ele>1076.6</ele>
        <time>2019-12-30T14:47:37Z</time>
      </trkpt>
      <trkpt lat="43.8014" lon="7.08092">
        <ele>1076.6</ele>
        <time>2019-12-30T14:47:38Z</time>
      </trkpt>
      <trkpt lat="43.8014" lon="7.08092">
        <ele>1076.6</ele>
        <time>2019-12-30T14:47:39Z</time>
      </trkpt>
      <trkpt lat="43.8014" lon="7.08092">
        <ele>1076.6</ele>
        <time>2019-12-30T14:47:40Z</time>
      </trkpt>
      <trkpt lat="43.8014" lon="7.08092">
        <ele>1076.6</ele>
        <time>2019-12-30T14:47:41Z</time>
      </trkpt>
      <trkpt lat="43.8014" lon="7.08092">
        <ele>1076.6</ele>
        <time>2019-12-30T14:47:42Z</time>
      </trkpt>
      <trkpt lat="43.8014" lon="7.08092">
        <ele>1076.6</ele>
        <time>2019-12-30T14:47:43Z</time>
      </trkpt>
      <trkpt lat="43.8014" lon="7.08092">
        <ele>1076.6</ele>
        <time>2019-12-30T14:47:44Z</time>
      </trkpt>
      <trkpt lat="43.8014" lon="7.08092">
        <ele>1076.6</ele>
        <time>2019-12-30T14:47:45Z</time>
      </trkpt>
      <trkpt lat="43.8014" lon="7.08092">
        <ele>1076.6</ele>
        <time>2019-12-30T14:47:46Z</time>
      </trkpt>
      <trkpt lat="43.8014" lon="7.08092">
        <ele>1076.6</ele>
        <time>2019-12-30T14:47:47Z</time>
      </trkpt>
      <trkpt lat="43.8014" lon="7.08092">
        <ele>1076.6</ele>
        <time>2019-12-30T14:47:48Z</time>
      </trkpt>
      <trkpt lat="43.8014" lon="7.08092">
        <ele>1076.6</ele>
        <time>2019-12-30T14:47:49Z</time>
      </trkpt>
      <trkpt lat="43.8014" lon="7.08092">
        <ele>1076.6</ele>
        <time>2019-12-30T14:47:50Z</time>
      </trkpt>
      <trkpt lat="43.8014" lon="7.08092">
        <ele>1076.6</ele>
        <time>2019-12-30T14:47:51Z</time>
      </trkpt>
      <trkpt lat="43.8014" lon="7.08092">
        <ele>1076.5</ele>
        <time>2019-12-30T14:47:52Z</time>
      </trkpt>
      <trkpt lat="43.8014" lon="7.08093">
        <ele>1076.5</ele>
        <time>2019-12-30T14:47:53Z</time>
      </trkpt>
      <trkpt lat="43.8014" lon="7.08093">
        <ele>1076.5</ele>
        <time>2019-12-30T14:47:54Z</time>
      </trkpt>
      <trkpt lat="43.8014" lon="7.08093">
        <ele>1076.5</ele>
        <time>2019-12-30T14:47:55Z</time>
      </trkpt>
      <trkpt lat="43.8014" lon="7.08093">
        <ele>1076.4</ele>
        <time>2019-12-30T14:47:56Z</time>
      </trkpt>
      <trkpt lat="43.8014" lon="7.08093">
        <ele>1076.4</ele>
        <time>2019-12-30T14:47:57Z</time>
      </trkpt>
      <trkpt lat="43.8014" lon="7.08093">
        <ele>1076.4</ele>
        <time>2019-12-30T14:47:58Z</time>
      </trkpt>
      <trkpt lat="43.8014" lon="7.08093">
        <ele>1076.4</ele>
        <time>2019-12-30T14:47:59Z</time>
      </trkpt>
      <trkpt lat="43.8014" lon="7.08093">
        <ele>1076.3</ele>
        <time>2019-12-30T14:48:00Z</time>
      </trkpt>
      <trkpt lat="43.8014" lon="7.08093">
        <ele>1076.3</ele>
        <time>2019-12-30T14:48:01Z</time>
      </trkpt>
      <trkpt lat="43.8014" lon="7.08093">
        <ele>1076.3</ele>
        <time>2019-12-30T14:48:02Z</time>
      </trkpt>
      <trkpt lat="43.8014" lon="7.08093">
        <ele>1076.3</ele>
        <time>2019-12-30T14:48:03Z</time>
      </trkpt>
      <trkpt lat="43.8014" lon="7.08093">
        <ele>1076.3</ele>
        <time>2019-12-30T14:48:04Z</time>
      </trkpt>
      <trkpt lat="43.8014" lon="7.08093">
        <ele>1076.2</ele>
        <time>2019-12-30T14:48:05Z</time>
      </trkpt>
      <trkpt lat="43.80141" lon="7.08093">
        <ele>1076.1</ele>
        <time>2019-12-30T14:48:06Z</time>
      </trkpt>
      <trkpt lat="43.80142" lon="7.08094">
        <ele>1075.9</ele>
        <time>2019-12-30T14:48:07Z</time>
      </trkpt>
      <trkpt lat="43.80142" lon="7.08094">
        <ele>1075.7</ele>
        <time>2019-12-30T14:48:08Z</time>
      </trkpt>
      <trkpt lat="43.80143" lon="7.08095">
        <ele>1075.5</ele>
        <time>2019-12-30T14:48:09Z</time>
      </trkpt>
      <trkpt lat="43.80143" lon="7.08095">
        <ele>1075.3</ele>
        <time>2019-12-30T14:48:10Z</time>
      </trkpt>
      <trkpt lat="43.80144" lon="7.08095">
        <ele>1075.1</ele>
        <time>2019-12-30T14:48:11Z</time>
      </trkpt>
      <trkpt lat="43.80144" lon="7.08096">
        <ele>1075</ele>
        <time>2019-12-30T14:48:12Z</time>
      </trkpt>
      <trkpt lat="43.80145" lon="7.08097">
        <ele>1074.8</ele>
        <time>2019-12-30T14:48:13Z</time>
      </trkpt>
      <trkpt lat="43.80145" lon="7.08098">
        <ele>1074.6</ele>
        <time>2019-12-30T14:48:14Z</time>
      </trkpt>
      <trkpt lat="43.80146" lon="7.08098">
        <ele>1074.4</ele>
        <time>2019-12-30T14:48:15Z</time>
      </trkpt>
      <trkpt lat="43.80146" lon="7.08099">
        <ele>1074.3</ele>
        <time>2019-12-30T14:48:16Z</time>
      </trkpt>
      <trkpt lat="43.80146" lon="7.08099">
        <ele>1074.2</ele>
        <time>2019-12-30T14:48:17Z</time>
      </trkpt>
      <trkpt lat="43.80146" lon="7.08099">
        <ele>1074.2</ele>
        <time>2019-12-30T14:48:18Z</time>
      </trkpt>
      <trkpt lat="43.80146" lon="7.081">
        <ele>1074.2</ele>
        <time>2019-12-30T14:48:19Z</time>
      </trkpt>
      <trkpt lat="43.80146" lon="7.081">
        <ele>1074.1</ele>
        <time>2019-12-30T14:48:20Z</time>
      </trkpt>
      <trkpt lat="43.80146" lon="7.08102">
        <ele>1073.7</ele>
        <time>2019-12-30T14:48:21Z</time>
      </trkpt>
      <trkpt lat="43.80147" lon="7.08105">
        <ele>1073</ele>
        <time>2019-12-30T14:48:22Z</time>
      </trkpt>
      <trkpt lat="43.80147" lon="7.08109">
        <ele>1072.3</ele>
        <time>2019-12-30T14:48:23Z</time>
      </trkpt>
      <trkpt lat="43.80147" lon="7.08112">
        <ele>1071.8</ele>
        <time>2019-12-30T14:48:24Z</time>
      </trkpt>
      <trkpt lat="43.80148" lon="7.08114">
        <ele>1071.3</ele>
        <time>2019-12-30T14:48:25Z</time>
      </trkpt>
      <trkpt lat="43.80148" lon="7.08117">
        <ele>1070.9</ele>
        <time>2019-12-30T14:48:26Z</time>
      </trkpt>
      <trkpt lat="43.80149" lon="7.0812">
        <ele>1070.4</ele>
        <time>2019-12-30T14:48:27Z</time>
      </trkpt>
      <trkpt lat="43.80149" lon="7.08123">
        <ele>1069.9</ele>
        <time>2019-12-30T14:48:28Z</time>
      </trkpt>
      <trkpt lat="43.80149" lon="7.08125">
        <ele>1069.5</ele>
        <time>2019-12-30T14:48:29Z</time>
      </trkpt>
      <trkpt lat="43.8015" lon="7.08127">
        <ele>1069.2</ele>
        <time>2019-12-30T14:48:30Z</time>
      </trkpt>
      <trkpt lat="43.8015" lon="7.08128">
        <ele>1069</ele>
        <time>2019-12-30T14:48:31Z</time>
      </trkpt>
      <trkpt lat="43.8015" lon="7.08129">
        <ele>1068.8</ele>
        <time>2019-12-30T14:48:32Z</time>
      </trkpt>
      <trkpt lat="43.80151" lon="7.0813">
        <ele>1068.6</ele>
        <time>2019-12-30T14:48:33Z</time>
      </trkpt>
      <trkpt lat="43.80151" lon="7.08131">
        <ele>1068.4</ele>
        <time>2019-12-30T14:48:34Z</time>
      </trkpt>
      <trkpt lat="43.80151" lon="7.08132">
        <ele>1068.3</ele>
        <time>2019-12-30T14:48:35Z</time>
      </trkpt>
      <trkpt lat="43.80152" lon="7.08133">
        <ele>1068.1</ele>
        <time>2019-12-30T14:48:36Z</time>
      </trkpt>
      <trkpt lat="43.80152" lon="7.08134">
        <ele>1068</ele>
        <time>2019-12-30T14:48:37Z</time>
      </trkpt>
      <trkpt lat="43.80152" lon="7.08134">
        <ele>1067.8</ele>
        <time>2019-12-30T14:48:38Z</time>
      </trkpt>
      <trkpt lat="43.80153" lon="7.08135">
        <ele>1067.7</ele>
        <time>2019-12-30T14:48:39Z</time>
      </trkpt>
      <trkpt lat="43.80153" lon="7.08135">
        <ele>1067.7</ele>
        <time>2019-12-30T14:48:40Z</time>
      </trkpt>
      <trkpt lat="43.80153" lon="7.08135">
        <ele>1067.6</ele>
        <time>2019-12-30T14:48:41Z</time>
      </trkpt>
      <trkpt lat="43.80153" lon="7.08135">
        <ele>1067.6</ele>
        <time>2019-12-30T14:48:42Z</time>
      </trkpt>
      <trkpt lat="43.80153" lon="7.08135">
        <ele>1067.6</ele>
        <time>2019-12-30T14:48:43Z</time>
      </trkpt>
      <trkpt lat="43.80153" lon="7.08136">
        <ele>1067.6</ele>
        <time>2019-12-30T14:48:44Z</time>
      </trkpt>
      <trkpt lat="43.80153" lon="7.08136">
        <ele>1067.6</ele>
        <time>2019-12-30T14:48:45Z</time>
      </trkpt>
      <trkpt lat="43.80153" lon="7.08135">
        <ele>1067.6</ele>
        <time>2019-12-30T14:48:46Z</time>
      </trkpt>
      <trkpt lat="43.80153" lon="7.08135">
        <ele>1067.6</ele>
        <time>2019-12-30T14:48:47Z</time>
      </trkpt>
      <trkpt lat="43.80153" lon="7.08136">
        <ele>1067.5</ele>
        <time>2019-12-30T14:48:48Z</time>
      </trkpt>
      <trkpt lat="43.80153" lon="7.08136">
        <ele>1067.5</ele>
        <time>2019-12-30T14:48:49Z</time>
      </trkpt>
      <trkpt lat="43.80153" lon="7.08136">
        <ele>1067.5</ele>
        <time>2019-12-30T14:48:50Z</time>
      </trkpt>
      <trkpt lat="43.80154" lon="7.08136">
        <ele>1067.3</ele>
        <time>2019-12-30T14:48:51Z</time>
      </trkpt>
      <trkpt lat="43.80155" lon="7.08136">
        <ele>1066.7</ele>
        <time>2019-12-30T14:48:52Z</time>
      </trkpt>
      <trkpt lat="43.80157" lon="7.08138">
        <ele>1066.5</ele>
        <time>2019-12-30T14:48:53Z</time>
      </trkpt>
      <trkpt lat="43.80161" lon="7.08138">
        <ele>1065.1</ele>
        <time>2019-12-30T14:48:54Z</time>
      </trkpt>
      <trkpt lat="43.80163" lon="7.0814">
        <ele>1065.1</ele>
        <time>2019-12-30T14:48:55Z</time>
      </trkpt>
      <trkpt lat="43.80165" lon="7.08138">
        <ele>1064.2</ele>
        <time>2019-12-30T14:48:56Z</time>
      </trkpt>
      <trkpt lat="43.80167" lon="7.08136">
        <ele>1064.4</ele>
        <time>2019-12-30T14:48:57Z</time>
      </trkpt>
      <trkpt lat="43.80169" lon="7.08134">
        <ele>1063.5</ele>
        <time>2019-12-30T14:48:58Z</time>
      </trkpt>
      <trkpt lat="43.80171" lon="7.08132">
        <ele>1062.7</ele>
        <time>2019-12-30T14:48:59Z</time>
      </trkpt>
      <trkpt lat="43.80176" lon="7.0813">
        <ele>1061.8</ele>
        <time>2019-12-30T14:49:00Z</time>
      </trkpt>
      <trkpt lat="43.8018" lon="7.08129">
        <ele>1060</ele>
        <time>2019-12-30T14:49:01Z</time>
      </trkpt>
      <trkpt lat="43.80186" lon="7.08128">
        <ele>1058.2</ele>
        <time>2019-12-30T14:49:02Z</time>
      </trkpt>
      <trkpt lat="43.80188" lon="7.08127">
        <ele>1058.2</ele>
        <time>2019-12-30T14:49:03Z</time>
      </trkpt>
      <trkpt lat="43.80192" lon="7.08127">
        <ele>1056</ele>
        <time>2019-12-30T14:49:04Z</time>
      </trkpt>
      <trkpt lat="43.80196" lon="7.08126">
        <ele>1054.8</ele>
        <time>2019-12-30T14:49:05Z</time>
      </trkpt>
      <trkpt lat="43.802" lon="7.08127">
        <ele>1053.6</ele>
        <time>2019-12-30T14:49:06Z</time>
      </trkpt>
      <trkpt lat="43.80206" lon="7.08132">
        <ele>1051.3</ele>
        <time>2019-12-30T14:49:07Z</time>
      </trkpt>
      <trkpt lat="43.80208" lon="7.08134">
        <ele>1050.2</ele>
        <time>2019-12-30T14:49:08Z</time>
      </trkpt>
      <trkpt lat="43.80211" lon="7.08137">
        <ele>1049.1</ele>
        <time>2019-12-30T14:49:09Z</time>
      </trkpt>
      <trkpt lat="43.80213" lon="7.0814">
        <ele>1049</ele>
        <time>2019-12-30T14:49:10Z</time>
      </trkpt>
      <trkpt lat="43.80216" lon="7.08145">
        <ele>1047.7</ele>
        <time>2019-12-30T14:49:11Z</time>
      </trkpt>
      <trkpt lat="43.80219" lon="7.08151">
        <ele>1046.3</ele>
        <time>2019-12-30T14:49:12Z</time>
      </trkpt>
      <trkpt lat="43.80221" lon="7.08158">
        <ele>1044.9</ele>
        <time>2019-12-30T14:49:13Z</time>
      </trkpt>
      <trkpt lat="43.80223" lon="7.08164">
        <ele>1043.4</ele>
        <time>2019-12-30T14:49:14Z</time>
      </trkpt>
      <trkpt lat="43.80225" lon="7.08169">
        <ele>1043.4</ele>
        <time>2019-12-30T14:49:15Z</time>
      </trkpt>
      <trkpt lat="43.80227" lon="7.08174">
        <ele>1042.2</ele>
        <time>2019-12-30T14:49:16Z</time>
      </trkpt>
      <trkpt lat="43.8023" lon="7.08178">
        <ele>1041</ele>
        <time>2019-12-30T14:49:17Z</time>
      </trkpt>
      <trkpt lat="43.80233" lon="7.08182">
        <ele>1040</ele>
        <time>2019-12-30T14:49:18Z</time>
      </trkpt>
      <trkpt lat="43.80236" lon="7.08185">
        <ele>1039</ele>
        <time>2019-12-30T14:49:19Z</time>
      </trkpt>
      <trkpt lat="43.80239" lon="7.08189">
        <ele>1037.9</ele>
        <time>2019-12-30T14:49:20Z</time>
      </trkpt>
      <trkpt lat="43.80243" lon="7.08192">
        <ele>1036.8</ele>
        <time>2019-12-30T14:49:21Z</time>
      </trkpt>
      <trkpt lat="43.80246" lon="7.08195">
        <ele>1035.7</ele>
        <time>2019-12-30T14:49:22Z</time>
      </trkpt>
      <trkpt lat="43.8025" lon="7.08199">
        <ele>1034.6</ele>
        <time>2019-12-30T14:49:23Z</time>
      </trkpt>
      <trkpt lat="43.80253" lon="7.08202">
        <ele>1033.4</ele>
        <time>2019-12-30T14:49:24Z</time>
      </trkpt>
      <trkpt lat="43.80256" lon="7.08205">
        <ele>1032.3</ele>
        <time>2019-12-30T14:49:25Z</time>
      </trkpt>
      <trkpt lat="43.80259" lon="7.08208">
        <ele>1031.2</ele>
        <time>2019-12-30T14:49:26Z</time>
      </trkpt>
      <trkpt lat="43.80262" lon="7.08212">
        <ele>1030.2</ele>
        <time>2019-12-30T14:49:27Z</time>
      </trkpt>
      <trkpt lat="43.80266" lon="7.0822">
        <ele>1029.3</ele>
        <time>2019-12-30T14:49:28Z</time>
      </trkpt>
      <trkpt lat="43.80267" lon="7.08224">
        <ele>1028.3</ele>
        <time>2019-12-30T14:49:29Z</time>
      </trkpt>
      <trkpt lat="43.80269" lon="7.08228">
        <ele>1028.4</ele>
        <time>2019-12-30T14:49:30Z</time>
      </trkpt>
      <trkpt lat="43.8027" lon="7.08236">
        <ele>1027.4</ele>
        <time>2019-12-30T14:49:31Z</time>
      </trkpt>
      <trkpt lat="43.80271" lon="7.08244">
        <ele>1027.4</ele>
        <time>2019-12-30T14:49:32Z</time>
      </trkpt>
      <trkpt lat="43.80272" lon="7.08252">
        <ele>1027.3</ele>
        <time>2019-12-30T14:49:33Z</time>
      </trkpt>
      <trkpt lat="43.80275" lon="7.0826">
        <ele>1025.9</ele>
        <time>2019-12-30T14:49:34Z</time>
      </trkpt>
      <trkpt lat="43.80279" lon="7.08272">
        <ele>1023.8</ele>
        <time>2019-12-30T14:49:35Z</time>
      </trkpt>
      <trkpt lat="43.8028" lon="7.08277">
        <ele>1022.2</ele>
        <time>2019-12-30T14:49:36Z</time>
      </trkpt>
      <trkpt lat="43.80281" lon="7.08282">
        <ele>1021.8</ele>
        <time>2019-12-30T14:49:37Z</time>
      </trkpt>
      <trkpt lat="43.80283" lon="7.08287">
        <ele>1019.4</ele>
        <time>2019-12-30T14:49:38Z</time>
      </trkpt>
      <trkpt lat="43.80284" lon="7.08292">
        <ele>1018.7</ele>
        <time>2019-12-30T14:49:39Z</time>
      </trkpt>
      <trkpt lat="43.80282" lon="7.08291">
        <ele>1019</ele>
        <time>2019-12-30T14:49:40Z</time>
      </trkpt>
      <trkpt lat="43.80282" lon="7.0829">
        <ele>1021</ele>
        <time>2019-12-30T14:49:41Z</time>
      </trkpt>
      <trkpt lat="43.80281" lon="7.0829">
        <ele>1021</ele>
        <time>2019-12-30T14:49:42Z</time>
      </trkpt>
      <trkpt lat="43.80281" lon="7.0829">
        <ele>1021</ele>
        <time>2019-12-30T14:49:43Z</time>
      </trkpt>
      <trkpt lat="43.80281" lon="7.0829">
        <ele>1021</ele>
        <time>2019-12-30T14:49:44Z</time>
      </trkpt>
      <trkpt lat="43.80281" lon="7.0829">
        <ele>1021</ele>
        <time>2019-12-30T14:49:45Z</time>
      </trkpt>
      <trkpt lat="43.80281" lon="7.0829">
        <ele>1021</ele>
        <time>2019-12-30T14:49:46Z</time>
      </trkpt>
      <trkpt lat="43.80281" lon="7.0829">
        <ele>1021</ele>
        <time>2019-12-30T14:49:47Z</time>
      </trkpt>
      <trkpt lat="43.80281" lon="7.0829">
        <ele>1021</ele>
        <time>2019-12-30T14:49:48Z</time>
      </trkpt>
      <trkpt lat="43.80281" lon="7.0829">
        <ele>1021</ele>
        <time>2019-12-30T14:49:49Z</time>
      </trkpt>
      <trkpt lat="43.80281" lon="7.0829">
        <ele>1021</ele>
        <time>2019-12-30T14:49:50Z</time>
      </trkpt>
      <trkpt lat="43.80281" lon="7.0829">
        <ele>1021</ele>
        <time>2019-12-30T14:49:51Z</time>
      </trkpt>
      <trkpt lat="43.80281" lon="7.0829">
        <ele>1021</ele>
        <time>2019-12-30T14:49:52Z</time>
      </trkpt>
      <trkpt lat="43.80281" lon="7.0829">
        <ele>1021</ele>
        <time>2019-12-30T14:49:53Z</time>
      </trkpt>
      <trkpt lat="43.80281" lon="7.0829">
        <ele>1021</ele>
        <time>2019-12-30T14:49:54Z</time>
      </trkpt>
      <trkpt lat="43.80281" lon="7.0829">
        <ele>1021</ele>
        <time>2019-12-30T14:49:55Z</time>
      </trkpt>
      <trkpt lat="43.80281" lon="7.0829">
        <ele>1021</ele>
        <time>2019-12-30T14:49:56Z</time>
      </trkpt>
      <trkpt lat="43.80281" lon="7.0829">
        <ele>1021</ele>
        <time>2019-12-30T14:49:57Z</time>
      </trkpt>
      <trkpt lat="43.80281" lon="7.0829">
        <ele>1021</ele>
        <time>2019-12-30T14:49:58Z</time>
      </trkpt>
      <trkpt lat="43.80281" lon="7.0829">
        <ele>1021</ele>
        <time>2019-12-30T14:49:59Z</time>
      </trkpt>
      <trkpt lat="43.80281" lon="7.0829">
        <ele>1021</ele>
        <time>2019-12-30T14:50:00Z</time>
      </trkpt>
      <trkpt lat="43.80281" lon="7.0829">
        <ele>1021</ele>
        <time>2019-12-30T14:50:01Z</time>
      </trkpt>
      <trkpt lat="43.80281" lon="7.0829">
        <ele>1021</ele>
        <time>2019-12-30T14:50:02Z</time>
      </trkpt>
      <trkpt lat="43.80281" lon="7.0829">
        <ele>1021</ele>
        <time>2019-12-30T14:50:03Z</time>
      </trkpt>
      <trkpt lat="43.80281" lon="7.0829">
        <ele>1021</ele>
        <time>2019-12-30T14:50:04Z</time>
      </trkpt>
      <trkpt lat="43.80281" lon="7.0829">
        <ele>1021</ele>
        <time>2019-12-30T14:50:05Z</time>
      </trkpt>
      <trkpt lat="43.80281" lon="7.0829">
        <ele>1021</ele>
        <time>2019-12-30T14:50:06Z</time>
      </trkpt>
      <trkpt lat="43.80281" lon="7.0829">
        <ele>1021</ele>
        <time>2019-12-30T14:50:07Z</time>
      </trkpt>
      <trkpt lat="43.80281" lon="7.0829">
        <ele>1021</ele>
        <time>2019-12-30T14:50:08Z</time>
      </trkpt>
      <trkpt lat="43.80281" lon="7.0829">
        <ele>1021</ele>
        <time>2019-12-30T14:50:09Z</time>
      </trkpt>
      <trkpt lat="43.80281" lon="7.0829">
        <ele>1021</ele>
        <time>2019-12-30T14:50:10Z</time>
      </trkpt>
      <trkpt lat="43.80281" lon="7.0829">
        <ele>1021</ele>
        <time>2019-12-30T14:50:11Z</time>
      </trkpt>
      <trkpt lat="43.80281" lon="7.0829">
        <ele>1021</ele>
        <time>2019-12-30T14:50:12Z</time>
      </trkpt>
      <trkpt lat="43.80281" lon="7.0829">
        <ele>1021</ele>
        <time>2019-12-30T14:50:13Z</time>
      </trkpt>
      <trkpt lat="43.80281" lon="7.0829">
        <ele>1021</ele>
        <time>2019-12-30T14:50:14Z</time>
      </trkpt>
      <trkpt lat="43.80281" lon="7.0829">
        <ele>1021</ele>
        <time>2019-12-30T14:50:15Z</time>
      </trkpt>
      <trkpt lat="43.80281" lon="7.0829">
        <ele>1021</ele>
        <time>2019-12-30T14:50:16Z</time>
      </trkpt>
      <trkpt lat="43.80281" lon="7.0829">
        <ele>1021</ele>
        <time>2019-12-30T14:50:17Z</time>
      </trkpt>
      <trkpt lat="43.80281" lon="7.0829">
        <ele>1021</ele>
        <time>2019-12-30T14:50:18Z</time>
      </trkpt>
      <trkpt lat="43.80281" lon="7.0829">
        <ele>1021</ele>
        <time>2019-12-30T14:50:19Z</time>
      </trkpt>
      <trkpt lat="43.80281" lon="7.0829">
        <ele>1021</ele>
        <time>2019-12-30T14:50:20Z</time>
      </trkpt>
      <trkpt lat="43.80281" lon="7.0829">
        <ele>1021</ele>
        <time>2019-12-30T14:50:21Z</time>
      </trkpt>
      <trkpt lat="43.80281" lon="7.0829">
        <ele>1021</ele>
        <time>2019-12-30T14:50:22Z</time>
      </trkpt>
      <trkpt lat="43.80281" lon="7.0829">
        <ele>1021</ele>
        <time>2019-12-30T14:50:23Z</time>
      </trkpt>
      <trkpt lat="43.80281" lon="7.0829">
        <ele>1021</ele>
        <time>2019-12-30T14:50:24Z</time>
      </trkpt>
      <trkpt lat="43.80281" lon="7.0829">
        <ele>1021</ele>
        <time>2019-12-30T14:50:25Z</time>
      </trkpt>
      <trkpt lat="43.80281" lon="7.0829">
        <ele>1021</ele>
        <time>2019-12-30T14:50:26Z</time>
      </trkpt>
      <trkpt lat="43.80281" lon="7.0829">
        <ele>1021</ele>
        <time>2019-12-30T14:50:27Z</time>
      </trkpt>
      <trkpt lat="43.80281" lon="7.0829">
        <ele>1021</ele>
        <time>2019-12-30T14:50:28Z</time>
      </trkpt>
      <trkpt lat="43.80281" lon="7.0829">
        <ele>1021</ele>
        <time>2019-12-30T14:50:29Z</time>
      </trkpt>
      <trkpt lat="43.80281" lon="7.0829">
        <ele>1021</ele>
        <time>2019-12-30T14:50:30Z</time>
      </trkpt>
      <trkpt lat="43.80281" lon="7.0829">
        <ele>1021</ele>
        <time>2019-12-30T14:50:31Z</time>
      </trkpt>
      <trkpt lat="43.80281" lon="7.0829">
        <ele>1021</ele>
        <time>2019-12-30T14:50:32Z</time>
      </trkpt>
      <trkpt lat="43.80281" lon="7.0829">
        <ele>1021</ele>
        <time>2019-12-30T14:50:33Z</time>
      </trkpt>
      <trkpt lat="43.80281" lon="7.0829">
        <ele>1021</ele>
        <time>2019-12-30T14:50:34Z</time>
      </trkpt>
      <trkpt lat="43.80281" lon="7.0829">
        <ele>1021</ele>
        <time>2019-12-30T14:50:35Z</time>
      </trkpt>
      <trkpt lat="43.80281" lon="7.0829">
        <ele>1021</ele>
        <time>2019-12-30T14:50:36Z</time>
      </trkpt>
      <trkpt lat="43.80281" lon="7.08289">
        <ele>1021</ele>
        <time>2019-12-30T14:50:37Z</time>
      </trkpt>
      <trkpt lat="43.80282" lon="7.08289">
        <ele>1021</ele>
        <time>2019-12-30T14:50:38Z</time>
      </trkpt>
      <trkpt lat="43.80282" lon="7.08289">
        <ele>1019</ele>
        <time>2019-12-30T14:50:39Z</time>
      </trkpt>
      <trkpt lat="43.80282" lon="7.08288">
        <ele>1019</ele>
        <time>2019-12-30T14:50:40Z</time>
      </trkpt>
      <trkpt lat="43.80283" lon="7.08288">
        <ele>1019</ele>
        <time>2019-12-30T14:50:41Z</time>
      </trkpt>
      <trkpt lat="43.80283" lon="7.08288">
        <ele>1019.4</ele>
        <time>2019-12-30T14:50:42Z</time>
      </trkpt>
      <trkpt lat="43.80283" lon="7.08288">
        <ele>1019.4</ele>
        <time>2019-12-30T14:50:43Z</time>
      </trkpt>
      <trkpt lat="43.80283" lon="7.08288">
        <ele>1019.4</ele>
        <time>2019-12-30T14:50:44Z</time>
      </trkpt>
      <trkpt lat="43.80283" lon="7.08288">
        <ele>1019.4</ele>
        <time>2019-12-30T14:50:45Z</time>
      </trkpt>
      <trkpt lat="43.80283" lon="7.08288">
        <ele>1019.4</ele>
        <time>2019-12-30T14:50:46Z</time>
      </trkpt>
      <trkpt lat="43.80283" lon="7.08288">
        <ele>1019.4</ele>
        <time>2019-12-30T14:50:47Z</time>
      </trkpt>
      <trkpt lat="43.80283" lon="7.08288">
        <ele>1019.4</ele>
        <time>2019-12-30T14:50:48Z</time>
      </trkpt>
      <trkpt lat="43.80283" lon="7.08288">
        <ele>1019.4</ele>
        <time>2019-12-30T14:50:49Z</time>
      </trkpt>
      <trkpt lat="43.80283" lon="7.08288">
        <ele>1019.4</ele>
        <time>2019-12-30T14:50:50Z</time>
      </trkpt>
      <trkpt lat="43.80283" lon="7.08288">
        <ele>1019.4</ele>
        <time>2019-12-30T14:50:51Z</time>
      </trkpt>
      <trkpt lat="43.80283" lon="7.08288">
        <ele>1019.4</ele>
        <time>2019-12-30T14:50:52Z</time>
      </trkpt>
      <trkpt lat="43.80283" lon="7.08288">
        <ele>1019.4</ele>
        <time>2019-12-30T14:50:53Z</time>
      </trkpt>
      <trkpt lat="43.80283" lon="7.08288">
        <ele>1019.4</ele>
        <time>2019-12-30T14:50:54Z</time>
      </trkpt>
      <trkpt lat="43.80283" lon="7.08288">
        <ele>1019.4</ele>
        <time>2019-12-30T14:50:55Z</time>
      </trkpt>
      <trkpt lat="43.80283" lon="7.08288">
        <ele>1019.4</ele>
        <time>2019-12-30T14:50:56Z</time>
      </trkpt>
      <trkpt lat="43.80283" lon="7.08288">
        <ele>1019.4</ele>
        <time>2019-12-30T14:50:57Z</time>
      </trkpt>
      <trkpt lat="43.80283" lon="7.08288">
        <ele>1019.4</ele>
        <time>2019-12-30T14:50:58Z</time>
      </trkpt>
      <trkpt lat="43.80283" lon="7.08288">
        <ele>1019.4</ele>
        <time>2019-12-30T14:50:59Z</time>
      </trkpt>
      <trkpt lat="43.80283" lon="7.08288">
        <ele>1019.4</ele>
        <time>2019-12-30T14:51:00Z</time>
      </trkpt>
      <trkpt lat="43.80283" lon="7.08288">
        <ele>1019.4</ele>
        <time>2019-12-30T14:51:01Z</time>
      </trkpt>
      <trkpt lat="43.80283" lon="7.08288">
        <ele>1019.4</ele>
        <time>2019-12-30T14:51:02Z</time>
      </trkpt>
      <trkpt lat="43.80283" lon="7.08288">
        <ele>1019.4</ele>
        <time>2019-12-30T14:51:03Z</time>
      </trkpt>
      <trkpt lat="43.80283" lon="7.08288">
        <ele>1019.4</ele>
        <time>2019-12-30T14:51:04Z</time>
      </trkpt>
      <trkpt lat="43.80283" lon="7.08288">
        <ele>1019.4</ele>
        <time>2019-12-30T14:51:05Z</time>
      </trkpt>
      <trkpt lat="43.80283" lon="7.08288">
        <ele>1019.4</ele>
        <time>2019-12-30T14:51:06Z</time>
      </trkpt>
      <trkpt lat="43.80283" lon="7.08288">
        <ele>1019.4</ele>
        <time>2019-12-30T14:51:07Z</time>
      </trkpt>
      <trkpt lat="43.80283" lon="7.08288">
        <ele>1019.4</ele>
        <time>2019-12-30T14:51:08Z</time>
      </trkpt>
      <trkpt lat="43.80283" lon="7.08288">
        <ele>1019.4</ele>
        <time>2019-12-30T14:51:09Z</time>
      </trkpt>
      <trkpt lat="43.80283" lon="7.08288">
        <ele>1019.4</ele>
        <time>2019-12-30T14:51:10Z</time>
      </trkpt>
      <trkpt lat="43.80283" lon="7.08288">
        <ele>1019.4</ele>
        <time>2019-12-30T14:51:11Z</time>
      </trkpt>
      <trkpt lat="43.80283" lon="7.08288">
        <ele>1019.4</ele>
        <time>2019-12-30T14:51:12Z</time>
      </trkpt>
      <trkpt lat="43.80283" lon="7.08288">
        <ele>1019.4</ele>
        <time>2019-12-30T14:51:13Z</time>
      </trkpt>
      <trkpt lat="43.80283" lon="7.08288">
        <ele>1019.4</ele>
        <time>2019-12-30T14:51:14Z</time>
      </trkpt>
      <trkpt lat="43.80283" lon="7.08288">
        <ele>1019.4</ele>
        <time>2019-12-30T14:51:15Z</time>
      </trkpt>
      <trkpt lat="43.80283" lon="7.08288">
        <ele>1019.4</ele>
        <time>2019-12-30T14:51:16Z</time>
      </trkpt>
      <trkpt lat="43.80283" lon="7.08288">
        <ele>1019.4</ele>
        <time>2019-12-30T14:51:17Z</time>
      </trkpt>
      <trkpt lat="43.80283" lon="7.08288">
        <ele>1019.4</ele>
        <time>2019-12-30T14:51:18Z</time>
      </trkpt>
      <trkpt lat="43.80283" lon="7.08288">
        <ele>1019.4</ele>
        <time>2019-12-30T14:51:19Z</time>
      </trkpt>
      <trkpt lat="43.80283" lon="7.08288">
        <ele>1019.4</ele>
        <time>2019-12-30T14:51:20Z</time>
      </trkpt>
      <trkpt lat="43.80283" lon="7.08288">
        <ele>1019.4</ele>
        <time>2019-12-30T14:51:21Z</time>
      </trkpt>
      <trkpt lat="43.80283" lon="7.08288">
        <ele>1019.4</ele>
        <time>2019-12-30T14:51:22Z</time>
      </trkpt>
      <trkpt lat="43.80283" lon="7.08288">
        <ele>1019</ele>
        <time>2019-12-30T14:51:23Z</time>
      </trkpt>
      <trkpt lat="43.80284" lon="7.0829">
        <ele>1019</ele>
        <time>2019-12-30T14:51:24Z</time>
      </trkpt>
      <trkpt lat="43.80286" lon="7.08292">
        <ele>1017.9</ele>
        <time>2019-12-30T14:51:25Z</time>
      </trkpt>
      <trkpt lat="43.80288" lon="7.08293">
        <ele>1017.5</ele>
        <time>2019-12-30T14:51:26Z</time>
      </trkpt>
      <trkpt lat="43.8029" lon="7.08294">
        <ele>1016.5</ele>
        <time>2019-12-30T14:51:27Z</time>
      </trkpt>
      <trkpt lat="43.80292" lon="7.08295">
        <ele>1015.5</ele>
        <time>2019-12-30T14:51:28Z</time>
      </trkpt>
      <trkpt lat="43.80294" lon="7.08296">
        <ele>1015.5</ele>
        <time>2019-12-30T14:51:29Z</time>
      </trkpt>
      <trkpt lat="43.80296" lon="7.08296">
        <ele>1014.5</ele>
        <time>2019-12-30T14:51:30Z</time>
      </trkpt>
      <trkpt lat="43.80299" lon="7.08297">
        <ele>1013.2</ele>
        <time>2019-12-30T14:51:31Z</time>
      </trkpt>
      <trkpt lat="43.80302" lon="7.08299">
        <ele>1012.1</ele>
        <time>2019-12-30T14:51:32Z</time>
      </trkpt>
      <trkpt lat="43.80304" lon="7.083">
        <ele>1011</ele>
        <time>2019-12-30T14:51:33Z</time>
      </trkpt>
      <trkpt lat="43.80307" lon="7.08302">
        <ele>1010.8</ele>
        <time>2019-12-30T14:51:34Z</time>
      </trkpt>
      <trkpt lat="43.80309" lon="7.08305">
        <ele>1009.7</ele>
        <time>2019-12-30T14:51:35Z</time>
      </trkpt>
      <trkpt lat="43.80309" lon="7.08307">
        <ele>1009.4</ele>
        <time>2019-12-30T14:51:36Z</time>
      </trkpt>
      <trkpt lat="43.8031" lon="7.0831">
        <ele>1009.1</ele>
        <time>2019-12-30T14:51:37Z</time>
      </trkpt>
      <trkpt lat="43.8031" lon="7.08313">
        <ele>1008.2</ele>
        <time>2019-12-30T14:51:38Z</time>
      </trkpt>
      <trkpt lat="43.80311" lon="7.08316">
        <ele>1007.9</ele>
        <time>2019-12-30T14:51:39Z</time>
      </trkpt>
      <trkpt lat="43.80311" lon="7.08319">
        <ele>1007.6</ele>
        <time>2019-12-30T14:51:40Z</time>
      </trkpt>
      <trkpt lat="43.80312" lon="7.08323">
        <ele>1007.4</ele>
        <time>2019-12-30T14:51:41Z</time>
      </trkpt>
      <trkpt lat="43.80313" lon="7.08327">
        <ele>1006.3</ele>
        <time>2019-12-30T14:51:42Z</time>
      </trkpt>
      <trkpt lat="43.80315" lon="7.08331">
        <ele>1006.1</ele>
        <time>2019-12-30T14:51:43Z</time>
      </trkpt>
      <trkpt lat="43.80316" lon="7.08334">
        <ele>1006.1</ele>
        <time>2019-12-30T14:51:44Z</time>
      </trkpt>
      <trkpt lat="43.80318" lon="7.08337">
        <ele>1005.1</ele>
        <time>2019-12-30T14:51:45Z</time>
      </trkpt>
      <trkpt lat="43.80319" lon="7.0834">
        <ele>1004.1</ele>
        <time>2019-12-30T14:51:46Z</time>
      </trkpt>
      <trkpt lat="43.80321" lon="7.08344">
        <ele>1004</ele>
        <time>2019-12-30T14:51:47Z</time>
      </trkpt>
      <trkpt lat="43.80323" lon="7.08347">
        <ele>1003.1</ele>
        <time>2019-12-30T14:51:48Z</time>
      </trkpt>
      <trkpt lat="43.80324" lon="7.08351">
        <ele>1003</ele>
        <time>2019-12-30T14:51:49Z</time>
      </trkpt>
      <trkpt lat="43.80326" lon="7.08354">
        <ele>1001.9</ele>
        <time>2019-12-30T14:51:50Z</time>
      </trkpt>
      <trkpt lat="43.80327" lon="7.08357">
        <ele>1001.7</ele>
        <time>2019-12-30T14:51:51Z</time>
      </trkpt>
      <trkpt lat="43.80329" lon="7.0836">
        <ele>1000.7</ele>
        <time>2019-12-30T14:51:52Z</time>
      </trkpt>
      <trkpt lat="43.8033" lon="7.08362">
        <ele>1000.4</ele>
        <time>2019-12-30T14:51:53Z</time>
      </trkpt>
      <trkpt lat="43.80332" lon="7.08365">
        <ele>999.4</ele>
        <time>2019-12-30T14:51:54Z</time>
      </trkpt>
      <trkpt lat="43.80333" lon="7.08368">
        <ele>999.1</ele>
        <time>2019-12-30T14:51:55Z</time>
      </trkpt>
      <trkpt lat="43.80334" lon="7.0837">
        <ele>998.9</ele>
        <time>2019-12-30T14:51:56Z</time>
      </trkpt>
      <trkpt lat="43.80336" lon="7.08371">
        <ele>997.8</ele>
        <time>2019-12-30T14:51:57Z</time>
      </trkpt>
      <trkpt lat="43.80337" lon="7.08373">
        <ele>997.8</ele>
        <time>2019-12-30T14:51:58Z</time>
      </trkpt>
      <trkpt lat="43.80339" lon="7.08374">
        <ele>996.6</ele>
        <time>2019-12-30T14:51:59Z</time>
      </trkpt>
      <trkpt lat="43.80341" lon="7.08374">
        <ele>995.7</ele>
        <time>2019-12-30T14:52:00Z</time>
      </trkpt>
      <trkpt lat="43.80343" lon="7.08374">
        <ele>995.7</ele>
        <time>2019-12-30T14:52:01Z</time>
      </trkpt>
      <trkpt lat="43.80345" lon="7.08374">
        <ele>994.8</ele>
        <time>2019-12-30T14:52:02Z</time>
      </trkpt>
      <trkpt lat="43.80347" lon="7.08375">
        <ele>994.8</ele>
        <time>2019-12-30T14:52:03Z</time>
      </trkpt>
      <trkpt lat="43.80348" lon="7.08377">
        <ele>993.9</ele>
        <time>2019-12-30T14:52:04Z</time>
      </trkpt>
      <trkpt lat="43.80349" lon="7.0838">
        <ele>993.6</ele>
        <time>2019-12-30T14:52:05Z</time>
      </trkpt>
      <trkpt lat="43.8035" lon="7.08382">
        <ele>993.6</ele>
        <time>2019-12-30T14:52:06Z</time>
      </trkpt>
      <trkpt lat="43.8035" lon="7.08385">
        <ele>992.3</ele>
        <time>2019-12-30T14:52:07Z</time>
      </trkpt>
      <trkpt lat="43.80351" lon="7.08388">
        <ele>992</ele>
        <time>2019-12-30T14:52:08Z</time>
      </trkpt>
      <trkpt lat="43.80351" lon="7.0839">
        <ele>992</ele>
        <time>2019-12-30T14:52:09Z</time>
      </trkpt>
      <trkpt lat="43.80352" lon="7.08393">
        <ele>991.6</ele>
        <time>2019-12-30T14:52:10Z</time>
      </trkpt>
      <trkpt lat="43.80352" lon="7.08397">
        <ele>991.2</ele>
        <time>2019-12-30T14:52:11Z</time>
      </trkpt>
      <trkpt lat="43.80352" lon="7.08398">
        <ele>991.2</ele>
        <time>2019-12-30T14:52:12Z</time>
      </trkpt>
      <trkpt lat="43.80353" lon="7.084">
        <ele>990.8</ele>
        <time>2019-12-30T14:52:13Z</time>
      </trkpt>
      <trkpt lat="43.80353" lon="7.08402">
        <ele>990.8</ele>
        <time>2019-12-30T14:52:14Z</time>
      </trkpt>
      <trkpt lat="43.80353" lon="7.08403">
        <ele>990.8</ele>
        <time>2019-12-30T14:52:15Z</time>
      </trkpt>
      <trkpt lat="43.80353" lon="7.08405">
        <ele>990.3</ele>
        <time>2019-12-30T14:52:16Z</time>
      </trkpt>
      <trkpt lat="43.80353" lon="7.08407">
        <ele>989.5</ele>
        <time>2019-12-30T14:52:17Z</time>
      </trkpt>
      <trkpt lat="43.80353" lon="7.08408">
        <ele>989</ele>
        <time>2019-12-30T14:52:18Z</time>
      </trkpt>
      <trkpt lat="43.80354" lon="7.0841">
        <ele>989</ele>
        <time>2019-12-30T14:52:19Z</time>
      </trkpt>
      <trkpt lat="43.80354" lon="7.08412">
        <ele>989</ele>
        <time>2019-12-30T14:52:20Z</time>
      </trkpt>
      <trkpt lat="43.80354" lon="7.08415">
        <ele>988.6</ele>
        <time>2019-12-30T14:52:21Z</time>
      </trkpt>
      <trkpt lat="43.80355" lon="7.08418">
        <ele>988.1</ele>
        <time>2019-12-30T14:52:22Z</time>
      </trkpt>
      <trkpt lat="43.80356" lon="7.08418">
        <ele>988.1</ele>
        <time>2019-12-30T14:52:23Z</time>
      </trkpt>
      <trkpt lat="43.80356" lon="7.08418">
        <ele>988.1</ele>
        <time>2019-12-30T14:52:24Z</time>
      </trkpt>
      <trkpt lat="43.80356" lon="7.08419">
        <ele>988.1</ele>
        <time>2019-12-30T14:52:25Z</time>
      </trkpt>
      <trkpt lat="43.80357" lon="7.08419">
        <ele>987.3</ele>
        <time>2019-12-30T14:52:26Z</time>
      </trkpt>
      <trkpt lat="43.80357" lon="7.0842">
        <ele>987.3</ele>
        <time>2019-12-30T14:52:27Z</time>
      </trkpt>
      <trkpt lat="43.80357" lon="7.0842">
        <ele>987.3</ele>
        <time>2019-12-30T14:52:28Z</time>
      </trkpt>
      <trkpt lat="43.80358" lon="7.0842">
        <ele>987.3</ele>
        <time>2019-12-30T14:52:29Z</time>
      </trkpt>
      <trkpt lat="43.80359" lon="7.08421">
        <ele>987.3</ele>
        <time>2019-12-30T14:52:30Z</time>
      </trkpt>
      <trkpt lat="43.8036" lon="7.08421">
        <ele>986.1</ele>
        <time>2019-12-30T14:52:31Z</time>
      </trkpt>
      <trkpt lat="43.8036" lon="7.08421">
        <ele>986.5</ele>
        <time>2019-12-30T14:52:32Z</time>
      </trkpt>
      <trkpt lat="43.80361" lon="7.08421">
        <ele>986.5</ele>
        <time>2019-12-30T14:52:33Z</time>
      </trkpt>
      <trkpt lat="43.80361" lon="7.0842">
        <ele>986.5</ele>
        <time>2019-12-30T14:52:34Z</time>
      </trkpt>
      <trkpt lat="43.80361" lon="7.0842">
        <ele>986.5</ele>
        <time>2019-12-30T14:52:35Z</time>
      </trkpt>
      <trkpt lat="43.80361" lon="7.0842">
        <ele>986.5</ele>
        <time>2019-12-30T14:52:36Z</time>
      </trkpt>
      <trkpt lat="43.80361" lon="7.0842">
        <ele>986.5</ele>
        <time>2019-12-30T14:52:37Z</time>
      </trkpt>
      <trkpt lat="43.80361" lon="7.0842">
        <ele>986.5</ele>
        <time>2019-12-30T14:52:38Z</time>
      </trkpt>
      <trkpt lat="43.80361" lon="7.0842">
        <ele>986.5</ele>
        <time>2019-12-30T14:52:39Z</time>
      </trkpt>
      <trkpt lat="43.80361" lon="7.08421">
        <ele>986.5</ele>
        <time>2019-12-30T14:52:40Z</time>
      </trkpt>
      <trkpt lat="43.80361" lon="7.08421">
        <ele>986.1</ele>
        <time>2019-12-30T14:52:41Z</time>
      </trkpt>
      <trkpt lat="43.80361" lon="7.08422">
        <ele>986.1</ele>
        <time>2019-12-30T14:52:42Z</time>
      </trkpt>
      <trkpt lat="43.80362" lon="7.08423">
        <ele>986.1</ele>
        <time>2019-12-30T14:52:43Z</time>
      </trkpt>
      <trkpt lat="43.80362" lon="7.08423">
        <ele>986.1</ele>
        <time>2019-12-30T14:52:44Z</time>
      </trkpt>
      <trkpt lat="43.80363" lon="7.08425">
        <ele>985.3</ele>
        <time>2019-12-30T14:52:45Z</time>
      </trkpt>
      <trkpt lat="43.80363" lon="7.08426">
        <ele>985</ele>
        <time>2019-12-30T14:52:46Z</time>
      </trkpt>
      <trkpt lat="43.80364" lon="7.08427">
        <ele>985</ele>
        <time>2019-12-30T14:52:47Z</time>
      </trkpt>
      <trkpt lat="43.80364" lon="7.08429">
        <ele>985</ele>
        <time>2019-12-30T14:52:48Z</time>
      </trkpt>
      <trkpt lat="43.80364" lon="7.08432">
        <ele>984.6</ele>
        <time>2019-12-30T14:52:49Z</time>
      </trkpt>
      <trkpt lat="43.80365" lon="7.08435">
        <ele>984.3</ele>
        <time>2019-12-30T14:52:50Z</time>
      </trkpt>
      <trkpt lat="43.80365" lon="7.08438">
        <ele>984.3</ele>
        <time>2019-12-30T14:52:51Z</time>
      </trkpt>
      <trkpt lat="43.80365" lon="7.08441">
        <ele>983.8</ele>
        <time>2019-12-30T14:52:52Z</time>
      </trkpt>
      <trkpt lat="43.80365" lon="7.08443">
        <ele>983.4</ele>
        <time>2019-12-30T14:52:53Z</time>
      </trkpt>
      <trkpt lat="43.80364" lon="7.08445">
        <ele>983.4</ele>
        <time>2019-12-30T14:52:54Z</time>
      </trkpt>
      <trkpt lat="43.80365" lon="7.08447">
        <ele>982.9</ele>
        <time>2019-12-30T14:52:55Z</time>
      </trkpt>
      <trkpt lat="43.80366" lon="7.08448">
        <ele>982.2</ele>
        <time>2019-12-30T14:52:56Z</time>
      </trkpt>
      <trkpt lat="43.80367" lon="7.08449">
        <ele>982.2</ele>
        <time>2019-12-30T14:52:57Z</time>
      </trkpt>
      <trkpt lat="43.80369" lon="7.08449">
        <ele>981.6</ele>
        <time>2019-12-30T14:52:58Z</time>
      </trkpt>
      <trkpt lat="43.8037" lon="7.0845">
        <ele>981.6</ele>
        <time>2019-12-30T14:52:59Z</time>
      </trkpt>
      <trkpt lat="43.80371" lon="7.08451">
        <ele>981.1</ele>
        <time>2019-12-30T14:53:00Z</time>
      </trkpt>
      <trkpt lat="43.80372" lon="7.08452">
        <ele>980.4</ele>
        <time>2019-12-30T14:53:01Z</time>
      </trkpt>
      <trkpt lat="43.80373" lon="7.08453">
        <ele>980.4</ele>
        <time>2019-12-30T14:53:02Z</time>
      </trkpt>
      <trkpt lat="43.80374" lon="7.08454">
        <ele>980.4</ele>
        <time>2019-12-30T14:53:03Z</time>
      </trkpt>
      <trkpt lat="43.80375" lon="7.08455">
        <ele>979.8</ele>
        <time>2019-12-30T14:53:04Z</time>
      </trkpt>
      <trkpt lat="43.80376" lon="7.08456">
        <ele>979.3</ele>
        <time>2019-12-30T14:53:05Z</time>
      </trkpt>
      <trkpt lat="43.80377" lon="7.08458">
        <ele>979.3</ele>
        <time>2019-12-30T14:53:06Z</time>
      </trkpt>
      <trkpt lat="43.80378" lon="7.08459">
        <ele>978.6</ele>
        <time>2019-12-30T14:53:07Z</time>
      </trkpt>
      <trkpt lat="43.80379" lon="7.08461">
        <ele>978.2</ele>
        <time>2019-12-30T14:53:08Z</time>
      </trkpt>
      <trkpt lat="43.80379" lon="7.08463">
        <ele>978.2</ele>
        <time>2019-12-30T14:53:09Z</time>
      </trkpt>
      <trkpt lat="43.80379" lon="7.08465">
        <ele>977.9</ele>
        <time>2019-12-30T14:53:10Z</time>
      </trkpt>
      <trkpt lat="43.8038" lon="7.08467">
        <ele>977.9</ele>
        <time>2019-12-30T14:53:11Z</time>
      </trkpt>
      <trkpt lat="43.80382" lon="7.08469">
        <ele>976.8</ele>
        <time>2019-12-30T14:53:12Z</time>
      </trkpt>
      <trkpt lat="43.80383" lon="7.0847">
        <ele>976.8</ele>
        <time>2019-12-30T14:53:13Z</time>
      </trkpt>
      <trkpt lat="43.80384" lon="7.08472">
        <ele>976.8</ele>
        <time>2019-12-30T14:53:14Z</time>
      </trkpt>
      <trkpt lat="43.80385" lon="7.08473">
        <ele>975.7</ele>
        <time>2019-12-30T14:53:15Z</time>
      </trkpt>
      <trkpt lat="43.80385" lon="7.08474">
        <ele>975.7</ele>
        <time>2019-12-30T14:53:16Z</time>
      </trkpt>
      <trkpt lat="43.80386" lon="7.08475">
        <ele>975.7</ele>
        <time>2019-12-30T14:53:17Z</time>
      </trkpt>
      <trkpt lat="43.80386" lon="7.08475">
        <ele>975.7</ele>
        <time>2019-12-30T14:53:18Z</time>
      </trkpt>
      <trkpt lat="43.80386" lon="7.08475">
        <ele>975.7</ele>
        <time>2019-12-30T14:53:19Z</time>
      </trkpt>
      <trkpt lat="43.80386" lon="7.08475">
        <ele>975.7</ele>
        <time>2019-12-30T14:53:20Z</time>
      </trkpt>
      <trkpt lat="43.80386" lon="7.08475">
        <ele>975.7</ele>
        <time>2019-12-30T14:53:21Z</time>
      </trkpt>
      <trkpt lat="43.80386" lon="7.08475">
        <ele>975.7</ele>
        <time>2019-12-30T14:53:22Z</time>
      </trkpt>
      <trkpt lat="43.80386" lon="7.08476">
        <ele>975.7</ele>
        <time>2019-12-30T14:53:23Z</time>
      </trkpt>
      <trkpt lat="43.80386" lon="7.08476">
        <ele>975.7</ele>
        <time>2019-12-30T14:53:24Z</time>
      </trkpt>
      <trkpt lat="43.80386" lon="7.08476">
        <ele>975.7</ele>
        <time>2019-12-30T14:53:25Z</time>
      </trkpt>
      <trkpt lat="43.80386" lon="7.08476">
        <ele>975.7</ele>
        <time>2019-12-30T14:53:26Z</time>
      </trkpt>
      <trkpt lat="43.80386" lon="7.08476">
        <ele>975.7</ele>
        <time>2019-12-30T14:53:27Z</time>
      </trkpt>
      <trkpt lat="43.80386" lon="7.08476">
        <ele>975.7</ele>
        <time>2019-12-30T14:53:28Z</time>
      </trkpt>
      <trkpt lat="43.80386" lon="7.08476">
        <ele>975.7</ele>
        <time>2019-12-30T14:53:29Z</time>
      </trkpt>
      <trkpt lat="43.80386" lon="7.08476">
        <ele>975.7</ele>
        <time>2019-12-30T14:53:30Z</time>
      </trkpt>
      <trkpt lat="43.80386" lon="7.08476">
        <ele>975.7</ele>
        <time>2019-12-30T14:53:31Z</time>
      </trkpt>
      <trkpt lat="43.80386" lon="7.08477">
        <ele>975.7</ele>
        <time>2019-12-30T14:53:32Z</time>
      </trkpt>
      <trkpt lat="43.80387" lon="7.08477">
        <ele>975.4</ele>
        <time>2019-12-30T14:53:33Z</time>
      </trkpt>
      <trkpt lat="43.80388" lon="7.08478">
        <ele>974.6</ele>
        <time>2019-12-30T14:53:34Z</time>
      </trkpt>
      <trkpt lat="43.80389" lon="7.08479">
        <ele>974.6</ele>
        <time>2019-12-30T14:53:35Z</time>
      </trkpt>
      <trkpt lat="43.80389" lon="7.08481">
        <ele>974.6</ele>
        <time>2019-12-30T14:53:36Z</time>
      </trkpt>
      <trkpt lat="43.8039" lon="7.08482">
        <ele>973.5</ele>
        <time>2019-12-30T14:53:37Z</time>
      </trkpt>
      <trkpt lat="43.80391" lon="7.08484">
        <ele>973.5</ele>
        <time>2019-12-30T14:53:38Z</time>
      </trkpt>
      <trkpt lat="43.80393" lon="7.08486">
        <ele>973.2</ele>
        <time>2019-12-30T14:53:39Z</time>
      </trkpt>
      <trkpt lat="43.80394" lon="7.08487">
        <ele>972.5</ele>
        <time>2019-12-30T14:53:40Z</time>
      </trkpt>
      <trkpt lat="43.80395" lon="7.08489">
        <ele>972.5</ele>
        <time>2019-12-30T14:53:41Z</time>
      </trkpt>
      <trkpt lat="43.80394" lon="7.08492">
        <ele>972.1</ele>
        <time>2019-12-30T14:53:42Z</time>
      </trkpt>
      <trkpt lat="43.80392" lon="7.08495">
        <ele>972.4</ele>
        <time>2019-12-30T14:53:43Z</time>
      </trkpt>
      <trkpt lat="43.80391" lon="7.08497">
        <ele>972.4</ele>
        <time>2019-12-30T14:53:44Z</time>
      </trkpt>
      <trkpt lat="43.80389" lon="7.085">
        <ele>972.6</ele>
        <time>2019-12-30T14:53:45Z</time>
      </trkpt>
      <trkpt lat="43.80387" lon="7.08501">
        <ele>972.6</ele>
        <time>2019-12-30T14:53:46Z</time>
      </trkpt>
      <trkpt lat="43.80387" lon="7.08503">
        <ele>972.7</ele>
        <time>2019-12-30T14:53:47Z</time>
      </trkpt>
      <trkpt lat="43.80386" lon="7.08504">
        <ele>972.7</ele>
        <time>2019-12-30T14:53:48Z</time>
      </trkpt>
      <trkpt lat="43.80386" lon="7.08506">
        <ele>972.7</ele>
        <time>2019-12-30T14:53:49Z</time>
      </trkpt>
      <trkpt lat="43.80386" lon="7.08507">
        <ele>972.3</ele>
        <time>2019-12-30T14:53:50Z</time>
      </trkpt>
      <trkpt lat="43.80387" lon="7.08508">
        <ele>972.3</ele>
        <time>2019-12-30T14:53:51Z</time>
      </trkpt>
      <trkpt lat="43.80387" lon="7.08508">
        <ele>972.3</ele>
        <time>2019-12-30T14:53:52Z</time>
      </trkpt>
      <trkpt lat="43.80387" lon="7.08508">
        <ele>972.3</ele>
        <time>2019-12-30T14:53:53Z</time>
      </trkpt>
      <trkpt lat="43.80387" lon="7.08509">
        <ele>971.7</ele>
        <time>2019-12-30T14:53:54Z</time>
      </trkpt>
      <trkpt lat="43.80387" lon="7.08509">
        <ele>971.7</ele>
        <time>2019-12-30T14:53:55Z</time>
      </trkpt>
      <trkpt lat="43.80387" lon="7.08509">
        <ele>972.3</ele>
        <time>2019-12-30T14:53:56Z</time>
      </trkpt>
      <trkpt lat="43.80387" lon="7.08509">
        <ele>972.3</ele>
        <time>2019-12-30T14:53:57Z</time>
      </trkpt>
      <trkpt lat="43.80387" lon="7.0851">
        <ele>972.3</ele>
        <time>2019-12-30T14:53:58Z</time>
      </trkpt>
      <trkpt lat="43.80387" lon="7.0851">
        <ele>971.7</ele>
        <time>2019-12-30T14:53:59Z</time>
      </trkpt>
      <trkpt lat="43.80388" lon="7.08512">
        <ele>971.3</ele>
        <time>2019-12-30T14:54:00Z</time>
      </trkpt>
      <trkpt lat="43.80389" lon="7.08513">
        <ele>971.3</ele>
        <time>2019-12-30T14:54:01Z</time>
      </trkpt>
      <trkpt lat="43.80389" lon="7.08515">
        <ele>970.9</ele>
        <time>2019-12-30T14:54:02Z</time>
      </trkpt>
      <trkpt lat="43.80389" lon="7.08518">
        <ele>970.9</ele>
        <time>2019-12-30T14:54:03Z</time>
      </trkpt>
      <trkpt lat="43.80388" lon="7.08521">
        <ele>970.5</ele>
        <time>2019-12-30T14:54:04Z</time>
      </trkpt>
      <trkpt lat="43.80388" lon="7.08524">
        <ele>970.1</ele>
        <time>2019-12-30T14:54:05Z</time>
      </trkpt>
      <trkpt lat="43.80388" lon="7.08527">
        <ele>970.1</ele>
        <time>2019-12-30T14:54:06Z</time>
      </trkpt>
      <trkpt lat="43.80388" lon="7.0853">
        <ele>969.6</ele>
        <time>2019-12-30T14:54:07Z</time>
      </trkpt>
      <trkpt lat="43.80389" lon="7.08531">
        <ele>969.6</ele>
        <time>2019-12-30T14:54:08Z</time>
      </trkpt>
      <trkpt lat="43.80391" lon="7.08532">
        <ele>969.2</ele>
        <time>2019-12-30T14:54:09Z</time>
      </trkpt>
      <trkpt lat="43.80392" lon="7.08532">
        <ele>969.2</ele>
        <time>2019-12-30T14:54:10Z</time>
      </trkpt>
      <trkpt lat="43.80393" lon="7.08532">
        <ele>969.2</ele>
        <time>2019-12-30T14:54:11Z</time>
      </trkpt>
      <trkpt lat="43.80396" lon="7.08531">
        <ele>968.8</ele>
        <time>2019-12-30T14:54:12Z</time>
      </trkpt>
      <trkpt lat="43.80398" lon="7.0853">
        <ele>968.4</ele>
        <time>2019-12-30T14:54:13Z</time>
      </trkpt>
      <trkpt lat="43.80399" lon="7.08529">
        <ele>968.4</ele>
        <time>2019-12-30T14:54:14Z</time>
      </trkpt>
      <trkpt lat="43.80401" lon="7.08528">
        <ele>968.3</ele>
        <time>2019-12-30T14:54:15Z</time>
      </trkpt>
      <trkpt lat="43.80403" lon="7.08528">
        <ele>967.9</ele>
        <time>2019-12-30T14:54:16Z</time>
      </trkpt>
      <trkpt lat="43.80404" lon="7.08527">
        <ele>967.9</ele>
        <time>2019-12-30T14:54:17Z</time>
      </trkpt>
      <trkpt lat="43.80404" lon="7.08528">
        <ele>967.9</ele>
        <time>2019-12-30T14:54:18Z</time>
      </trkpt>
      <trkpt lat="43.80404" lon="7.08528">
        <ele>967.9</ele>
        <time>2019-12-30T14:54:19Z</time>
      </trkpt>
      <trkpt lat="43.80404" lon="7.08528">
        <ele>967.6</ele>
        <time>2019-12-30T14:54:20Z</time>
      </trkpt>
      <trkpt lat="43.80404" lon="7.08529">
        <ele>967.6</ele>
        <time>2019-12-30T14:54:21Z</time>
      </trkpt>
      <trkpt lat="43.80404" lon="7.08529">
        <ele>967.6</ele>
        <time>2019-12-30T14:54:22Z</time>
      </trkpt>
      <trkpt lat="43.80404" lon="7.08529">
        <ele>967.6</ele>
        <time>2019-12-30T14:54:23Z</time>
      </trkpt>
      <trkpt lat="43.80404" lon="7.08529">
        <ele>967.6</ele>
        <time>2019-12-30T14:54:24Z</time>
      </trkpt>
      <trkpt lat="43.80404" lon="7.0853">
        <ele>967.6</ele>
        <time>2019-12-30T14:54:25Z</time>
      </trkpt>
      <trkpt lat="43.80404" lon="7.0853">
        <ele>967.6</ele>
        <time>2019-12-30T14:54:26Z</time>
      </trkpt>
      <trkpt lat="43.80404" lon="7.0853">
        <ele>967.6</ele>
        <time>2019-12-30T14:54:27Z</time>
      </trkpt>
      <trkpt lat="43.80404" lon="7.0853">
        <ele>967.6</ele>
        <time>2019-12-30T14:54:28Z</time>
      </trkpt>
      <trkpt lat="43.80404" lon="7.0853">
        <ele>967.6</ele>
        <time>2019-12-30T14:54:29Z</time>
      </trkpt>
      <trkpt lat="43.80404" lon="7.0853">
        <ele>967.6</ele>
        <time>2019-12-30T14:54:30Z</time>
      </trkpt>
      <trkpt lat="43.80404" lon="7.0853">
        <ele>967.6</ele>
        <time>2019-12-30T14:54:31Z</time>
      </trkpt>
      <trkpt lat="43.80404" lon="7.0853">
        <ele>967.6</ele>
        <time>2019-12-30T14:54:32Z</time>
      </trkpt>
      <trkpt lat="43.80404" lon="7.0853">
        <ele>967.6</ele>
        <time>2019-12-30T14:54:33Z</time>
      </trkpt>
      <trkpt lat="43.80404" lon="7.0853">
        <ele>967.6</ele>
        <time>2019-12-30T14:54:34Z</time>
      </trkpt>
      <trkpt lat="43.80404" lon="7.0853">
        <ele>967.6</ele>
        <time>2019-12-30T14:54:35Z</time>
      </trkpt>
      <trkpt lat="43.80404" lon="7.0853">
        <ele>967.6</ele>
        <time>2019-12-30T14:54:36Z</time>
      </trkpt>
      <trkpt lat="43.80404" lon="7.0853">
        <ele>967.6</ele>
        <time>2019-12-30T14:54:37Z</time>
      </trkpt>
      <trkpt lat="43.80404" lon="7.0853">
        <ele>967.6</ele>
        <time>2019-12-30T14:54:38Z</time>
      </trkpt>
      <trkpt lat="43.80404" lon="7.0853">
        <ele>967.6</ele>
        <time>2019-12-30T14:54:39Z</time>
      </trkpt>
      <trkpt lat="43.80404" lon="7.0853">
        <ele>967.6</ele>
        <time>2019-12-30T14:54:40Z</time>
      </trkpt>
      <trkpt lat="43.80404" lon="7.0853">
        <ele>967.6</ele>
        <time>2019-12-30T14:54:41Z</time>
      </trkpt>
      <trkpt lat="43.80404" lon="7.0853">
        <ele>967.6</ele>
        <time>2019-12-30T14:54:42Z</time>
      </trkpt>
      <trkpt lat="43.80404" lon="7.0853">
        <ele>967.6</ele>
        <time>2019-12-30T14:54:43Z</time>
      </trkpt>
      <trkpt lat="43.80404" lon="7.0853">
        <ele>967.6</ele>
        <time>2019-12-30T14:54:44Z</time>
      </trkpt>
      <trkpt lat="43.80404" lon="7.0853">
        <ele>967.6</ele>
        <time>2019-12-30T14:54:45Z</time>
      </trkpt>
      <trkpt lat="43.80404" lon="7.0853">
        <ele>967.6</ele>
        <time>2019-12-30T14:54:46Z</time>
      </trkpt>
      <trkpt lat="43.80404" lon="7.0853">
        <ele>967.6</ele>
        <time>2019-12-30T14:54:47Z</time>
      </trkpt>
      <trkpt lat="43.80404" lon="7.0853">
        <ele>967.6</ele>
        <time>2019-12-30T14:54:48Z</time>
      </trkpt>
      <trkpt lat="43.80404" lon="7.0853">
        <ele>967.6</ele>
        <time>2019-12-30T14:54:49Z</time>
      </trkpt>
      <trkpt lat="43.80404" lon="7.0853">
        <ele>967.6</ele>
        <time>2019-12-30T14:54:50Z</time>
      </trkpt>
      <trkpt lat="43.80404" lon="7.0853">
        <ele>967.6</ele>
        <time>2019-12-30T14:54:51Z</time>
      </trkpt>
      <trkpt lat="43.80404" lon="7.0853">
        <ele>967.6</ele>
        <time>2019-12-30T14:54:52Z</time>
      </trkpt>
      <trkpt lat="43.80404" lon="7.0853">
        <ele>967.6</ele>
        <time>2019-12-30T14:54:53Z</time>
      </trkpt>
      <trkpt lat="43.80404" lon="7.0853">
        <ele>967.6</ele>
        <time>2019-12-30T14:54:54Z</time>
      </trkpt>
      <trkpt lat="43.80404" lon="7.0853">
        <ele>967.6</ele>
        <time>2019-12-30T14:54:55Z</time>
      </trkpt>
      <trkpt lat="43.80404" lon="7.0853">
        <ele>967.6</ele>
        <time>2019-12-30T14:54:56Z</time>
      </trkpt>
      <trkpt lat="43.80404" lon="7.0853">
        <ele>967.6</ele>
        <time>2019-12-30T14:54:57Z</time>
      </trkpt>
      <trkpt lat="43.80404" lon="7.0853">
        <ele>967.6</ele>
        <time>2019-12-30T14:54:58Z</time>
      </trkpt>
      <trkpt lat="43.80404" lon="7.0853">
        <ele>967.6</ele>
        <time>2019-12-30T14:54:59Z</time>
      </trkpt>
      <trkpt lat="43.80404" lon="7.0853">
        <ele>967.6</ele>
        <time>2019-12-30T14:55:00Z</time>
      </trkpt>
      <trkpt lat="43.80404" lon="7.0853">
        <ele>967.6</ele>
        <time>2019-12-30T14:55:01Z</time>
      </trkpt>
      <trkpt lat="43.80404" lon="7.0853">
        <ele>967.6</ele>
        <time>2019-12-30T14:55:02Z</time>
      </trkpt>
      <trkpt lat="43.80404" lon="7.0853">
        <ele>967.6</ele>
        <time>2019-12-30T14:55:03Z</time>
      </trkpt>
      <trkpt lat="43.80404" lon="7.0853">
        <ele>967.6</ele>
        <time>2019-12-30T14:55:04Z</time>
      </trkpt>
      <trkpt lat="43.80404" lon="7.0853">
        <ele>967.6</ele>
        <time>2019-12-30T14:55:05Z</time>
      </trkpt>
      <trkpt lat="43.80404" lon="7.0853">
        <ele>967.6</ele>
        <time>2019-12-30T14:55:06Z</time>
      </trkpt>
      <trkpt lat="43.80404" lon="7.0853">
        <ele>967.6</ele>
        <time>2019-12-30T14:55:07Z</time>
      </trkpt>
      <trkpt lat="43.80404" lon="7.0853">
        <ele>967.6</ele>
        <time>2019-12-30T14:55:08Z</time>
      </trkpt>
      <trkpt lat="43.80404" lon="7.0853">
        <ele>967.6</ele>
        <time>2019-12-30T14:55:09Z</time>
      </trkpt>
      <trkpt lat="43.80404" lon="7.0853">
        <ele>967.6</ele>
        <time>2019-12-30T14:55:10Z</time>
      </trkpt>
      <trkpt lat="43.80404" lon="7.0853">
        <ele>967.6</ele>
        <time>2019-12-30T14:55:11Z</time>
      </trkpt>
      <trkpt lat="43.80404" lon="7.0853">
        <ele>967.6</ele>
        <time>2019-12-30T14:55:12Z</time>
      </trkpt>
      <trkpt lat="43.80404" lon="7.0853">
        <ele>967.6</ele>
        <time>2019-12-30T14:55:13Z</time>
      </trkpt>
      <trkpt lat="43.80404" lon="7.0853">
        <ele>967.6</ele>
        <time>2019-12-30T14:55:14Z</time>
      </trkpt>
      <trkpt lat="43.80404" lon="7.0853">
        <ele>967.6</ele>
        <time>2019-12-30T14:55:15Z</time>
      </trkpt>
      <trkpt lat="43.80404" lon="7.0853">
        <ele>967.6</ele>
        <time>2019-12-30T14:55:16Z</time>
      </trkpt>
      <trkpt lat="43.80404" lon="7.0853">
        <ele>967.6</ele>
        <time>2019-12-30T14:55:17Z</time>
      </trkpt>
      <trkpt lat="43.80404" lon="7.0853">
        <ele>967.6</ele>
        <time>2019-12-30T14:55:18Z</time>
      </trkpt>
      <trkpt lat="43.80404" lon="7.0853">
        <ele>967.6</ele>
        <time>2019-12-30T14:55:19Z</time>
      </trkpt>
      <trkpt lat="43.80404" lon="7.0853">
        <ele>967.6</ele>
        <time>2019-12-30T14:55:20Z</time>
      </trkpt>
      <trkpt lat="43.80404" lon="7.0853">
        <ele>967.6</ele>
        <time>2019-12-30T14:55:21Z</time>
      </trkpt>
      <trkpt lat="43.80404" lon="7.0853">
        <ele>967.6</ele>
        <time>2019-12-30T14:55:22Z</time>
      </trkpt>
      <trkpt lat="43.80404" lon="7.0853">
        <ele>967.6</ele>
        <time>2019-12-30T14:55:23Z</time>
      </trkpt>
      <trkpt lat="43.80404" lon="7.0853">
        <ele>967.6</ele>
        <time>2019-12-30T14:55:24Z</time>
      </trkpt>
      <trkpt lat="43.80404" lon="7.0853">
        <ele>967.6</ele>
        <time>2019-12-30T14:55:25Z</time>
      </trkpt>
      <trkpt lat="43.80404" lon="7.0853">
        <ele>967.6</ele>
        <time>2019-12-30T14:55:26Z</time>
      </trkpt>
      <trkpt lat="43.80404" lon="7.0853">
        <ele>967.6</ele>
        <time>2019-12-30T14:55:27Z</time>
      </trkpt>
      <trkpt lat="43.80404" lon="7.0853">
        <ele>967.6</ele>
        <time>2019-12-30T14:55:28Z</time>
      </trkpt>
      <trkpt lat="43.80404" lon="7.0853">
        <ele>967.6</ele>
        <time>2019-12-30T14:55:29Z</time>
      </trkpt>
      <trkpt lat="43.80404" lon="7.0853">
        <ele>967.6</ele>
        <time>2019-12-30T14:55:30Z</time>
      </trkpt>
      <trkpt lat="43.80404" lon="7.0853">
        <ele>967.6</ele>
        <time>2019-12-30T14:55:31Z</time>
      </trkpt>
      <trkpt lat="43.80404" lon="7.0853">
        <ele>967.6</ele>
        <time>2019-12-30T14:55:32Z</time>
      </trkpt>
      <trkpt lat="43.80404" lon="7.0853">
        <ele>967.6</ele>
        <time>2019-12-30T14:55:33Z</time>
      </trkpt>
      <trkpt lat="43.80404" lon="7.0853">
        <ele>967.6</ele>
        <time>2019-12-30T14:55:34Z</time>
      </trkpt>
      <trkpt lat="43.80404" lon="7.0853">
        <ele>967.6</ele>
        <time>2019-12-30T14:55:35Z</time>
      </trkpt>
      <trkpt lat="43.80404" lon="7.0853">
        <ele>967.6</ele>
        <time>2019-12-30T14:55:36Z</time>
      </trkpt>
      <trkpt lat="43.80404" lon="7.0853">
        <ele>967.6</ele>
        <time>2019-12-30T14:55:37Z</time>
      </trkpt>
      <trkpt lat="43.80404" lon="7.0853">
        <ele>967.6</ele>
        <time>2019-12-30T14:55:38Z</time>
      </trkpt>
      <trkpt lat="43.80404" lon="7.0853">
        <ele>967.6</ele>
        <time>2019-12-30T14:55:39Z</time>
      </trkpt>
      <trkpt lat="43.80404" lon="7.0853">
        <ele>967.6</ele>
        <time>2019-12-30T14:55:40Z</time>
      </trkpt>
      <trkpt lat="43.80404" lon="7.0853">
        <ele>967.6</ele>
        <time>2019-12-30T14:55:41Z</time>
      </trkpt>
      <trkpt lat="43.80404" lon="7.0853">
        <ele>967.6</ele>
        <time>2019-12-30T14:55:42Z</time>
      </trkpt>
      <trkpt lat="43.80404" lon="7.0853">
        <ele>967.6</ele>
        <time>2019-12-30T14:55:43Z</time>
      </trkpt>
      <trkpt lat="43.80404" lon="7.0853">
        <ele>967.6</ele>
        <time>2019-12-30T14:55:44Z</time>
      </trkpt>
      <trkpt lat="43.80404" lon="7.0853">
        <ele>967.6</ele>
        <time>2019-12-30T14:55:45Z</time>
      </trkpt>
      <trkpt lat="43.80404" lon="7.0853">
        <ele>967.6</ele>
        <time>2019-12-30T14:55:46Z</time>
      </trkpt>
      <trkpt lat="43.80404" lon="7.0853">
        <ele>967.6</ele>
        <time>2019-12-30T14:55:47Z</time>
      </trkpt>
      <trkpt lat="43.80404" lon="7.0853">
        <ele>967.6</ele>
        <time>2019-12-30T14:55:48Z</time>
      </trkpt>
      <trkpt lat="43.80404" lon="7.0853">
        <ele>967.6</ele>
        <time>2019-12-30T14:55:49Z</time>
      </trkpt>
      <trkpt lat="43.80404" lon="7.0853">
        <ele>967.6</ele>
        <time>2019-12-30T14:55:50Z</time>
      </trkpt>
      <trkpt lat="43.80404" lon="7.0853">
        <ele>967.6</ele>
        <time>2019-12-30T14:55:51Z</time>
      </trkpt>
      <trkpt lat="43.80405" lon="7.08529">
        <ele>967.6</ele>
        <time>2019-12-30T14:55:52Z</time>
      </trkpt>
      <trkpt lat="43.80405" lon="7.08529">
        <ele>967.6</ele>
        <time>2019-12-30T14:55:53Z</time>
      </trkpt>
      <trkpt lat="43.80405" lon="7.08529">
        <ele>967.6</ele>
        <time>2019-12-30T14:55:54Z</time>
      </trkpt>
      <trkpt lat="43.80405" lon="7.08529">
        <ele>967.6</ele>
        <time>2019-12-30T14:55:55Z</time>
      </trkpt>
      <trkpt lat="43.80405" lon="7.08529">
        <ele>967.6</ele>
        <time>2019-12-30T14:55:56Z</time>
      </trkpt>
      <trkpt lat="43.80405" lon="7.08529">
        <ele>967.6</ele>
        <time>2019-12-30T14:55:57Z</time>
      </trkpt>
      <trkpt lat="43.80405" lon="7.08529">
        <ele>967.6</ele>
        <time>2019-12-30T14:55:58Z</time>
      </trkpt>
      <trkpt lat="43.80405" lon="7.08529">
        <ele>967.6</ele>
        <time>2019-12-30T14:55:59Z</time>
      </trkpt>
      <trkpt lat="43.80405" lon="7.08529">
        <ele>967.6</ele>
        <time>2019-12-30T14:56:00Z</time>
      </trkpt>
      <trkpt lat="43.80405" lon="7.08529">
        <ele>967.6</ele>
        <time>2019-12-30T14:56:01Z</time>
      </trkpt>
      <trkpt lat="43.80406" lon="7.08529">
        <ele>967.6</ele>
        <time>2019-12-30T14:56:02Z</time>
      </trkpt>
      <trkpt lat="43.80406" lon="7.08528">
        <ele>967.6</ele>
        <time>2019-12-30T14:56:03Z</time>
      </trkpt>
      <trkpt lat="43.80406" lon="7.08528">
        <ele>967.3</ele>
        <time>2019-12-30T14:56:04Z</time>
      </trkpt>
      <trkpt lat="43.80406" lon="7.08528">
        <ele>967.3</ele>
        <time>2019-12-30T14:56:05Z</time>
      </trkpt>
      <trkpt lat="43.80406" lon="7.08528">
        <ele>967.3</ele>
        <time>2019-12-30T14:56:06Z</time>
      </trkpt>
      <trkpt lat="43.80406" lon="7.08528">
        <ele>967.3</ele>
        <time>2019-12-30T14:56:07Z</time>
      </trkpt>
      <trkpt lat="43.80406" lon="7.08528">
        <ele>967.6</ele>
        <time>2019-12-30T14:56:08Z</time>
      </trkpt>
      <trkpt lat="43.80406" lon="7.08528">
        <ele>967.6</ele>
        <time>2019-12-30T14:56:09Z</time>
      </trkpt>
      <trkpt lat="43.80406" lon="7.08528">
        <ele>967.6</ele>
        <time>2019-12-30T14:56:10Z</time>
      </trkpt>
      <trkpt lat="43.80406" lon="7.08528">
        <ele>967.6</ele>
        <time>2019-12-30T14:56:11Z</time>
      </trkpt>
      <trkpt lat="43.80406" lon="7.08528">
        <ele>967.6</ele>
        <time>2019-12-30T14:56:12Z</time>
      </trkpt>
      <trkpt lat="43.80406" lon="7.08528">
        <ele>967.6</ele>
        <time>2019-12-30T14:56:13Z</time>
      </trkpt>
      <trkpt lat="43.80406" lon="7.08528">
        <ele>967.6</ele>
        <time>2019-12-30T14:56:14Z</time>
      </trkpt>
      <trkpt lat="43.80406" lon="7.08528">
        <ele>967.6</ele>
        <time>2019-12-30T14:56:15Z</time>
      </trkpt>
      <trkpt lat="43.80406" lon="7.08528">
        <ele>967.6</ele>
        <time>2019-12-30T14:56:16Z</time>
      </trkpt>
      <trkpt lat="43.80406" lon="7.08528">
        <ele>967.6</ele>
        <time>2019-12-30T14:56:17Z</time>
      </trkpt>
      <trkpt lat="43.80406" lon="7.08528">
        <ele>967.6</ele>
        <time>2019-12-30T14:56:18Z</time>
      </trkpt>
      <trkpt lat="43.80406" lon="7.08528">
        <ele>967.6</ele>
        <time>2019-12-30T14:56:19Z</time>
      </trkpt>
      <trkpt lat="43.80406" lon="7.08528">
        <ele>967.6</ele>
        <time>2019-12-30T14:56:20Z</time>
      </trkpt>
      <trkpt lat="43.80406" lon="7.08528">
        <ele>967.6</ele>
        <time>2019-12-30T14:56:21Z</time>
      </trkpt>
      <trkpt lat="43.80406" lon="7.08528">
        <ele>967.6</ele>
        <time>2019-12-30T14:56:22Z</time>
      </trkpt>
      <trkpt lat="43.80406" lon="7.08528">
        <ele>967.6</ele>
        <time>2019-12-30T14:56:23Z</time>
      </trkpt>
      <trkpt lat="43.80406" lon="7.08528">
        <ele>967.6</ele>
        <time>2019-12-30T14:56:24Z</time>
      </trkpt>
      <trkpt lat="43.80406" lon="7.08528">
        <ele>967.6</ele>
        <time>2019-12-30T14:56:25Z</time>
      </trkpt>
      <trkpt lat="43.80406" lon="7.08528">
        <ele>967.6</ele>
        <time>2019-12-30T14:56:26Z</time>
      </trkpt>
      <trkpt lat="43.80406" lon="7.08528">
        <ele>967.6</ele>
        <time>2019-12-30T14:56:27Z</time>
      </trkpt>
      <trkpt lat="43.80406" lon="7.08528">
        <ele>967.6</ele>
        <time>2019-12-30T14:56:28Z</time>
      </trkpt>
      <trkpt lat="43.80406" lon="7.08528">
        <ele>967.6</ele>
        <time>2019-12-30T14:56:29Z</time>
      </trkpt>
      <trkpt lat="43.80406" lon="7.08528">
        <ele>967.6</ele>
        <time>2019-12-30T14:56:30Z</time>
      </trkpt>
      <trkpt lat="43.80406" lon="7.08528">
        <ele>967.6</ele>
        <time>2019-12-30T14:56:31Z</time>
      </trkpt>
      <trkpt lat="43.80406" lon="7.08528">
        <ele>967.6</ele>
        <time>2019-12-30T14:56:32Z</time>
      </trkpt>
      <trkpt lat="43.80406" lon="7.08528">
        <ele>967.6</ele>
        <time>2019-12-30T14:56:33Z</time>
      </trkpt>
      <trkpt lat="43.80406" lon="7.08528">
        <ele>967.6</ele>
        <time>2019-12-30T14:56:34Z</time>
      </trkpt>
      <trkpt lat="43.80406" lon="7.08528">
        <ele>967.6</ele>
        <time>2019-12-30T14:56:35Z</time>
      </trkpt>
      <trkpt lat="43.80406" lon="7.08528">
        <ele>967.6</ele>
        <time>2019-12-30T14:56:36Z</time>
      </trkpt>
      <trkpt lat="43.80406" lon="7.08528">
        <ele>967.6</ele>
        <time>2019-12-30T14:56:37Z</time>
      </trkpt>
      <trkpt lat="43.80406" lon="7.08528">
        <ele>967.6</ele>
        <time>2019-12-30T14:56:38Z</time>
      </trkpt>
      <trkpt lat="43.80406" lon="7.08528">
        <ele>967.6</ele>
        <time>2019-12-30T14:56:39Z</time>
      </trkpt>
      <trkpt lat="43.80406" lon="7.08528">
        <ele>967.6</ele>
        <time>2019-12-30T14:56:40Z</time>
      </trkpt>
      <trkpt lat="43.80406" lon="7.08528">
        <ele>967.6</ele>
        <time>2019-12-30T14:56:41Z</time>
      </trkpt>
      <trkpt lat="43.80406" lon="7.08528">
        <ele>967.3</ele>
        <time>2019-12-30T14:56:42Z</time>
      </trkpt>
      <trkpt lat="43.80406" lon="7.08528">
        <ele>967.3</ele>
        <time>2019-12-30T14:56:43Z</time>
      </trkpt>
      <trkpt lat="43.80406" lon="7.08528">
        <ele>967.3</ele>
        <time>2019-12-30T14:56:44Z</time>
      </trkpt>
      <trkpt lat="43.80406" lon="7.08529">
        <ele>967.3</ele>
        <time>2019-12-30T14:56:45Z</time>
      </trkpt>
      <trkpt lat="43.80406" lon="7.08529">
        <ele>967.3</ele>
        <time>2019-12-30T14:56:46Z</time>
      </trkpt>
      <trkpt lat="43.80406" lon="7.08529">
        <ele>967.3</ele>
        <time>2019-12-30T14:56:47Z</time>
      </trkpt>
      <trkpt lat="43.80406" lon="7.08529">
        <ele>967.3</ele>
        <time>2019-12-30T14:56:48Z</time>
      </trkpt>
      <trkpt lat="43.80406" lon="7.08529">
        <ele>967.3</ele>
        <time>2019-12-30T14:56:49Z</time>
      </trkpt>
      <trkpt lat="43.80406" lon="7.08529">
        <ele>967.3</ele>
        <time>2019-12-30T14:56:50Z</time>
      </trkpt>
      <trkpt lat="43.80406" lon="7.08529">
        <ele>967.3</ele>
        <time>2019-12-30T14:56:51Z</time>
      </trkpt>
      <trkpt lat="43.80406" lon="7.08529">
        <ele>967.3</ele>
        <time>2019-12-30T14:56:52Z</time>
      </trkpt>
      <trkpt lat="43.80406" lon="7.08529">
        <ele>967.3</ele>
        <time>2019-12-30T14:56:53Z</time>
      </trkpt>
      <trkpt lat="43.80406" lon="7.08529">
        <ele>967.3</ele>
        <time>2019-12-30T14:56:54Z</time>
      </trkpt>
      <trkpt lat="43.80406" lon="7.08529">
        <ele>967.3</ele>
        <time>2019-12-30T14:56:55Z</time>
      </trkpt>
      <trkpt lat="43.80406" lon="7.08529">
        <ele>967.3</ele>
        <time>2019-12-30T14:56:56Z</time>
      </trkpt>
      <trkpt lat="43.80406" lon="7.08529">
        <ele>967.3</ele>
        <time>2019-12-30T14:56:57Z</time>
      </trkpt>
      <trkpt lat="43.80406" lon="7.08529">
        <ele>967.3</ele>
        <time>2019-12-30T14:56:58Z</time>
      </trkpt>
      <trkpt lat="43.80407" lon="7.08529">
        <ele>967.3</ele>
        <time>2019-12-30T14:56:59Z</time>
      </trkpt>
      <trkpt lat="43.80407" lon="7.08529">
        <ele>967.3</ele>
        <time>2019-12-30T14:57:00Z</time>
      </trkpt>
      <trkpt lat="43.80408" lon="7.08529">
        <ele>967.3</ele>
        <time>2019-12-30T14:57:01Z</time>
      </trkpt>
      <trkpt lat="43.80409" lon="7.0853">
        <ele>967.3</ele>
        <time>2019-12-30T14:57:02Z</time>
      </trkpt>
      <trkpt lat="43.80409" lon="7.08531">
        <ele>967</ele>
        <time>2019-12-30T14:57:03Z</time>
      </trkpt>
      <trkpt lat="43.8041" lon="7.08532">
        <ele>967</ele>
        <time>2019-12-30T14:57:04Z</time>
      </trkpt>
      <trkpt lat="43.8041" lon="7.08533">
        <ele>966.8</ele>
        <time>2019-12-30T14:57:05Z</time>
      </trkpt>
      <trkpt lat="43.80411" lon="7.08535">
        <ele>966.8</ele>
        <time>2019-12-30T14:57:06Z</time>
      </trkpt>
      <trkpt lat="43.80412" lon="7.08537">
        <ele>966.6</ele>
        <time>2019-12-30T14:57:07Z</time>
      </trkpt>
      <trkpt lat="43.80413" lon="7.0854">
        <ele>966.3</ele>
        <time>2019-12-30T14:57:08Z</time>
      </trkpt>
      <trkpt lat="43.80413" lon="7.08543">
        <ele>966.1</ele>
        <time>2019-12-30T14:57:09Z</time>
      </trkpt>
      <trkpt lat="43.80413" lon="7.08545">
        <ele>966.1</ele>
        <time>2019-12-30T14:57:10Z</time>
      </trkpt>
      <trkpt lat="43.80413" lon="7.08548">
        <ele>966</ele>
        <time>2019-12-30T14:57:11Z</time>
      </trkpt>
      <trkpt lat="43.80413" lon="7.0855">
        <ele>965.8</ele>
        <time>2019-12-30T14:57:12Z</time>
      </trkpt>
      <trkpt lat="43.80414" lon="7.08552">
        <ele>965.8</ele>
        <time>2019-12-30T14:57:13Z</time>
      </trkpt>
      <trkpt lat="43.80415" lon="7.08555">
        <ele>965.7</ele>
        <time>2019-12-30T14:57:14Z</time>
      </trkpt>
      <trkpt lat="43.80416" lon="7.08558">
        <ele>965.5</ele>
        <time>2019-12-30T14:57:15Z</time>
      </trkpt>
      <trkpt lat="43.80417" lon="7.0856">
        <ele>965.4</ele>
        <time>2019-12-30T14:57:16Z</time>
      </trkpt>
      <trkpt lat="43.80418" lon="7.08561">
        <ele>965.2</ele>
        <time>2019-12-30T14:57:17Z</time>
      </trkpt>
      <trkpt lat="43.80419" lon="7.08562">
        <ele>965.1</ele>
        <time>2019-12-30T14:57:18Z</time>
      </trkpt>
      <trkpt lat="43.8042" lon="7.08563">
        <ele>965.1</ele>
        <time>2019-12-30T14:57:19Z</time>
      </trkpt>
      <trkpt lat="43.80421" lon="7.08563">
        <ele>965.1</ele>
        <time>2019-12-30T14:57:20Z</time>
      </trkpt>
      <trkpt lat="43.80421" lon="7.08563">
        <ele>964.9</ele>
        <time>2019-12-30T14:57:21Z</time>
      </trkpt>
      <trkpt lat="43.80422" lon="7.08563">
        <ele>964.9</ele>
        <time>2019-12-30T14:57:22Z</time>
      </trkpt>
      <trkpt lat="43.80422" lon="7.08563">
        <ele>964.9</ele>
        <time>2019-12-30T14:57:23Z</time>
      </trkpt>
      <trkpt lat="43.80422" lon="7.08563">
        <ele>964.9</ele>
        <time>2019-12-30T14:57:24Z</time>
      </trkpt>
      <trkpt lat="43.80422" lon="7.08564">
        <ele>964.9</ele>
        <time>2019-12-30T14:57:25Z</time>
      </trkpt>
      <trkpt lat="43.80422" lon="7.08564">
        <ele>964.9</ele>
        <time>2019-12-30T14:57:26Z</time>
      </trkpt>
      <trkpt lat="43.80422" lon="7.08564">
        <ele>964.9</ele>
        <time>2019-12-30T14:57:27Z</time>
      </trkpt>
      <trkpt lat="43.80423" lon="7.08563">
        <ele>964.9</ele>
        <time>2019-12-30T14:57:28Z</time>
      </trkpt>
      <trkpt lat="43.80424" lon="7.08562">
        <ele>965</ele>
        <time>2019-12-30T14:57:29Z</time>
      </trkpt>
      <trkpt lat="43.80425" lon="7.08561">
        <ele>964.8</ele>
        <time>2019-12-30T14:57:30Z</time>
      </trkpt>
      <trkpt lat="43.80427" lon="7.08559">
        <ele>964.8</ele>
        <time>2019-12-30T14:57:31Z</time>
      </trkpt>
      <trkpt lat="43.80428" lon="7.08558">
        <ele>964.6</ele>
        <time>2019-12-30T14:57:32Z</time>
      </trkpt>
      <trkpt lat="43.8043" lon="7.08558">
        <ele>964.7</ele>
        <time>2019-12-30T14:57:33Z</time>
      </trkpt>
      <trkpt lat="43.80431" lon="7.08558">
        <ele>964.5</ele>
        <time>2019-12-30T14:57:34Z</time>
      </trkpt>
      <trkpt lat="43.80432" lon="7.08558">
        <ele>964.5</ele>
        <time>2019-12-30T14:57:35Z</time>
      </trkpt>
      <trkpt lat="43.80433" lon="7.08558">
        <ele>964.5</ele>
        <time>2019-12-30T14:57:36Z</time>
      </trkpt>
      <trkpt lat="43.80434" lon="7.08558">
        <ele>964.2</ele>
        <time>2019-12-30T14:57:37Z</time>
      </trkpt>
      <trkpt lat="43.80436" lon="7.08557">
        <ele>964.2</ele>
        <time>2019-12-30T14:57:38Z</time>
      </trkpt>
      <trkpt lat="43.80438" lon="7.08557">
        <ele>963.9</ele>
        <time>2019-12-30T14:57:39Z</time>
      </trkpt>
      <trkpt lat="43.80441" lon="7.08556">
        <ele>963.6</ele>
        <time>2019-12-30T14:57:40Z</time>
      </trkpt>
      <trkpt lat="43.80444" lon="7.08555">
        <ele>963.2</ele>
        <time>2019-12-30T14:57:41Z</time>
      </trkpt>
      <trkpt lat="43.80447" lon="7.08555">
        <ele>962.8</ele>
        <time>2019-12-30T14:57:42Z</time>
      </trkpt>
      <trkpt lat="43.8045" lon="7.08555">
        <ele>962.4</ele>
        <time>2019-12-30T14:57:43Z</time>
      </trkpt>
      <trkpt lat="43.80463" lon="7.08564">
        <ele>961.1</ele>
        <time>2019-12-30T14:57:44Z</time>
      </trkpt>
      <trkpt lat="43.80468" lon="7.08569">
        <ele>960.4</ele>
        <time>2019-12-30T14:57:45Z</time>
      </trkpt>
      <trkpt lat="43.80474" lon="7.08574">
        <ele>959.7</ele>
        <time>2019-12-30T14:57:46Z</time>
      </trkpt>
      <trkpt lat="43.8048" lon="7.08579">
        <ele>959.1</ele>
        <time>2019-12-30T14:57:47Z</time>
      </trkpt>
      <trkpt lat="43.80486" lon="7.08584">
        <ele>959</ele>
        <time>2019-12-30T14:57:48Z</time>
      </trkpt>
      <trkpt lat="43.80492" lon="7.08592">
        <ele>958.8</ele>
        <time>2019-12-30T14:57:49Z</time>
      </trkpt>
      <trkpt lat="43.80498" lon="7.08601">
        <ele>958.4</ele>
        <time>2019-12-30T14:57:50Z</time>
      </trkpt>
      <trkpt lat="43.80502" lon="7.08608">
        <ele>958.5</ele>
        <time>2019-12-30T14:57:51Z</time>
      </trkpt>
      <trkpt lat="43.80504" lon="7.08613">
        <ele>958.2</ele>
        <time>2019-12-30T14:57:52Z</time>
      </trkpt>
      <trkpt lat="43.80506" lon="7.08619">
        <ele>958.5</ele>
        <time>2019-12-30T14:57:53Z</time>
      </trkpt>
      <trkpt lat="43.80508" lon="7.08624">
        <ele>958.3</ele>
        <time>2019-12-30T14:57:54Z</time>
      </trkpt>
      <trkpt lat="43.8051" lon="7.08629">
        <ele>958.8</ele>
        <time>2019-12-30T14:57:55Z</time>
      </trkpt>
      <trkpt lat="43.80512" lon="7.08634">
        <ele>958.7</ele>
        <time>2019-12-30T14:57:56Z</time>
      </trkpt>
      <trkpt lat="43.80513" lon="7.08638">
        <ele>959.2</ele>
        <time>2019-12-30T14:57:57Z</time>
      </trkpt>
      <trkpt lat="43.80514" lon="7.08642">
        <ele>959.7</ele>
        <time>2019-12-30T14:57:58Z</time>
      </trkpt>
      <trkpt lat="43.80514" lon="7.08645">
        <ele>959.4</ele>
        <time>2019-12-30T14:57:59Z</time>
      </trkpt>
      <trkpt lat="43.80515" lon="7.08648">
        <ele>959.8</ele>
        <time>2019-12-30T14:58:00Z</time>
      </trkpt>
      <trkpt lat="43.80515" lon="7.08652">
        <ele>959.8</ele>
        <time>2019-12-30T14:58:01Z</time>
      </trkpt>
      <trkpt lat="43.80515" lon="7.08655">
        <ele>960.2</ele>
        <time>2019-12-30T14:58:02Z</time>
      </trkpt>
      <trkpt lat="43.80515" lon="7.08658">
        <ele>960.5</ele>
        <time>2019-12-30T14:58:03Z</time>
      </trkpt>
      <trkpt lat="43.80515" lon="7.08661">
        <ele>960.8</ele>
        <time>2019-12-30T14:58:04Z</time>
      </trkpt>
      <trkpt lat="43.80515" lon="7.08664">
        <ele>960.8</ele>
        <time>2019-12-30T14:58:05Z</time>
      </trkpt>
      <trkpt lat="43.80516" lon="7.08668">
        <ele>961</ele>
        <time>2019-12-30T14:58:06Z</time>
      </trkpt>
      <trkpt lat="43.80516" lon="7.0867">
        <ele>961.2</ele>
        <time>2019-12-30T14:58:07Z</time>
      </trkpt>
      <trkpt lat="43.80516" lon="7.08673">
        <ele>961.2</ele>
        <time>2019-12-30T14:58:08Z</time>
      </trkpt>
      <trkpt lat="43.80516" lon="7.08675">
        <ele>961.3</ele>
        <time>2019-12-30T14:58:09Z</time>
      </trkpt>
      <trkpt lat="43.80516" lon="7.08678">
        <ele>961.3</ele>
        <time>2019-12-30T14:58:10Z</time>
      </trkpt>
      <trkpt lat="43.80516" lon="7.0868">
        <ele>961.4</ele>
        <time>2019-12-30T14:58:11Z</time>
      </trkpt>
      <trkpt lat="43.80516" lon="7.08682">
        <ele>961.4</ele>
        <time>2019-12-30T14:58:12Z</time>
      </trkpt>
      <trkpt lat="43.80516" lon="7.08684">
        <ele>961.4</ele>
        <time>2019-12-30T14:58:13Z</time>
      </trkpt>
      <trkpt lat="43.80515" lon="7.08686">
        <ele>961.4</ele>
        <time>2019-12-30T14:58:14Z</time>
      </trkpt>
      <trkpt lat="43.80515" lon="7.08688">
        <ele>961.4</ele>
        <time>2019-12-30T14:58:15Z</time>
      </trkpt>
      <trkpt lat="43.80514" lon="7.08691">
        <ele>962</ele>
        <time>2019-12-30T14:58:16Z</time>
      </trkpt>
      <trkpt lat="43.80513" lon="7.08693">
        <ele>961.9</ele>
        <time>2019-12-30T14:58:17Z</time>
      </trkpt>
      <trkpt lat="43.80512" lon="7.08695">
        <ele>961.9</ele>
        <time>2019-12-30T14:58:18Z</time>
      </trkpt>
      <trkpt lat="43.8051" lon="7.08697">
        <ele>962.3</ele>
        <time>2019-12-30T14:58:19Z</time>
      </trkpt>
      <trkpt lat="43.80508" lon="7.08699">
        <ele>962.3</ele>
        <time>2019-12-30T14:58:20Z</time>
      </trkpt>
      <trkpt lat="43.80506" lon="7.087">
        <ele>962.5</ele>
        <time>2019-12-30T14:58:21Z</time>
      </trkpt>
      <trkpt lat="43.80501" lon="7.087">
        <ele>963.2</ele>
        <time>2019-12-30T14:58:22Z</time>
      </trkpt>
      <trkpt lat="43.80499" lon="7.087">
        <ele>963.5</ele>
        <time>2019-12-30T14:58:23Z</time>
      </trkpt>
      <trkpt lat="43.80497" lon="7.08699">
        <ele>963.8</ele>
        <time>2019-12-30T14:58:24Z</time>
      </trkpt>
      <trkpt lat="43.80494" lon="7.08698">
        <ele>964</ele>
        <time>2019-12-30T14:58:25Z</time>
      </trkpt>
      <trkpt lat="43.80491" lon="7.08698">
        <ele>964</ele>
        <time>2019-12-30T14:58:26Z</time>
      </trkpt>
      <trkpt lat="43.80488" lon="7.08698">
        <ele>964.1</ele>
        <time>2019-12-30T14:58:27Z</time>
      </trkpt>
      <trkpt lat="43.80485" lon="7.087">
        <ele>963.6</ele>
        <time>2019-12-30T14:58:28Z</time>
      </trkpt>
      <trkpt lat="43.80482" lon="7.08702">
        <ele>963.6</ele>
        <time>2019-12-30T14:58:29Z</time>
      </trkpt>
      <trkpt lat="43.80479" lon="7.08705">
        <ele>963.1</ele>
        <time>2019-12-30T14:58:30Z</time>
      </trkpt>
      <trkpt lat="43.80477" lon="7.08708">
        <ele>963</ele>
        <time>2019-12-30T14:58:31Z</time>
      </trkpt>
      <trkpt lat="43.80475" lon="7.08711">
        <ele>962.6</ele>
        <time>2019-12-30T14:58:32Z</time>
      </trkpt>
      <trkpt lat="43.80472" lon="7.08713">
        <ele>962.1</ele>
        <time>2019-12-30T14:58:33Z</time>
      </trkpt>
      <trkpt lat="43.80471" lon="7.08716">
        <ele>962</ele>
        <time>2019-12-30T14:58:34Z</time>
      </trkpt>
      <trkpt lat="43.80469" lon="7.08718">
        <ele>961.5</ele>
        <time>2019-12-30T14:58:35Z</time>
      </trkpt>
      <trkpt lat="43.80467" lon="7.08721">
        <ele>961.4</ele>
        <time>2019-12-30T14:58:36Z</time>
      </trkpt>
      <trkpt lat="43.80465" lon="7.08723">
        <ele>960.9</ele>
        <time>2019-12-30T14:58:37Z</time>
      </trkpt>
      <trkpt lat="43.80464" lon="7.08725">
        <ele>960.7</ele>
        <time>2019-12-30T14:58:38Z</time>
      </trkpt>
      <trkpt lat="43.80462" lon="7.08727">
        <ele>960.1</ele>
        <time>2019-12-30T14:58:39Z</time>
      </trkpt>
      <trkpt lat="43.8046" lon="7.08729">
        <ele>960</ele>
        <time>2019-12-30T14:58:40Z</time>
      </trkpt>
      <trkpt lat="43.80459" lon="7.08731">
        <ele>959.4</ele>
        <time>2019-12-30T14:58:41Z</time>
      </trkpt>
      <trkpt lat="43.80457" lon="7.08733">
        <ele>959.3</ele>
        <time>2019-12-30T14:58:42Z</time>
      </trkpt>
      <trkpt lat="43.80455" lon="7.08735">
        <ele>958.4</ele>
        <time>2019-12-30T14:58:43Z</time>
      </trkpt>
      <trkpt lat="43.80453" lon="7.08736">
        <ele>958.5</ele>
        <time>2019-12-30T14:58:44Z</time>
      </trkpt>
      <trkpt lat="43.80451" lon="7.08737">
        <ele>958.3</ele>
        <time>2019-12-30T14:58:45Z</time>
      </trkpt>
      <trkpt lat="43.80449" lon="7.08738">
        <ele>958</ele>
        <time>2019-12-30T14:58:46Z</time>
      </trkpt>
      <trkpt lat="43.80449" lon="7.08738">
        <ele>958.1</ele>
        <time>2019-12-30T14:58:47Z</time>
      </trkpt>
      <trkpt lat="43.80449" lon="7.08738">
        <ele>958.2</ele>
        <time>2019-12-30T14:58:48Z</time>
      </trkpt>
      <trkpt lat="43.80448" lon="7.08738">
        <ele>958.3</ele>
        <time>2019-12-30T14:58:49Z</time>
      </trkpt>
      <trkpt lat="43.80448" lon="7.08738">
        <ele>958.4</ele>
        <time>2019-12-30T14:58:50Z</time>
      </trkpt>
      <trkpt lat="43.80448" lon="7.08738">
        <ele>958.5</ele>
        <time>2019-12-30T14:58:51Z</time>
      </trkpt>
      <trkpt lat="43.80448" lon="7.08738">
        <ele>958.6</ele>
        <time>2019-12-30T14:58:52Z</time>
      </trkpt>
      <trkpt lat="43.80448" lon="7.08738">
        <ele>958.7</ele>
        <time>2019-12-30T14:58:53Z</time>
      </trkpt>
      <trkpt lat="43.80448" lon="7.08738">
        <ele>958.8</ele>
        <time>2019-12-30T14:58:54Z</time>
      </trkpt>
      <trkpt lat="43.80448" lon="7.08738">
        <ele>958.9</ele>
        <time>2019-12-30T14:58:55Z</time>
      </trkpt>
      <trkpt lat="43.80448" lon="7.08738">
        <ele>959</ele>
        <time>2019-12-30T14:58:56Z</time>
      </trkpt>
      <trkpt lat="43.80448" lon="7.08738">
        <ele>959</ele>
        <time>2019-12-30T14:58:57Z</time>
      </trkpt>
      <trkpt lat="43.80448" lon="7.08738">
        <ele>959.1</ele>
        <time>2019-12-30T14:58:58Z</time>
      </trkpt>
      <trkpt lat="43.80448" lon="7.08738">
        <ele>959.2</ele>
        <time>2019-12-30T14:58:59Z</time>
      </trkpt>
      <trkpt lat="43.80448" lon="7.08738">
        <ele>959.3</ele>
        <time>2019-12-30T14:59:00Z</time>
      </trkpt>
      <trkpt lat="43.80448" lon="7.08738">
        <ele>959.4</ele>
        <time>2019-12-30T14:59:01Z</time>
      </trkpt>
      <trkpt lat="43.80448" lon="7.08738">
        <ele>959.5</ele>
        <time>2019-12-30T14:59:02Z</time>
      </trkpt>
      <trkpt lat="43.80448" lon="7.08738">
        <ele>959.6</ele>
        <time>2019-12-30T14:59:03Z</time>
      </trkpt>
      <trkpt lat="43.80448" lon="7.08738">
        <ele>959.7</ele>
        <time>2019-12-30T14:59:04Z</time>
      </trkpt>
      <trkpt lat="43.80448" lon="7.08738">
        <ele>959.8</ele>
        <time>2019-12-30T14:59:05Z</time>
      </trkpt>
      <trkpt lat="43.80448" lon="7.08738">
        <ele>959.9</ele>
        <time>2019-12-30T14:59:06Z</time>
      </trkpt>
      <trkpt lat="43.80448" lon="7.08738">
        <ele>960</ele>
        <time>2019-12-30T14:59:07Z</time>
      </trkpt>
      <trkpt lat="43.80448" lon="7.08738">
        <ele>960</ele>
        <time>2019-12-30T14:59:08Z</time>
      </trkpt>
      <trkpt lat="43.80448" lon="7.08738">
        <ele>960.1</ele>
        <time>2019-12-30T14:59:09Z</time>
      </trkpt>
      <trkpt lat="43.80448" lon="7.08738">
        <ele>960.2</ele>
        <time>2019-12-30T14:59:10Z</time>
      </trkpt>
      <trkpt lat="43.80448" lon="7.08738">
        <ele>960.3</ele>
        <time>2019-12-30T14:59:11Z</time>
      </trkpt>
      <trkpt lat="43.80448" lon="7.08738">
        <ele>960.4</ele>
        <time>2019-12-30T14:59:12Z</time>
      </trkpt>
      <trkpt lat="43.80448" lon="7.08738">
        <ele>960.5</ele>
        <time>2019-12-30T14:59:13Z</time>
      </trkpt>
      <trkpt lat="43.80448" lon="7.08738">
        <ele>960.6</ele>
        <time>2019-12-30T14:59:14Z</time>
      </trkpt>
      <trkpt lat="43.80448" lon="7.08738">
        <ele>960.7</ele>
        <time>2019-12-30T14:59:15Z</time>
      </trkpt>
      <trkpt lat="43.80448" lon="7.08738">
        <ele>960.8</ele>
        <time>2019-12-30T14:59:16Z</time>
      </trkpt>
      <trkpt lat="43.80448" lon="7.08738">
        <ele>960.9</ele>
        <time>2019-12-30T14:59:17Z</time>
      </trkpt>
      <trkpt lat="43.80448" lon="7.08738">
        <ele>961</ele>
        <time>2019-12-30T14:59:18Z</time>
      </trkpt>
      <trkpt lat="43.80448" lon="7.08738">
        <ele>961</ele>
        <time>2019-12-30T14:59:19Z</time>
      </trkpt>
      <trkpt lat="43.80448" lon="7.08738">
        <ele>961.1</ele>
        <time>2019-12-30T14:59:20Z</time>
      </trkpt>
      <trkpt lat="43.80448" lon="7.08738">
        <ele>961.2</ele>
        <time>2019-12-30T14:59:21Z</time>
      </trkpt>
      <trkpt lat="43.80448" lon="7.08738">
        <ele>961.3</ele>
        <time>2019-12-30T14:59:22Z</time>
      </trkpt>
      <trkpt lat="43.80448" lon="7.08738">
        <ele>961.4</ele>
        <time>2019-12-30T14:59:23Z</time>
      </trkpt>
      <trkpt lat="43.80448" lon="7.08738">
        <ele>961.5</ele>
        <time>2019-12-30T14:59:24Z</time>
      </trkpt>
      <trkpt lat="43.80448" lon="7.08738">
        <ele>961.6</ele>
        <time>2019-12-30T14:59:25Z</time>
      </trkpt>
      <trkpt lat="43.80448" lon="7.08738">
        <ele>961.7</ele>
        <time>2019-12-30T14:59:26Z</time>
      </trkpt>
      <trkpt lat="43.80448" lon="7.08738">
        <ele>961.8</ele>
        <time>2019-12-30T14:59:27Z</time>
      </trkpt>
      <trkpt lat="43.80448" lon="7.08738">
        <ele>961.9</ele>
        <time>2019-12-30T14:59:28Z</time>
      </trkpt>
      <trkpt lat="43.80448" lon="7.08738">
        <ele>962</ele>
        <time>2019-12-30T14:59:29Z</time>
      </trkpt>
      <trkpt lat="43.80448" lon="7.08738">
        <ele>962.1</ele>
        <time>2019-12-30T14:59:30Z</time>
      </trkpt>
      <trkpt lat="43.80448" lon="7.08738">
        <ele>962.1</ele>
        <time>2019-12-30T14:59:31Z</time>
      </trkpt>
      <trkpt lat="43.80448" lon="7.08738">
        <ele>962.2</ele>
        <time>2019-12-30T14:59:32Z</time>
      </trkpt>
      <trkpt lat="43.80448" lon="7.08738">
        <ele>962.3</ele>
        <time>2019-12-30T14:59:33Z</time>
      </trkpt>
      <trkpt lat="43.80448" lon="7.08738">
        <ele>962.4</ele>
        <time>2019-12-30T14:59:34Z</time>
      </trkpt>
      <trkpt lat="43.80448" lon="7.08738">
        <ele>962.5</ele>
        <time>2019-12-30T14:59:35Z</time>
      </trkpt>
      <trkpt lat="43.80448" lon="7.08738">
        <ele>962.6</ele>
        <time>2019-12-30T14:59:36Z</time>
      </trkpt>
      <trkpt lat="43.80448" lon="7.08738">
        <ele>962.7</ele>
        <time>2019-12-30T14:59:37Z</time>
      </trkpt>
      <trkpt lat="43.80448" lon="7.08738">
        <ele>962.8</ele>
        <time>2019-12-30T14:59:38Z</time>
      </trkpt>
      <trkpt lat="43.80448" lon="7.08738">
        <ele>962.9</ele>
        <time>2019-12-30T14:59:39Z</time>
      </trkpt>
      <trkpt lat="43.80448" lon="7.08738">
        <ele>963</ele>
        <time>2019-12-30T14:59:40Z</time>
      </trkpt>
      <trkpt lat="43.80448" lon="7.08738">
        <ele>963.1</ele>
        <time>2019-12-30T14:59:41Z</time>
      </trkpt>
      <trkpt lat="43.80448" lon="7.08738">
        <ele>963.1</ele>
        <time>2019-12-30T14:59:42Z</time>
      </trkpt>
      <trkpt lat="43.80448" lon="7.08738">
        <ele>963.2</ele>
        <time>2019-12-30T14:59:43Z</time>
      </trkpt>
      <trkpt lat="43.80448" lon="7.08738">
        <ele>963.3</ele>
        <time>2019-12-30T14:59:44Z</time>
      </trkpt>
      <trkpt lat="43.80448" lon="7.08738">
        <ele>963.4</ele>
        <time>2019-12-30T14:59:45Z</time>
      </trkpt>
      <trkpt lat="43.80448" lon="7.08738">
        <ele>963.5</ele>
        <time>2019-12-30T14:59:46Z</time>
      </trkpt>
      <trkpt lat="43.80448" lon="7.08738">
        <ele>963.6</ele>
        <time>2019-12-30T14:59:47Z</time>
      </trkpt>
      <trkpt lat="43.80448" lon="7.08738">
        <ele>963.7</ele>
        <time>2019-12-30T14:59:48Z</time>
      </trkpt>
      <trkpt lat="43.80448" lon="7.08738">
        <ele>963.8</ele>
        <time>2019-12-30T14:59:49Z</time>
      </trkpt>
      <trkpt lat="43.80448" lon="7.08738">
        <ele>963.9</ele>
        <time>2019-12-30T14:59:50Z</time>
      </trkpt>
      <trkpt lat="43.80448" lon="7.08738">
        <ele>964</ele>
        <time>2019-12-30T14:59:51Z</time>
      </trkpt>
      <trkpt lat="43.80448" lon="7.08738">
        <ele>964.1</ele>
        <time>2019-12-30T14:59:52Z</time>
      </trkpt>
      <trkpt lat="43.80448" lon="7.08738">
        <ele>964.1</ele>
        <time>2019-12-30T14:59:53Z</time>
      </trkpt>
      <trkpt lat="43.80448" lon="7.08738">
        <ele>964.2</ele>
        <time>2019-12-30T14:59:54Z</time>
      </trkpt>
      <trkpt lat="43.80448" lon="7.08738">
        <ele>964.3</ele>
        <time>2019-12-30T14:59:55Z</time>
      </trkpt>
      <trkpt lat="43.80448" lon="7.08738">
        <ele>964.4</ele>
        <time>2019-12-30T14:59:56Z</time>
      </trkpt>
      <trkpt lat="43.80448" lon="7.08738">
        <ele>964.5</ele>
        <time>2019-12-30T14:59:57Z</time>
      </trkpt>
      <trkpt lat="43.80448" lon="7.08738">
        <ele>964.6</ele>
        <time>2019-12-30T14:59:58Z</time>
      </trkpt>
      <trkpt lat="43.80448" lon="7.08738">
        <ele>964.7</ele>
        <time>2019-12-30T14:59:59Z</time>
      </trkpt>
      <trkpt lat="43.80448" lon="7.08738">
        <ele>964.8</ele>
        <time>2019-12-30T15:00:00Z</time>
      </trkpt>
      <trkpt lat="43.80448" lon="7.08738">
        <ele>964.9</ele>
        <time>2019-12-30T15:00:01Z</time>
      </trkpt>
      <trkpt lat="43.80448" lon="7.08738">
        <ele>965</ele>
        <time>2019-12-30T15:00:02Z</time>
      </trkpt>
      <trkpt lat="43.80448" lon="7.08738">
        <ele>965.1</ele>
        <time>2019-12-30T15:00:03Z</time>
      </trkpt>
      <trkpt lat="43.80448" lon="7.08738">
        <ele>965.1</ele>
        <time>2019-12-30T15:00:04Z</time>
      </trkpt>
      <trkpt lat="43.80448" lon="7.08738">
        <ele>965.2</ele>
        <time>2019-12-30T15:00:05Z</time>
      </trkpt>
      <trkpt lat="43.80448" lon="7.08738">
        <ele>965.3</ele>
        <time>2019-12-30T15:00:06Z</time>
      </trkpt>
      <trkpt lat="43.80448" lon="7.08738">
        <ele>965.4</ele>
        <time>2019-12-30T15:00:07Z</time>
      </trkpt>
      <trkpt lat="43.80448" lon="7.08738">
        <ele>965.5</ele>
        <time>2019-12-30T15:00:08Z</time>
      </trkpt>
      <trkpt lat="43.80448" lon="7.08738">
        <ele>965.6</ele>
        <time>2019-12-30T15:00:09Z</time>
      </trkpt>
      <trkpt lat="43.80449" lon="7.08738">
        <ele>965.7</ele>
        <time>2019-12-30T15:00:10Z</time>
      </trkpt>
      <trkpt lat="43.8045" lon="7.08737">
        <ele>966.2</ele>
        <time>2019-12-30T15:00:11Z</time>
      </trkpt>
      <trkpt lat="43.80452" lon="7.08736">
        <ele>966.6</ele>
        <time>2019-12-30T15:00:12Z</time>
      </trkpt>
      <trkpt lat="43.80455" lon="7.08735">
        <ele>966.7</ele>
        <time>2019-12-30T15:00:13Z</time>
      </trkpt>
      <trkpt lat="43.80457" lon="7.08733">
        <ele>967.7</ele>
        <time>2019-12-30T15:00:14Z</time>
      </trkpt>
      <trkpt lat="43.80459" lon="7.0873">
        <ele>968</ele>
        <time>2019-12-30T15:00:15Z</time>
      </trkpt>
      <trkpt lat="43.80461" lon="7.08728">
        <ele>968.7</ele>
        <time>2019-12-30T15:00:16Z</time>
      </trkpt>
      <trkpt lat="43.80462" lon="7.08725">
        <ele>969.6</ele>
        <time>2019-12-30T15:00:17Z</time>
      </trkpt>
      <trkpt lat="43.80463" lon="7.08722">
        <ele>969.7</ele>
        <time>2019-12-30T15:00:18Z</time>
      </trkpt>
      <trkpt lat="43.80465" lon="7.08719">
        <ele>970.3</ele>
        <time>2019-12-30T15:00:19Z</time>
      </trkpt>
      <trkpt lat="43.80466" lon="7.08717">
        <ele>971</ele>
        <time>2019-12-30T15:00:20Z</time>
      </trkpt>
      <trkpt lat="43.80468" lon="7.08714">
        <ele>971</ele>
        <time>2019-12-30T15:00:21Z</time>
      </trkpt>
      <trkpt lat="43.8047" lon="7.08711">
        <ele>971.6</ele>
        <time>2019-12-30T15:00:22Z</time>
      </trkpt>
      <trkpt lat="43.80472" lon="7.08709">
        <ele>971.7</ele>
        <time>2019-12-30T15:00:23Z</time>
      </trkpt>
      <trkpt lat="43.80475" lon="7.08706">
        <ele>972.2</ele>
        <time>2019-12-30T15:00:24Z</time>
      </trkpt>
      <trkpt lat="43.80478" lon="7.08703">
        <ele>972.6</ele>
        <time>2019-12-30T15:00:25Z</time>
      </trkpt>
      <trkpt lat="43.80483" lon="7.087">
        <ele>972.7</ele>
        <time>2019-12-30T15:00:26Z</time>
      </trkpt>
      <trkpt lat="43.80485" lon="7.08697">
        <ele>973.2</ele>
        <time>2019-12-30T15:00:27Z</time>
      </trkpt>
      <trkpt lat="43.80488" lon="7.08695">
        <ele>973.6</ele>
        <time>2019-12-30T15:00:28Z</time>
      </trkpt>
      <trkpt lat="43.80493" lon="7.08696">
        <ele>973.1</ele>
        <time>2019-12-30T15:00:29Z</time>
      </trkpt>
      <trkpt lat="43.80498" lon="7.08697">
        <ele>973</ele>
        <time>2019-12-30T15:00:30Z</time>
      </trkpt>
      <trkpt lat="43.80501" lon="7.08696">
        <ele>972.7</ele>
        <time>2019-12-30T15:00:31Z</time>
      </trkpt>
      <trkpt lat="43.80503" lon="7.08694">
        <ele>972.6</ele>
        <time>2019-12-30T15:00:32Z</time>
      </trkpt>
      <trkpt lat="43.80505" lon="7.08691">
        <ele>972.1</ele>
        <time>2019-12-30T15:00:33Z</time>
      </trkpt>
      <trkpt lat="43.80507" lon="7.08688">
        <ele>972.3</ele>
        <time>2019-12-30T15:00:34Z</time>
      </trkpt>
      <trkpt lat="43.80509" lon="7.08684">
        <ele>971.8</ele>
        <time>2019-12-30T15:00:35Z</time>
      </trkpt>
      <trkpt lat="43.80511" lon="7.08681">
        <ele>971.2</ele>
        <time>2019-12-30T15:00:36Z</time>
      </trkpt>
      <trkpt lat="43.80513" lon="7.08679">
        <ele>971.2</ele>
        <time>2019-12-30T15:00:37Z</time>
      </trkpt>
      <trkpt lat="43.80515" lon="7.08677">
        <ele>970.5</ele>
        <time>2019-12-30T15:00:38Z</time>
      </trkpt>
      <trkpt lat="43.80516" lon="7.08677">
        <ele>970.5</ele>
        <time>2019-12-30T15:00:39Z</time>
      </trkpt>
      <trkpt lat="43.80518" lon="7.08677">
        <ele>969.8</ele>
        <time>2019-12-30T15:00:40Z</time>
      </trkpt>
      <trkpt lat="43.80521" lon="7.08678">
        <ele>969.1</ele>
        <time>2019-12-30T15:00:41Z</time>
      </trkpt>
      <trkpt lat="43.80523" lon="7.08678">
        <ele>969.1</ele>
        <time>2019-12-30T15:00:42Z</time>
      </trkpt>
      <trkpt lat="43.80524" lon="7.08678">
        <ele>968.1</ele>
        <time>2019-12-30T15:00:43Z</time>
      </trkpt>
      <trkpt lat="43.80525" lon="7.08678">
        <ele>968.1</ele>
        <time>2019-12-30T15:00:44Z</time>
      </trkpt>
      <trkpt lat="43.80526" lon="7.08678">
        <ele>968.1</ele>
        <time>2019-12-30T15:00:45Z</time>
      </trkpt>
      <trkpt lat="43.80526" lon="7.08678">
        <ele>968.1</ele>
        <time>2019-12-30T15:00:46Z</time>
      </trkpt>
      <trkpt lat="43.80527" lon="7.08677">
        <ele>967</ele>
        <time>2019-12-30T15:00:47Z</time>
      </trkpt>
      <trkpt lat="43.80527" lon="7.08676">
        <ele>967</ele>
        <time>2019-12-30T15:00:48Z</time>
      </trkpt>
      <trkpt lat="43.80526" lon="7.08674">
        <ele>968.1</ele>
        <time>2019-12-30T15:00:49Z</time>
      </trkpt>
      <trkpt lat="43.80523" lon="7.08673">
        <ele>968.8</ele>
        <time>2019-12-30T15:00:50Z</time>
      </trkpt>
      <trkpt lat="43.80519" lon="7.08668">
        <ele>969.4</ele>
        <time>2019-12-30T15:00:51Z</time>
      </trkpt>
      <trkpt lat="43.80519" lon="7.08664">
        <ele>969.2</ele>
        <time>2019-12-30T15:00:52Z</time>
      </trkpt>
      <trkpt lat="43.80518" lon="7.0866">
        <ele>968.9</ele>
        <time>2019-12-30T15:00:53Z</time>
      </trkpt>
      <trkpt lat="43.80517" lon="7.08656">
        <ele>969.4</ele>
        <time>2019-12-30T15:00:54Z</time>
      </trkpt>
      <trkpt lat="43.80516" lon="7.08653">
        <ele>969.4</ele>
        <time>2019-12-30T15:00:55Z</time>
      </trkpt>
      <trkpt lat="43.80515" lon="7.08649">
        <ele>969</ele>
        <time>2019-12-30T15:00:56Z</time>
      </trkpt>
      <trkpt lat="43.80516" lon="7.08642">
        <ele>968.2</ele>
        <time>2019-12-30T15:00:57Z</time>
      </trkpt>
      <trkpt lat="43.80513" lon="7.08633">
        <ele>967.9</ele>
        <time>2019-12-30T15:00:58Z</time>
      </trkpt>
      <trkpt lat="43.80512" lon="7.0863">
        <ele>967.3</ele>
        <time>2019-12-30T15:00:59Z</time>
      </trkpt>
      <trkpt lat="43.8051" lon="7.08625">
        <ele>967.5</ele>
        <time>2019-12-30T15:01:00Z</time>
      </trkpt>
      <trkpt lat="43.80508" lon="7.08619">
        <ele>967</ele>
        <time>2019-12-30T15:01:01Z</time>
      </trkpt>
      <trkpt lat="43.80506" lon="7.08613">
        <ele>966.6</ele>
        <time>2019-12-30T15:01:02Z</time>
      </trkpt>
      <trkpt lat="43.80504" lon="7.08607">
        <ele>967</ele>
        <time>2019-12-30T15:01:03Z</time>
      </trkpt>
      <trkpt lat="43.80502" lon="7.08601">
        <ele>966.3</ele>
        <time>2019-12-30T15:01:04Z</time>
      </trkpt>
      <trkpt lat="43.805" lon="7.08595">
        <ele>966.6</ele>
        <time>2019-12-30T15:01:05Z</time>
      </trkpt>
      <trkpt lat="43.80496" lon="7.08589">
        <ele>966.9</ele>
        <time>2019-12-30T15:01:06Z</time>
      </trkpt>
      <trkpt lat="43.80494" lon="7.08587">
        <ele>967.1</ele>
        <time>2019-12-30T15:01:07Z</time>
      </trkpt>
      <trkpt lat="43.80493" lon="7.08585">
        <ele>967.1</ele>
        <time>2019-12-30T15:01:08Z</time>
      </trkpt>
      <trkpt lat="43.80492" lon="7.08583">
        <ele>967.3</ele>
        <time>2019-12-30T15:01:09Z</time>
      </trkpt>
      <trkpt lat="43.80491" lon="7.08581">
        <ele>967.3</ele>
        <time>2019-12-30T15:01:10Z</time>
      </trkpt>
      <trkpt lat="43.8049" lon="7.08579">
        <ele>966.9</ele>
        <time>2019-12-30T15:01:11Z</time>
      </trkpt>
      <trkpt lat="43.80489" lon="7.08577">
        <ele>967.4</ele>
        <time>2019-12-30T15:01:12Z</time>
      </trkpt>
      <trkpt lat="43.80487" lon="7.08576">
        <ele>967.4</ele>
        <time>2019-12-30T15:01:13Z</time>
      </trkpt>
      <trkpt lat="43.80487" lon="7.08576">
        <ele>967.4</ele>
        <time>2019-12-30T15:01:14Z</time>
      </trkpt>
      <trkpt lat="43.80487" lon="7.08576">
        <ele>967.4</ele>
        <time>2019-12-30T15:01:15Z</time>
      </trkpt>
      <trkpt lat="43.80487" lon="7.08575">
        <ele>967.4</ele>
        <time>2019-12-30T15:01:16Z</time>
      </trkpt>
      <trkpt lat="43.80487" lon="7.08575">
        <ele>967.1</ele>
        <time>2019-12-30T15:01:17Z</time>
      </trkpt>
      <trkpt lat="43.80486" lon="7.08574">
        <ele>967.5</ele>
        <time>2019-12-30T15:01:18Z</time>
      </trkpt>
      <trkpt lat="43.80485" lon="7.08572">
        <ele>967.5</ele>
        <time>2019-12-30T15:01:19Z</time>
      </trkpt>
      <trkpt lat="43.80484" lon="7.0857">
        <ele>967.2</ele>
        <time>2019-12-30T15:01:20Z</time>
      </trkpt>
      <trkpt lat="43.80482" lon="7.08567">
        <ele>967.7</ele>
        <time>2019-12-30T15:01:21Z</time>
      </trkpt>
      <trkpt lat="43.80481" lon="7.08565">
        <ele>967.5</ele>
        <time>2019-12-30T15:01:22Z</time>
      </trkpt>
      <trkpt lat="43.8048" lon="7.08563">
        <ele>967.5</ele>
        <time>2019-12-30T15:01:23Z</time>
      </trkpt>
      <trkpt lat="43.8048" lon="7.08561">
        <ele>967.7</ele>
        <time>2019-12-30T15:01:24Z</time>
      </trkpt>
      <trkpt lat="43.80479" lon="7.08558">
        <ele>967.7</ele>
        <time>2019-12-30T15:01:25Z</time>
      </trkpt>
      <trkpt lat="43.80478" lon="7.08555">
        <ele>967.5</ele>
        <time>2019-12-30T15:01:26Z</time>
      </trkpt>
      <trkpt lat="43.80477" lon="7.08552">
        <ele>967.8</ele>
        <time>2019-12-30T15:01:27Z</time>
      </trkpt>
      <trkpt lat="43.80475" lon="7.08549">
        <ele>967.6</ele>
        <time>2019-12-30T15:01:28Z</time>
      </trkpt>
      <trkpt lat="43.80474" lon="7.08546">
        <ele>967.6</ele>
        <time>2019-12-30T15:01:29Z</time>
      </trkpt>
      <trkpt lat="43.80473" lon="7.08542">
        <ele>968</ele>
        <time>2019-12-30T15:01:30Z</time>
      </trkpt>
      <trkpt lat="43.80471" lon="7.08538">
        <ele>967.9</ele>
        <time>2019-12-30T15:01:31Z</time>
      </trkpt>
      <trkpt lat="43.8047" lon="7.08534">
        <ele>968.4</ele>
        <time>2019-12-30T15:01:32Z</time>
      </trkpt>
      <trkpt lat="43.80469" lon="7.0853">
        <ele>968.2</ele>
        <time>2019-12-30T15:01:33Z</time>
      </trkpt>
      <trkpt lat="43.80469" lon="7.08526">
        <ele>968.1</ele>
        <time>2019-12-30T15:01:34Z</time>
      </trkpt>
      <trkpt lat="43.80468" lon="7.08522">
        <ele>968</ele>
        <time>2019-12-30T15:01:35Z</time>
      </trkpt>
      <trkpt lat="43.80467" lon="7.08518">
        <ele>968.5</ele>
        <time>2019-12-30T15:01:36Z</time>
      </trkpt>
      <trkpt lat="43.80467" lon="7.08515">
        <ele>968.5</ele>
        <time>2019-12-30T15:01:37Z</time>
      </trkpt>
      <trkpt lat="43.80466" lon="7.08513">
        <ele>968.4</ele>
        <time>2019-12-30T15:01:38Z</time>
      </trkpt>
      <trkpt lat="43.80465" lon="7.0851">
        <ele>968.3</ele>
        <time>2019-12-30T15:01:39Z</time>
      </trkpt>
      <trkpt lat="43.80465" lon="7.08507">
        <ele>968.8</ele>
        <time>2019-12-30T15:01:40Z</time>
      </trkpt>
      <trkpt lat="43.80464" lon="7.08504">
        <ele>968.7</ele>
        <time>2019-12-30T15:01:41Z</time>
      </trkpt>
      <trkpt lat="43.80463" lon="7.08501">
        <ele>968.6</ele>
        <time>2019-12-30T15:01:42Z</time>
      </trkpt>
      <trkpt lat="43.80462" lon="7.08498">
        <ele>968.5</ele>
        <time>2019-12-30T15:01:43Z</time>
      </trkpt>
      <trkpt lat="43.80461" lon="7.08495">
        <ele>969</ele>
        <time>2019-12-30T15:01:44Z</time>
      </trkpt>
      <trkpt lat="43.8046" lon="7.08492">
        <ele>968.9</ele>
        <time>2019-12-30T15:01:45Z</time>
      </trkpt>
      <trkpt lat="43.8046" lon="7.0849">
        <ele>968.9</ele>
        <time>2019-12-30T15:01:46Z</time>
      </trkpt>
      <trkpt lat="43.80459" lon="7.08489">
        <ele>968.9</ele>
        <time>2019-12-30T15:01:47Z</time>
      </trkpt>
      <trkpt lat="43.80459" lon="7.08488">
        <ele>968.9</ele>
        <time>2019-12-30T15:01:48Z</time>
      </trkpt>
      <trkpt lat="43.80459" lon="7.08488">
        <ele>968.9</ele>
        <time>2019-12-30T15:01:49Z</time>
      </trkpt>
      <trkpt lat="43.80459" lon="7.08488">
        <ele>968.9</ele>
        <time>2019-12-30T15:01:50Z</time>
      </trkpt>
      <trkpt lat="43.80459" lon="7.08488">
        <ele>968.9</ele>
        <time>2019-12-30T15:01:51Z</time>
      </trkpt>
      <trkpt lat="43.80459" lon="7.08488">
        <ele>968.9</ele>
        <time>2019-12-30T15:01:52Z</time>
      </trkpt>
      <trkpt lat="43.80459" lon="7.08488">
        <ele>968.9</ele>
        <time>2019-12-30T15:01:53Z</time>
      </trkpt>
      <trkpt lat="43.80459" lon="7.08488">
        <ele>968.9</ele>
        <time>2019-12-30T15:01:54Z</time>
      </trkpt>
      <trkpt lat="43.80459" lon="7.08488">
        <ele>968.9</ele>
        <time>2019-12-30T15:01:55Z</time>
      </trkpt>
      <trkpt lat="43.80459" lon="7.08488">
        <ele>968.9</ele>
        <time>2019-12-30T15:01:56Z</time>
      </trkpt>
      <trkpt lat="43.80459" lon="7.08488">
        <ele>968.9</ele>
        <time>2019-12-30T15:01:57Z</time>
      </trkpt>
      <trkpt lat="43.80459" lon="7.08488">
        <ele>968.9</ele>
        <time>2019-12-30T15:01:58Z</time>
      </trkpt>
      <trkpt lat="43.80459" lon="7.08488">
        <ele>968.9</ele>
        <time>2019-12-30T15:01:59Z</time>
      </trkpt>
      <trkpt lat="43.80459" lon="7.08488">
        <ele>968.9</ele>
        <time>2019-12-30T15:02:00Z</time>
      </trkpt>
      <trkpt lat="43.80459" lon="7.08488">
        <ele>968.9</ele>
        <time>2019-12-30T15:02:01Z</time>
      </trkpt>
      <trkpt lat="43.80459" lon="7.08488">
        <ele>968.9</ele>
        <time>2019-12-30T15:02:02Z</time>
      </trkpt>
      <trkpt lat="43.80459" lon="7.08488">
        <ele>968.9</ele>
        <time>2019-12-30T15:02:03Z</time>
      </trkpt>
      <trkpt lat="43.80459" lon="7.08488">
        <ele>968.9</ele>
        <time>2019-12-30T15:02:04Z</time>
      </trkpt>
      <trkpt lat="43.80459" lon="7.08488">
        <ele>968.9</ele>
        <time>2019-12-30T15:02:05Z</time>
      </trkpt>
      <trkpt lat="43.80459" lon="7.08488">
        <ele>968.9</ele>
        <time>2019-12-30T15:02:06Z</time>
      </trkpt>
      <trkpt lat="43.80459" lon="7.08488">
        <ele>968.9</ele>
        <time>2019-12-30T15:02:07Z</time>
      </trkpt>
      <trkpt lat="43.80459" lon="7.08488">
        <ele>968.9</ele>
        <time>2019-12-30T15:02:08Z</time>
      </trkpt>
      <trkpt lat="43.80459" lon="7.08488">
        <ele>968.9</ele>
        <time>2019-12-30T15:02:09Z</time>
      </trkpt>
      <trkpt lat="43.80459" lon="7.08488">
        <ele>968.9</ele>
        <time>2019-12-30T15:02:10Z</time>
      </trkpt>
      <trkpt lat="43.80459" lon="7.08488">
        <ele>968.9</ele>
        <time>2019-12-30T15:02:11Z</time>
      </trkpt>
      <trkpt lat="43.80459" lon="7.08488">
        <ele>968.9</ele>
        <time>2019-12-30T15:02:12Z</time>
      </trkpt>
      <trkpt lat="43.80459" lon="7.08488">
        <ele>968.9</ele>
        <time>2019-12-30T15:02:13Z</time>
      </trkpt>
      <trkpt lat="43.80459" lon="7.08488">
        <ele>968.9</ele>
        <time>2019-12-30T15:02:14Z</time>
      </trkpt>
      <trkpt lat="43.80459" lon="7.08488">
        <ele>968.9</ele>
        <time>2019-12-30T15:02:15Z</time>
      </trkpt>
      <trkpt lat="43.80459" lon="7.08488">
        <ele>968.9</ele>
        <time>2019-12-30T15:02:16Z</time>
      </trkpt>
      <trkpt lat="43.80459" lon="7.08488">
        <ele>968.9</ele>
        <time>2019-12-30T15:02:17Z</time>
      </trkpt>
      <trkpt lat="43.80459" lon="7.08488">
        <ele>968.9</ele>
        <time>2019-12-30T15:02:18Z</time>
      </trkpt>
      <trkpt lat="43.80459" lon="7.08488">
        <ele>968.9</ele>
        <time>2019-12-30T15:02:19Z</time>
      </trkpt>
      <trkpt lat="43.80459" lon="7.08488">
        <ele>968.9</ele>
        <time>2019-12-30T15:02:20Z</time>
      </trkpt>
      <trkpt lat="43.80459" lon="7.08488">
        <ele>968.9</ele>
        <time>2019-12-30T15:02:21Z</time>
      </trkpt>
      <trkpt lat="43.80459" lon="7.08488">
        <ele>968.9</ele>
        <time>2019-12-30T15:02:22Z</time>
      </trkpt>
      <trkpt lat="43.80459" lon="7.08488">
        <ele>968.9</ele>
        <time>2019-12-30T15:02:23Z</time>
      </trkpt>
      <trkpt lat="43.80459" lon="7.08488">
        <ele>968.9</ele>
        <time>2019-12-30T15:02:24Z</time>
      </trkpt>
      <trkpt lat="43.80459" lon="7.08488">
        <ele>968.9</ele>
        <time>2019-12-30T15:02:25Z</time>
      </trkpt>
      <trkpt lat="43.80459" lon="7.08488">
        <ele>968.9</ele>
        <time>2019-12-30T15:02:26Z</time>
      </trkpt>
      <trkpt lat="43.80459" lon="7.08488">
        <ele>968.9</ele>
        <time>2019-12-30T15:02:27Z</time>
      </trkpt>
      <trkpt lat="43.80459" lon="7.08488">
        <ele>968.9</ele>
        <time>2019-12-30T15:02:28Z</time>
      </trkpt>
      <trkpt lat="43.80459" lon="7.08488">
        <ele>968.9</ele>
        <time>2019-12-30T15:02:29Z</time>
      </trkpt>
      <trkpt lat="43.80459" lon="7.08488">
        <ele>968.9</ele>
        <time>2019-12-30T15:02:30Z</time>
      </trkpt>
      <trkpt lat="43.80459" lon="7.08488">
        <ele>968.9</ele>
        <time>2019-12-30T15:02:31Z</time>
      </trkpt>
      <trkpt lat="43.80459" lon="7.08488">
        <ele>968.9</ele>
        <time>2019-12-30T15:02:32Z</time>
      </trkpt>
      <trkpt lat="43.80459" lon="7.08488">
        <ele>968.9</ele>
        <time>2019-12-30T15:02:33Z</time>
      </trkpt>
      <trkpt lat="43.80459" lon="7.08488">
        <ele>968.9</ele>
        <time>2019-12-30T15:02:34Z</time>
      </trkpt>
      <trkpt lat="43.80459" lon="7.08488">
        <ele>968.9</ele>
        <time>2019-12-30T15:02:35Z</time>
      </trkpt>
      <trkpt lat="43.80459" lon="7.08488">
        <ele>968.9</ele>
        <time>2019-12-30T15:02:36Z</time>
      </trkpt>
      <trkpt lat="43.80459" lon="7.08488">
        <ele>968.9</ele>
        <time>2019-12-30T15:02:37Z</time>
      </trkpt>
      <trkpt lat="43.80459" lon="7.08488">
        <ele>968.9</ele>
        <time>2019-12-30T15:02:38Z</time>
      </trkpt>
      <trkpt lat="43.80459" lon="7.08488">
        <ele>968.9</ele>
        <time>2019-12-30T15:02:39Z</time>
      </trkpt>
      <trkpt lat="43.80459" lon="7.08488">
        <ele>968.9</ele>
        <time>2019-12-30T15:02:40Z</time>
      </trkpt>
      <trkpt lat="43.80459" lon="7.08488">
        <ele>968.9</ele>
        <time>2019-12-30T15:02:41Z</time>
      </trkpt>
      <trkpt lat="43.80459" lon="7.08488">
        <ele>968.9</ele>
        <time>2019-12-30T15:02:42Z</time>
      </trkpt>
      <trkpt lat="43.80459" lon="7.08488">
        <ele>968.9</ele>
        <time>2019-12-30T15:02:43Z</time>
      </trkpt>
      <trkpt lat="43.80459" lon="7.08488">
        <ele>968.9</ele>
        <time>2019-12-30T15:02:44Z</time>
      </trkpt>
      <trkpt lat="43.80459" lon="7.08488">
        <ele>968.9</ele>
        <time>2019-12-30T15:02:45Z</time>
      </trkpt>
      <trkpt lat="43.80459" lon="7.08488">
        <ele>968.9</ele>
        <time>2019-12-30T15:02:46Z</time>
      </trkpt>
      <trkpt lat="43.80459" lon="7.08488">
        <ele>968.9</ele>
        <time>2019-12-30T15:02:47Z</time>
      </trkpt>
      <trkpt lat="43.80459" lon="7.08488">
        <ele>968.9</ele>
        <time>2019-12-30T15:02:48Z</time>
      </trkpt>
      <trkpt lat="43.80459" lon="7.08488">
        <ele>968.9</ele>
        <time>2019-12-30T15:02:49Z</time>
      </trkpt>
      <trkpt lat="43.80459" lon="7.08488">
        <ele>968.9</ele>
        <time>2019-12-30T15:02:50Z</time>
      </trkpt>
      <trkpt lat="43.80459" lon="7.08488">
        <ele>968.9</ele>
        <time>2019-12-30T15:02:51Z</time>
      </trkpt>
      <trkpt lat="43.80459" lon="7.08488">
        <ele>968.9</ele>
        <time>2019-12-30T15:02:52Z</time>
      </trkpt>
      <trkpt lat="43.80459" lon="7.08488">
        <ele>968.9</ele>
        <time>2019-12-30T15:02:53Z</time>
      </trkpt>
      <trkpt lat="43.80459" lon="7.08488">
        <ele>968.9</ele>
        <time>2019-12-30T15:02:54Z</time>
      </trkpt>
      <trkpt lat="43.80459" lon="7.08488">
        <ele>968.9</ele>
        <time>2019-12-30T15:02:55Z</time>
      </trkpt>
      <trkpt lat="43.80459" lon="7.08488">
        <ele>968.9</ele>
        <time>2019-12-30T15:02:56Z</time>
      </trkpt>
      <trkpt lat="43.80459" lon="7.08488">
        <ele>968.9</ele>
        <time>2019-12-30T15:02:57Z</time>
      </trkpt>
      <trkpt lat="43.80459" lon="7.08488">
        <ele>968.9</ele>
        <time>2019-12-30T15:02:58Z</time>
      </trkpt>
      <trkpt lat="43.80459" lon="7.08488">
        <ele>968.9</ele>
        <time>2019-12-30T15:02:59Z</time>
      </trkpt>
      <trkpt lat="43.80459" lon="7.08488">
        <ele>968.9</ele>
        <time>2019-12-30T15:03:00Z</time>
      </trkpt>
      <trkpt lat="43.80459" lon="7.08488">
        <ele>968.9</ele>
        <time>2019-12-30T15:03:01Z</time>
      </trkpt>
      <trkpt lat="43.80459" lon="7.08488">
        <ele>968.9</ele>
        <time>2019-12-30T15:03:02Z</time>
      </trkpt>
      <trkpt lat="43.80459" lon="7.08488">
        <ele>968.9</ele>
        <time>2019-12-30T15:03:03Z</time>
      </trkpt>
      <trkpt lat="43.80459" lon="7.08488">
        <ele>968.9</ele>
        <time>2019-12-30T15:03:04Z</time>
      </trkpt>
      <trkpt lat="43.80459" lon="7.08488">
        <ele>968.9</ele>
        <time>2019-12-30T15:03:05Z</time>
      </trkpt>
      <trkpt lat="43.80459" lon="7.08488">
        <ele>968.9</ele>
        <time>2019-12-30T15:03:06Z</time>
      </trkpt>
      <trkpt lat="43.80459" lon="7.08488">
        <ele>968.9</ele>
        <time>2019-12-30T15:03:07Z</time>
      </trkpt>
      <trkpt lat="43.80459" lon="7.08488">
        <ele>968.9</ele>
        <time>2019-12-30T15:03:08Z</time>
      </trkpt>
      <trkpt lat="43.80459" lon="7.08488">
        <ele>968.9</ele>
        <time>2019-12-30T15:03:09Z</time>
      </trkpt>
      <trkpt lat="43.80459" lon="7.08488">
        <ele>968.9</ele>
        <time>2019-12-30T15:03:10Z</time>
      </trkpt>
      <trkpt lat="43.80459" lon="7.08488">
        <ele>968.9</ele>
        <time>2019-12-30T15:03:11Z</time>
      </trkpt>
      <trkpt lat="43.80459" lon="7.08488">
        <ele>968.9</ele>
        <time>2019-12-30T15:03:12Z</time>
      </trkpt>
      <trkpt lat="43.80459" lon="7.08488">
        <ele>968.9</ele>
        <time>2019-12-30T15:03:13Z</time>
      </trkpt>
      <trkpt lat="43.80459" lon="7.08488">
        <ele>968.9</ele>
        <time>2019-12-30T15:03:14Z</time>
      </trkpt>
      <trkpt lat="43.80459" lon="7.08489">
        <ele>968.9</ele>
        <time>2019-12-30T15:03:15Z</time>
      </trkpt>
      <trkpt lat="43.80459" lon="7.0849">
        <ele>968.9</ele>
        <time>2019-12-30T15:03:16Z</time>
      </trkpt>
      <trkpt lat="43.8046" lon="7.08491">
        <ele>968.9</ele>
        <time>2019-12-30T15:03:17Z</time>
      </trkpt>
      <trkpt lat="43.8046" lon="7.08492">
        <ele>968.9</ele>
        <time>2019-12-30T15:03:18Z</time>
      </trkpt>
      <trkpt lat="43.8046" lon="7.08492">
        <ele>968.9</ele>
        <time>2019-12-30T15:03:19Z</time>
      </trkpt>
      <trkpt lat="43.8046" lon="7.08492">
        <ele>968.9</ele>
        <time>2019-12-30T15:03:20Z</time>
      </trkpt>
      <trkpt lat="43.8046" lon="7.08492">
        <ele>968.9</ele>
        <time>2019-12-30T15:03:21Z</time>
      </trkpt>
      <trkpt lat="43.8046" lon="7.08492">
        <ele>968.9</ele>
        <time>2019-12-30T15:03:22Z</time>
      </trkpt>
      <trkpt lat="43.8046" lon="7.08492">
        <ele>968.9</ele>
        <time>2019-12-30T15:03:23Z</time>
      </trkpt>
      <trkpt lat="43.8046" lon="7.08492">
        <ele>968.9</ele>
        <time>2019-12-30T15:03:24Z</time>
      </trkpt>
      <trkpt lat="43.8046" lon="7.08493">
        <ele>968.9</ele>
        <time>2019-12-30T15:03:25Z</time>
      </trkpt>
      <trkpt lat="43.8046" lon="7.08494">
        <ele>969</ele>
        <time>2019-12-30T15:03:26Z</time>
      </trkpt>
      <trkpt lat="43.8046" lon="7.08496">
        <ele>969</ele>
        <time>2019-12-30T15:03:27Z</time>
      </trkpt>
      <trkpt lat="43.80461" lon="7.08499">
        <ele>969.1</ele>
        <time>2019-12-30T15:03:28Z</time>
      </trkpt>
      <trkpt lat="43.80462" lon="7.08502">
        <ele>968.6</ele>
        <time>2019-12-30T15:03:29Z</time>
      </trkpt>
      <trkpt lat="43.80463" lon="7.08506">
        <ele>968.7</ele>
        <time>2019-12-30T15:03:30Z</time>
      </trkpt>
      <trkpt lat="43.80465" lon="7.08509">
        <ele>968.3</ele>
        <time>2019-12-30T15:03:31Z</time>
      </trkpt>
      <trkpt lat="43.80466" lon="7.08512">
        <ele>968.4</ele>
        <time>2019-12-30T15:03:32Z</time>
      </trkpt>
      <trkpt lat="43.80468" lon="7.08515">
        <ele>968.5</ele>
        <time>2019-12-30T15:03:33Z</time>
      </trkpt>
      <trkpt lat="43.80469" lon="7.08519">
        <ele>967.9</ele>
        <time>2019-12-30T15:03:34Z</time>
      </trkpt>
      <trkpt lat="43.8047" lon="7.08522">
        <ele>968</ele>
        <time>2019-12-30T15:03:35Z</time>
      </trkpt>
      <trkpt lat="43.80471" lon="7.08525">
        <ele>967.5</ele>
        <time>2019-12-30T15:03:36Z</time>
      </trkpt>
      <trkpt lat="43.80472" lon="7.08528">
        <ele>967.6</ele>
        <time>2019-12-30T15:03:37Z</time>
      </trkpt>
      <trkpt lat="43.80473" lon="7.08531">
        <ele>967.6</ele>
        <time>2019-12-30T15:03:38Z</time>
      </trkpt>
      <trkpt lat="43.80474" lon="7.08534">
        <ele>967.8</ele>
        <time>2019-12-30T15:03:39Z</time>
      </trkpt>
      <trkpt lat="43.80475" lon="7.08537">
        <ele>967.3</ele>
        <time>2019-12-30T15:03:40Z</time>
      </trkpt>
      <trkpt lat="43.80475" lon="7.0854">
        <ele>967.3</ele>
        <time>2019-12-30T15:03:41Z</time>
      </trkpt>
      <trkpt lat="43.80476" lon="7.08543">
        <ele>967.5</ele>
        <time>2019-12-30T15:03:42Z</time>
      </trkpt>
      <trkpt lat="43.80477" lon="7.08546">
        <ele>967.6</ele>
        <time>2019-12-30T15:03:43Z</time>
      </trkpt>
      <trkpt lat="43.80478" lon="7.08549">
        <ele>967.1</ele>
        <time>2019-12-30T15:03:44Z</time>
      </trkpt>
      <trkpt lat="43.80479" lon="7.08552">
        <ele>967.3</ele>
        <time>2019-12-30T15:03:45Z</time>
      </trkpt>
      <trkpt lat="43.80479" lon="7.08554">
        <ele>967.5</ele>
        <time>2019-12-30T15:03:46Z</time>
      </trkpt>
      <trkpt lat="43.8048" lon="7.08556">
        <ele>967.5</ele>
        <time>2019-12-30T15:03:47Z</time>
      </trkpt>
      <trkpt lat="43.8048" lon="7.08557">
        <ele>967</ele>
        <time>2019-12-30T15:03:48Z</time>
      </trkpt>
      <trkpt lat="43.80481" lon="7.08557">
        <ele>967</ele>
        <time>2019-12-30T15:03:49Z</time>
      </trkpt>
      <trkpt lat="43.80481" lon="7.08557">
        <ele>967</ele>
        <time>2019-12-30T15:03:50Z</time>
      </trkpt>
      <trkpt lat="43.80481" lon="7.08557">
        <ele>967</ele>
        <time>2019-12-30T15:03:51Z</time>
      </trkpt>
      <trkpt lat="43.80481" lon="7.08557">
        <ele>967</ele>
        <time>2019-12-30T15:03:52Z</time>
      </trkpt>
      <trkpt lat="43.80481" lon="7.08557">
        <ele>967</ele>
        <time>2019-12-30T15:03:53Z</time>
      </trkpt>
      <trkpt lat="43.80481" lon="7.08557">
        <ele>967</ele>
        <time>2019-12-30T15:03:54Z</time>
      </trkpt>
      <trkpt lat="43.80481" lon="7.08557">
        <ele>967</ele>
        <time>2019-12-30T15:03:55Z</time>
      </trkpt>
      <trkpt lat="43.80481" lon="7.08557">
        <ele>967</ele>
        <time>2019-12-30T15:03:56Z</time>
      </trkpt>
      <trkpt lat="43.80481" lon="7.08557">
        <ele>967</ele>
        <time>2019-12-30T15:03:57Z</time>
      </trkpt>
      <trkpt lat="43.80481" lon="7.08557">
        <ele>967</ele>
        <time>2019-12-30T15:03:58Z</time>
      </trkpt>
      <trkpt lat="43.80481" lon="7.08557">
        <ele>967</ele>
        <time>2019-12-30T15:03:59Z</time>
      </trkpt>
      <trkpt lat="43.80481" lon="7.08557">
        <ele>967</ele>
        <time>2019-12-30T15:04:00Z</time>
      </trkpt>
      <trkpt lat="43.80481" lon="7.08557">
        <ele>967</ele>
        <time>2019-12-30T15:04:01Z</time>
      </trkpt>
      <trkpt lat="43.80481" lon="7.08557">
        <ele>967</ele>
        <time>2019-12-30T15:04:02Z</time>
      </trkpt>
      <trkpt lat="43.80481" lon="7.08557">
        <ele>967</ele>
        <time>2019-12-30T15:04:03Z</time>
      </trkpt>
      <trkpt lat="43.80481" lon="7.08557">
        <ele>967</ele>
        <time>2019-12-30T15:04:04Z</time>
      </trkpt>
      <trkpt lat="43.80481" lon="7.08557">
        <ele>967</ele>
        <time>2019-12-30T15:04:05Z</time>
      </trkpt>
      <trkpt lat="43.80481" lon="7.08557">
        <ele>967</ele>
        <time>2019-12-30T15:04:06Z</time>
      </trkpt>
      <trkpt lat="43.80481" lon="7.08557">
        <ele>967</ele>
        <time>2019-12-30T15:04:07Z</time>
      </trkpt>
      <trkpt lat="43.80481" lon="7.08558">
        <ele>967</ele>
        <time>2019-12-30T15:04:08Z</time>
      </trkpt>
      <trkpt lat="43.80481" lon="7.08559">
        <ele>967.2</ele>
        <time>2019-12-30T15:04:09Z</time>
      </trkpt>
      <trkpt lat="43.80482" lon="7.0856">
        <ele>967.2</ele>
        <time>2019-12-30T15:04:10Z</time>
      </trkpt>
      <trkpt lat="43.80483" lon="7.08563">
        <ele>967.5</ele>
        <time>2019-12-30T15:04:11Z</time>
      </trkpt>
      <trkpt lat="43.80484" lon="7.08566">
        <ele>967</ele>
        <time>2019-12-30T15:04:12Z</time>
      </trkpt>
      <trkpt lat="43.80486" lon="7.08569">
        <ele>967.2</ele>
        <time>2019-12-30T15:04:13Z</time>
      </trkpt>
      <trkpt lat="43.80488" lon="7.08573">
        <ele>967.1</ele>
        <time>2019-12-30T15:04:14Z</time>
      </trkpt>
      <trkpt lat="43.8049" lon="7.08577">
        <ele>966.9</ele>
        <time>2019-12-30T15:04:15Z</time>
      </trkpt>
      <trkpt lat="43.80492" lon="7.0858">
        <ele>967.3</ele>
        <time>2019-12-30T15:04:16Z</time>
      </trkpt>
      <trkpt lat="43.80495" lon="7.08583">
        <ele>966.7</ele>
        <time>2019-12-30T15:04:17Z</time>
      </trkpt>
      <trkpt lat="43.80497" lon="7.08586">
        <ele>966.6</ele>
        <time>2019-12-30T15:04:18Z</time>
      </trkpt>
      <trkpt lat="43.80498" lon="7.08588">
        <ele>966.6</ele>
        <time>2019-12-30T15:04:19Z</time>
      </trkpt>
      <trkpt lat="43.80499" lon="7.08589">
        <ele>966.3</ele>
        <time>2019-12-30T15:04:20Z</time>
      </trkpt>
      <trkpt lat="43.80499" lon="7.08589">
        <ele>966.3</ele>
        <time>2019-12-30T15:04:21Z</time>
      </trkpt>
      <trkpt lat="43.80499" lon="7.0859">
        <ele>966.3</ele>
        <time>2019-12-30T15:04:22Z</time>
      </trkpt>
      <trkpt lat="43.80499" lon="7.0859">
        <ele>966.3</ele>
        <time>2019-12-30T15:04:23Z</time>
      </trkpt>
      <trkpt lat="43.80499" lon="7.0859">
        <ele>966.3</ele>
        <time>2019-12-30T15:04:24Z</time>
      </trkpt>
      <trkpt lat="43.80499" lon="7.0859">
        <ele>966.3</ele>
        <time>2019-12-30T15:04:25Z</time>
      </trkpt>
      <trkpt lat="43.80499" lon="7.0859">
        <ele>966.3</ele>
        <time>2019-12-30T15:04:26Z</time>
      </trkpt>
      <trkpt lat="43.80499" lon="7.0859">
        <ele>966.3</ele>
        <time>2019-12-30T15:04:27Z</time>
      </trkpt>
      <trkpt lat="43.805" lon="7.08592">
        <ele>966.3</ele>
        <time>2019-12-30T15:04:28Z</time>
      </trkpt>
      <trkpt lat="43.80501" lon="7.08595">
        <ele>966.6</ele>
        <time>2019-12-30T15:04:29Z</time>
      </trkpt>
      <trkpt lat="43.80502" lon="7.08599">
        <ele>966.3</ele>
        <time>2019-12-30T15:04:30Z</time>
      </trkpt>
      <trkpt lat="43.80503" lon="7.08603">
        <ele>966.6</ele>
        <time>2019-12-30T15:04:31Z</time>
      </trkpt>
      <trkpt lat="43.80504" lon="7.08606">
        <ele>967</ele>
        <time>2019-12-30T15:04:32Z</time>
      </trkpt>
      <trkpt lat="43.80506" lon="7.0861">
        <ele>966.6</ele>
        <time>2019-12-30T15:04:33Z</time>
      </trkpt>
      <trkpt lat="43.80508" lon="7.08614">
        <ele>967</ele>
        <time>2019-12-30T15:04:34Z</time>
      </trkpt>
      <trkpt lat="43.8051" lon="7.08617">
        <ele>966.3</ele>
        <time>2019-12-30T15:04:35Z</time>
      </trkpt>
      <trkpt lat="43.80513" lon="7.08621">
        <ele>966.4</ele>
        <time>2019-12-30T15:04:36Z</time>
      </trkpt>
      <trkpt lat="43.80516" lon="7.08623">
        <ele>966.2</ele>
        <time>2019-12-30T15:04:37Z</time>
      </trkpt>
      <trkpt lat="43.80519" lon="7.08626">
        <ele>965.5</ele>
        <time>2019-12-30T15:04:38Z</time>
      </trkpt>
      <trkpt lat="43.80522" lon="7.08629">
        <ele>965.1</ele>
        <time>2019-12-30T15:04:39Z</time>
      </trkpt>
      <trkpt lat="43.80525" lon="7.08631">
        <ele>964.6</ele>
        <time>2019-12-30T15:04:40Z</time>
      </trkpt>
      <trkpt lat="43.80528" lon="7.08634">
        <ele>963.5</ele>
        <time>2019-12-30T15:04:41Z</time>
      </trkpt>
      <trkpt lat="43.8053" lon="7.08638">
        <ele>962.8</ele>
        <time>2019-12-30T15:04:42Z</time>
      </trkpt>
      <trkpt lat="43.80532" lon="7.08641">
        <ele>963.2</ele>
        <time>2019-12-30T15:04:43Z</time>
      </trkpt>
      <trkpt lat="43.80534" lon="7.08644">
        <ele>962</ele>
        <time>2019-12-30T15:04:44Z</time>
      </trkpt>
      <trkpt lat="43.80536" lon="7.08646">
        <ele>961.2</ele>
        <time>2019-12-30T15:04:45Z</time>
      </trkpt>
      <trkpt lat="43.80538" lon="7.08647">
        <ele>961.2</ele>
        <time>2019-12-30T15:04:46Z</time>
      </trkpt>
      <trkpt lat="43.80539" lon="7.08648">
        <ele>960</ele>
        <time>2019-12-30T15:04:47Z</time>
      </trkpt>
      <trkpt lat="43.80541" lon="7.08648">
        <ele>960.4</ele>
        <time>2019-12-30T15:04:48Z</time>
      </trkpt>
      <trkpt lat="43.80542" lon="7.08649">
        <ele>960.4</ele>
        <time>2019-12-30T15:04:49Z</time>
      </trkpt>
      <trkpt lat="43.80543" lon="7.08649">
        <ele>959.3</ele>
        <time>2019-12-30T15:04:50Z</time>
      </trkpt>
      <trkpt lat="43.80545" lon="7.0865">
        <ele>959.3</ele>
        <time>2019-12-30T15:04:51Z</time>
      </trkpt>
      <trkpt lat="43.80547" lon="7.08652">
        <ele>958</ele>
        <time>2019-12-30T15:04:52Z</time>
      </trkpt>
      <trkpt lat="43.8055" lon="7.08654">
        <ele>957.1</ele>
        <time>2019-12-30T15:04:53Z</time>
      </trkpt>
      <trkpt lat="43.80552" lon="7.08656">
        <ele>955.7</ele>
        <time>2019-12-30T15:04:54Z</time>
      </trkpt>
      <trkpt lat="43.80554" lon="7.08658">
        <ele>956.1</ele>
        <time>2019-12-30T15:04:55Z</time>
      </trkpt>
      <trkpt lat="43.80555" lon="7.0866">
        <ele>954.6</ele>
        <time>2019-12-30T15:04:56Z</time>
      </trkpt>
      <trkpt lat="43.80556" lon="7.08663">
        <ele>955.1</ele>
        <time>2019-12-30T15:04:57Z</time>
      </trkpt>
      <trkpt lat="43.80558" lon="7.08665">
        <ele>955.1</ele>
        <time>2019-12-30T15:04:58Z</time>
      </trkpt>
      <trkpt lat="43.80559" lon="7.08667">
        <ele>954.1</ele>
        <time>2019-12-30T15:04:59Z</time>
      </trkpt>
      <trkpt lat="43.8056" lon="7.08669">
        <ele>954.1</ele>
        <time>2019-12-30T15:05:00Z</time>
      </trkpt>
      <trkpt lat="43.80561" lon="7.08671">
        <ele>953.2</ele>
        <time>2019-12-30T15:05:01Z</time>
      </trkpt>
      <trkpt lat="43.80562" lon="7.08672">
        <ele>953.2</ele>
        <time>2019-12-30T15:05:02Z</time>
      </trkpt>
      <trkpt lat="43.80564" lon="7.08674">
        <ele>953.7</ele>
        <time>2019-12-30T15:05:03Z</time>
      </trkpt>
      <trkpt lat="43.80565" lon="7.08676">
        <ele>952.3</ele>
        <time>2019-12-30T15:05:04Z</time>
      </trkpt>
      <trkpt lat="43.80566" lon="7.08679">
        <ele>952.8</ele>
        <time>2019-12-30T15:05:05Z</time>
      </trkpt>
      <trkpt lat="43.80567" lon="7.08682">
        <ele>951.4</ele>
        <time>2019-12-30T15:05:06Z</time>
      </trkpt>
      <trkpt lat="43.80568" lon="7.08684">
        <ele>951.9</ele>
        <time>2019-12-30T15:05:07Z</time>
      </trkpt>
      <trkpt lat="43.8057" lon="7.08687">
        <ele>952.3</ele>
        <time>2019-12-30T15:05:08Z</time>
      </trkpt>
      <trkpt lat="43.80571" lon="7.0869">
        <ele>950.9</ele>
        <time>2019-12-30T15:05:09Z</time>
      </trkpt>
      <trkpt lat="43.80572" lon="7.08693">
        <ele>951.3</ele>
        <time>2019-12-30T15:05:10Z</time>
      </trkpt>
      <trkpt lat="43.80574" lon="7.08695">
        <ele>949.9</ele>
        <time>2019-12-30T15:05:11Z</time>
      </trkpt>
      <trkpt lat="43.80575" lon="7.087">
        <ele>950.3</ele>
        <time>2019-12-30T15:05:12Z</time>
      </trkpt>
      <trkpt lat="43.80575" lon="7.08701">
        <ele>950.6</ele>
        <time>2019-12-30T15:05:13Z</time>
      </trkpt>
      <trkpt lat="43.80575" lon="7.08702">
        <ele>950.6</ele>
        <time>2019-12-30T15:05:14Z</time>
      </trkpt>
      <trkpt lat="43.80575" lon="7.08704">
        <ele>950.6</ele>
        <time>2019-12-30T15:05:15Z</time>
      </trkpt>
      <trkpt lat="43.80575" lon="7.08705">
        <ele>950.9</ele>
        <time>2019-12-30T15:05:16Z</time>
      </trkpt>
      <trkpt lat="43.80575" lon="7.08706">
        <ele>950.9</ele>
        <time>2019-12-30T15:05:17Z</time>
      </trkpt>
      <trkpt lat="43.80576" lon="7.08707">
        <ele>950.9</ele>
        <time>2019-12-30T15:05:18Z</time>
      </trkpt>
      <trkpt lat="43.80576" lon="7.08709">
        <ele>951.2</ele>
        <time>2019-12-30T15:05:19Z</time>
      </trkpt>
      <trkpt lat="43.80576" lon="7.0871">
        <ele>951.2</ele>
        <time>2019-12-30T15:05:20Z</time>
      </trkpt>
      <trkpt lat="43.80576" lon="7.0871">
        <ele>951.2</ele>
        <time>2019-12-30T15:05:21Z</time>
      </trkpt>
      <trkpt lat="43.80576" lon="7.0871">
        <ele>951.2</ele>
        <time>2019-12-30T15:05:22Z</time>
      </trkpt>
      <trkpt lat="43.80576" lon="7.0871">
        <ele>951.2</ele>
        <time>2019-12-30T15:05:23Z</time>
      </trkpt>
      <trkpt lat="43.80576" lon="7.0871">
        <ele>951.2</ele>
        <time>2019-12-30T15:05:24Z</time>
      </trkpt>
      <trkpt lat="43.80576" lon="7.0871">
        <ele>951.2</ele>
        <time>2019-12-30T15:05:25Z</time>
      </trkpt>
      <trkpt lat="43.80576" lon="7.0871">
        <ele>951.2</ele>
        <time>2019-12-30T15:05:26Z</time>
      </trkpt>
      <trkpt lat="43.80576" lon="7.0871">
        <ele>949.8</ele>
        <time>2019-12-30T15:05:27Z</time>
      </trkpt>
      <trkpt lat="43.80576" lon="7.0871">
        <ele>949.8</ele>
        <time>2019-12-30T15:05:28Z</time>
      </trkpt>
      <trkpt lat="43.80577" lon="7.0871">
        <ele>949.8</ele>
        <time>2019-12-30T15:05:29Z</time>
      </trkpt>
      <trkpt lat="43.80577" lon="7.08709">
        <ele>949.8</ele>
        <time>2019-12-30T15:05:30Z</time>
      </trkpt>
      <trkpt lat="43.80578" lon="7.08708">
        <ele>949.5</ele>
        <time>2019-12-30T15:05:31Z</time>
      </trkpt>
      <trkpt lat="43.8058" lon="7.08708">
        <ele>948.3</ele>
        <time>2019-12-30T15:05:32Z</time>
      </trkpt>
      <trkpt lat="43.80582" lon="7.08711">
        <ele>948.3</ele>
        <time>2019-12-30T15:05:33Z</time>
      </trkpt>
      <trkpt lat="43.80584" lon="7.08714">
        <ele>947.1</ele>
        <time>2019-12-30T15:05:34Z</time>
      </trkpt>
      <trkpt lat="43.80585" lon="7.08717">
        <ele>947.1</ele>
        <time>2019-12-30T15:05:35Z</time>
      </trkpt>
      <trkpt lat="43.80586" lon="7.08719">
        <ele>946</ele>
        <time>2019-12-30T15:05:36Z</time>
      </trkpt>
      <trkpt lat="43.80587" lon="7.08722">
        <ele>946.4</ele>
        <time>2019-12-30T15:05:37Z</time>
      </trkpt>
      <trkpt lat="43.80589" lon="7.08723">
        <ele>945.1</ele>
        <time>2019-12-30T15:05:38Z</time>
      </trkpt>
      <trkpt lat="43.80591" lon="7.08723">
        <ele>945.1</ele>
        <time>2019-12-30T15:05:39Z</time>
      </trkpt>
      <trkpt lat="43.80594" lon="7.08723">
        <ele>943.8</ele>
        <time>2019-12-30T15:05:40Z</time>
      </trkpt>
      <trkpt lat="43.80597" lon="7.08724">
        <ele>942.5</ele>
        <time>2019-12-30T15:05:41Z</time>
      </trkpt>
      <trkpt lat="43.806" lon="7.08724">
        <ele>941.2</ele>
        <time>2019-12-30T15:05:42Z</time>
      </trkpt>
      <trkpt lat="43.80603" lon="7.08726">
        <ele>940.5</ele>
        <time>2019-12-30T15:05:43Z</time>
      </trkpt>
      <trkpt lat="43.80605" lon="7.08727">
        <ele>939.3</ele>
        <time>2019-12-30T15:05:44Z</time>
      </trkpt>
      <trkpt lat="43.80608" lon="7.08729">
        <ele>938.1</ele>
        <time>2019-12-30T15:05:45Z</time>
      </trkpt>
      <trkpt lat="43.8061" lon="7.08732">
        <ele>938.7</ele>
        <time>2019-12-30T15:05:46Z</time>
      </trkpt>
      <trkpt lat="43.80611" lon="7.08734">
        <ele>937.5</ele>
        <time>2019-12-30T15:05:47Z</time>
      </trkpt>
      <trkpt lat="43.80612" lon="7.08736">
        <ele>938.1</ele>
        <time>2019-12-30T15:05:48Z</time>
      </trkpt>
      <trkpt lat="43.80613" lon="7.08738">
        <ele>938.1</ele>
        <time>2019-12-30T15:05:49Z</time>
      </trkpt>
      <trkpt lat="43.80614" lon="7.0874">
        <ele>937.5</ele>
        <time>2019-12-30T15:05:50Z</time>
      </trkpt>
      <trkpt lat="43.80614" lon="7.08742">
        <ele>937.5</ele>
        <time>2019-12-30T15:05:51Z</time>
      </trkpt>
      <trkpt lat="43.80614" lon="7.08744">
        <ele>938.1</ele>
        <time>2019-12-30T15:05:52Z</time>
      </trkpt>
      <trkpt lat="43.80614" lon="7.08746">
        <ele>938.1</ele>
        <time>2019-12-30T15:05:53Z</time>
      </trkpt>
      <trkpt lat="43.80615" lon="7.08748">
        <ele>938.7</ele>
        <time>2019-12-30T15:05:54Z</time>
      </trkpt>
      <trkpt lat="43.80616" lon="7.08751">
        <ele>938.7</ele>
        <time>2019-12-30T15:05:55Z</time>
      </trkpt>
      <trkpt lat="43.80617" lon="7.08753">
        <ele>938.2</ele>
        <time>2019-12-30T15:05:56Z</time>
      </trkpt>
      <trkpt lat="43.80619" lon="7.08756">
        <ele>938.7</ele>
        <time>2019-12-30T15:05:57Z</time>
      </trkpt>
      <trkpt lat="43.80621" lon="7.08759">
        <ele>937.6</ele>
        <time>2019-12-30T15:05:58Z</time>
      </trkpt>
      <trkpt lat="43.80622" lon="7.08762">
        <ele>938.1</ele>
        <time>2019-12-30T15:05:59Z</time>
      </trkpt>
      <trkpt lat="43.80623" lon="7.08765">
        <ele>937.5</ele>
        <time>2019-12-30T15:06:00Z</time>
      </trkpt>
      <trkpt lat="43.80624" lon="7.08768">
        <ele>937.5</ele>
        <time>2019-12-30T15:06:01Z</time>
      </trkpt>
      <trkpt lat="43.80625" lon="7.08772">
        <ele>937.9</ele>
        <time>2019-12-30T15:06:02Z</time>
      </trkpt>
      <trkpt lat="43.80626" lon="7.08775">
        <ele>938.2</ele>
        <time>2019-12-30T15:06:03Z</time>
      </trkpt>
      <trkpt lat="43.80626" lon="7.08778">
        <ele>937.3</ele>
        <time>2019-12-30T15:06:04Z</time>
      </trkpt>
      <trkpt lat="43.80627" lon="7.0878">
        <ele>937.3</ele>
        <time>2019-12-30T15:06:05Z</time>
      </trkpt>
      <trkpt lat="43.80627" lon="7.08783">
        <ele>937.5</ele>
        <time>2019-12-30T15:06:06Z</time>
      </trkpt>
      <trkpt lat="43.80629" lon="7.08785">
        <ele>937.5</ele>
        <time>2019-12-30T15:06:07Z</time>
      </trkpt>
      <trkpt lat="43.8063" lon="7.08787">
        <ele>936.4</ele>
        <time>2019-12-30T15:06:08Z</time>
      </trkpt>
      <trkpt lat="43.80632" lon="7.08788">
        <ele>935.2</ele>
        <time>2019-12-30T15:06:09Z</time>
      </trkpt>
      <trkpt lat="43.80635" lon="7.0879">
        <ele>935.2</ele>
        <time>2019-12-30T15:06:10Z</time>
      </trkpt>
      <trkpt lat="43.80637" lon="7.08791">
        <ele>933.9</ele>
        <time>2019-12-30T15:06:11Z</time>
      </trkpt>
      <trkpt lat="43.80639" lon="7.08792">
        <ele>932.5</ele>
        <time>2019-12-30T15:06:12Z</time>
      </trkpt>
      <trkpt lat="43.80642" lon="7.08793">
        <ele>931</ele>
        <time>2019-12-30T15:06:13Z</time>
      </trkpt>
      <trkpt lat="43.80644" lon="7.08793">
        <ele>931</ele>
        <time>2019-12-30T15:06:14Z</time>
      </trkpt>
      <trkpt lat="43.80646" lon="7.08794">
        <ele>929.6</ele>
        <time>2019-12-30T15:06:15Z</time>
      </trkpt>
      <trkpt lat="43.80648" lon="7.08795">
        <ele>928.2</ele>
        <time>2019-12-30T15:06:16Z</time>
      </trkpt>
      <trkpt lat="43.8065" lon="7.08795">
        <ele>928.2</ele>
        <time>2019-12-30T15:06:17Z</time>
      </trkpt>
      <trkpt lat="43.80651" lon="7.08795">
        <ele>926.9</ele>
        <time>2019-12-30T15:06:18Z</time>
      </trkpt>
      <trkpt lat="43.80653" lon="7.08795">
        <ele>926.9</ele>
        <time>2019-12-30T15:06:19Z</time>
      </trkpt>
      <trkpt lat="43.80655" lon="7.08795">
        <ele>925.7</ele>
        <time>2019-12-30T15:06:20Z</time>
      </trkpt>
      <trkpt lat="43.80656" lon="7.08796">
        <ele>925.7</ele>
        <time>2019-12-30T15:06:21Z</time>
      </trkpt>
      <trkpt lat="43.80657" lon="7.08796">
        <ele>924.3</ele>
        <time>2019-12-30T15:06:22Z</time>
      </trkpt>
      <trkpt lat="43.80659" lon="7.08797">
        <ele>924.3</ele>
        <time>2019-12-30T15:06:23Z</time>
      </trkpt>
      <trkpt lat="43.80661" lon="7.08797">
        <ele>922.9</ele>
        <time>2019-12-30T15:06:24Z</time>
      </trkpt>
      <trkpt lat="43.80663" lon="7.08796">
        <ele>921.3</ele>
        <time>2019-12-30T15:06:25Z</time>
      </trkpt>
      <trkpt lat="43.80665" lon="7.08796">
        <ele>921.3</ele>
        <time>2019-12-30T15:06:26Z</time>
      </trkpt>
      <trkpt lat="43.80667" lon="7.08795">
        <ele>919.7</ele>
        <time>2019-12-30T15:06:27Z</time>
      </trkpt>
      <trkpt lat="43.80668" lon="7.08795">
        <ele>919.7</ele>
        <time>2019-12-30T15:06:28Z</time>
      </trkpt>
      <trkpt lat="43.80669" lon="7.08794">
        <ele>918.2</ele>
        <time>2019-12-30T15:06:29Z</time>
      </trkpt>
      <trkpt lat="43.80671" lon="7.08795">
        <ele>918.2</ele>
        <time>2019-12-30T15:06:30Z</time>
      </trkpt>
      <trkpt lat="43.80673" lon="7.08795">
        <ele>916.7</ele>
        <time>2019-12-30T15:06:31Z</time>
      </trkpt>
      <trkpt lat="43.80675" lon="7.08796">
        <ele>916.7</ele>
        <time>2019-12-30T15:06:32Z</time>
      </trkpt>
      <trkpt lat="43.80677" lon="7.08798">
        <ele>915.3</ele>
        <time>2019-12-30T15:06:33Z</time>
      </trkpt>
      <trkpt lat="43.80679" lon="7.08802">
        <ele>914.3</ele>
        <time>2019-12-30T15:06:34Z</time>
      </trkpt>
      <trkpt lat="43.8068" lon="7.08805">
        <ele>914.7</ele>
        <time>2019-12-30T15:06:35Z</time>
      </trkpt>
      <trkpt lat="43.80681" lon="7.08809">
        <ele>915</ele>
        <time>2019-12-30T15:06:36Z</time>
      </trkpt>
      <trkpt lat="43.80682" lon="7.08812">
        <ele>913.9</ele>
        <time>2019-12-30T15:06:37Z</time>
      </trkpt>
      <trkpt lat="43.80683" lon="7.08814">
        <ele>913.9</ele>
        <time>2019-12-30T15:06:38Z</time>
      </trkpt>
      <trkpt lat="43.80685" lon="7.08816">
        <ele>912.7</ele>
        <time>2019-12-30T15:06:39Z</time>
      </trkpt>
      <trkpt lat="43.80686" lon="7.08817">
        <ele>912.7</ele>
        <time>2019-12-30T15:06:40Z</time>
      </trkpt>
      <trkpt lat="43.80688" lon="7.08819">
        <ele>911.2</ele>
        <time>2019-12-30T15:06:41Z</time>
      </trkpt>
      <trkpt lat="43.8069" lon="7.08821">
        <ele>911.4</ele>
        <time>2019-12-30T15:06:42Z</time>
      </trkpt>
      <trkpt lat="43.80691" lon="7.08823">
        <ele>909.9</ele>
        <time>2019-12-30T15:06:43Z</time>
      </trkpt>
      <trkpt lat="43.80693" lon="7.08824">
        <ele>909.9</ele>
        <time>2019-12-30T15:06:44Z</time>
      </trkpt>
      <trkpt lat="43.80694" lon="7.08823">
        <ele>908.4</ele>
        <time>2019-12-30T15:06:45Z</time>
      </trkpt>
      <trkpt lat="43.80697" lon="7.08823">
        <ele>908.4</ele>
        <time>2019-12-30T15:06:46Z</time>
      </trkpt>
      <trkpt lat="43.807" lon="7.08822">
        <ele>906.9</ele>
        <time>2019-12-30T15:06:47Z</time>
      </trkpt>
      <trkpt lat="43.80702" lon="7.08821">
        <ele>905.6</ele>
        <time>2019-12-30T15:06:48Z</time>
      </trkpt>
      <trkpt lat="43.80701" lon="7.0882">
        <ele>905.2</ele>
        <time>2019-12-30T15:06:49Z</time>
      </trkpt>
      <trkpt lat="43.80702" lon="7.0882">
        <ele>905.6</ele>
        <time>2019-12-30T15:06:50Z</time>
      </trkpt>
      <trkpt lat="43.80704" lon="7.08822">
        <ele>904.2</ele>
        <time>2019-12-30T15:06:51Z</time>
      </trkpt>
      <trkpt lat="43.80707" lon="7.08823">
        <ele>903</ele>
        <time>2019-12-30T15:06:52Z</time>
      </trkpt>
      <trkpt lat="43.80709" lon="7.08824">
        <ele>903</ele>
        <time>2019-12-30T15:06:53Z</time>
      </trkpt>
      <trkpt lat="43.80713" lon="7.08826">
        <ele>900.8</ele>
        <time>2019-12-30T15:06:54Z</time>
      </trkpt>
      <trkpt lat="43.80714" lon="7.08827">
        <ele>900.8</ele>
        <time>2019-12-30T15:06:55Z</time>
      </trkpt>
      <trkpt lat="43.80716" lon="7.08828">
        <ele>899.5</ele>
        <time>2019-12-30T15:06:56Z</time>
      </trkpt>
      <trkpt lat="43.80717" lon="7.08829">
        <ele>900</ele>
        <time>2019-12-30T15:06:57Z</time>
      </trkpt>
      <trkpt lat="43.80719" lon="7.0883">
        <ele>898.7</ele>
        <time>2019-12-30T15:06:58Z</time>
      </trkpt>
      <trkpt lat="43.80721" lon="7.08833">
        <ele>898.7</ele>
        <time>2019-12-30T15:06:59Z</time>
      </trkpt>
      <trkpt lat="43.80724" lon="7.08835">
        <ele>898</ele>
        <time>2019-12-30T15:07:00Z</time>
      </trkpt>
      <trkpt lat="43.80726" lon="7.08837">
        <ele>896.8</ele>
        <time>2019-12-30T15:07:01Z</time>
      </trkpt>
      <trkpt lat="43.80728" lon="7.08838">
        <ele>897.3</ele>
        <time>2019-12-30T15:07:02Z</time>
      </trkpt>
      <trkpt lat="43.8073" lon="7.0884">
        <ele>896.2</ele>
        <time>2019-12-30T15:07:03Z</time>
      </trkpt>
      <trkpt lat="43.80732" lon="7.08841">
        <ele>895.1</ele>
        <time>2019-12-30T15:07:04Z</time>
      </trkpt>
      <trkpt lat="43.80734" lon="7.08843">
        <ele>894.8</ele>
        <time>2019-12-30T15:07:05Z</time>
      </trkpt>
      <trkpt lat="43.80737" lon="7.08845">
        <ele>894.8</ele>
        <time>2019-12-30T15:07:06Z</time>
      </trkpt>
      <trkpt lat="43.8074" lon="7.08847">
        <ele>894.5</ele>
        <time>2019-12-30T15:07:07Z</time>
      </trkpt>
      <trkpt lat="43.80743" lon="7.08849">
        <ele>893.6</ele>
        <time>2019-12-30T15:07:08Z</time>
      </trkpt>
      <trkpt lat="43.80746" lon="7.08852">
        <ele>893.5</ele>
        <time>2019-12-30T15:07:09Z</time>
      </trkpt>
      <trkpt lat="43.80749" lon="7.08856">
        <ele>893.3</ele>
        <time>2019-12-30T15:07:10Z</time>
      </trkpt>
      <trkpt lat="43.80753" lon="7.0886">
        <ele>894.1</ele>
        <time>2019-12-30T15:07:11Z</time>
      </trkpt>
      <trkpt lat="43.80756" lon="7.08864">
        <ele>894.3</ele>
        <time>2019-12-30T15:07:12Z</time>
      </trkpt>
      <trkpt lat="43.80759" lon="7.08868">
        <ele>894.4</ele>
        <time>2019-12-30T15:07:13Z</time>
      </trkpt>
      <trkpt lat="43.80762" lon="7.08872">
        <ele>894.5</ele>
        <time>2019-12-30T15:07:14Z</time>
      </trkpt>
      <trkpt lat="43.80763" lon="7.08872">
        <ele>894.5</ele>
        <time>2019-12-30T15:07:15Z</time>
      </trkpt>
      <trkpt lat="43.80763" lon="7.08873">
        <ele>894.5</ele>
        <time>2019-12-30T15:07:16Z</time>
      </trkpt>
      <trkpt lat="43.80763" lon="7.08873">
        <ele>894.5</ele>
        <time>2019-12-30T15:07:17Z</time>
      </trkpt>
      <trkpt lat="43.80764" lon="7.08874">
        <ele>894.5</ele>
        <time>2019-12-30T15:07:18Z</time>
      </trkpt>
      <trkpt lat="43.80764" lon="7.08875">
        <ele>894.6</ele>
        <time>2019-12-30T15:07:19Z</time>
      </trkpt>
      <trkpt lat="43.80764" lon="7.08875">
        <ele>894.6</ele>
        <time>2019-12-30T15:07:20Z</time>
      </trkpt>
      <trkpt lat="43.80765" lon="7.08876">
        <ele>895</ele>
        <time>2019-12-30T15:07:21Z</time>
      </trkpt>
      <trkpt lat="43.80765" lon="7.08876">
        <ele>895</ele>
        <time>2019-12-30T15:07:22Z</time>
      </trkpt>
      <trkpt lat="43.80766" lon="7.08875">
        <ele>895</ele>
        <time>2019-12-30T15:07:23Z</time>
      </trkpt>
      <trkpt lat="43.80766" lon="7.08874">
        <ele>894.6</ele>
        <time>2019-12-30T15:07:24Z</time>
      </trkpt>
      <trkpt lat="43.80766" lon="7.08873">
        <ele>894.5</ele>
        <time>2019-12-30T15:07:25Z</time>
      </trkpt>
      <trkpt lat="43.80767" lon="7.08872">
        <ele>894.5</ele>
        <time>2019-12-30T15:07:26Z</time>
      </trkpt>
      <trkpt lat="43.80767" lon="7.08872">
        <ele>894.5</ele>
        <time>2019-12-30T15:07:27Z</time>
      </trkpt>
      <trkpt lat="43.80767" lon="7.08871">
        <ele>894.5</ele>
        <time>2019-12-30T15:07:28Z</time>
      </trkpt>
      <trkpt lat="43.80767" lon="7.08871">
        <ele>894.5</ele>
        <time>2019-12-30T15:07:29Z</time>
      </trkpt>
      <trkpt lat="43.80767" lon="7.08871">
        <ele>894.5</ele>
        <time>2019-12-30T15:07:30Z</time>
      </trkpt>
      <trkpt lat="43.80767" lon="7.08871">
        <ele>894.5</ele>
        <time>2019-12-30T15:07:31Z</time>
      </trkpt>
      <trkpt lat="43.80767" lon="7.08871">
        <ele>894.5</ele>
        <time>2019-12-30T15:07:32Z</time>
      </trkpt>
      <trkpt lat="43.80767" lon="7.08871">
        <ele>894.5</ele>
        <time>2019-12-30T15:07:33Z</time>
      </trkpt>
      <trkpt lat="43.80767" lon="7.08871">
        <ele>894.5</ele>
        <time>2019-12-30T15:07:34Z</time>
      </trkpt>
      <trkpt lat="43.80767" lon="7.08871">
        <ele>894.5</ele>
        <time>2019-12-30T15:07:35Z</time>
      </trkpt>
      <trkpt lat="43.80767" lon="7.08871">
        <ele>894.5</ele>
        <time>2019-12-30T15:07:36Z</time>
      </trkpt>
      <trkpt lat="43.80767" lon="7.08871">
        <ele>894.5</ele>
        <time>2019-12-30T15:07:37Z</time>
      </trkpt>
      <trkpt lat="43.80767" lon="7.08871">
        <ele>894.5</ele>
        <time>2019-12-30T15:07:38Z</time>
      </trkpt>
      <trkpt lat="43.80767" lon="7.08871">
        <ele>894.5</ele>
        <time>2019-12-30T15:07:39Z</time>
      </trkpt>
      <trkpt lat="43.80767" lon="7.08871">
        <ele>894.5</ele>
        <time>2019-12-30T15:07:40Z</time>
      </trkpt>
      <trkpt lat="43.80767" lon="7.08871">
        <ele>894.5</ele>
        <time>2019-12-30T15:07:41Z</time>
      </trkpt>
      <trkpt lat="43.80767" lon="7.08871">
        <ele>894.5</ele>
        <time>2019-12-30T15:07:42Z</time>
      </trkpt>
      <trkpt lat="43.80767" lon="7.08871">
        <ele>894.5</ele>
        <time>2019-12-30T15:07:43Z</time>
      </trkpt>
      <trkpt lat="43.80767" lon="7.08871">
        <ele>894.5</ele>
        <time>2019-12-30T15:07:44Z</time>
      </trkpt>
      <trkpt lat="43.80767" lon="7.08871">
        <ele>894.5</ele>
        <time>2019-12-30T15:07:45Z</time>
      </trkpt>
      <trkpt lat="43.80767" lon="7.08871">
        <ele>894.5</ele>
        <time>2019-12-30T15:07:46Z</time>
      </trkpt>
      <trkpt lat="43.80767" lon="7.08871">
        <ele>894.5</ele>
        <time>2019-12-30T15:07:47Z</time>
      </trkpt>
      <trkpt lat="43.80767" lon="7.08871">
        <ele>894.5</ele>
        <time>2019-12-30T15:07:48Z</time>
      </trkpt>
      <trkpt lat="43.80767" lon="7.08871">
        <ele>894.5</ele>
        <time>2019-12-30T15:07:49Z</time>
      </trkpt>
      <trkpt lat="43.80767" lon="7.08871">
        <ele>894.5</ele>
        <time>2019-12-30T15:07:50Z</time>
      </trkpt>
      <trkpt lat="43.80767" lon="7.08871">
        <ele>894.5</ele>
        <time>2019-12-30T15:07:51Z</time>
      </trkpt>
      <trkpt lat="43.80767" lon="7.08871">
        <ele>894.5</ele>
        <time>2019-12-30T15:07:52Z</time>
      </trkpt>
      <trkpt lat="43.80767" lon="7.08871">
        <ele>894.5</ele>
        <time>2019-12-30T15:07:53Z</time>
      </trkpt>
      <trkpt lat="43.80767" lon="7.08871">
        <ele>894.5</ele>
        <time>2019-12-30T15:07:54Z</time>
      </trkpt>
      <trkpt lat="43.80767" lon="7.08871">
        <ele>894.5</ele>
        <time>2019-12-30T15:07:55Z</time>
      </trkpt>
      <trkpt lat="43.80767" lon="7.08871">
        <ele>894.5</ele>
        <time>2019-12-30T15:07:56Z</time>
      </trkpt>
      <trkpt lat="43.80767" lon="7.08871">
        <ele>894.5</ele>
        <time>2019-12-30T15:07:57Z</time>
      </trkpt>
      <trkpt lat="43.80767" lon="7.08871">
        <ele>894.5</ele>
        <time>2019-12-30T15:07:58Z</time>
      </trkpt>
      <trkpt lat="43.80767" lon="7.08871">
        <ele>894.5</ele>
        <time>2019-12-30T15:07:59Z</time>
      </trkpt>
      <trkpt lat="43.80767" lon="7.08871">
        <ele>894.5</ele>
        <time>2019-12-30T15:08:00Z</time>
      </trkpt>
      <trkpt lat="43.80767" lon="7.08871">
        <ele>894.5</ele>
        <time>2019-12-30T15:08:01Z</time>
      </trkpt>
      <trkpt lat="43.80767" lon="7.08871">
        <ele>894.5</ele>
        <time>2019-12-30T15:08:02Z</time>
      </trkpt>
      <trkpt lat="43.80767" lon="7.08871">
        <ele>894.5</ele>
        <time>2019-12-30T15:08:03Z</time>
      </trkpt>
      <trkpt lat="43.80767" lon="7.08871">
        <ele>894.5</ele>
        <time>2019-12-30T15:08:04Z</time>
      </trkpt>
      <trkpt lat="43.80767" lon="7.08871">
        <ele>894.5</ele>
        <time>2019-12-30T15:08:05Z</time>
      </trkpt>
      <trkpt lat="43.80767" lon="7.08871">
        <ele>894.5</ele>
        <time>2019-12-30T15:08:06Z</time>
      </trkpt>
      <trkpt lat="43.80767" lon="7.08871">
        <ele>894.5</ele>
        <time>2019-12-30T15:08:07Z</time>
      </trkpt>
      <trkpt lat="43.80767" lon="7.08871">
        <ele>894.5</ele>
        <time>2019-12-30T15:08:08Z</time>
      </trkpt>
      <trkpt lat="43.80767" lon="7.08871">
        <ele>894.5</ele>
        <time>2019-12-30T15:08:09Z</time>
      </trkpt>
      <trkpt lat="43.80767" lon="7.08871">
        <ele>894.5</ele>
        <time>2019-12-30T15:08:10Z</time>
      </trkpt>
      <trkpt lat="43.80767" lon="7.08871">
        <ele>894.5</ele>
        <time>2019-12-30T15:08:11Z</time>
      </trkpt>
      <trkpt lat="43.80767" lon="7.08871">
        <ele>894.5</ele>
        <time>2019-12-30T15:08:12Z</time>
      </trkpt>
      <trkpt lat="43.80767" lon="7.08871">
        <ele>894.5</ele>
        <time>2019-12-30T15:08:13Z</time>
      </trkpt>
      <trkpt lat="43.80767" lon="7.08871">
        <ele>894.5</ele>
        <time>2019-12-30T15:08:14Z</time>
      </trkpt>
      <trkpt lat="43.80767" lon="7.08871">
        <ele>894.5</ele>
        <time>2019-12-30T15:08:15Z</time>
      </trkpt>
      <trkpt lat="43.80767" lon="7.08871">
        <ele>894.5</ele>
        <time>2019-12-30T15:08:16Z</time>
      </trkpt>
      <trkpt lat="43.80767" lon="7.08871">
        <ele>894.5</ele>
        <time>2019-12-30T15:08:17Z</time>
      </trkpt>
      <trkpt lat="43.80767" lon="7.08871">
        <ele>894.5</ele>
        <time>2019-12-30T15:08:18Z</time>
      </trkpt>
      <trkpt lat="43.80767" lon="7.08871">
        <ele>894.5</ele>
        <time>2019-12-30T15:08:19Z</time>
      </trkpt>
      <trkpt lat="43.80767" lon="7.08871">
        <ele>894.5</ele>
        <time>2019-12-30T15:08:20Z</time>
      </trkpt>
      <trkpt lat="43.80767" lon="7.08871">
        <ele>894.5</ele>
        <time>2019-12-30T15:08:21Z</time>
      </trkpt>
      <trkpt lat="43.80767" lon="7.08871">
        <ele>894.5</ele>
        <time>2019-12-30T15:08:22Z</time>
      </trkpt>
      <trkpt lat="43.80767" lon="7.08871">
        <ele>894.5</ele>
        <time>2019-12-30T15:08:23Z</time>
      </trkpt>
      <trkpt lat="43.80767" lon="7.08871">
        <ele>894.5</ele>
        <time>2019-12-30T15:08:24Z</time>
      </trkpt>
      <trkpt lat="43.80767" lon="7.08871">
        <ele>894.5</ele>
        <time>2019-12-30T15:08:25Z</time>
      </trkpt>
      <trkpt lat="43.80767" lon="7.08871">
        <ele>894.5</ele>
        <time>2019-12-30T15:08:26Z</time>
      </trkpt>
      <trkpt lat="43.80767" lon="7.08871">
        <ele>894.5</ele>
        <time>2019-12-30T15:08:27Z</time>
      </trkpt>
      <trkpt lat="43.80767" lon="7.08871">
        <ele>894.5</ele>
        <time>2019-12-30T15:08:28Z</time>
      </trkpt>
      <trkpt lat="43.80767" lon="7.08871">
        <ele>894.5</ele>
        <time>2019-12-30T15:08:29Z</time>
      </trkpt>
      <trkpt lat="43.80767" lon="7.08871">
        <ele>894.5</ele>
        <time>2019-12-30T15:08:30Z</time>
      </trkpt>
      <trkpt lat="43.80767" lon="7.08871">
        <ele>894.5</ele>
        <time>2019-12-30T15:08:31Z</time>
      </trkpt>
      <trkpt lat="43.80767" lon="7.08871">
        <ele>894.5</ele>
        <time>2019-12-30T15:08:32Z</time>
      </trkpt>
      <trkpt lat="43.80767" lon="7.08871">
        <ele>894.5</ele>
        <time>2019-12-30T15:08:33Z</time>
      </trkpt>
      <trkpt lat="43.80767" lon="7.08871">
        <ele>894.5</ele>
        <time>2019-12-30T15:08:34Z</time>
      </trkpt>
      <trkpt lat="43.80767" lon="7.08871">
        <ele>894.5</ele>
        <time>2019-12-30T15:08:35Z</time>
      </trkpt>
      <trkpt lat="43.80767" lon="7.08871">
        <ele>894.5</ele>
        <time>2019-12-30T15:08:36Z</time>
      </trkpt>
      <trkpt lat="43.80767" lon="7.08871">
        <ele>894.5</ele>
        <time>2019-12-30T15:08:37Z</time>
      </trkpt>
      <trkpt lat="43.80767" lon="7.08871">
        <ele>894.5</ele>
        <time>2019-12-30T15:08:38Z</time>
      </trkpt>
      <trkpt lat="43.80767" lon="7.08871">
        <ele>894.5</ele>
        <time>2019-12-30T15:08:39Z</time>
      </trkpt>
      <trkpt lat="43.80767" lon="7.08871">
        <ele>894.5</ele>
        <time>2019-12-30T15:08:40Z</time>
      </trkpt>
      <trkpt lat="43.80767" lon="7.08872">
        <ele>894.5</ele>
        <time>2019-12-30T15:08:41Z</time>
      </trkpt>
      <trkpt lat="43.80766" lon="7.08874">
        <ele>895.1</ele>
        <time>2019-12-30T15:08:42Z</time>
      </trkpt>
      <trkpt lat="43.80766" lon="7.08877">
        <ele>895.2</ele>
        <time>2019-12-30T15:08:43Z</time>
      </trkpt>
      <trkpt lat="43.80766" lon="7.08881">
        <ele>895.4</ele>
        <time>2019-12-30T15:08:44Z</time>
      </trkpt>
      <trkpt lat="43.80766" lon="7.08885">
        <ele>895.6</ele>
        <time>2019-12-30T15:08:45Z</time>
      </trkpt>
      <trkpt lat="43.80768" lon="7.08888">
        <ele>895.8</ele>
        <time>2019-12-30T15:08:46Z</time>
      </trkpt>
      <trkpt lat="43.80769" lon="7.08892">
        <ele>896</ele>
        <time>2019-12-30T15:08:47Z</time>
      </trkpt>
      <trkpt lat="43.80771" lon="7.08895">
        <ele>896.1</ele>
        <time>2019-12-30T15:08:48Z</time>
      </trkpt>
      <trkpt lat="43.80773" lon="7.08897">
        <ele>896.3</ele>
        <time>2019-12-30T15:08:49Z</time>
      </trkpt>
      <trkpt lat="43.80775" lon="7.089">
        <ele>896.4</ele>
        <time>2019-12-30T15:08:50Z</time>
      </trkpt>
      <trkpt lat="43.80778" lon="7.08903">
        <ele>896.5</ele>
        <time>2019-12-30T15:08:51Z</time>
      </trkpt>
      <trkpt lat="43.8078" lon="7.08906">
        <ele>896.7</ele>
        <time>2019-12-30T15:08:52Z</time>
      </trkpt>
      <trkpt lat="43.80782" lon="7.0891">
        <ele>896.8</ele>
        <time>2019-12-30T15:08:53Z</time>
      </trkpt>
      <trkpt lat="43.80784" lon="7.08913">
        <ele>896.9</ele>
        <time>2019-12-30T15:08:54Z</time>
      </trkpt>
      <trkpt lat="43.80786" lon="7.08917">
        <ele>897</ele>
        <time>2019-12-30T15:08:55Z</time>
      </trkpt>
      <trkpt lat="43.80788" lon="7.0892">
        <ele>897</ele>
        <time>2019-12-30T15:08:56Z</time>
      </trkpt>
      <trkpt lat="43.8079" lon="7.08924">
        <ele>897.1</ele>
        <time>2019-12-30T15:08:57Z</time>
      </trkpt>
      <trkpt lat="43.80792" lon="7.08928">
        <ele>897.2</ele>
        <time>2019-12-30T15:08:58Z</time>
      </trkpt>
      <trkpt lat="43.80794" lon="7.08931">
        <ele>897.2</ele>
        <time>2019-12-30T15:08:59Z</time>
      </trkpt>
      <trkpt lat="43.80797" lon="7.08935">
        <ele>897.3</ele>
        <time>2019-12-30T15:09:00Z</time>
      </trkpt>
      <trkpt lat="43.80799" lon="7.08938">
        <ele>897.5</ele>
        <time>2019-12-30T15:09:01Z</time>
      </trkpt>
      <trkpt lat="43.80801" lon="7.08942">
        <ele>897.7</ele>
        <time>2019-12-30T15:09:02Z</time>
      </trkpt>
      <trkpt lat="43.80803" lon="7.08945">
        <ele>897.9</ele>
        <time>2019-12-30T15:09:03Z</time>
      </trkpt>
      <trkpt lat="43.80806" lon="7.08949">
        <ele>898.1</ele>
        <time>2019-12-30T15:09:04Z</time>
      </trkpt>
      <trkpt lat="43.80808" lon="7.08953">
        <ele>898.3</ele>
        <time>2019-12-30T15:09:05Z</time>
      </trkpt>
      <trkpt lat="43.80811" lon="7.08957">
        <ele>898.5</ele>
        <time>2019-12-30T15:09:06Z</time>
      </trkpt>
      <trkpt lat="43.80813" lon="7.08961">
        <ele>898.7</ele>
        <time>2019-12-30T15:09:07Z</time>
      </trkpt>
      <trkpt lat="43.80816" lon="7.08965">
        <ele>898.8</ele>
        <time>2019-12-30T15:09:08Z</time>
      </trkpt>
      <trkpt lat="43.80818" lon="7.08969">
        <ele>899</ele>
        <time>2019-12-30T15:09:09Z</time>
      </trkpt>
      <trkpt lat="43.80821" lon="7.08973">
        <ele>899.2</ele>
        <time>2019-12-30T15:09:10Z</time>
      </trkpt>
      <trkpt lat="43.80824" lon="7.08977">
        <ele>899.3</ele>
        <time>2019-12-30T15:09:11Z</time>
      </trkpt>
      <trkpt lat="43.80826" lon="7.08981">
        <ele>899.5</ele>
        <time>2019-12-30T15:09:12Z</time>
      </trkpt>
      <trkpt lat="43.80829" lon="7.08986">
        <ele>899.7</ele>
        <time>2019-12-30T15:09:13Z</time>
      </trkpt>
      <trkpt lat="43.80831" lon="7.0899">
        <ele>899.8</ele>
        <time>2019-12-30T15:09:14Z</time>
      </trkpt>
      <trkpt lat="43.80834" lon="7.08994">
        <ele>900</ele>
        <time>2019-12-30T15:09:15Z</time>
      </trkpt>
      <trkpt lat="43.80836" lon="7.08999">
        <ele>900.1</ele>
        <time>2019-12-30T15:09:16Z</time>
      </trkpt>
      <trkpt lat="43.80838" lon="7.09003">
        <ele>900.3</ele>
        <time>2019-12-30T15:09:17Z</time>
      </trkpt>
      <trkpt lat="43.80839" lon="7.09008">
        <ele>900.5</ele>
        <time>2019-12-30T15:09:18Z</time>
      </trkpt>
      <trkpt lat="43.80841" lon="7.09012">
        <ele>900.6</ele>
        <time>2019-12-30T15:09:19Z</time>
      </trkpt>
      <trkpt lat="43.80842" lon="7.09017">
        <ele>900.8</ele>
        <time>2019-12-30T15:09:20Z</time>
      </trkpt>
      <trkpt lat="43.80843" lon="7.09022">
        <ele>900.5</ele>
        <time>2019-12-30T15:09:21Z</time>
      </trkpt>
      <trkpt lat="43.80843" lon="7.09027">
        <ele>900.1</ele>
        <time>2019-12-30T15:09:22Z</time>
      </trkpt>
      <trkpt lat="43.80844" lon="7.09032">
        <ele>899.8</ele>
        <time>2019-12-30T15:09:23Z</time>
      </trkpt>
      <trkpt lat="43.80844" lon="7.09038">
        <ele>899.4</ele>
        <time>2019-12-30T15:09:24Z</time>
      </trkpt>
      <trkpt lat="43.80844" lon="7.09044">
        <ele>899.1</ele>
        <time>2019-12-30T15:09:25Z</time>
      </trkpt>
      <trkpt lat="43.80843" lon="7.09051">
        <ele>898.9</ele>
        <time>2019-12-30T15:09:26Z</time>
      </trkpt>
      <trkpt lat="43.80842" lon="7.09059">
        <ele>898.6</ele>
        <time>2019-12-30T15:09:27Z</time>
      </trkpt>
      <trkpt lat="43.80841" lon="7.09066">
        <ele>898.4</ele>
        <time>2019-12-30T15:09:28Z</time>
      </trkpt>
      <trkpt lat="43.80841" lon="7.09074">
        <ele>898.2</ele>
        <time>2019-12-30T15:09:29Z</time>
      </trkpt>
      <trkpt lat="43.8084" lon="7.0909">
        <ele>897.8</ele>
        <time>2019-12-30T15:09:30Z</time>
      </trkpt>
      <trkpt lat="43.8084" lon="7.09096">
        <ele>897.7</ele>
        <time>2019-12-30T15:09:31Z</time>
      </trkpt>
      <trkpt lat="43.8084" lon="7.09103">
        <ele>897.5</ele>
        <time>2019-12-30T15:09:32Z</time>
      </trkpt>
      <trkpt lat="43.8084" lon="7.0911">
        <ele>897.3</ele>
        <time>2019-12-30T15:09:33Z</time>
      </trkpt>
      <trkpt lat="43.80841" lon="7.09117">
        <ele>897.2</ele>
        <time>2019-12-30T15:09:34Z</time>
      </trkpt>
      <trkpt lat="43.80841" lon="7.09125">
        <ele>897</ele>
        <time>2019-12-30T15:09:35Z</time>
      </trkpt>
      <trkpt lat="43.80841" lon="7.09134">
        <ele>896.8</ele>
        <time>2019-12-30T15:09:36Z</time>
      </trkpt>
      <trkpt lat="43.80842" lon="7.09143">
        <ele>896.7</ele>
        <time>2019-12-30T15:09:37Z</time>
      </trkpt>
      <trkpt lat="43.80842" lon="7.09158">
        <ele>896.4</ele>
        <time>2019-12-30T15:09:38Z</time>
      </trkpt>
      <trkpt lat="43.80842" lon="7.09165">
        <ele>896.3</ele>
        <time>2019-12-30T15:09:39Z</time>
      </trkpt>
      <trkpt lat="43.80842" lon="7.09172">
        <ele>896.2</ele>
        <time>2019-12-30T15:09:40Z</time>
      </trkpt>
      <trkpt lat="43.80842" lon="7.09179">
        <ele>896.1</ele>
        <time>2019-12-30T15:09:41Z</time>
      </trkpt>
      <trkpt lat="43.80843" lon="7.09188">
        <ele>896</ele>
        <time>2019-12-30T15:09:42Z</time>
      </trkpt>
      <trkpt lat="43.80843" lon="7.09197">
        <ele>895.8</ele>
        <time>2019-12-30T15:09:43Z</time>
      </trkpt>
      <trkpt lat="43.80844" lon="7.09205">
        <ele>895.7</ele>
        <time>2019-12-30T15:09:44Z</time>
      </trkpt>
      <trkpt lat="43.80844" lon="7.09214">
        <ele>895.6</ele>
        <time>2019-12-30T15:09:45Z</time>
      </trkpt>
      <trkpt lat="43.80845" lon="7.09222">
        <ele>895.4</ele>
        <time>2019-12-30T15:09:46Z</time>
      </trkpt>
      <trkpt lat="43.80846" lon="7.09231">
        <ele>895.3</ele>
        <time>2019-12-30T15:09:47Z</time>
      </trkpt>
      <trkpt lat="43.80847" lon="7.09238">
        <ele>895.2</ele>
        <time>2019-12-30T15:09:48Z</time>
      </trkpt>
      <trkpt lat="43.80847" lon="7.09246">
        <ele>895.1</ele>
        <time>2019-12-30T15:09:49Z</time>
      </trkpt>
      <trkpt lat="43.80848" lon="7.09253">
        <ele>895</ele>
        <time>2019-12-30T15:09:50Z</time>
      </trkpt>
      <trkpt lat="43.80849" lon="7.0926">
        <ele>895</ele>
        <time>2019-12-30T15:09:51Z</time>
      </trkpt>
      <trkpt lat="43.8085" lon="7.09267">
        <ele>894.9</ele>
        <time>2019-12-30T15:09:52Z</time>
      </trkpt>
      <trkpt lat="43.80851" lon="7.09275">
        <ele>894.9</ele>
        <time>2019-12-30T15:09:53Z</time>
      </trkpt>
      <trkpt lat="43.80851" lon="7.09282">
        <ele>894.8</ele>
        <time>2019-12-30T15:09:54Z</time>
      </trkpt>
      <trkpt lat="43.80851" lon="7.0929">
        <ele>894.7</ele>
        <time>2019-12-30T15:09:55Z</time>
      </trkpt>
      <trkpt lat="43.80851" lon="7.09298">
        <ele>894.5</ele>
        <time>2019-12-30T15:09:56Z</time>
      </trkpt>
      <trkpt lat="43.80849" lon="7.09306">
        <ele>894.4</ele>
        <time>2019-12-30T15:09:57Z</time>
      </trkpt>
      <trkpt lat="43.80848" lon="7.09313">
        <ele>894.2</ele>
        <time>2019-12-30T15:09:58Z</time>
      </trkpt>
      <trkpt lat="43.80846" lon="7.09319">
        <ele>894.1</ele>
        <time>2019-12-30T15:09:59Z</time>
      </trkpt>
      <trkpt lat="43.80845" lon="7.09326">
        <ele>894</ele>
        <time>2019-12-30T15:10:00Z</time>
      </trkpt>
      <trkpt lat="43.80844" lon="7.09333">
        <ele>893.9</ele>
        <time>2019-12-30T15:10:01Z</time>
      </trkpt>
      <trkpt lat="43.80842" lon="7.09339">
        <ele>893.8</ele>
        <time>2019-12-30T15:10:02Z</time>
      </trkpt>
      <trkpt lat="43.80841" lon="7.09345">
        <ele>893.7</ele>
        <time>2019-12-30T15:10:03Z</time>
      </trkpt>
      <trkpt lat="43.8084" lon="7.09351">
        <ele>893.6</ele>
        <time>2019-12-30T15:10:04Z</time>
      </trkpt>
      <trkpt lat="43.80839" lon="7.09357">
        <ele>893.5</ele>
        <time>2019-12-30T15:10:05Z</time>
      </trkpt>
      <trkpt lat="43.80837" lon="7.09363">
        <ele>893.3</ele>
        <time>2019-12-30T15:10:06Z</time>
      </trkpt>
      <trkpt lat="43.80836" lon="7.09369">
        <ele>893.2</ele>
        <time>2019-12-30T15:10:07Z</time>
      </trkpt>
      <trkpt lat="43.80834" lon="7.09375">
        <ele>893</ele>
        <time>2019-12-30T15:10:08Z</time>
      </trkpt>
      <trkpt lat="43.80833" lon="7.09381">
        <ele>892.7</ele>
        <time>2019-12-30T15:10:09Z</time>
      </trkpt>
      <trkpt lat="43.80831" lon="7.09387">
        <ele>892.4</ele>
        <time>2019-12-30T15:10:10Z</time>
      </trkpt>
      <trkpt lat="43.80828" lon="7.09393">
        <ele>892.2</ele>
        <time>2019-12-30T15:10:11Z</time>
      </trkpt>
      <trkpt lat="43.80824" lon="7.09399">
        <ele>891.9</ele>
        <time>2019-12-30T15:10:12Z</time>
      </trkpt>
      <trkpt lat="43.80821" lon="7.09405">
        <ele>891.6</ele>
        <time>2019-12-30T15:10:13Z</time>
      </trkpt>
      <trkpt lat="43.80818" lon="7.09415">
        <ele>891.2</ele>
        <time>2019-12-30T15:10:14Z</time>
      </trkpt>
      <trkpt lat="43.80817" lon="7.09432">
        <ele>890.4</ele>
        <time>2019-12-30T15:10:15Z</time>
      </trkpt>
      <trkpt lat="43.80817" lon="7.09439">
        <ele>890.2</ele>
        <time>2019-12-30T15:10:16Z</time>
      </trkpt>
      <trkpt lat="43.80816" lon="7.09446">
        <ele>889.9</ele>
        <time>2019-12-30T15:10:17Z</time>
      </trkpt>
      <trkpt lat="43.80816" lon="7.09453">
        <ele>889.6</ele>
        <time>2019-12-30T15:10:18Z</time>
      </trkpt>
      <trkpt lat="43.80816" lon="7.09463">
        <ele>889</ele>
        <time>2019-12-30T15:10:19Z</time>
      </trkpt>
      <trkpt lat="43.80816" lon="7.09472">
        <ele>888.6</ele>
        <time>2019-12-30T15:10:20Z</time>
      </trkpt>
      <trkpt lat="43.80815" lon="7.09482">
        <ele>888.1</ele>
        <time>2019-12-30T15:10:21Z</time>
      </trkpt>
      <trkpt lat="43.80814" lon="7.09492">
        <ele>887.7</ele>
        <time>2019-12-30T15:10:22Z</time>
      </trkpt>
      <trkpt lat="43.80814" lon="7.09502">
        <ele>887.3</ele>
        <time>2019-12-30T15:10:23Z</time>
      </trkpt>
      <trkpt lat="43.80812" lon="7.09519">
        <ele>886.7</ele>
        <time>2019-12-30T15:10:24Z</time>
      </trkpt>
      <trkpt lat="43.80812" lon="7.09526">
        <ele>886.4</ele>
        <time>2019-12-30T15:10:25Z</time>
      </trkpt>
      <trkpt lat="43.80812" lon="7.09532">
        <ele>886.1</ele>
        <time>2019-12-30T15:10:26Z</time>
      </trkpt>
      <trkpt lat="43.80812" lon="7.09541">
        <ele>885.6</ele>
        <time>2019-12-30T15:10:27Z</time>
      </trkpt>
      <trkpt lat="43.80813" lon="7.0955">
        <ele>884.9</ele>
        <time>2019-12-30T15:10:28Z</time>
      </trkpt>
      <trkpt lat="43.80814" lon="7.09557">
        <ele>884.3</ele>
        <time>2019-12-30T15:10:29Z</time>
      </trkpt>
      <trkpt lat="43.80817" lon="7.09564">
        <ele>882</ele>
        <time>2019-12-30T15:10:30Z</time>
      </trkpt>
      <trkpt lat="43.8082" lon="7.0957">
        <ele>880.6</ele>
        <time>2019-12-30T15:10:31Z</time>
      </trkpt>
      <trkpt lat="43.80824" lon="7.09576">
        <ele>879.3</ele>
        <time>2019-12-30T15:10:32Z</time>
      </trkpt>
      <trkpt lat="43.80829" lon="7.0958">
        <ele>877.9</ele>
        <time>2019-12-30T15:10:33Z</time>
      </trkpt>
      <trkpt lat="43.80834" lon="7.09584">
        <ele>876.4</ele>
        <time>2019-12-30T15:10:34Z</time>
      </trkpt>
      <trkpt lat="43.80839" lon="7.09587">
        <ele>875.5</ele>
        <time>2019-12-30T15:10:35Z</time>
      </trkpt>
      <trkpt lat="43.80841" lon="7.09587">
        <ele>875.4</ele>
        <time>2019-12-30T15:10:36Z</time>
      </trkpt>
      <trkpt lat="43.80842" lon="7.09588">
        <ele>875.3</ele>
        <time>2019-12-30T15:10:37Z</time>
      </trkpt>
      <trkpt lat="43.80842" lon="7.09588">
        <ele>875.3</ele>
        <time>2019-12-30T15:10:38Z</time>
      </trkpt>
      <trkpt lat="43.80843" lon="7.09588">
        <ele>875.3</ele>
        <time>2019-12-30T15:10:39Z</time>
      </trkpt>
      <trkpt lat="43.80843" lon="7.09588">
        <ele>875.2</ele>
        <time>2019-12-30T15:10:40Z</time>
      </trkpt>
      <trkpt lat="43.80844" lon="7.09588">
        <ele>875.2</ele>
        <time>2019-12-30T15:10:41Z</time>
      </trkpt>
      <trkpt lat="43.80844" lon="7.09588">
        <ele>875.2</ele>
        <time>2019-12-30T15:10:42Z</time>
      </trkpt>
      <trkpt lat="43.80844" lon="7.09588">
        <ele>875.2</ele>
        <time>2019-12-30T15:10:43Z</time>
      </trkpt>
      <trkpt lat="43.80844" lon="7.09588">
        <ele>875.1</ele>
        <time>2019-12-30T15:10:44Z</time>
      </trkpt>
      <trkpt lat="43.80844" lon="7.09588">
        <ele>875.1</ele>
        <time>2019-12-30T15:10:45Z</time>
      </trkpt>
      <trkpt lat="43.80844" lon="7.09588">
        <ele>875.1</ele>
        <time>2019-12-30T15:10:46Z</time>
      </trkpt>
      <trkpt lat="43.80844" lon="7.09588">
        <ele>875.1</ele>
        <time>2019-12-30T15:10:47Z</time>
      </trkpt>
      <trkpt lat="43.80844" lon="7.09588">
        <ele>875.1</ele>
        <time>2019-12-30T15:10:48Z</time>
      </trkpt>
      <trkpt lat="43.80844" lon="7.09588">
        <ele>875.1</ele>
        <time>2019-12-30T15:10:49Z</time>
      </trkpt>
      <trkpt lat="43.80844" lon="7.09588">
        <ele>875.1</ele>
        <time>2019-12-30T15:10:50Z</time>
      </trkpt>
      <trkpt lat="43.80844" lon="7.09588">
        <ele>875.1</ele>
        <time>2019-12-30T15:10:51Z</time>
      </trkpt>
      <trkpt lat="43.80844" lon="7.09588">
        <ele>875.1</ele>
        <time>2019-12-30T15:10:52Z</time>
      </trkpt>
      <trkpt lat="43.80845" lon="7.09587">
        <ele>875.1</ele>
        <time>2019-12-30T15:10:53Z</time>
      </trkpt>
      <trkpt lat="43.80845" lon="7.09584">
        <ele>874.9</ele>
        <time>2019-12-30T15:10:54Z</time>
      </trkpt>
      <trkpt lat="43.80844" lon="7.09581">
        <ele>874.8</ele>
        <time>2019-12-30T15:10:55Z</time>
      </trkpt>
      <trkpt lat="43.80841" lon="7.0958">
        <ele>875.8</ele>
        <time>2019-12-30T15:10:56Z</time>
      </trkpt>
      <trkpt lat="43.80838" lon="7.09578">
        <ele>876.2</ele>
        <time>2019-12-30T15:10:57Z</time>
      </trkpt>
      <trkpt lat="43.80833" lon="7.09574">
        <ele>877</ele>
        <time>2019-12-30T15:10:58Z</time>
      </trkpt>
      <trkpt lat="43.80833" lon="7.09572">
        <ele>876.6</ele>
        <time>2019-12-30T15:10:59Z</time>
      </trkpt>
      <trkpt lat="43.80832" lon="7.0957">
        <ele>876.2</ele>
        <time>2019-12-30T15:11:00Z</time>
      </trkpt>
      <trkpt lat="43.80832" lon="7.09568">
        <ele>875.9</ele>
        <time>2019-12-30T15:11:01Z</time>
      </trkpt>
      <trkpt lat="43.80831" lon="7.09566">
        <ele>875.5</ele>
        <time>2019-12-30T15:11:02Z</time>
      </trkpt>
      <trkpt lat="43.80838" lon="7.09572">
        <ele>873.9</ele>
        <time>2019-12-30T15:11:03Z</time>
      </trkpt>
      <trkpt lat="43.80842" lon="7.09575">
        <ele>873.4</ele>
        <time>2019-12-30T15:11:04Z</time>
      </trkpt>
      <trkpt lat="43.80845" lon="7.09579">
        <ele>872.7</ele>
        <time>2019-12-30T15:11:05Z</time>
      </trkpt>
      <trkpt lat="43.80848" lon="7.09582">
        <ele>871.8</ele>
        <time>2019-12-30T15:11:06Z</time>
      </trkpt>
      <trkpt lat="43.80852" lon="7.09586">
        <ele>870.9</ele>
        <time>2019-12-30T15:11:07Z</time>
      </trkpt>
      <trkpt lat="43.80857" lon="7.09592">
        <ele>869.9</ele>
        <time>2019-12-30T15:11:08Z</time>
      </trkpt>
      <trkpt lat="43.80861" lon="7.09597">
        <ele>869.3</ele>
        <time>2019-12-30T15:11:09Z</time>
      </trkpt>
      <trkpt lat="43.80869" lon="7.09607">
        <ele>867.6</ele>
        <time>2019-12-30T15:11:10Z</time>
      </trkpt>
      <trkpt lat="43.80872" lon="7.09611">
        <ele>867.2</ele>
        <time>2019-12-30T15:11:11Z</time>
      </trkpt>
      <trkpt lat="43.80875" lon="7.09615">
        <ele>866.7</ele>
        <time>2019-12-30T15:11:12Z</time>
      </trkpt>
      <trkpt lat="43.80878" lon="7.09619">
        <ele>866.1</ele>
        <time>2019-12-30T15:11:13Z</time>
      </trkpt>
      <trkpt lat="43.80881" lon="7.09623">
        <ele>866</ele>
        <time>2019-12-30T15:11:14Z</time>
      </trkpt>
      <trkpt lat="43.80884" lon="7.09627">
        <ele>866.2</ele>
        <time>2019-12-30T15:11:15Z</time>
      </trkpt>
      <trkpt lat="43.80886" lon="7.09631">
        <ele>866.3</ele>
        <time>2019-12-30T15:11:16Z</time>
      </trkpt>
      <trkpt lat="43.80888" lon="7.09635">
        <ele>866.1</ele>
        <time>2019-12-30T15:11:17Z</time>
      </trkpt>
      <trkpt lat="43.80889" lon="7.09638">
        <ele>866</ele>
        <time>2019-12-30T15:11:18Z</time>
      </trkpt>
      <trkpt lat="43.80889" lon="7.09641">
        <ele>866</ele>
        <time>2019-12-30T15:11:19Z</time>
      </trkpt>
      <trkpt lat="43.8089" lon="7.09644">
        <ele>866.1</ele>
        <time>2019-12-30T15:11:20Z</time>
      </trkpt>
      <trkpt lat="43.80889" lon="7.09647">
        <ele>866.2</ele>
        <time>2019-12-30T15:11:21Z</time>
      </trkpt>
      <trkpt lat="43.80889" lon="7.0965">
        <ele>866.3</ele>
        <time>2019-12-30T15:11:22Z</time>
      </trkpt>
      <trkpt lat="43.80888" lon="7.09653">
        <ele>866.4</ele>
        <time>2019-12-30T15:11:23Z</time>
      </trkpt>
      <trkpt lat="43.80887" lon="7.09656">
        <ele>866.2</ele>
        <time>2019-12-30T15:11:24Z</time>
      </trkpt>
      <trkpt lat="43.80887" lon="7.09659">
        <ele>866</ele>
        <time>2019-12-30T15:11:25Z</time>
      </trkpt>
      <trkpt lat="43.80887" lon="7.09662">
        <ele>865.9</ele>
        <time>2019-12-30T15:11:26Z</time>
      </trkpt>
      <trkpt lat="43.80887" lon="7.09665">
        <ele>863.9</ele>
        <time>2019-12-30T15:11:27Z</time>
      </trkpt>
      <trkpt lat="43.80888" lon="7.09668">
        <ele>863.5</ele>
        <time>2019-12-30T15:11:28Z</time>
      </trkpt>
      <trkpt lat="43.80889" lon="7.0967">
        <ele>863.2</ele>
        <time>2019-12-30T15:11:29Z</time>
      </trkpt>
      <trkpt lat="43.80891" lon="7.0967">
        <ele>862.8</ele>
        <time>2019-12-30T15:11:30Z</time>
      </trkpt>
      <trkpt lat="43.80894" lon="7.09668">
        <ele>862.3</ele>
        <time>2019-12-30T15:11:31Z</time>
      </trkpt>
      <trkpt lat="43.80897" lon="7.09664">
        <ele>861.6</ele>
        <time>2019-12-30T15:11:32Z</time>
      </trkpt>
      <trkpt lat="43.80899" lon="7.09661">
        <ele>860.9</ele>
        <time>2019-12-30T15:11:33Z</time>
      </trkpt>
      <trkpt lat="43.80902" lon="7.09655">
        <ele>860.2</ele>
        <time>2019-12-30T15:11:34Z</time>
      </trkpt>
      <trkpt lat="43.80902" lon="7.09654">
        <ele>859.9</ele>
        <time>2019-12-30T15:11:35Z</time>
      </trkpt>
      <trkpt lat="43.80902" lon="7.09652">
        <ele>859.7</ele>
        <time>2019-12-30T15:11:36Z</time>
      </trkpt>
      <trkpt lat="43.80903" lon="7.0965">
        <ele>859.4</ele>
        <time>2019-12-30T15:11:37Z</time>
      </trkpt>
      <trkpt lat="43.80903" lon="7.09648">
        <ele>859.2</ele>
        <time>2019-12-30T15:11:38Z</time>
      </trkpt>
      <trkpt lat="43.80904" lon="7.09647">
        <ele>859.1</ele>
        <time>2019-12-30T15:11:39Z</time>
      </trkpt>
      <trkpt lat="43.80903" lon="7.09645">
        <ele>859.1</ele>
        <time>2019-12-30T15:11:40Z</time>
      </trkpt>
      <trkpt lat="43.80902" lon="7.09642">
        <ele>859</ele>
        <time>2019-12-30T15:11:41Z</time>
      </trkpt>
      <trkpt lat="43.80902" lon="7.0964">
        <ele>858.9</ele>
        <time>2019-12-30T15:11:42Z</time>
      </trkpt>
      <trkpt lat="43.80901" lon="7.09637">
        <ele>858.9</ele>
        <time>2019-12-30T15:11:43Z</time>
      </trkpt>
      <trkpt lat="43.80901" lon="7.09634">
        <ele>858.9</ele>
        <time>2019-12-30T15:11:44Z</time>
      </trkpt>
      <trkpt lat="43.80902" lon="7.09631">
        <ele>858.9</ele>
        <time>2019-12-30T15:11:45Z</time>
      </trkpt>
      <trkpt lat="43.80903" lon="7.09627">
        <ele>858.9</ele>
        <time>2019-12-30T15:11:46Z</time>
      </trkpt>
      <trkpt lat="43.80903" lon="7.09625">
        <ele>858.9</ele>
        <time>2019-12-30T15:11:47Z</time>
      </trkpt>
      <trkpt lat="43.80903" lon="7.09624">
        <ele>858.9</ele>
        <time>2019-12-30T15:11:48Z</time>
      </trkpt>
      <trkpt lat="43.80903" lon="7.09622">
        <ele>858.9</ele>
        <time>2019-12-30T15:11:49Z</time>
      </trkpt>
      <trkpt lat="43.80904" lon="7.09621">
        <ele>858.9</ele>
        <time>2019-12-30T15:11:50Z</time>
      </trkpt>
      <trkpt lat="43.80904" lon="7.0962">
        <ele>858.8</ele>
        <time>2019-12-30T15:11:51Z</time>
      </trkpt>
      <trkpt lat="43.80904" lon="7.09618">
        <ele>858.8</ele>
        <time>2019-12-30T15:11:52Z</time>
      </trkpt>
      <trkpt lat="43.80904" lon="7.09618">
        <ele>858.8</ele>
        <time>2019-12-30T15:11:53Z</time>
      </trkpt>
      <trkpt lat="43.80904" lon="7.09618">
        <ele>858.8</ele>
        <time>2019-12-30T15:11:54Z</time>
      </trkpt>
      <trkpt lat="43.80904" lon="7.09618">
        <ele>858.8</ele>
        <time>2019-12-30T15:11:55Z</time>
      </trkpt>
      <trkpt lat="43.80904" lon="7.09618">
        <ele>858.8</ele>
        <time>2019-12-30T15:11:56Z</time>
      </trkpt>
      <trkpt lat="43.80904" lon="7.09618">
        <ele>858.8</ele>
        <time>2019-12-30T15:11:57Z</time>
      </trkpt>
      <trkpt lat="43.80904" lon="7.09618">
        <ele>858.8</ele>
        <time>2019-12-30T15:11:58Z</time>
      </trkpt>
      <trkpt lat="43.80904" lon="7.09618">
        <ele>858.8</ele>
        <time>2019-12-30T15:11:59Z</time>
      </trkpt>
      <trkpt lat="43.80904" lon="7.09618">
        <ele>858.8</ele>
        <time>2019-12-30T15:12:00Z</time>
      </trkpt>
      <trkpt lat="43.80904" lon="7.09618">
        <ele>858.8</ele>
        <time>2019-12-30T15:12:01Z</time>
      </trkpt>
      <trkpt lat="43.80904" lon="7.09618">
        <ele>858.8</ele>
        <time>2019-12-30T15:12:02Z</time>
      </trkpt>
      <trkpt lat="43.80904" lon="7.09618">
        <ele>858.8</ele>
        <time>2019-12-30T15:12:03Z</time>
      </trkpt>
      <trkpt lat="43.80904" lon="7.09618">
        <ele>858.8</ele>
        <time>2019-12-30T15:12:04Z</time>
      </trkpt>
      <trkpt lat="43.80904" lon="7.09618">
        <ele>858.8</ele>
        <time>2019-12-30T15:12:05Z</time>
      </trkpt>
      <trkpt lat="43.80904" lon="7.09618">
        <ele>858.8</ele>
        <time>2019-12-30T15:12:06Z</time>
      </trkpt>
      <trkpt lat="43.80904" lon="7.09618">
        <ele>858.8</ele>
        <time>2019-12-30T15:12:07Z</time>
      </trkpt>
      <trkpt lat="43.80904" lon="7.09618">
        <ele>858.8</ele>
        <time>2019-12-30T15:12:08Z</time>
      </trkpt>
      <trkpt lat="43.80904" lon="7.09618">
        <ele>858.8</ele>
        <time>2019-12-30T15:12:09Z</time>
      </trkpt>
      <trkpt lat="43.80904" lon="7.09618">
        <ele>858.8</ele>
        <time>2019-12-30T15:12:10Z</time>
      </trkpt>
      <trkpt lat="43.80904" lon="7.09618">
        <ele>858.8</ele>
        <time>2019-12-30T15:12:11Z</time>
      </trkpt>
      <trkpt lat="43.80904" lon="7.09618">
        <ele>858.8</ele>
        <time>2019-12-30T15:12:12Z</time>
      </trkpt>
      <trkpt lat="43.80904" lon="7.09617">
        <ele>858.8</ele>
        <time>2019-12-30T15:12:13Z</time>
      </trkpt>
      <trkpt lat="43.80904" lon="7.09617">
        <ele>858.7</ele>
        <time>2019-12-30T15:12:14Z</time>
      </trkpt>
      <trkpt lat="43.80903" lon="7.09616">
        <ele>858.7</ele>
        <time>2019-12-30T15:12:15Z</time>
      </trkpt>
      <trkpt lat="43.80903" lon="7.09614">
        <ele>858.6</ele>
        <time>2019-12-30T15:12:16Z</time>
      </trkpt>
      <trkpt lat="43.80902" lon="7.09611">
        <ele>858.5</ele>
        <time>2019-12-30T15:12:17Z</time>
      </trkpt>
      <trkpt lat="43.80901" lon="7.09601">
        <ele>857.7</ele>
        <time>2019-12-30T15:12:18Z</time>
      </trkpt>
      <trkpt lat="43.809" lon="7.09596">
        <ele>857.5</ele>
        <time>2019-12-30T15:12:19Z</time>
      </trkpt>
      <trkpt lat="43.80899" lon="7.09591">
        <ele>857.6</ele>
        <time>2019-12-30T15:12:20Z</time>
      </trkpt>
      <trkpt lat="43.80898" lon="7.09585">
        <ele>857.9</ele>
        <time>2019-12-30T15:12:21Z</time>
      </trkpt>
      <trkpt lat="43.80897" lon="7.0958">
        <ele>858.3</ele>
        <time>2019-12-30T15:12:22Z</time>
      </trkpt>
      <trkpt lat="43.80897" lon="7.09575">
        <ele>858.7</ele>
        <time>2019-12-30T15:12:23Z</time>
      </trkpt>
      <trkpt lat="43.80897" lon="7.0957">
        <ele>859.1</ele>
        <time>2019-12-30T15:12:24Z</time>
      </trkpt>
      <trkpt lat="43.80896" lon="7.09564">
        <ele>858.7</ele>
        <time>2019-12-30T15:12:25Z</time>
      </trkpt>
      <trkpt lat="43.80895" lon="7.09559">
        <ele>857.4</ele>
        <time>2019-12-30T15:12:26Z</time>
      </trkpt>
      <trkpt lat="43.80894" lon="7.09554">
        <ele>856.2</ele>
        <time>2019-12-30T15:12:27Z</time>
      </trkpt>
      <trkpt lat="43.80894" lon="7.09553">
        <ele>856</ele>
        <time>2019-12-30T15:12:28Z</time>
      </trkpt>
      <trkpt lat="43.80894" lon="7.09552">
        <ele>855.8</ele>
        <time>2019-12-30T15:12:29Z</time>
      </trkpt>
      <trkpt lat="43.80893" lon="7.09551">
        <ele>855.6</ele>
        <time>2019-12-30T15:12:30Z</time>
      </trkpt>
      <trkpt lat="43.80893" lon="7.0955">
        <ele>855.4</ele>
        <time>2019-12-30T15:12:31Z</time>
      </trkpt>
      <trkpt lat="43.80893" lon="7.09549">
        <ele>855.1</ele>
        <time>2019-12-30T15:12:32Z</time>
      </trkpt>
      <trkpt lat="43.80893" lon="7.09548">
        <ele>854.9</ele>
        <time>2019-12-30T15:12:33Z</time>
      </trkpt>
      <trkpt lat="43.80893" lon="7.09547">
        <ele>854.7</ele>
        <time>2019-12-30T15:12:34Z</time>
      </trkpt>
      <trkpt lat="43.80892" lon="7.09546">
        <ele>854.5</ele>
        <time>2019-12-30T15:12:35Z</time>
      </trkpt>
      <trkpt lat="43.80892" lon="7.09545">
        <ele>854.3</ele>
        <time>2019-12-30T15:12:36Z</time>
      </trkpt>
      <trkpt lat="43.80892" lon="7.09545">
        <ele>854.3</ele>
        <time>2019-12-30T15:12:37Z</time>
      </trkpt>
      <trkpt lat="43.80892" lon="7.09545">
        <ele>854.3</ele>
        <time>2019-12-30T15:12:38Z</time>
      </trkpt>
      <trkpt lat="43.80892" lon="7.09545">
        <ele>854.3</ele>
        <time>2019-12-30T15:12:39Z</time>
      </trkpt>
      <trkpt lat="43.80892" lon="7.09545">
        <ele>854.3</ele>
        <time>2019-12-30T15:12:40Z</time>
      </trkpt>
      <trkpt lat="43.80892" lon="7.09545">
        <ele>854.3</ele>
        <time>2019-12-30T15:12:41Z</time>
      </trkpt>
      <trkpt lat="43.80892" lon="7.09546">
        <ele>854.2</ele>
        <time>2019-12-30T15:12:42Z</time>
      </trkpt>
      <trkpt lat="43.80892" lon="7.09546">
        <ele>854.2</ele>
        <time>2019-12-30T15:12:43Z</time>
      </trkpt>
      <trkpt lat="43.80892" lon="7.09545">
        <ele>854.2</ele>
        <time>2019-12-30T15:12:44Z</time>
      </trkpt>
      <trkpt lat="43.80892" lon="7.09545">
        <ele>854.2</ele>
        <time>2019-12-30T15:12:45Z</time>
      </trkpt>
      <trkpt lat="43.80892" lon="7.09545">
        <ele>854.2</ele>
        <time>2019-12-30T15:12:46Z</time>
      </trkpt>
      <trkpt lat="43.80892" lon="7.09545">
        <ele>854.1</ele>
        <time>2019-12-30T15:12:47Z</time>
      </trkpt>
      <trkpt lat="43.80892" lon="7.09545">
        <ele>854.1</ele>
        <time>2019-12-30T15:12:48Z</time>
      </trkpt>
      <trkpt lat="43.80892" lon="7.09545">
        <ele>854</ele>
        <time>2019-12-30T15:12:49Z</time>
      </trkpt>
      <trkpt lat="43.80892" lon="7.09546">
        <ele>854</ele>
        <time>2019-12-30T15:12:50Z</time>
      </trkpt>
      <trkpt lat="43.80892" lon="7.09547">
        <ele>853.8</ele>
        <time>2019-12-30T15:12:51Z</time>
      </trkpt>
      <trkpt lat="43.80893" lon="7.09548">
        <ele>853.5</ele>
        <time>2019-12-30T15:12:52Z</time>
      </trkpt>
      <trkpt lat="43.80894" lon="7.09549">
        <ele>853.1</ele>
        <time>2019-12-30T15:12:53Z</time>
      </trkpt>
      <trkpt lat="43.80894" lon="7.0955">
        <ele>852.6</ele>
        <time>2019-12-30T15:12:54Z</time>
      </trkpt>
      <trkpt lat="43.80895" lon="7.09551">
        <ele>852.3</ele>
        <time>2019-12-30T15:12:55Z</time>
      </trkpt>
      <trkpt lat="43.80895" lon="7.09552">
        <ele>852.2</ele>
        <time>2019-12-30T15:12:56Z</time>
      </trkpt>
      <trkpt lat="43.80895" lon="7.09552">
        <ele>852.2</ele>
        <time>2019-12-30T15:12:57Z</time>
      </trkpt>
      <trkpt lat="43.80895" lon="7.09552">
        <ele>852.1</ele>
        <time>2019-12-30T15:12:58Z</time>
      </trkpt>
      <trkpt lat="43.80895" lon="7.09553">
        <ele>851.9</ele>
        <time>2019-12-30T15:12:59Z</time>
      </trkpt>
      <trkpt lat="43.80896" lon="7.09554">
        <ele>851.5</ele>
        <time>2019-12-30T15:13:00Z</time>
      </trkpt>
      <trkpt lat="43.80897" lon="7.09556">
        <ele>850.8</ele>
        <time>2019-12-30T15:13:01Z</time>
      </trkpt>
      <trkpt lat="43.80902" lon="7.09562">
        <ele>847.9</ele>
        <time>2019-12-30T15:13:02Z</time>
      </trkpt>
      <trkpt lat="43.80905" lon="7.09564">
        <ele>846.2</ele>
        <time>2019-12-30T15:13:03Z</time>
      </trkpt>
      <trkpt lat="43.80908" lon="7.09567">
        <ele>844.9</ele>
        <time>2019-12-30T15:13:04Z</time>
      </trkpt>
      <trkpt lat="43.8091" lon="7.0957">
        <ele>843.9</ele>
        <time>2019-12-30T15:13:05Z</time>
      </trkpt>
      <trkpt lat="43.80914" lon="7.09574">
        <ele>842.5</ele>
        <time>2019-12-30T15:13:06Z</time>
      </trkpt>
      <trkpt lat="43.80918" lon="7.09579">
        <ele>840.9</ele>
        <time>2019-12-30T15:13:07Z</time>
      </trkpt>
      <trkpt lat="43.80924" lon="7.09587">
        <ele>837.4</ele>
        <time>2019-12-30T15:13:08Z</time>
      </trkpt>
      <trkpt lat="43.80927" lon="7.0959">
        <ele>835.8</ele>
        <time>2019-12-30T15:13:09Z</time>
      </trkpt>
      <trkpt lat="43.8093" lon="7.09593">
        <ele>834.2</ele>
        <time>2019-12-30T15:13:10Z</time>
      </trkpt>
      <trkpt lat="43.80932" lon="7.09597">
        <ele>833.2</ele>
        <time>2019-12-30T15:13:11Z</time>
      </trkpt>
      <trkpt lat="43.80935" lon="7.096">
        <ele>832.7</ele>
        <time>2019-12-30T15:13:12Z</time>
      </trkpt>
      <trkpt lat="43.80938" lon="7.09604">
        <ele>831.3</ele>
        <time>2019-12-30T15:13:13Z</time>
      </trkpt>
      <trkpt lat="43.80941" lon="7.09608">
        <ele>829.4</ele>
        <time>2019-12-30T15:13:14Z</time>
      </trkpt>
      <trkpt lat="43.80944" lon="7.09611">
        <ele>828.1</ele>
        <time>2019-12-30T15:13:15Z</time>
      </trkpt>
      <trkpt lat="43.80945" lon="7.09614">
        <ele>827.1</ele>
        <time>2019-12-30T15:13:16Z</time>
      </trkpt>
      <trkpt lat="43.80946" lon="7.09616">
        <ele>826.5</ele>
        <time>2019-12-30T15:13:17Z</time>
      </trkpt>
      <trkpt lat="43.80947" lon="7.09617">
        <ele>826</ele>
        <time>2019-12-30T15:13:18Z</time>
      </trkpt>
      <trkpt lat="43.80947" lon="7.09617">
        <ele>825.9</ele>
        <time>2019-12-30T15:13:19Z</time>
      </trkpt>
      <trkpt lat="43.80947" lon="7.09618">
        <ele>825.8</ele>
        <time>2019-12-30T15:13:20Z</time>
      </trkpt>
      <trkpt lat="43.80947" lon="7.09618">
        <ele>825.7</ele>
        <time>2019-12-30T15:13:21Z</time>
      </trkpt>
      <trkpt lat="43.80947" lon="7.09619">
        <ele>825.5</ele>
        <time>2019-12-30T15:13:22Z</time>
      </trkpt>
      <trkpt lat="43.80948" lon="7.0962">
        <ele>825</ele>
        <time>2019-12-30T15:13:23Z</time>
      </trkpt>
      <trkpt lat="43.8095" lon="7.09622">
        <ele>824.1</ele>
        <time>2019-12-30T15:13:24Z</time>
      </trkpt>
      <trkpt lat="43.80953" lon="7.09625">
        <ele>822.8</ele>
        <time>2019-12-30T15:13:25Z</time>
      </trkpt>
      <trkpt lat="43.8096" lon="7.09634">
        <ele>818.8</ele>
        <time>2019-12-30T15:13:26Z</time>
      </trkpt>
      <trkpt lat="43.80964" lon="7.09639">
        <ele>816.9</ele>
        <time>2019-12-30T15:13:27Z</time>
      </trkpt>
      <trkpt lat="43.80968" lon="7.09643">
        <ele>815.1</ele>
        <time>2019-12-30T15:13:28Z</time>
      </trkpt>
      <trkpt lat="43.80971" lon="7.09648">
        <ele>813.4</ele>
        <time>2019-12-30T15:13:29Z</time>
      </trkpt>
      <trkpt lat="43.80975" lon="7.09652">
        <ele>811.6</ele>
        <time>2019-12-30T15:13:30Z</time>
      </trkpt>
      <trkpt lat="43.80979" lon="7.09658">
        <ele>809.3</ele>
        <time>2019-12-30T15:13:31Z</time>
      </trkpt>
      <trkpt lat="43.80983" lon="7.09664">
        <ele>807.8</ele>
        <time>2019-12-30T15:13:32Z</time>
      </trkpt>
      <trkpt lat="43.80987" lon="7.0967">
        <ele>806.2</ele>
        <time>2019-12-30T15:13:33Z</time>
      </trkpt>
      <trkpt lat="43.80991" lon="7.09675">
        <ele>804.5</ele>
        <time>2019-12-30T15:13:34Z</time>
      </trkpt>
      <trkpt lat="43.80995" lon="7.09682">
        <ele>802.6</ele>
        <time>2019-12-30T15:13:35Z</time>
      </trkpt>
      <trkpt lat="43.80999" lon="7.09689">
        <ele>800.5</ele>
        <time>2019-12-30T15:13:36Z</time>
      </trkpt>
      <trkpt lat="43.81002" lon="7.09697">
        <ele>798.2</ele>
        <time>2019-12-30T15:13:37Z</time>
      </trkpt>
      <trkpt lat="43.81005" lon="7.09706">
        <ele>798</ele>
        <time>2019-12-30T15:13:38Z</time>
      </trkpt>
      <trkpt lat="43.81007" lon="7.09713">
        <ele>799</ele>
        <time>2019-12-30T15:13:39Z</time>
      </trkpt>
      <trkpt lat="43.8101" lon="7.09717">
        <ele>799.6</ele>
        <time>2019-12-30T15:13:40Z</time>
      </trkpt>
      <trkpt lat="43.81012" lon="7.09717">
        <ele>799.9</ele>
        <time>2019-12-30T15:13:41Z</time>
      </trkpt>
      <trkpt lat="43.81013" lon="7.09716">
        <ele>800.2</ele>
        <time>2019-12-30T15:13:42Z</time>
      </trkpt>
      <trkpt lat="43.81014" lon="7.09712">
        <ele>800.2</ele>
        <time>2019-12-30T15:13:43Z</time>
      </trkpt>
      <trkpt lat="43.81014" lon="7.09708">
        <ele>800</ele>
        <time>2019-12-30T15:13:44Z</time>
      </trkpt>
      <trkpt lat="43.81013" lon="7.09703">
        <ele>799.7</ele>
        <time>2019-12-30T15:13:45Z</time>
      </trkpt>
      <trkpt lat="43.81012" lon="7.09698">
        <ele>800.2</ele>
        <time>2019-12-30T15:13:46Z</time>
      </trkpt>
      <trkpt lat="43.8101" lon="7.09692">
        <ele>800.8</ele>
        <time>2019-12-30T15:13:47Z</time>
      </trkpt>
      <trkpt lat="43.81008" lon="7.09686">
        <ele>801.4</ele>
        <time>2019-12-30T15:13:48Z</time>
      </trkpt>
      <trkpt lat="43.81006" lon="7.09679">
        <ele>802.2</ele>
        <time>2019-12-30T15:13:49Z</time>
      </trkpt>
      <trkpt lat="43.81003" lon="7.09667">
        <ele>805.9</ele>
        <time>2019-12-30T15:13:50Z</time>
      </trkpt>
      <trkpt lat="43.81002" lon="7.09662">
        <ele>806.6</ele>
        <time>2019-12-30T15:13:51Z</time>
      </trkpt>
      <trkpt lat="43.81" lon="7.09656">
        <ele>807.3</ele>
        <time>2019-12-30T15:13:52Z</time>
      </trkpt>
      <trkpt lat="43.80999" lon="7.09651">
        <ele>807.9</ele>
        <time>2019-12-30T15:13:53Z</time>
      </trkpt>
      <trkpt lat="43.80997" lon="7.09643">
        <ele>808.6</ele>
        <time>2019-12-30T15:13:54Z</time>
      </trkpt>
      <trkpt lat="43.80995" lon="7.09636">
        <ele>809.1</ele>
        <time>2019-12-30T15:13:55Z</time>
      </trkpt>
      <trkpt lat="43.80991" lon="7.09625">
        <ele>810.6</ele>
        <time>2019-12-30T15:13:56Z</time>
      </trkpt>
      <trkpt lat="43.80989" lon="7.0962">
        <ele>812</ele>
        <time>2019-12-30T15:13:57Z</time>
      </trkpt>
      <trkpt lat="43.80987" lon="7.09615">
        <ele>813</ele>
        <time>2019-12-30T15:13:58Z</time>
      </trkpt>
      <trkpt lat="43.80985" lon="7.0961">
        <ele>813.5</ele>
        <time>2019-12-30T15:13:59Z</time>
      </trkpt>
      <trkpt lat="43.80983" lon="7.09605">
        <ele>814</ele>
        <time>2019-12-30T15:14:00Z</time>
      </trkpt>
      <trkpt lat="43.80981" lon="7.09599">
        <ele>814.8</ele>
        <time>2019-12-30T15:14:01Z</time>
      </trkpt>
      <trkpt lat="43.80979" lon="7.09593">
        <ele>816.5</ele>
        <time>2019-12-30T15:14:02Z</time>
      </trkpt>
      <trkpt lat="43.80976" lon="7.09586">
        <ele>818.2</ele>
        <time>2019-12-30T15:14:03Z</time>
      </trkpt>
      <trkpt lat="43.80974" lon="7.09579">
        <ele>819.2</ele>
        <time>2019-12-30T15:14:04Z</time>
      </trkpt>
      <trkpt lat="43.80971" lon="7.09572">
        <ele>820.4</ele>
        <time>2019-12-30T15:14:05Z</time>
      </trkpt>
      <trkpt lat="43.80968" lon="7.09565">
        <ele>821.8</ele>
        <time>2019-12-30T15:14:06Z</time>
      </trkpt>
      <trkpt lat="43.80965" lon="7.09557">
        <ele>823.9</ele>
        <time>2019-12-30T15:14:07Z</time>
      </trkpt>
      <trkpt lat="43.80962" lon="7.0955">
        <ele>827.3</ele>
        <time>2019-12-30T15:14:08Z</time>
      </trkpt>
      <trkpt lat="43.80959" lon="7.09544">
        <ele>827.9</ele>
        <time>2019-12-30T15:14:09Z</time>
      </trkpt>
      <trkpt lat="43.80958" lon="7.09538">
        <ele>829.3</ele>
        <time>2019-12-30T15:14:10Z</time>
      </trkpt>
      <trkpt lat="43.80956" lon="7.09532">
        <ele>830.9</ele>
        <time>2019-12-30T15:14:11Z</time>
      </trkpt>
      <trkpt lat="43.80955" lon="7.09527">
        <ele>830.9</ele>
        <time>2019-12-30T15:14:12Z</time>
      </trkpt>
      <trkpt lat="43.80955" lon="7.09522">
        <ele>830.9</ele>
        <time>2019-12-30T15:14:13Z</time>
      </trkpt>
      <trkpt lat="43.80954" lon="7.09518">
        <ele>831</ele>
        <time>2019-12-30T15:14:14Z</time>
      </trkpt>
      <trkpt lat="43.80955" lon="7.09514">
        <ele>831.3</ele>
        <time>2019-12-30T15:14:15Z</time>
      </trkpt>
      <trkpt lat="43.80955" lon="7.09511">
        <ele>831.2</ele>
        <time>2019-12-30T15:14:16Z</time>
      </trkpt>
      <trkpt lat="43.80957" lon="7.09508">
        <ele>831</ele>
        <time>2019-12-30T15:14:17Z</time>
      </trkpt>
      <trkpt lat="43.80959" lon="7.09505">
        <ele>829.4</ele>
        <time>2019-12-30T15:14:18Z</time>
      </trkpt>
      <trkpt lat="43.80961" lon="7.09502">
        <ele>827.6</ele>
        <time>2019-12-30T15:14:19Z</time>
      </trkpt>
      <trkpt lat="43.80964" lon="7.09499">
        <ele>825.8</ele>
        <time>2019-12-30T15:14:20Z</time>
      </trkpt>
      <trkpt lat="43.80967" lon="7.09497">
        <ele>824.4</ele>
        <time>2019-12-30T15:14:21Z</time>
      </trkpt>
      <trkpt lat="43.8097" lon="7.09496">
        <ele>822.9</ele>
        <time>2019-12-30T15:14:22Z</time>
      </trkpt>
      <trkpt lat="43.80974" lon="7.09494">
        <ele>820.3</ele>
        <time>2019-12-30T15:14:23Z</time>
      </trkpt>
      <trkpt lat="43.80978" lon="7.09493">
        <ele>817.6</ele>
        <time>2019-12-30T15:14:24Z</time>
      </trkpt>
      <trkpt lat="43.80982" lon="7.09493">
        <ele>815.2</ele>
        <time>2019-12-30T15:14:25Z</time>
      </trkpt>
      <trkpt lat="43.8099" lon="7.09492">
        <ele>811.6</ele>
        <time>2019-12-30T15:14:26Z</time>
      </trkpt>
      <trkpt lat="43.80993" lon="7.09491">
        <ele>810.4</ele>
        <time>2019-12-30T15:14:27Z</time>
      </trkpt>
      <trkpt lat="43.80996" lon="7.09491">
        <ele>809.1</ele>
        <time>2019-12-30T15:14:28Z</time>
      </trkpt>
      <trkpt lat="43.81" lon="7.0949">
        <ele>806.1</ele>
        <time>2019-12-30T15:14:29Z</time>
      </trkpt>
      <trkpt lat="43.81004" lon="7.09488">
        <ele>803.5</ele>
        <time>2019-12-30T15:14:30Z</time>
      </trkpt>
      <trkpt lat="43.81008" lon="7.09486">
        <ele>800.7</ele>
        <time>2019-12-30T15:14:31Z</time>
      </trkpt>
      <trkpt lat="43.81011" lon="7.09483">
        <ele>801.3</ele>
        <time>2019-12-30T15:14:32Z</time>
      </trkpt>
      <trkpt lat="43.81013" lon="7.09479">
        <ele>802.3</ele>
        <time>2019-12-30T15:14:33Z</time>
      </trkpt>
      <trkpt lat="43.81015" lon="7.09474">
        <ele>803.1</ele>
        <time>2019-12-30T15:14:34Z</time>
      </trkpt>
      <trkpt lat="43.81015" lon="7.09469">
        <ele>803.9</ele>
        <time>2019-12-30T15:14:35Z</time>
      </trkpt>
      <trkpt lat="43.81015" lon="7.09463">
        <ele>805</ele>
        <time>2019-12-30T15:14:36Z</time>
      </trkpt>
      <trkpt lat="43.81015" lon="7.09456">
        <ele>806.7</ele>
        <time>2019-12-30T15:14:37Z</time>
      </trkpt>
      <trkpt lat="43.81015" lon="7.0945">
        <ele>807.9</ele>
        <time>2019-12-30T15:14:38Z</time>
      </trkpt>
      <trkpt lat="43.81016" lon="7.09444">
        <ele>808.9</ele>
        <time>2019-12-30T15:14:39Z</time>
      </trkpt>
      <trkpt lat="43.81017" lon="7.09438">
        <ele>807.8</ele>
        <time>2019-12-30T15:14:40Z</time>
      </trkpt>
      <trkpt lat="43.81018" lon="7.09433">
        <ele>807.3</ele>
        <time>2019-12-30T15:14:41Z</time>
      </trkpt>
      <trkpt lat="43.8102" lon="7.09429">
        <ele>807.3</ele>
        <time>2019-12-30T15:14:42Z</time>
      </trkpt>
      <trkpt lat="43.81023" lon="7.09425">
        <ele>807.2</ele>
        <time>2019-12-30T15:14:43Z</time>
      </trkpt>
      <trkpt lat="43.81025" lon="7.09421">
        <ele>807</ele>
        <time>2019-12-30T15:14:44Z</time>
      </trkpt>
      <trkpt lat="43.81028" lon="7.09418">
        <ele>805</ele>
        <time>2019-12-30T15:14:45Z</time>
      </trkpt>
      <trkpt lat="43.8103" lon="7.09414">
        <ele>803.5</ele>
        <time>2019-12-30T15:14:46Z</time>
      </trkpt>
      <trkpt lat="43.81031" lon="7.09411">
        <ele>803.5</ele>
        <time>2019-12-30T15:14:47Z</time>
      </trkpt>
      <trkpt lat="43.81032" lon="7.09407">
        <ele>803.5</ele>
        <time>2019-12-30T15:14:48Z</time>
      </trkpt>
      <trkpt lat="43.81034" lon="7.09404">
        <ele>803.5</ele>
        <time>2019-12-30T15:14:49Z</time>
      </trkpt>
      <trkpt lat="43.81035" lon="7.09401">
        <ele>803.6</ele>
        <time>2019-12-30T15:14:50Z</time>
      </trkpt>
      <trkpt lat="43.81037" lon="7.09398">
        <ele>804</ele>
        <time>2019-12-30T15:14:51Z</time>
      </trkpt>
      <trkpt lat="43.81039" lon="7.09395">
        <ele>804.6</ele>
        <time>2019-12-30T15:14:52Z</time>
      </trkpt>
      <trkpt lat="43.8104" lon="7.09392">
        <ele>804.7</ele>
        <time>2019-12-30T15:14:53Z</time>
      </trkpt>
      <trkpt lat="43.81042" lon="7.09388">
        <ele>804.6</ele>
        <time>2019-12-30T15:14:54Z</time>
      </trkpt>
      <trkpt lat="43.81044" lon="7.09384">
        <ele>803.7</ele>
        <time>2019-12-30T15:14:55Z</time>
      </trkpt>
      <trkpt lat="43.81045" lon="7.0938">
        <ele>802.9</ele>
        <time>2019-12-30T15:14:56Z</time>
      </trkpt>
      <trkpt lat="43.81047" lon="7.09378">
        <ele>802.3</ele>
        <time>2019-12-30T15:14:57Z</time>
      </trkpt>
      <trkpt lat="43.81048" lon="7.09376">
        <ele>801.8</ele>
        <time>2019-12-30T15:14:58Z</time>
      </trkpt>
      <trkpt lat="43.81049" lon="7.09374">
        <ele>801.3</ele>
        <time>2019-12-30T15:14:59Z</time>
      </trkpt>
      <trkpt lat="43.81053" lon="7.0937">
        <ele>800.6</ele>
        <time>2019-12-30T15:15:00Z</time>
      </trkpt>
      <trkpt lat="43.81054" lon="7.09368">
        <ele>801.3</ele>
        <time>2019-12-30T15:15:01Z</time>
      </trkpt>
      <trkpt lat="43.81057" lon="7.09364">
        <ele>802.6</ele>
        <time>2019-12-30T15:15:02Z</time>
      </trkpt>
      <trkpt lat="43.81059" lon="7.09357">
        <ele>804.4</ele>
        <time>2019-12-30T15:15:03Z</time>
      </trkpt>
      <trkpt lat="43.81061" lon="7.0935">
        <ele>803.8</ele>
        <time>2019-12-30T15:15:04Z</time>
      </trkpt>
      <trkpt lat="43.81063" lon="7.09344">
        <ele>802.4</ele>
        <time>2019-12-30T15:15:05Z</time>
      </trkpt>
      <trkpt lat="43.81064" lon="7.09337">
        <ele>801.6</ele>
        <time>2019-12-30T15:15:06Z</time>
      </trkpt>
      <trkpt lat="43.81065" lon="7.09331">
        <ele>800.7</ele>
        <time>2019-12-30T15:15:07Z</time>
      </trkpt>
      <trkpt lat="43.81065" lon="7.09326">
        <ele>799.7</ele>
        <time>2019-12-30T15:15:08Z</time>
      </trkpt>
      <trkpt lat="43.81066" lon="7.09321">
        <ele>798.8</ele>
        <time>2019-12-30T15:15:09Z</time>
      </trkpt>
      <trkpt lat="43.81067" lon="7.09318">
        <ele>797.3</ele>
        <time>2019-12-30T15:15:10Z</time>
      </trkpt>
      <trkpt lat="43.81069" lon="7.09315">
        <ele>795.9</ele>
        <time>2019-12-30T15:15:11Z</time>
      </trkpt>
      <trkpt lat="43.81071" lon="7.09312">
        <ele>794.5</ele>
        <time>2019-12-30T15:15:12Z</time>
      </trkpt>
      <trkpt lat="43.81074" lon="7.09309">
        <ele>793.1</ele>
        <time>2019-12-30T15:15:13Z</time>
      </trkpt>
      <trkpt lat="43.81077" lon="7.09307">
        <ele>791.6</ele>
        <time>2019-12-30T15:15:14Z</time>
      </trkpt>
      <trkpt lat="43.81081" lon="7.09304">
        <ele>790.3</ele>
        <time>2019-12-30T15:15:15Z</time>
      </trkpt>
      <trkpt lat="43.81084" lon="7.09302">
        <ele>788.9</ele>
        <time>2019-12-30T15:15:16Z</time>
      </trkpt>
      <trkpt lat="43.81088" lon="7.09299">
        <ele>787.3</ele>
        <time>2019-12-30T15:15:17Z</time>
      </trkpt>
      <trkpt lat="43.81091" lon="7.09296">
        <ele>785.8</ele>
        <time>2019-12-30T15:15:18Z</time>
      </trkpt>
      <trkpt lat="43.81095" lon="7.09293">
        <ele>784.4</ele>
        <time>2019-12-30T15:15:19Z</time>
      </trkpt>
      <trkpt lat="43.81098" lon="7.0929">
        <ele>782.7</ele>
        <time>2019-12-30T15:15:20Z</time>
      </trkpt>
      <trkpt lat="43.81101" lon="7.09287">
        <ele>780.6</ele>
        <time>2019-12-30T15:15:21Z</time>
      </trkpt>
      <trkpt lat="43.81104" lon="7.09284">
        <ele>778.8</ele>
        <time>2019-12-30T15:15:22Z</time>
      </trkpt>
      <trkpt lat="43.81107" lon="7.09281">
        <ele>777.3</ele>
        <time>2019-12-30T15:15:23Z</time>
      </trkpt>
      <trkpt lat="43.8111" lon="7.09278">
        <ele>775.9</ele>
        <time>2019-12-30T15:15:24Z</time>
      </trkpt>
      <trkpt lat="43.81113" lon="7.09275">
        <ele>774.7</ele>
        <time>2019-12-30T15:15:25Z</time>
      </trkpt>
      <trkpt lat="43.81118" lon="7.09271">
        <ele>772.8</ele>
        <time>2019-12-30T15:15:26Z</time>
      </trkpt>
      <trkpt lat="43.81121" lon="7.0927">
        <ele>771.9</ele>
        <time>2019-12-30T15:15:27Z</time>
      </trkpt>
      <trkpt lat="43.81123" lon="7.09268">
        <ele>771.1</ele>
        <time>2019-12-30T15:15:28Z</time>
      </trkpt>
      <trkpt lat="43.81125" lon="7.09267">
        <ele>770.2</ele>
        <time>2019-12-30T15:15:29Z</time>
      </trkpt>
      <trkpt lat="43.81129" lon="7.09264">
        <ele>768.9</ele>
        <time>2019-12-30T15:15:30Z</time>
      </trkpt>
      <trkpt lat="43.81133" lon="7.09261">
        <ele>767.6</ele>
        <time>2019-12-30T15:15:31Z</time>
      </trkpt>
      <trkpt lat="43.81136" lon="7.09259">
        <ele>766.1</ele>
        <time>2019-12-30T15:15:32Z</time>
      </trkpt>
      <trkpt lat="43.8114" lon="7.09259">
        <ele>764.9</ele>
        <time>2019-12-30T15:15:33Z</time>
      </trkpt>
      <trkpt lat="43.81145" lon="7.0926">
        <ele>764.5</ele>
        <time>2019-12-30T15:15:34Z</time>
      </trkpt>
      <trkpt lat="43.81147" lon="7.0926">
        <ele>764.8</ele>
        <time>2019-12-30T15:15:35Z</time>
      </trkpt>
      <trkpt lat="43.81148" lon="7.09261">
        <ele>765.2</ele>
        <time>2019-12-30T15:15:36Z</time>
      </trkpt>
      <trkpt lat="43.8115" lon="7.09262">
        <ele>765.5</ele>
        <time>2019-12-30T15:15:37Z</time>
      </trkpt>
      <trkpt lat="43.81152" lon="7.09263">
        <ele>766</ele>
        <time>2019-12-30T15:15:38Z</time>
      </trkpt>
      <trkpt lat="43.81153" lon="7.09263">
        <ele>766.4</ele>
        <time>2019-12-30T15:15:39Z</time>
      </trkpt>
      <trkpt lat="43.81155" lon="7.09264">
        <ele>766.9</ele>
        <time>2019-12-30T15:15:40Z</time>
      </trkpt>
      <trkpt lat="43.81155" lon="7.09265">
        <ele>767</ele>
        <time>2019-12-30T15:15:41Z</time>
      </trkpt>
      <trkpt lat="43.81154" lon="7.09265">
        <ele>767.2</ele>
        <time>2019-12-30T15:15:42Z</time>
      </trkpt>
      <trkpt lat="43.81154" lon="7.09265">
        <ele>767.2</ele>
        <time>2019-12-30T15:15:43Z</time>
      </trkpt>
      <trkpt lat="43.81153" lon="7.09267">
        <ele>767.7</ele>
        <time>2019-12-30T15:15:44Z</time>
      </trkpt>
      <trkpt lat="43.81151" lon="7.09268">
        <ele>768.3</ele>
        <time>2019-12-30T15:15:45Z</time>
      </trkpt>
      <trkpt lat="43.81149" lon="7.0927">
        <ele>768.8</ele>
        <time>2019-12-30T15:15:46Z</time>
      </trkpt>
      <trkpt lat="43.81148" lon="7.09272">
        <ele>769.3</ele>
        <time>2019-12-30T15:15:47Z</time>
      </trkpt>
      <trkpt lat="43.81146" lon="7.09273">
        <ele>769.6</ele>
        <time>2019-12-30T15:15:48Z</time>
      </trkpt>
      <trkpt lat="43.81144" lon="7.09275">
        <ele>769.8</ele>
        <time>2019-12-30T15:15:49Z</time>
      </trkpt>
      <trkpt lat="43.81143" lon="7.09277">
        <ele>769.9</ele>
        <time>2019-12-30T15:15:50Z</time>
      </trkpt>
      <trkpt lat="43.81141" lon="7.09278">
        <ele>770</ele>
        <time>2019-12-30T15:15:51Z</time>
      </trkpt>
      <trkpt lat="43.81139" lon="7.09282">
        <ele>769.8</ele>
        <time>2019-12-30T15:15:52Z</time>
      </trkpt>
      <trkpt lat="43.81137" lon="7.09286">
        <ele>768.6</ele>
        <time>2019-12-30T15:15:53Z</time>
      </trkpt>
      <trkpt lat="43.81136" lon="7.0929">
        <ele>767.3</ele>
        <time>2019-12-30T15:15:54Z</time>
      </trkpt>
      <trkpt lat="43.81136" lon="7.09294">
        <ele>766.3</ele>
        <time>2019-12-30T15:15:55Z</time>
      </trkpt>
      <trkpt lat="43.81136" lon="7.09297">
        <ele>765.6</ele>
        <time>2019-12-30T15:15:56Z</time>
      </trkpt>
      <trkpt lat="43.81138" lon="7.09299">
        <ele>764.8</ele>
        <time>2019-12-30T15:15:57Z</time>
      </trkpt>
      <trkpt lat="43.8114" lon="7.09301">
        <ele>763.9</ele>
        <time>2019-12-30T15:15:58Z</time>
      </trkpt>
      <trkpt lat="43.81142" lon="7.09303">
        <ele>763.2</ele>
        <time>2019-12-30T15:15:59Z</time>
      </trkpt>
      <trkpt lat="43.81145" lon="7.09304">
        <ele>762.6</ele>
        <time>2019-12-30T15:16:00Z</time>
      </trkpt>
      <trkpt lat="43.81149" lon="7.09306">
        <ele>761.9</ele>
        <time>2019-12-30T15:16:01Z</time>
      </trkpt>
      <trkpt lat="43.81152" lon="7.09307">
        <ele>761.2</ele>
        <time>2019-12-30T15:16:02Z</time>
      </trkpt>
      <trkpt lat="43.81156" lon="7.09308">
        <ele>760.6</ele>
        <time>2019-12-30T15:16:03Z</time>
      </trkpt>
      <trkpt lat="43.81159" lon="7.09309">
        <ele>760.2</ele>
        <time>2019-12-30T15:16:04Z</time>
      </trkpt>
      <trkpt lat="43.81162" lon="7.09311">
        <ele>760</ele>
        <time>2019-12-30T15:16:05Z</time>
      </trkpt>
      <trkpt lat="43.81164" lon="7.09312">
        <ele>759.8</ele>
        <time>2019-12-30T15:16:06Z</time>
      </trkpt>
      <trkpt lat="43.81166" lon="7.09313">
        <ele>759.6</ele>
        <time>2019-12-30T15:16:07Z</time>
      </trkpt>
      <trkpt lat="43.81167" lon="7.09312">
        <ele>759.5</ele>
        <time>2019-12-30T15:16:08Z</time>
      </trkpt>
      <trkpt lat="43.81169" lon="7.09311">
        <ele>759.3</ele>
        <time>2019-12-30T15:16:09Z</time>
      </trkpt>
      <trkpt lat="43.81171" lon="7.09308">
        <ele>759.2</ele>
        <time>2019-12-30T15:16:10Z</time>
      </trkpt>
      <trkpt lat="43.81173" lon="7.09306">
        <ele>759.2</ele>
        <time>2019-12-30T15:16:11Z</time>
      </trkpt>
      <trkpt lat="43.81175" lon="7.09303">
        <ele>759.2</ele>
        <time>2019-12-30T15:16:12Z</time>
      </trkpt>
      <trkpt lat="43.81178" lon="7.09299">
        <ele>759.2</ele>
        <time>2019-12-30T15:16:13Z</time>
      </trkpt>
      <trkpt lat="43.81181" lon="7.09296">
        <ele>759.3</ele>
        <time>2019-12-30T15:16:14Z</time>
      </trkpt>
      <trkpt lat="43.81185" lon="7.09293">
        <ele>759.5</ele>
        <time>2019-12-30T15:16:15Z</time>
      </trkpt>
      <trkpt lat="43.81188" lon="7.09291">
        <ele>759.8</ele>
        <time>2019-12-30T15:16:16Z</time>
      </trkpt>
      <trkpt lat="43.81192" lon="7.09289">
        <ele>760.1</ele>
        <time>2019-12-30T15:16:17Z</time>
      </trkpt>
      <trkpt lat="43.81196" lon="7.0929">
        <ele>760.3</ele>
        <time>2019-12-30T15:16:18Z</time>
      </trkpt>
      <trkpt lat="43.81198" lon="7.09291">
        <ele>760.5</ele>
        <time>2019-12-30T15:16:19Z</time>
      </trkpt>
      <trkpt lat="43.81199" lon="7.09292">
        <ele>760.6</ele>
        <time>2019-12-30T15:16:20Z</time>
      </trkpt>
      <trkpt lat="43.812" lon="7.09292">
        <ele>760.6</ele>
        <time>2019-12-30T15:16:21Z</time>
      </trkpt>
      <trkpt lat="43.812" lon="7.09293">
        <ele>760.6</ele>
        <time>2019-12-30T15:16:22Z</time>
      </trkpt>
      <trkpt lat="43.812" lon="7.09293">
        <ele>760.7</ele>
        <time>2019-12-30T15:16:23Z</time>
      </trkpt>
      <trkpt lat="43.812" lon="7.09293">
        <ele>760.7</ele>
        <time>2019-12-30T15:16:24Z</time>
      </trkpt>
      <trkpt lat="43.812" lon="7.09293">
        <ele>760.7</ele>
        <time>2019-12-30T15:16:25Z</time>
      </trkpt>
      <trkpt lat="43.812" lon="7.09293">
        <ele>760.7</ele>
        <time>2019-12-30T15:16:26Z</time>
      </trkpt>
      <trkpt lat="43.812" lon="7.09293">
        <ele>760.7</ele>
        <time>2019-12-30T15:16:27Z</time>
      </trkpt>
      <trkpt lat="43.812" lon="7.09293">
        <ele>760.7</ele>
        <time>2019-12-30T15:16:28Z</time>
      </trkpt>
      <trkpt lat="43.812" lon="7.09293">
        <ele>760.7</ele>
        <time>2019-12-30T15:16:29Z</time>
      </trkpt>
      <trkpt lat="43.812" lon="7.09293">
        <ele>760.7</ele>
        <time>2019-12-30T15:16:30Z</time>
      </trkpt>
      <trkpt lat="43.812" lon="7.09293">
        <ele>760.7</ele>
        <time>2019-12-30T15:16:31Z</time>
      </trkpt>
      <trkpt lat="43.812" lon="7.09293">
        <ele>760.7</ele>
        <time>2019-12-30T15:16:32Z</time>
      </trkpt>
      <trkpt lat="43.812" lon="7.09293">
        <ele>760.7</ele>
        <time>2019-12-30T15:16:33Z</time>
      </trkpt>
      <trkpt lat="43.812" lon="7.09293">
        <ele>760.7</ele>
        <time>2019-12-30T15:16:34Z</time>
      </trkpt>
      <trkpt lat="43.812" lon="7.09293">
        <ele>760.7</ele>
        <time>2019-12-30T15:16:35Z</time>
      </trkpt>
      <trkpt lat="43.812" lon="7.09293">
        <ele>760.7</ele>
        <time>2019-12-30T15:16:36Z</time>
      </trkpt>
      <trkpt lat="43.812" lon="7.09293">
        <ele>760.7</ele>
        <time>2019-12-30T15:16:37Z</time>
      </trkpt>
      <trkpt lat="43.812" lon="7.09293">
        <ele>760.7</ele>
        <time>2019-12-30T15:16:38Z</time>
      </trkpt>
      <trkpt lat="43.812" lon="7.09293">
        <ele>760.7</ele>
        <time>2019-12-30T15:16:39Z</time>
      </trkpt>
      <trkpt lat="43.812" lon="7.09293">
        <ele>760.7</ele>
        <time>2019-12-30T15:16:40Z</time>
      </trkpt>
      <trkpt lat="43.812" lon="7.09292">
        <ele>760.7</ele>
        <time>2019-12-30T15:16:41Z</time>
      </trkpt>
      <trkpt lat="43.812" lon="7.09292">
        <ele>760.7</ele>
        <time>2019-12-30T15:16:42Z</time>
      </trkpt>
      <trkpt lat="43.812" lon="7.09292">
        <ele>760.7</ele>
        <time>2019-12-30T15:16:43Z</time>
      </trkpt>
      <trkpt lat="43.81201" lon="7.09293">
        <ele>760.8</ele>
        <time>2019-12-30T15:16:44Z</time>
      </trkpt>
      <trkpt lat="43.81202" lon="7.09293">
        <ele>761</ele>
        <time>2019-12-30T15:16:45Z</time>
      </trkpt>
      <trkpt lat="43.81203" lon="7.09294">
        <ele>761</ele>
        <time>2019-12-30T15:16:46Z</time>
      </trkpt>
      <trkpt lat="43.81205" lon="7.09295">
        <ele>761.2</ele>
        <time>2019-12-30T15:16:47Z</time>
      </trkpt>
      <trkpt lat="43.81208" lon="7.09297">
        <ele>761.3</ele>
        <time>2019-12-30T15:16:48Z</time>
      </trkpt>
      <trkpt lat="43.8121" lon="7.093">
        <ele>761.5</ele>
        <time>2019-12-30T15:16:49Z</time>
      </trkpt>
      <trkpt lat="43.81212" lon="7.09304">
        <ele>762.2</ele>
        <time>2019-12-30T15:16:50Z</time>
      </trkpt>
      <trkpt lat="43.81212" lon="7.09308">
        <ele>762</ele>
        <time>2019-12-30T15:16:51Z</time>
      </trkpt>
      <trkpt lat="43.81212" lon="7.09312">
        <ele>761.8</ele>
        <time>2019-12-30T15:16:52Z</time>
      </trkpt>
      <trkpt lat="43.81212" lon="7.09316">
        <ele>761.6</ele>
        <time>2019-12-30T15:16:53Z</time>
      </trkpt>
      <trkpt lat="43.81211" lon="7.0932">
        <ele>761.4</ele>
        <time>2019-12-30T15:16:54Z</time>
      </trkpt>
      <trkpt lat="43.81211" lon="7.09324">
        <ele>761.2</ele>
        <time>2019-12-30T15:16:55Z</time>
      </trkpt>
      <trkpt lat="43.8121" lon="7.09328">
        <ele>760.9</ele>
        <time>2019-12-30T15:16:56Z</time>
      </trkpt>
      <trkpt lat="43.81209" lon="7.09332">
        <ele>760.7</ele>
        <time>2019-12-30T15:16:57Z</time>
      </trkpt>
      <trkpt lat="43.81208" lon="7.09336">
        <ele>760.5</ele>
        <time>2019-12-30T15:16:58Z</time>
      </trkpt>
      <trkpt lat="43.81208" lon="7.0934">
        <ele>760.4</ele>
        <time>2019-12-30T15:16:59Z</time>
      </trkpt>
      <trkpt lat="43.81207" lon="7.09345">
        <ele>760.2</ele>
        <time>2019-12-30T15:17:00Z</time>
      </trkpt>
      <trkpt lat="43.81206" lon="7.09349">
        <ele>760</ele>
        <time>2019-12-30T15:17:01Z</time>
      </trkpt>
      <trkpt lat="43.81204" lon="7.09354">
        <ele>759.7</ele>
        <time>2019-12-30T15:17:02Z</time>
      </trkpt>
      <trkpt lat="43.81203" lon="7.09359">
        <ele>759.6</ele>
        <time>2019-12-30T15:17:03Z</time>
      </trkpt>
      <trkpt lat="43.81201" lon="7.09363">
        <ele>759.4</ele>
        <time>2019-12-30T15:17:04Z</time>
      </trkpt>
      <trkpt lat="43.81199" lon="7.09367">
        <ele>759.2</ele>
        <time>2019-12-30T15:17:05Z</time>
      </trkpt>
      <trkpt lat="43.81197" lon="7.09371">
        <ele>759</ele>
        <time>2019-12-30T15:17:06Z</time>
      </trkpt>
      <trkpt lat="43.81195" lon="7.09375">
        <ele>758.8</ele>
        <time>2019-12-30T15:17:07Z</time>
      </trkpt>
      <trkpt lat="43.81192" lon="7.09378">
        <ele>758.6</ele>
        <time>2019-12-30T15:17:08Z</time>
      </trkpt>
      <trkpt lat="43.81189" lon="7.09382">
        <ele>758.4</ele>
        <time>2019-12-30T15:17:09Z</time>
      </trkpt>
      <trkpt lat="43.81186" lon="7.09385">
        <ele>758.1</ele>
        <time>2019-12-30T15:17:10Z</time>
      </trkpt>
      <trkpt lat="43.81183" lon="7.09388">
        <ele>757.9</ele>
        <time>2019-12-30T15:17:11Z</time>
      </trkpt>
      <trkpt lat="43.81178" lon="7.09395">
        <ele>757.7</ele>
        <time>2019-12-30T15:17:12Z</time>
      </trkpt>
      <trkpt lat="43.81176" lon="7.09398">
        <ele>757.6</ele>
        <time>2019-12-30T15:17:13Z</time>
      </trkpt>
      <trkpt lat="43.81174" lon="7.09401">
        <ele>757.5</ele>
        <time>2019-12-30T15:17:14Z</time>
      </trkpt>
      <trkpt lat="43.81172" lon="7.09404">
        <ele>757.3</ele>
        <time>2019-12-30T15:17:15Z</time>
      </trkpt>
      <trkpt lat="43.81169" lon="7.09409">
        <ele>757.1</ele>
        <time>2019-12-30T15:17:16Z</time>
      </trkpt>
      <trkpt lat="43.81167" lon="7.09415">
        <ele>756.9</ele>
        <time>2019-12-30T15:17:17Z</time>
      </trkpt>
      <trkpt lat="43.81165" lon="7.0942">
        <ele>756.6</ele>
        <time>2019-12-30T15:17:18Z</time>
      </trkpt>
      <trkpt lat="43.81163" lon="7.09427">
        <ele>756.3</ele>
        <time>2019-12-30T15:17:19Z</time>
      </trkpt>
      <trkpt lat="43.81161" lon="7.09437">
        <ele>755.7</ele>
        <time>2019-12-30T15:17:20Z</time>
      </trkpt>
      <trkpt lat="43.81161" lon="7.09442">
        <ele>755.5</ele>
        <time>2019-12-30T15:17:21Z</time>
      </trkpt>
      <trkpt lat="43.8116" lon="7.09446">
        <ele>755.3</ele>
        <time>2019-12-30T15:17:22Z</time>
      </trkpt>
      <trkpt lat="43.81161" lon="7.09453">
        <ele>755</ele>
        <time>2019-12-30T15:17:23Z</time>
      </trkpt>
      <trkpt lat="43.81161" lon="7.09459">
        <ele>754.7</ele>
        <time>2019-12-30T15:17:24Z</time>
      </trkpt>
      <trkpt lat="43.81162" lon="7.09465">
        <ele>754.4</ele>
        <time>2019-12-30T15:17:25Z</time>
      </trkpt>
      <trkpt lat="43.81162" lon="7.0947">
        <ele>754.2</ele>
        <time>2019-12-30T15:17:26Z</time>
      </trkpt>
      <trkpt lat="43.81162" lon="7.09476">
        <ele>753.9</ele>
        <time>2019-12-30T15:17:27Z</time>
      </trkpt>
      <trkpt lat="43.81163" lon="7.09481">
        <ele>753.7</ele>
        <time>2019-12-30T15:17:28Z</time>
      </trkpt>
      <trkpt lat="43.81163" lon="7.09485">
        <ele>753.5</ele>
        <time>2019-12-30T15:17:29Z</time>
      </trkpt>
      <trkpt lat="43.81163" lon="7.0949">
        <ele>753.3</ele>
        <time>2019-12-30T15:17:30Z</time>
      </trkpt>
      <trkpt lat="43.81163" lon="7.09494">
        <ele>753</ele>
        <time>2019-12-30T15:17:31Z</time>
      </trkpt>
      <trkpt lat="43.81163" lon="7.09498">
        <ele>752.9</ele>
        <time>2019-12-30T15:17:32Z</time>
      </trkpt>
      <trkpt lat="43.81163" lon="7.09502">
        <ele>752.7</ele>
        <time>2019-12-30T15:17:33Z</time>
      </trkpt>
      <trkpt lat="43.81164" lon="7.09506">
        <ele>752.6</ele>
        <time>2019-12-30T15:17:34Z</time>
      </trkpt>
      <trkpt lat="43.81164" lon="7.0951">
        <ele>752.5</ele>
        <time>2019-12-30T15:17:35Z</time>
      </trkpt>
      <trkpt lat="43.81164" lon="7.09514">
        <ele>752.4</ele>
        <time>2019-12-30T15:17:36Z</time>
      </trkpt>
      <trkpt lat="43.81164" lon="7.09518">
        <ele>752.2</ele>
        <time>2019-12-30T15:17:37Z</time>
      </trkpt>
      <trkpt lat="43.81163" lon="7.09522">
        <ele>752.1</ele>
        <time>2019-12-30T15:17:38Z</time>
      </trkpt>
      <trkpt lat="43.81163" lon="7.09527">
        <ele>752</ele>
        <time>2019-12-30T15:17:39Z</time>
      </trkpt>
      <trkpt lat="43.81163" lon="7.09531">
        <ele>751.9</ele>
        <time>2019-12-30T15:17:40Z</time>
      </trkpt>
      <trkpt lat="43.81164" lon="7.09535">
        <ele>751.8</ele>
        <time>2019-12-30T15:17:41Z</time>
      </trkpt>
      <trkpt lat="43.81164" lon="7.09538">
        <ele>751.7</ele>
        <time>2019-12-30T15:17:42Z</time>
      </trkpt>
      <trkpt lat="43.81164" lon="7.09542">
        <ele>751.6</ele>
        <time>2019-12-30T15:17:43Z</time>
      </trkpt>
      <trkpt lat="43.81164" lon="7.09545">
        <ele>751.6</ele>
        <time>2019-12-30T15:17:44Z</time>
      </trkpt>
      <trkpt lat="43.81164" lon="7.09548">
        <ele>751.6</ele>
        <time>2019-12-30T15:17:45Z</time>
      </trkpt>
      <trkpt lat="43.81165" lon="7.0955">
        <ele>751.6</ele>
        <time>2019-12-30T15:17:46Z</time>
      </trkpt>
      <trkpt lat="43.81165" lon="7.09552">
        <ele>751.6</ele>
        <time>2019-12-30T15:17:47Z</time>
      </trkpt>
      <trkpt lat="43.81165" lon="7.09555">
        <ele>751.5</ele>
        <time>2019-12-30T15:17:48Z</time>
      </trkpt>
      <trkpt lat="43.81166" lon="7.09558">
        <ele>751.5</ele>
        <time>2019-12-30T15:17:49Z</time>
      </trkpt>
      <trkpt lat="43.81166" lon="7.0956">
        <ele>751.5</ele>
        <time>2019-12-30T15:17:50Z</time>
      </trkpt>
      <trkpt lat="43.81166" lon="7.0956">
        <ele>751.5</ele>
        <time>2019-12-30T15:17:51Z</time>
      </trkpt>
      <trkpt lat="43.81166" lon="7.09561">
        <ele>751.5</ele>
        <time>2019-12-30T15:17:52Z</time>
      </trkpt>
      <trkpt lat="43.81166" lon="7.09561">
        <ele>751.5</ele>
        <time>2019-12-30T15:17:53Z</time>
      </trkpt>
      <trkpt lat="43.81166" lon="7.09561">
        <ele>751.5</ele>
        <time>2019-12-30T15:17:54Z</time>
      </trkpt>
      <trkpt lat="43.81166" lon="7.09561">
        <ele>751.5</ele>
        <time>2019-12-30T15:17:55Z</time>
      </trkpt>
      <trkpt lat="43.81166" lon="7.09561">
        <ele>751.5</ele>
        <time>2019-12-30T15:17:56Z</time>
      </trkpt>
      <trkpt lat="43.81166" lon="7.09561">
        <ele>751.5</ele>
        <time>2019-12-30T15:17:57Z</time>
      </trkpt>
      <trkpt lat="43.81166" lon="7.09561">
        <ele>751.5</ele>
        <time>2019-12-30T15:17:58Z</time>
      </trkpt>
      <trkpt lat="43.81166" lon="7.09561">
        <ele>751.5</ele>
        <time>2019-12-30T15:17:59Z</time>
      </trkpt>
      <trkpt lat="43.81166" lon="7.09561">
        <ele>751.5</ele>
        <time>2019-12-30T15:18:00Z</time>
      </trkpt>
      <trkpt lat="43.81166" lon="7.09561">
        <ele>751.5</ele>
        <time>2019-12-30T15:18:01Z</time>
      </trkpt>
      <trkpt lat="43.81166" lon="7.09561">
        <ele>751.5</ele>
        <time>2019-12-30T15:18:02Z</time>
      </trkpt>
      <trkpt lat="43.81166" lon="7.09561">
        <ele>751.5</ele>
        <time>2019-12-30T15:18:03Z</time>
      </trkpt>
      <trkpt lat="43.81166" lon="7.09561">
        <ele>751.5</ele>
        <time>2019-12-30T15:18:04Z</time>
      </trkpt>
      <trkpt lat="43.81166" lon="7.09561">
        <ele>751.5</ele>
        <time>2019-12-30T15:18:05Z</time>
      </trkpt>
      <trkpt lat="43.81166" lon="7.09561">
        <ele>751.5</ele>
        <time>2019-12-30T15:18:06Z</time>
      </trkpt>
      <trkpt lat="43.81166" lon="7.09561">
        <ele>751.5</ele>
        <time>2019-12-30T15:18:07Z</time>
      </trkpt>
      <trkpt lat="43.81166" lon="7.09561">
        <ele>751.5</ele>
        <time>2019-12-30T15:18:08Z</time>
      </trkpt>
      <trkpt lat="43.81166" lon="7.09561">
        <ele>751.5</ele>
        <time>2019-12-30T15:18:09Z</time>
      </trkpt>
      <trkpt lat="43.81166" lon="7.09561">
        <ele>751.5</ele>
        <time>2019-12-30T15:18:10Z</time>
      </trkpt>
      <trkpt lat="43.81166" lon="7.09561">
        <ele>751.5</ele>
        <time>2019-12-30T15:18:11Z</time>
      </trkpt>
      <trkpt lat="43.81166" lon="7.09561">
        <ele>751.5</ele>
        <time>2019-12-30T15:18:12Z</time>
      </trkpt>
      <trkpt lat="43.81166" lon="7.09561">
        <ele>751.5</ele>
        <time>2019-12-30T15:18:13Z</time>
      </trkpt>
      <trkpt lat="43.81166" lon="7.09561">
        <ele>751.5</ele>
        <time>2019-12-30T15:18:14Z</time>
      </trkpt>
      <trkpt lat="43.81166" lon="7.09561">
        <ele>751.5</ele>
        <time>2019-12-30T15:18:15Z</time>
      </trkpt>
      <trkpt lat="43.81166" lon="7.09561">
        <ele>751.5</ele>
        <time>2019-12-30T15:18:16Z</time>
      </trkpt>
      <trkpt lat="43.81166" lon="7.09561">
        <ele>751.5</ele>
        <time>2019-12-30T15:18:17Z</time>
      </trkpt>
      <trkpt lat="43.81166" lon="7.09561">
        <ele>751.5</ele>
        <time>2019-12-30T15:18:18Z</time>
      </trkpt>
      <trkpt lat="43.81166" lon="7.09561">
        <ele>751.5</ele>
        <time>2019-12-30T15:18:19Z</time>
      </trkpt>
      <trkpt lat="43.81166" lon="7.09561">
        <ele>751.5</ele>
        <time>2019-12-30T15:18:20Z</time>
      </trkpt>
      <trkpt lat="43.81166" lon="7.09561">
        <ele>751.5</ele>
        <time>2019-12-30T15:18:21Z</time>
      </trkpt>
      <trkpt lat="43.81166" lon="7.09561">
        <ele>751.5</ele>
        <time>2019-12-30T15:18:22Z</time>
      </trkpt>
      <trkpt lat="43.81166" lon="7.09561">
        <ele>751.5</ele>
        <time>2019-12-30T15:18:23Z</time>
      </trkpt>
      <trkpt lat="43.81166" lon="7.09561">
        <ele>751.5</ele>
        <time>2019-12-30T15:18:24Z</time>
      </trkpt>
      <trkpt lat="43.81166" lon="7.09561">
        <ele>751.5</ele>
        <time>2019-12-30T15:18:25Z</time>
      </trkpt>
      <trkpt lat="43.81166" lon="7.09561">
        <ele>751.5</ele>
        <time>2019-12-30T15:18:26Z</time>
      </trkpt>
      <trkpt lat="43.81166" lon="7.09561">
        <ele>751.5</ele>
        <time>2019-12-30T15:18:27Z</time>
      </trkpt>
      <trkpt lat="43.81166" lon="7.09561">
        <ele>751.5</ele>
        <time>2019-12-30T15:18:28Z</time>
      </trkpt>
      <trkpt lat="43.81166" lon="7.09561">
        <ele>751.5</ele>
        <time>2019-12-30T15:18:29Z</time>
      </trkpt>
      <trkpt lat="43.81166" lon="7.09562">
        <ele>751.5</ele>
        <time>2019-12-30T15:18:30Z</time>
      </trkpt>
      <trkpt lat="43.81165" lon="7.09563">
        <ele>751.5</ele>
        <time>2019-12-30T15:18:31Z</time>
      </trkpt>
      <trkpt lat="43.81165" lon="7.09565">
        <ele>751.5</ele>
        <time>2019-12-30T15:18:32Z</time>
      </trkpt>
      <trkpt lat="43.81165" lon="7.09565">
        <ele>751.5</ele>
        <time>2019-12-30T15:18:33Z</time>
      </trkpt>
      <trkpt lat="43.81165" lon="7.09566">
        <ele>751.4</ele>
        <time>2019-12-30T15:18:34Z</time>
      </trkpt>
      <trkpt lat="43.81164" lon="7.09567">
        <ele>751.4</ele>
        <time>2019-12-30T15:18:35Z</time>
      </trkpt>
      <trkpt lat="43.81164" lon="7.09567">
        <ele>751.4</ele>
        <time>2019-12-30T15:18:36Z</time>
      </trkpt>
      <trkpt lat="43.81164" lon="7.09567">
        <ele>751.4</ele>
        <time>2019-12-30T15:18:37Z</time>
      </trkpt>
      <trkpt lat="43.81164" lon="7.09567">
        <ele>751.4</ele>
        <time>2019-12-30T15:18:38Z</time>
      </trkpt>
      <trkpt lat="43.81164" lon="7.09567">
        <ele>751.4</ele>
        <time>2019-12-30T15:18:39Z</time>
      </trkpt>
      <trkpt lat="43.81164" lon="7.09567">
        <ele>751.4</ele>
        <time>2019-12-30T15:18:40Z</time>
      </trkpt>
      <trkpt lat="43.81164" lon="7.09567">
        <ele>751.4</ele>
        <time>2019-12-30T15:18:41Z</time>
      </trkpt>
      <trkpt lat="43.81164" lon="7.09567">
        <ele>751.4</ele>
        <time>2019-12-30T15:18:42Z</time>
      </trkpt>
      <trkpt lat="43.81164" lon="7.09567">
        <ele>751.4</ele>
        <time>2019-12-30T15:18:43Z</time>
      </trkpt>
      <trkpt lat="43.81164" lon="7.09567">
        <ele>751.4</ele>
        <time>2019-12-30T15:18:44Z</time>
      </trkpt>
      <trkpt lat="43.81164" lon="7.09567">
        <ele>751.4</ele>
        <time>2019-12-30T15:18:45Z</time>
      </trkpt>
      <trkpt lat="43.81164" lon="7.09567">
        <ele>751.4</ele>
        <time>2019-12-30T15:18:46Z</time>
      </trkpt>
      <trkpt lat="43.81164" lon="7.09567">
        <ele>751.4</ele>
        <time>2019-12-30T15:18:47Z</time>
      </trkpt>
      <trkpt lat="43.81164" lon="7.09567">
        <ele>751.4</ele>
        <time>2019-12-30T15:18:48Z</time>
      </trkpt>
      <trkpt lat="43.81164" lon="7.09567">
        <ele>751.4</ele>
        <time>2019-12-30T15:18:49Z</time>
      </trkpt>
      <trkpt lat="43.81164" lon="7.09567">
        <ele>751.4</ele>
        <time>2019-12-30T15:18:50Z</time>
      </trkpt>
      <trkpt lat="43.81164" lon="7.09567">
        <ele>751.4</ele>
        <time>2019-12-30T15:18:51Z</time>
      </trkpt>
      <trkpt lat="43.81164" lon="7.09567">
        <ele>751.4</ele>
        <time>2019-12-30T15:18:52Z</time>
      </trkpt>
      <trkpt lat="43.81164" lon="7.09567">
        <ele>751.4</ele>
        <time>2019-12-30T15:18:53Z</time>
      </trkpt>
      <trkpt lat="43.81164" lon="7.09567">
        <ele>751.4</ele>
        <time>2019-12-30T15:18:54Z</time>
      </trkpt>
      <trkpt lat="43.81164" lon="7.09567">
        <ele>751.4</ele>
        <time>2019-12-30T15:18:55Z</time>
      </trkpt>
      <trkpt lat="43.81164" lon="7.09567">
        <ele>751.4</ele>
        <time>2019-12-30T15:18:56Z</time>
      </trkpt>
      <trkpt lat="43.81164" lon="7.09567">
        <ele>751.4</ele>
        <time>2019-12-30T15:18:57Z</time>
      </trkpt>
      <trkpt lat="43.81164" lon="7.09567">
        <ele>751.4</ele>
        <time>2019-12-30T15:18:58Z</time>
      </trkpt>
      <trkpt lat="43.81164" lon="7.09567">
        <ele>751.4</ele>
        <time>2019-12-30T15:18:59Z</time>
      </trkpt>
      <trkpt lat="43.81164" lon="7.09567">
        <ele>751.4</ele>
        <time>2019-12-30T15:19:00Z</time>
      </trkpt>
      <trkpt lat="43.81164" lon="7.09567">
        <ele>751.4</ele>
        <time>2019-12-30T15:19:01Z</time>
      </trkpt>
      <trkpt lat="43.81164" lon="7.09567">
        <ele>751.4</ele>
        <time>2019-12-30T15:19:02Z</time>
      </trkpt>
      <trkpt lat="43.81164" lon="7.09567">
        <ele>751.4</ele>
        <time>2019-12-30T15:19:03Z</time>
      </trkpt>
    </trkseg>
  </trk>
</gpx>